<?xml version="1.0" encoding="UTF-8"?>
<gpx version="1.1" creator="https://www.youtrack.es" xsi:schemaLocation="http://www.topografix.com/GPX/1/1 http://www.topografix.com/GPX/1/1/gpx.xsd http://www.garmin.com/xmlschemas/GpxExtensions/v3 http://www.garmin.com/xmlschemas/GpxExtensionsv3.xsd http://www.garmin.com/xmlschemas/TrackPointExtension/v1 http://www.garmin.com/xmlschemas/TrackPointExtensionv1.xsd" xmlns:gpxtpx="http://www.garmin.com/xmlschemas/TrackPointExtension/v1" xmlns:gpxx="http://www.garmin.com/xmlschemas/GpxExtensions/v3" xmlns:xsi="http://www.w3.org/2001/XMLSchema-instance">
  <metadata>
    <link href="https://www.youtrack.es">
      <text>YouTrack.es</text>
    </link>
    <time>2026-05-08T22:44:46Z</time>
  </metadata>
  <trk>
    <src>https://www.youtrack.es</src>
    <link href="https://www.youtrack.es/ruta/3882-nisa-fatima-caminhos-de-fatima--">
      <text>YouTrack.es</text>
    </link>
    <trkseg>
      <trkpt lat="39.5134083554" lon="-7.6515320409">
        <ele>220.76</ele>
        <time>2018-12-19T07:14:20Z</time>
      </trkpt>
      <trkpt lat="39.5134086069" lon="-7.6515321247">
        <ele>221.72</ele>
        <time>2018-12-19T07:14:22Z</time>
      </trkpt>
      <trkpt lat="39.5133994706" lon="-7.6515614614">
        <ele>220.76</ele>
        <time>2018-12-19T07:14:24Z</time>
      </trkpt>
      <trkpt lat="39.5133966208" lon="-7.6515747886">
        <ele>224.12</ele>
        <time>2018-12-19T07:14:25Z</time>
      </trkpt>
      <trkpt lat="39.5133874007" lon="-7.6515980065">
        <ele>226.53</ele>
        <time>2018-12-19T07:14:26Z</time>
      </trkpt>
      <trkpt lat="39.5133890770" lon="-7.6516460348">
        <ele>232.30</ele>
        <time>2018-12-19T07:14:28Z</time>
      </trkpt>
      <trkpt lat="39.5133662783" lon="-7.6517848391">
        <ele>238.06</ele>
        <time>2018-12-19T07:14:34Z</time>
      </trkpt>
      <trkpt lat="39.5133624226" lon="-7.6518038660">
        <ele>241.43</ele>
        <time>2018-12-19T07:14:35Z</time>
      </trkpt>
      <trkpt lat="39.5133577287" lon="-7.6518225577">
        <ele>241.43</ele>
        <time>2018-12-19T07:14:36Z</time>
      </trkpt>
      <trkpt lat="39.5133490115" lon="-7.6518618688">
        <ele>245.27</ele>
        <time>2018-12-19T07:14:38Z</time>
      </trkpt>
      <trkpt lat="39.5133367740" lon="-7.6518916246">
        <ele>249.60</ele>
        <time>2018-12-19T07:14:40Z</time>
      </trkpt>
      <trkpt lat="39.5133280568" lon="-7.6519125793">
        <ele>253.44</ele>
        <time>2018-12-19T07:14:42Z</time>
      </trkpt>
      <trkpt lat="39.5133233629" lon="-7.6519257389">
        <ele>252.96</ele>
        <time>2018-12-19T07:14:43Z</time>
      </trkpt>
      <trkpt lat="39.5133195911" lon="-7.6519411616">
        <ele>257.29</ele>
        <time>2018-12-19T07:14:44Z</time>
      </trkpt>
      <trkpt lat="39.5133164898" lon="-7.6519760303">
        <ele>260.17</ele>
        <time>2018-12-19T07:14:46Z</time>
      </trkpt>
      <trkpt lat="39.5133159030" lon="-7.6520060375">
        <ele>263.54</ele>
        <time>2018-12-19T07:14:48Z</time>
      </trkpt>
      <trkpt lat="39.5133169089" lon="-7.6520288363">
        <ele>266.90</ele>
        <time>2018-12-19T07:14:50Z</time>
      </trkpt>
      <trkpt lat="39.5133183338" lon="-7.6520366315">
        <ele>263.06</ele>
        <time>2018-12-19T07:14:51Z</time>
      </trkpt>
      <trkpt lat="39.5133208483" lon="-7.6520464383">
        <ele>272.67</ele>
        <time>2018-12-19T07:14:52Z</time>
      </trkpt>
      <trkpt lat="39.5133197587" lon="-7.6520605199">
        <ele>267.86</ele>
        <time>2018-12-19T07:14:53Z</time>
      </trkpt>
      <trkpt lat="39.5133170765" lon="-7.6520814747">
        <ele>273.15</ele>
        <time>2018-12-19T07:14:54Z</time>
      </trkpt>
      <trkpt lat="39.5133125503" lon="-7.6521423273">
        <ele>276.52</ele>
        <time>2018-12-19T07:14:58Z</time>
      </trkpt>
      <trkpt lat="39.5133078564" lon="-7.6521902718">
        <ele>279.88</ele>
        <time>2018-12-19T07:15:01Z</time>
      </trkpt>
      <trkpt lat="39.5133025758" lon="-7.6522513758">
        <ele>283.73</ele>
        <time>2018-12-19T07:15:05Z</time>
      </trkpt>
      <trkpt lat="39.5132981334" lon="-7.6523156650">
        <ele>286.13</ele>
        <time>2018-12-19T07:15:09Z</time>
      </trkpt>
      <trkpt lat="39.5132960379" lon="-7.6523502823">
        <ele>289.49</ele>
        <time>2018-12-19T07:15:12Z</time>
      </trkpt>
      <trkpt lat="39.5133009832" lon="-7.6523942873">
        <ele>290.94</ele>
        <time>2018-12-19T07:15:16Z</time>
      </trkpt>
      <trkpt lat="39.5133005641" lon="-7.6524802856">
        <ele>294.78</ele>
        <time>2018-12-19T07:15:22Z</time>
      </trkpt>
      <trkpt lat="39.5132952835" lon="-7.6525439881">
        <ele>296.70</ele>
        <time>2018-12-19T07:15:26Z</time>
      </trkpt>
      <trkpt lat="39.5132407174" lon="-7.6527413819">
        <ele>300.07</ele>
        <time>2018-12-19T07:15:37Z</time>
      </trkpt>
      <trkpt lat="39.5132132247" lon="-7.6528952736">
        <ele>301.03</ele>
        <time>2018-12-19T07:15:48Z</time>
      </trkpt>
      <trkpt lat="39.5131935272" lon="-7.6530222595">
        <ele>301.03</ele>
        <time>2018-12-19T07:15:57Z</time>
      </trkpt>
      <trkpt lat="39.5131449960" lon="-7.6531850360">
        <ele>300.55</ele>
        <time>2018-12-19T07:16:05Z</time>
      </trkpt>
      <trkpt lat="39.5131407212" lon="-7.6532096788">
        <ele>300.55</ele>
        <time>2018-12-19T07:16:07Z</time>
      </trkpt>
      <trkpt lat="39.5131105464" lon="-7.6533800829">
        <ele>300.07</ele>
        <time>2018-12-19T07:16:18Z</time>
      </trkpt>
      <trkpt lat="39.5130761806" lon="-7.6535218209">
        <ele>300.07</ele>
        <time>2018-12-19T07:16:28Z</time>
      </trkpt>
      <trkpt lat="39.5130476821" lon="-7.6536287740">
        <ele>298.63</ele>
        <time>2018-12-19T07:16:35Z</time>
      </trkpt>
      <trkpt lat="39.5129994862" lon="-7.6537845097">
        <ele>299.11</ele>
        <time>2018-12-19T07:16:44Z</time>
      </trkpt>
      <trkpt lat="39.5129889250" lon="-7.6538772974">
        <ele>299.11</ele>
        <time>2018-12-19T07:16:51Z</time>
      </trkpt>
      <trkpt lat="39.5129042678" lon="-7.6539161056">
        <ele>298.63</ele>
        <time>2018-12-19T07:17:00Z</time>
      </trkpt>
      <trkpt lat="39.5128363743" lon="-7.6539780479">
        <ele>299.11</ele>
        <time>2018-12-19T07:17:07Z</time>
      </trkpt>
      <trkpt lat="39.5127872564" lon="-7.6540204603">
        <ele>298.63</ele>
        <time>2018-12-19T07:17:15Z</time>
      </trkpt>
      <trkpt lat="39.5127756894" lon="-7.6540124975">
        <ele>299.59</ele>
        <time>2018-12-19T07:17:24Z</time>
      </trkpt>
      <trkpt lat="39.5127497055" lon="-7.6540323626">
        <ele>299.11</ele>
        <time>2018-12-19T07:17:34Z</time>
      </trkpt>
      <trkpt lat="39.5126405731" lon="-7.6540232264">
        <ele>298.63</ele>
        <time>2018-12-19T07:17:43Z</time>
      </trkpt>
      <trkpt lat="39.5126042794" lon="-7.6540689915">
        <ele>299.11</ele>
        <time>2018-12-19T07:17:48Z</time>
      </trkpt>
      <trkpt lat="39.5125720091" lon="-7.6542549022">
        <ele>297.67</ele>
        <time>2018-12-19T07:17:59Z</time>
      </trkpt>
      <trkpt lat="39.5125567541" lon="-7.6543579157">
        <ele>296.22</ele>
        <time>2018-12-19T07:18:06Z</time>
      </trkpt>
      <trkpt lat="39.5125488751" lon="-7.6544398908">
        <ele>295.26</ele>
        <time>2018-12-19T07:18:14Z</time>
      </trkpt>
      <trkpt lat="39.5125487912" lon="-7.6544706523">
        <ele>295.74</ele>
        <time>2018-12-19T07:18:24Z</time>
      </trkpt>
      <trkpt lat="39.5125320274" lon="-7.6545430720">
        <ele>294.30</ele>
        <time>2018-12-19T07:18:31Z</time>
      </trkpt>
      <trkpt lat="39.5125647169" lon="-7.6547531225">
        <ele>293.34</ele>
        <time>2018-12-19T07:18:43Z</time>
      </trkpt>
      <trkpt lat="39.5125710871" lon="-7.6549054217">
        <ele>293.34</ele>
        <time>2018-12-19T07:18:52Z</time>
      </trkpt>
      <trkpt lat="39.5125386491" lon="-7.6550260372">
        <ele>292.86</ele>
        <time>2018-12-19T07:19:00Z</time>
      </trkpt>
      <trkpt lat="39.5125143416" lon="-7.6551572978">
        <ele>292.38</ele>
        <time>2018-12-19T07:19:09Z</time>
      </trkpt>
      <trkpt lat="39.5125321951" lon="-7.6552458946">
        <ele>293.34</ele>
        <time>2018-12-19T07:19:16Z</time>
      </trkpt>
      <trkpt lat="39.5125679858" lon="-7.6553644147">
        <ele>294.30</ele>
        <time>2018-12-19T07:19:24Z</time>
      </trkpt>
      <trkpt lat="39.5125643816" lon="-7.6553795021">
        <ele>294.30</ele>
        <time>2018-12-19T07:19:25Z</time>
      </trkpt>
      <trkpt lat="39.5124709234" lon="-7.6554685179">
        <ele>294.78</ele>
        <time>2018-12-19T07:19:33Z</time>
      </trkpt>
      <trkpt lat="39.5124190394" lon="-7.6554990280">
        <ele>294.30</ele>
        <time>2018-12-19T07:19:37Z</time>
      </trkpt>
      <trkpt lat="39.5123863500" lon="-7.6555408537">
        <ele>293.82</ele>
        <time>2018-12-19T07:19:41Z</time>
      </trkpt>
      <trkpt lat="39.5123239886" lon="-7.6555902231">
        <ele>293.82</ele>
        <time>2018-12-19T07:19:47Z</time>
      </trkpt>
      <trkpt lat="39.5123006031" lon="-7.6555986889">
        <ele>293.82</ele>
        <time>2018-12-19T07:19:49Z</time>
      </trkpt>
      <trkpt lat="39.5121902972" lon="-7.6557026245">
        <ele>292.86</ele>
        <time>2018-12-19T07:20:00Z</time>
      </trkpt>
      <trkpt lat="39.5120993536" lon="-7.6558157802">
        <ele>292.38</ele>
        <time>2018-12-19T07:20:10Z</time>
      </trkpt>
      <trkpt lat="39.5119894668" lon="-7.6559238229">
        <ele>291.90</ele>
        <time>2018-12-19T07:20:20Z</time>
      </trkpt>
      <trkpt lat="39.5119217411" lon="-7.6560329553">
        <ele>292.38</ele>
        <time>2018-12-19T07:20:29Z</time>
      </trkpt>
      <trkpt lat="39.5118463039" lon="-7.6561937202">
        <ele>292.38</ele>
        <time>2018-12-19T07:20:40Z</time>
      </trkpt>
      <trkpt lat="39.5117862895" lon="-7.6563345362">
        <ele>292.86</ele>
        <time>2018-12-19T07:20:50Z</time>
      </trkpt>
      <trkpt lat="39.5117341541" lon="-7.6564387232">
        <ele>292.38</ele>
        <time>2018-12-19T07:20:59Z</time>
      </trkpt>
      <trkpt lat="39.5116634946" lon="-7.6565688942">
        <ele>291.42</ele>
        <time>2018-12-19T07:21:09Z</time>
      </trkpt>
      <trkpt lat="39.5115915779" lon="-7.6566854026">
        <ele>290.46</ele>
        <time>2018-12-19T07:21:18Z</time>
      </trkpt>
      <trkpt lat="39.5114959404" lon="-7.6568367798">
        <ele>289.49</ele>
        <time>2018-12-19T07:21:30Z</time>
      </trkpt>
      <trkpt lat="39.5114020631" lon="-7.6570060104">
        <ele>289.01</ele>
        <time>2018-12-19T07:21:41Z</time>
      </trkpt>
      <trkpt lat="39.5113061741" lon="-7.6571806055">
        <ele>288.53</ele>
        <time>2018-12-19T07:21:53Z</time>
      </trkpt>
      <trkpt lat="39.5112316590" lon="-7.6573142968">
        <ele>287.57</ele>
        <time>2018-12-19T07:22:03Z</time>
      </trkpt>
      <trkpt lat="39.5111582335" lon="-7.6574766543">
        <ele>288.05</ele>
        <time>2018-12-19T07:22:15Z</time>
      </trkpt>
      <trkpt lat="39.5110710617" lon="-7.6576530095">
        <ele>288.05</ele>
        <time>2018-12-19T07:22:27Z</time>
      </trkpt>
      <trkpt lat="39.5109840576" lon="-7.6578157861">
        <ele>288.53</ele>
        <time>2018-12-19T07:22:38Z</time>
      </trkpt>
      <trkpt lat="39.5109258872" lon="-7.6579462085">
        <ele>288.53</ele>
        <time>2018-12-19T07:22:48Z</time>
      </trkpt>
      <trkpt lat="39.5108473487" lon="-7.6581003517">
        <ele>289.49</ele>
        <time>2018-12-19T07:23:00Z</time>
      </trkpt>
      <trkpt lat="39.5107681397" lon="-7.6582423411">
        <ele>289.49</ele>
        <time>2018-12-19T07:23:11Z</time>
      </trkpt>
      <trkpt lat="39.5106883440" lon="-7.6584077999">
        <ele>290.46</ele>
        <time>2018-12-19T07:23:23Z</time>
      </trkpt>
      <trkpt lat="39.5106236357" lon="-7.6585388090">
        <ele>290.94</ele>
        <time>2018-12-19T07:23:32Z</time>
      </trkpt>
      <trkpt lat="39.5105611905" lon="-7.6586730871">
        <ele>291.42</ele>
        <time>2018-12-19T07:23:42Z</time>
      </trkpt>
      <trkpt lat="39.5104847476" lon="-7.6588122267">
        <ele>291.90</ele>
        <time>2018-12-19T07:23:52Z</time>
      </trkpt>
      <trkpt lat="39.5104118250" lon="-7.6589264721">
        <ele>292.38</ele>
        <time>2018-12-19T07:24:01Z</time>
      </trkpt>
      <trkpt lat="39.5103459433" lon="-7.6590289827">
        <ele>292.38</ele>
        <time>2018-12-19T07:24:09Z</time>
      </trkpt>
      <trkpt lat="39.5102787204" lon="-7.6591657754">
        <ele>291.42</ele>
        <time>2018-12-19T07:24:19Z</time>
      </trkpt>
      <trkpt lat="39.5101917163" lon="-7.6593227684">
        <ele>291.42</ele>
        <time>2018-12-19T07:24:30Z</time>
      </trkpt>
      <trkpt lat="39.5101147704" lon="-7.6594747324">
        <ele>291.42</ele>
        <time>2018-12-19T07:24:41Z</time>
      </trkpt>
      <trkpt lat="39.5100286044" lon="-7.6596500818">
        <ele>291.90</ele>
        <time>2018-12-19T07:24:54Z</time>
      </trkpt>
      <trkpt lat="39.5099514071" lon="-7.6597854495">
        <ele>291.90</ele>
        <time>2018-12-19T07:25:04Z</time>
      </trkpt>
      <trkpt lat="39.5098708570" lon="-7.6599403471">
        <ele>291.90</ele>
        <time>2018-12-19T07:25:15Z</time>
      </trkpt>
      <trkpt lat="39.5098012034" lon="-7.6600686740">
        <ele>290.94</ele>
        <time>2018-12-19T07:25:25Z</time>
      </trkpt>
      <trkpt lat="39.5097146183" lon="-7.6602306124">
        <ele>290.94</ele>
        <time>2018-12-19T07:25:38Z</time>
      </trkpt>
      <trkpt lat="39.5096115209" lon="-7.6603886113">
        <ele>289.97</ele>
        <time>2018-12-19T07:25:50Z</time>
      </trkpt>
      <trkpt lat="39.5095307194" lon="-7.6605161838">
        <ele>289.01</ele>
        <time>2018-12-19T07:26:00Z</time>
      </trkpt>
      <trkpt lat="39.5094608143" lon="-7.6606363803">
        <ele>289.01</ele>
        <time>2018-12-19T07:26:10Z</time>
      </trkpt>
      <trkpt lat="39.5093829464" lon="-7.6608139090">
        <ele>287.09</ele>
        <time>2018-12-19T07:26:22Z</time>
      </trkpt>
      <trkpt lat="39.5093095209" lon="-7.6610087883">
        <ele>288.05</ele>
        <time>2018-12-19T07:26:34Z</time>
      </trkpt>
      <trkpt lat="39.5092498418" lon="-7.6611824613">
        <ele>287.09</ele>
        <time>2018-12-19T07:26:45Z</time>
      </trkpt>
      <trkpt lat="39.5091888215" lon="-7.6613709703">
        <ele>286.61</ele>
        <time>2018-12-19T07:26:58Z</time>
      </trkpt>
      <trkpt lat="39.5091157313" lon="-7.6615751535">
        <ele>286.61</ele>
        <time>2018-12-19T07:27:11Z</time>
      </trkpt>
      <trkpt lat="39.5090666972" lon="-7.6617542747">
        <ele>286.61</ele>
        <time>2018-12-19T07:27:21Z</time>
      </trkpt>
      <trkpt lat="39.5090225246" lon="-7.6619226672">
        <ele>286.61</ele>
        <time>2018-12-19T07:27:32Z</time>
      </trkpt>
      <trkpt lat="39.5089785196" lon="-7.6620617229">
        <ele>286.61</ele>
        <time>2018-12-19T07:27:41Z</time>
      </trkpt>
      <trkpt lat="39.5089379512" lon="-7.6621793211">
        <ele>286.13</ele>
        <time>2018-12-19T07:27:49Z</time>
      </trkpt>
      <trkpt lat="39.5088874083" lon="-7.6623123419">
        <ele>286.13</ele>
        <time>2018-12-19T07:27:59Z</time>
      </trkpt>
      <trkpt lat="39.5088139828" lon="-7.6624617912">
        <ele>286.61</ele>
        <time>2018-12-19T07:28:10Z</time>
      </trkpt>
      <trkpt lat="39.5087300800" lon="-7.6626041997">
        <ele>286.61</ele>
        <time>2018-12-19T07:28:21Z</time>
      </trkpt>
      <trkpt lat="39.5086168405" lon="-7.6627453510">
        <ele>285.65</ele>
        <time>2018-12-19T07:28:32Z</time>
      </trkpt>
      <trkpt lat="39.5085110608" lon="-7.6628923696">
        <ele>285.65</ele>
        <time>2018-12-19T07:28:43Z</time>
      </trkpt>
      <trkpt lat="39.5084181894" lon="-7.6630353648">
        <ele>284.69</ele>
        <time>2018-12-19T07:28:54Z</time>
      </trkpt>
      <trkpt lat="39.5083088893" lon="-7.6631898433">
        <ele>283.25</ele>
        <time>2018-12-19T07:29:07Z</time>
      </trkpt>
      <trkpt lat="39.5082257409" lon="-7.6633705571">
        <ele>282.77</ele>
        <time>2018-12-19T07:29:20Z</time>
      </trkpt>
      <trkpt lat="39.5081981644" lon="-7.6634550467">
        <ele>282.28</ele>
        <time>2018-12-19T07:29:29Z</time>
      </trkpt>
      <trkpt lat="39.5081868488" lon="-7.6634464134">
        <ele>281.32</ele>
        <time>2018-12-19T07:29:40Z</time>
      </trkpt>
      <trkpt lat="39.5081790537" lon="-7.6634648535">
        <ele>281.80</ele>
        <time>2018-12-19T07:30:00Z</time>
      </trkpt>
      <trkpt lat="39.5081794728" lon="-7.6634470001">
        <ele>281.32</ele>
        <time>2018-12-19T07:30:22Z</time>
      </trkpt>
      <trkpt lat="39.5082018524" lon="-7.6634276379">
        <ele>281.32</ele>
        <time>2018-12-19T07:30:29Z</time>
      </trkpt>
      <trkpt lat="39.5081983320" lon="-7.6634315774">
        <ele>281.32</ele>
        <time>2018-12-19T07:30:36Z</time>
      </trkpt>
      <trkpt lat="39.5082057081" lon="-7.6634347625">
        <ele>280.84</ele>
        <time>2018-12-19T07:30:47Z</time>
      </trkpt>
      <trkpt lat="39.5081984159" lon="-7.6634366065">
        <ele>277.00</ele>
        <time>2018-12-19T07:30:50Z</time>
      </trkpt>
      <trkpt lat="39.5081980806" lon="-7.6634366903">
        <ele>283.73</ele>
        <time>2018-12-19T07:30:51Z</time>
      </trkpt>
      <trkpt lat="39.5081893634" lon="-7.6634365227">
        <ele>281.32</ele>
        <time>2018-12-19T07:31:10Z</time>
      </trkpt>
      <trkpt lat="39.5081985835" lon="-7.6634252071">
        <ele>282.77</ele>
        <time>2018-12-19T07:31:23Z</time>
      </trkpt>
      <trkpt lat="39.5082022715" lon="-7.6634127181">
        <ele>282.77</ele>
        <time>2018-12-19T07:31:31Z</time>
      </trkpt>
      <trkpt lat="39.5082229748" lon="-7.6634114608">
        <ele>282.28</ele>
        <time>2018-12-19T07:31:44Z</time>
      </trkpt>
      <trkpt lat="39.5082140900" lon="-7.6634155679">
        <ele>282.28</ele>
        <time>2018-12-19T07:31:54Z</time>
      </trkpt>
      <trkpt lat="39.5082103182" lon="-7.6634112932">
        <ele>282.77</ele>
        <time>2018-12-19T07:32:03Z</time>
      </trkpt>
      <trkpt lat="39.5081992541" lon="-7.6634160709">
        <ele>282.28</ele>
        <time>2018-12-19T07:32:11Z</time>
      </trkpt>
      <trkpt lat="39.5081441849" lon="-7.6634967048">
        <ele>282.28</ele>
        <time>2018-12-19T07:32:16Z</time>
      </trkpt>
      <trkpt lat="39.5080382377" lon="-7.6636450645">
        <ele>281.80</ele>
        <time>2018-12-19T07:32:28Z</time>
      </trkpt>
      <trkpt lat="39.5079956576" lon="-7.6637063362">
        <ele>281.32</ele>
        <time>2018-12-19T07:32:33Z</time>
      </trkpt>
      <trkpt lat="39.5078978408" lon="-7.6637696195">
        <ele>280.84</ele>
        <time>2018-12-19T07:32:43Z</time>
      </trkpt>
      <trkpt lat="39.5077992696" lon="-7.6638945937">
        <ele>280.84</ele>
        <time>2018-12-19T07:32:54Z</time>
      </trkpt>
      <trkpt lat="39.5076904725" lon="-7.6640662551">
        <ele>279.88</ele>
        <time>2018-12-19T07:33:07Z</time>
      </trkpt>
      <trkpt lat="39.5075993612" lon="-7.6642049756">
        <ele>279.40</ele>
        <time>2018-12-19T07:33:18Z</time>
      </trkpt>
      <trkpt lat="39.5075160451" lon="-7.6643197238">
        <ele>278.92</ele>
        <time>2018-12-19T07:33:27Z</time>
      </trkpt>
      <trkpt lat="39.5074483193" lon="-7.6644331310">
        <ele>279.40</ele>
        <time>2018-12-19T07:33:36Z</time>
      </trkpt>
      <trkpt lat="39.5074436255" lon="-7.6644454524">
        <ele>276.04</ele>
        <time>2018-12-19T07:33:37Z</time>
      </trkpt>
      <trkpt lat="39.5074169710" lon="-7.6644820813">
        <ele>278.92</ele>
        <time>2018-12-19T07:33:40Z</time>
      </trkpt>
      <trkpt lat="39.5073277876" lon="-7.6646251604">
        <ele>278.44</ele>
        <time>2018-12-19T07:33:51Z</time>
      </trkpt>
      <trkpt lat="39.5072417893" lon="-7.6647122484">
        <ele>277.48</ele>
        <time>2018-12-19T07:33:59Z</time>
      </trkpt>
      <trkpt lat="39.5071236044" lon="-7.6648668107">
        <ele>277.00</ele>
        <time>2018-12-19T07:34:11Z</time>
      </trkpt>
      <trkpt lat="39.5070083532" lon="-7.6650315989">
        <ele>277.00</ele>
        <time>2018-12-19T07:34:22Z</time>
      </trkpt>
      <trkpt lat="39.5069248695" lon="-7.6652102172">
        <ele>276.52</ele>
        <time>2018-12-19T07:34:34Z</time>
      </trkpt>
      <trkpt lat="39.5068376139" lon="-7.6653668750">
        <ele>276.52</ele>
        <time>2018-12-19T07:34:45Z</time>
      </trkpt>
      <trkpt lat="39.5067600813" lon="-7.6654967945">
        <ele>276.52</ele>
        <time>2018-12-19T07:34:56Z</time>
      </trkpt>
      <trkpt lat="39.5066573191" lon="-7.6656083576">
        <ele>276.52</ele>
        <time>2018-12-19T07:35:07Z</time>
      </trkpt>
      <trkpt lat="39.5065708179" lon="-7.6657366008">
        <ele>276.52</ele>
        <time>2018-12-19T07:35:18Z</time>
      </trkpt>
      <trkpt lat="39.5065576583" lon="-7.6657595672">
        <ele>276.52</ele>
        <time>2018-12-19T07:35:20Z</time>
      </trkpt>
      <trkpt lat="39.5064639486" lon="-7.6659184042">
        <ele>276.04</ele>
        <time>2018-12-19T07:35:32Z</time>
      </trkpt>
      <trkpt lat="39.5063713286" lon="-7.6660793368">
        <ele>276.04</ele>
        <time>2018-12-19T07:35:45Z</time>
      </trkpt>
      <trkpt lat="39.5062760264" lon="-7.6661848649">
        <ele>276.52</ele>
        <time>2018-12-19T07:35:55Z</time>
      </trkpt>
      <trkpt lat="39.5061663911" lon="-7.6663171314">
        <ele>276.52</ele>
        <time>2018-12-19T07:36:05Z</time>
      </trkpt>
      <trkpt lat="39.5060647186" lon="-7.6664656587">
        <ele>277.48</ele>
        <time>2018-12-19T07:36:16Z</time>
      </trkpt>
      <trkpt lat="39.5059820730" lon="-7.6665824186">
        <ele>277.48</ele>
        <time>2018-12-19T07:36:25Z</time>
      </trkpt>
      <trkpt lat="39.5058831666" lon="-7.6666868571">
        <ele>277.48</ele>
        <time>2018-12-19T07:36:33Z</time>
      </trkpt>
      <trkpt lat="39.5058047958" lon="-7.6667394955">
        <ele>278.44</ele>
        <time>2018-12-19T07:36:40Z</time>
      </trkpt>
      <trkpt lat="39.5057011954" lon="-7.6668484602">
        <ele>279.40</ele>
        <time>2018-12-19T07:36:51Z</time>
      </trkpt>
      <trkpt lat="39.5056059770" lon="-7.6669548266">
        <ele>279.88</ele>
        <time>2018-12-19T07:37:02Z</time>
      </trkpt>
      <trkpt lat="39.5055566076" lon="-7.6669738535">
        <ele>279.88</ele>
        <time>2018-12-19T07:37:07Z</time>
      </trkpt>
      <trkpt lat="39.5054556057" lon="-7.6670391485">
        <ele>281.32</ele>
        <time>2018-12-19T07:37:17Z</time>
      </trkpt>
      <trkpt lat="39.5053699426" lon="-7.6671197824">
        <ele>281.80</ele>
        <time>2018-12-19T07:37:26Z</time>
      </trkpt>
      <trkpt lat="39.5053361636" lon="-7.6671518013">
        <ele>280.36</ele>
        <time>2018-12-19T07:37:30Z</time>
      </trkpt>
      <trkpt lat="39.5052335691" lon="-7.6672246400">
        <ele>281.80</ele>
        <time>2018-12-19T07:37:39Z</time>
      </trkpt>
      <trkpt lat="39.5051729679" lon="-7.6672840677">
        <ele>282.28</ele>
        <time>2018-12-19T07:37:44Z</time>
      </trkpt>
      <trkpt lat="39.5050840359" lon="-7.6673873328">
        <ele>282.28</ele>
        <time>2018-12-19T07:37:52Z</time>
      </trkpt>
      <trkpt lat="39.5049318206" lon="-7.6675485168">
        <ele>282.28</ele>
        <time>2018-12-19T07:38:05Z</time>
      </trkpt>
      <trkpt lat="39.5047843829" lon="-7.6677021571">
        <ele>283.73</ele>
        <time>2018-12-19T07:38:17Z</time>
      </trkpt>
      <trkpt lat="39.5046330057" lon="-7.6678380277">
        <ele>283.25</ele>
        <time>2018-12-19T07:38:31Z</time>
      </trkpt>
      <trkpt lat="39.5045904256" lon="-7.6678977069">
        <ele>283.25</ele>
        <time>2018-12-19T07:38:36Z</time>
      </trkpt>
      <trkpt lat="39.5045509469" lon="-7.6679729763">
        <ele>283.25</ele>
        <time>2018-12-19T07:38:41Z</time>
      </trkpt>
      <trkpt lat="39.5044266433" lon="-7.6681146305">
        <ele>284.21</ele>
        <time>2018-12-19T07:38:53Z</time>
      </trkpt>
      <trkpt lat="39.5043047704" lon="-7.6681935880">
        <ele>284.21</ele>
        <time>2018-12-19T07:39:03Z</time>
      </trkpt>
      <trkpt lat="39.5042094681" lon="-7.6682871301">
        <ele>285.65</ele>
        <time>2018-12-19T07:39:13Z</time>
      </trkpt>
      <trkpt lat="39.5041844063" lon="-7.6683065761">
        <ele>284.69</ele>
        <time>2018-12-19T07:39:16Z</time>
      </trkpt>
      <trkpt lat="39.5040739328" lon="-7.6683779061">
        <ele>286.13</ele>
        <time>2018-12-19T07:39:26Z</time>
      </trkpt>
      <trkpt lat="39.5040041115" lon="-7.6684222464">
        <ele>285.65</ele>
        <time>2018-12-19T07:39:32Z</time>
      </trkpt>
      <trkpt lat="39.5039204601" lon="-7.6684810873">
        <ele>286.61</ele>
        <time>2018-12-19T07:39:40Z</time>
      </trkpt>
      <trkpt lat="39.5037928037" lon="-7.6685607154">
        <ele>287.09</ele>
        <time>2018-12-19T07:39:51Z</time>
      </trkpt>
      <trkpt lat="39.5037700888" lon="-7.6685702708">
        <ele>287.57</ele>
        <time>2018-12-19T07:39:53Z</time>
      </trkpt>
      <trkpt lat="39.5036603697" lon="-7.6686154492">
        <ele>288.53</ele>
        <time>2018-12-19T07:40:03Z</time>
      </trkpt>
      <trkpt lat="39.5035827532" lon="-7.6686690934">
        <ele>289.49</ele>
        <time>2018-12-19T07:40:10Z</time>
      </trkpt>
      <trkpt lat="39.5034918934" lon="-7.6687040459">
        <ele>290.46</ele>
        <time>2018-12-19T07:40:19Z</time>
      </trkpt>
      <trkpt lat="39.5033933222" lon="-7.6687643956">
        <ele>290.94</ele>
        <time>2018-12-19T07:40:27Z</time>
      </trkpt>
      <trkpt lat="39.5033178851" lon="-7.6688391622">
        <ele>292.38</ele>
        <time>2018-12-19T07:40:34Z</time>
      </trkpt>
      <trkpt lat="39.5032030530" lon="-7.6689486299">
        <ele>292.38</ele>
        <time>2018-12-19T07:40:45Z</time>
      </trkpt>
      <trkpt lat="39.5031034760" lon="-7.6690507215">
        <ele>292.38</ele>
        <time>2018-12-19T07:40:55Z</time>
      </trkpt>
      <trkpt lat="39.5030018035" lon="-7.6691490412">
        <ele>293.34</ele>
        <time>2018-12-19T07:41:04Z</time>
      </trkpt>
      <trkpt lat="39.5029204991" lon="-7.6692311000">
        <ele>294.30</ele>
        <time>2018-12-19T07:41:12Z</time>
      </trkpt>
      <trkpt lat="39.5028785057" lon="-7.6692574192">
        <ele>294.78</ele>
        <time>2018-12-19T07:41:16Z</time>
      </trkpt>
      <trkpt lat="39.5027868077" lon="-7.6693440881">
        <ele>294.78</ele>
        <time>2018-12-19T07:41:25Z</time>
      </trkpt>
      <trkpt lat="39.5027459040" lon="-7.6694056951">
        <ele>295.74</ele>
        <time>2018-12-19T07:41:32Z</time>
      </trkpt>
      <trkpt lat="39.5026631746" lon="-7.6695188507">
        <ele>296.70</ele>
        <time>2018-12-19T07:41:42Z</time>
      </trkpt>
      <trkpt lat="39.5025775954" lon="-7.6696364488">
        <ele>296.70</ele>
        <time>2018-12-19T07:41:53Z</time>
      </trkpt>
      <trkpt lat="39.5025112946" lon="-7.6697257999">
        <ele>298.15</ele>
        <time>2018-12-19T07:42:02Z</time>
      </trkpt>
      <trkpt lat="39.5024225302" lon="-7.6698283106">
        <ele>300.55</ele>
        <time>2018-12-19T07:42:12Z</time>
      </trkpt>
      <trkpt lat="39.5023327600" lon="-7.6698985510">
        <ele>300.07</ele>
        <time>2018-12-19T07:42:21Z</time>
      </trkpt>
      <trkpt lat="39.5022480190" lon="-7.6699398737">
        <ele>301.03</ele>
        <time>2018-12-19T07:42:29Z</time>
      </trkpt>
      <trkpt lat="39.5021294151" lon="-7.6700156461">
        <ele>301.51</ele>
        <time>2018-12-19T07:42:39Z</time>
      </trkpt>
      <trkpt lat="39.5020616055" lon="-7.6700238604">
        <ele>301.03</ele>
        <time>2018-12-19T07:42:46Z</time>
      </trkpt>
      <trkpt lat="39.5019292552" lon="-7.6700060908">
        <ele>301.03</ele>
        <time>2018-12-19T07:42:57Z</time>
      </trkpt>
      <trkpt lat="39.5018015150" lon="-7.6699811965">
        <ele>301.51</ele>
        <time>2018-12-19T07:43:07Z</time>
      </trkpt>
      <trkpt lat="39.5016954001" lon="-7.6699518599">
        <ele>301.51</ele>
        <time>2018-12-19T07:43:16Z</time>
      </trkpt>
      <trkpt lat="39.5015753713" lon="-7.6699512731">
        <ele>302.47</ele>
        <time>2018-12-19T07:43:25Z</time>
      </trkpt>
      <trkpt lat="39.5015106630" lon="-7.6699489262">
        <ele>302.47</ele>
        <time>2018-12-19T07:43:31Z</time>
      </trkpt>
      <trkpt lat="39.5013763849" lon="-7.6699484233">
        <ele>302.95</ele>
        <time>2018-12-19T07:43:41Z</time>
      </trkpt>
      <trkpt lat="39.5012342278" lon="-7.6700018160">
        <ele>301.99</ele>
        <time>2018-12-19T07:43:52Z</time>
      </trkpt>
      <trkpt lat="39.5012255106" lon="-7.6700080186">
        <ele>302.47</ele>
        <time>2018-12-19T07:43:53Z</time>
      </trkpt>
      <trkpt lat="39.5011484809" lon="-7.6700974535">
        <ele>302.47</ele>
        <time>2018-12-19T07:44:03Z</time>
      </trkpt>
      <trkpt lat="39.5010792464" lon="-7.6701726392">
        <ele>301.51</ele>
        <time>2018-12-19T07:44:11Z</time>
      </trkpt>
      <trkpt lat="39.5009681024" lon="-7.6702580508">
        <ele>302.47</ele>
        <time>2018-12-19T07:44:22Z</time>
      </trkpt>
      <trkpt lat="39.5009170566" lon="-7.6702702884">
        <ele>302.47</ele>
        <time>2018-12-19T07:44:27Z</time>
      </trkpt>
      <trkpt lat="39.5008020569" lon="-7.6702972781">
        <ele>301.99</ele>
        <time>2018-12-19T07:44:36Z</time>
      </trkpt>
      <trkpt lat="39.5006660186" lon="-7.6703789178">
        <ele>301.03</ele>
        <time>2018-12-19T07:44:46Z</time>
      </trkpt>
      <trkpt lat="39.5005501807" lon="-7.6704741362">
        <ele>300.55</ele>
        <time>2018-12-19T07:44:56Z</time>
      </trkpt>
      <trkpt lat="39.5004493464" lon="-7.6705777366">
        <ele>300.55</ele>
        <time>2018-12-19T07:45:06Z</time>
      </trkpt>
      <trkpt lat="39.5003552176" lon="-7.6706986036">
        <ele>299.59</ele>
        <time>2018-12-19T07:45:16Z</time>
      </trkpt>
      <trkpt lat="39.5002590772" lon="-7.6708181296">
        <ele>299.59</ele>
        <time>2018-12-19T07:45:25Z</time>
      </trkpt>
      <trkpt lat="39.5001237933" lon="-7.6709830854">
        <ele>299.59</ele>
        <time>2018-12-19T07:45:38Z</time>
      </trkpt>
      <trkpt lat="39.5000180975" lon="-7.6710971631">
        <ele>300.07</ele>
        <time>2018-12-19T07:45:48Z</time>
      </trkpt>
      <trkpt lat="39.4999286626" lon="-7.6711778808">
        <ele>300.55</ele>
        <time>2018-12-19T07:45:56Z</time>
      </trkpt>
      <trkpt lat="39.4998406526" lon="-7.6712511387">
        <ele>299.59</ele>
        <time>2018-12-19T07:46:04Z</time>
      </trkpt>
      <trkpt lat="39.4997085538" lon="-7.6713250671">
        <ele>299.59</ele>
        <time>2018-12-19T07:46:15Z</time>
      </trkpt>
      <trkpt lat="39.4996021874" lon="-7.6713685691">
        <ele>298.63</ele>
        <time>2018-12-19T07:46:24Z</time>
      </trkpt>
      <trkpt lat="39.4994622935" lon="-7.6714450959">
        <ele>298.63</ele>
        <time>2018-12-19T07:46:35Z</time>
      </trkpt>
      <trkpt lat="39.4993473776" lon="-7.6715055294">
        <ele>298.15</ele>
        <time>2018-12-19T07:46:45Z</time>
      </trkpt>
      <trkpt lat="39.4991662446" lon="-7.6715710759">
        <ele>298.63</ele>
        <time>2018-12-19T07:46:58Z</time>
      </trkpt>
      <trkpt lat="39.4990437850" lon="-7.6716533862">
        <ele>298.15</ele>
        <time>2018-12-19T07:47:07Z</time>
      </trkpt>
      <trkpt lat="39.4989210740" lon="-7.6717338525">
        <ele>298.15</ele>
        <time>2018-12-19T07:47:17Z</time>
      </trkpt>
      <trkpt lat="39.4988070801" lon="-7.6718267240">
        <ele>297.67</ele>
        <time>2018-12-19T07:47:27Z</time>
      </trkpt>
      <trkpt lat="39.4987004623" lon="-7.6719604153">
        <ele>297.18</ele>
        <time>2018-12-19T07:47:38Z</time>
      </trkpt>
      <trkpt lat="39.4986139610" lon="-7.6720537897">
        <ele>298.63</ele>
        <time>2018-12-19T07:47:47Z</time>
      </trkpt>
      <trkpt lat="39.4985041581" lon="-7.6721598208">
        <ele>298.63</ele>
        <time>2018-12-19T07:47:57Z</time>
      </trkpt>
      <trkpt lat="39.4983905833" lon="-7.6723027322">
        <ele>298.63</ele>
        <time>2018-12-19T07:48:09Z</time>
      </trkpt>
      <trkpt lat="39.4983042497" lon="-7.6724244375">
        <ele>298.63</ele>
        <time>2018-12-19T07:48:18Z</time>
      </trkpt>
      <trkpt lat="39.4981997274" lon="-7.6725251880">
        <ele>299.11</ele>
        <time>2018-12-19T07:48:28Z</time>
      </trkpt>
      <trkpt lat="39.4980952051" lon="-7.6726142876">
        <ele>299.11</ele>
        <time>2018-12-19T07:48:38Z</time>
      </trkpt>
      <trkpt lat="39.4979900960" lon="-7.6727014594">
        <ele>300.07</ele>
        <time>2018-12-19T07:48:48Z</time>
      </trkpt>
      <trkpt lat="39.4979475159" lon="-7.6727388427">
        <ele>300.07</ele>
        <time>2018-12-19T07:48:52Z</time>
      </trkpt>
      <trkpt lat="39.4978305884" lon="-7.6728327200">
        <ele>301.03</ele>
        <time>2018-12-19T07:49:03Z</time>
      </trkpt>
      <trkpt lat="39.4977471884" lon="-7.6729250047">
        <ele>301.03</ele>
        <time>2018-12-19T07:49:12Z</time>
      </trkpt>
      <trkpt lat="39.4976646267" lon="-7.6730446145">
        <ele>301.51</ele>
        <time>2018-12-19T07:49:22Z</time>
      </trkpt>
      <trkpt lat="39.4976073783" lon="-7.6731173694">
        <ele>301.03</ele>
        <time>2018-12-19T07:49:28Z</time>
      </trkpt>
      <trkpt lat="39.4975603558" lon="-7.6731798984">
        <ele>301.51</ele>
        <time>2018-12-19T07:49:33Z</time>
      </trkpt>
      <trkpt lat="39.4974641316" lon="-7.6733225584">
        <ele>302.95</ele>
        <time>2018-12-19T07:49:45Z</time>
      </trkpt>
      <trkpt lat="39.4973812345" lon="-7.6733873505">
        <ele>303.43</ele>
        <time>2018-12-19T07:49:54Z</time>
      </trkpt>
      <trkpt lat="39.4972845912" lon="-7.6734758634">
        <ele>303.91</ele>
        <time>2018-12-19T07:50:04Z</time>
      </trkpt>
      <trkpt lat="39.4972031191" lon="-7.6735595986">
        <ele>304.88</ele>
        <time>2018-12-19T07:50:13Z</time>
      </trkpt>
      <trkpt lat="39.4971512351" lon="-7.6736371312">
        <ele>304.88</ele>
        <time>2018-12-19T07:50:21Z</time>
      </trkpt>
      <trkpt lat="39.4971200544" lon="-7.6736696530">
        <ele>305.36</ele>
        <time>2018-12-19T07:50:30Z</time>
      </trkpt>
      <trkpt lat="39.4970016181" lon="-7.6737837307">
        <ele>305.84</ele>
        <time>2018-12-19T07:50:41Z</time>
      </trkpt>
      <trkpt lat="39.4968888815" lon="-7.6738534681">
        <ele>306.32</ele>
        <time>2018-12-19T07:50:51Z</time>
      </trkpt>
      <trkpt lat="39.4967876282" lon="-7.6739299111">
        <ele>306.80</ele>
        <time>2018-12-19T07:51:00Z</time>
      </trkpt>
      <trkpt lat="39.4966837764" lon="-7.6740243752">
        <ele>307.28</ele>
        <time>2018-12-19T07:51:10Z</time>
      </trkpt>
      <trkpt lat="39.4966132008" lon="-7.6741193421">
        <ele>307.28</ele>
        <time>2018-12-19T07:51:19Z</time>
      </trkpt>
      <trkpt lat="39.4965967722" lon="-7.6742365211">
        <ele>307.28</ele>
        <time>2018-12-19T07:51:26Z</time>
      </trkpt>
      <trkpt lat="39.4966567867" lon="-7.6744102780">
        <ele>306.80</ele>
        <time>2018-12-19T07:51:37Z</time>
      </trkpt>
      <trkpt lat="39.4967188966" lon="-7.6745730545">
        <ele>306.80</ele>
        <time>2018-12-19T07:51:47Z</time>
      </trkpt>
      <trkpt lat="39.4967856165" lon="-7.6747014653">
        <ele>305.84</ele>
        <time>2018-12-19T07:51:56Z</time>
      </trkpt>
      <trkpt lat="39.4968442060" lon="-7.6747991145">
        <ele>305.36</ele>
        <time>2018-12-19T07:52:03Z</time>
      </trkpt>
      <trkpt lat="39.4968516659" lon="-7.6748111006">
        <ele>305.84</ele>
        <time>2018-12-19T07:52:04Z</time>
      </trkpt>
      <trkpt lat="39.4969323836" lon="-7.6749467198">
        <ele>304.88</ele>
        <time>2018-12-19T07:52:14Z</time>
      </trkpt>
      <trkpt lat="39.4970028754" lon="-7.6750726998">
        <ele>306.32</ele>
        <time>2018-12-19T07:52:23Z</time>
      </trkpt>
      <trkpt lat="39.4970619678" lon="-7.6751467120">
        <ele>305.84</ele>
        <time>2018-12-19T07:52:29Z</time>
      </trkpt>
      <trkpt lat="39.4971176237" lon="-7.6751758810">
        <ele>306.32</ele>
        <time>2018-12-19T07:52:33Z</time>
      </trkpt>
      <trkpt lat="39.4972327072" lon="-7.6752630528">
        <ele>305.84</ele>
        <time>2018-12-19T07:52:44Z</time>
      </trkpt>
      <trkpt lat="39.4973073900" lon="-7.6753532421">
        <ele>305.84</ele>
        <time>2018-12-19T07:52:53Z</time>
      </trkpt>
      <trkpt lat="39.4973174483" lon="-7.6753639709">
        <ele>306.32</ele>
        <time>2018-12-19T07:52:54Z</time>
      </trkpt>
      <trkpt lat="39.4973912928" lon="-7.6754896156">
        <ele>306.80</ele>
        <time>2018-12-19T07:53:04Z</time>
      </trkpt>
      <trkpt lat="39.4974567555" lon="-7.6756574214">
        <ele>307.28</ele>
        <time>2018-12-19T07:53:16Z</time>
      </trkpt>
      <trkpt lat="39.4975017663" lon="-7.6758317649">
        <ele>307.76</ele>
        <time>2018-12-19T07:53:27Z</time>
      </trkpt>
      <trkpt lat="39.4974986650" lon="-7.6759798732">
        <ele>308.24</ele>
        <time>2018-12-19T07:53:35Z</time>
      </trkpt>
      <trkpt lat="39.4974412490" lon="-7.6760858204">
        <ele>307.28</ele>
        <time>2018-12-19T07:53:43Z</time>
      </trkpt>
      <trkpt lat="39.4973385707" lon="-7.6762012392">
        <ele>307.28</ele>
        <time>2018-12-19T07:53:54Z</time>
      </trkpt>
      <trkpt lat="39.4972583558" lon="-7.6763043366">
        <ele>306.32</ele>
        <time>2018-12-19T07:54:03Z</time>
      </trkpt>
      <trkpt lat="39.4971631374" lon="-7.6764145587">
        <ele>305.84</ele>
        <time>2018-12-19T07:54:13Z</time>
      </trkpt>
      <trkpt lat="39.4970752951" lon="-7.6765272114">
        <ele>305.84</ele>
        <time>2018-12-19T07:54:24Z</time>
      </trkpt>
      <trkpt lat="39.4969629776" lon="-7.6766420435">
        <ele>305.84</ele>
        <time>2018-12-19T07:54:35Z</time>
      </trkpt>
      <trkpt lat="39.4968753029" lon="-7.6767549478">
        <ele>305.36</ele>
        <time>2018-12-19T07:54:44Z</time>
      </trkpt>
      <trkpt lat="39.4967932440" lon="-7.6768473163">
        <ele>304.39</ele>
        <time>2018-12-19T07:54:53Z</time>
      </trkpt>
      <trkpt lat="39.4967230037" lon="-7.6769367512">
        <ele>303.91</ele>
        <time>2018-12-19T07:55:01Z</time>
      </trkpt>
      <trkpt lat="39.4966437947" lon="-7.6770409383">
        <ele>303.43</ele>
        <time>2018-12-19T07:55:09Z</time>
      </trkpt>
      <trkpt lat="39.4965481572" lon="-7.6771587040">
        <ele>302.47</ele>
        <time>2018-12-19T07:55:19Z</time>
      </trkpt>
      <trkpt lat="39.4964366779" lon="-7.6773085725">
        <ele>301.99</ele>
        <time>2018-12-19T07:55:31Z</time>
      </trkpt>
      <trkpt lat="39.4963303953" lon="-7.6774923876">
        <ele>300.55</ele>
        <time>2018-12-19T07:55:43Z</time>
      </trkpt>
      <trkpt lat="39.4962518569" lon="-7.6776154339">
        <ele>300.55</ele>
        <time>2018-12-19T07:55:53Z</time>
      </trkpt>
      <trkpt lat="39.4961527828" lon="-7.6777344570">
        <ele>300.55</ele>
        <time>2018-12-19T07:56:03Z</time>
      </trkpt>
      <trkpt lat="39.4960515294" lon="-7.6778435893">
        <ele>299.11</ele>
        <time>2018-12-19T07:56:13Z</time>
      </trkpt>
      <trkpt lat="39.4959910959" lon="-7.6779401489">
        <ele>300.55</ele>
        <time>2018-12-19T07:56:21Z</time>
      </trkpt>
      <trkpt lat="39.4959017448" lon="-7.6780642848">
        <ele>300.55</ele>
        <time>2018-12-19T07:56:31Z</time>
      </trkpt>
      <trkpt lat="39.4958255533" lon="-7.6781668793">
        <ele>298.15</ele>
        <time>2018-12-19T07:56:40Z</time>
      </trkpt>
      <trkpt lat="39.4957247190" lon="-7.6782738324">
        <ele>298.63</ele>
        <time>2018-12-19T07:56:50Z</time>
      </trkpt>
      <trkpt lat="39.4956554007" lon="-7.6783618424">
        <ele>297.67</ele>
        <time>2018-12-19T07:56:59Z</time>
      </trkpt>
      <trkpt lat="39.4955751020" lon="-7.6784544624">
        <ele>297.67</ele>
        <time>2018-12-19T07:57:07Z</time>
      </trkpt>
      <trkpt lat="39.4954748545" lon="-7.6785811968">
        <ele>297.18</ele>
        <time>2018-12-19T07:57:17Z</time>
      </trkpt>
      <trkpt lat="39.4953528140" lon="-7.6786995493">
        <ele>296.70</ele>
        <time>2018-12-19T07:57:28Z</time>
      </trkpt>
      <trkpt lat="39.4952339586" lon="-7.6788193267">
        <ele>295.26</ele>
        <time>2018-12-19T07:57:39Z</time>
      </trkpt>
      <trkpt lat="39.4951541629" lon="-7.6789024752">
        <ele>295.74</ele>
        <time>2018-12-19T07:57:47Z</time>
      </trkpt>
      <trkpt lat="39.4950586930" lon="-7.6790119428">
        <ele>293.82</ele>
        <time>2018-12-19T07:57:57Z</time>
      </trkpt>
      <trkpt lat="39.4949615467" lon="-7.6790948398">
        <ele>293.82</ele>
        <time>2018-12-19T07:58:06Z</time>
      </trkpt>
      <trkpt lat="39.4948524982" lon="-7.6792076603">
        <ele>293.34</ele>
        <time>2018-12-19T07:58:17Z</time>
      </trkpt>
      <trkpt lat="39.4947778992" lon="-7.6792950835">
        <ele>292.86</ele>
        <time>2018-12-19T07:58:25Z</time>
      </trkpt>
      <trkpt lat="39.4946799986" lon="-7.6793966722">
        <ele>292.38</ele>
        <time>2018-12-19T07:58:35Z</time>
      </trkpt>
      <trkpt lat="39.4945629034" lon="-7.6795245800">
        <ele>292.38</ele>
        <time>2018-12-19T07:58:46Z</time>
      </trkpt>
      <trkpt lat="39.4944644161" lon="-7.6796591934">
        <ele>291.42</ele>
        <time>2018-12-19T07:58:57Z</time>
      </trkpt>
      <trkpt lat="39.4944043178" lon="-7.6797732711">
        <ele>291.42</ele>
        <time>2018-12-19T07:59:05Z</time>
      </trkpt>
      <trkpt lat="39.4943271205" lon="-7.6799197868">
        <ele>291.42</ele>
        <time>2018-12-19T07:59:15Z</time>
      </trkpt>
      <trkpt lat="39.4942548685" lon="-7.6800507121">
        <ele>290.46</ele>
        <time>2018-12-19T07:59:24Z</time>
      </trkpt>
      <trkpt lat="39.4941599015" lon="-7.6801699866">
        <ele>291.42</ele>
        <time>2018-12-19T07:59:34Z</time>
      </trkpt>
      <trkpt lat="39.4940461591" lon="-7.6803088747">
        <ele>291.42</ele>
        <time>2018-12-19T07:59:45Z</time>
      </trkpt>
      <trkpt lat="39.4940371905" lon="-7.6803182624">
        <ele>290.46</ele>
        <time>2018-12-19T07:59:46Z</time>
      </trkpt>
      <trkpt lat="39.4939443190" lon="-7.6804462541">
        <ele>291.42</ele>
        <time>2018-12-19T07:59:57Z</time>
      </trkpt>
      <trkpt lat="39.4938703068" lon="-7.6805086993">
        <ele>291.42</ele>
        <time>2018-12-19T08:00:05Z</time>
      </trkpt>
      <trkpt lat="39.4937660359" lon="-7.6806166582">
        <ele>292.38</ele>
        <time>2018-12-19T08:00:15Z</time>
      </trkpt>
      <trkpt lat="39.4936745055" lon="-7.6806952804">
        <ele>291.90</ele>
        <time>2018-12-19T08:00:24Z</time>
      </trkpt>
      <trkpt lat="39.4935811311" lon="-7.6807990484">
        <ele>294.30</ele>
        <time>2018-12-19T08:00:33Z</time>
      </trkpt>
      <trkpt lat="39.4934877567" lon="-7.6808852144">
        <ele>294.30</ele>
        <time>2018-12-19T08:00:43Z</time>
      </trkpt>
      <trkpt lat="39.4934129901" lon="-7.6809480786">
        <ele>294.30</ele>
        <time>2018-12-19T08:00:50Z</time>
      </trkpt>
      <trkpt lat="39.4933142513" lon="-7.6810305566">
        <ele>293.82</ele>
        <time>2018-12-19T08:00:59Z</time>
      </trkpt>
      <trkpt lat="39.4931879360" lon="-7.6810964383">
        <ele>293.82</ele>
        <time>2018-12-19T08:01:09Z</time>
      </trkpt>
      <trkpt lat="39.4930628780" lon="-7.6811215840">
        <ele>293.34</ele>
        <time>2018-12-19T08:01:18Z</time>
      </trkpt>
      <trkpt lat="39.4929653127" lon="-7.6811727136">
        <ele>293.82</ele>
        <time>2018-12-19T08:01:27Z</time>
      </trkpt>
      <trkpt lat="39.4929675758" lon="-7.6811919082">
        <ele>294.30</ele>
        <time>2018-12-19T08:01:38Z</time>
      </trkpt>
      <trkpt lat="39.4929684978" lon="-7.6811912376">
        <ele>294.30</ele>
        <time>2018-12-19T08:01:44Z</time>
      </trkpt>
      <trkpt lat="39.4928488880" lon="-7.6812706143">
        <ele>293.82</ele>
        <time>2018-12-19T08:01:56Z</time>
      </trkpt>
      <trkpt lat="39.4927545078" lon="-7.6813384239">
        <ele>295.26</ele>
        <time>2018-12-19T08:02:06Z</time>
      </trkpt>
      <trkpt lat="39.4926552661" lon="-7.6813960075">
        <ele>295.74</ele>
        <time>2018-12-19T08:02:16Z</time>
      </trkpt>
      <trkpt lat="39.4925559405" lon="-7.6814899687">
        <ele>296.22</ele>
        <time>2018-12-19T08:02:26Z</time>
      </trkpt>
      <trkpt lat="39.4924894720" lon="-7.6815389190">
        <ele>295.74</ele>
        <time>2018-12-19T08:02:32Z</time>
      </trkpt>
      <trkpt lat="39.4923780765" lon="-7.6815672498">
        <ele>296.22</ele>
        <time>2018-12-19T08:02:40Z</time>
      </trkpt>
      <trkpt lat="39.4923032261" lon="-7.6815720275">
        <ele>296.70</ele>
        <time>2018-12-19T08:02:48Z</time>
      </trkpt>
      <trkpt lat="39.4921670202" lon="-7.6815484744">
        <ele>296.22</ele>
        <time>2018-12-19T08:02:59Z</time>
      </trkpt>
      <trkpt lat="39.4920526072" lon="-7.6815516595">
        <ele>296.70</ele>
        <time>2018-12-19T08:03:08Z</time>
      </trkpt>
      <trkpt lat="39.4919387810" lon="-7.6815814991">
        <ele>296.70</ele>
        <time>2018-12-19T08:03:17Z</time>
      </trkpt>
      <trkpt lat="39.4919240288" lon="-7.6815493125">
        <ele>296.70</ele>
        <time>2018-12-19T08:03:23Z</time>
      </trkpt>
      <trkpt lat="39.4919443969" lon="-7.6815216523">
        <ele>296.70</ele>
        <time>2018-12-19T08:03:38Z</time>
      </trkpt>
      <trkpt lat="39.4919290580" lon="-7.6815278549">
        <ele>296.22</ele>
        <time>2018-12-19T08:03:52Z</time>
      </trkpt>
      <trkpt lat="39.4918526150" lon="-7.6816131826">
        <ele>296.22</ele>
        <time>2018-12-19T08:04:00Z</time>
      </trkpt>
      <trkpt lat="39.4917637669" lon="-7.6816593669">
        <ele>297.18</ele>
        <time>2018-12-19T08:04:09Z</time>
      </trkpt>
      <trkpt lat="39.4916795287" lon="-7.6816933975">
        <ele>297.18</ele>
        <time>2018-12-19T08:04:18Z</time>
      </trkpt>
      <trkpt lat="39.4915852323" lon="-7.6817281824">
        <ele>296.70</ele>
        <time>2018-12-19T08:04:28Z</time>
      </trkpt>
      <trkpt lat="39.4915361144" lon="-7.6817533281">
        <ele>296.70</ele>
        <time>2018-12-19T08:04:36Z</time>
      </trkpt>
      <trkpt lat="39.4915048499" lon="-7.6817680802">
        <ele>296.70</ele>
        <time>2018-12-19T08:04:39Z</time>
      </trkpt>
      <trkpt lat="39.4913983997" lon="-7.6817969978">
        <ele>296.22</ele>
        <time>2018-12-19T08:04:48Z</time>
      </trkpt>
      <trkpt lat="39.4912784547" lon="-7.6818226464">
        <ele>297.18</ele>
        <time>2018-12-19T08:04:58Z</time>
      </trkpt>
      <trkpt lat="39.4911585096" lon="-7.6818600297">
        <ele>298.15</ele>
        <time>2018-12-19T08:05:07Z</time>
      </trkpt>
      <trkpt lat="39.4910165202" lon="-7.6818931382">
        <ele>298.15</ele>
        <time>2018-12-19T08:05:18Z</time>
      </trkpt>
      <trkpt lat="39.4909014367" lon="-7.6819674019">
        <ele>298.63</ele>
        <time>2018-12-19T08:05:28Z</time>
      </trkpt>
      <trkpt lat="39.4908389915" lon="-7.6819883566">
        <ele>298.63</ele>
        <time>2018-12-19T08:05:33Z</time>
      </trkpt>
      <trkpt lat="39.4906911347" lon="-7.6819829922">
        <ele>300.07</ele>
        <time>2018-12-19T08:05:44Z</time>
      </trkpt>
      <trkpt lat="39.4905685913" lon="-7.6820121612">
        <ele>299.59</ele>
        <time>2018-12-19T08:05:53Z</time>
      </trkpt>
      <trkpt lat="39.4904583693" lon="-7.6820590161">
        <ele>298.63</ele>
        <time>2018-12-19T08:06:02Z</time>
      </trkpt>
      <trkpt lat="39.4904380012" lon="-7.6820659731">
        <ele>299.59</ele>
        <time>2018-12-19T08:06:04Z</time>
      </trkpt>
      <trkpt lat="39.4902857020" lon="-7.6821171027">
        <ele>300.07</ele>
        <time>2018-12-19T08:06:16Z</time>
      </trkpt>
      <trkpt lat="39.4901660923" lon="-7.6821639575">
        <ele>300.55</ele>
        <time>2018-12-19T08:06:26Z</time>
      </trkpt>
      <trkpt lat="39.4900216721" lon="-7.6822362095">
        <ele>300.55</ele>
        <time>2018-12-19T08:06:38Z</time>
      </trkpt>
      <trkpt lat="39.4899150543" lon="-7.6822927874">
        <ele>301.03</ele>
        <time>2018-12-19T08:06:47Z</time>
      </trkpt>
      <trkpt lat="39.4897785131" lon="-7.6823667157">
        <ele>301.51</ele>
        <time>2018-12-19T08:06:58Z</time>
      </trkpt>
      <trkpt lat="39.4897416327" lon="-7.6824052725">
        <ele>301.51</ele>
        <time>2018-12-19T08:07:02Z</time>
      </trkpt>
      <trkpt lat="39.4896512758" lon="-7.6825295761">
        <ele>301.99</ele>
        <time>2018-12-19T08:07:12Z</time>
      </trkpt>
      <trkpt lat="39.4895745814" lon="-7.6826226991">
        <ele>301.51</ele>
        <time>2018-12-19T08:07:21Z</time>
      </trkpt>
      <trkpt lat="39.4894587435" lon="-7.6827398781">
        <ele>301.99</ele>
        <time>2018-12-19T08:07:32Z</time>
      </trkpt>
      <trkpt lat="39.4893430732" lon="-7.6828360185">
        <ele>301.03</ele>
        <time>2018-12-19T08:07:42Z</time>
      </trkpt>
      <trkpt lat="39.4892178476" lon="-7.6829526946">
        <ele>302.47</ele>
        <time>2018-12-19T08:07:54Z</time>
      </trkpt>
      <trkpt lat="39.4891139958" lon="-7.6830469072">
        <ele>302.47</ele>
        <time>2018-12-19T08:08:04Z</time>
      </trkpt>
      <trkpt lat="39.4890310988" lon="-7.6831427123">
        <ele>301.99</ele>
        <time>2018-12-19T08:08:13Z</time>
      </trkpt>
      <trkpt lat="39.4889280852" lon="-7.6832586341">
        <ele>302.47</ele>
        <time>2018-12-19T08:08:23Z</time>
      </trkpt>
      <trkpt lat="39.4888191205" lon="-7.6833889727">
        <ele>302.95</ele>
        <time>2018-12-19T08:08:33Z</time>
      </trkpt>
      <trkpt lat="39.4887845032" lon="-7.6834354922">
        <ele>302.47</ele>
        <time>2018-12-19T08:08:37Z</time>
      </trkpt>
      <trkpt lat="39.4886902906" lon="-7.6835293695">
        <ele>303.43</ele>
        <time>2018-12-19T08:08:46Z</time>
      </trkpt>
      <trkpt lat="39.4885739498" lon="-7.6836277731">
        <ele>303.43</ele>
        <time>2018-12-19T08:08:57Z</time>
      </trkpt>
      <trkpt lat="39.4884621352" lon="-7.6837158669">
        <ele>304.88</ele>
        <time>2018-12-19T08:09:07Z</time>
      </trkpt>
      <trkpt lat="39.4883438665" lon="-7.6838215627">
        <ele>304.88</ele>
        <time>2018-12-19T08:09:18Z</time>
      </trkpt>
      <trkpt lat="39.4882367458" lon="-7.6838847622">
        <ele>304.88</ele>
        <time>2018-12-19T08:09:27Z</time>
      </trkpt>
      <trkpt lat="39.4881197345" lon="-7.6839388255">
        <ele>304.88</ele>
        <time>2018-12-19T08:09:37Z</time>
      </trkpt>
      <trkpt lat="39.4880033098" lon="-7.6839892846">
        <ele>306.32</ele>
        <time>2018-12-19T08:09:45Z</time>
      </trkpt>
      <trkpt lat="39.4878774136" lon="-7.6840868499">
        <ele>305.84</ele>
        <time>2018-12-19T08:09:56Z</time>
      </trkpt>
      <trkpt lat="39.4877466559" lon="-7.6841448527">
        <ele>305.84</ele>
        <time>2018-12-19T08:10:07Z</time>
      </trkpt>
      <trkpt lat="39.4876152277" lon="-7.6841982454">
        <ele>305.84</ele>
        <time>2018-12-19T08:10:17Z</time>
      </trkpt>
      <trkpt lat="39.4875006471" lon="-7.6842440944">
        <ele>306.80</ele>
        <time>2018-12-19T08:10:27Z</time>
      </trkpt>
      <trkpt lat="39.4873743318" lon="-7.6843119040">
        <ele>307.28</ele>
        <time>2018-12-19T08:10:37Z</time>
      </trkpt>
      <trkpt lat="39.4872983918" lon="-7.6843527239">
        <ele>307.28</ele>
        <time>2018-12-19T08:10:45Z</time>
      </trkpt>
      <trkpt lat="39.4871707354" lon="-7.6844162587">
        <ele>308.24</ele>
        <time>2018-12-19T08:10:55Z</time>
      </trkpt>
      <trkpt lat="39.4870875869" lon="-7.6844416559">
        <ele>309.20</ele>
        <time>2018-12-19T08:11:02Z</time>
      </trkpt>
      <trkpt lat="39.4869820587" lon="-7.6844678074">
        <ele>309.20</ele>
        <time>2018-12-19T08:11:11Z</time>
      </trkpt>
      <trkpt lat="39.4868581742" lon="-7.6844772790">
        <ele>309.68</ele>
        <time>2018-12-19T08:11:22Z</time>
      </trkpt>
      <trkpt lat="39.4867227226" lon="-7.6845128182">
        <ele>309.68</ele>
        <time>2018-12-19T08:11:32Z</time>
      </trkpt>
      <trkpt lat="39.4866077229" lon="-7.6845304202">
        <ele>310.16</ele>
        <time>2018-12-19T08:11:42Z</time>
      </trkpt>
      <trkpt lat="39.4865011889" lon="-7.6845714077">
        <ele>310.64</ele>
        <time>2018-12-19T08:11:50Z</time>
      </trkpt>
      <trkpt lat="39.4864312839" lon="-7.6845957153">
        <ele>309.68</ele>
        <time>2018-12-19T08:11:55Z</time>
      </trkpt>
      <trkpt lat="39.4863195531" lon="-7.6846330985">
        <ele>310.64</ele>
        <time>2018-12-19T08:12:04Z</time>
      </trkpt>
      <trkpt lat="39.4861991052" lon="-7.6846828870">
        <ele>311.60</ele>
        <time>2018-12-19T08:12:15Z</time>
      </trkpt>
      <trkpt lat="39.4860970974" lon="-7.6847263053">
        <ele>311.60</ele>
        <time>2018-12-19T08:12:24Z</time>
      </trkpt>
      <trkpt lat="39.4859914016" lon="-7.6847706456">
        <ele>313.05</ele>
        <time>2018-12-19T08:12:32Z</time>
      </trkpt>
      <trkpt lat="39.4858558662" lon="-7.6848305762">
        <ele>312.09</ele>
        <time>2018-12-19T08:12:43Z</time>
      </trkpt>
      <trkpt lat="39.4857006334" lon="-7.6849133894">
        <ele>312.09</ele>
        <time>2018-12-19T08:12:56Z</time>
      </trkpt>
      <trkpt lat="39.4856255315" lon="-7.6849854738">
        <ele>311.60</ele>
        <time>2018-12-19T08:13:05Z</time>
      </trkpt>
      <trkpt lat="39.4855126273" lon="-7.6850973722">
        <ele>311.60</ele>
        <time>2018-12-19T08:13:16Z</time>
      </trkpt>
      <trkpt lat="39.4854242820" lon="-7.6851666067">
        <ele>311.12</ele>
        <time>2018-12-19T08:13:25Z</time>
      </trkpt>
      <trkpt lat="39.4853486773" lon="-7.6852450613">
        <ele>311.12</ele>
        <time>2018-12-19T08:13:33Z</time>
      </trkpt>
      <trkpt lat="39.4853167422" lon="-7.6852833666">
        <ele>312.09</ele>
        <time>2018-12-19T08:13:37Z</time>
      </trkpt>
      <trkpt lat="39.4852179196" lon="-7.6854124479">
        <ele>311.60</ele>
        <time>2018-12-19T08:13:46Z</time>
      </trkpt>
      <trkpt lat="39.4851790275" lon="-7.6854504179">
        <ele>312.09</ele>
        <time>2018-12-19T08:13:49Z</time>
      </trkpt>
      <trkpt lat="39.4850418996" lon="-7.6855818462">
        <ele>311.60</ele>
        <time>2018-12-19T08:14:00Z</time>
      </trkpt>
      <trkpt lat="39.4849586673" lon="-7.6856479794">
        <ele>310.64</ele>
        <time>2018-12-19T08:14:08Z</time>
      </trkpt>
      <trkpt lat="39.4848627783" lon="-7.6857631467">
        <ele>310.64</ele>
        <time>2018-12-19T08:14:18Z</time>
      </trkpt>
      <trkpt lat="39.4848321844" lon="-7.6858180482">
        <ele>310.64</ele>
        <time>2018-12-19T08:14:22Z</time>
      </trkpt>
      <trkpt lat="39.4848198630" lon="-7.6860192139">
        <ele>309.68</ele>
        <time>2018-12-19T08:14:33Z</time>
      </trkpt>
      <trkpt lat="39.4848295860" lon="-7.6861238200">
        <ele>310.16</ele>
        <time>2018-12-19T08:14:40Z</time>
      </trkpt>
      <trkpt lat="39.4848021772" lon="-7.6862394903">
        <ele>309.68</ele>
        <time>2018-12-19T08:14:48Z</time>
      </trkpt>
      <trkpt lat="39.4847473595" lon="-7.6863952260">
        <ele>310.16</ele>
        <time>2018-12-19T08:14:59Z</time>
      </trkpt>
      <trkpt lat="39.4846935477" lon="-7.6865213737">
        <ele>311.12</ele>
        <time>2018-12-19T08:15:08Z</time>
      </trkpt>
      <trkpt lat="39.4846410770" lon="-7.6866939571">
        <ele>309.68</ele>
        <time>2018-12-19T08:15:20Z</time>
      </trkpt>
      <trkpt lat="39.4846322760" lon="-7.6867606770">
        <ele>310.16</ele>
        <time>2018-12-19T08:15:25Z</time>
      </trkpt>
      <trkpt lat="39.4845871814" lon="-7.6869719848">
        <ele>309.68</ele>
        <time>2018-12-19T08:15:37Z</time>
      </trkpt>
      <trkpt lat="39.4845518097" lon="-7.6871189196">
        <ele>310.16</ele>
        <time>2018-12-19T08:15:45Z</time>
      </trkpt>
      <trkpt lat="39.4845465291" lon="-7.6871515252">
        <ele>310.64</ele>
        <time>2018-12-19T08:15:47Z</time>
      </trkpt>
      <trkpt lat="39.4844796415" lon="-7.6873082668">
        <ele>309.20</ele>
        <time>2018-12-19T08:15:57Z</time>
      </trkpt>
      <trkpt lat="39.4844536576" lon="-7.6874899026">
        <ele>309.20</ele>
        <time>2018-12-19T08:16:07Z</time>
      </trkpt>
      <trkpt lat="39.4844156038" lon="-7.6876603905">
        <ele>308.72</ele>
        <time>2018-12-19T08:16:17Z</time>
      </trkpt>
      <trkpt lat="39.4843354728" lon="-7.6877999492">
        <ele>309.20</ele>
        <time>2018-12-19T08:16:27Z</time>
      </trkpt>
      <trkpt lat="39.4842907973" lon="-7.6879038848">
        <ele>309.68</ele>
        <time>2018-12-19T08:16:36Z</time>
      </trkpt>
      <trkpt lat="39.4842378236" lon="-7.6880101673">
        <ele>309.68</ele>
        <time>2018-12-19T08:16:44Z</time>
      </trkpt>
      <trkpt lat="39.4841092452" lon="-7.6881634723">
        <ele>308.24</ele>
        <time>2018-12-19T08:16:55Z</time>
      </trkpt>
      <trkpt lat="39.4840112608" lon="-7.6882953197">
        <ele>307.76</ele>
        <time>2018-12-19T08:17:05Z</time>
      </trkpt>
      <trkpt lat="39.4839302916" lon="-7.6884141751">
        <ele>307.28</ele>
        <time>2018-12-19T08:17:15Z</time>
      </trkpt>
      <trkpt lat="39.4838524237" lon="-7.6885405742">
        <ele>306.80</ele>
        <time>2018-12-19T08:17:25Z</time>
      </trkpt>
      <trkpt lat="39.4837406091" lon="-7.6887037698">
        <ele>307.76</ele>
        <time>2018-12-19T08:17:36Z</time>
      </trkpt>
      <trkpt lat="39.4836831931" lon="-7.6888137404">
        <ele>307.76</ele>
        <time>2018-12-19T08:17:45Z</time>
      </trkpt>
      <trkpt lat="39.4836517610" lon="-7.6889816299">
        <ele>307.28</ele>
        <time>2018-12-19T08:17:56Z</time>
      </trkpt>
      <trkpt lat="39.4836175628" lon="-7.6890835539">
        <ele>306.32</ele>
        <time>2018-12-19T08:18:04Z</time>
      </trkpt>
      <trkpt lat="39.4835399464" lon="-7.6892211847">
        <ele>306.32</ele>
        <time>2018-12-19T08:18:14Z</time>
      </trkpt>
      <trkpt lat="39.4835285470" lon="-7.6892356854">
        <ele>306.32</ele>
        <time>2018-12-19T08:18:15Z</time>
      </trkpt>
      <trkpt lat="39.4834438898" lon="-7.6893796865">
        <ele>306.32</ele>
        <time>2018-12-19T08:18:25Z</time>
      </trkpt>
      <trkpt lat="39.4833803549" lon="-7.6894867234">
        <ele>306.32</ele>
        <time>2018-12-19T08:18:33Z</time>
      </trkpt>
      <trkpt lat="39.4832752459" lon="-7.6896244381">
        <ele>304.88</ele>
        <time>2018-12-19T08:18:45Z</time>
      </trkpt>
      <trkpt lat="39.4832661934" lon="-7.6896301378">
        <ele>305.84</ele>
        <time>2018-12-19T08:18:46Z</time>
      </trkpt>
      <trkpt lat="39.4831533730" lon="-7.6897064131">
        <ele>305.36</ele>
        <time>2018-12-19T08:18:55Z</time>
      </trkpt>
      <trkpt lat="39.4831078593" lon="-7.6897536870">
        <ele>305.84</ele>
        <time>2018-12-19T08:18:59Z</time>
      </trkpt>
      <trkpt lat="39.4830475096" lon="-7.6899053995">
        <ele>306.32</ele>
        <time>2018-12-19T08:19:10Z</time>
      </trkpt>
      <trkpt lat="39.4829713181" lon="-7.6900713611">
        <ele>305.84</ele>
        <time>2018-12-19T08:19:22Z</time>
      </trkpt>
      <trkpt lat="39.4829249661" lon="-7.6902064774">
        <ele>305.84</ele>
        <time>2018-12-19T08:19:32Z</time>
      </trkpt>
      <trkpt lat="39.4828799553" lon="-7.6903758757">
        <ele>305.36</ele>
        <time>2018-12-19T08:19:42Z</time>
      </trkpt>
      <trkpt lat="39.4828125648" lon="-7.6905403286">
        <ele>304.88</ele>
        <time>2018-12-19T08:19:53Z</time>
      </trkpt>
      <trkpt lat="39.4826933742" lon="-7.6906594355">
        <ele>304.88</ele>
        <time>2018-12-19T08:20:04Z</time>
      </trkpt>
      <trkpt lat="39.4825931266" lon="-7.6907787938">
        <ele>303.91</ele>
        <time>2018-12-19T08:20:14Z</time>
      </trkpt>
      <trkpt lat="39.4824824017" lon="-7.6908868365">
        <ele>303.91</ele>
        <time>2018-12-19T08:20:24Z</time>
      </trkpt>
      <trkpt lat="39.4823794719" lon="-7.6909858268">
        <ele>303.91</ele>
        <time>2018-12-19T08:20:34Z</time>
      </trkpt>
      <trkpt lat="39.4823226426" lon="-7.6910227910">
        <ele>303.91</ele>
        <time>2018-12-19T08:20:39Z</time>
      </trkpt>
      <trkpt lat="39.4822133426" lon="-7.6911006588">
        <ele>303.91</ele>
        <time>2018-12-19T08:20:50Z</time>
      </trkpt>
      <trkpt lat="39.4821221475" lon="-7.6911719888">
        <ele>304.39</ele>
        <time>2018-12-19T08:21:00Z</time>
      </trkpt>
      <trkpt lat="39.4820567686" lon="-7.6912642736">
        <ele>303.43</ele>
        <time>2018-12-19T08:21:08Z</time>
      </trkpt>
      <trkpt lat="39.4820087403" lon="-7.6913911756">
        <ele>303.91</ele>
        <time>2018-12-19T08:21:17Z</time>
      </trkpt>
      <trkpt lat="39.4819263462" lon="-7.6915346738">
        <ele>304.88</ele>
        <time>2018-12-19T08:21:27Z</time>
      </trkpt>
      <trkpt lat="39.4818787370" lon="-7.6916572172">
        <ele>305.84</ele>
        <time>2018-12-19T08:21:36Z</time>
      </trkpt>
      <trkpt lat="39.4818313792" lon="-7.6917694509">
        <ele>306.80</ele>
        <time>2018-12-19T08:21:46Z</time>
      </trkpt>
      <trkpt lat="39.4817601331" lon="-7.6918837801">
        <ele>306.80</ele>
        <time>2018-12-19T08:21:56Z</time>
      </trkpt>
      <trkpt lat="39.4817027170" lon="-7.6920115203">
        <ele>306.80</ele>
        <time>2018-12-19T08:22:05Z</time>
      </trkpt>
      <trkpt lat="39.4816738833" lon="-7.6921065710">
        <ele>307.28</ele>
        <time>2018-12-19T08:22:11Z</time>
      </trkpt>
      <trkpt lat="39.4816427026" lon="-7.6922645699">
        <ele>307.28</ele>
        <time>2018-12-19T08:22:21Z</time>
      </trkpt>
      <trkpt lat="39.4816410262" lon="-7.6923787314">
        <ele>307.76</ele>
        <time>2018-12-19T08:22:29Z</time>
      </trkpt>
      <trkpt lat="39.4816452172" lon="-7.6925004367">
        <ele>308.24</ele>
        <time>2018-12-19T08:22:35Z</time>
      </trkpt>
      <trkpt lat="39.4816433731" lon="-7.6925374009">
        <ele>310.16</ele>
        <time>2018-12-19T08:22:37Z</time>
      </trkpt>
      <trkpt lat="39.4816555269" lon="-7.6926161069">
        <ele>307.76</ele>
        <time>2018-12-19T08:22:41Z</time>
      </trkpt>
      <trkpt lat="39.4816927426" lon="-7.6928118244">
        <ele>307.76</ele>
        <time>2018-12-19T08:22:53Z</time>
      </trkpt>
      <trkpt lat="39.4817022141" lon="-7.6928357128">
        <ele>308.72</ele>
        <time>2018-12-19T08:22:57Z</time>
      </trkpt>
      <trkpt lat="39.4817127753" lon="-7.6929332782">
        <ele>307.28</ele>
        <time>2018-12-19T08:23:02Z</time>
      </trkpt>
      <trkpt lat="39.4817228336" lon="-7.6930177677">
        <ele>305.36</ele>
        <time>2018-12-19T08:23:06Z</time>
      </trkpt>
      <trkpt lat="39.4817255158" lon="-7.6930655446">
        <ele>307.28</ele>
        <time>2018-12-19T08:23:09Z</time>
      </trkpt>
      <trkpt lat="39.4817583729" lon="-7.6932189334">
        <ele>306.80</ele>
        <time>2018-12-19T08:23:18Z</time>
      </trkpt>
      <trkpt lat="39.4817846920" lon="-7.6933989767">
        <ele>306.32</ele>
        <time>2018-12-19T08:23:29Z</time>
      </trkpt>
      <trkpt lat="39.4818136096" lon="-7.6935423911">
        <ele>306.80</ele>
        <time>2018-12-19T08:23:38Z</time>
      </trkpt>
      <trkpt lat="39.4818610512" lon="-7.6936827879">
        <ele>306.80</ele>
        <time>2018-12-19T08:23:47Z</time>
      </trkpt>
      <trkpt lat="39.4819092471" lon="-7.6938391104">
        <ele>306.80</ele>
        <time>2018-12-19T08:23:57Z</time>
      </trkpt>
      <trkpt lat="39.4819696806" lon="-7.6939920802">
        <ele>306.32</ele>
        <time>2018-12-19T08:24:07Z</time>
      </trkpt>
      <trkpt lat="39.4820463751" lon="-7.6941691060">
        <ele>305.84</ele>
        <time>2018-12-19T08:24:19Z</time>
      </trkpt>
      <trkpt lat="39.4820705988" lon="-7.6942962594">
        <ele>305.84</ele>
        <time>2018-12-19T08:24:28Z</time>
      </trkpt>
      <trkpt lat="39.4820586126" lon="-7.6943680923">
        <ele>306.32</ele>
        <time>2018-12-19T08:24:35Z</time>
      </trkpt>
      <trkpt lat="39.4820582774" lon="-7.6945417654">
        <ele>306.32</ele>
        <time>2018-12-19T08:24:45Z</time>
      </trkpt>
      <trkpt lat="39.4820442796" lon="-7.6946852636">
        <ele>306.80</ele>
        <time>2018-12-19T08:24:54Z</time>
      </trkpt>
      <trkpt lat="39.4820645638" lon="-7.6948367245">
        <ele>307.28</ele>
        <time>2018-12-19T08:25:03Z</time>
      </trkpt>
      <trkpt lat="39.4821153581" lon="-7.6949907839">
        <ele>306.80</ele>
        <time>2018-12-19T08:25:13Z</time>
      </trkpt>
      <trkpt lat="39.4821760431" lon="-7.6951642055">
        <ele>305.36</ele>
        <time>2018-12-19T08:25:24Z</time>
      </trkpt>
      <trkpt lat="39.4822429307" lon="-7.6953212824">
        <ele>305.36</ele>
        <time>2018-12-19T08:25:34Z</time>
      </trkpt>
      <trkpt lat="39.4823106565" lon="-7.6954755094">
        <ele>304.39</ele>
        <time>2018-12-19T08:25:44Z</time>
      </trkpt>
      <trkpt lat="39.4823270012" lon="-7.6956356037">
        <ele>304.88</ele>
        <time>2018-12-19T08:25:53Z</time>
      </trkpt>
      <trkpt lat="39.4823063817" lon="-7.6958129648">
        <ele>305.36</ele>
        <time>2018-12-19T08:26:04Z</time>
      </trkpt>
      <trkpt lat="39.4822764583" lon="-7.6959670242">
        <ele>304.88</ele>
        <time>2018-12-19T08:26:13Z</time>
      </trkpt>
      <trkpt lat="39.4822419249" lon="-7.6961028948">
        <ele>305.36</ele>
        <time>2018-12-19T08:26:22Z</time>
      </trkpt>
      <trkpt lat="39.4822027814" lon="-7.6962194033">
        <ele>304.39</ele>
        <time>2018-12-19T08:26:30Z</time>
      </trkpt>
      <trkpt lat="39.4821330439" lon="-7.6963589620">
        <ele>303.91</ele>
        <time>2018-12-19T08:26:40Z</time>
      </trkpt>
      <trkpt lat="39.4821163639" lon="-7.6964219101">
        <ele>303.91</ele>
        <time>2018-12-19T08:26:44Z</time>
      </trkpt>
      <trkpt lat="39.4820831716" lon="-7.6965428609">
        <ele>303.43</ele>
        <time>2018-12-19T08:26:52Z</time>
      </trkpt>
      <trkpt lat="39.4820258394" lon="-7.6966922265">
        <ele>303.91</ele>
        <time>2018-12-19T08:27:02Z</time>
      </trkpt>
      <trkpt lat="39.4819938205" lon="-7.6969134249">
        <ele>303.43</ele>
        <time>2018-12-19T08:27:14Z</time>
      </trkpt>
      <trkpt lat="39.4819958322" lon="-7.6970723458">
        <ele>302.47</ele>
        <time>2018-12-19T08:27:23Z</time>
      </trkpt>
      <trkpt lat="39.4819951616" lon="-7.6972268242">
        <ele>301.51</ele>
        <time>2018-12-19T08:27:32Z</time>
      </trkpt>
      <trkpt lat="39.4820119254" lon="-7.6973564923">
        <ele>301.51</ele>
        <time>2018-12-19T08:27:40Z</time>
      </trkpt>
      <trkpt lat="39.4820246659" lon="-7.6975110546">
        <ele>301.03</ele>
        <time>2018-12-19T08:27:49Z</time>
      </trkpt>
      <trkpt lat="39.4820405077" lon="-7.6976718195">
        <ele>301.51</ele>
        <time>2018-12-19T08:27:58Z</time>
      </trkpt>
      <trkpt lat="39.4820203073" lon="-7.6978496835">
        <ele>300.55</ele>
        <time>2018-12-19T08:28:09Z</time>
      </trkpt>
      <trkpt lat="39.4820270129" lon="-7.6979900803">
        <ele>300.55</ele>
        <time>2018-12-19T08:28:18Z</time>
      </trkpt>
      <trkpt lat="39.4820303656" lon="-7.6981503423">
        <ele>301.03</ele>
        <time>2018-12-19T08:28:27Z</time>
      </trkpt>
      <trkpt lat="39.4820066448" lon="-7.6983148791">
        <ele>301.51</ele>
        <time>2018-12-19T08:28:37Z</time>
      </trkpt>
      <trkpt lat="39.4819643162" lon="-7.6984386798">
        <ele>301.99</ele>
        <time>2018-12-19T08:28:45Z</time>
      </trkpt>
      <trkpt lat="39.4819400925" lon="-7.6985922363">
        <ele>300.07</ele>
        <time>2018-12-19T08:28:54Z</time>
      </trkpt>
      <trkpt lat="39.4819022063" lon="-7.6987400092">
        <ele>299.59</ele>
        <time>2018-12-19T08:29:03Z</time>
      </trkpt>
      <trkpt lat="39.4818705227" lon="-7.6988767181">
        <ele>300.07</ele>
        <time>2018-12-19T08:29:12Z</time>
      </trkpt>
      <trkpt lat="39.4818525854" lon="-7.6989415940">
        <ele>299.11</ele>
        <time>2018-12-19T08:29:16Z</time>
      </trkpt>
      <trkpt lat="39.4818191417" lon="-7.6990338787">
        <ele>299.59</ele>
        <time>2018-12-19T08:29:21Z</time>
      </trkpt>
      <trkpt lat="39.4817603845" lon="-7.6991994213">
        <ele>299.11</ele>
        <time>2018-12-19T08:29:31Z</time>
      </trkpt>
      <trkpt lat="39.4817095064" lon="-7.6993285865">
        <ele>299.59</ele>
        <time>2018-12-19T08:29:39Z</time>
      </trkpt>
      <trkpt lat="39.4816375896" lon="-7.6995011698">
        <ele>300.07</ele>
        <time>2018-12-19T08:29:51Z</time>
      </trkpt>
      <trkpt lat="39.4815888070" lon="-7.6996537205">
        <ele>301.03</ele>
        <time>2018-12-19T08:30:01Z</time>
      </trkpt>
      <trkpt lat="39.4815487415" lon="-7.6998277288">
        <ele>300.55</ele>
        <time>2018-12-19T08:30:12Z</time>
      </trkpt>
      <trkpt lat="39.4815143757" lon="-7.6999917626">
        <ele>300.07</ele>
        <time>2018-12-19T08:30:22Z</time>
      </trkpt>
      <trkpt lat="39.4814790040" lon="-7.7001283877">
        <ele>299.59</ele>
        <time>2018-12-19T08:30:30Z</time>
      </trkpt>
      <trkpt lat="39.4814582169" lon="-7.7002789266">
        <ele>300.07</ele>
        <time>2018-12-19T08:30:39Z</time>
      </trkpt>
      <trkpt lat="39.4814211689" lon="-7.7004294656">
        <ele>300.07</ele>
        <time>2018-12-19T08:30:49Z</time>
      </trkpt>
      <trkpt lat="39.4813826960" lon="-7.7006079163">
        <ele>300.07</ele>
        <time>2018-12-19T08:30:59Z</time>
      </trkpt>
      <trkpt lat="39.4813742302" lon="-7.7007711120">
        <ele>298.63</ele>
        <time>2018-12-19T08:31:08Z</time>
      </trkpt>
      <trkpt lat="39.4813701231" lon="-7.7009323798">
        <ele>298.63</ele>
        <time>2018-12-19T08:31:17Z</time>
      </trkpt>
      <trkpt lat="39.4813697878" lon="-7.7011087351">
        <ele>298.15</ele>
        <time>2018-12-19T08:31:26Z</time>
      </trkpt>
      <trkpt lat="39.4813710451" lon="-7.7012472879">
        <ele>297.67</ele>
        <time>2018-12-19T08:31:34Z</time>
      </trkpt>
      <trkpt lat="39.4813852943" lon="-7.7013854217">
        <ele>297.67</ele>
        <time>2018-12-19T08:31:42Z</time>
      </trkpt>
      <trkpt lat="39.4813909940" lon="-7.7014383115">
        <ele>298.15</ele>
        <time>2018-12-19T08:31:45Z</time>
      </trkpt>
      <trkpt lat="39.4813989569" lon="-7.7015467733">
        <ele>297.67</ele>
        <time>2018-12-19T08:31:53Z</time>
      </trkpt>
      <trkpt lat="39.4814118650" lon="-7.7016376331">
        <ele>297.67</ele>
        <time>2018-12-19T08:31:59Z</time>
      </trkpt>
      <trkpt lat="39.4814479910" lon="-7.7017955482">
        <ele>297.18</ele>
        <time>2018-12-19T08:32:09Z</time>
      </trkpt>
      <trkpt lat="39.4815026410" lon="-7.7019307483">
        <ele>297.67</ele>
        <time>2018-12-19T08:32:17Z</time>
      </trkpt>
      <trkpt lat="39.4815292954" lon="-7.7020656131">
        <ele>296.70</ele>
        <time>2018-12-19T08:32:25Z</time>
      </trkpt>
      <trkpt lat="39.4815624878" lon="-7.7022375260">
        <ele>295.74</ele>
        <time>2018-12-19T08:32:36Z</time>
      </trkpt>
      <trkpt lat="39.4815904833" lon="-7.7023773361">
        <ele>295.74</ele>
        <time>2018-12-19T08:32:45Z</time>
      </trkpt>
      <trkpt lat="39.4816308003" lon="-7.7025349997">
        <ele>295.74</ele>
        <time>2018-12-19T08:32:55Z</time>
      </trkpt>
      <trkpt lat="39.4816803373" lon="-7.7026645839">
        <ele>296.22</ele>
        <time>2018-12-19T08:33:03Z</time>
      </trkpt>
      <trkpt lat="39.4817125238" lon="-7.7028067410">
        <ele>295.26</ele>
        <time>2018-12-19T08:33:12Z</time>
      </trkpt>
      <trkpt lat="39.4817390945" lon="-7.7029009536">
        <ele>295.74</ele>
        <time>2018-12-19T08:33:18Z</time>
      </trkpt>
      <trkpt lat="39.4817462191" lon="-7.7029321343">
        <ele>295.74</ele>
        <time>2018-12-19T08:33:20Z</time>
      </trkpt>
      <trkpt lat="39.4818085805" lon="-7.7030623052">
        <ele>296.22</ele>
        <time>2018-12-19T08:33:28Z</time>
      </trkpt>
      <trkpt lat="39.4818583690" lon="-7.7031923085">
        <ele>295.74</ele>
        <time>2018-12-19T08:33:37Z</time>
      </trkpt>
      <trkpt lat="39.4818989374" lon="-7.7032868564">
        <ele>295.74</ele>
        <time>2018-12-19T08:33:44Z</time>
      </trkpt>
      <trkpt lat="39.4820133504" lon="-7.7034078073">
        <ele>295.74</ele>
        <time>2018-12-19T08:33:55Z</time>
      </trkpt>
      <trkpt lat="39.4820496440" lon="-7.7034596913">
        <ele>295.26</ele>
        <time>2018-12-19T08:33:59Z</time>
      </trkpt>
      <trkpt lat="39.4820950739" lon="-7.7036115713">
        <ele>295.26</ele>
        <time>2018-12-19T08:34:09Z</time>
      </trkpt>
      <trkpt lat="39.4821767136" lon="-7.7037450112">
        <ele>295.74</ele>
        <time>2018-12-19T08:34:18Z</time>
      </trkpt>
      <trkpt lat="39.4822353031" lon="-7.7038631123">
        <ele>294.30</ele>
        <time>2018-12-19T08:34:26Z</time>
      </trkpt>
      <trkpt lat="39.4822928868" lon="-7.7040092088">
        <ele>294.78</ele>
        <time>2018-12-19T08:34:35Z</time>
      </trkpt>
      <trkpt lat="39.4823452737" lon="-7.7041255496">
        <ele>294.30</ele>
        <time>2018-12-19T08:34:43Z</time>
      </trkpt>
      <trkpt lat="39.4823887758" lon="-7.7042238694">
        <ele>294.78</ele>
        <time>2018-12-19T08:34:50Z</time>
      </trkpt>
      <trkpt lat="39.4824306015" lon="-7.7043371927">
        <ele>294.30</ele>
        <time>2018-12-19T08:34:58Z</time>
      </trkpt>
      <trkpt lat="39.4824905321" lon="-7.7044335008">
        <ele>293.34</ele>
        <time>2018-12-19T08:35:05Z</time>
      </trkpt>
      <trkpt lat="39.4825637061" lon="-7.7045485005">
        <ele>294.78</ele>
        <time>2018-12-19T08:35:13Z</time>
      </trkpt>
      <trkpt lat="39.4826037716" lon="-7.7046565432">
        <ele>294.30</ele>
        <time>2018-12-19T08:35:21Z</time>
      </trkpt>
      <trkpt lat="39.4826191943" lon="-7.7046769951">
        <ele>293.82</ele>
        <time>2018-12-19T08:35:23Z</time>
      </trkpt>
      <trkpt lat="39.4826389756" lon="-7.7046968602">
        <ele>294.30</ele>
        <time>2018-12-19T08:35:25Z</time>
      </trkpt>
      <trkpt lat="39.4827429950" lon="-7.7047965210">
        <ele>293.82</ele>
        <time>2018-12-19T08:35:35Z</time>
      </trkpt>
      <trkpt lat="39.4828320108" lon="-7.7048975229">
        <ele>293.82</ele>
        <time>2018-12-19T08:35:44Z</time>
      </trkpt>
      <trkpt lat="39.4829069450" lon="-7.7050014585">
        <ele>294.30</ele>
        <time>2018-12-19T08:35:53Z</time>
      </trkpt>
      <trkpt lat="39.4830301590" lon="-7.7051146980">
        <ele>293.34</ele>
        <time>2018-12-19T08:36:04Z</time>
      </trkpt>
      <trkpt lat="39.4830649439" lon="-7.7051514946">
        <ele>292.38</ele>
        <time>2018-12-19T08:36:11Z</time>
      </trkpt>
      <trkpt lat="39.4830630999" lon="-7.7051585354">
        <ele>292.86</ele>
        <time>2018-12-19T08:36:14Z</time>
      </trkpt>
      <trkpt lat="39.4830744993" lon="-7.7051704377">
        <ele>292.38</ele>
        <time>2018-12-19T08:36:16Z</time>
      </trkpt>
      <trkpt lat="39.4830731582" lon="-7.7053161990">
        <ele>291.90</ele>
        <time>2018-12-19T08:36:25Z</time>
      </trkpt>
      <trkpt lat="39.4830694702" lon="-7.7053734474">
        <ele>292.86</ele>
        <time>2018-12-19T08:36:31Z</time>
      </trkpt>
      <trkpt lat="39.4830627646" lon="-7.7055182029">
        <ele>291.90</ele>
        <time>2018-12-19T08:36:39Z</time>
      </trkpt>
      <trkpt lat="39.4830507785" lon="-7.7056703344">
        <ele>291.90</ele>
        <time>2018-12-19T08:36:48Z</time>
      </trkpt>
      <trkpt lat="39.4830527902" lon="-7.7057048678">
        <ele>291.42</ele>
        <time>2018-12-19T08:36:50Z</time>
      </trkpt>
      <trkpt lat="39.4830823783" lon="-7.7058581728">
        <ele>290.94</ele>
        <time>2018-12-19T08:36:59Z</time>
      </trkpt>
      <trkpt lat="39.4830897544" lon="-7.7059481945">
        <ele>291.42</ele>
        <time>2018-12-19T08:37:04Z</time>
      </trkpt>
      <trkpt lat="39.4831007347" lon="-7.7061004937">
        <ele>290.94</ele>
        <time>2018-12-19T08:37:13Z</time>
      </trkpt>
      <trkpt lat="39.4830756728" lon="-7.7062275633">
        <ele>290.46</ele>
        <time>2018-12-19T08:37:21Z</time>
      </trkpt>
      <trkpt lat="39.4830699731" lon="-7.7063522860">
        <ele>290.94</ele>
        <time>2018-12-19T08:37:29Z</time>
      </trkpt>
      <trkpt lat="39.4830613397" lon="-7.7064220235">
        <ele>290.46</ele>
        <time>2018-12-19T08:37:33Z</time>
      </trkpt>
      <trkpt lat="39.4830602501" lon="-7.7065851353">
        <ele>289.97</ele>
        <time>2018-12-19T08:37:42Z</time>
      </trkpt>
      <trkpt lat="39.4830583222" lon="-7.7067628317">
        <ele>289.97</ele>
        <time>2018-12-19T08:37:52Z</time>
      </trkpt>
      <trkpt lat="39.4830584899" lon="-7.7069326490">
        <ele>289.97</ele>
        <time>2018-12-19T08:38:02Z</time>
      </trkpt>
      <trkpt lat="39.4830853958" lon="-7.7071185596">
        <ele>289.01</ele>
        <time>2018-12-19T08:38:13Z</time>
      </trkpt>
      <trkpt lat="39.4831362739" lon="-7.7072411869">
        <ele>289.01</ele>
        <time>2018-12-19T08:38:21Z</time>
      </trkpt>
      <trkpt lat="39.4831920974" lon="-7.7074483037">
        <ele>289.01</ele>
        <time>2018-12-19T08:38:33Z</time>
      </trkpt>
      <trkpt lat="39.4831963722" lon="-7.7076215576">
        <ele>289.01</ele>
        <time>2018-12-19T08:38:43Z</time>
      </trkpt>
      <trkpt lat="39.4831630122" lon="-7.7077840827">
        <ele>289.49</ele>
        <time>2018-12-19T08:38:52Z</time>
      </trkpt>
      <trkpt lat="39.4831236172" lon="-7.7079343703">
        <ele>289.97</ele>
        <time>2018-12-19T08:39:02Z</time>
      </trkpt>
      <trkpt lat="39.4831140619" lon="-7.7079829853">
        <ele>289.49</ele>
        <time>2018-12-19T08:39:05Z</time>
      </trkpt>
      <trkpt lat="39.4831108768" lon="-7.7081810497">
        <ele>289.49</ele>
        <time>2018-12-19T08:39:16Z</time>
      </trkpt>
      <trkpt lat="39.4831319991" lon="-7.7083650324">
        <ele>289.97</ele>
        <time>2018-12-19T08:39:27Z</time>
      </trkpt>
      <trkpt lat="39.4831691310" lon="-7.7085383702">
        <ele>289.01</ele>
        <time>2018-12-19T08:39:37Z</time>
      </trkpt>
      <trkpt lat="39.4831837155" lon="-7.7087005600">
        <ele>288.05</ele>
        <time>2018-12-19T08:39:46Z</time>
      </trkpt>
      <trkpt lat="39.4831926841" lon="-7.7088680305">
        <ele>288.53</ele>
        <time>2018-12-19T08:39:56Z</time>
      </trkpt>
      <trkpt lat="39.4832091965" lon="-7.7090443019">
        <ele>287.57</ele>
        <time>2018-12-19T08:40:07Z</time>
      </trkpt>
      <trkpt lat="39.4832445681" lon="-7.7091973554">
        <ele>286.61</ele>
        <time>2018-12-19T08:40:16Z</time>
      </trkpt>
      <trkpt lat="39.4833325781" lon="-7.7093633171">
        <ele>286.61</ele>
        <time>2018-12-19T08:40:27Z</time>
      </trkpt>
      <trkpt lat="39.4834031537" lon="-7.7094667498">
        <ele>286.61</ele>
        <time>2018-12-19T08:40:35Z</time>
      </trkpt>
      <trkpt lat="39.4834712148" lon="-7.7096226532">
        <ele>285.65</ele>
        <time>2018-12-19T08:40:45Z</time>
      </trkpt>
      <trkpt lat="39.4835091010" lon="-7.7097661514">
        <ele>286.13</ele>
        <time>2018-12-19T08:40:53Z</time>
      </trkpt>
      <trkpt lat="39.4835362583" lon="-7.7099315263">
        <ele>286.13</ele>
        <time>2018-12-19T08:41:03Z</time>
      </trkpt>
      <trkpt lat="39.4835510943" lon="-7.7100829035">
        <ele>286.13</ele>
        <time>2018-12-19T08:41:12Z</time>
      </trkpt>
      <trkpt lat="39.4835740607" lon="-7.7102569956">
        <ele>286.61</ele>
        <time>2018-12-19T08:41:22Z</time>
      </trkpt>
      <trkpt lat="39.4836123660" lon="-7.7104337700">
        <ele>285.65</ele>
        <time>2018-12-19T08:41:33Z</time>
      </trkpt>
      <trkpt lat="39.4836606458" lon="-7.7106097061">
        <ele>285.17</ele>
        <time>2018-12-19T08:41:43Z</time>
      </trkpt>
      <trkpt lat="39.4837243482" lon="-7.7107716445">
        <ele>284.69</ele>
        <time>2018-12-19T08:41:53Z</time>
      </trkpt>
      <trkpt lat="39.4837743044" lon="-7.7109018154">
        <ele>284.21</ele>
        <time>2018-12-19T08:42:01Z</time>
      </trkpt>
      <trkpt lat="39.4838134479" lon="-7.7110470738">
        <ele>283.73</ele>
        <time>2018-12-19T08:42:10Z</time>
      </trkpt>
      <trkpt lat="39.4838411920" lon="-7.7112058271">
        <ele>283.73</ele>
        <time>2018-12-19T08:42:20Z</time>
      </trkpt>
      <trkpt lat="39.4838614762" lon="-7.7113600541">
        <ele>283.73</ele>
        <time>2018-12-19T08:42:29Z</time>
      </trkpt>
      <trkpt lat="39.4838722888" lon="-7.7115183882">
        <ele>284.69</ele>
        <time>2018-12-19T08:42:38Z</time>
      </trkpt>
      <trkpt lat="39.4838670921" lon="-7.7116749622">
        <ele>283.25</ele>
        <time>2018-12-19T08:42:47Z</time>
      </trkpt>
      <trkpt lat="39.4838369172" lon="-7.7118073124">
        <ele>283.25</ele>
        <time>2018-12-19T08:42:55Z</time>
      </trkpt>
      <trkpt lat="39.4837701134" lon="-7.7119331248">
        <ele>283.25</ele>
        <time>2018-12-19T08:43:04Z</time>
      </trkpt>
      <trkpt lat="39.4836866297" lon="-7.7120234817">
        <ele>284.21</ele>
        <time>2018-12-19T08:43:13Z</time>
      </trkpt>
      <trkpt lat="39.4835938420" lon="-7.7121072169">
        <ele>282.77</ele>
        <time>2018-12-19T08:43:21Z</time>
      </trkpt>
      <trkpt lat="39.4835093524" lon="-7.7122196183">
        <ele>282.77</ele>
        <time>2018-12-19T08:43:30Z</time>
      </trkpt>
      <trkpt lat="39.4834445603" lon="-7.7123001684">
        <ele>281.80</ele>
        <time>2018-12-19T08:43:37Z</time>
      </trkpt>
      <trkpt lat="39.4833320752" lon="-7.7124315128">
        <ele>281.32</ele>
        <time>2018-12-19T08:43:48Z</time>
      </trkpt>
      <trkpt lat="39.4832310732" lon="-7.7125289943">
        <ele>281.32</ele>
        <time>2018-12-19T08:43:57Z</time>
      </trkpt>
      <trkpt lat="39.4831610844" lon="-7.7125856560">
        <ele>280.36</ele>
        <time>2018-12-19T08:44:04Z</time>
      </trkpt>
      <trkpt lat="39.4830616750" lon="-7.7126737498">
        <ele>280.36</ele>
        <time>2018-12-19T08:44:13Z</time>
      </trkpt>
      <trkpt lat="39.4830034208" lon="-7.7127291542">
        <ele>279.88</ele>
        <time>2018-12-19T08:44:18Z</time>
      </trkpt>
      <trkpt lat="39.4829049334" lon="-7.7128216065">
        <ele>278.44</ele>
        <time>2018-12-19T08:44:27Z</time>
      </trkpt>
      <trkpt lat="39.4828158338" lon="-7.7129309066">
        <ele>277.48</ele>
        <time>2018-12-19T08:44:35Z</time>
      </trkpt>
      <trkpt lat="39.4827250578" lon="-7.7130581439">
        <ele>277.48</ele>
        <time>2018-12-19T08:44:45Z</time>
      </trkpt>
      <trkpt lat="39.4826341979" lon="-7.7131578047">
        <ele>277.00</ele>
        <time>2018-12-19T08:44:55Z</time>
      </trkpt>
      <trkpt lat="39.4825393986" lon="-7.7132526040">
        <ele>276.52</ele>
        <time>2018-12-19T08:45:04Z</time>
      </trkpt>
      <trkpt lat="39.4824391510" lon="-7.7133655082">
        <ele>275.07</ele>
        <time>2018-12-19T08:45:13Z</time>
      </trkpt>
      <trkpt lat="39.4823899493" lon="-7.7134341560">
        <ele>274.11</ele>
        <time>2018-12-19T08:45:18Z</time>
      </trkpt>
      <trkpt lat="39.4822841696" lon="-7.7135447133">
        <ele>274.11</ele>
        <time>2018-12-19T08:45:28Z</time>
      </trkpt>
      <trkpt lat="39.4821855146" lon="-7.7136375848">
        <ele>273.15</ele>
        <time>2018-12-19T08:45:37Z</time>
      </trkpt>
      <trkpt lat="39.4821076468" lon="-7.7137064002">
        <ele>273.15</ele>
        <time>2018-12-19T08:45:44Z</time>
      </trkpt>
      <trkpt lat="39.4821042940" lon="-7.7137187216">
        <ele>272.67</ele>
        <time>2018-12-19T08:45:45Z</time>
      </trkpt>
      <trkpt lat="39.4820954930" lon="-7.7137943264">
        <ele>273.15</ele>
        <time>2018-12-19T08:45:49Z</time>
      </trkpt>
      <trkpt lat="39.4821251649" lon="-7.7139652334">
        <ele>272.67</ele>
        <time>2018-12-19T08:45:58Z</time>
      </trkpt>
      <trkpt lat="39.4821204711" lon="-7.7141103242">
        <ele>271.71</ele>
        <time>2018-12-19T08:46:06Z</time>
      </trkpt>
      <trkpt lat="39.4821109995" lon="-7.7142819855">
        <ele>271.71</ele>
        <time>2018-12-19T08:46:16Z</time>
      </trkpt>
      <trkpt lat="39.4820856024" lon="-7.7144528925">
        <ele>271.23</ele>
        <time>2018-12-19T08:46:26Z</time>
      </trkpt>
      <trkpt lat="39.4820615463" lon="-7.7145980671">
        <ele>270.75</ele>
        <time>2018-12-19T08:46:35Z</time>
      </trkpt>
      <trkpt lat="39.4820493087" lon="-7.7147387154">
        <ele>270.27</ele>
        <time>2018-12-19T08:46:43Z</time>
      </trkpt>
      <trkpt lat="39.4820303656" lon="-7.7148836385">
        <ele>269.79</ele>
        <time>2018-12-19T08:46:51Z</time>
      </trkpt>
      <trkpt lat="39.4820180442" lon="-7.7150602452">
        <ele>269.79</ele>
        <time>2018-12-19T08:47:01Z</time>
      </trkpt>
      <trkpt lat="39.4820004422" lon="-7.7151937690">
        <ele>269.31</ele>
        <time>2018-12-19T08:47:09Z</time>
      </trkpt>
      <trkpt lat="39.4819716923" lon="-7.7153542824">
        <ele>270.75</ele>
        <time>2018-12-19T08:47:18Z</time>
      </trkpt>
      <trkpt lat="39.4819588680" lon="-7.7154572960">
        <ele>270.27</ele>
        <time>2018-12-19T08:47:25Z</time>
      </trkpt>
      <trkpt lat="39.4819591194" lon="-7.7155811805">
        <ele>270.75</ele>
        <time>2018-12-19T08:47:33Z</time>
      </trkpt>
      <trkpt lat="39.4819399249" lon="-7.7156928275">
        <ele>269.31</ele>
        <time>2018-12-19T08:47:40Z</time>
      </trkpt>
      <trkpt lat="39.4819141086" lon="-7.7158411033">
        <ele>269.31</ele>
        <time>2018-12-19T08:47:50Z</time>
      </trkpt>
      <trkpt lat="39.4818934891" lon="-7.7159661613">
        <ele>269.31</ele>
        <time>2018-12-19T08:47:59Z</time>
      </trkpt>
      <trkpt lat="39.4818892982" lon="-7.7160748746">
        <ele>268.83</ele>
        <time>2018-12-19T08:48:06Z</time>
      </trkpt>
      <trkpt lat="39.4818602968" lon="-7.7162093204">
        <ele>268.35</ele>
        <time>2018-12-19T08:48:15Z</time>
      </trkpt>
      <trkpt lat="39.4818169624" lon="-7.7162708435">
        <ele>268.35</ele>
        <time>2018-12-19T08:48:22Z</time>
      </trkpt>
      <trkpt lat="39.4817410223" lon="-7.7163191233">
        <ele>268.35</ele>
        <time>2018-12-19T08:48:29Z</time>
      </trkpt>
      <trkpt lat="39.4816763978" lon="-7.7163402457">
        <ele>268.35</ele>
        <time>2018-12-19T08:48:36Z</time>
      </trkpt>
      <trkpt lat="39.4816464745" lon="-7.7164274175">
        <ele>268.35</ele>
        <time>2018-12-19T08:48:44Z</time>
      </trkpt>
      <trkpt lat="39.4816228375" lon="-7.7164735179">
        <ele>268.35</ele>
        <time>2018-12-19T08:48:48Z</time>
      </trkpt>
      <trkpt lat="39.4815834425" lon="-7.7166084666">
        <ele>268.83</ele>
        <time>2018-12-19T08:48:57Z</time>
      </trkpt>
      <trkpt lat="39.4815726299" lon="-7.7166775335">
        <ele>269.31</ele>
        <time>2018-12-19T08:49:02Z</time>
      </trkpt>
      <trkpt lat="39.4815616496" lon="-7.7168284915">
        <ele>268.35</ele>
        <time>2018-12-19T08:49:12Z</time>
      </trkpt>
      <trkpt lat="39.4815815985" lon="-7.7169341873">
        <ele>269.31</ele>
        <time>2018-12-19T08:49:20Z</time>
      </trkpt>
      <trkpt lat="39.4816094264" lon="-7.7170222811">
        <ele>268.35</ele>
        <time>2018-12-19T08:49:28Z</time>
      </trkpt>
      <trkpt lat="39.4816299621" lon="-7.7170771826">
        <ele>268.83</ele>
        <time>2018-12-19T08:49:32Z</time>
      </trkpt>
      <trkpt lat="39.4816700276" lon="-7.7171865664">
        <ele>268.35</ele>
        <time>2018-12-19T08:49:40Z</time>
      </trkpt>
      <trkpt lat="39.4817102607" lon="-7.7172869816">
        <ele>268.83</ele>
        <time>2018-12-19T08:49:47Z</time>
      </trkpt>
      <trkpt lat="39.4817293715" lon="-7.7173344232">
        <ele>268.83</ele>
        <time>2018-12-19T08:49:50Z</time>
      </trkpt>
      <trkpt lat="39.4817933254" lon="-7.7174767479">
        <ele>268.83</ele>
        <time>2018-12-19T08:49:59Z</time>
      </trkpt>
      <trkpt lat="39.4818608835" lon="-7.7175910771">
        <ele>269.31</ele>
        <time>2018-12-19T08:50:08Z</time>
      </trkpt>
      <trkpt lat="39.4819429424" lon="-7.7177196555">
        <ele>270.27</ele>
        <time>2018-12-19T08:50:17Z</time>
      </trkpt>
      <trkpt lat="39.4820174575" lon="-7.7178482339">
        <ele>269.31</ele>
        <time>2018-12-19T08:50:27Z</time>
      </trkpt>
      <trkpt lat="39.4821038749" lon="-7.7179585397">
        <ele>269.31</ele>
        <time>2018-12-19T08:50:35Z</time>
      </trkpt>
      <trkpt lat="39.4821544178" lon="-7.7180768922">
        <ele>270.27</ele>
        <time>2018-12-19T08:50:44Z</time>
      </trkpt>
      <trkpt lat="39.4822002668" lon="-7.7181933168">
        <ele>269.31</ele>
        <time>2018-12-19T08:50:53Z</time>
      </trkpt>
      <trkpt lat="39.4822135940" lon="-7.7182687540">
        <ele>268.83</ele>
        <time>2018-12-19T08:50:58Z</time>
      </trkpt>
      <trkpt lat="39.4822334591" lon="-7.7183438558">
        <ele>269.79</ele>
        <time>2018-12-19T08:51:02Z</time>
      </trkpt>
      <trkpt lat="39.4822588563" lon="-7.7184333745">
        <ele>270.27</ele>
        <time>2018-12-19T08:51:08Z</time>
      </trkpt>
      <trkpt lat="39.4822682440" lon="-7.7184626274">
        <ele>269.79</ele>
        <time>2018-12-19T08:51:10Z</time>
      </trkpt>
      <trkpt lat="39.4823370595" lon="-7.7186203748">
        <ele>271.23</ele>
        <time>2018-12-19T08:51:20Z</time>
      </trkpt>
      <trkpt lat="39.4823872671" lon="-7.7187374700">
        <ele>271.71</ele>
        <time>2018-12-19T08:51:28Z</time>
      </trkpt>
      <trkpt lat="39.4824192021" lon="-7.7188406512">
        <ele>272.67</ele>
        <time>2018-12-19T08:51:36Z</time>
      </trkpt>
      <trkpt lat="39.4824472815" lon="-7.7189240512">
        <ele>273.63</ele>
        <time>2018-12-19T08:51:42Z</time>
      </trkpt>
      <trkpt lat="39.4824549928" lon="-7.7190609276">
        <ele>274.59</ele>
        <time>2018-12-19T08:51:51Z</time>
      </trkpt>
      <trkpt lat="39.4824259914" lon="-7.7191801183">
        <ele>276.04</ele>
        <time>2018-12-19T08:51:59Z</time>
      </trkpt>
      <trkpt lat="39.4823909551" lon="-7.7193141449">
        <ele>276.04</ele>
        <time>2018-12-19T08:52:07Z</time>
      </trkpt>
      <trkpt lat="39.4823529013" lon="-7.7194176614">
        <ele>277.48</ele>
        <time>2018-12-19T08:52:15Z</time>
      </trkpt>
      <trkpt lat="39.4823131710" lon="-7.7195192501">
        <ele>278.92</ele>
        <time>2018-12-19T08:52:24Z</time>
      </trkpt>
      <trkpt lat="39.4822677411" lon="-7.7196510136">
        <ele>278.92</ele>
        <time>2018-12-19T08:52:33Z</time>
      </trkpt>
      <trkpt lat="39.4822377339" lon="-7.7197536081">
        <ele>279.40</ele>
        <time>2018-12-19T08:52:40Z</time>
      </trkpt>
      <trkpt lat="39.4822147675" lon="-7.7198546939">
        <ele>279.40</ele>
        <time>2018-12-19T08:52:46Z</time>
      </trkpt>
      <trkpt lat="39.4822206348" lon="-7.7199784946">
        <ele>279.88</ele>
        <time>2018-12-19T08:52:54Z</time>
      </trkpt>
      <trkpt lat="39.4822449423" lon="-7.7200401016">
        <ele>280.36</ele>
        <time>2018-12-19T08:52:58Z</time>
      </trkpt>
      <trkpt lat="39.4823466148" lon="-7.7201845217">
        <ele>278.92</ele>
        <time>2018-12-19T08:53:09Z</time>
      </trkpt>
      <trkpt lat="39.4824393187" lon="-7.7202874515">
        <ele>278.92</ele>
        <time>2018-12-19T08:53:18Z</time>
      </trkpt>
      <trkpt lat="39.4825333636" lon="-7.7203990985">
        <ele>277.96</ele>
        <time>2018-12-19T08:53:28Z</time>
      </trkpt>
      <trkpt lat="39.4825860858" lon="-7.7205265034">
        <ele>277.48</ele>
        <time>2018-12-19T08:53:37Z</time>
      </trkpt>
      <trkpt lat="39.4826129079" lon="-7.7206672356">
        <ele>277.00</ele>
        <time>2018-12-19T08:53:46Z</time>
      </trkpt>
      <trkpt lat="39.4826376345" lon="-7.7207600232">
        <ele>276.52</ele>
        <time>2018-12-19T08:53:53Z</time>
      </trkpt>
      <trkpt lat="39.4826613553" lon="-7.7208985761">
        <ele>275.07</ele>
        <time>2018-12-19T08:54:02Z</time>
      </trkpt>
      <trkpt lat="39.4826744311" lon="-7.7209231351">
        <ele>275.56</ele>
        <time>2018-12-19T08:54:09Z</time>
      </trkpt>
      <trkpt lat="39.4826792926" lon="-7.7210006677">
        <ele>274.11</ele>
        <time>2018-12-19T08:54:17Z</time>
      </trkpt>
      <trkpt lat="39.4827089645" lon="-7.7211653721">
        <ele>272.67</ele>
        <time>2018-12-19T08:54:27Z</time>
      </trkpt>
      <trkpt lat="39.4827121496" lon="-7.7211841475">
        <ele>272.67</ele>
        <time>2018-12-19T08:54:28Z</time>
      </trkpt>
      <trkpt lat="39.4827843178" lon="-7.7213292383">
        <ele>271.71</ele>
        <time>2018-12-19T08:54:38Z</time>
      </trkpt>
      <trkpt lat="39.4828828890" lon="-7.7214473393">
        <ele>270.27</ele>
        <time>2018-12-19T08:54:48Z</time>
      </trkpt>
      <trkpt lat="39.4829929434" lon="-7.7215578128">
        <ele>269.31</ele>
        <time>2018-12-19T08:54:58Z</time>
      </trkpt>
      <trkpt lat="39.4830686320" lon="-7.7216268796">
        <ele>268.83</ele>
        <time>2018-12-19T08:55:05Z</time>
      </trkpt>
      <trkpt lat="39.4831449911" lon="-7.7217556257">
        <ele>268.83</ele>
        <time>2018-12-19T08:55:16Z</time>
      </trkpt>
      <trkpt lat="39.4831980485" lon="-7.7218988724">
        <ele>268.35</ele>
        <time>2018-12-19T08:55:26Z</time>
      </trkpt>
      <trkpt lat="39.4832307380" lon="-7.7220095135">
        <ele>268.83</ele>
        <time>2018-12-19T08:55:34Z</time>
      </trkpt>
      <trkpt lat="39.4832396228" lon="-7.7220498305">
        <ele>268.35</ele>
        <time>2018-12-19T08:55:37Z</time>
      </trkpt>
      <trkpt lat="39.4832818676" lon="-7.7221795823">
        <ele>269.79</ele>
        <time>2018-12-19T08:55:46Z</time>
      </trkpt>
      <trkpt lat="39.4833392836" lon="-7.7223353181">
        <ele>270.75</ele>
        <time>2018-12-19T08:55:54Z</time>
      </trkpt>
      <trkpt lat="39.4833759125" lon="-7.7224452049">
        <ele>271.71</ele>
        <time>2018-12-19T08:56:02Z</time>
      </trkpt>
      <trkpt lat="39.4834053330" lon="-7.7225616295">
        <ele>271.71</ele>
        <time>2018-12-19T08:56:10Z</time>
      </trkpt>
      <trkpt lat="39.4834262878" lon="-7.7227208856">
        <ele>273.15</ele>
        <time>2018-12-19T08:56:20Z</time>
      </trkpt>
      <trkpt lat="39.4834218454" lon="-7.7227833308">
        <ele>273.15</ele>
        <time>2018-12-19T08:56:24Z</time>
      </trkpt>
      <trkpt lat="39.4834018126" lon="-7.7228712570">
        <ele>274.59</ele>
        <time>2018-12-19T08:56:30Z</time>
      </trkpt>
      <trkpt lat="39.4833881501" lon="-7.7229350433">
        <ele>275.07</ele>
        <time>2018-12-19T08:56:35Z</time>
      </trkpt>
      <trkpt lat="39.4833772536" lon="-7.7231021784">
        <ele>275.56</ele>
        <time>2018-12-19T08:56:45Z</time>
      </trkpt>
      <trkpt lat="39.4833808579" lon="-7.7232732531">
        <ele>275.56</ele>
        <time>2018-12-19T08:56:55Z</time>
      </trkpt>
      <trkpt lat="39.4833919220" lon="-7.7233027574">
        <ele>275.56</ele>
        <time>2018-12-19T08:56:57Z</time>
      </trkpt>
      <trkpt lat="39.4834245276" lon="-7.7234406397">
        <ele>276.04</ele>
        <time>2018-12-19T08:57:07Z</time>
      </trkpt>
      <trkpt lat="39.4834913313" lon="-7.7235328406">
        <ele>277.00</ele>
        <time>2018-12-19T08:57:15Z</time>
      </trkpt>
      <trkpt lat="39.4835300557" lon="-7.7235832158">
        <ele>277.00</ele>
        <time>2018-12-19T08:57:22Z</time>
      </trkpt>
      <trkpt lat="39.4836014695" lon="-7.7236357704">
        <ele>277.96</ele>
        <time>2018-12-19T08:57:30Z</time>
      </trkpt>
      <trkpt lat="39.4836215023" lon="-7.7236435656">
        <ele>277.48</ele>
        <time>2018-12-19T08:57:38Z</time>
      </trkpt>
      <trkpt lat="39.4836447202" lon="-7.7236785181">
        <ele>277.96</ele>
        <time>2018-12-19T08:57:46Z</time>
      </trkpt>
      <trkpt lat="39.4836479053" lon="-7.7237246186">
        <ele>277.48</ele>
        <time>2018-12-19T08:57:49Z</time>
      </trkpt>
      <trkpt lat="39.4836511742" lon="-7.7238965314">
        <ele>276.04</ele>
        <time>2018-12-19T08:57:59Z</time>
      </trkpt>
      <trkpt lat="39.4836736377" lon="-7.7240485791">
        <ele>276.52</ele>
        <time>2018-12-19T08:58:08Z</time>
      </trkpt>
      <trkpt lat="39.4836893957" lon="-7.7241792530">
        <ele>276.52</ele>
        <time>2018-12-19T08:58:17Z</time>
      </trkpt>
      <trkpt lat="39.4837167207" lon="-7.7243643254">
        <ele>276.04</ele>
        <time>2018-12-19T08:58:28Z</time>
      </trkpt>
      <trkpt lat="39.4837416988" lon="-7.7245467156">
        <ele>276.04</ele>
        <time>2018-12-19T08:58:38Z</time>
      </trkpt>
      <trkpt lat="39.4837586302" lon="-7.7247021161">
        <ele>277.48</ele>
        <time>2018-12-19T08:58:48Z</time>
      </trkpt>
      <trkpt lat="39.4837650005" lon="-7.7248799801">
        <ele>276.04</ele>
        <time>2018-12-19T08:58:59Z</time>
      </trkpt>
      <trkpt lat="39.4838126097" lon="-7.7250135876">
        <ele>276.04</ele>
        <time>2018-12-19T08:59:07Z</time>
      </trkpt>
      <trkpt lat="39.4838631526" lon="-7.7251322754">
        <ele>276.52</ele>
        <time>2018-12-19T08:59:15Z</time>
      </trkpt>
      <trkpt lat="39.4838991947" lon="-7.7252297569">
        <ele>276.52</ele>
        <time>2018-12-19T08:59:23Z</time>
      </trkpt>
      <trkpt lat="39.4839311298" lon="-7.7253121510">
        <ele>277.00</ele>
        <time>2018-12-19T08:59:32Z</time>
      </trkpt>
      <trkpt lat="39.4839839358" lon="-7.7253548149">
        <ele>276.04</ele>
        <time>2018-12-19T08:59:37Z</time>
      </trkpt>
      <trkpt lat="39.4840281922" lon="-7.7253836486">
        <ele>275.56</ele>
        <time>2018-12-19T08:59:57Z</time>
      </trkpt>
      <trkpt lat="39.4840341434" lon="-7.7253932040">
        <ele>276.04</ele>
        <time>2018-12-19T09:00:18Z</time>
      </trkpt>
      <trkpt lat="39.4840096682" lon="-7.7253595088">
        <ele>276.04</ele>
        <time>2018-12-19T09:00:39Z</time>
      </trkpt>
      <trkpt lat="39.4840040524" lon="-7.7253629453">
        <ele>276.52</ele>
        <time>2018-12-19T09:00:58Z</time>
      </trkpt>
      <trkpt lat="39.4840001129" lon="-7.7253590059">
        <ele>275.07</ele>
        <time>2018-12-19T09:01:18Z</time>
      </trkpt>
      <trkpt lat="39.4839877076" lon="-7.7253532223">
        <ele>276.52</ele>
        <time>2018-12-19T09:01:41Z</time>
      </trkpt>
      <trkpt lat="39.4839944132" lon="-7.7253462654">
        <ele>276.52</ele>
        <time>2018-12-19T09:02:00Z</time>
      </trkpt>
      <trkpt lat="39.4839824270" lon="-7.7253147494">
        <ele>277.00</ele>
        <time>2018-12-19T09:02:11Z</time>
      </trkpt>
      <trkpt lat="39.4839628972" lon="-7.7252983209">
        <ele>276.52</ele>
        <time>2018-12-19T09:02:22Z</time>
      </trkpt>
      <trkpt lat="39.4839530066" lon="-7.7252891008">
        <ele>277.00</ele>
        <time>2018-12-19T09:02:34Z</time>
      </trkpt>
      <trkpt lat="39.4839536771" lon="-7.7252913639">
        <ele>276.52</ele>
        <time>2018-12-19T09:02:49Z</time>
      </trkpt>
      <trkpt lat="39.4839628134" lon="-7.7252840716">
        <ele>277.00</ele>
        <time>2018-12-19T09:03:02Z</time>
      </trkpt>
      <trkpt lat="39.4839687645" lon="-7.7252712473">
        <ele>277.48</ele>
        <time>2018-12-19T09:03:20Z</time>
      </trkpt>
      <trkpt lat="39.4839740451" lon="-7.7252895199">
        <ele>277.48</ele>
        <time>2018-12-19T09:03:37Z</time>
      </trkpt>
      <trkpt lat="39.4839750510" lon="-7.7252878435">
        <ele>277.00</ele>
        <time>2018-12-19T09:03:53Z</time>
      </trkpt>
      <trkpt lat="39.4839528389" lon="-7.7252536453">
        <ele>277.96</ele>
        <time>2018-12-19T09:04:02Z</time>
      </trkpt>
      <trkpt lat="39.4839659985" lon="-7.7252476942">
        <ele>277.48</ele>
        <time>2018-12-19T09:04:16Z</time>
      </trkpt>
      <trkpt lat="39.4839951675" lon="-7.7251399029">
        <ele>277.00</ele>
        <time>2018-12-19T09:04:26Z</time>
      </trkpt>
      <trkpt lat="39.4840270188" lon="-7.7251309343">
        <ele>276.52</ele>
        <time>2018-12-19T09:04:30Z</time>
      </trkpt>
      <trkpt lat="39.4841905497" lon="-7.7251456026">
        <ele>276.52</ele>
        <time>2018-12-19T09:04:41Z</time>
      </trkpt>
      <trkpt lat="39.4842520729" lon="-7.7250773739">
        <ele>275.56</ele>
        <time>2018-12-19T09:04:47Z</time>
      </trkpt>
      <trkpt lat="39.4843476266" lon="-7.7249383181">
        <ele>273.63</ele>
        <time>2018-12-19T09:04:58Z</time>
      </trkpt>
      <trkpt lat="39.4844375644" lon="-7.7247824147">
        <ele>273.15</ele>
        <time>2018-12-19T09:05:09Z</time>
      </trkpt>
      <trkpt lat="39.4844900351" lon="-7.7246950753">
        <ele>272.67</ele>
        <time>2018-12-19T09:05:17Z</time>
      </trkpt>
      <trkpt lat="39.4845709205" lon="-7.7245561872">
        <ele>272.19</ele>
        <time>2018-12-19T09:05:28Z</time>
      </trkpt>
      <trkpt lat="39.4846413285" lon="-7.7243981045">
        <ele>270.75</ele>
        <time>2018-12-19T09:05:39Z</time>
      </trkpt>
      <trkpt lat="39.4846586790" lon="-7.7242544387">
        <ele>271.23</ele>
        <time>2018-12-19T09:05:47Z</time>
      </trkpt>
      <trkpt lat="39.4847067073" lon="-7.7240982000">
        <ele>270.27</ele>
        <time>2018-12-19T09:05:56Z</time>
      </trkpt>
      <trkpt lat="39.4847733434" lon="-7.7239852119">
        <ele>269.79</ele>
        <time>2018-12-19T09:06:04Z</time>
      </trkpt>
      <trkpt lat="39.4848454278" lon="-7.7238752414">
        <ele>269.79</ele>
        <time>2018-12-19T09:06:13Z</time>
      </trkpt>
      <trkpt lat="39.4849341922" lon="-7.7237775084">
        <ele>269.31</ele>
        <time>2018-12-19T09:06:23Z</time>
      </trkpt>
      <trkpt lat="39.4849769399" lon="-7.7237331681">
        <ele>268.35</ele>
        <time>2018-12-19T09:06:31Z</time>
      </trkpt>
      <trkpt lat="39.4850331824" lon="-7.7237405442">
        <ele>268.83</ele>
        <time>2018-12-19T09:06:39Z</time>
      </trkpt>
      <trkpt lat="39.4850439113" lon="-7.7237449028">
        <ele>268.35</ele>
        <time>2018-12-19T09:06:49Z</time>
      </trkpt>
      <trkpt lat="39.4850690570" lon="-7.7237454057">
        <ele>268.83</ele>
        <time>2018-12-19T09:06:57Z</time>
      </trkpt>
      <trkpt lat="39.4850781932" lon="-7.7237397060">
        <ele>268.35</ele>
        <time>2018-12-19T09:07:06Z</time>
      </trkpt>
      <trkpt lat="39.4850612618" lon="-7.7237376943">
        <ele>268.35</ele>
        <time>2018-12-19T09:07:19Z</time>
      </trkpt>
      <trkpt lat="39.4850636926" lon="-7.7237697132">
        <ele>268.35</ele>
        <time>2018-12-19T09:07:37Z</time>
      </trkpt>
      <trkpt lat="39.4850528799" lon="-7.7237564698">
        <ele>268.35</ele>
        <time>2018-12-19T09:07:47Z</time>
      </trkpt>
      <trkpt lat="39.4850628544" lon="-7.7237355150">
        <ele>268.35</ele>
        <time>2018-12-19T09:08:01Z</time>
      </trkpt>
      <trkpt lat="39.4850638602" lon="-7.7237590682">
        <ele>269.31</ele>
        <time>2018-12-19T09:08:12Z</time>
      </trkpt>
      <trkpt lat="39.4850558136" lon="-7.7237615827">
        <ele>268.35</ele>
        <time>2018-12-19T09:08:32Z</time>
      </trkpt>
      <trkpt lat="39.4850471802" lon="-7.7237708028">
        <ele>267.86</ele>
        <time>2018-12-19T09:08:50Z</time>
      </trkpt>
      <trkpt lat="39.4850665424" lon="-7.7237537876">
        <ele>268.35</ele>
        <time>2018-12-19T09:09:06Z</time>
      </trkpt>
      <trkpt lat="39.4850590825" lon="-7.7237622533">
        <ele>269.31</ele>
        <time>2018-12-19T09:09:18Z</time>
      </trkpt>
      <trkpt lat="39.4850462582" lon="-7.7238018997">
        <ele>268.83</ele>
        <time>2018-12-19T09:09:34Z</time>
      </trkpt>
      <trkpt lat="39.4850385468" lon="-7.7237858064">
        <ele>268.35</ele>
        <time>2018-12-19T09:09:50Z</time>
      </trkpt>
      <trkpt lat="39.4850380439" lon="-7.7237842977">
        <ele>268.35</ele>
        <time>2018-12-19T09:10:03Z</time>
      </trkpt>
      <trkpt lat="39.4850517903" lon="-7.7237879857">
        <ele>268.83</ele>
        <time>2018-12-19T09:10:14Z</time>
      </trkpt>
      <trkpt lat="39.4850451685" lon="-7.7237778436">
        <ele>268.83</ele>
        <time>2018-12-19T09:10:22Z</time>
      </trkpt>
      <trkpt lat="39.4849928655" lon="-7.7237896621">
        <ele>268.35</ele>
        <time>2018-12-19T09:10:30Z</time>
      </trkpt>
      <trkpt lat="39.4849166740" lon="-7.7238542866">
        <ele>268.83</ele>
        <time>2018-12-19T09:10:39Z</time>
      </trkpt>
      <trkpt lat="39.4848154206" lon="-7.7239462361">
        <ele>269.79</ele>
        <time>2018-12-19T09:10:48Z</time>
      </trkpt>
      <trkpt lat="39.4848053623" lon="-7.7239607368">
        <ele>270.27</ele>
        <time>2018-12-19T09:10:49Z</time>
      </trkpt>
      <trkpt lat="39.4847872574" lon="-7.7239821944">
        <ele>269.79</ele>
        <time>2018-12-19T09:10:51Z</time>
      </trkpt>
      <trkpt lat="39.4847103953" lon="-7.7241122816">
        <ele>270.27</ele>
        <time>2018-12-19T09:11:01Z</time>
      </trkpt>
      <trkpt lat="39.4846593495" lon="-7.7241787501">
        <ele>270.27</ele>
        <time>2018-12-19T09:11:07Z</time>
      </trkpt>
      <trkpt lat="39.4846309349" lon="-7.7243694384">
        <ele>271.71</ele>
        <time>2018-12-19T09:11:18Z</time>
      </trkpt>
      <trkpt lat="39.4846064597" lon="-7.7245084941">
        <ele>271.23</ele>
        <time>2018-12-19T09:11:26Z</time>
      </trkpt>
      <trkpt lat="39.4845992513" lon="-7.7245420218">
        <ele>271.23</ele>
        <time>2018-12-19T09:11:28Z</time>
      </trkpt>
      <trkpt lat="39.4845693279" lon="-7.7245950792">
        <ele>271.71</ele>
        <time>2018-12-19T09:11:32Z</time>
      </trkpt>
      <trkpt lat="39.4845114090" lon="-7.7247058880">
        <ele>272.67</ele>
        <time>2018-12-19T09:11:40Z</time>
      </trkpt>
      <trkpt lat="39.4844261650" lon="-7.7248031180">
        <ele>273.63</ele>
        <time>2018-12-19T09:11:49Z</time>
      </trkpt>
      <trkpt lat="39.4843601994" lon="-7.7249155194">
        <ele>273.63</ele>
        <time>2018-12-19T09:11:58Z</time>
      </trkpt>
      <trkpt lat="39.4842820801" lon="-7.7250171918">
        <ele>274.11</ele>
        <time>2018-12-19T09:12:07Z</time>
      </trkpt>
      <trkpt lat="39.4842614606" lon="-7.7250522282">
        <ele>275.07</ele>
        <time>2018-12-19T09:12:10Z</time>
      </trkpt>
      <trkpt lat="39.4841972552" lon="-7.7251558285">
        <ele>276.52</ele>
        <time>2018-12-19T09:12:18Z</time>
      </trkpt>
      <trkpt lat="39.4842047151" lon="-7.7251942176">
        <ele>276.52</ele>
        <time>2018-12-19T09:12:20Z</time>
      </trkpt>
      <trkpt lat="39.4842223171" lon="-7.7252314333">
        <ele>276.52</ele>
        <time>2018-12-19T09:12:22Z</time>
      </trkpt>
      <trkpt lat="39.4842634723" lon="-7.7252809703">
        <ele>276.04</ele>
        <time>2018-12-19T09:12:26Z</time>
      </trkpt>
      <trkpt lat="39.4843302760" lon="-7.7253660467">
        <ele>276.04</ele>
        <time>2018-12-19T09:12:35Z</time>
      </trkpt>
      <trkpt lat="39.4843502250" lon="-7.7253659628">
        <ele>276.52</ele>
        <time>2018-12-19T09:12:37Z</time>
      </trkpt>
      <trkpt lat="39.4843745325" lon="-7.7253460977">
        <ele>277.00</ele>
        <time>2018-12-19T09:12:40Z</time>
      </trkpt>
      <trkpt lat="39.4844686612" lon="-7.7252518013">
        <ele>276.52</ele>
        <time>2018-12-19T09:12:51Z</time>
      </trkpt>
      <trkpt lat="39.4844838325" lon="-7.7252469398">
        <ele>276.52</ele>
        <time>2018-12-19T09:12:59Z</time>
      </trkpt>
      <trkpt lat="39.4844710082" lon="-7.7252883464">
        <ele>276.04</ele>
        <time>2018-12-19T09:13:08Z</time>
      </trkpt>
      <trkpt lat="39.4844658114" lon="-7.7252989076">
        <ele>275.07</ele>
        <time>2018-12-19T09:13:09Z</time>
      </trkpt>
      <trkpt lat="39.4844552502" lon="-7.7253202815">
        <ele>277.48</ele>
        <time>2018-12-19T09:13:11Z</time>
      </trkpt>
      <trkpt lat="39.4844499696" lon="-7.7253309265">
        <ele>279.88</ele>
        <time>2018-12-19T09:13:12Z</time>
      </trkpt>
      <trkpt lat="39.4844447728" lon="-7.7253414877">
        <ele>275.56</ele>
        <time>2018-12-19T09:13:13Z</time>
      </trkpt>
      <trkpt lat="39.4844926335" lon="-7.7252896037">
        <ele>274.59</ele>
        <time>2018-12-19T09:22:03Z</time>
      </trkpt>
      <trkpt lat="39.4844529033" lon="-7.7253589220">
        <ele>275.56</ele>
        <time>2018-12-19T09:22:12Z</time>
      </trkpt>
      <trkpt lat="39.4844409171" lon="-7.7253712434">
        <ele>275.56</ele>
        <time>2018-12-19T09:22:14Z</time>
      </trkpt>
      <trkpt lat="39.4844155200" lon="-7.7254038490">
        <ele>275.07</ele>
        <time>2018-12-19T09:22:18Z</time>
      </trkpt>
      <trkpt lat="39.4843620434" lon="-7.7254619356">
        <ele>271.23</ele>
        <time>2018-12-19T09:22:24Z</time>
      </trkpt>
      <trkpt lat="39.4843541645" lon="-7.7254698984">
        <ele>276.52</ele>
        <time>2018-12-19T09:22:25Z</time>
      </trkpt>
      <trkpt lat="39.4843110815" lon="-7.7255617641">
        <ele>276.04</ele>
        <time>2018-12-19T09:22:34Z</time>
      </trkpt>
      <trkpt lat="39.4842744526" lon="-7.7256388776">
        <ele>275.56</ele>
        <time>2018-12-19T09:22:41Z</time>
      </trkpt>
      <trkpt lat="39.4841699302" lon="-7.7256932762">
        <ele>276.52</ele>
        <time>2018-12-19T09:22:50Z</time>
      </trkpt>
      <trkpt lat="39.4841453712" lon="-7.7257506922">
        <ele>275.56</ele>
        <time>2018-12-19T09:22:55Z</time>
      </trkpt>
      <trkpt lat="39.4840742927" lon="-7.7258316614">
        <ele>275.56</ele>
        <time>2018-12-19T09:23:02Z</time>
      </trkpt>
      <trkpt lat="39.4840737060" lon="-7.7259205095">
        <ele>275.56</ele>
        <time>2018-12-19T09:23:10Z</time>
      </trkpt>
      <trkpt lat="39.4840897992" lon="-7.7259314060">
        <ele>275.07</ele>
        <time>2018-12-19T09:23:12Z</time>
      </trkpt>
      <trkpt lat="39.4841666613" lon="-7.7260007244">
        <ele>275.07</ele>
        <time>2018-12-19T09:23:22Z</time>
      </trkpt>
      <trkpt lat="39.4842140190" lon="-7.7262041532">
        <ele>274.59</ele>
        <time>2018-12-19T09:23:32Z</time>
      </trkpt>
      <trkpt lat="39.4843011908" lon="-7.7262622397">
        <ele>274.11</ele>
        <time>2018-12-19T09:23:40Z</time>
      </trkpt>
      <trkpt lat="39.4843140151" lon="-7.7262698673">
        <ele>273.15</ele>
        <time>2018-12-19T09:23:41Z</time>
      </trkpt>
      <trkpt lat="39.4844233152" lon="-7.7263751440">
        <ele>272.67</ele>
        <time>2018-12-19T09:23:52Z</time>
      </trkpt>
      <trkpt lat="39.4844531547" lon="-7.7264430374">
        <ele>272.67</ele>
        <time>2018-12-19T09:23:57Z</time>
      </trkpt>
      <trkpt lat="39.4844718464" lon="-7.7266283613">
        <ele>272.19</ele>
        <time>2018-12-19T09:24:08Z</time>
      </trkpt>
      <trkpt lat="39.4844876882" lon="-7.7267701831">
        <ele>272.19</ele>
        <time>2018-12-19T09:24:17Z</time>
      </trkpt>
      <trkpt lat="39.4844894484" lon="-7.7269265894">
        <ele>271.71</ele>
        <time>2018-12-19T09:24:26Z</time>
      </trkpt>
      <trkpt lat="39.4844587706" lon="-7.7270430978">
        <ele>272.19</ele>
        <time>2018-12-19T09:24:34Z</time>
      </trkpt>
      <trkpt lat="39.4843917154" lon="-7.7271603607">
        <ele>272.67</ele>
        <time>2018-12-19T09:24:43Z</time>
      </trkpt>
      <trkpt lat="39.4843461178" lon="-7.7273323573">
        <ele>272.67</ele>
        <time>2018-12-19T09:24:52Z</time>
      </trkpt>
      <trkpt lat="39.4842948206" lon="-7.7274421602">
        <ele>272.19</ele>
        <time>2018-12-19T09:25:00Z</time>
      </trkpt>
      <trkpt lat="39.4842455350" lon="-7.7275736723">
        <ele>272.19</ele>
        <time>2018-12-19T09:25:09Z</time>
      </trkpt>
      <trkpt lat="39.4842216466" lon="-7.7276311722">
        <ele>273.15</ele>
        <time>2018-12-19T09:25:13Z</time>
      </trkpt>
      <trkpt lat="39.4842138514" lon="-7.7276911866">
        <ele>272.67</ele>
        <time>2018-12-19T09:25:17Z</time>
      </trkpt>
      <trkpt lat="39.4842572697" lon="-7.7278272249">
        <ele>272.67</ele>
        <time>2018-12-19T09:25:26Z</time>
      </trkpt>
      <trkpt lat="39.4843209721" lon="-7.7279469185">
        <ele>273.15</ele>
        <time>2018-12-19T09:25:36Z</time>
      </trkpt>
      <trkpt lat="39.4843992591" lon="-7.7280328330">
        <ele>273.15</ele>
        <time>2018-12-19T09:25:44Z</time>
      </trkpt>
      <trkpt lat="39.4844481256" lon="-7.7280916739">
        <ele>273.15</ele>
        <time>2018-12-19T09:25:50Z</time>
      </trkpt>
      <trkpt lat="39.4845614489" lon="-7.7282266226">
        <ele>274.11</ele>
        <time>2018-12-19T09:26:01Z</time>
      </trkpt>
      <trkpt lat="39.4846383948" lon="-7.7283430472">
        <ele>274.59</ele>
        <time>2018-12-19T09:26:11Z</time>
      </trkpt>
      <trkpt lat="39.4846740179" lon="-7.7284431271">
        <ele>274.59</ele>
        <time>2018-12-19T09:26:19Z</time>
      </trkpt>
      <trkpt lat="39.4846832380" lon="-7.7284946758">
        <ele>276.04</ele>
        <time>2018-12-19T09:26:22Z</time>
      </trkpt>
      <trkpt lat="39.4847326074" lon="-7.7286520042">
        <ele>276.04</ele>
        <time>2018-12-19T09:26:31Z</time>
      </trkpt>
      <trkpt lat="39.4847500417" lon="-7.7287621424">
        <ele>276.52</ele>
        <time>2018-12-19T09:26:38Z</time>
      </trkpt>
      <trkpt lat="39.4847562443" lon="-7.7287799958">
        <ele>276.52</ele>
        <time>2018-12-19T09:26:39Z</time>
      </trkpt>
      <trkpt lat="39.4847782888" lon="-7.7288807463">
        <ele>277.48</ele>
        <time>2018-12-19T09:26:45Z</time>
      </trkpt>
      <trkpt lat="39.4847817253" lon="-7.7289273497">
        <ele>277.00</ele>
        <time>2018-12-19T09:26:48Z</time>
      </trkpt>
      <trkpt lat="39.4848402310" lon="-7.7290831693">
        <ele>277.48</ele>
        <time>2018-12-19T09:26:57Z</time>
      </trkpt>
      <trkpt lat="39.4848543964" lon="-7.7291378193">
        <ele>277.96</ele>
        <time>2018-12-19T09:27:00Z</time>
      </trkpt>
      <trkpt lat="39.4848910253" lon="-7.7293289267">
        <ele>277.96</ele>
        <time>2018-12-19T09:27:11Z</time>
      </trkpt>
      <trkpt lat="39.4849341083" lon="-7.7295169327">
        <ele>277.96</ele>
        <time>2018-12-19T09:27:22Z</time>
      </trkpt>
      <trkpt lat="39.4849488605" lon="-7.7296524681">
        <ele>278.44</ele>
        <time>2018-12-19T09:27:30Z</time>
      </trkpt>
      <trkpt lat="39.4849410653" lon="-7.7298187651">
        <ele>279.40</ele>
        <time>2018-12-19T09:27:40Z</time>
      </trkpt>
      <trkpt lat="39.4849258941" lon="-7.7300099563">
        <ele>278.92</ele>
        <time>2018-12-19T09:27:51Z</time>
      </trkpt>
      <trkpt lat="39.4849335216" lon="-7.7301541250">
        <ele>279.40</ele>
        <time>2018-12-19T09:27:59Z</time>
      </trkpt>
      <trkpt lat="39.4849381316" lon="-7.7303333301">
        <ele>278.92</ele>
        <time>2018-12-19T09:28:09Z</time>
      </trkpt>
      <trkpt lat="39.4849558175" lon="-7.7304892335">
        <ele>279.88</ele>
        <time>2018-12-19T09:28:18Z</time>
      </trkpt>
      <trkpt lat="39.4849666301" lon="-7.7306500822">
        <ele>279.88</ele>
        <time>2018-12-19T09:28:28Z</time>
      </trkpt>
      <trkpt lat="39.4849985652" lon="-7.7308359928">
        <ele>280.36</ele>
        <time>2018-12-19T09:28:40Z</time>
      </trkpt>
      <trkpt lat="39.4850172568" lon="-7.7309637330">
        <ele>281.32</ele>
        <time>2018-12-19T09:28:50Z</time>
      </trkpt>
      <trkpt lat="39.4850227889" lon="-7.7310447022">
        <ele>280.84</ele>
        <time>2018-12-19T09:28:59Z</time>
      </trkpt>
      <trkpt lat="39.4850371219" lon="-7.7310844325">
        <ele>281.32</ele>
        <time>2018-12-19T09:29:07Z</time>
      </trkpt>
      <trkpt lat="39.4850500301" lon="-7.7310928982">
        <ele>280.84</ele>
        <time>2018-12-19T09:29:16Z</time>
      </trkpt>
      <trkpt lat="39.4850486051" lon="-7.7311036270">
        <ele>281.32</ele>
        <time>2018-12-19T09:29:29Z</time>
      </trkpt>
      <trkpt lat="39.4850544725" lon="-7.7311685868">
        <ele>281.32</ele>
        <time>2018-12-19T09:29:36Z</time>
      </trkpt>
      <trkpt lat="39.4850895926" lon="-7.7313149348">
        <ele>282.28</ele>
        <time>2018-12-19T09:29:45Z</time>
      </trkpt>
      <trkpt lat="39.4850901794" lon="-7.7313640527">
        <ele>281.80</ele>
        <time>2018-12-19T09:29:48Z</time>
      </trkpt>
      <trkpt lat="39.4850868266" lon="-7.7314857580">
        <ele>283.25</ele>
        <time>2018-12-19T09:29:56Z</time>
      </trkpt>
      <trkpt lat="39.4850930292" lon="-7.7315214649">
        <ele>283.73</ele>
        <time>2018-12-19T09:29:58Z</time>
      </trkpt>
      <trkpt lat="39.4851015788" lon="-7.7316084690">
        <ele>283.25</ele>
        <time>2018-12-19T09:30:03Z</time>
      </trkpt>
      <trkpt lat="39.4851076137" lon="-7.7316443436">
        <ele>283.25</ele>
        <time>2018-12-19T09:30:05Z</time>
      </trkpt>
      <trkpt lat="39.4851328433" lon="-7.7318201959">
        <ele>283.73</ele>
        <time>2018-12-19T09:30:15Z</time>
      </trkpt>
      <trkpt lat="39.4851455837" lon="-7.7318724152">
        <ele>283.73</ele>
        <time>2018-12-19T09:30:18Z</time>
      </trkpt>
      <trkpt lat="39.4851973839" lon="-7.7320323419">
        <ele>284.21</ele>
        <time>2018-12-19T09:30:28Z</time>
      </trkpt>
      <trkpt lat="39.4851869065" lon="-7.7321780194">
        <ele>284.69</ele>
        <time>2018-12-19T09:30:37Z</time>
      </trkpt>
      <trkpt lat="39.4851812907" lon="-7.7321910113">
        <ele>285.17</ele>
        <time>2018-12-19T09:30:38Z</time>
      </trkpt>
      <trkpt lat="39.4851501938" lon="-7.7322445717">
        <ele>285.17</ele>
        <time>2018-12-19T09:30:42Z</time>
      </trkpt>
      <trkpt lat="39.4850746728" lon="-7.7323718928">
        <ele>284.69</ele>
        <time>2018-12-19T09:30:52Z</time>
      </trkpt>
      <trkpt lat="39.4849963859" lon="-7.7324491739">
        <ele>285.65</ele>
        <time>2018-12-19T09:30:59Z</time>
      </trkpt>
      <trkpt lat="39.4849367067" lon="-7.7325101942">
        <ele>286.13</ele>
        <time>2018-12-19T09:31:05Z</time>
      </trkpt>
      <trkpt lat="39.4848430809" lon="-7.7326197457">
        <ele>286.61</ele>
        <time>2018-12-19T09:31:15Z</time>
      </trkpt>
      <trkpt lat="39.4847928733" lon="-7.7326966077">
        <ele>287.57</ele>
        <time>2018-12-19T09:31:22Z</time>
      </trkpt>
      <trkpt lat="39.4847212918" lon="-7.7328105178">
        <ele>288.05</ele>
        <time>2018-12-19T09:31:32Z</time>
      </trkpt>
      <trkpt lat="39.4846752752" lon="-7.7329128608">
        <ele>289.49</ele>
        <time>2018-12-19T09:31:40Z</time>
      </trkpt>
      <trkpt lat="39.4846534822" lon="-7.7329541836">
        <ele>289.01</ele>
        <time>2018-12-19T09:31:43Z</time>
      </trkpt>
      <trkpt lat="39.4846083876" lon="-7.7330530062">
        <ele>288.53</ele>
        <time>2018-12-19T09:31:51Z</time>
      </trkpt>
      <trkpt lat="39.4845340401" lon="-7.7331721131">
        <ele>289.01</ele>
        <time>2018-12-19T09:32:00Z</time>
      </trkpt>
      <trkpt lat="39.4844663981" lon="-7.7332767192">
        <ele>289.01</ele>
        <time>2018-12-19T09:32:08Z</time>
      </trkpt>
      <trkpt lat="39.4843885303" lon="-7.7333696745">
        <ele>289.49</ele>
        <time>2018-12-19T09:32:16Z</time>
      </trkpt>
      <trkpt lat="39.4843366463" lon="-7.7334120870">
        <ele>289.01</ele>
        <time>2018-12-19T09:32:20Z</time>
      </trkpt>
      <trkpt lat="39.4843159430" lon="-7.7334390767">
        <ele>289.97</ele>
        <time>2018-12-19T09:32:22Z</time>
      </trkpt>
      <trkpt lat="39.4842400029" lon="-7.7335135918">
        <ele>289.97</ele>
        <time>2018-12-19T09:32:28Z</time>
      </trkpt>
      <trkpt lat="39.4841665775" lon="-7.7336277533">
        <ele>289.49</ele>
        <time>2018-12-19T09:32:37Z</time>
      </trkpt>
      <trkpt lat="39.4841105025" lon="-7.7337202895">
        <ele>289.97</ele>
        <time>2018-12-19T09:32:44Z</time>
      </trkpt>
      <trkpt lat="39.4840697665" lon="-7.7337927930">
        <ele>290.46</ele>
        <time>2018-12-19T09:32:50Z</time>
      </trkpt>
      <trkpt lat="39.4840218220" lon="-7.7338585071">
        <ele>290.46</ele>
        <time>2018-12-19T09:32:56Z</time>
      </trkpt>
      <trkpt lat="39.4839503244" lon="-7.7339755185">
        <ele>290.46</ele>
        <time>2018-12-19T09:33:04Z</time>
      </trkpt>
      <trkpt lat="39.4838960934" lon="-7.7340780292">
        <ele>290.46</ele>
        <time>2018-12-19T09:33:11Z</time>
      </trkpt>
      <trkpt lat="39.4838311337" lon="-7.7342107147">
        <ele>289.97</ele>
        <time>2018-12-19T09:33:20Z</time>
      </trkpt>
      <trkpt lat="39.4838248473" lon="-7.7342238743">
        <ele>289.49</ele>
        <time>2018-12-19T09:33:21Z</time>
      </trkpt>
      <trkpt lat="39.4837315567" lon="-7.7343364432">
        <ele>290.46</ele>
        <time>2018-12-19T09:33:30Z</time>
      </trkpt>
      <trkpt lat="39.4837013818" lon="-7.7343954518">
        <ele>290.94</ele>
        <time>2018-12-19T09:33:35Z</time>
      </trkpt>
      <trkpt lat="39.4836905692" lon="-7.7344265487">
        <ele>290.94</ele>
        <time>2018-12-19T09:33:37Z</time>
      </trkpt>
      <trkpt lat="39.4836091809" lon="-7.7345475834">
        <ele>290.46</ele>
        <time>2018-12-19T09:33:46Z</time>
      </trkpt>
      <trkpt lat="39.4835282955" lon="-7.7346892375">
        <ele>290.46</ele>
        <time>2018-12-19T09:33:57Z</time>
      </trkpt>
      <trkpt lat="39.4834635034" lon="-7.7348062489">
        <ele>290.94</ele>
        <time>2018-12-19T09:34:05Z</time>
      </trkpt>
      <trkpt lat="39.4834036566" lon="-7.7349663433">
        <ele>290.46</ele>
        <time>2018-12-19T09:34:14Z</time>
      </trkpt>
      <trkpt lat="39.4833764993" lon="-7.7350603044">
        <ele>290.46</ele>
        <time>2018-12-19T09:34:20Z</time>
      </trkpt>
      <trkpt lat="39.4833451509" lon="-7.7351404354">
        <ele>290.94</ele>
        <time>2018-12-19T09:34:26Z</time>
      </trkpt>
      <trkpt lat="39.4833192509" lon="-7.7352930699">
        <ele>289.97</ele>
        <time>2018-12-19T09:34:35Z</time>
      </trkpt>
      <trkpt lat="39.4832982961" lon="-7.7354380768">
        <ele>290.94</ele>
        <time>2018-12-19T09:34:45Z</time>
      </trkpt>
      <trkpt lat="39.4832920935" lon="-7.7355773002">
        <ele>289.97</ele>
        <time>2018-12-19T09:34:53Z</time>
      </trkpt>
      <trkpt lat="39.4832972065" lon="-7.7357223909">
        <ele>288.53</ele>
        <time>2018-12-19T09:35:01Z</time>
      </trkpt>
      <trkpt lat="39.4833058398" lon="-7.7358704992">
        <ele>288.05</ele>
        <time>2018-12-19T09:35:09Z</time>
      </trkpt>
      <trkpt lat="39.4833148085" lon="-7.7360122371">
        <ele>287.09</ele>
        <time>2018-12-19T09:35:18Z</time>
      </trkpt>
      <trkpt lat="39.4833100308" lon="-7.7361462638">
        <ele>286.61</ele>
        <time>2018-12-19T09:35:26Z</time>
      </trkpt>
      <trkpt lat="39.4832959492" lon="-7.7363572363">
        <ele>286.61</ele>
        <time>2018-12-19T09:35:37Z</time>
      </trkpt>
      <trkpt lat="39.4832988828" lon="-7.7364898380">
        <ele>285.65</ele>
        <time>2018-12-19T09:35:45Z</time>
      </trkpt>
      <trkpt lat="39.4832672831" lon="-7.7366625890">
        <ele>285.65</ele>
        <time>2018-12-19T09:35:55Z</time>
      </trkpt>
      <trkpt lat="39.4832435623" lon="-7.7368101943">
        <ele>286.13</ele>
        <time>2018-12-19T09:36:04Z</time>
      </trkpt>
      <trkpt lat="39.4832390361" lon="-7.7369893994">
        <ele>286.13</ele>
        <time>2018-12-19T09:36:14Z</time>
      </trkpt>
      <trkpt lat="39.4832390361" lon="-7.7371220849">
        <ele>285.65</ele>
        <time>2018-12-19T09:36:22Z</time>
      </trkpt>
      <trkpt lat="39.4832295645" lon="-7.7371572889">
        <ele>286.61</ele>
        <time>2018-12-19T09:36:24Z</time>
      </trkpt>
      <trkpt lat="39.4831920136" lon="-7.7373878751">
        <ele>286.13</ele>
        <time>2018-12-19T09:36:37Z</time>
      </trkpt>
      <trkpt lat="39.4831850566" lon="-7.7375432756">
        <ele>286.13</ele>
        <time>2018-12-19T09:36:46Z</time>
      </trkpt>
      <trkpt lat="39.4831834640" lon="-7.7375589497">
        <ele>285.17</ele>
        <time>2018-12-19T09:36:49Z</time>
      </trkpt>
      <trkpt lat="39.4831683766" lon="-7.7377285995">
        <ele>285.65</ele>
        <time>2018-12-19T09:36:59Z</time>
      </trkpt>
      <trkpt lat="39.4831486791" lon="-7.7378023602">
        <ele>285.17</ele>
        <time>2018-12-19T09:37:04Z</time>
      </trkpt>
      <trkpt lat="39.4831086136" lon="-7.7379516419">
        <ele>284.21</ele>
        <time>2018-12-19T09:37:13Z</time>
      </trkpt>
      <trkpt lat="39.4830590766" lon="-7.7381269075">
        <ele>284.69</ele>
        <time>2018-12-19T09:37:23Z</time>
      </trkpt>
      <trkpt lat="39.4830177538" lon="-7.7382813860">
        <ele>284.21</ele>
        <time>2018-12-19T09:37:32Z</time>
      </trkpt>
      <trkpt lat="39.4829574879" lon="-7.7384605072">
        <ele>283.25</ele>
        <time>2018-12-19T09:37:43Z</time>
      </trkpt>
      <trkpt lat="39.4828767702" lon="-7.7386471722">
        <ele>282.77</ele>
        <time>2018-12-19T09:37:55Z</time>
      </trkpt>
      <trkpt lat="39.4828268141" lon="-7.7387983818">
        <ele>282.28</ele>
        <time>2018-12-19T09:38:05Z</time>
      </trkpt>
      <trkpt lat="39.4827958848" lon="-7.7389735635">
        <ele>282.28</ele>
        <time>2018-12-19T09:38:16Z</time>
      </trkpt>
      <trkpt lat="39.4827909395" lon="-7.7391489968">
        <ele>281.80</ele>
        <time>2018-12-19T09:38:26Z</time>
      </trkpt>
      <trkpt lat="39.4827880897" lon="-7.7393450495">
        <ele>283.25</ele>
        <time>2018-12-19T09:38:37Z</time>
      </trkpt>
      <trkpt lat="39.4827853236" lon="-7.7394836862">
        <ele>282.28</ele>
        <time>2018-12-19T09:38:46Z</time>
      </trkpt>
      <trkpt lat="39.4827316795" lon="-7.7396752127">
        <ele>281.32</ele>
        <time>2018-12-19T09:38:58Z</time>
      </trkpt>
      <trkpt lat="39.4826820586" lon="-7.7398198005">
        <ele>279.88</ele>
        <time>2018-12-19T09:39:07Z</time>
      </trkpt>
      <trkpt lat="39.4826249778" lon="-7.7399959881">
        <ele>280.36</ele>
        <time>2018-12-19T09:39:17Z</time>
      </trkpt>
      <trkpt lat="39.4825770333" lon="-7.7401593514">
        <ele>279.40</ele>
        <time>2018-12-19T09:39:27Z</time>
      </trkpt>
      <trkpt lat="39.4825430866" lon="-7.7403341141">
        <ele>279.40</ele>
        <time>2018-12-19T09:39:37Z</time>
      </trkpt>
      <trkpt lat="39.4825614430" lon="-7.7405266464">
        <ele>279.40</ele>
        <time>2018-12-19T09:39:48Z</time>
      </trkpt>
      <trkpt lat="39.4825864211" lon="-7.7406602539">
        <ele>279.40</ele>
        <time>2018-12-19T09:39:58Z</time>
      </trkpt>
      <trkpt lat="39.4826033525" lon="-7.7406890038">
        <ele>279.88</ele>
        <time>2018-12-19T09:40:07Z</time>
      </trkpt>
      <trkpt lat="39.4826121535" lon="-7.7407930233">
        <ele>279.40</ele>
        <time>2018-12-19T09:40:16Z</time>
      </trkpt>
      <trkpt lat="39.4826116506" lon="-7.7409704681">
        <ele>279.40</ele>
        <time>2018-12-19T09:40:27Z</time>
      </trkpt>
      <trkpt lat="39.4825834874" lon="-7.7411190793">
        <ele>279.88</ele>
        <time>2018-12-19T09:40:36Z</time>
      </trkpt>
      <trkpt lat="39.4825173542" lon="-7.7412561234">
        <ele>279.40</ele>
        <time>2018-12-19T09:40:46Z</time>
      </trkpt>
      <trkpt lat="39.4824502990" lon="-7.7414386813">
        <ele>279.88</ele>
        <time>2018-12-19T09:40:58Z</time>
      </trkpt>
      <trkpt lat="39.4824328646" lon="-7.7414607257">
        <ele>279.40</ele>
        <time>2018-12-19T09:41:00Z</time>
      </trkpt>
      <trkpt lat="39.4824155141" lon="-7.7415510826">
        <ele>279.40</ele>
        <time>2018-12-19T09:41:05Z</time>
      </trkpt>
      <trkpt lat="39.4823436812" lon="-7.7416679263">
        <ele>279.40</ele>
        <time>2018-12-19T09:41:14Z</time>
      </trkpt>
      <trkpt lat="39.4823263306" lon="-7.7417277731">
        <ele>279.40</ele>
        <time>2018-12-19T09:41:18Z</time>
      </trkpt>
      <trkpt lat="39.4822648913" lon="-7.7419195510">
        <ele>279.88</ele>
        <time>2018-12-19T09:41:30Z</time>
      </trkpt>
      <trkpt lat="39.4822153542" lon="-7.7420436032">
        <ele>279.40</ele>
        <time>2018-12-19T09:41:39Z</time>
      </trkpt>
      <trkpt lat="39.4821263384" lon="-7.7422134206">
        <ele>281.32</ele>
        <time>2018-12-19T09:41:51Z</time>
      </trkpt>
      <trkpt lat="39.4820714369" lon="-7.7423391491">
        <ele>282.28</ele>
        <time>2018-12-19T09:42:00Z</time>
      </trkpt>
      <trkpt lat="39.4820358977" lon="-7.7424568310">
        <ele>282.28</ele>
        <time>2018-12-19T09:42:07Z</time>
      </trkpt>
      <trkpt lat="39.4820117578" lon="-7.7424911130">
        <ele>281.32</ele>
        <time>2018-12-19T09:42:10Z</time>
      </trkpt>
      <trkpt lat="39.4819935691" lon="-7.7425490320">
        <ele>281.80</ele>
        <time>2018-12-19T09:42:14Z</time>
      </trkpt>
      <trkpt lat="39.4819005299" lon="-7.7427092940">
        <ele>281.80</ele>
        <time>2018-12-19T09:42:25Z</time>
      </trkpt>
      <trkpt lat="39.4818396773" lon="-7.7428179234">
        <ele>281.80</ele>
        <time>2018-12-19T09:42:34Z</time>
      </trkpt>
      <trkpt lat="39.4817682635" lon="-7.7429591585">
        <ele>282.77</ele>
        <time>2018-12-19T09:42:44Z</time>
      </trkpt>
      <trkpt lat="39.4817326404" lon="-7.7430651058">
        <ele>282.77</ele>
        <time>2018-12-19T09:42:51Z</time>
      </trkpt>
      <trkpt lat="39.4816737156" lon="-7.7431707177">
        <ele>283.25</ele>
        <time>2018-12-19T09:42:59Z</time>
      </trkpt>
      <trkpt lat="39.4815981947" lon="-7.7433254477">
        <ele>283.73</ele>
        <time>2018-12-19T09:43:09Z</time>
      </trkpt>
      <trkpt lat="39.4815261103" lon="-7.7434675209">
        <ele>284.69</ele>
        <time>2018-12-19T09:43:19Z</time>
      </trkpt>
      <trkpt lat="39.4815078378" lon="-7.7435105201">
        <ele>283.73</ele>
        <time>2018-12-19T09:43:22Z</time>
      </trkpt>
      <trkpt lat="39.4814044051" lon="-7.7436279505">
        <ele>283.25</ele>
        <time>2018-12-19T09:43:33Z</time>
      </trkpt>
      <trkpt lat="39.4813049957" lon="-7.7436872106">
        <ele>283.73</ele>
        <time>2018-12-19T09:43:42Z</time>
      </trkpt>
      <trkpt lat="39.4812226854" lon="-7.7437570319">
        <ele>283.25</ele>
        <time>2018-12-19T09:43:49Z</time>
      </trkpt>
      <trkpt lat="39.4811171573" lon="-7.7438356541">
        <ele>283.25</ele>
        <time>2018-12-19T09:43:58Z</time>
      </trkpt>
      <trkpt lat="39.4810304046" lon="-7.7438795753">
        <ele>283.73</ele>
        <time>2018-12-19T09:44:06Z</time>
      </trkpt>
      <trkpt lat="39.4809724018" lon="-7.7439313754">
        <ele>283.73</ele>
        <time>2018-12-19T09:44:14Z</time>
      </trkpt>
      <trkpt lat="39.4809186738" lon="-7.7440029569">
        <ele>283.25</ele>
        <time>2018-12-19T09:44:20Z</time>
      </trkpt>
      <trkpt lat="39.4808190968" lon="-7.7440780587">
        <ele>282.77</ele>
        <time>2018-12-19T09:44:29Z</time>
      </trkpt>
      <trkpt lat="39.4806975592" lon="-7.7441607881">
        <ele>282.77</ele>
        <time>2018-12-19T09:44:40Z</time>
      </trkpt>
      <trkpt lat="39.4805864990" lon="-7.7442366444">
        <ele>280.84</ele>
        <time>2018-12-19T09:44:49Z</time>
      </trkpt>
      <trkpt lat="39.4804995786" lon="-7.7443365566">
        <ele>281.80</ele>
        <time>2018-12-19T09:44:58Z</time>
      </trkpt>
      <trkpt lat="39.4803640433" lon="-7.7444504667">
        <ele>281.80</ele>
        <time>2018-12-19T09:45:10Z</time>
      </trkpt>
      <trkpt lat="39.4802354649" lon="-7.7445412427">
        <ele>281.32</ele>
        <time>2018-12-19T09:45:20Z</time>
      </trkpt>
      <trkpt lat="39.4801297691" lon="-7.7446050290">
        <ele>280.36</ele>
        <time>2018-12-19T09:45:29Z</time>
      </trkpt>
      <trkpt lat="39.4800239895" lon="-7.7446526382">
        <ele>280.36</ele>
        <time>2018-12-19T09:45:38Z</time>
      </trkpt>
      <trkpt lat="39.4799187966" lon="-7.7447220404">
        <ele>280.36</ele>
        <time>2018-12-19T09:45:48Z</time>
      </trkpt>
      <trkpt lat="39.4797962531" lon="-7.7448071167">
        <ele>279.88</ele>
        <time>2018-12-19T09:45:58Z</time>
      </trkpt>
      <trkpt lat="39.4796598796" lon="-7.7448843140">
        <ele>279.88</ele>
        <time>2018-12-19T09:46:09Z</time>
      </trkpt>
      <trkpt lat="39.4795262720" lon="-7.7449408919">
        <ele>279.88</ele>
        <time>2018-12-19T09:46:20Z</time>
      </trkpt>
      <trkpt lat="39.4793842826" lon="-7.7449790295">
        <ele>279.88</ele>
        <time>2018-12-19T09:46:32Z</time>
      </trkpt>
      <trkpt lat="39.4792635832" lon="-7.7450299915">
        <ele>279.88</ele>
        <time>2018-12-19T09:46:42Z</time>
      </trkpt>
      <trkpt lat="39.4791823626" lon="-7.7450770978">
        <ele>279.88</ele>
        <time>2018-12-19T09:46:51Z</time>
      </trkpt>
      <trkpt lat="39.4791593123" lon="-7.7451092005">
        <ele>279.40</ele>
        <time>2018-12-19T09:46:58Z</time>
      </trkpt>
      <trkpt lat="39.4790141378" lon="-7.7452067658">
        <ele>278.92</ele>
        <time>2018-12-19T09:47:09Z</time>
      </trkpt>
      <trkpt lat="39.4789032452" lon="-7.7453242801">
        <ele>278.44</ele>
        <time>2018-12-19T09:47:20Z</time>
      </trkpt>
      <trkpt lat="39.4788157381" lon="-7.7454061713">
        <ele>278.44</ele>
        <time>2018-12-19T09:47:28Z</time>
      </trkpt>
      <trkpt lat="39.4787047617" lon="-7.7454972826">
        <ele>277.48</ele>
        <time>2018-12-19T09:47:39Z</time>
      </trkpt>
      <trkpt lat="39.4786281511" lon="-7.7455506753">
        <ele>277.96</ele>
        <time>2018-12-19T09:47:47Z</time>
      </trkpt>
      <trkpt lat="39.4785050210" lon="-7.7456322312">
        <ele>277.96</ele>
        <time>2018-12-19T09:47:57Z</time>
      </trkpt>
      <trkpt lat="39.4783780351" lon="-7.7457289584">
        <ele>277.96</ele>
        <time>2018-12-19T09:48:08Z</time>
      </trkpt>
      <trkpt lat="39.4782744348" lon="-7.7458120231">
        <ele>278.44</ele>
        <time>2018-12-19T09:48:18Z</time>
      </trkpt>
      <trkpt lat="39.4781676494" lon="-7.7458627336">
        <ele>277.48</ele>
        <time>2018-12-19T09:48:27Z</time>
      </trkpt>
      <trkpt lat="39.4780663121" lon="-7.7459553536">
        <ele>278.44</ele>
        <time>2018-12-19T09:48:36Z</time>
      </trkpt>
      <trkpt lat="39.4779829122" lon="-7.7460598759">
        <ele>278.92</ele>
        <time>2018-12-19T09:48:45Z</time>
      </trkpt>
      <trkpt lat="39.4778786413" lon="-7.7461695112">
        <ele>279.40</ele>
        <time>2018-12-19T09:48:55Z</time>
      </trkpt>
      <trkpt lat="39.4777748734" lon="-7.7462692559">
        <ele>277.96</ele>
        <time>2018-12-19T09:49:06Z</time>
      </trkpt>
      <trkpt lat="39.4776165392" lon="-7.7464067191">
        <ele>277.00</ele>
        <time>2018-12-19T09:49:19Z</time>
      </trkpt>
      <trkpt lat="39.4774937443" lon="-7.7464958187">
        <ele>277.96</ele>
        <time>2018-12-19T09:49:30Z</time>
      </trkpt>
      <trkpt lat="39.4773518387" lon="-7.7465429250">
        <ele>277.48</ele>
        <time>2018-12-19T09:49:41Z</time>
      </trkpt>
      <trkpt lat="39.4772116933" lon="-7.7465815656">
        <ele>277.48</ele>
        <time>2018-12-19T09:49:52Z</time>
      </trkpt>
      <trkpt lat="39.4770695362" lon="-7.7466349583">
        <ele>277.96</ele>
        <time>2018-12-19T09:50:02Z</time>
      </trkpt>
      <trkpt lat="39.4769551232" lon="-7.7467138320">
        <ele>277.48</ele>
        <time>2018-12-19T09:50:11Z</time>
      </trkpt>
      <trkpt lat="39.4768258743" lon="-7.7467755228">
        <ele>277.00</ele>
        <time>2018-12-19T09:50:21Z</time>
      </trkpt>
      <trkpt lat="39.4766796101" lon="-7.7468425781">
        <ele>276.52</ele>
        <time>2018-12-19T09:50:33Z</time>
      </trkpt>
      <trkpt lat="39.4765445776" lon="-7.7468906064">
        <ele>276.04</ele>
        <time>2018-12-19T09:50:44Z</time>
      </trkpt>
      <trkpt lat="39.4764071144" lon="-7.7469598409">
        <ele>275.07</ele>
        <time>2018-12-19T09:50:54Z</time>
      </trkpt>
      <trkpt lat="39.4763849024" lon="-7.7469742578">
        <ele>275.56</ele>
        <time>2018-12-19T09:50:56Z</time>
      </trkpt>
      <trkpt lat="39.4762629457" lon="-7.7470165864">
        <ele>274.11</ele>
        <time>2018-12-19T09:51:06Z</time>
      </trkpt>
      <trkpt lat="39.4761139993" lon="-7.7470854856">
        <ele>273.15</ele>
        <time>2018-12-19T09:51:18Z</time>
      </trkpt>
      <trkpt lat="39.4759659749" lon="-7.7471473441">
        <ele>272.67</ele>
        <time>2018-12-19T09:51:30Z</time>
      </trkpt>
      <trkpt lat="39.4758409169" lon="-7.7472097892">
        <ele>273.15</ele>
        <time>2018-12-19T09:51:40Z</time>
      </trkpt>
      <trkpt lat="39.4757309463" lon="-7.7472590748">
        <ele>272.19</ele>
        <time>2018-12-19T09:51:49Z</time>
      </trkpt>
      <trkpt lat="39.4756212272" lon="-7.7473246213">
        <ele>272.19</ele>
        <time>2018-12-19T09:51:58Z</time>
      </trkpt>
      <trkpt lat="39.4755565189" lon="-7.7474182472">
        <ele>272.67</ele>
        <time>2018-12-19T09:52:05Z</time>
      </trkpt>
      <trkpt lat="39.4754611328" lon="-7.7475151420">
        <ele>272.67</ele>
        <time>2018-12-19T09:52:14Z</time>
      </trkpt>
      <trkpt lat="39.4753722847" lon="-7.7476173174">
        <ele>272.19</ele>
        <time>2018-12-19T09:52:23Z</time>
      </trkpt>
      <trkpt lat="39.4752748869" lon="-7.7477309760">
        <ele>272.67</ele>
        <time>2018-12-19T09:52:34Z</time>
      </trkpt>
      <trkpt lat="39.4751640782" lon="-7.7478548605">
        <ele>272.67</ele>
        <time>2018-12-19T09:52:45Z</time>
      </trkpt>
      <trkpt lat="39.4750359189" lon="-7.7480111830">
        <ele>271.23</ele>
        <time>2018-12-19T09:52:58Z</time>
      </trkpt>
      <trkpt lat="39.4748997968" lon="-7.7481636498">
        <ele>271.71</ele>
        <time>2018-12-19T09:53:11Z</time>
      </trkpt>
      <trkpt lat="39.4748080987" lon="-7.7482625563">
        <ele>270.75</ele>
        <time>2018-12-19T09:53:20Z</time>
      </trkpt>
      <trkpt lat="39.4747156464" lon="-7.7483416814">
        <ele>270.27</ele>
        <time>2018-12-19T09:53:29Z</time>
      </trkpt>
      <trkpt lat="39.4746291451" lon="-7.7484826650">
        <ele>271.23</ele>
        <time>2018-12-19T09:53:40Z</time>
      </trkpt>
      <trkpt lat="39.4746396225" lon="-7.7484929748">
        <ele>270.27</ele>
        <time>2018-12-19T09:53:46Z</time>
      </trkpt>
      <trkpt lat="39.4746828731" lon="-7.7484862693">
        <ele>270.75</ele>
        <time>2018-12-19T09:53:54Z</time>
      </trkpt>
      <trkpt lat="39.4746914227" lon="-7.7484990098">
        <ele>270.75</ele>
        <time>2018-12-19T09:54:05Z</time>
      </trkpt>
      <trkpt lat="39.4746951107" lon="-7.7485075593">
        <ele>269.79</ele>
        <time>2018-12-19T09:54:15Z</time>
      </trkpt>
      <trkpt lat="39.4746843819" lon="-7.7484980877">
        <ele>271.23</ele>
        <time>2018-12-19T09:54:18Z</time>
      </trkpt>
      <trkpt lat="39.4746725634" lon="-7.7485153545">
        <ele>271.23</ele>
        <time>2018-12-19T09:54:23Z</time>
      </trkpt>
      <trkpt lat="39.4746114593" lon="-7.7485762071">
        <ele>274.11</ele>
        <time>2018-12-19T09:54:30Z</time>
      </trkpt>
      <trkpt lat="39.4745920133" lon="-7.7485994250">
        <ele>270.75</ele>
        <time>2018-12-19T09:54:32Z</time>
      </trkpt>
      <trkpt lat="39.4745810330" lon="-7.7486118302">
        <ele>271.23</ele>
        <time>2018-12-19T09:54:33Z</time>
      </trkpt>
      <trkpt lat="39.4744577352" lon="-7.7486957330">
        <ele>271.71</ele>
        <time>2018-12-19T09:54:44Z</time>
      </trkpt>
      <trkpt lat="39.4743308332" lon="-7.7487725113">
        <ele>272.19</ele>
        <time>2018-12-19T09:54:54Z</time>
      </trkpt>
      <trkpt lat="39.4742320944" lon="-7.7488263231">
        <ele>273.15</ele>
        <time>2018-12-19T09:55:03Z</time>
      </trkpt>
      <trkpt lat="39.4741450064" lon="-7.7488620300">
        <ele>274.11</ele>
        <time>2018-12-19T09:55:11Z</time>
      </trkpt>
      <trkpt lat="39.4740264863" lon="-7.7488658857">
        <ele>275.56</ele>
        <time>2018-12-19T09:55:21Z</time>
      </trkpt>
      <trkpt lat="39.4739181921" lon="-7.7488595992">
        <ele>277.00</ele>
        <time>2018-12-19T09:55:30Z</time>
      </trkpt>
      <trkpt lat="39.4738164358" lon="-7.7488403209">
        <ele>277.48</ele>
        <time>2018-12-19T09:55:38Z</time>
      </trkpt>
      <trkpt lat="39.4737230614" lon="-7.7488772012">
        <ele>277.48</ele>
        <time>2018-12-19T09:55:47Z</time>
      </trkpt>
      <trkpt lat="39.4736315310" lon="-7.7488684841">
        <ele>277.48</ele>
        <time>2018-12-19T09:55:56Z</time>
      </trkpt>
      <trkpt lat="39.4736217242" lon="-7.7489018440">
        <ele>278.44</ele>
        <time>2018-12-19T09:56:06Z</time>
      </trkpt>
      <trkpt lat="39.4735674933" lon="-7.7488955576">
        <ele>277.96</ele>
        <time>2018-12-19T09:56:11Z</time>
      </trkpt>
      <trkpt lat="39.4734556787" lon="-7.7488639578">
        <ele>277.48</ele>
        <time>2018-12-19T09:56:20Z</time>
      </trkpt>
      <trkpt lat="39.4734277669" lon="-7.7488617785">
        <ele>277.96</ele>
        <time>2018-12-19T09:56:22Z</time>
      </trkpt>
      <trkpt lat="39.4732649904" lon="-7.7487878501">
        <ele>278.92</ele>
        <time>2018-12-19T09:56:35Z</time>
      </trkpt>
      <trkpt lat="39.4731629826" lon="-7.7487365529">
        <ele>278.44</ele>
        <time>2018-12-19T09:56:44Z</time>
      </trkpt>
      <trkpt lat="39.4730941672" lon="-7.7487299312">
        <ele>277.96</ele>
        <time>2018-12-19T09:56:51Z</time>
      </trkpt>
      <trkpt lat="39.4730503298" lon="-7.7487090603">
        <ele>277.96</ele>
        <time>2018-12-19T09:56:58Z</time>
      </trkpt>
      <trkpt lat="39.4730083365" lon="-7.7487037797">
        <ele>277.48</ele>
        <time>2018-12-19T09:57:07Z</time>
      </trkpt>
      <trkpt lat="39.4728971925" lon="-7.7487085573">
        <ele>277.48</ele>
        <time>2018-12-19T09:57:16Z</time>
      </trkpt>
      <trkpt lat="39.4727789238" lon="-7.7487140056">
        <ele>277.48</ele>
        <time>2018-12-19T09:57:26Z</time>
      </trkpt>
      <trkpt lat="39.4726743177" lon="-7.7487743553">
        <ele>277.96</ele>
        <time>2018-12-19T09:57:35Z</time>
      </trkpt>
      <trkpt lat="39.4725870620" lon="-7.7488996647">
        <ele>278.92</ele>
        <time>2018-12-19T09:57:45Z</time>
      </trkpt>
      <trkpt lat="39.4725452363" lon="-7.7489538118">
        <ele>278.44</ele>
        <time>2018-12-19T09:57:50Z</time>
      </trkpt>
      <trkpt lat="39.4725052547" lon="-7.7490191069">
        <ele>279.40</ele>
        <time>2018-12-19T09:57:55Z</time>
      </trkpt>
      <trkpt lat="39.4724748284" lon="-7.7490636148">
        <ele>279.40</ele>
        <time>2018-12-19T09:57:59Z</time>
      </trkpt>
      <trkpt lat="39.4723647740" lon="-7.7491688076">
        <ele>278.92</ele>
        <time>2018-12-19T09:58:09Z</time>
      </trkpt>
      <trkpt lat="39.4722669572" lon="-7.7492912672">
        <ele>280.36</ele>
        <time>2018-12-19T09:58:19Z</time>
      </trkpt>
      <trkpt lat="39.4721795339" lon="-7.7494242042">
        <ele>280.36</ele>
        <time>2018-12-19T09:58:30Z</time>
      </trkpt>
      <trkpt lat="39.4721734989" lon="-7.7494376153">
        <ele>280.36</ele>
        <time>2018-12-19T09:58:31Z</time>
      </trkpt>
      <trkpt lat="39.4720952958" lon="-7.7495563868">
        <ele>280.84</ele>
        <time>2018-12-19T09:58:40Z</time>
      </trkpt>
      <trkpt lat="39.4719756022" lon="-7.7496958617">
        <ele>283.25</ele>
        <time>2018-12-19T09:58:52Z</time>
      </trkpt>
      <trkpt lat="39.4719172642" lon="-7.7498024795">
        <ele>282.77</ele>
        <time>2018-12-19T09:59:00Z</time>
      </trkpt>
      <trkpt lat="39.4718167651" lon="-7.7498376835">
        <ele>282.28</ele>
        <time>2018-12-19T09:59:08Z</time>
      </trkpt>
      <trkpt lat="39.4717655517" lon="-7.7498603147">
        <ele>282.77</ele>
        <time>2018-12-19T09:59:12Z</time>
      </trkpt>
      <trkpt lat="39.4716891088" lon="-7.7499639150">
        <ele>283.73</ele>
        <time>2018-12-19T09:59:20Z</time>
      </trkpt>
      <trkpt lat="39.4716100674" lon="-7.7501081675">
        <ele>283.73</ele>
        <time>2018-12-19T09:59:30Z</time>
      </trkpt>
      <trkpt lat="39.4715071376" lon="-7.7502948325">
        <ele>284.69</ele>
        <time>2018-12-19T09:59:43Z</time>
      </trkpt>
      <trkpt lat="39.4713948201" lon="-7.7504671644">
        <ele>284.21</ele>
        <time>2018-12-19T09:59:56Z</time>
      </trkpt>
      <trkpt lat="39.4713011943" lon="-7.7506197989">
        <ele>286.13</ele>
        <time>2018-12-19T10:00:07Z</time>
      </trkpt>
      <trkpt lat="39.4712280203" lon="-7.7507617883">
        <ele>285.65</ele>
        <time>2018-12-19T10:00:17Z</time>
      </trkpt>
      <trkpt lat="39.4712257572" lon="-7.7507738583">
        <ele>285.65</ele>
        <time>2018-12-19T10:00:18Z</time>
      </trkpt>
      <trkpt lat="39.4711357355" lon="-7.7509207930">
        <ele>286.13</ele>
        <time>2018-12-19T10:00:29Z</time>
      </trkpt>
      <trkpt lat="39.4710485637" lon="-7.7510309312">
        <ele>286.61</ele>
        <time>2018-12-19T10:00:38Z</time>
      </trkpt>
      <trkpt lat="39.4709768984" lon="-7.7511585038">
        <ele>286.61</ele>
        <time>2018-12-19T10:00:47Z</time>
      </trkpt>
      <trkpt lat="39.4708835240" lon="-7.7512838971">
        <ele>286.61</ele>
        <time>2018-12-19T10:00:57Z</time>
      </trkpt>
      <trkpt lat="39.4707920775" lon="-7.7514175046">
        <ele>287.09</ele>
        <time>2018-12-19T10:01:08Z</time>
      </trkpt>
      <trkpt lat="39.4706791732" lon="-7.7515418082">
        <ele>286.61</ele>
        <time>2018-12-19T10:01:19Z</time>
      </trkpt>
      <trkpt lat="39.4705800153" lon="-7.7516987175">
        <ele>286.61</ele>
        <time>2018-12-19T10:01:30Z</time>
      </trkpt>
      <trkpt lat="39.4704782590" lon="-7.7518154774">
        <ele>287.09</ele>
        <time>2018-12-19T10:01:41Z</time>
      </trkpt>
      <trkpt lat="39.4703832082" lon="-7.7519101929">
        <ele>286.61</ele>
        <time>2018-12-19T10:01:51Z</time>
      </trkpt>
      <trkpt lat="39.4702874031" lon="-7.7520459797">
        <ele>286.61</ele>
        <time>2018-12-19T10:02:02Z</time>
      </trkpt>
      <trkpt lat="39.4702268019" lon="-7.7521262784">
        <ele>287.57</ele>
        <time>2018-12-19T10:02:09Z</time>
      </trkpt>
      <trkpt lat="39.4701862335" lon="-7.7521534357">
        <ele>287.09</ele>
        <time>2018-12-19T10:02:12Z</time>
      </trkpt>
      <trkpt lat="39.4700729102" lon="-7.7522899769">
        <ele>288.05</ele>
        <time>2018-12-19T10:02:23Z</time>
      </trkpt>
      <trkpt lat="39.4699729979" lon="-7.7524191421">
        <ele>288.05</ele>
        <time>2018-12-19T10:02:34Z</time>
      </trkpt>
      <trkpt lat="39.4698999077" lon="-7.7525341418">
        <ele>289.01</ele>
        <time>2018-12-19T10:02:43Z</time>
      </trkpt>
      <trkpt lat="39.4698039349" lon="-7.7527020313">
        <ele>289.97</ele>
        <time>2018-12-19T10:02:55Z</time>
      </trkpt>
      <trkpt lat="39.4697089680" lon="-7.7528189588">
        <ele>290.46</ele>
        <time>2018-12-19T10:03:05Z</time>
      </trkpt>
      <trkpt lat="39.4696207065" lon="-7.7529487107">
        <ele>291.90</ele>
        <time>2018-12-19T10:03:15Z</time>
      </trkpt>
      <trkpt lat="39.4695363007" lon="-7.7530870959">
        <ele>291.90</ele>
        <time>2018-12-19T10:03:25Z</time>
      </trkpt>
      <trkpt lat="39.4694336224" lon="-7.7531676460">
        <ele>292.86</ele>
        <time>2018-12-19T10:03:35Z</time>
      </trkpt>
      <trkpt lat="39.4693405833" lon="-7.7533191070">
        <ele>293.82</ele>
        <time>2018-12-19T10:03:46Z</time>
      </trkpt>
      <trkpt lat="39.4692615420" lon="-7.7534581628">
        <ele>293.82</ele>
        <time>2018-12-19T10:03:56Z</time>
      </trkpt>
      <trkpt lat="39.4691586960" lon="-7.7535981406">
        <ele>294.30</ele>
        <time>2018-12-19T10:04:07Z</time>
      </trkpt>
      <trkpt lat="39.4690984301" lon="-7.7536703087">
        <ele>295.26</ele>
        <time>2018-12-19T10:04:14Z</time>
      </trkpt>
      <trkpt lat="39.4690043014" lon="-7.7538195066">
        <ele>294.78</ele>
        <time>2018-12-19T10:04:24Z</time>
      </trkpt>
      <trkpt lat="39.4689427782" lon="-7.7539091930">
        <ele>294.78</ele>
        <time>2018-12-19T10:04:32Z</time>
      </trkpt>
      <trkpt lat="39.4688748848" lon="-7.7540157270">
        <ele>294.78</ele>
        <time>2018-12-19T10:04:41Z</time>
      </trkpt>
      <trkpt lat="39.4688425306" lon="-7.7540935948">
        <ele>294.78</ele>
        <time>2018-12-19T10:04:47Z</time>
      </trkpt>
      <trkpt lat="39.4687258545" lon="-7.7542545274">
        <ele>293.34</ele>
        <time>2018-12-19T10:04:59Z</time>
      </trkpt>
      <trkpt lat="39.4686317258" lon="-7.7544039767">
        <ele>293.82</ele>
        <time>2018-12-19T10:05:10Z</time>
      </trkpt>
      <trkpt lat="39.4685359206" lon="-7.7545480616">
        <ele>293.34</ele>
        <time>2018-12-19T10:05:21Z</time>
      </trkpt>
      <trkpt lat="39.4684645068" lon="-7.7546849381">
        <ele>293.34</ele>
        <time>2018-12-19T10:05:31Z</time>
      </trkpt>
      <trkpt lat="39.4684128743" lon="-7.7548586112">
        <ele>292.86</ele>
        <time>2018-12-19T10:05:41Z</time>
      </trkpt>
      <trkpt lat="39.4683479145" lon="-7.7550661471">
        <ele>292.38</ele>
        <time>2018-12-19T10:05:54Z</time>
      </trkpt>
      <trkpt lat="39.4682865590" lon="-7.7552782930">
        <ele>291.42</ele>
        <time>2018-12-19T10:06:06Z</time>
      </trkpt>
      <trkpt lat="39.4682425540" lon="-7.7554423269">
        <ele>291.42</ele>
        <time>2018-12-19T10:06:15Z</time>
      </trkpt>
      <trkpt lat="39.4681786001" lon="-7.7556550596">
        <ele>290.94</ele>
        <time>2018-12-19T10:06:27Z</time>
      </trkpt>
      <trkpt lat="39.4681152329" lon="-7.7558702230">
        <ele>289.49</ele>
        <time>2018-12-19T10:06:40Z</time>
      </trkpt>
      <trkpt lat="39.4680578168" lon="-7.7560829557">
        <ele>288.05</ele>
        <time>2018-12-19T10:06:53Z</time>
      </trkpt>
      <trkpt lat="39.4680195116" lon="-7.7562443074">
        <ele>289.01</ele>
        <time>2018-12-19T10:07:03Z</time>
      </trkpt>
      <trkpt lat="39.4679427333" lon="-7.7564988658">
        <ele>288.05</ele>
        <time>2018-12-19T10:07:18Z</time>
      </trkpt>
      <trkpt lat="39.4678969681" lon="-7.7566548530">
        <ele>287.57</ele>
        <time>2018-12-19T10:07:28Z</time>
      </trkpt>
      <trkpt lat="39.4678347744" lon="-7.7567411028">
        <ele>287.09</ele>
        <time>2018-12-19T10:07:36Z</time>
      </trkpt>
      <trkpt lat="39.4677830581" lon="-7.7569117583">
        <ele>288.53</ele>
        <time>2018-12-19T10:07:47Z</time>
      </trkpt>
      <trkpt lat="39.4677529670" lon="-7.7570840064">
        <ele>288.05</ele>
        <time>2018-12-19T10:07:57Z</time>
      </trkpt>
      <trkpt lat="39.4677745085" lon="-7.7571755368">
        <ele>289.01</ele>
        <time>2018-12-19T10:08:03Z</time>
      </trkpt>
      <trkpt lat="39.4678020012" lon="-7.7573325299">
        <ele>288.53</ele>
        <time>2018-12-19T10:08:13Z</time>
      </trkpt>
      <trkpt lat="39.4677968044" lon="-7.7574247308">
        <ele>288.05</ele>
        <time>2018-12-19T10:08:19Z</time>
      </trkpt>
      <trkpt lat="39.4678138196" lon="-7.7574465238">
        <ele>288.53</ele>
        <time>2018-12-19T10:08:21Z</time>
      </trkpt>
      <trkpt lat="39.4679248799" lon="-7.7573726792">
        <ele>287.57</ele>
        <time>2018-12-19T10:08:31Z</time>
      </trkpt>
      <trkpt lat="39.4680642709" lon="-7.7573104855">
        <ele>288.05</ele>
        <time>2018-12-19T10:08:42Z</time>
      </trkpt>
      <trkpt lat="39.4680786040" lon="-7.7572879381">
        <ele>288.53</ele>
        <time>2018-12-19T10:08:48Z</time>
      </trkpt>
      <trkpt lat="39.4680896681" lon="-7.7572882734">
        <ele>288.53</ele>
        <time>2018-12-19T10:08:50Z</time>
      </trkpt>
      <trkpt lat="39.4682263769" lon="-7.7573155984">
        <ele>288.53</ele>
        <time>2018-12-19T10:09:01Z</time>
      </trkpt>
      <trkpt lat="39.4683360122" lon="-7.7573825698">
        <ele>288.53</ele>
        <time>2018-12-19T10:09:11Z</time>
      </trkpt>
      <trkpt lat="39.4684391096" lon="-7.7574337833">
        <ele>289.01</ele>
        <time>2018-12-19T10:09:20Z</time>
      </trkpt>
      <trkpt lat="39.4685649220" lon="-7.7575204521">
        <ele>286.61</ele>
        <time>2018-12-19T10:09:32Z</time>
      </trkpt>
      <trkpt lat="39.4686688576" lon="-7.7575934585">
        <ele>287.09</ele>
        <time>2018-12-19T10:09:42Z</time>
      </trkpt>
      <trkpt lat="39.4687960111" lon="-7.7576639503">
        <ele>286.13</ele>
        <time>2018-12-19T10:09:53Z</time>
      </trkpt>
      <trkpt lat="39.4689185545" lon="-7.7577371243">
        <ele>285.65</ele>
        <time>2018-12-19T10:10:04Z</time>
      </trkpt>
      <trkpt lat="39.4690458756" lon="-7.7578022517">
        <ele>285.17</ele>
        <time>2018-12-19T10:10:14Z</time>
      </trkpt>
      <trkpt lat="39.4691632222" lon="-7.7578728274">
        <ele>284.69</ele>
        <time>2018-12-19T10:10:24Z</time>
      </trkpt>
      <trkpt lat="39.4692626316" lon="-7.7579215262">
        <ele>285.17</ele>
        <time>2018-12-19T10:10:32Z</time>
      </trkpt>
      <trkpt lat="39.4693684112" lon="-7.7579817083">
        <ele>285.65</ele>
        <time>2018-12-19T10:10:41Z</time>
      </trkpt>
      <trkpt lat="39.4695115741" lon="-7.7580436505">
        <ele>285.65</ele>
        <time>2018-12-19T10:10:53Z</time>
      </trkpt>
      <trkpt lat="39.4696335308" lon="-7.7580930199">
        <ele>285.17</ele>
        <time>2018-12-19T10:11:03Z</time>
      </trkpt>
      <trkpt lat="39.4697317667" lon="-7.7581295650">
        <ele>285.65</ele>
        <time>2018-12-19T10:11:12Z</time>
      </trkpt>
      <trkpt lat="39.4698238000" lon="-7.7581822872">
        <ele>284.69</ele>
        <time>2018-12-19T10:11:20Z</time>
      </trkpt>
      <trkpt lat="39.4699385483" lon="-7.7582495939">
        <ele>284.21</ele>
        <time>2018-12-19T10:11:29Z</time>
      </trkpt>
      <trkpt lat="39.4699470140" lon="-7.7582606580">
        <ele>283.25</ele>
        <time>2018-12-19T10:11:30Z</time>
      </trkpt>
      <trkpt lat="39.4700564817" lon="-7.7582949400">
        <ele>284.21</ele>
        <time>2018-12-19T10:11:40Z</time>
      </trkpt>
      <trkpt lat="39.4701662008" lon="-7.7583448961">
        <ele>284.69</ele>
        <time>2018-12-19T10:11:49Z</time>
      </trkpt>
      <trkpt lat="39.4702006504" lon="-7.7583581395">
        <ele>284.69</ele>
        <time>2018-12-19T10:11:52Z</time>
      </trkpt>
      <trkpt lat="39.4703252893" lon="-7.7584305592">
        <ele>285.65</ele>
        <time>2018-12-19T10:12:03Z</time>
      </trkpt>
      <trkpt lat="39.4704220165" lon="-7.7584874723">
        <ele>284.69</ele>
        <time>2018-12-19T10:12:11Z</time>
      </trkpt>
      <trkpt lat="39.4704932626" lon="-7.7585442178">
        <ele>283.73</ele>
        <time>2018-12-19T10:12:17Z</time>
      </trkpt>
      <trkpt lat="39.4705762435" lon="-7.7586093452">
        <ele>284.21</ele>
        <time>2018-12-19T10:12:25Z</time>
      </trkpt>
      <trkpt lat="39.4707075879" lon="-7.7587154601">
        <ele>286.13</ele>
        <time>2018-12-19T10:12:37Z</time>
      </trkpt>
      <trkpt lat="39.4708089251" lon="-7.7587728761">
        <ele>286.61</ele>
        <time>2018-12-19T10:12:46Z</time>
      </trkpt>
      <trkpt lat="39.4709268585" lon="-7.7588544320">
        <ele>287.57</ele>
        <time>2018-12-19T10:12:56Z</time>
      </trkpt>
      <trkpt lat="39.4709900580" lon="-7.7589558531">
        <ele>287.57</ele>
        <time>2018-12-19T10:13:05Z</time>
      </trkpt>
      <trkpt lat="39.4709872082" lon="-7.7591597848">
        <ele>287.09</ele>
        <time>2018-12-19T10:13:17Z</time>
      </trkpt>
      <trkpt lat="39.4709493220" lon="-7.7593189571">
        <ele>286.61</ele>
        <time>2018-12-19T10:13:27Z</time>
      </trkpt>
      <trkpt lat="39.4708955940" lon="-7.7595060412">
        <ele>286.61</ele>
        <time>2018-12-19T10:13:38Z</time>
      </trkpt>
      <trkpt lat="39.4708536007" lon="-7.7596568316">
        <ele>285.65</ele>
        <time>2018-12-19T10:13:48Z</time>
      </trkpt>
      <trkpt lat="39.4707953464" lon="-7.7598341089">
        <ele>285.65</ele>
        <time>2018-12-19T10:14:00Z</time>
      </trkpt>
      <trkpt lat="39.4707289618" lon="-7.7600046806">
        <ele>285.65</ele>
        <time>2018-12-19T10:14:11Z</time>
      </trkpt>
      <trkpt lat="39.4707045704" lon="-7.7600688022">
        <ele>284.69</ele>
        <time>2018-12-19T10:14:15Z</time>
      </trkpt>
      <trkpt lat="39.4706279598" lon="-7.7602314949">
        <ele>283.25</ele>
        <time>2018-12-19T10:14:26Z</time>
      </trkpt>
      <trkpt lat="39.4705877267" lon="-7.7603835426">
        <ele>282.77</ele>
        <time>2018-12-19T10:14:36Z</time>
      </trkpt>
      <trkpt lat="39.4705509301" lon="-7.7605173178">
        <ele>282.28</ele>
        <time>2018-12-19T10:14:44Z</time>
      </trkpt>
      <trkpt lat="39.4705030695" lon="-7.7606498357">
        <ele>281.80</ele>
        <time>2018-12-19T10:14:53Z</time>
      </trkpt>
      <trkpt lat="39.4704309013" lon="-7.7608561981">
        <ele>281.32</ele>
        <time>2018-12-19T10:15:06Z</time>
      </trkpt>
      <trkpt lat="39.4703868963" lon="-7.7610227466">
        <ele>281.80</ele>
        <time>2018-12-19T10:15:16Z</time>
      </trkpt>
      <trkpt lat="39.4703650195" lon="-7.7611360699">
        <ele>281.80</ele>
        <time>2018-12-19T10:15:25Z</time>
      </trkpt>
      <trkpt lat="39.4703698810" lon="-7.7611115109">
        <ele>280.84</ele>
        <time>2018-12-19T10:15:27Z</time>
      </trkpt>
      <trkpt lat="39.4703630079" lon="-7.7611036319">
        <ele>280.84</ele>
        <time>2018-12-19T10:15:42Z</time>
      </trkpt>
      <trkpt lat="39.4703230262" lon="-7.7612296958">
        <ele>279.88</ele>
        <time>2018-12-19T10:15:50Z</time>
      </trkpt>
      <trkpt lat="39.4702950306" lon="-7.7614131756">
        <ele>281.32</ele>
        <time>2018-12-19T10:16:01Z</time>
      </trkpt>
      <trkpt lat="39.4702861458" lon="-7.7615575958">
        <ele>281.80</ele>
        <time>2018-12-19T10:16:10Z</time>
      </trkpt>
      <trkpt lat="39.4702852238" lon="-7.7617799677">
        <ele>279.88</ele>
        <time>2018-12-19T10:16:23Z</time>
      </trkpt>
      <trkpt lat="39.4702926837" lon="-7.7618866693">
        <ele>279.40</ele>
        <time>2018-12-19T10:16:29Z</time>
      </trkpt>
      <trkpt lat="39.4702870678" lon="-7.7619480249">
        <ele>278.92</ele>
        <time>2018-12-19T10:16:33Z</time>
      </trkpt>
      <trkpt lat="39.4702832121" lon="-7.7621102147">
        <ele>277.96</ele>
        <time>2018-12-19T10:16:42Z</time>
      </trkpt>
      <trkpt lat="39.4702999759" lon="-7.7622354403">
        <ele>277.48</ele>
        <time>2018-12-19T10:16:51Z</time>
      </trkpt>
      <trkpt lat="39.4702413864" lon="-7.7623465843">
        <ele>277.48</ele>
        <time>2018-12-19T10:16:59Z</time>
      </trkpt>
      <trkpt lat="39.4702286460" lon="-7.7623913437">
        <ele>278.44</ele>
        <time>2018-12-19T10:17:02Z</time>
      </trkpt>
      <trkpt lat="39.4701801147" lon="-7.7625233587">
        <ele>277.96</ele>
        <time>2018-12-19T10:17:12Z</time>
      </trkpt>
      <trkpt lat="39.4701190945" lon="-7.7626554575">
        <ele>278.44</ele>
        <time>2018-12-19T10:17:21Z</time>
      </trkpt>
      <trkpt lat="39.4700630195" lon="-7.7627877239">
        <ele>279.40</ele>
        <time>2018-12-19T10:17:30Z</time>
      </trkpt>
      <trkpt lat="39.4700315036" lon="-7.7629445493">
        <ele>279.40</ele>
        <time>2018-12-19T10:17:40Z</time>
      </trkpt>
      <trkpt lat="39.4699938688" lon="-7.7630743850">
        <ele>279.88</ele>
        <time>2018-12-19T10:17:49Z</time>
      </trkpt>
      <trkpt lat="39.4699793682" lon="-7.7632349823">
        <ele>280.84</ele>
        <time>2018-12-19T10:17:59Z</time>
      </trkpt>
      <trkpt lat="39.4699457567" lon="-7.7634038776">
        <ele>280.84</ele>
        <time>2018-12-19T10:18:09Z</time>
      </trkpt>
      <trkpt lat="39.4698926155" lon="-7.7635426819">
        <ele>281.80</ele>
        <time>2018-12-19T10:18:18Z</time>
      </trkpt>
      <trkpt lat="39.4698501192" lon="-7.7636833303">
        <ele>282.28</ele>
        <time>2018-12-19T10:18:27Z</time>
      </trkpt>
      <trkpt lat="39.4698312599" lon="-7.7637509722">
        <ele>282.77</ele>
        <time>2018-12-19T10:18:35Z</time>
      </trkpt>
      <trkpt lat="39.4698328525" lon="-7.7637568396">
        <ele>282.77</ele>
        <time>2018-12-19T10:18:41Z</time>
      </trkpt>
      <trkpt lat="39.4697921164" lon="-7.7639046963">
        <ele>283.25</ele>
        <time>2018-12-19T10:18:51Z</time>
      </trkpt>
      <trkpt lat="39.4697392266" lon="-7.7640273236">
        <ele>283.73</ele>
        <time>2018-12-19T10:19:00Z</time>
      </trkpt>
      <trkpt lat="39.4697362930" lon="-7.7640474401">
        <ele>283.73</ele>
        <time>2018-12-19T10:19:05Z</time>
      </trkpt>
      <trkpt lat="39.4696839061" lon="-7.7642307524">
        <ele>284.69</ele>
        <time>2018-12-19T10:19:18Z</time>
      </trkpt>
      <trkpt lat="39.4696419127" lon="-7.7643097099">
        <ele>285.17</ele>
        <time>2018-12-19T10:19:25Z</time>
      </trkpt>
      <trkpt lat="39.4695873465" lon="-7.7644516993">
        <ele>285.65</ele>
        <time>2018-12-19T10:19:35Z</time>
      </trkpt>
      <trkpt lat="39.4695524778" lon="-7.7645454090">
        <ele>285.17</ele>
        <time>2018-12-19T10:19:43Z</time>
      </trkpt>
      <trkpt lat="39.4694943912" lon="-7.7646686230">
        <ele>286.61</ele>
        <time>2018-12-19T10:19:52Z</time>
      </trkpt>
      <trkpt lat="39.4694556668" lon="-7.7648189105">
        <ele>286.61</ele>
        <time>2018-12-19T10:20:02Z</time>
      </trkpt>
      <trkpt lat="39.4693958201" lon="-7.7649628278">
        <ele>286.61</ele>
        <time>2018-12-19T10:20:12Z</time>
      </trkpt>
      <trkpt lat="39.4693432655" lon="-7.7651490737">
        <ele>288.05</ele>
        <time>2018-12-19T10:20:24Z</time>
      </trkpt>
      <trkpt lat="39.4693210535" lon="-7.7653447073">
        <ele>287.09</ele>
        <time>2018-12-19T10:20:36Z</time>
      </trkpt>
      <trkpt lat="39.4692999311" lon="-7.7655056398">
        <ele>288.53</ele>
        <time>2018-12-19T10:20:46Z</time>
      </trkpt>
      <trkpt lat="39.4693014398" lon="-7.7656510659">
        <ele>287.57</ele>
        <time>2018-12-19T10:20:55Z</time>
      </trkpt>
      <trkpt lat="39.4692824129" lon="-7.7657943126">
        <ele>287.57</ele>
        <time>2018-12-19T10:21:04Z</time>
      </trkpt>
      <trkpt lat="39.4692622125" lon="-7.7659486234">
        <ele>287.57</ele>
        <time>2018-12-19T10:21:14Z</time>
      </trkpt>
      <trkpt lat="39.4692532439" lon="-7.7660241444">
        <ele>289.01</ele>
        <time>2018-12-19T10:21:19Z</time>
      </trkpt>
      <trkpt lat="39.4692196324" lon="-7.7661932912">
        <ele>289.49</ele>
        <time>2018-12-19T10:21:30Z</time>
      </trkpt>
      <trkpt lat="39.4692093227" lon="-7.7663577441">
        <ele>289.01</ele>
        <time>2018-12-19T10:21:40Z</time>
      </trkpt>
      <trkpt lat="39.4692062214" lon="-7.7663687244">
        <ele>289.49</ele>
        <time>2018-12-19T10:21:41Z</time>
      </trkpt>
      <trkpt lat="39.4691548403" lon="-7.7665456664">
        <ele>289.97</ele>
        <time>2018-12-19T10:21:53Z</time>
      </trkpt>
      <trkpt lat="39.4691332988" lon="-7.7667153999">
        <ele>289.97</ele>
        <time>2018-12-19T10:22:03Z</time>
      </trkpt>
      <trkpt lat="39.4690979272" lon="-7.7668640949">
        <ele>289.97</ele>
        <time>2018-12-19T10:22:12Z</time>
      </trkpt>
      <trkpt lat="39.4690580294" lon="-7.7670401987">
        <ele>292.38</ele>
        <time>2018-12-19T10:22:23Z</time>
      </trkpt>
      <trkpt lat="39.4690208975" lon="-7.7672079206">
        <ele>291.42</ele>
        <time>2018-12-19T10:22:33Z</time>
      </trkpt>
      <trkpt lat="39.4689721987" lon="-7.7673447132">
        <ele>291.90</ele>
        <time>2018-12-19T10:22:42Z</time>
      </trkpt>
      <trkpt lat="39.4689089153" lon="-7.7674516663">
        <ele>292.86</ele>
        <time>2018-12-19T10:22:50Z</time>
      </trkpt>
      <trkpt lat="39.4688786566" lon="-7.7675192244">
        <ele>292.86</ele>
        <time>2018-12-19T10:22:56Z</time>
      </trkpt>
      <trkpt lat="39.4688742980" lon="-7.7676507365">
        <ele>292.38</ele>
        <time>2018-12-19T10:23:05Z</time>
      </trkpt>
      <trkpt lat="39.4688698556" lon="-7.7678343002">
        <ele>293.34</ele>
        <time>2018-12-19T10:23:16Z</time>
      </trkpt>
      <trkpt lat="39.4688467216" lon="-7.7680078894">
        <ele>293.34</ele>
        <time>2018-12-19T10:23:27Z</time>
      </trkpt>
      <trkpt lat="39.4688135292" lon="-7.7681628708">
        <ele>293.82</ele>
        <time>2018-12-19T10:23:37Z</time>
      </trkpt>
      <trkpt lat="39.4687602203" lon="-7.7682990767">
        <ele>292.86</ele>
        <time>2018-12-19T10:23:47Z</time>
      </trkpt>
      <trkpt lat="39.4687580410" lon="-7.7683118172">
        <ele>292.86</ele>
        <time>2018-12-19T10:23:48Z</time>
      </trkpt>
      <trkpt lat="39.4687135331" lon="-7.7684612665">
        <ele>294.78</ele>
        <time>2018-12-19T10:23:58Z</time>
      </trkpt>
      <trkpt lat="39.4686627388" lon="-7.7686603367">
        <ele>294.78</ele>
        <time>2018-12-19T10:24:11Z</time>
      </trkpt>
      <trkpt lat="39.4686445501" lon="-7.7687482629">
        <ele>294.78</ele>
        <time>2018-12-19T10:24:19Z</time>
      </trkpt>
      <trkpt lat="39.4686224218" lon="-7.7688295674">
        <ele>293.82</ele>
        <time>2018-12-19T10:24:27Z</time>
      </trkpt>
      <trkpt lat="39.4686028920" lon="-7.7689001430">
        <ele>293.82</ele>
        <time>2018-12-19T10:24:36Z</time>
      </trkpt>
      <trkpt lat="39.4685873017" lon="-7.7689633425">
        <ele>293.82</ele>
        <time>2018-12-19T10:24:43Z</time>
      </trkpt>
      <trkpt lat="39.4685755670" lon="-7.7690557949">
        <ele>293.82</ele>
        <time>2018-12-19T10:24:50Z</time>
      </trkpt>
      <trkpt lat="39.4685674366" lon="-7.7691669390">
        <ele>293.82</ele>
        <time>2018-12-19T10:24:58Z</time>
      </trkpt>
      <trkpt lat="39.4685593899" lon="-7.7692997921">
        <ele>293.82</ele>
        <time>2018-12-19T10:25:07Z</time>
      </trkpt>
      <trkpt lat="39.4685289636" lon="-7.7693204954">
        <ele>293.34</ele>
        <time>2018-12-19T10:25:13Z</time>
      </trkpt>
      <trkpt lat="39.4684545323" lon="-7.7693549450">
        <ele>292.86</ele>
        <time>2018-12-19T10:25:20Z</time>
      </trkpt>
      <trkpt lat="39.4684470724" lon="-7.7694097627">
        <ele>293.82</ele>
        <time>2018-12-19T10:25:24Z</time>
      </trkpt>
      <trkpt lat="39.4684593100" lon="-7.7694343217">
        <ele>293.82</ele>
        <time>2018-12-19T10:25:26Z</time>
      </trkpt>
      <trkpt lat="39.4684597291" lon="-7.7695608046">
        <ele>294.30</ele>
        <time>2018-12-19T10:25:35Z</time>
      </trkpt>
      <trkpt lat="39.4684324879" lon="-7.7696752176">
        <ele>294.30</ele>
        <time>2018-12-19T10:25:42Z</time>
      </trkpt>
      <trkpt lat="39.4684172329" lon="-7.7697242517">
        <ele>294.30</ele>
        <time>2018-12-19T10:25:46Z</time>
      </trkpt>
      <trkpt lat="39.4683586434" lon="-7.7698298637">
        <ele>294.78</ele>
        <time>2018-12-19T10:25:54Z</time>
      </trkpt>
      <trkpt lat="39.4683321565" lon="-7.7698977571">
        <ele>295.26</ele>
        <time>2018-12-19T10:25:59Z</time>
      </trkpt>
      <trkpt lat="39.4683177397" lon="-7.7699395828">
        <ele>296.70</ele>
        <time>2018-12-19T10:26:02Z</time>
      </trkpt>
      <trkpt lat="39.4682925940" lon="-7.7701031137">
        <ele>296.22</ele>
        <time>2018-12-19T10:26:13Z</time>
      </trkpt>
      <trkpt lat="39.4682707172" lon="-7.7702328656">
        <ele>296.70</ele>
        <time>2018-12-19T10:26:22Z</time>
      </trkpt>
      <trkpt lat="39.4682323281" lon="-7.7704346180">
        <ele>296.70</ele>
        <time>2018-12-19T10:26:34Z</time>
      </trkpt>
      <trkpt lat="39.4682135526" lon="-7.7705258969">
        <ele>298.15</ele>
        <time>2018-12-19T10:26:40Z</time>
      </trkpt>
      <trkpt lat="39.4682050031" lon="-7.7706842311">
        <ele>298.15</ele>
        <time>2018-12-19T10:26:50Z</time>
      </trkpt>
      <trkpt lat="39.4681880716" lon="-7.7707999013">
        <ele>298.63</ele>
        <time>2018-12-19T10:26:58Z</time>
      </trkpt>
      <trkpt lat="39.4682018179" lon="-7.7708755061">
        <ele>298.63</ele>
        <time>2018-12-19T10:27:04Z</time>
      </trkpt>
      <trkpt lat="39.4681920949" lon="-7.7709798608">
        <ele>299.11</ele>
        <time>2018-12-19T10:27:13Z</time>
      </trkpt>
      <trkpt lat="39.4682264607" lon="-7.7710260451">
        <ele>299.11</ele>
        <time>2018-12-19T10:27:21Z</time>
      </trkpt>
      <trkpt lat="39.4682360999" lon="-7.7710087784">
        <ele>299.59</ele>
        <time>2018-12-19T10:27:28Z</time>
      </trkpt>
      <trkpt lat="39.4682611618" lon="-7.7709961217">
        <ele>299.11</ele>
        <time>2018-12-19T10:27:49Z</time>
      </trkpt>
      <trkpt lat="39.4682154804" lon="-7.7710487600">
        <ele>300.55</ele>
        <time>2018-12-19T10:28:01Z</time>
      </trkpt>
      <trkpt lat="39.4681591541" lon="-7.7710870653">
        <ele>299.59</ele>
        <time>2018-12-19T10:28:08Z</time>
      </trkpt>
      <trkpt lat="39.4680617563" lon="-7.7710907534">
        <ele>299.59</ele>
        <time>2018-12-19T10:28:17Z</time>
      </trkpt>
      <trkpt lat="39.4680572301" lon="-7.7710842993">
        <ele>300.07</ele>
        <time>2018-12-19T10:28:18Z</time>
      </trkpt>
      <trkpt lat="39.4680128898" lon="-7.7710241172">
        <ele>299.11</ele>
        <time>2018-12-19T10:28:27Z</time>
      </trkpt>
      <trkpt lat="39.4680263009" lon="-7.7710644342">
        <ele>299.59</ele>
        <time>2018-12-19T10:28:36Z</time>
      </trkpt>
      <trkpt lat="39.4680328388" lon="-7.7710849699">
        <ele>299.59</ele>
        <time>2018-12-19T10:28:46Z</time>
      </trkpt>
      <trkpt lat="39.4680522010" lon="-7.7711243648">
        <ele>299.59</ele>
        <time>2018-12-19T10:28:57Z</time>
      </trkpt>
      <trkpt lat="39.4680896681" lon="-7.7711167373">
        <ele>299.59</ele>
        <time>2018-12-19T10:29:05Z</time>
      </trkpt>
      <trkpt lat="39.4681242853" lon="-7.7711223532">
        <ele>299.59</ele>
        <time>2018-12-19T10:29:12Z</time>
      </trkpt>
      <trkpt lat="39.4681165740" lon="-7.7711483371">
        <ele>299.59</ele>
        <time>2018-12-19T10:29:19Z</time>
      </trkpt>
      <trkpt lat="39.4680964574" lon="-7.7711163182">
        <ele>299.59</ele>
        <time>2018-12-19T10:29:26Z</time>
      </trkpt>
      <trkpt lat="39.4681002293" lon="-7.7710962854">
        <ele>299.59</ele>
        <time>2018-12-19T10:29:33Z</time>
      </trkpt>
      <trkpt lat="39.4680874050" lon="-7.7710862271">
        <ele>300.55</ele>
        <time>2018-12-19T10:29:40Z</time>
      </trkpt>
      <trkpt lat="39.4680278096" lon="-7.7710915916">
        <ele>299.11</ele>
        <time>2018-12-19T10:29:47Z</time>
      </trkpt>
      <trkpt lat="39.4679740816" lon="-7.7711193357">
        <ele>300.07</ele>
        <time>2018-12-19T10:29:55Z</time>
      </trkpt>
      <trkpt lat="39.4679492712" lon="-7.7711399551">
        <ele>300.07</ele>
        <time>2018-12-19T10:30:04Z</time>
      </trkpt>
      <trkpt lat="39.4678914361" lon="-7.7711475827">
        <ele>299.11</ele>
        <time>2018-12-19T10:30:09Z</time>
      </trkpt>
      <trkpt lat="39.4677786157" lon="-7.7711733151">
        <ele>299.59</ele>
        <time>2018-12-19T10:30:19Z</time>
      </trkpt>
      <trkpt lat="39.4676665496" lon="-7.7711839601">
        <ele>299.11</ele>
        <time>2018-12-19T10:30:29Z</time>
      </trkpt>
      <trkpt lat="39.4675552379" lon="-7.7712032385">
        <ele>299.59</ele>
        <time>2018-12-19T10:30:39Z</time>
      </trkpt>
      <trkpt lat="39.4674620312" lon="-7.7712208405">
        <ele>299.11</ele>
        <time>2018-12-19T10:30:48Z</time>
      </trkpt>
      <trkpt lat="39.4673689920" lon="-7.7712107822">
        <ele>299.11</ele>
        <time>2018-12-19T10:30:57Z</time>
      </trkpt>
      <trkpt lat="39.4673432596" lon="-7.7711951081">
        <ele>299.11</ele>
        <time>2018-12-19T10:31:04Z</time>
      </trkpt>
      <trkpt lat="39.4673076365" lon="-7.7711679507">
        <ele>299.11</ele>
        <time>2018-12-19T10:31:14Z</time>
      </trkpt>
      <trkpt lat="39.4673046190" lon="-7.7711548749">
        <ele>298.63</ele>
        <time>2018-12-19T10:31:21Z</time>
      </trkpt>
      <trkpt lat="39.4673593529" lon="-7.7710889094">
        <ele>300.07</ele>
        <time>2018-12-19T10:31:30Z</time>
      </trkpt>
      <trkpt lat="39.4674045313" lon="-7.7710674517">
        <ele>299.11</ele>
        <time>2018-12-19T10:31:38Z</time>
      </trkpt>
      <trkpt lat="39.4674155954" lon="-7.7710794378">
        <ele>299.59</ele>
        <time>2018-12-19T10:31:49Z</time>
      </trkpt>
      <trkpt lat="39.4674107339" lon="-7.7710699663">
        <ele>299.11</ele>
        <time>2018-12-19T10:32:00Z</time>
      </trkpt>
      <trkpt lat="39.4674037769" lon="-7.7710800245">
        <ele>299.59</ele>
        <time>2018-12-19T10:32:07Z</time>
      </trkpt>
      <trkpt lat="39.4674067106" lon="-7.7710701339">
        <ele>299.11</ele>
        <time>2018-12-19T10:32:18Z</time>
      </trkpt>
      <trkpt lat="39.4673955627" lon="-7.7710723132">
        <ele>300.07</ele>
        <time>2018-12-19T10:32:25Z</time>
      </trkpt>
      <trkpt lat="39.4673807267" lon="-7.7710956987">
        <ele>299.11</ele>
        <time>2018-12-19T10:32:38Z</time>
      </trkpt>
      <trkpt lat="39.4673430920" lon="-7.7711205930">
        <ele>299.59</ele>
        <time>2018-12-19T10:32:46Z</time>
      </trkpt>
      <trkpt lat="39.4672839995" lon="-7.7711582277">
        <ele>299.11</ele>
        <time>2018-12-19T10:32:55Z</time>
      </trkpt>
      <trkpt lat="39.4672237337" lon="-7.7712128777">
        <ele>299.11</ele>
        <time>2018-12-19T10:33:03Z</time>
      </trkpt>
      <trkpt lat="39.4672016893" lon="-7.7712342516">
        <ele>298.63</ele>
        <time>2018-12-19T10:33:06Z</time>
      </trkpt>
      <trkpt lat="39.4670771342" lon="-7.7713003848">
        <ele>298.63</ele>
        <time>2018-12-19T10:33:18Z</time>
      </trkpt>
      <trkpt lat="39.4670210592" lon="-7.7713261172">
        <ele>298.63</ele>
        <time>2018-12-19T10:33:27Z</time>
      </trkpt>
      <trkpt lat="39.4670311175" lon="-7.7713213395">
        <ele>298.63</ele>
        <time>2018-12-19T10:33:35Z</time>
      </trkpt>
      <trkpt lat="39.4669836760" lon="-7.7713157237">
        <ele>298.15</ele>
        <time>2018-12-19T10:33:47Z</time>
      </trkpt>
      <trkpt lat="39.4669317920" lon="-7.7713375166">
        <ele>298.15</ele>
        <time>2018-12-19T10:33:54Z</time>
      </trkpt>
      <trkpt lat="39.4668576121" lon="-7.7713775821">
        <ele>297.67</ele>
        <time>2018-12-19T10:34:02Z</time>
      </trkpt>
      <trkpt lat="39.4667944126" lon="-7.7714231797">
        <ele>297.67</ele>
        <time>2018-12-19T10:34:09Z</time>
      </trkpt>
      <trkpt lat="39.4667007867" lon="-7.7714851219">
        <ele>296.70</ele>
        <time>2018-12-19T10:34:18Z</time>
      </trkpt>
      <trkpt lat="39.4665861223" lon="-7.7714961860">
        <ele>296.70</ele>
        <time>2018-12-19T10:34:28Z</time>
      </trkpt>
      <trkpt lat="39.4664991181" lon="-7.7715188172">
        <ele>296.70</ele>
        <time>2018-12-19T10:34:36Z</time>
      </trkpt>
      <trkpt lat="39.4663391076" lon="-7.7715794183">
        <ele>296.22</ele>
        <time>2018-12-19T10:34:47Z</time>
      </trkpt>
      <trkpt lat="39.4662389439" lon="-7.7715914045">
        <ele>295.26</ele>
        <time>2018-12-19T10:34:56Z</time>
      </trkpt>
      <trkpt lat="39.4661517721" lon="-7.7715988643">
        <ele>295.26</ele>
        <time>2018-12-19T10:35:04Z</time>
      </trkpt>
      <trkpt lat="39.4660125487" lon="-7.7716510836">
        <ele>294.78</ele>
        <time>2018-12-19T10:35:15Z</time>
      </trkpt>
      <trkpt lat="39.4659860618" lon="-7.7716575377">
        <ele>295.26</ele>
        <time>2018-12-19T10:35:17Z</time>
      </trkpt>
      <trkpt lat="39.4659068529" lon="-7.7716792468">
        <ele>294.78</ele>
        <time>2018-12-19T10:35:25Z</time>
      </trkpt>
      <trkpt lat="39.4658772647" lon="-7.7716867905">
        <ele>294.30</ele>
        <time>2018-12-19T10:35:28Z</time>
      </trkpt>
      <trkpt lat="39.4657572359" lon="-7.7717250958">
        <ele>293.82</ele>
        <time>2018-12-19T10:35:38Z</time>
      </trkpt>
      <trkpt lat="39.4657305814" lon="-7.7717234194">
        <ele>293.82</ele>
        <time>2018-12-19T10:35:46Z</time>
      </trkpt>
      <trkpt lat="39.4656984787" lon="-7.7717429493">
        <ele>293.34</ele>
        <time>2018-12-19T10:35:53Z</time>
      </trkpt>
      <trkpt lat="39.4656187668" lon="-7.7717622276">
        <ele>293.34</ele>
        <time>2018-12-19T10:36:01Z</time>
      </trkpt>
      <trkpt lat="39.4655155018" lon="-7.7717760578">
        <ele>292.86</ele>
        <time>2018-12-19T10:36:10Z</time>
      </trkpt>
      <trkpt lat="39.4653963950" lon="-7.7717810031">
        <ele>292.38</ele>
        <time>2018-12-19T10:36:20Z</time>
      </trkpt>
      <trkpt lat="39.4652345404" lon="-7.7718205657">
        <ele>292.38</ele>
        <time>2018-12-19T10:36:31Z</time>
      </trkpt>
      <trkpt lat="39.4651393220" lon="-7.7718662471">
        <ele>292.38</ele>
        <time>2018-12-19T10:36:39Z</time>
      </trkpt>
      <trkpt lat="39.4650394097" lon="-7.7718909737">
        <ele>292.38</ele>
        <time>2018-12-19T10:36:47Z</time>
      </trkpt>
      <trkpt lat="39.4649099093" lon="-7.7718772274">
        <ele>291.90</ele>
        <time>2018-12-19T10:36:57Z</time>
      </trkpt>
      <trkpt lat="39.4647920597" lon="-7.7719176281">
        <ele>291.42</ele>
        <time>2018-12-19T10:37:06Z</time>
      </trkpt>
      <trkpt lat="39.4646877050" lon="-7.7719503175">
        <ele>290.94</ele>
        <time>2018-12-19T10:37:14Z</time>
      </trkpt>
      <trkpt lat="39.4645684306" lon="-7.7720039617">
        <ele>291.90</ele>
        <time>2018-12-19T10:37:24Z</time>
      </trkpt>
      <trkpt lat="39.4644572027" lon="-7.7720321249">
        <ele>291.90</ele>
        <time>2018-12-19T10:37:34Z</time>
      </trkpt>
      <trkpt lat="39.4643613137" lon="-7.7720532473">
        <ele>291.42</ele>
        <time>2018-12-19T10:37:41Z</time>
      </trkpt>
      <trkpt lat="39.4643126149" lon="-7.7720506489">
        <ele>290.94</ele>
        <time>2018-12-19T10:37:45Z</time>
      </trkpt>
      <trkpt lat="39.4641500060" lon="-7.7720983420">
        <ele>291.42</ele>
        <time>2018-12-19T10:37:58Z</time>
      </trkpt>
      <trkpt lat="39.4640464056" lon="-7.7721439395">
        <ele>291.42</ele>
        <time>2018-12-19T10:38:07Z</time>
      </trkpt>
      <trkpt lat="39.4640029874" lon="-7.7721486334">
        <ele>290.94</ele>
        <time>2018-12-19T10:38:11Z</time>
      </trkpt>
      <trkpt lat="39.4638747443" lon="-7.7721760422">
        <ele>291.90</ele>
        <time>2018-12-19T10:38:21Z</time>
      </trkpt>
      <trkpt lat="39.4637601636" lon="-7.7722350508">
        <ele>290.94</ele>
        <time>2018-12-19T10:38:31Z</time>
      </trkpt>
      <trkpt lat="39.4636439066" lon="-7.7722964063">
        <ele>290.94</ele>
        <time>2018-12-19T10:38:40Z</time>
      </trkpt>
      <trkpt lat="39.4635530468" lon="-7.7723849192">
        <ele>290.46</ele>
        <time>2018-12-19T10:38:49Z</time>
      </trkpt>
      <trkpt lat="39.4634809624" lon="-7.7724151779">
        <ele>291.42</ele>
        <time>2018-12-19T10:38:58Z</time>
      </trkpt>
      <trkpt lat="39.4634184334" lon="-7.7724889386">
        <ele>290.46</ele>
        <time>2018-12-19T10:39:08Z</time>
      </trkpt>
      <trkpt lat="39.4633332733" lon="-7.7725865040">
        <ele>290.46</ele>
        <time>2018-12-19T10:39:17Z</time>
      </trkpt>
      <trkpt lat="39.4632616080" lon="-7.7726762742">
        <ele>290.46</ele>
        <time>2018-12-19T10:39:25Z</time>
      </trkpt>
      <trkpt lat="39.4631684013" lon="-7.7727802098">
        <ele>290.46</ele>
        <time>2018-12-19T10:39:35Z</time>
      </trkpt>
      <trkpt lat="39.4630948920" lon="-7.7728677168">
        <ele>290.46</ele>
        <time>2018-12-19T10:39:44Z</time>
      </trkpt>
      <trkpt lat="39.4630848337" lon="-7.7728735004">
        <ele>290.94</ele>
        <time>2018-12-19T10:39:45Z</time>
      </trkpt>
      <trkpt lat="39.4630582631" lon="-7.7729071118">
        <ele>289.97</ele>
        <time>2018-12-19T10:39:48Z</time>
      </trkpt>
      <trkpt lat="39.4629855081" lon="-7.7730420604">
        <ele>290.46</ele>
        <time>2018-12-19T10:39:58Z</time>
      </trkpt>
      <trkpt lat="39.4628810696" lon="-7.7731861454">
        <ele>289.97</ele>
        <time>2018-12-19T10:40:09Z</time>
      </trkpt>
      <trkpt lat="39.4628080633" lon="-7.7733137179">
        <ele>289.49</ele>
        <time>2018-12-19T10:40:18Z</time>
      </trkpt>
      <trkpt lat="39.4627288543" lon="-7.7734396979">
        <ele>289.97</ele>
        <time>2018-12-19T10:40:28Z</time>
      </trkpt>
      <trkpt lat="39.4627002720" lon="-7.7735039033">
        <ele>289.97</ele>
        <time>2018-12-19T10:40:33Z</time>
      </trkpt>
      <trkpt lat="39.4626303669" lon="-7.7736356668">
        <ele>290.46</ele>
        <time>2018-12-19T10:40:43Z</time>
      </trkpt>
      <trkpt lat="39.4626058917" lon="-7.7737228386">
        <ele>290.46</ele>
        <time>2018-12-19T10:40:53Z</time>
      </trkpt>
      <trkpt lat="39.4626131002" lon="-7.7736696135">
        <ele>291.42</ele>
        <time>2018-12-19T10:41:01Z</time>
      </trkpt>
      <trkpt lat="39.4625982642" lon="-7.7736689430">
        <ele>290.46</ele>
        <time>2018-12-19T10:41:08Z</time>
      </trkpt>
      <trkpt lat="39.4626149442" lon="-7.7736606449">
        <ele>290.94</ele>
        <time>2018-12-19T10:41:14Z</time>
      </trkpt>
      <trkpt lat="39.4626014493" lon="-7.7737708669">
        <ele>290.46</ele>
        <time>2018-12-19T10:41:22Z</time>
      </trkpt>
      <trkpt lat="39.4625333045" lon="-7.7739343978">
        <ele>290.94</ele>
        <time>2018-12-19T10:41:33Z</time>
      </trkpt>
      <trkpt lat="39.4624439534" lon="-7.7740592044">
        <ele>290.94</ele>
        <time>2018-12-19T10:41:43Z</time>
      </trkpt>
      <trkpt lat="39.4623649959" lon="-7.7741871960">
        <ele>291.42</ele>
        <time>2018-12-19T10:41:53Z</time>
      </trkpt>
      <trkpt lat="39.4623098429" lon="-7.7742954064">
        <ele>291.42</ele>
        <time>2018-12-19T10:42:01Z</time>
      </trkpt>
      <trkpt lat="39.4622145407" lon="-7.7744368091">
        <ele>291.42</ele>
        <time>2018-12-19T10:42:12Z</time>
      </trkpt>
      <trkpt lat="39.4621538557" lon="-7.7745230589">
        <ele>292.86</ele>
        <time>2018-12-19T10:42:18Z</time>
      </trkpt>
      <trkpt lat="39.4620463997" lon="-7.7746442612">
        <ele>291.90</ele>
        <time>2018-12-19T10:42:29Z</time>
      </trkpt>
      <trkpt lat="39.4619522709" lon="-7.7747830655">
        <ele>292.38</ele>
        <time>2018-12-19T10:42:39Z</time>
      </trkpt>
      <trkpt lat="39.4618794322" lon="-7.7748972271">
        <ele>292.38</ele>
        <time>2018-12-19T10:42:48Z</time>
      </trkpt>
      <trkpt lat="39.4618032407" lon="-7.7750076167">
        <ele>293.82</ele>
        <time>2018-12-19T10:42:58Z</time>
      </trkpt>
      <trkpt lat="39.4617420528" lon="-7.7751220297">
        <ele>293.82</ele>
        <time>2018-12-19T10:43:07Z</time>
      </trkpt>
      <trkpt lat="39.4616709743" lon="-7.7752594929">
        <ele>293.82</ele>
        <time>2018-12-19T10:43:17Z</time>
      </trkpt>
      <trkpt lat="39.4615724031" lon="-7.7753953636">
        <ele>293.82</ele>
        <time>2018-12-19T10:43:28Z</time>
      </trkpt>
      <trkpt lat="39.4615106285" lon="-7.7754955273">
        <ele>293.82</ele>
        <time>2018-12-19T10:43:36Z</time>
      </trkpt>
      <trkpt lat="39.4614252169" lon="-7.7755972836">
        <ele>294.30</ele>
        <time>2018-12-19T10:43:45Z</time>
      </trkpt>
      <trkpt lat="39.4613313396" lon="-7.7757039014">
        <ele>293.82</ele>
        <time>2018-12-19T10:43:55Z</time>
      </trkpt>
      <trkpt lat="39.4612187706" lon="-7.7758156322">
        <ele>294.30</ele>
        <time>2018-12-19T10:44:06Z</time>
      </trkpt>
      <trkpt lat="39.4611253962" lon="-7.7759463061">
        <ele>293.82</ele>
        <time>2018-12-19T10:44:16Z</time>
      </trkpt>
      <trkpt lat="39.4610760268" lon="-7.7760682628">
        <ele>294.30</ele>
        <time>2018-12-19T10:44:25Z</time>
      </trkpt>
      <trkpt lat="39.4609978236" lon="-7.7762152813">
        <ele>293.34</ele>
        <time>2018-12-19T10:44:35Z</time>
      </trkpt>
      <trkpt lat="39.4609021861" lon="-7.7763887867">
        <ele>292.38</ele>
        <time>2018-12-19T10:44:47Z</time>
      </trkpt>
      <trkpt lat="39.4608254079" lon="-7.7765365597">
        <ele>291.42</ele>
        <time>2018-12-19T10:44:58Z</time>
      </trkpt>
      <trkpt lat="39.4607747812" lon="-7.7766377293">
        <ele>291.90</ele>
        <time>2018-12-19T10:45:06Z</time>
      </trkpt>
      <trkpt lat="39.4606577698" lon="-7.7767494600">
        <ele>292.86</ele>
        <time>2018-12-19T10:45:18Z</time>
      </trkpt>
      <trkpt lat="39.4605692569" lon="-7.7768923715">
        <ele>292.38</ele>
        <time>2018-12-19T10:45:30Z</time>
      </trkpt>
      <trkpt lat="39.4604934007" lon="-7.7770064492">
        <ele>292.38</ele>
        <time>2018-12-19T10:45:40Z</time>
      </trkpt>
      <trkpt lat="39.4604275189" lon="-7.7771079540">
        <ele>292.38</ele>
        <time>2018-12-19T10:45:48Z</time>
      </trkpt>
      <trkpt lat="39.4603597093" lon="-7.7771759313">
        <ele>292.86</ele>
        <time>2018-12-19T10:45:55Z</time>
      </trkpt>
      <trkpt lat="39.4603189733" lon="-7.7772496920">
        <ele>293.34</ele>
        <time>2018-12-19T10:46:01Z</time>
      </trkpt>
      <trkpt lat="39.4602567796" lon="-7.7773905918">
        <ele>293.34</ele>
        <time>2018-12-19T10:46:11Z</time>
      </trkpt>
      <trkpt lat="39.4602039736" lon="-7.7774890792">
        <ele>294.30</ele>
        <time>2018-12-19T10:46:19Z</time>
      </trkpt>
      <trkpt lat="39.4601510838" lon="-7.7775754966">
        <ele>294.78</ele>
        <time>2018-12-19T10:46:27Z</time>
      </trkpt>
      <trkpt lat="39.4601312187" lon="-7.7776024863">
        <ele>294.30</ele>
        <time>2018-12-19T10:46:29Z</time>
      </trkpt>
      <trkpt lat="39.4600259420" lon="-7.7777361777">
        <ele>295.74</ele>
        <time>2018-12-19T10:46:40Z</time>
      </trkpt>
      <trkpt lat="39.4599288795" lon="-7.7778420411">
        <ele>294.78</ele>
        <time>2018-12-19T10:46:50Z</time>
      </trkpt>
      <trkpt lat="39.4599021412" lon="-7.7778892312">
        <ele>295.26</ele>
        <time>2018-12-19T10:46:54Z</time>
      </trkpt>
      <trkpt lat="39.4598184898" lon="-7.7780263592">
        <ele>295.26</ele>
        <time>2018-12-19T10:47:05Z</time>
      </trkpt>
      <trkpt lat="39.4597578887" lon="-7.7781346533">
        <ele>295.74</ele>
        <time>2018-12-19T10:47:14Z</time>
      </trkpt>
      <trkpt lat="39.4597542845" lon="-7.7781525906">
        <ele>295.74</ele>
        <time>2018-12-19T10:47:15Z</time>
      </trkpt>
      <trkpt lat="39.4597112853" lon="-7.7781803347">
        <ele>295.26</ele>
        <time>2018-12-19T10:47:19Z</time>
      </trkpt>
      <trkpt lat="39.4596085232" lon="-7.7781121898">
        <ele>295.74</ele>
        <time>2018-12-19T10:47:28Z</time>
      </trkpt>
      <trkpt lat="39.4595352653" lon="-7.7780152112">
        <ele>295.74</ele>
        <time>2018-12-19T10:47:37Z</time>
      </trkpt>
      <trkpt lat="39.4594866503" lon="-7.7780138701">
        <ele>294.78</ele>
        <time>2018-12-19T10:47:41Z</time>
      </trkpt>
      <trkpt lat="39.4593576528" lon="-7.7779902332">
        <ele>294.78</ele>
        <time>2018-12-19T10:47:50Z</time>
      </trkpt>
      <trkpt lat="39.4592831377" lon="-7.7779828571">
        <ele>295.26</ele>
        <time>2018-12-19T10:47:56Z</time>
      </trkpt>
      <trkpt lat="39.4591740053" lon="-7.7780661732">
        <ele>294.78</ele>
        <time>2018-12-19T10:48:06Z</time>
      </trkpt>
      <trkpt lat="39.4591581635" lon="-7.7780883014">
        <ele>294.30</ele>
        <time>2018-12-19T10:48:08Z</time>
      </trkpt>
      <trkpt lat="39.4591249712" lon="-7.7781055681">
        <ele>294.78</ele>
        <time>2018-12-19T10:48:11Z</time>
      </trkpt>
      <trkpt lat="39.4590912759" lon="-7.7781675942">
        <ele>294.78</ele>
        <time>2018-12-19T10:48:16Z</time>
      </trkpt>
      <trkpt lat="39.4590348657" lon="-7.7783261798">
        <ele>294.78</ele>
        <time>2018-12-19T10:48:27Z</time>
      </trkpt>
      <trkpt lat="39.4589686487" lon="-7.7784748748">
        <ele>294.30</ele>
        <time>2018-12-19T10:48:37Z</time>
      </trkpt>
      <trkpt lat="39.4589105621" lon="-7.7786016092">
        <ele>295.26</ele>
        <time>2018-12-19T10:48:46Z</time>
      </trkpt>
      <trkpt lat="39.4588248152" lon="-7.7787547465">
        <ele>294.78</ele>
        <time>2018-12-19T10:48:58Z</time>
      </trkpt>
      <trkpt lat="39.4587262440" lon="-7.7788487915">
        <ele>294.78</ele>
        <time>2018-12-19T10:49:08Z</time>
      </trkpt>
      <trkpt lat="39.4586429279" lon="-7.7789310180">
        <ele>294.30</ele>
        <time>2018-12-19T10:49:17Z</time>
      </trkpt>
      <trkpt lat="39.4586059637" lon="-7.7789743524">
        <ele>294.78</ele>
        <time>2018-12-19T10:49:22Z</time>
      </trkpt>
      <trkpt lat="39.4585285150" lon="-7.7790380549">
        <ele>293.82</ele>
        <time>2018-12-19T10:49:30Z</time>
      </trkpt>
      <trkpt lat="39.4584436901" lon="-7.7791422419">
        <ele>294.78</ele>
        <time>2018-12-19T10:49:40Z</time>
      </trkpt>
      <trkpt lat="39.4583521597" lon="-7.7792318445">
        <ele>294.78</ele>
        <time>2018-12-19T10:49:49Z</time>
      </trkpt>
      <trkpt lat="39.4583132677" lon="-7.7792600077">
        <ele>294.78</ele>
        <time>2018-12-19T10:49:53Z</time>
      </trkpt>
      <trkpt lat="39.4582144450" lon="-7.7793744206">
        <ele>294.78</ele>
        <time>2018-12-19T10:50:04Z</time>
      </trkpt>
      <trkpt lat="39.4581176341" lon="-7.7794488519">
        <ele>295.74</ele>
        <time>2018-12-19T10:50:14Z</time>
      </trkpt>
      <trkpt lat="39.4580166321" lon="-7.7795291506">
        <ele>295.26</ele>
        <time>2018-12-19T10:50:23Z</time>
      </trkpt>
      <trkpt lat="39.4579063263" lon="-7.7796722297">
        <ele>295.74</ele>
        <time>2018-12-19T10:50:35Z</time>
      </trkpt>
      <trkpt lat="39.4578400254" lon="-7.7797532827">
        <ele>295.74</ele>
        <time>2018-12-19T10:50:43Z</time>
      </trkpt>
      <trkpt lat="39.4577793404" lon="-7.7798899915">
        <ele>295.74</ele>
        <time>2018-12-19T10:50:53Z</time>
      </trkpt>
      <trkpt lat="39.4577567931" lon="-7.7799262013">
        <ele>295.26</ele>
        <time>2018-12-19T10:50:59Z</time>
      </trkpt>
      <trkpt lat="39.4576796796" lon="-7.7800629940">
        <ele>294.78</ele>
        <time>2018-12-19T10:51:09Z</time>
      </trkpt>
      <trkpt lat="39.4575743191" lon="-7.7802274469">
        <ele>294.78</ele>
        <time>2018-12-19T10:51:22Z</time>
      </trkpt>
      <trkpt lat="39.4575034920" lon="-7.7803616412">
        <ele>294.78</ele>
        <time>2018-12-19T10:51:32Z</time>
      </trkpt>
      <trkpt lat="39.4574286416" lon="-7.7804882079">
        <ele>294.30</ele>
        <time>2018-12-19T10:51:43Z</time>
      </trkpt>
      <trkpt lat="39.4574129675" lon="-7.7805133536">
        <ele>293.82</ele>
        <time>2018-12-19T10:51:45Z</time>
      </trkpt>
      <trkpt lat="39.4573455770" lon="-7.7807009406">
        <ele>294.30</ele>
        <time>2018-12-19T10:51:58Z</time>
      </trkpt>
      <trkpt lat="39.4572729897" lon="-7.7808701713">
        <ele>293.34</ele>
        <time>2018-12-19T10:52:09Z</time>
      </trkpt>
      <trkpt lat="39.4572216924" lon="-7.7809984144">
        <ele>293.82</ele>
        <time>2018-12-19T10:52:18Z</time>
      </trkpt>
      <trkpt lat="39.4571545534" lon="-7.7811062895">
        <ele>293.82</ele>
        <time>2018-12-19T10:52:27Z</time>
      </trkpt>
      <trkpt lat="39.4570667110" lon="-7.7812389750">
        <ele>292.38</ele>
        <time>2018-12-19T10:52:38Z</time>
      </trkpt>
      <trkpt lat="39.4569861609" lon="-7.7813508734">
        <ele>292.38</ele>
        <time>2018-12-19T10:52:48Z</time>
      </trkpt>
      <trkpt lat="39.4569724146" lon="-7.7813680563">
        <ele>292.86</ele>
        <time>2018-12-19T10:52:50Z</time>
      </trkpt>
      <trkpt lat="39.4569022581" lon="-7.7815001551">
        <ele>293.34</ele>
        <time>2018-12-19T10:53:01Z</time>
      </trkpt>
      <trkpt lat="39.4568125717" lon="-7.7816349361">
        <ele>292.38</ele>
        <time>2018-12-19T10:53:13Z</time>
      </trkpt>
      <trkpt lat="39.4567895215" lon="-7.7816772647">
        <ele>292.38</ele>
        <time>2018-12-19T10:53:16Z</time>
      </trkpt>
      <trkpt lat="39.4567101449" lon="-7.7817681246">
        <ele>292.38</ele>
        <time>2018-12-19T10:53:26Z</time>
      </trkpt>
      <trkpt lat="39.4566308521" lon="-7.7818875667">
        <ele>292.38</ele>
        <time>2018-12-19T10:53:36Z</time>
      </trkpt>
      <trkpt lat="39.4565761182" lon="-7.7819961123">
        <ele>292.38</ele>
        <time>2018-12-19T10:53:45Z</time>
      </trkpt>
      <trkpt lat="39.4565445185" lon="-7.7820357587">
        <ele>292.86</ele>
        <time>2018-12-19T10:53:49Z</time>
      </trkpt>
      <trkpt lat="39.4564575143" lon="-7.7822013851">
        <ele>293.34</ele>
        <time>2018-12-19T10:54:02Z</time>
      </trkpt>
      <trkpt lat="39.4563710131" lon="-7.7823387645">
        <ele>292.86</ele>
        <time>2018-12-19T10:54:13Z</time>
      </trkpt>
      <trkpt lat="39.4562983420" lon="-7.7824602183">
        <ele>292.86</ele>
        <time>2018-12-19T10:54:23Z</time>
      </trkpt>
      <trkpt lat="39.4562253356" lon="-7.7825709432">
        <ele>292.86</ele>
        <time>2018-12-19T10:54:32Z</time>
      </trkpt>
      <trkpt lat="39.4561679196" lon="-7.7826656587">
        <ele>292.86</ele>
        <time>2018-12-19T10:54:41Z</time>
      </trkpt>
      <trkpt lat="39.4561001100" lon="-7.7827690914">
        <ele>292.38</ele>
        <time>2018-12-19T10:54:50Z</time>
      </trkpt>
      <trkpt lat="39.4560174644" lon="-7.7829128411">
        <ele>292.38</ele>
        <time>2018-12-19T10:55:01Z</time>
      </trkpt>
      <trkpt lat="39.4559457991" lon="-7.7830202132">
        <ele>292.38</ele>
        <time>2018-12-19T10:55:10Z</time>
      </trkpt>
      <trkpt lat="39.4558722898" lon="-7.7831276692">
        <ele>292.38</ele>
        <time>2018-12-19T10:55:19Z</time>
      </trkpt>
      <trkpt lat="39.4558117725" lon="-7.7832828183">
        <ele>292.38</ele>
        <time>2018-12-19T10:55:29Z</time>
      </trkpt>
      <trkpt lat="39.4557526801" lon="-7.7833752707">
        <ele>291.90</ele>
        <time>2018-12-19T10:55:37Z</time>
      </trkpt>
      <trkpt lat="39.4556992035" lon="-7.7833973151">
        <ele>292.38</ele>
        <time>2018-12-19T10:55:42Z</time>
      </trkpt>
      <trkpt lat="39.4556810986" lon="-7.7834557369">
        <ele>291.90</ele>
        <time>2018-12-19T10:55:46Z</time>
      </trkpt>
      <trkpt lat="39.4556712918" lon="-7.7835419029">
        <ele>292.38</ele>
        <time>2018-12-19T10:55:52Z</time>
      </trkpt>
      <trkpt lat="39.4557142071" lon="-7.7836781088">
        <ele>292.86</ele>
        <time>2018-12-19T10:56:02Z</time>
      </trkpt>
      <trkpt lat="39.4557769876" lon="-7.7838167455">
        <ele>293.34</ele>
        <time>2018-12-19T10:56:13Z</time>
      </trkpt>
      <trkpt lat="39.4557564519" lon="-7.7838785201">
        <ele>292.86</ele>
        <time>2018-12-19T10:56:17Z</time>
      </trkpt>
      <trkpt lat="39.4556845352" lon="-7.7840320766">
        <ele>292.86</ele>
        <time>2018-12-19T10:56:29Z</time>
      </trkpt>
      <trkpt lat="39.4556019735" lon="-7.7841504291">
        <ele>292.86</ele>
        <time>2018-12-19T10:56:39Z</time>
      </trkpt>
      <trkpt lat="39.4555155560" lon="-7.7842636686">
        <ele>293.82</ele>
        <time>2018-12-19T10:56:49Z</time>
      </trkpt>
      <trkpt lat="39.4554243609" lon="-7.7843664307">
        <ele>293.82</ele>
        <time>2018-12-19T10:56:59Z</time>
      </trkpt>
      <trkpt lat="39.4553431403" lon="-7.7844681032">
        <ele>293.82</ele>
        <time>2018-12-19T10:57:08Z</time>
      </trkpt>
      <trkpt lat="39.4552530348" lon="-7.7845556103">
        <ele>293.34</ele>
        <time>2018-12-19T10:57:17Z</time>
      </trkpt>
      <trkpt lat="39.4551397115" lon="-7.7846616413">
        <ele>293.82</ele>
        <time>2018-12-19T10:57:28Z</time>
      </trkpt>
      <trkpt lat="39.4550126418" lon="-7.7847545967">
        <ele>293.34</ele>
        <time>2018-12-19T10:57:39Z</time>
      </trkpt>
      <trkpt lat="39.4549176749" lon="-7.7848602086">
        <ele>293.82</ele>
        <time>2018-12-19T10:57:49Z</time>
      </trkpt>
      <trkpt lat="39.4548162539" lon="-7.7849774715">
        <ele>293.34</ele>
        <time>2018-12-19T10:58:00Z</time>
      </trkpt>
      <trkpt lat="39.4547105581" lon="-7.7850835864">
        <ele>293.34</ele>
        <time>2018-12-19T10:58:11Z</time>
      </trkpt>
      <trkpt lat="39.4545880985" lon="-7.7851966582">
        <ele>293.34</ele>
        <time>2018-12-19T10:58:23Z</time>
      </trkpt>
      <trkpt lat="39.4544696622" lon="-7.7853262424">
        <ele>293.34</ele>
        <time>2018-12-19T10:58:34Z</time>
      </trkpt>
      <trkpt lat="39.4543896150" lon="-7.7854152583">
        <ele>292.38</ele>
        <time>2018-12-19T10:58:43Z</time>
      </trkpt>
      <trkpt lat="39.4542887807" lon="-7.7855264023">
        <ele>292.38</ele>
        <time>2018-12-19T10:58:53Z</time>
      </trkpt>
      <trkpt lat="39.4541976694" lon="-7.7856342774">
        <ele>292.38</ele>
        <time>2018-12-19T10:59:02Z</time>
      </trkpt>
      <trkpt lat="39.4541246630" lon="-7.7857202757">
        <ele>293.34</ele>
        <time>2018-12-19T10:59:11Z</time>
      </trkpt>
      <trkpt lat="39.4540446158" lon="-7.7858008258">
        <ele>292.38</ele>
        <time>2018-12-19T10:59:19Z</time>
      </trkpt>
      <trkpt lat="39.4540341385" lon="-7.7858102974">
        <ele>292.38</ele>
        <time>2018-12-19T10:59:20Z</time>
      </trkpt>
      <trkpt lat="39.4539736211" lon="-7.7858458366">
        <ele>292.38</ele>
        <time>2018-12-19T10:59:25Z</time>
      </trkpt>
      <trkpt lat="39.4539025426" lon="-7.7859872393">
        <ele>291.90</ele>
        <time>2018-12-19T10:59:35Z</time>
      </trkpt>
      <trkpt lat="39.4538753852" lon="-7.7860183362">
        <ele>290.94</ele>
        <time>2018-12-19T10:59:38Z</time>
      </trkpt>
      <trkpt lat="39.4538627286" lon="-7.7860432304">
        <ele>295.26</ele>
        <time>2018-12-19T10:59:40Z</time>
      </trkpt>
      <trkpt lat="39.4538547657" lon="-7.7860568929">
        <ele>292.86</ele>
        <time>2018-12-19T10:59:41Z</time>
      </trkpt>
      <trkpt lat="39.4537654985" lon="-7.7861544583">
        <ele>292.38</ele>
        <time>2018-12-19T10:59:50Z</time>
      </trkpt>
      <trkpt lat="39.4537569489" lon="-7.7861647680">
        <ele>292.38</ele>
        <time>2018-12-19T10:59:51Z</time>
      </trkpt>
      <trkpt lat="39.4537182245" lon="-7.7862055879">
        <ele>291.90</ele>
        <time>2018-12-19T10:59:55Z</time>
      </trkpt>
      <trkpt lat="39.4537097588" lon="-7.7862636745">
        <ele>292.86</ele>
        <time>2018-12-19T11:00:00Z</time>
      </trkpt>
      <trkpt lat="39.4536091760" lon="-7.7864024788">
        <ele>292.86</ele>
        <time>2018-12-19T11:00:12Z</time>
      </trkpt>
      <trkpt lat="39.4535270333" lon="-7.7865146287">
        <ele>292.86</ele>
        <time>2018-12-19T11:00:21Z</time>
      </trkpt>
      <trkpt lat="39.4534237683" lon="-7.7866189834">
        <ele>292.38</ele>
        <time>2018-12-19T11:00:31Z</time>
      </trkpt>
      <trkpt lat="39.4533149712" lon="-7.7866872959">
        <ele>292.86</ele>
        <time>2018-12-19T11:00:40Z</time>
      </trkpt>
      <trkpt lat="39.4531928468" lon="-7.7867053170">
        <ele>293.34</ele>
        <time>2018-12-19T11:00:49Z</time>
      </trkpt>
      <trkpt lat="39.4531216007" lon="-7.7867548540">
        <ele>293.34</ele>
        <time>2018-12-19T11:00:57Z</time>
      </trkpt>
      <trkpt lat="39.4530527852" lon="-7.7868244238">
        <ele>293.34</ele>
        <time>2018-12-19T11:01:07Z</time>
      </trkpt>
      <trkpt lat="39.4530492648" lon="-7.7868471388">
        <ele>292.86</ele>
        <time>2018-12-19T11:01:15Z</time>
      </trkpt>
      <trkpt lat="39.4530648552" lon="-7.7868418582">
        <ele>292.38</ele>
        <time>2018-12-19T11:01:26Z</time>
      </trkpt>
      <trkpt lat="39.4530567247" lon="-7.7868162934">
        <ele>292.86</ele>
        <time>2018-12-19T11:01:35Z</time>
      </trkpt>
      <trkpt lat="39.4530873187" lon="-7.7867913153">
        <ele>292.86</ele>
        <time>2018-12-19T11:01:38Z</time>
      </trkpt>
      <trkpt lat="39.4531061780" lon="-7.7867560275">
        <ele>292.38</ele>
        <time>2018-12-19T11:01:41Z</time>
      </trkpt>
      <trkpt lat="39.4530080259" lon="-7.7867442090">
        <ele>292.38</ele>
        <time>2018-12-19T11:01:51Z</time>
      </trkpt>
      <trkpt lat="39.4529761747" lon="-7.7867334802">
        <ele>292.38</ele>
        <time>2018-12-19T11:02:01Z</time>
      </trkpt>
      <trkpt lat="39.4529612549" lon="-7.7867115196">
        <ele>292.86</ele>
        <time>2018-12-19T11:02:12Z</time>
      </trkpt>
      <trkpt lat="39.4529294036" lon="-7.7867256850">
        <ele>292.86</ele>
        <time>2018-12-19T11:02:19Z</time>
      </trkpt>
      <trkpt lat="39.4529192615" lon="-7.7867211588">
        <ele>291.90</ele>
        <time>2018-12-19T11:02:21Z</time>
      </trkpt>
      <trkpt lat="39.4528787769" lon="-7.7866810933">
        <ele>291.42</ele>
        <time>2018-12-19T11:02:28Z</time>
      </trkpt>
      <trkpt lat="39.4528635219" lon="-7.7866394352">
        <ele>291.90</ele>
        <time>2018-12-19T11:02:34Z</time>
      </trkpt>
      <trkpt lat="39.4528429024" lon="-7.7865727991">
        <ele>292.38</ele>
        <time>2018-12-19T11:02:42Z</time>
      </trkpt>
      <trkpt lat="39.4527747575" lon="-7.7865437139">
        <ele>291.90</ele>
        <time>2018-12-19T11:02:50Z</time>
      </trkpt>
      <trkpt lat="39.4527067803" lon="-7.7865544427">
        <ele>290.46</ele>
        <time>2018-12-19T11:02:58Z</time>
      </trkpt>
      <trkpt lat="39.4525846560" lon="-7.7866481524">
        <ele>291.42</ele>
        <time>2018-12-19T11:03:09Z</time>
      </trkpt>
      <trkpt lat="39.4525657129" lon="-7.7866516728">
        <ele>292.38</ele>
        <time>2018-12-19T11:03:15Z</time>
      </trkpt>
      <trkpt lat="39.4525357895" lon="-7.7866401058">
        <ele>291.42</ele>
        <time>2018-12-19T11:03:23Z</time>
      </trkpt>
      <trkpt lat="39.4524764456" lon="-7.7866207436">
        <ele>290.94</ele>
        <time>2018-12-19T11:03:28Z</time>
      </trkpt>
      <trkpt lat="39.4524319377" lon="-7.7866591327">
        <ele>291.42</ele>
        <time>2018-12-19T11:03:32Z</time>
      </trkpt>
      <trkpt lat="39.4523099810" lon="-7.7867466398">
        <ele>291.42</ele>
        <time>2018-12-19T11:03:43Z</time>
      </trkpt>
      <trkpt lat="39.4521923829" lon="-7.7868420258">
        <ele>290.46</ele>
        <time>2018-12-19T11:03:54Z</time>
      </trkpt>
      <trkpt lat="39.4520777185" lon="-7.7869101707">
        <ele>290.46</ele>
        <time>2018-12-19T11:04:04Z</time>
      </trkpt>
      <trkpt lat="39.4519299455" lon="-7.7870273497">
        <ele>291.42</ele>
        <time>2018-12-19T11:04:17Z</time>
      </trkpt>
      <trkpt lat="39.4518074859" lon="-7.7871215623">
        <ele>290.94</ele>
        <time>2018-12-19T11:04:28Z</time>
      </trkpt>
      <trkpt lat="39.4516834337" lon="-7.7872089017">
        <ele>290.94</ele>
        <time>2018-12-19T11:04:39Z</time>
      </trkpt>
      <trkpt lat="39.4516008720" lon="-7.7872734424">
        <ele>290.46</ele>
        <time>2018-12-19T11:04:47Z</time>
      </trkpt>
      <trkpt lat="39.4514730480" lon="-7.7873798087">
        <ele>290.94</ele>
        <time>2018-12-19T11:04:59Z</time>
      </trkpt>
      <trkpt lat="39.4513490796" lon="-7.7874789666">
        <ele>290.94</ele>
        <time>2018-12-19T11:05:10Z</time>
      </trkpt>
      <trkpt lat="39.4511902425" lon="-7.7875839919">
        <ele>290.46</ele>
        <time>2018-12-19T11:05:24Z</time>
      </trkpt>
      <trkpt lat="39.4510795176" lon="-7.7876930404">
        <ele>290.94</ele>
        <time>2018-12-19T11:05:35Z</time>
      </trkpt>
      <trkpt lat="39.4509970397" lon="-7.7877514623">
        <ele>289.97</ele>
        <time>2018-12-19T11:05:43Z</time>
      </trkpt>
      <trkpt lat="39.4508662820" lon="-7.7878393047">
        <ele>290.94</ele>
        <time>2018-12-19T11:05:55Z</time>
      </trkpt>
      <trkpt lat="39.4507435709" lon="-7.7879196033">
        <ele>290.46</ele>
        <time>2018-12-19T11:06:06Z</time>
      </trkpt>
      <trkpt lat="39.4506066944" lon="-7.7880155761">
        <ele>290.46</ele>
        <time>2018-12-19T11:06:18Z</time>
      </trkpt>
      <trkpt lat="39.4504994061" lon="-7.7880985569">
        <ele>290.94</ele>
        <time>2018-12-19T11:06:28Z</time>
      </trkpt>
      <trkpt lat="39.4503936265" lon="-7.7881737426">
        <ele>289.97</ele>
        <time>2018-12-19T11:06:38Z</time>
      </trkpt>
      <trkpt lat="39.4502816442" lon="-7.7882787678">
        <ele>290.46</ele>
        <time>2018-12-19T11:06:49Z</time>
      </trkpt>
      <trkpt lat="39.4501791336" lon="-7.7883574739">
        <ele>289.97</ele>
        <time>2018-12-19T11:06:59Z</time>
      </trkpt>
      <trkpt lat="39.4500982482" lon="-7.7884231880">
        <ele>290.46</ele>
        <time>2018-12-19T11:07:07Z</time>
      </trkpt>
      <trkpt lat="39.4499837514" lon="-7.7885359246">
        <ele>289.97</ele>
        <time>2018-12-19T11:07:18Z</time>
      </trkpt>
      <trkpt lat="39.4498806540" lon="-7.7886223421">
        <ele>290.46</ele>
        <time>2018-12-19T11:07:28Z</time>
      </trkpt>
      <trkpt lat="39.4497572724" lon="-7.7887607273">
        <ele>289.49</ele>
        <time>2018-12-19T11:07:40Z</time>
      </trkpt>
      <trkpt lat="39.4496566895" lon="-7.7888582926">
        <ele>289.49</ele>
        <time>2018-12-19T11:07:49Z</time>
      </trkpt>
      <trkpt lat="39.4495758042" lon="-7.7889618091">
        <ele>289.97</ele>
        <time>2018-12-19T11:07:58Z</time>
      </trkpt>
      <trkpt lat="39.4495053124" lon="-7.7890658285">
        <ele>289.97</ele>
        <time>2018-12-19T11:08:06Z</time>
      </trkpt>
      <trkpt lat="39.4494448788" lon="-7.7891439479">
        <ele>289.97</ele>
        <time>2018-12-19T11:08:13Z</time>
      </trkpt>
      <trkpt lat="39.4493775722" lon="-7.7892231569">
        <ele>290.46</ele>
        <time>2018-12-19T11:08:21Z</time>
      </trkpt>
      <trkpt lat="39.4492721278" lon="-7.7893355582">
        <ele>289.97</ele>
        <time>2018-12-19T11:08:32Z</time>
      </trkpt>
      <trkpt lat="39.4491701201" lon="-7.7894812357">
        <ele>289.97</ele>
        <time>2018-12-19T11:08:44Z</time>
      </trkpt>
      <trkpt lat="39.4490718003" lon="-7.7896216325">
        <ele>289.01</ele>
        <time>2018-12-19T11:08:55Z</time>
      </trkpt>
      <trkpt lat="39.4489885680" lon="-7.7897224668">
        <ele>289.97</ele>
        <time>2018-12-19T11:09:05Z</time>
      </trkpt>
      <trkpt lat="39.4489106163" lon="-7.7898495365">
        <ele>289.01</ele>
        <time>2018-12-19T11:09:15Z</time>
      </trkpt>
      <trkpt lat="39.4488371909" lon="-7.7899832278">
        <ele>289.49</ele>
        <time>2018-12-19T11:09:25Z</time>
      </trkpt>
      <trkpt lat="39.4487630110" lon="-7.7901065256">
        <ele>289.49</ele>
        <time>2018-12-19T11:09:35Z</time>
      </trkpt>
      <trkpt lat="39.4486847240" lon="-7.7902473416">
        <ele>289.01</ele>
        <time>2018-12-19T11:09:45Z</time>
      </trkpt>
      <trkpt lat="39.4486202672" lon="-7.7903876547">
        <ele>290.46</ele>
        <time>2018-12-19T11:09:55Z</time>
      </trkpt>
      <trkpt lat="39.4485502783" lon="-7.7905096114">
        <ele>287.09</ele>
        <time>2018-12-19T11:10:05Z</time>
      </trkpt>
      <trkpt lat="39.4484885037" lon="-7.7906533610">
        <ele>289.01</ele>
        <time>2018-12-19T11:10:15Z</time>
      </trkpt>
      <trkpt lat="39.4484310038" lon="-7.7907945123">
        <ele>289.49</ele>
        <time>2018-12-19T11:10:24Z</time>
      </trkpt>
      <trkpt lat="39.4484002423" lon="-7.7908463124">
        <ele>289.49</ele>
        <time>2018-12-19T11:10:28Z</time>
      </trkpt>
      <trkpt lat="39.4483089633" lon="-7.7909918223">
        <ele>288.05</ele>
        <time>2018-12-19T11:10:39Z</time>
      </trkpt>
      <trkpt lat="39.4482523855" lon="-7.7911449596">
        <ele>288.53</ele>
        <time>2018-12-19T11:10:49Z</time>
      </trkpt>
      <trkpt lat="39.4481682312" lon="-7.7912993543">
        <ele>289.01</ele>
        <time>2018-12-19T11:10:59Z</time>
      </trkpt>
      <trkpt lat="39.4480947219" lon="-7.7914660703">
        <ele>289.01</ele>
        <time>2018-12-19T11:11:10Z</time>
      </trkpt>
      <trkpt lat="39.4480477832" lon="-7.7915756218">
        <ele>289.49</ele>
        <time>2018-12-19T11:11:18Z</time>
      </trkpt>
      <trkpt lat="39.4479551632" lon="-7.7917318605">
        <ele>290.46</ele>
        <time>2018-12-19T11:11:31Z</time>
      </trkpt>
      <trkpt lat="39.4479166903" lon="-7.7918378077">
        <ele>289.49</ele>
        <time>2018-12-19T11:11:40Z</time>
      </trkpt>
      <trkpt lat="39.4478560053" lon="-7.7919665538">
        <ele>289.97</ele>
        <time>2018-12-19T11:11:50Z</time>
      </trkpt>
      <trkpt lat="39.4477848429" lon="-7.7921032626">
        <ele>289.49</ele>
        <time>2018-12-19T11:12:01Z</time>
      </trkpt>
      <trkpt lat="39.4477003533" lon="-7.7922755107">
        <ele>289.49</ele>
        <time>2018-12-19T11:12:12Z</time>
      </trkpt>
      <trkpt lat="39.4476263411" lon="-7.7924443223">
        <ele>290.46</ele>
        <time>2018-12-19T11:12:24Z</time>
      </trkpt>
      <trkpt lat="39.4475676678" lon="-7.7925951965">
        <ele>290.46</ele>
        <time>2018-12-19T11:12:35Z</time>
      </trkpt>
      <trkpt lat="39.4474968407" lon="-7.7927451488">
        <ele>290.94</ele>
        <time>2018-12-19T11:12:47Z</time>
      </trkpt>
      <trkpt lat="39.4474173803" lon="-7.7929160558">
        <ele>290.94</ele>
        <time>2018-12-19T11:12:58Z</time>
      </trkpt>
      <trkpt lat="39.4473415241" lon="-7.7930511720">
        <ele>290.94</ele>
        <time>2018-12-19T11:13:09Z</time>
      </trkpt>
      <trkpt lat="39.4472795818" lon="-7.7932014596">
        <ele>290.46</ele>
        <time>2018-12-19T11:13:19Z</time>
      </trkpt>
      <trkpt lat="39.4471991155" lon="-7.7933391742">
        <ele>290.46</ele>
        <time>2018-12-19T11:13:29Z</time>
      </trkpt>
      <trkpt lat="39.4471450523" lon="-7.7934751287">
        <ele>290.94</ele>
        <time>2018-12-19T11:13:39Z</time>
      </trkpt>
      <trkpt lat="39.4470733032" lon="-7.7936077304">
        <ele>290.46</ele>
        <time>2018-12-19T11:13:49Z</time>
      </trkpt>
      <trkpt lat="39.4469954353" lon="-7.7937875222">
        <ele>290.94</ele>
        <time>2018-12-19T11:14:02Z</time>
      </trkpt>
      <trkpt lat="39.4469135441" lon="-7.7939518914">
        <ele>290.94</ele>
        <time>2018-12-19T11:14:14Z</time>
      </trkpt>
      <trkpt lat="39.4468326587" lon="-7.7940968145">
        <ele>290.94</ele>
        <time>2018-12-19T11:14:26Z</time>
      </trkpt>
      <trkpt lat="39.4467583112" lon="-7.7942484431">
        <ele>290.94</ele>
        <time>2018-12-19T11:14:37Z</time>
      </trkpt>
      <trkpt lat="39.4466864783" lon="-7.7943926957">
        <ele>292.38</ele>
        <time>2018-12-19T11:14:48Z</time>
      </trkpt>
      <trkpt lat="39.4466042519" lon="-7.7945553046">
        <ele>290.94</ele>
        <time>2018-12-19T11:15:00Z</time>
      </trkpt>
      <trkpt lat="39.4465296529" lon="-7.7947281394">
        <ele>290.46</ele>
        <time>2018-12-19T11:15:13Z</time>
      </trkpt>
      <trkpt lat="39.4464563951" lon="-7.7948950231">
        <ele>290.46</ele>
        <time>2018-12-19T11:15:24Z</time>
      </trkpt>
      <trkpt lat="39.4463934470" lon="-7.7950455621">
        <ele>290.46</ele>
        <time>2018-12-19T11:15:35Z</time>
      </trkpt>
      <trkpt lat="39.4463170040" lon="-7.7951961849">
        <ele>289.97</ele>
        <time>2018-12-19T11:15:47Z</time>
      </trkpt>
      <trkpt lat="39.4462547265" lon="-7.7953886334">
        <ele>289.97</ele>
        <time>2018-12-19T11:15:59Z</time>
      </trkpt>
      <trkpt lat="39.4461684767" lon="-7.7955820039">
        <ele>290.46</ele>
        <time>2018-12-19T11:16:13Z</time>
      </trkpt>
      <trkpt lat="39.4461190235" lon="-7.7957477979">
        <ele>291.42</ele>
        <time>2018-12-19T11:16:24Z</time>
      </trkpt>
      <trkpt lat="39.4460596796" lon="-7.7959072217">
        <ele>290.46</ele>
        <time>2018-12-19T11:16:35Z</time>
      </trkpt>
      <trkpt lat="39.4460211229" lon="-7.7960704174">
        <ele>290.46</ele>
        <time>2018-12-19T11:16:47Z</time>
      </trkpt>
      <trkpt lat="39.4459759444" lon="-7.7962041926">
        <ele>289.97</ele>
        <time>2018-12-19T11:16:56Z</time>
      </trkpt>
      <trkpt lat="39.4459180254" lon="-7.7964270674">
        <ele>289.97</ele>
        <time>2018-12-19T11:17:10Z</time>
      </trkpt>
      <trkpt lat="39.4458800554" lon="-7.7966281492">
        <ele>289.97</ele>
        <time>2018-12-19T11:17:22Z</time>
      </trkpt>
      <trkpt lat="39.4458478689" lon="-7.7967747487">
        <ele>289.97</ele>
        <time>2018-12-19T11:17:31Z</time>
      </trkpt>
      <trkpt lat="39.4458142575" lon="-7.7969511878">
        <ele>289.97</ele>
        <time>2018-12-19T11:17:42Z</time>
      </trkpt>
      <trkpt lat="39.4457907043" lon="-7.7971013077">
        <ele>289.97</ele>
        <time>2018-12-19T11:17:51Z</time>
      </trkpt>
      <trkpt lat="39.4457530696" lon="-7.7972948458">
        <ele>290.46</ele>
        <time>2018-12-19T11:18:03Z</time>
      </trkpt>
      <trkpt lat="39.4457386527" lon="-7.7974776551">
        <ele>289.49</ele>
        <time>2018-12-19T11:18:14Z</time>
      </trkpt>
      <trkpt lat="39.4457158539" lon="-7.7976649068">
        <ele>289.97</ele>
        <time>2018-12-19T11:18:25Z</time>
      </trkpt>
      <trkpt lat="39.4456975814" lon="-7.7978541702">
        <ele>289.97</ele>
        <time>2018-12-19T11:18:35Z</time>
      </trkpt>
      <trkpt lat="39.4456930552" lon="-7.7980590239">
        <ele>289.49</ele>
        <time>2018-12-19T11:18:48Z</time>
      </trkpt>
      <trkpt lat="39.4456722680" lon="-7.7982861735">
        <ele>289.97</ele>
        <time>2018-12-19T11:19:02Z</time>
      </trkpt>
      <trkpt lat="39.4456684962" lon="-7.7984760236">
        <ele>289.97</ele>
        <time>2018-12-19T11:19:14Z</time>
      </trkpt>
      <trkpt lat="39.4456622936" lon="-7.7986092959">
        <ele>289.97</ele>
        <time>2018-12-19T11:19:23Z</time>
      </trkpt>
      <trkpt lat="39.4456495531" lon="-7.7987916023">
        <ele>289.97</ele>
        <time>2018-12-19T11:19:33Z</time>
      </trkpt>
      <trkpt lat="39.4456612039" lon="-7.7990057599">
        <ele>289.97</ele>
        <time>2018-12-19T11:19:47Z</time>
      </trkpt>
      <trkpt lat="39.4456607848" lon="-7.7992151398">
        <ele>289.97</ele>
        <time>2018-12-19T11:19:59Z</time>
      </trkpt>
      <trkpt lat="39.4456587732" lon="-7.7994018886">
        <ele>289.97</ele>
        <time>2018-12-19T11:20:10Z</time>
      </trkpt>
      <trkpt lat="39.4456511457" lon="-7.7995477337">
        <ele>289.97</ele>
        <time>2018-12-19T11:20:19Z</time>
      </trkpt>
      <trkpt lat="39.4456612878" lon="-7.7997312136">
        <ele>290.46</ele>
        <time>2018-12-19T11:20:30Z</time>
      </trkpt>
      <trkpt lat="39.4456713460" lon="-7.7999156155">
        <ele>289.49</ele>
        <time>2018-12-19T11:20:42Z</time>
      </trkpt>
      <trkpt lat="39.4456868526" lon="-7.8001409210">
        <ele>289.97</ele>
        <time>2018-12-19T11:20:56Z</time>
      </trkpt>
      <trkpt lat="39.4457113277" lon="-7.8003165219">
        <ele>290.46</ele>
        <time>2018-12-19T11:21:06Z</time>
      </trkpt>
      <trkpt lat="39.4457197096" lon="-7.8004799690">
        <ele>290.46</ele>
        <time>2018-12-19T11:21:16Z</time>
      </trkpt>
      <trkpt lat="39.4457574282" lon="-7.8006747644">
        <ele>289.49</ele>
        <time>2018-12-19T11:21:28Z</time>
      </trkpt>
      <trkpt lat="39.4458090607" lon="-7.8008080367">
        <ele>289.97</ele>
        <time>2018-12-19T11:21:38Z</time>
      </trkpt>
      <trkpt lat="39.4458671473" lon="-7.8009780217">
        <ele>289.97</ele>
        <time>2018-12-19T11:21:49Z</time>
      </trkpt>
      <trkpt lat="39.4459029380" lon="-7.8010976315">
        <ele>289.49</ele>
        <time>2018-12-19T11:21:58Z</time>
      </trkpt>
      <trkpt lat="39.4459472783" lon="-7.8012443148">
        <ele>289.49</ele>
        <time>2018-12-19T11:22:08Z</time>
      </trkpt>
      <trkpt lat="39.4459513016" lon="-7.8012712207">
        <ele>289.97</ele>
        <time>2018-12-19T11:22:10Z</time>
      </trkpt>
      <trkpt lat="39.4460034370" lon="-7.8014285490">
        <ele>290.46</ele>
        <time>2018-12-19T11:22:20Z</time>
      </trkpt>
      <trkpt lat="39.4460543152" lon="-7.8015818540">
        <ele>289.97</ele>
        <time>2018-12-19T11:22:31Z</time>
      </trkpt>
      <trkpt lat="39.4460878428" lon="-7.8017268609">
        <ele>290.94</ele>
        <time>2018-12-19T11:22:41Z</time>
      </trkpt>
      <trkpt lat="39.4461177662" lon="-7.8018183913">
        <ele>290.94</ele>
        <time>2018-12-19T11:22:48Z</time>
      </trkpt>
      <trkpt lat="39.4461693149" lon="-7.8019744623">
        <ele>290.94</ele>
        <time>2018-12-19T11:22:58Z</time>
      </trkpt>
      <trkpt lat="39.4461909402" lon="-7.8021093272">
        <ele>291.42</ele>
        <time>2018-12-19T11:23:07Z</time>
      </trkpt>
      <trkpt lat="39.4462234620" lon="-7.8022234049">
        <ele>291.42</ele>
        <time>2018-12-19T11:23:15Z</time>
      </trkpt>
      <trkpt lat="39.4462369569" lon="-7.8022810724">
        <ele>291.42</ele>
        <time>2018-12-19T11:23:19Z</time>
      </trkpt>
      <trkpt lat="39.4462417345" lon="-7.8023281787">
        <ele>291.42</ele>
        <time>2018-12-19T11:23:22Z</time>
      </trkpt>
      <trkpt lat="39.4462733343" lon="-7.8025264107">
        <ele>290.94</ele>
        <time>2018-12-19T11:23:35Z</time>
      </trkpt>
      <trkpt lat="39.4462797884" lon="-7.8025560826">
        <ele>291.42</ele>
        <time>2018-12-19T11:23:37Z</time>
      </trkpt>
      <trkpt lat="39.4463066943" lon="-7.8026188631">
        <ele>291.42</ele>
        <time>2018-12-19T11:23:41Z</time>
      </trkpt>
      <trkpt lat="39.4463419821" lon="-7.8027948830">
        <ele>291.42</ele>
        <time>2018-12-19T11:23:52Z</time>
      </trkpt>
      <trkpt lat="39.4463698100" lon="-7.8028954659">
        <ele>291.42</ele>
        <time>2018-12-19T11:24:00Z</time>
      </trkpt>
      <trkpt lat="39.4464056008" lon="-7.8029915225">
        <ele>291.90</ele>
        <time>2018-12-19T11:24:07Z</time>
      </trkpt>
      <trkpt lat="39.4464371167" lon="-7.8030750901">
        <ele>291.90</ele>
        <time>2018-12-19T11:24:13Z</time>
      </trkpt>
      <trkpt lat="39.4464723207" lon="-7.8032180853">
        <ele>291.90</ele>
        <time>2018-12-19T11:24:23Z</time>
      </trkpt>
      <trkpt lat="39.4465060998" lon="-7.8033733182">
        <ele>292.38</ele>
        <time>2018-12-19T11:24:33Z</time>
      </trkpt>
      <trkpt lat="39.4465417229" lon="-7.8035115357">
        <ele>291.42</ele>
        <time>2018-12-19T11:24:42Z</time>
      </trkpt>
      <trkpt lat="39.4465857279" lon="-7.8036355041">
        <ele>292.38</ele>
        <time>2018-12-19T11:24:50Z</time>
      </trkpt>
      <trkpt lat="39.4466062635" lon="-7.8037503362">
        <ele>291.42</ele>
        <time>2018-12-19T11:24:58Z</time>
      </trkpt>
      <trkpt lat="39.4466479216" lon="-7.8038846981">
        <ele>291.90</ele>
        <time>2018-12-19T11:25:07Z</time>
      </trkpt>
      <trkpt lat="39.4466834608" lon="-7.8040082473">
        <ele>292.38</ele>
        <time>2018-12-19T11:25:15Z</time>
      </trkpt>
      <trkpt lat="39.4467252865" lon="-7.8041223250">
        <ele>290.94</ele>
        <time>2018-12-19T11:25:23Z</time>
      </trkpt>
      <trkpt lat="39.4467829540" lon="-7.8042731993">
        <ele>290.94</ele>
        <time>2018-12-19T11:25:33Z</time>
      </trkpt>
      <trkpt lat="39.4468184933" lon="-7.8044013586">
        <ele>291.90</ele>
        <time>2018-12-19T11:25:41Z</time>
      </trkpt>
      <trkpt lat="39.4468703773" lon="-7.8045178670">
        <ele>290.94</ele>
        <time>2018-12-19T11:25:49Z</time>
      </trkpt>
      <trkpt lat="39.4468950201" lon="-7.8046304360">
        <ele>291.90</ele>
        <time>2018-12-19T11:25:57Z</time>
      </trkpt>
      <trkpt lat="39.4469357561" lon="-7.8047207091">
        <ele>290.94</ele>
        <time>2018-12-19T11:26:04Z</time>
      </trkpt>
      <trkpt lat="39.4469745643" lon="-7.8047929611">
        <ele>290.94</ele>
        <time>2018-12-19T11:26:09Z</time>
      </trkpt>
      <trkpt lat="39.4470120315" lon="-7.8049342800">
        <ele>290.94</ele>
        <time>2018-12-19T11:26:18Z</time>
      </trkpt>
      <trkpt lat="39.4470569585" lon="-7.8050799575">
        <ele>291.42</ele>
        <time>2018-12-19T11:26:27Z</time>
      </trkpt>
      <trkpt lat="39.4471114408" lon="-7.8052256349">
        <ele>291.42</ele>
        <time>2018-12-19T11:26:37Z</time>
      </trkpt>
      <trkpt lat="39.4471468963" lon="-7.8053637687">
        <ele>290.94</ele>
        <time>2018-12-19T11:26:47Z</time>
      </trkpt>
      <trkpt lat="39.4471924938" lon="-7.8054858092">
        <ele>291.42</ele>
        <time>2018-12-19T11:26:57Z</time>
      </trkpt>
      <trkpt lat="39.4472383428" lon="-7.8056558780">
        <ele>290.94</ele>
        <time>2018-12-19T11:27:07Z</time>
      </trkpt>
      <trkpt lat="39.4472812582" lon="-7.8058506735">
        <ele>290.46</ele>
        <time>2018-12-19T11:27:18Z</time>
      </trkpt>
      <trkpt lat="39.4473372493" lon="-7.8059960995">
        <ele>290.94</ele>
        <time>2018-12-19T11:27:27Z</time>
      </trkpt>
      <trkpt lat="39.4473843556" lon="-7.8061259352">
        <ele>290.94</ele>
        <time>2018-12-19T11:27:36Z</time>
      </trkpt>
      <trkpt lat="39.4474279415" lon="-7.8062492330">
        <ele>289.97</ele>
        <time>2018-12-19T11:27:45Z</time>
      </trkpt>
      <trkpt lat="39.4474837650" lon="-7.8063926473">
        <ele>290.46</ele>
        <time>2018-12-19T11:27:55Z</time>
      </trkpt>
      <trkpt lat="39.4475400914" lon="-7.8065673262">
        <ele>290.46</ele>
        <time>2018-12-19T11:28:06Z</time>
      </trkpt>
      <trkpt lat="39.4475882035" lon="-7.8067052085">
        <ele>290.94</ele>
        <time>2018-12-19T11:28:15Z</time>
      </trkpt>
      <trkpt lat="39.4476430211" lon="-7.8068973217">
        <ele>289.97</ele>
        <time>2018-12-19T11:28:28Z</time>
      </trkpt>
      <trkpt lat="39.4476830866" lon="-7.8070049454">
        <ele>289.97</ele>
        <time>2018-12-19T11:28:37Z</time>
      </trkpt>
      <trkpt lat="39.4477254990" lon="-7.8070916142">
        <ele>289.97</ele>
        <time>2018-12-19T11:28:45Z</time>
      </trkpt>
      <trkpt lat="39.4477580208" lon="-7.8072232939">
        <ele>289.49</ele>
        <time>2018-12-19T11:28:55Z</time>
      </trkpt>
      <trkpt lat="39.4477964099" lon="-7.8073388804">
        <ele>289.97</ele>
        <time>2018-12-19T11:29:03Z</time>
      </trkpt>
      <trkpt lat="39.4478006847" lon="-7.8073526267">
        <ele>289.97</ele>
        <time>2018-12-19T11:29:04Z</time>
      </trkpt>
      <trkpt lat="39.4477988407" lon="-7.8074861504">
        <ele>289.49</ele>
        <time>2018-12-19T11:29:13Z</time>
      </trkpt>
      <trkpt lat="39.4478303567" lon="-7.8076179978">
        <ele>289.97</ele>
        <time>2018-12-19T11:29:21Z</time>
      </trkpt>
      <trkpt lat="39.4478845876" lon="-7.8077380266">
        <ele>289.97</ele>
        <time>2018-12-19T11:29:29Z</time>
      </trkpt>
      <trkpt lat="39.4478989206" lon="-7.8078500926">
        <ele>290.46</ele>
        <time>2018-12-19T11:29:37Z</time>
      </trkpt>
      <trkpt lat="39.4479522295" lon="-7.8080064990">
        <ele>290.94</ele>
        <time>2018-12-19T11:29:47Z</time>
      </trkpt>
      <trkpt lat="39.4480237272" lon="-7.8081741370">
        <ele>290.46</ele>
        <time>2018-12-19T11:29:58Z</time>
      </trkpt>
      <trkpt lat="39.4480378926" lon="-7.8082392644">
        <ele>290.94</ele>
        <time>2018-12-19T11:30:06Z</time>
      </trkpt>
      <trkpt lat="39.4480573386" lon="-7.8082940821">
        <ele>290.94</ele>
        <time>2018-12-19T11:30:12Z</time>
      </trkpt>
      <trkpt lat="39.4480965659" lon="-7.8084541764">
        <ele>290.94</ele>
        <time>2018-12-19T11:30:23Z</time>
      </trkpt>
      <trkpt lat="39.4481018465" lon="-7.8084664140">
        <ele>290.94</ele>
        <time>2018-12-19T11:30:24Z</time>
      </trkpt>
      <trkpt lat="39.4481621962" lon="-7.8085476346">
        <ele>290.94</ele>
        <time>2018-12-19T11:30:34Z</time>
      </trkpt>
      <trkpt lat="39.4481922872" lon="-7.8085524123">
        <ele>291.42</ele>
        <time>2018-12-19T11:30:41Z</time>
      </trkpt>
      <trkpt lat="39.4481839892" lon="-7.8085615486">
        <ele>288.53</ele>
        <time>2018-12-19T11:30:53Z</time>
      </trkpt>
      <trkpt lat="39.4481824804" lon="-7.8085601237">
        <ele>295.26</ele>
        <time>2018-12-19T11:30:56Z</time>
      </trkpt>
      <trkpt lat="39.4481819775" lon="-7.8085602913">
        <ele>290.94</ele>
        <time>2018-12-19T11:30:57Z</time>
      </trkpt>
      <trkpt lat="39.4481787924" lon="-7.8085638955">
        <ele>290.94</ele>
        <time>2018-12-19T11:31:07Z</time>
      </trkpt>
      <trkpt lat="39.4481792115" lon="-7.8085642308">
        <ele>289.49</ele>
        <time>2018-12-19T11:31:11Z</time>
      </trkpt>
      <trkpt lat="39.4481781218" lon="-7.8085686732">
        <ele>291.42</ele>
        <time>2018-12-19T11:31:14Z</time>
      </trkpt>
      <trkpt lat="39.4481895212" lon="-7.8085507359">
        <ele>289.97</ele>
        <time>2018-12-19T11:31:21Z</time>
      </trkpt>
      <trkpt lat="39.4481945504" lon="-7.8085471317">
        <ele>290.46</ele>
        <time>2018-12-19T11:31:35Z</time>
      </trkpt>
      <trkpt lat="39.4482009206" lon="-7.8085414320">
        <ele>290.94</ele>
        <time>2018-12-19T11:31:53Z</time>
      </trkpt>
      <trkpt lat="39.4482106436" lon="-7.8085500654">
        <ele>290.94</ele>
        <time>2018-12-19T11:32:14Z</time>
      </trkpt>
      <trkpt lat="39.4482124038" lon="-7.8085466288">
        <ele>290.94</ele>
        <time>2018-12-19T11:32:38Z</time>
      </trkpt>
      <trkpt lat="39.4481930416" lon="-7.8085543402">
        <ele>290.94</ele>
        <time>2018-12-19T11:33:06Z</time>
      </trkpt>
      <trkpt lat="39.4481963105" lon="-7.8085478861">
        <ele>290.94</ele>
        <time>2018-12-19T11:33:25Z</time>
      </trkpt>
      <trkpt lat="39.4481888507" lon="-7.8085416835">
        <ele>290.46</ele>
        <time>2018-12-19T11:33:48Z</time>
      </trkpt>
      <trkpt lat="39.4481896888" lon="-7.8085426893">
        <ele>290.94</ele>
        <time>2018-12-19T11:34:05Z</time>
      </trkpt>
      <trkpt lat="39.4481961429" lon="-7.8085441981">
        <ele>290.94</ele>
        <time>2018-12-19T11:34:25Z</time>
      </trkpt>
      <trkpt lat="39.4481922034" lon="-7.8085409291">
        <ele>290.46</ele>
        <time>2018-12-19T11:34:42Z</time>
      </trkpt>
      <trkpt lat="39.4481985737" lon="-7.8085414320">
        <ele>290.94</ele>
        <time>2018-12-19T11:35:03Z</time>
      </trkpt>
      <trkpt lat="39.4482014235" lon="-7.8085429408">
        <ele>290.94</ele>
        <time>2018-12-19T11:35:17Z</time>
      </trkpt>
      <trkpt lat="39.4482005853" lon="-7.8085473832">
        <ele>290.94</ele>
        <time>2018-12-19T11:35:34Z</time>
      </trkpt>
      <trkpt lat="39.4482012559" lon="-7.8085483052">
        <ele>290.94</ele>
        <time>2018-12-19T11:35:53Z</time>
      </trkpt>
      <trkpt lat="39.4482049439" lon="-7.8085481375">
        <ele>290.94</ele>
        <time>2018-12-19T11:36:15Z</time>
      </trkpt>
      <trkpt lat="39.4481999986" lon="-7.8085501492">
        <ele>291.42</ele>
        <time>2018-12-19T11:36:38Z</time>
      </trkpt>
      <trkpt lat="39.4482023455" lon="-7.8085504845">
        <ele>290.94</ele>
        <time>2018-12-19T11:37:01Z</time>
      </trkpt>
      <trkpt lat="39.4482028484" lon="-7.8085490596">
        <ele>291.42</ele>
        <time>2018-12-19T11:37:25Z</time>
      </trkpt>
      <trkpt lat="39.4482083805" lon="-7.8085530829">
        <ele>291.42</ele>
        <time>2018-12-19T11:37:49Z</time>
      </trkpt>
      <trkpt lat="39.4482040219" lon="-7.8085471317">
        <ele>292.38</ele>
        <time>2018-12-19T11:38:08Z</time>
      </trkpt>
      <trkpt lat="39.4482017588" lon="-7.8085493948">
        <ele>292.38</ele>
        <time>2018-12-19T11:38:26Z</time>
      </trkpt>
      <trkpt lat="39.4482031837" lon="-7.8085475508">
        <ele>291.90</ele>
        <time>2018-12-19T11:38:44Z</time>
      </trkpt>
      <trkpt lat="39.4482023455" lon="-7.8085527476">
        <ele>292.38</ele>
        <time>2018-12-19T11:39:09Z</time>
      </trkpt>
      <trkpt lat="39.4482054468" lon="-7.8085522447">
        <ele>292.38</ele>
        <time>2018-12-19T11:39:28Z</time>
      </trkpt>
      <trkpt lat="39.4482078776" lon="-7.8085547592">
        <ele>292.38</ele>
        <time>2018-12-19T11:39:47Z</time>
      </trkpt>
      <trkpt lat="39.4482011721" lon="-7.8085515741">
        <ele>292.38</ele>
        <time>2018-12-19T11:40:07Z</time>
      </trkpt>
      <trkpt lat="39.4482015073" lon="-7.8085524123">
        <ele>292.86</ele>
        <time>2018-12-19T11:40:29Z</time>
      </trkpt>
      <trkpt lat="39.4482051115" lon="-7.8085566033">
        <ele>292.38</ele>
        <time>2018-12-19T11:40:46Z</time>
      </trkpt>
      <trkpt lat="39.4481985737" lon="-7.8085493110">
        <ele>291.90</ele>
        <time>2018-12-19T11:41:04Z</time>
      </trkpt>
      <trkpt lat="39.4481995795" lon="-7.8085515741">
        <ele>292.38</ele>
        <time>2018-12-19T11:41:31Z</time>
      </trkpt>
      <trkpt lat="39.4481998309" lon="-7.8085519932">
        <ele>292.38</ele>
        <time>2018-12-19T11:41:49Z</time>
      </trkpt>
      <trkpt lat="39.4482013397" lon="-7.8085538372">
        <ele>293.34</ele>
        <time>2018-12-19T11:42:07Z</time>
      </trkpt>
      <trkpt lat="39.4482031837" lon="-7.8085500654">
        <ele>292.86</ele>
        <time>2018-12-19T11:42:21Z</time>
      </trkpt>
      <trkpt lat="39.4481984060" lon="-7.8085500654">
        <ele>293.34</ele>
        <time>2018-12-19T11:42:42Z</time>
      </trkpt>
      <trkpt lat="39.4482053630" lon="-7.8085464612">
        <ele>292.86</ele>
        <time>2018-12-19T11:43:09Z</time>
      </trkpt>
      <trkpt lat="39.4481977355" lon="-7.8085509874">
        <ele>293.34</ele>
        <time>2018-12-19T11:43:27Z</time>
      </trkpt>
      <trkpt lat="39.4481984060" lon="-7.8085519932">
        <ele>292.86</ele>
        <time>2018-12-19T11:43:43Z</time>
      </trkpt>
      <trkpt lat="39.4482035190" lon="-7.8085421026">
        <ele>292.86</ele>
        <time>2018-12-19T11:44:05Z</time>
      </trkpt>
      <trkpt lat="39.4482046086" lon="-7.8085488919">
        <ele>292.86</ele>
        <time>2018-12-19T11:44:29Z</time>
      </trkpt>
      <trkpt lat="39.4482066203" lon="-7.8085534181">
        <ele>292.86</ele>
        <time>2018-12-19T11:44:47Z</time>
      </trkpt>
      <trkpt lat="39.4482041057" lon="-7.8085467964">
        <ele>292.86</ele>
        <time>2018-12-19T11:45:14Z</time>
      </trkpt>
      <trkpt lat="39.4481999986" lon="-7.8085540887">
        <ele>293.82</ele>
        <time>2018-12-19T11:45:38Z</time>
      </trkpt>
      <trkpt lat="39.4482041057" lon="-7.8085551783">
        <ele>292.86</ele>
        <time>2018-12-19T11:46:04Z</time>
      </trkpt>
      <trkpt lat="39.4482008368" lon="-7.8085478023">
        <ele>293.82</ele>
        <time>2018-12-19T11:46:27Z</time>
      </trkpt>
      <trkpt lat="39.4482052792" lon="-7.8085499816">
        <ele>293.82</ele>
        <time>2018-12-19T11:46:58Z</time>
      </trkpt>
      <trkpt lat="39.4482069556" lon="-7.8085454553">
        <ele>293.82</ele>
        <time>2018-12-19T11:47:20Z</time>
      </trkpt>
      <trkpt lat="39.4482104760" lon="-7.8085493110">
        <ele>293.82</ele>
        <time>2018-12-19T11:47:45Z</time>
      </trkpt>
      <trkpt lat="39.4482074585" lon="-7.8085456230">
        <ele>294.78</ele>
        <time>2018-12-19T11:48:14Z</time>
      </trkpt>
      <trkpt lat="39.4482098892" lon="-7.8085497301">
        <ele>293.82</ele>
        <time>2018-12-19T11:48:33Z</time>
      </trkpt>
      <trkpt lat="39.4482020102" lon="-7.8085557651">
        <ele>293.82</ele>
        <time>2018-12-19T11:48:52Z</time>
      </trkpt>
      <trkpt lat="39.4482086319" lon="-7.8085465450">
        <ele>294.78</ele>
        <time>2018-12-19T11:49:14Z</time>
      </trkpt>
      <trkpt lat="39.4482064527" lon="-7.8085482214">
        <ele>294.30</ele>
        <time>2018-12-19T11:49:33Z</time>
      </trkpt>
      <trkpt lat="39.4482057821" lon="-7.8085535020">
        <ele>294.30</ele>
        <time>2018-12-19T11:49:51Z</time>
      </trkpt>
      <trkpt lat="39.4482108951" lon="-7.8085564356">
        <ele>294.78</ele>
        <time>2018-12-19T11:50:19Z</time>
      </trkpt>
      <trkpt lat="39.4482094701" lon="-7.8085567709">
        <ele>294.78</ele>
        <time>2018-12-19T11:50:41Z</time>
      </trkpt>
      <trkpt lat="39.4482007530" lon="-7.8085607104">
        <ele>294.78</ele>
        <time>2018-12-19T11:50:59Z</time>
      </trkpt>
      <trkpt lat="39.4482095540" lon="-7.8085633926">
        <ele>294.78</ele>
        <time>2018-12-19T11:51:18Z</time>
      </trkpt>
      <trkpt lat="39.4482063688" lon="-7.8085645661">
        <ele>295.26</ele>
        <time>2018-12-19T11:51:44Z</time>
      </trkpt>
      <trkpt lat="39.4482042734" lon="-7.8085717745">
        <ele>295.74</ele>
        <time>2018-12-19T11:52:03Z</time>
      </trkpt>
      <trkpt lat="39.4482022617" lon="-7.8085681703">
        <ele>296.22</ele>
        <time>2018-12-19T11:52:27Z</time>
      </trkpt>
      <trkpt lat="39.4482037704" lon="-7.8085555974">
        <ele>295.26</ele>
        <time>2018-12-19T11:52:50Z</time>
      </trkpt>
      <trkpt lat="39.4481986575" lon="-7.8085576929">
        <ele>295.74</ele>
        <time>2018-12-19T11:53:10Z</time>
      </trkpt>
      <trkpt lat="39.4482088834" lon="-7.8085626382">
        <ele>296.22</ele>
        <time>2018-12-19T11:53:33Z</time>
      </trkpt>
      <trkpt lat="39.4482057821" lon="-7.8085601237">
        <ele>296.22</ele>
        <time>2018-12-19T11:53:55Z</time>
      </trkpt>
      <trkpt lat="39.4482072908" lon="-7.8085607942">
        <ele>295.74</ele>
        <time>2018-12-19T11:54:18Z</time>
      </trkpt>
      <trkpt lat="39.4482033513" lon="-7.8085567709">
        <ele>295.74</ele>
        <time>2018-12-19T11:54:38Z</time>
      </trkpt>
      <trkpt lat="39.4482036028" lon="-7.8085482214">
        <ele>295.26</ele>
        <time>2018-12-19T11:54:58Z</time>
      </trkpt>
      <trkpt lat="39.4482008368" lon="-7.8085500654">
        <ele>296.22</ele>
        <time>2018-12-19T11:55:17Z</time>
      </trkpt>
      <trkpt lat="39.4482009206" lon="-7.8085434437">
        <ele>295.74</ele>
        <time>2018-12-19T11:55:29Z</time>
      </trkpt>
      <trkpt lat="39.4482078776" lon="-7.8085496463">
        <ele>295.74</ele>
        <time>2018-12-19T11:55:54Z</time>
      </trkpt>
      <trkpt lat="39.4482143316" lon="-7.8085496463">
        <ele>295.74</ele>
        <time>2018-12-19T11:56:17Z</time>
      </trkpt>
      <trkpt lat="39.4482062012" lon="-7.8085552622">
        <ele>296.22</ele>
        <time>2018-12-19T11:56:35Z</time>
      </trkpt>
      <trkpt lat="39.4482063688" lon="-7.8085457906">
        <ele>296.22</ele>
        <time>2018-12-19T11:56:58Z</time>
      </trkpt>
      <trkpt lat="39.4482040219" lon="-7.8085493110">
        <ele>296.22</ele>
        <time>2018-12-19T11:57:21Z</time>
      </trkpt>
      <trkpt lat="39.4482070394" lon="-7.8085498977">
        <ele>296.70</ele>
        <time>2018-12-19T11:57:39Z</time>
      </trkpt>
      <trkpt lat="39.4482028484" lon="-7.8085478861">
        <ele>296.22</ele>
        <time>2018-12-19T11:58:01Z</time>
      </trkpt>
      <trkpt lat="39.4481985737" lon="-7.8085474670">
        <ele>296.70</ele>
        <time>2018-12-19T11:58:23Z</time>
      </trkpt>
      <trkpt lat="39.4481966458" lon="-7.8085507359">
        <ele>295.74</ele>
        <time>2018-12-19T11:58:52Z</time>
      </trkpt>
      <trkpt lat="39.4481982384" lon="-7.8085410967">
        <ele>296.70</ele>
        <time>2018-12-19T11:59:10Z</time>
      </trkpt>
      <trkpt lat="39.4481998309" lon="-7.8085431084">
        <ele>296.70</ele>
        <time>2018-12-19T11:59:28Z</time>
      </trkpt>
      <trkpt lat="39.4481936283" lon="-7.8085577767">
        <ele>296.22</ele>
        <time>2018-12-19T11:59:48Z</time>
      </trkpt>
      <trkpt lat="39.4481926225" lon="-7.8085541725">
        <ele>297.18</ele>
        <time>2018-12-19T12:00:14Z</time>
      </trkpt>
      <trkpt lat="39.4481898565" lon="-7.8085545078">
        <ele>297.18</ele>
        <time>2018-12-19T12:00:41Z</time>
      </trkpt>
      <trkpt lat="39.4481923711" lon="-7.8085572738">
        <ele>296.70</ele>
        <time>2018-12-19T12:01:03Z</time>
      </trkpt>
      <trkpt lat="39.4481876772" lon="-7.8085535020">
        <ele>296.22</ele>
        <time>2018-12-19T12:01:25Z</time>
      </trkpt>
      <trkpt lat="39.4481865875" lon="-7.8085552622">
        <ele>297.18</ele>
        <time>2018-12-19T12:01:45Z</time>
      </trkpt>
      <trkpt lat="39.4481867552" lon="-7.8085602913">
        <ele>296.22</ele>
        <time>2018-12-19T12:02:12Z</time>
      </trkpt>
      <trkpt lat="39.4481874257" lon="-7.8085610457">
        <ele>295.74</ele>
        <time>2018-12-19T12:02:32Z</time>
      </trkpt>
      <trkpt lat="39.4481917005" lon="-7.8085581958">
        <ele>296.22</ele>
        <time>2018-12-19T12:02:53Z</time>
      </trkpt>
      <trkpt lat="39.4481920358" lon="-7.8085514065">
        <ele>296.22</ele>
        <time>2018-12-19T12:03:11Z</time>
      </trkpt>
      <trkpt lat="39.4481890183" lon="-7.8085534181">
        <ele>296.22</ele>
        <time>2018-12-19T12:03:35Z</time>
      </trkpt>
      <trkpt lat="39.4481993280" lon="-7.8085489757">
        <ele>296.70</ele>
        <time>2018-12-19T12:03:59Z</time>
      </trkpt>
      <trkpt lat="39.4482030161" lon="-7.8085578606">
        <ele>296.70</ele>
        <time>2018-12-19T12:04:25Z</time>
      </trkpt>
      <trkpt lat="39.4482038543" lon="-7.8085519094">
        <ele>296.22</ele>
        <time>2018-12-19T12:04:51Z</time>
      </trkpt>
      <trkpt lat="39.4481991604" lon="-7.8085593693">
        <ele>296.22</ele>
        <time>2018-12-19T12:05:12Z</time>
      </trkpt>
      <trkpt lat="39.4481976517" lon="-7.8085523285">
        <ele>296.22</ele>
        <time>2018-12-19T12:05:34Z</time>
      </trkpt>
      <trkpt lat="39.4482008368" lon="-7.8085607104">
        <ele>295.26</ele>
        <time>2018-12-19T12:05:59Z</time>
      </trkpt>
      <trkpt lat="39.4482006691" lon="-7.8085511550">
        <ele>296.22</ele>
        <time>2018-12-19T12:06:23Z</time>
      </trkpt>
      <trkpt lat="39.4481965620" lon="-7.8085514065">
        <ele>295.74</ele>
        <time>2018-12-19T12:06:51Z</time>
      </trkpt>
      <trkpt lat="39.4481944665" lon="-7.8085549269">
        <ele>296.22</ele>
        <time>2018-12-19T12:07:17Z</time>
      </trkpt>
      <trkpt lat="39.4481983222" lon="-7.8085589502">
        <ele>296.22</ele>
        <time>2018-12-19T12:07:38Z</time>
      </trkpt>
      <trkpt lat="39.4482034352" lon="-7.8085570224">
        <ele>296.22</ele>
        <time>2018-12-19T12:08:09Z</time>
      </trkpt>
      <trkpt lat="39.4482006691" lon="-7.8085555136">
        <ele>296.22</ele>
        <time>2018-12-19T12:08:37Z</time>
      </trkpt>
      <trkpt lat="39.4482099731" lon="-7.8085481375">
        <ele>295.74</ele>
        <time>2018-12-19T12:09:08Z</time>
      </trkpt>
      <trkpt lat="39.4482014235" lon="-7.8085513227">
        <ele>296.22</ele>
        <time>2018-12-19T12:09:23Z</time>
      </trkpt>
      <trkpt lat="39.4481945504" lon="-7.8085523285">
        <ele>296.22</ele>
        <time>2018-12-19T12:09:43Z</time>
      </trkpt>
      <trkpt lat="39.4482010044" lon="-7.8085472155">
        <ele>296.22</ele>
        <time>2018-12-19T12:10:06Z</time>
      </trkpt>
      <trkpt lat="39.4482133258" lon="-7.8085491434">
        <ele>296.22</ele>
        <time>2018-12-19T12:10:34Z</time>
      </trkpt>
      <trkpt lat="39.4482049439" lon="-7.8085525800">
        <ele>295.74</ele>
        <time>2018-12-19T12:10:57Z</time>
      </trkpt>
      <trkpt lat="39.4482056983" lon="-7.8085548431">
        <ele>295.74</ele>
        <time>2018-12-19T12:11:19Z</time>
      </trkpt>
      <trkpt lat="39.4482060336" lon="-7.8085571062">
        <ele>295.74</ele>
        <time>2018-12-19T12:11:44Z</time>
      </trkpt>
      <trkpt lat="39.4482136611" lon="-7.8085493948">
        <ele>296.22</ele>
        <time>2018-12-19T12:12:07Z</time>
      </trkpt>
      <trkpt lat="39.4482047763" lon="-7.8085498977">
        <ele>296.70</ele>
        <time>2018-12-19T12:12:29Z</time>
      </trkpt>
      <trkpt lat="39.4482046086" lon="-7.8085486405">
        <ele>295.74</ele>
        <time>2018-12-19T12:12:54Z</time>
      </trkpt>
      <trkpt lat="39.4482101407" lon="-7.8085467126">
        <ele>295.74</ele>
        <time>2018-12-19T12:13:15Z</time>
      </trkpt>
      <trkpt lat="39.4482089672" lon="-7.8085491434">
        <ele>296.22</ele>
        <time>2018-12-19T12:13:28Z</time>
      </trkpt>
      <trkpt lat="39.4482100569" lon="-7.8085414320">
        <ele>296.22</ele>
        <time>2018-12-19T12:13:51Z</time>
      </trkpt>
      <trkpt lat="39.4482095540" lon="-7.8085449524">
        <ele>296.22</ele>
        <time>2018-12-19T12:14:14Z</time>
      </trkpt>
      <trkpt lat="39.4482050277" lon="-7.8085466288">
        <ele>296.22</ele>
        <time>2018-12-19T12:14:36Z</time>
      </trkpt>
      <trkpt lat="39.4481971487" lon="-7.8085455392">
        <ele>296.22</ele>
        <time>2018-12-19T12:14:50Z</time>
      </trkpt>
      <trkpt lat="39.4481979869" lon="-7.8085506521">
        <ele>296.70</ele>
        <time>2018-12-19T12:15:17Z</time>
      </trkpt>
      <trkpt lat="39.4481950533" lon="-7.8085458744">
        <ele>300.07</ele>
        <time>2018-12-19T12:15:29Z</time>
      </trkpt>
      <trkpt lat="39.4481951371" lon="-7.8085451201">
        <ele>298.15</ele>
        <time>2018-12-19T12:15:30Z</time>
      </trkpt>
      <trkpt lat="39.4481883477" lon="-7.8085467964">
        <ele>296.22</ele>
        <time>2018-12-19T12:15:36Z</time>
      </trkpt>
      <trkpt lat="39.4481878448" lon="-7.8085462097">
        <ele>297.18</ele>
        <time>2018-12-19T12:15:38Z</time>
      </trkpt>
      <trkpt lat="39.4481796306" lon="-7.8085393365">
        <ele>298.15</ele>
        <time>2018-12-19T12:15:45Z</time>
      </trkpt>
      <trkpt lat="39.4481806364" lon="-7.8085482214">
        <ele>301.51</ele>
        <time>2018-12-19T12:15:48Z</time>
      </trkpt>
      <trkpt lat="39.4481817260" lon="-7.8085555136">
        <ele>298.15</ele>
        <time>2018-12-19T12:15:49Z</time>
      </trkpt>
      <trkpt lat="39.4481841568" lon="-7.8085617162">
        <ele>297.18</ele>
        <time>2018-12-19T12:16:00Z</time>
      </trkpt>
      <trkpt lat="39.4481792953" lon="-7.8085700143">
        <ele>297.18</ele>
        <time>2018-12-19T12:16:13Z</time>
      </trkpt>
      <trkpt lat="39.4481782056" lon="-7.8085677512">
        <ele>295.26</ele>
        <time>2018-12-19T12:16:25Z</time>
      </trkpt>
      <trkpt lat="39.4481817260" lon="-7.8085713554">
        <ele>301.99</ele>
        <time>2018-12-19T12:16:29Z</time>
      </trkpt>
      <trkpt lat="39.4481814746" lon="-7.8085685894">
        <ele>298.15</ele>
        <time>2018-12-19T12:16:30Z</time>
      </trkpt>
      <trkpt lat="39.4481749367" lon="-7.8085951600">
        <ele>297.18</ele>
        <time>2018-12-19T12:16:35Z</time>
      </trkpt>
      <trkpt lat="39.4481862523" lon="-7.8086506482">
        <ele>296.70</ele>
        <time>2018-12-19T12:16:41Z</time>
      </trkpt>
      <trkpt lat="39.4482236356" lon="-7.8087114170">
        <ele>296.70</ele>
        <time>2018-12-19T12:16:49Z</time>
      </trkpt>
      <trkpt lat="39.4482578337" lon="-7.8087695874">
        <ele>296.70</ele>
        <time>2018-12-19T12:16:57Z</time>
      </trkpt>
      <trkpt lat="39.4483082928" lon="-7.8088447731">
        <ele>297.18</ele>
        <time>2018-12-19T12:17:06Z</time>
      </trkpt>
      <trkpt lat="39.4483432453" lon="-7.8089508042">
        <ele>295.74</ele>
        <time>2018-12-19T12:17:15Z</time>
      </trkpt>
      <trkpt lat="39.4483859930" lon="-7.8090325277">
        <ele>296.70</ele>
        <time>2018-12-19T12:17:25Z</time>
      </trkpt>
      <trkpt lat="39.4483984821" lon="-7.8090673126">
        <ele>296.70</ele>
        <time>2018-12-19T12:17:33Z</time>
      </trkpt>
      <trkpt lat="39.4484340213" lon="-7.8091435879">
        <ele>296.70</ele>
        <time>2018-12-19T12:17:42Z</time>
      </trkpt>
      <trkpt lat="39.4484677166" lon="-7.8092383035">
        <ele>296.70</ele>
        <time>2018-12-19T12:17:49Z</time>
      </trkpt>
      <trkpt lat="39.4485226180" lon="-7.8093494475">
        <ele>296.70</ele>
        <time>2018-12-19T12:17:58Z</time>
      </trkpt>
      <trkpt lat="39.4485293236" lon="-7.8093616012">
        <ele>297.18</ele>
        <time>2018-12-19T12:17:59Z</time>
      </trkpt>
      <trkpt lat="39.4485678803" lon="-7.8094835579">
        <ele>296.22</ele>
        <time>2018-12-19T12:18:08Z</time>
      </trkpt>
      <trkpt lat="39.4485813752" lon="-7.8095247131">
        <ele>297.18</ele>
        <time>2018-12-19T12:18:11Z</time>
      </trkpt>
      <trkpt lat="39.4486186747" lon="-7.8095942829">
        <ele>296.70</ele>
        <time>2018-12-19T12:18:17Z</time>
      </trkpt>
      <trkpt lat="39.4486791920" lon="-7.8097197600">
        <ele>296.70</ele>
        <time>2018-12-19T12:18:27Z</time>
      </trkpt>
      <trkpt lat="39.4486828800" lon="-7.8097314108">
        <ele>297.18</ele>
        <time>2018-12-19T12:18:28Z</time>
      </trkpt>
      <trkpt lat="39.4487282261" lon="-7.8098558821">
        <ele>296.70</ele>
        <time>2018-12-19T12:18:38Z</time>
      </trkpt>
      <trkpt lat="39.4487750810" lon="-7.8100136295">
        <ele>297.18</ele>
        <time>2018-12-19T12:18:50Z</time>
      </trkpt>
      <trkpt lat="39.4488317426" lon="-7.8101271205">
        <ele>296.70</ele>
        <time>2018-12-19T12:19:00Z</time>
      </trkpt>
      <trkpt lat="39.4488412142" lon="-7.8101504222">
        <ele>296.70</ele>
        <time>2018-12-19T12:19:02Z</time>
      </trkpt>
      <trkpt lat="39.4488945231" lon="-7.8102637455">
        <ele>296.70</ele>
        <time>2018-12-19T12:19:11Z</time>
      </trkpt>
      <trkpt lat="39.4489156455" lon="-7.8103145398">
        <ele>297.18</ele>
        <time>2018-12-19T12:19:15Z</time>
      </trkpt>
      <trkpt lat="39.4489651825" lon="-7.8104410227">
        <ele>296.70</ele>
        <time>2018-12-19T12:19:24Z</time>
      </trkpt>
      <trkpt lat="39.4490143005" lon="-7.8105741274">
        <ele>296.70</ele>
        <time>2018-12-19T12:19:34Z</time>
      </trkpt>
      <trkpt lat="39.4490681961" lon="-7.8106796555">
        <ele>296.70</ele>
        <time>2018-12-19T12:19:42Z</time>
      </trkpt>
      <trkpt lat="39.4490908273" lon="-7.8107682522">
        <ele>296.70</ele>
        <time>2018-12-19T12:19:48Z</time>
      </trkpt>
      <trkpt lat="39.4491543621" lon="-7.8108964115">
        <ele>297.18</ele>
        <time>2018-12-19T12:19:58Z</time>
      </trkpt>
      <trkpt lat="39.4491952658" lon="-7.8109990060">
        <ele>297.67</ele>
        <time>2018-12-19T12:20:07Z</time>
      </trkpt>
      <trkpt lat="39.4492438808" lon="-7.8111368883">
        <ele>297.18</ele>
        <time>2018-12-19T12:20:16Z</time>
      </trkpt>
      <trkpt lat="39.4492773246" lon="-7.8112490382">
        <ele>296.70</ele>
        <time>2018-12-19T12:20:24Z</time>
      </trkpt>
      <trkpt lat="39.4492819346" lon="-7.8113300074">
        <ele>297.18</ele>
        <time>2018-12-19T12:20:30Z</time>
      </trkpt>
      <trkpt lat="39.4492741395" lon="-7.8113939613">
        <ele>297.18</ele>
        <time>2018-12-19T12:20:34Z</time>
      </trkpt>
      <trkpt lat="39.4493231736" lon="-7.8115180973">
        <ele>296.22</ele>
        <time>2018-12-19T12:20:43Z</time>
      </trkpt>
      <trkpt lat="39.4493391830" lon="-7.8115936182">
        <ele>296.70</ele>
        <time>2018-12-19T12:20:48Z</time>
      </trkpt>
      <trkpt lat="39.4493687712" lon="-7.8116978891">
        <ele>297.18</ele>
        <time>2018-12-19T12:20:57Z</time>
      </trkpt>
      <trkpt lat="39.4493980240" lon="-7.8117288183">
        <ele>296.70</ele>
        <time>2018-12-19T12:21:01Z</time>
      </trkpt>
      <trkpt lat="39.4494402688" lon="-7.8118333407">
        <ele>297.67</ele>
        <time>2018-12-19T12:21:10Z</time>
      </trkpt>
      <trkpt lat="39.4494883809" lon="-7.8119184170">
        <ele>296.70</ele>
        <time>2018-12-19T12:21:18Z</time>
      </trkpt>
      <trkpt lat="39.4495406840" lon="-7.8120412119">
        <ele>297.18</ele>
        <time>2018-12-19T12:21:28Z</time>
      </trkpt>
      <trkpt lat="39.4495616388" lon="-7.8121311497">
        <ele>297.18</ele>
        <time>2018-12-19T12:21:35Z</time>
      </trkpt>
      <trkpt lat="39.4496119302" lon="-7.8122564591">
        <ele>297.18</ele>
        <time>2018-12-19T12:21:46Z</time>
      </trkpt>
      <trkpt lat="39.4496550970" lon="-7.8123547789">
        <ele>297.18</ele>
        <time>2018-12-19T12:21:54Z</time>
      </trkpt>
      <trkpt lat="39.4497158658" lon="-7.8124587145">
        <ele>296.70</ele>
        <time>2018-12-19T12:22:02Z</time>
      </trkpt>
      <trkpt lat="39.4497176260" lon="-7.8124706168">
        <ele>297.18</ele>
        <time>2018-12-19T12:22:03Z</time>
      </trkpt>
      <trkpt lat="39.4497695100" lon="-7.8125967644">
        <ele>297.67</ele>
        <time>2018-12-19T12:22:13Z</time>
      </trkpt>
      <trkpt lat="39.4498433545" lon="-7.8127455432">
        <ele>297.67</ele>
        <time>2018-12-19T12:22:25Z</time>
      </trkpt>
      <trkpt lat="39.4498946518" lon="-7.8128551785">
        <ele>297.67</ele>
        <time>2018-12-19T12:22:34Z</time>
      </trkpt>
      <trkpt lat="39.4499343820" lon="-7.8129611257">
        <ele>297.67</ele>
        <time>2018-12-19T12:22:43Z</time>
      </trkpt>
      <trkpt lat="39.4499953184" lon="-7.8130544163">
        <ele>297.67</ele>
        <time>2018-12-19T12:22:52Z</time>
      </trkpt>
      <trkpt lat="39.4500235654" lon="-7.8130827472">
        <ele>297.67</ele>
        <time>2018-12-19T12:22:59Z</time>
      </trkpt>
      <trkpt lat="39.4500942249" lon="-7.8131532390">
        <ele>297.18</ele>
        <time>2018-12-19T12:23:08Z</time>
      </trkpt>
      <trkpt lat="39.4501814805" lon="-7.8132083919">
        <ele>297.67</ele>
        <time>2018-12-19T12:23:17Z</time>
      </trkpt>
      <trkpt lat="39.4502167683" lon="-7.8132107388">
        <ele>298.15</ele>
        <time>2018-12-19T12:23:21Z</time>
      </trkpt>
      <trkpt lat="39.4502912834" lon="-7.8132700827">
        <ele>298.15</ele>
        <time>2018-12-19T12:23:29Z</time>
      </trkpt>
      <trkpt lat="39.4503962249" lon="-7.8133641277">
        <ele>297.67</ele>
        <time>2018-12-19T12:23:39Z</time>
      </trkpt>
      <trkpt lat="39.4504859950" lon="-7.8134358767">
        <ele>298.15</ele>
        <time>2018-12-19T12:23:48Z</time>
      </trkpt>
      <trkpt lat="39.4505738374" lon="-7.8135207854">
        <ele>297.67</ele>
        <time>2018-12-19T12:23:58Z</time>
      </trkpt>
      <trkpt lat="39.4506307505" lon="-7.8135279100">
        <ele>298.15</ele>
        <time>2018-12-19T12:24:04Z</time>
      </trkpt>
      <trkpt lat="39.4506408088" lon="-7.8135228809">
        <ele>298.63</ele>
        <time>2018-12-19T12:24:05Z</time>
      </trkpt>
      <trkpt lat="39.4506836403" lon="-7.8135307599">
        <ele>298.15</ele>
        <time>2018-12-19T12:24:09Z</time>
      </trkpt>
      <trkpt lat="39.4508133922" lon="-7.8136061970">
        <ele>297.67</ele>
        <time>2018-12-19T12:24:20Z</time>
      </trkpt>
      <trkpt lat="39.4509031624" lon="-7.8137084562">
        <ele>298.15</ele>
        <time>2018-12-19T12:24:30Z</time>
      </trkpt>
      <trkpt lat="39.4509682897" lon="-7.8137931135">
        <ele>298.15</ele>
        <time>2018-12-19T12:24:38Z</time>
      </trkpt>
      <trkpt lat="39.4510464091" lon="-7.8138589114">
        <ele>298.63</ele>
        <time>2018-12-19T12:24:46Z</time>
      </trkpt>
      <trkpt lat="39.4511173200" lon="-7.8139228653">
        <ele>297.67</ele>
        <time>2018-12-19T12:24:54Z</time>
      </trkpt>
      <trkpt lat="39.4512224291" lon="-7.8140335903">
        <ele>298.15</ele>
        <time>2018-12-19T12:25:05Z</time>
      </trkpt>
      <trkpt lat="39.4512826949" lon="-7.8141168226">
        <ele>298.15</ele>
        <time>2018-12-19T12:25:13Z</time>
      </trkpt>
      <trkpt lat="39.4513241854" lon="-7.8141643479">
        <ele>297.67</ele>
        <time>2018-12-19T12:25:20Z</time>
      </trkpt>
      <trkpt lat="39.4513770752" lon="-7.8142825328">
        <ele>298.15</ele>
        <time>2018-12-19T12:25:29Z</time>
      </trkpt>
      <trkpt lat="39.4513940066" lon="-7.8143899050">
        <ele>298.15</ele>
        <time>2018-12-19T12:25:36Z</time>
      </trkpt>
      <trkpt lat="39.4514229242" lon="-7.8145536035">
        <ele>297.67</ele>
        <time>2018-12-19T12:25:46Z</time>
      </trkpt>
      <trkpt lat="39.4514366705" lon="-7.8146142885">
        <ele>297.67</ele>
        <time>2018-12-19T12:25:53Z</time>
      </trkpt>
      <trkpt lat="39.4514351618" lon="-7.8146442119">
        <ele>298.15</ele>
        <time>2018-12-19T12:26:00Z</time>
      </trkpt>
      <trkpt lat="39.4514246006" lon="-7.8147695214">
        <ele>298.15</ele>
        <time>2018-12-19T12:26:08Z</time>
      </trkpt>
      <trkpt lat="39.4513870496" lon="-7.8149014525">
        <ele>297.67</ele>
        <time>2018-12-19T12:26:17Z</time>
      </trkpt>
      <trkpt lat="39.4513251074" lon="-7.8150513209">
        <ele>297.67</ele>
        <time>2018-12-19T12:26:27Z</time>
      </trkpt>
      <trkpt lat="39.4513204135" lon="-7.8150635585">
        <ele>297.67</ele>
        <time>2018-12-19T12:26:28Z</time>
      </trkpt>
      <trkpt lat="39.4512723014" lon="-7.8152249940">
        <ele>297.18</ele>
        <time>2018-12-19T12:26:39Z</time>
      </trkpt>
      <trkpt lat="39.4512365106" lon="-7.8153353836">
        <ele>297.67</ele>
        <time>2018-12-19T12:26:47Z</time>
      </trkpt>
      <trkpt lat="39.4512028992" lon="-7.8154630400">
        <ele>297.18</ele>
        <time>2018-12-19T12:26:56Z</time>
      </trkpt>
      <trkpt lat="39.4512030669" lon="-7.8155116551">
        <ele>297.18</ele>
        <time>2018-12-19T12:27:00Z</time>
      </trkpt>
      <trkpt lat="39.4512017258" lon="-7.8155408241">
        <ele>298.15</ele>
        <time>2018-12-19T12:27:02Z</time>
      </trkpt>
      <trkpt lat="39.4511957746" lon="-7.8156646248">
        <ele>297.67</ele>
        <time>2018-12-19T12:27:10Z</time>
      </trkpt>
      <trkpt lat="39.4511704613" lon="-7.8158030938">
        <ele>297.18</ele>
        <time>2018-12-19T12:27:20Z</time>
      </trkpt>
      <trkpt lat="39.4511304796" lon="-7.8159449995">
        <ele>297.18</ele>
        <time>2018-12-19T12:27:29Z</time>
      </trkpt>
      <trkpt lat="39.4511031546" lon="-7.8160838038">
        <ele>301.03</ele>
        <time>2018-12-19T12:27:38Z</time>
      </trkpt>
      <trkpt lat="39.4510993827" lon="-7.8160976339">
        <ele>301.03</ele>
        <time>2018-12-19T12:27:39Z</time>
      </trkpt>
      <trkpt lat="39.4510948565" lon="-7.8161092009">
        <ele>297.18</ele>
        <time>2018-12-19T12:27:40Z</time>
      </trkpt>
      <trkpt lat="39.4510474149" lon="-7.8162330016">
        <ele>296.70</ele>
        <time>2018-12-19T12:27:49Z</time>
      </trkpt>
      <trkpt lat="39.4510145579" lon="-7.8163810261">
        <ele>296.70</ele>
        <time>2018-12-19T12:27:59Z</time>
      </trkpt>
      <trkpt lat="39.4509728160" lon="-7.8165122028">
        <ele>296.22</ele>
        <time>2018-12-19T12:28:09Z</time>
      </trkpt>
      <trkpt lat="39.4509296492" lon="-7.8166440502">
        <ele>293.34</ele>
        <time>2018-12-19T12:28:19Z</time>
      </trkpt>
      <trkpt lat="39.4508977141" lon="-7.8167479858">
        <ele>294.30</ele>
        <time>2018-12-19T12:28:29Z</time>
      </trkpt>
      <trkpt lat="39.4508593250" lon="-7.8168664221">
        <ele>294.78</ele>
        <time>2018-12-19T12:28:38Z</time>
      </trkpt>
      <trkpt lat="39.4508076087" lon="-7.8170035500">
        <ele>294.78</ele>
        <time>2018-12-19T12:28:46Z</time>
      </trkpt>
      <trkpt lat="39.4507578202" lon="-7.8171471320">
        <ele>294.30</ele>
        <time>2018-12-19T12:28:55Z</time>
      </trkpt>
      <trkpt lat="39.4507466722" lon="-7.8173007723">
        <ele>294.78</ele>
        <time>2018-12-19T12:29:05Z</time>
      </trkpt>
      <trkpt lat="39.4507436547" lon="-7.8173762094">
        <ele>295.26</ele>
        <time>2018-12-19T12:29:10Z</time>
      </trkpt>
      <trkpt lat="39.4506983086" lon="-7.8175054584">
        <ele>296.22</ele>
        <time>2018-12-19T12:29:19Z</time>
      </trkpt>
      <trkpt lat="39.4506874122" lon="-7.8175538220">
        <ele>296.22</ele>
        <time>2018-12-19T12:29:26Z</time>
      </trkpt>
      <trkpt lat="39.4506908488" lon="-7.8175498825">
        <ele>296.22</ele>
        <time>2018-12-19T12:29:37Z</time>
      </trkpt>
      <trkpt lat="39.4506895915" lon="-7.8175551631">
        <ele>295.74</ele>
        <time>2018-12-19T12:29:38Z</time>
      </trkpt>
      <trkpt lat="39.4506543875" lon="-7.8176371381">
        <ele>295.74</ele>
        <time>2018-12-19T12:29:44Z</time>
      </trkpt>
      <trkpt lat="39.4506175071" lon="-7.8177979030">
        <ele>296.70</ele>
        <time>2018-12-19T12:29:54Z</time>
      </trkpt>
      <trkpt lat="39.4505806267" lon="-7.8179127350">
        <ele>297.18</ele>
        <time>2018-12-19T12:30:02Z</time>
      </trkpt>
      <trkpt lat="39.4505405612" lon="-7.8180648666">
        <ele>296.22</ele>
        <time>2018-12-19T12:30:12Z</time>
      </trkpt>
      <trkpt lat="39.4505197741" lon="-7.8181075305">
        <ele>297.18</ele>
        <time>2018-12-19T12:30:15Z</time>
      </trkpt>
      <trkpt lat="39.4504876714" lon="-7.8182509448">
        <ele>296.22</ele>
        <time>2018-12-19T12:30:24Z</time>
      </trkpt>
      <trkpt lat="39.4504785351" lon="-7.8183015715">
        <ele>296.22</ele>
        <time>2018-12-19T12:30:27Z</time>
      </trkpt>
      <trkpt lat="39.4504269864" lon="-7.8184199240">
        <ele>294.30</ele>
        <time>2018-12-19T12:30:36Z</time>
      </trkpt>
      <trkpt lat="39.4504105579" lon="-7.8184607439">
        <ele>296.22</ele>
        <time>2018-12-19T12:30:39Z</time>
      </trkpt>
      <trkpt lat="39.4503937103" lon="-7.8185966983">
        <ele>295.74</ele>
        <time>2018-12-19T12:30:47Z</time>
      </trkpt>
      <trkpt lat="39.4503563270" lon="-7.8187678568">
        <ele>295.74</ele>
        <time>2018-12-19T12:30:58Z</time>
      </trkpt>
      <trkpt lat="39.4503332768" lon="-7.8189012967">
        <ele>295.26</ele>
        <time>2018-12-19T12:31:07Z</time>
      </trkpt>
      <trkpt lat="39.4502850808" lon="-7.8190369997">
        <ele>295.26</ele>
        <time>2018-12-19T12:31:17Z</time>
      </trkpt>
      <trkpt lat="39.4502536487" lon="-7.8191861138">
        <ele>295.26</ele>
        <time>2018-12-19T12:31:27Z</time>
      </trkpt>
      <trkpt lat="39.4502238091" lon="-7.8193220682">
        <ele>295.26</ele>
        <time>2018-12-19T12:31:37Z</time>
      </trkpt>
      <trkpt lat="39.4501829054" lon="-7.8194653988">
        <ele>294.78</ele>
        <time>2018-12-19T12:31:46Z</time>
      </trkpt>
      <trkpt lat="39.4501123298" lon="-7.8196567576">
        <ele>295.26</ele>
        <time>2018-12-19T12:31:57Z</time>
      </trkpt>
      <trkpt lat="39.4500635471" lon="-7.8198134992">
        <ele>293.82</ele>
        <time>2018-12-19T12:32:07Z</time>
      </trkpt>
      <trkpt lat="39.4500333723" lon="-7.8199780360">
        <ele>294.78</ele>
        <time>2018-12-19T12:32:17Z</time>
      </trkpt>
      <trkpt lat="39.4499964081" lon="-7.8201503679">
        <ele>294.30</ele>
        <time>2018-12-19T12:32:27Z</time>
      </trkpt>
      <trkpt lat="39.4499521516" lon="-7.8202958778">
        <ele>293.34</ele>
        <time>2018-12-19T12:32:35Z</time>
      </trkpt>
      <trkpt lat="39.4499302749" lon="-7.8203739133">
        <ele>293.34</ele>
        <time>2018-12-19T12:32:40Z</time>
      </trkpt>
      <trkpt lat="39.4498567656" lon="-7.8205785155">
        <ele>293.82</ele>
        <time>2018-12-19T12:32:53Z</time>
      </trkpt>
      <trkpt lat="39.4498149399" lon="-7.8207135480">
        <ele>293.82</ele>
        <time>2018-12-19T12:33:02Z</time>
      </trkpt>
      <trkpt lat="39.4497960806" lon="-7.8208118677">
        <ele>293.34</ele>
        <time>2018-12-19T12:33:08Z</time>
      </trkpt>
      <trkpt lat="39.4497491419" lon="-7.8209687769">
        <ele>292.86</ele>
        <time>2018-12-19T12:33:18Z</time>
      </trkpt>
      <trkpt lat="39.4496820867" lon="-7.8211166337">
        <ele>292.86</ele>
        <time>2018-12-19T12:33:28Z</time>
      </trkpt>
      <trkpt lat="39.4496504869" lon="-7.8212970961">
        <ele>293.34</ele>
        <time>2018-12-19T12:33:39Z</time>
      </trkpt>
      <trkpt lat="39.4496025424" lon="-7.8214439470">
        <ele>293.34</ele>
        <time>2018-12-19T12:33:49Z</time>
      </trkpt>
      <trkpt lat="39.4495767262" lon="-7.8216032870">
        <ele>293.34</ele>
        <time>2018-12-19T12:33:59Z</time>
      </trkpt>
      <trkpt lat="39.4495359063" lon="-7.8217128385">
        <ele>292.86</ele>
        <time>2018-12-19T12:34:06Z</time>
      </trkpt>
      <trkpt lat="39.4494702760" lon="-7.8218759503">
        <ele>293.34</ele>
        <time>2018-12-19T12:34:16Z</time>
      </trkpt>
      <trkpt lat="39.4494230859" lon="-7.8220160957">
        <ele>293.34</ele>
        <time>2018-12-19T12:34:25Z</time>
      </trkpt>
      <trkpt lat="39.4493624009" lon="-7.8221678920">
        <ele>292.38</ele>
        <time>2018-12-19T12:34:36Z</time>
      </trkpt>
      <trkpt lat="39.4493272807" lon="-7.8222940397">
        <ele>292.86</ele>
        <time>2018-12-19T12:34:45Z</time>
      </trkpt>
      <trkpt lat="39.4492982794" lon="-7.8224646114">
        <ele>292.38</ele>
        <time>2018-12-19T12:34:56Z</time>
      </trkpt>
      <trkpt lat="39.4492400251" lon="-7.8226343449">
        <ele>292.38</ele>
        <time>2018-12-19T12:35:07Z</time>
      </trkpt>
      <trkpt lat="39.4491896499" lon="-7.8227689583">
        <ele>292.38</ele>
        <time>2018-12-19T12:35:16Z</time>
      </trkpt>
      <trkpt lat="39.4491510931" lon="-7.8229069244">
        <ele>293.34</ele>
        <time>2018-12-19T12:35:25Z</time>
      </trkpt>
      <trkpt lat="39.4491166435" lon="-7.8230782505">
        <ele>293.34</ele>
        <time>2018-12-19T12:35:36Z</time>
      </trkpt>
      <trkpt lat="39.4490739796" lon="-7.8232168034">
        <ele>292.38</ele>
        <time>2018-12-19T12:35:45Z</time>
      </trkpt>
      <trkpt lat="39.4490497559" lon="-7.8233626485">
        <ele>292.86</ele>
        <time>2018-12-19T12:35:54Z</time>
      </trkpt>
      <trkpt lat="39.4490178209" lon="-7.8235285264">
        <ele>293.34</ele>
        <time>2018-12-19T12:36:05Z</time>
      </trkpt>
      <trkpt lat="39.4489769172" lon="-7.8236742038">
        <ele>293.34</ele>
        <time>2018-12-19T12:36:14Z</time>
      </trkpt>
      <trkpt lat="39.4489498436" lon="-7.8238149360">
        <ele>293.34</ele>
        <time>2018-12-19T12:36:23Z</time>
      </trkpt>
      <trkpt lat="39.4488879014" lon="-7.8240033612">
        <ele>292.86</ele>
        <time>2018-12-19T12:36:35Z</time>
      </trkpt>
      <trkpt lat="39.4488482550" lon="-7.8241549898">
        <ele>292.86</ele>
        <time>2018-12-19T12:36:45Z</time>
      </trkpt>
      <trkpt lat="39.4487971254" lon="-7.8243250586">
        <ele>292.86</ele>
        <time>2018-12-19T12:36:56Z</time>
      </trkpt>
      <trkpt lat="39.4487777632" lon="-7.8244384658">
        <ele>292.38</ele>
        <time>2018-12-19T12:37:04Z</time>
      </trkpt>
      <trkpt lat="39.4487347640" lon="-7.8245415632">
        <ele>291.90</ele>
        <time>2018-12-19T12:37:12Z</time>
      </trkpt>
      <trkpt lat="39.4486957043" lon="-7.8247033339">
        <ele>291.42</ele>
        <time>2018-12-19T12:37:23Z</time>
      </trkpt>
      <trkpt lat="39.4486622605" lon="-7.8248624224">
        <ele>291.42</ele>
        <time>2018-12-19T12:37:33Z</time>
      </trkpt>
      <trkpt lat="39.4486022461" lon="-7.8250532784">
        <ele>289.97</ele>
        <time>2018-12-19T12:37:45Z</time>
      </trkpt>
      <trkpt lat="39.4485652819" lon="-7.8251847904">
        <ele>289.97</ele>
        <time>2018-12-19T12:37:53Z</time>
      </trkpt>
      <trkpt lat="39.4485084526" lon="-7.8253076691">
        <ele>289.97</ele>
        <time>2018-12-19T12:38:02Z</time>
      </trkpt>
      <trkpt lat="39.4484724104" lon="-7.8254340682">
        <ele>289.97</ele>
        <time>2018-12-19T12:38:11Z</time>
      </trkpt>
      <trkpt lat="39.4484425709" lon="-7.8254567832">
        <ele>289.49</ele>
        <time>2018-12-19T12:38:15Z</time>
      </trkpt>
      <trkpt lat="39.4484195206" lon="-7.8254771512">
        <ele>289.97</ele>
        <time>2018-12-19T12:38:18Z</time>
      </trkpt>
      <trkpt lat="39.4484056067" lon="-7.8254974354">
        <ele>289.49</ele>
        <time>2018-12-19T12:38:20Z</time>
      </trkpt>
      <trkpt lat="39.4483706541" lon="-7.8255186416">
        <ele>289.49</ele>
        <time>2018-12-19T12:38:24Z</time>
      </trkpt>
      <trkpt lat="39.4483354501" lon="-7.8255396802">
        <ele>289.49</ele>
        <time>2018-12-19T12:38:29Z</time>
      </trkpt>
      <trkpt lat="39.4483215362" lon="-7.8256725334">
        <ele>289.01</ele>
        <time>2018-12-19T12:38:37Z</time>
      </trkpt>
      <trkpt lat="39.4483030122" lon="-7.8257692605">
        <ele>289.49</ele>
        <time>2018-12-19T12:38:44Z</time>
      </trkpt>
      <trkpt lat="39.4483043533" lon="-7.8257825039">
        <ele>289.01</ele>
        <time>2018-12-19T12:38:45Z</time>
      </trkpt>
      <trkpt lat="39.4482896011" lon="-7.8258791473">
        <ele>289.49</ele>
        <time>2018-12-19T12:38:52Z</time>
      </trkpt>
      <trkpt lat="39.4482951332" lon="-7.8258888703">
        <ele>289.49</ele>
        <time>2018-12-19T12:38:53Z</time>
      </trkpt>
      <trkpt lat="39.4483180996" lon="-7.8260361403">
        <ele>289.49</ele>
        <time>2018-12-19T12:39:02Z</time>
      </trkpt>
      <trkpt lat="39.4482959714" lon="-7.8261872660">
        <ele>289.01</ele>
        <time>2018-12-19T12:39:12Z</time>
      </trkpt>
      <trkpt lat="39.4482256472" lon="-7.8263522219">
        <ele>289.01</ele>
        <time>2018-12-19T12:39:23Z</time>
      </trkpt>
      <trkpt lat="39.4481833186" lon="-7.8265129868">
        <ele>289.97</ele>
        <time>2018-12-19T12:39:33Z</time>
      </trkpt>
      <trkpt lat="39.4481084682" lon="-7.8266531322">
        <ele>289.97</ele>
        <time>2018-12-19T12:39:43Z</time>
      </trkpt>
      <trkpt lat="39.4480585121" lon="-7.8268128913">
        <ele>289.49</ele>
        <time>2018-12-19T12:39:53Z</time>
      </trkpt>
      <trkpt lat="39.4480029400" lon="-7.8269666154">
        <ele>289.49</ele>
        <time>2018-12-19T12:40:03Z</time>
      </trkpt>
      <trkpt lat="39.4479596056" lon="-7.8271142207">
        <ele>290.46</ele>
        <time>2018-12-19T12:40:12Z</time>
      </trkpt>
      <trkpt lat="39.4479269162" lon="-7.8272621613">
        <ele>289.97</ele>
        <time>2018-12-19T12:40:21Z</time>
      </trkpt>
      <trkpt lat="39.4479295984" lon="-7.8273400292">
        <ele>290.46</ele>
        <time>2018-12-19T12:40:26Z</time>
      </trkpt>
      <trkpt lat="39.4478777144" lon="-7.8275525104">
        <ele>289.97</ele>
        <time>2018-12-19T12:40:39Z</time>
      </trkpt>
      <trkpt lat="39.4478317816" lon="-7.8276867047">
        <ele>290.46</ele>
        <time>2018-12-19T12:40:48Z</time>
      </trkpt>
      <trkpt lat="39.4477882795" lon="-7.8278434463">
        <ele>289.97</ele>
        <time>2018-12-19T12:40:58Z</time>
      </trkpt>
      <trkpt lat="39.4477416761" lon="-7.8279935662">
        <ele>290.94</ele>
        <time>2018-12-19T12:41:08Z</time>
      </trkpt>
      <trkpt lat="39.4476813264" lon="-7.8281204682">
        <ele>290.46</ele>
        <time>2018-12-19T12:41:17Z</time>
      </trkpt>
      <trkpt lat="39.4476448651" lon="-7.8282900341">
        <ele>290.94</ele>
        <time>2018-12-19T12:41:27Z</time>
      </trkpt>
      <trkpt lat="39.4476026203" lon="-7.8284684848">
        <ele>290.94</ele>
        <time>2018-12-19T12:41:38Z</time>
      </trkpt>
      <trkpt lat="39.4475492276" lon="-7.8286070377">
        <ele>290.46</ele>
        <time>2018-12-19T12:41:47Z</time>
      </trkpt>
      <trkpt lat="39.4475230761" lon="-7.8287655395">
        <ele>291.42</ele>
        <time>2018-12-19T12:41:57Z</time>
      </trkpt>
      <trkpt lat="39.4474559370" lon="-7.8289403021">
        <ele>290.94</ele>
        <time>2018-12-19T12:42:08Z</time>
      </trkpt>
      <trkpt lat="39.4474468846" lon="-7.8290717304">
        <ele>291.42</ele>
        <time>2018-12-19T12:42:16Z</time>
      </trkpt>
      <trkpt lat="39.4474201463" lon="-7.8292351775">
        <ele>291.42</ele>
        <time>2018-12-19T12:42:26Z</time>
      </trkpt>
      <trkpt lat="39.4473646581" lon="-7.8293791786">
        <ele>291.90</ele>
        <time>2018-12-19T12:42:35Z</time>
      </trkpt>
      <trkpt lat="39.4473316334" lon="-7.8295337409">
        <ele>292.38</ele>
        <time>2018-12-19T12:42:45Z</time>
      </trkpt>
      <trkpt lat="39.4472855330" lon="-7.8296930809">
        <ele>291.90</ele>
        <time>2018-12-19T12:42:55Z</time>
      </trkpt>
      <trkpt lat="39.4472526759" lon="-7.8298144508">
        <ele>291.42</ele>
        <time>2018-12-19T12:43:03Z</time>
      </trkpt>
      <trkpt lat="39.4472147059" lon="-7.8299662471">
        <ele>291.42</ele>
        <time>2018-12-19T12:43:13Z</time>
      </trkpt>
      <trkpt lat="39.4471447170" lon="-7.8301154450">
        <ele>291.90</ele>
        <time>2018-12-19T12:43:24Z</time>
      </trkpt>
      <trkpt lat="39.4470904022" lon="-7.8302714322">
        <ele>291.42</ele>
        <time>2018-12-19T12:43:34Z</time>
      </trkpt>
      <trkpt lat="39.4470360875" lon="-7.8304166906">
        <ele>291.90</ele>
        <time>2018-12-19T12:43:44Z</time>
      </trkpt>
      <trkpt lat="39.4470199104" lon="-7.8305448499">
        <ele>290.94</ele>
        <time>2018-12-19T12:43:52Z</time>
      </trkpt>
      <trkpt lat="39.4469737262" lon="-7.8306768648">
        <ele>290.94</ele>
        <time>2018-12-19T12:44:01Z</time>
      </trkpt>
      <trkpt lat="39.4469484128" lon="-7.8308023419">
        <ele>290.46</ele>
        <time>2018-12-19T12:44:09Z</time>
      </trkpt>
      <trkpt lat="39.4469241891" lon="-7.8309392184">
        <ele>290.46</ele>
        <time>2018-12-19T12:44:17Z</time>
      </trkpt>
      <trkpt lat="39.4468842074" lon="-7.8310734127">
        <ele>289.49</ele>
        <time>2018-12-19T12:44:26Z</time>
      </trkpt>
      <trkpt lat="39.4468524400" lon="-7.8312432300">
        <ele>289.49</ele>
        <time>2018-12-19T12:44:36Z</time>
      </trkpt>
      <trkpt lat="39.4468097761" lon="-7.8314028215">
        <ele>288.53</ele>
        <time>2018-12-19T12:44:45Z</time>
      </trkpt>
      <trkpt lat="39.4467530306" lon="-7.8315505106">
        <ele>288.53</ele>
        <time>2018-12-19T12:44:55Z</time>
      </trkpt>
      <trkpt lat="39.4467050023" lon="-7.8316978645">
        <ele>288.05</ele>
        <time>2018-12-19T12:45:04Z</time>
      </trkpt>
      <trkpt lat="39.4466723129" lon="-7.8318305500">
        <ele>287.57</ele>
        <time>2018-12-19T12:45:13Z</time>
      </trkpt>
      <trkpt lat="39.4466596562" lon="-7.8318603057">
        <ele>287.09</ele>
        <time>2018-12-19T12:45:15Z</time>
      </trkpt>
      <trkpt lat="39.4466187526" lon="-7.8320069052">
        <ele>285.65</ele>
        <time>2018-12-19T12:45:25Z</time>
      </trkpt>
      <trkpt lat="39.4465714786" lon="-7.8321563546">
        <ele>284.69</ele>
        <time>2018-12-19T12:45:35Z</time>
      </trkpt>
      <trkpt lat="39.4465274736" lon="-7.8323557600">
        <ele>284.21</ele>
        <time>2018-12-19T12:45:47Z</time>
      </trkpt>
      <trkpt lat="39.4464830495" lon="-7.8324513976">
        <ele>283.73</ele>
        <time>2018-12-19T12:45:54Z</time>
      </trkpt>
      <trkpt lat="39.4464456663" lon="-7.8325748630">
        <ele>284.69</ele>
        <time>2018-12-19T12:46:02Z</time>
      </trkpt>
      <trkpt lat="39.4463862386" lon="-7.8327055369">
        <ele>284.21</ele>
        <time>2018-12-19T12:46:11Z</time>
      </trkpt>
      <trkpt lat="39.4463751744" lon="-7.8328047786">
        <ele>285.17</ele>
        <time>2018-12-19T12:46:19Z</time>
      </trkpt>
      <trkpt lat="39.4463714026" lon="-7.8328611050">
        <ele>286.61</ele>
        <time>2018-12-19T12:46:23Z</time>
      </trkpt>
      <trkpt lat="39.4463269785" lon="-7.8330289107">
        <ele>287.09</ele>
        <time>2018-12-19T12:46:34Z</time>
      </trkpt>
      <trkpt lat="39.4462704007" lon="-7.8331742529">
        <ele>288.05</ele>
        <time>2018-12-19T12:46:44Z</time>
      </trkpt>
      <trkpt lat="39.4462389685" lon="-7.8333131410">
        <ele>287.57</ele>
        <time>2018-12-19T12:46:53Z</time>
      </trkpt>
      <trkpt lat="39.4461823907" lon="-7.8334603272">
        <ele>287.57</ele>
        <time>2018-12-19T12:47:03Z</time>
      </trkpt>
      <trkpt lat="39.4461459294" lon="-7.8336366825">
        <ele>288.05</ele>
        <time>2018-12-19T12:47:14Z</time>
      </trkpt>
      <trkpt lat="39.4460976496" lon="-7.8338084277">
        <ele>287.57</ele>
        <time>2018-12-19T12:47:25Z</time>
      </trkpt>
      <trkpt lat="39.4460654631" lon="-7.8339635767">
        <ele>286.61</ele>
        <time>2018-12-19T12:47:35Z</time>
      </trkpt>
      <trkpt lat="39.4460254814" lon="-7.8341334779">
        <ele>284.69</ele>
        <time>2018-12-19T12:47:45Z</time>
      </trkpt>
      <trkpt lat="39.4460025150" lon="-7.8342157882">
        <ele>286.61</ele>
        <time>2018-12-19T12:47:53Z</time>
      </trkpt>
      <trkpt lat="39.4459637906" lon="-7.8343516588">
        <ele>288.05</ele>
        <time>2018-12-19T12:48:02Z</time>
      </trkpt>
      <trkpt lat="39.4459145050" lon="-7.8345270082">
        <ele>287.57</ele>
        <time>2018-12-19T12:48:13Z</time>
      </trkpt>
      <trkpt lat="39.4458686560" lon="-7.8346698359">
        <ele>286.13</ele>
        <time>2018-12-19T12:48:23Z</time>
      </trkpt>
      <trkpt lat="39.4458482042" lon="-7.8347808961">
        <ele>285.65</ele>
        <time>2018-12-19T12:48:30Z</time>
      </trkpt>
      <trkpt lat="39.4458114915" lon="-7.8348844126">
        <ele>286.61</ele>
        <time>2018-12-19T12:48:39Z</time>
      </trkpt>
      <trkpt lat="39.4457819033" lon="-7.8349751048">
        <ele>287.57</ele>
        <time>2018-12-19T12:48:48Z</time>
      </trkpt>
      <trkpt lat="39.4457470346" lon="-7.8351368755">
        <ele>287.09</ele>
        <time>2018-12-19T12:48:58Z</time>
      </trkpt>
      <trkpt lat="39.4457012694" lon="-7.8352780268">
        <ele>288.05</ele>
        <time>2018-12-19T12:49:07Z</time>
      </trkpt>
      <trkpt lat="39.4456848409" lon="-7.8353284858">
        <ele>288.05</ele>
        <time>2018-12-19T12:49:11Z</time>
      </trkpt>
      <trkpt lat="39.4456366450" lon="-7.8355004825">
        <ele>288.05</ele>
        <time>2018-12-19T12:49:22Z</time>
      </trkpt>
      <trkpt lat="39.4456031173" lon="-7.8356497642">
        <ele>288.05</ele>
        <time>2018-12-19T12:49:32Z</time>
      </trkpt>
      <trkpt lat="39.4455881137" lon="-7.8357743192">
        <ele>288.05</ele>
        <time>2018-12-19T12:49:40Z</time>
      </trkpt>
      <trkpt lat="39.4455658179" lon="-7.8359355032">
        <ele>287.57</ele>
        <time>2018-12-19T12:49:50Z</time>
      </trkpt>
      <trkpt lat="39.4455401693" lon="-7.8360704519">
        <ele>288.05</ele>
        <time>2018-12-19T12:49:59Z</time>
      </trkpt>
      <trkpt lat="39.4455295242" lon="-7.8362033889">
        <ele>288.53</ele>
        <time>2018-12-19T12:50:08Z</time>
      </trkpt>
      <trkpt lat="39.4455311168" lon="-7.8363297042">
        <ele>289.01</ele>
        <time>2018-12-19T12:50:16Z</time>
      </trkpt>
      <trkpt lat="39.4455710147" lon="-7.8364731185">
        <ele>289.01</ele>
        <time>2018-12-19T12:50:26Z</time>
      </trkpt>
      <trkpt lat="39.4456118345" lon="-7.8366245795">
        <ele>288.53</ele>
        <time>2018-12-19T12:50:36Z</time>
      </trkpt>
      <trkpt lat="39.4456331246" lon="-7.8367907926">
        <ele>289.01</ele>
        <time>2018-12-19T12:50:46Z</time>
      </trkpt>
      <trkpt lat="39.4456661493" lon="-7.8369533177">
        <ele>288.53</ele>
        <time>2018-12-19T12:50:56Z</time>
      </trkpt>
      <trkpt lat="39.4457008503" lon="-7.8371093050">
        <ele>288.53</ele>
        <time>2018-12-19T12:51:06Z</time>
      </trkpt>
      <trkpt lat="39.4457187876" lon="-7.8372854088">
        <ele>288.05</ele>
        <time>2018-12-19T12:51:16Z</time>
      </trkpt>
      <trkpt lat="39.4457496330" lon="-7.8374428209">
        <ele>288.53</ele>
        <time>2018-12-19T12:51:26Z</time>
      </trkpt>
      <trkpt lat="39.4457821548" lon="-7.8376124706">
        <ele>288.53</ele>
        <time>2018-12-19T12:51:36Z</time>
      </trkpt>
      <trkpt lat="39.4458087254" lon="-7.8377731517">
        <ele>288.05</ele>
        <time>2018-12-19T12:51:45Z</time>
      </trkpt>
      <trkpt lat="39.4458301831" lon="-7.8379447293">
        <ele>288.05</ele>
        <time>2018-12-19T12:51:55Z</time>
      </trkpt>
      <trkpt lat="39.4458524790" lon="-7.8380837012">
        <ele>288.05</ele>
        <time>2018-12-19T12:52:04Z</time>
      </trkpt>
      <trkpt lat="39.4458869286" lon="-7.8382085077">
        <ele>288.53</ele>
        <time>2018-12-19T12:52:12Z</time>
      </trkpt>
      <trkpt lat="39.4459140021" lon="-7.8383416962">
        <ele>288.53</ele>
        <time>2018-12-19T12:52:20Z</time>
      </trkpt>
      <trkpt lat="39.4459330291" lon="-7.8385359049">
        <ele>288.05</ele>
        <time>2018-12-19T12:52:31Z</time>
      </trkpt>
      <trkpt lat="39.4459652156" lon="-7.8387093265">
        <ele>287.57</ele>
        <time>2018-12-19T12:52:41Z</time>
      </trkpt>
      <trkpt lat="39.4459914509" lon="-7.8388277628">
        <ele>288.05</ele>
        <time>2018-12-19T12:52:48Z</time>
      </trkpt>
      <trkpt lat="39.4460245594" lon="-7.8389918804">
        <ele>287.57</ele>
        <time>2018-12-19T12:52:59Z</time>
      </trkpt>
      <trkpt lat="39.4460496213" lon="-7.8390856739">
        <ele>287.57</ele>
        <time>2018-12-19T12:53:05Z</time>
      </trkpt>
      <trkpt lat="39.4460955542" lon="-7.8392633703">
        <ele>287.57</ele>
        <time>2018-12-19T12:53:16Z</time>
      </trkpt>
      <trkpt lat="39.4461525511" lon="-7.8393709939">
        <ele>287.57</ele>
        <time>2018-12-19T12:53:25Z</time>
      </trkpt>
      <trkpt lat="39.4462227076" lon="-7.8394612670">
        <ele>287.57</ele>
        <time>2018-12-19T12:53:35Z</time>
      </trkpt>
      <trkpt lat="39.4462750107" lon="-7.8395497799">
        <ele>287.09</ele>
        <time>2018-12-19T12:53:42Z</time>
      </trkpt>
      <trkpt lat="39.4463320915" lon="-7.8397071920">
        <ele>287.09</ele>
        <time>2018-12-19T12:53:53Z</time>
      </trkpt>
      <trkpt lat="39.4463734142" lon="-7.8398647718">
        <ele>287.09</ele>
        <time>2018-12-19T12:54:03Z</time>
      </trkpt>
      <trkpt lat="39.4463816285" lon="-7.8399694618">
        <ele>287.09</ele>
        <time>2018-12-19T12:54:10Z</time>
      </trkpt>
      <trkpt lat="39.4464159105" lon="-7.8400847968">
        <ele>287.57</ele>
        <time>2018-12-19T12:54:19Z</time>
      </trkpt>
      <trkpt lat="39.4464142341" lon="-7.8401009738">
        <ele>287.57</ele>
        <time>2018-12-19T12:54:20Z</time>
      </trkpt>
      <trkpt lat="39.4464140665" lon="-7.8402040713">
        <ele>286.61</ele>
        <time>2018-12-19T12:54:26Z</time>
      </trkpt>
      <trkpt lat="39.4464320038" lon="-7.8403048217">
        <ele>287.57</ele>
        <time>2018-12-19T12:54:32Z</time>
      </trkpt>
      <trkpt lat="39.4464630168" lon="-7.8404700290">
        <ele>288.05</ele>
        <time>2018-12-19T12:54:42Z</time>
      </trkpt>
      <trkpt lat="39.4465143140" lon="-7.8406383377">
        <ele>287.09</ele>
        <time>2018-12-19T12:54:52Z</time>
      </trkpt>
      <trkpt lat="39.4465300720" lon="-7.8407704365">
        <ele>287.57</ele>
        <time>2018-12-19T12:55:00Z</time>
      </trkpt>
      <trkpt lat="39.4465497695" lon="-7.8409545030">
        <ele>287.57</ele>
        <time>2018-12-19T12:55:11Z</time>
      </trkpt>
      <trkpt lat="39.4465731550" lon="-7.8411109094">
        <ele>287.09</ele>
        <time>2018-12-19T12:55:21Z</time>
      </trkpt>
      <trkpt lat="39.4465788547" lon="-7.8412259929">
        <ele>287.57</ele>
        <time>2018-12-19T12:55:28Z</time>
      </trkpt>
      <trkpt lat="39.4465883262" lon="-7.8413658869">
        <ele>287.09</ele>
        <time>2018-12-19T12:55:37Z</time>
      </trkpt>
      <trkpt lat="39.4466114603" lon="-7.8415217903">
        <ele>288.05</ele>
        <time>2018-12-19T12:55:46Z</time>
      </trkpt>
      <trkpt lat="39.4466203451" lon="-7.8415731713">
        <ele>288.05</ele>
        <time>2018-12-19T12:55:49Z</time>
      </trkpt>
      <trkpt lat="39.4466229435" lon="-7.8416430764">
        <ele>287.57</ele>
        <time>2018-12-19T12:55:53Z</time>
      </trkpt>
      <trkpt lat="39.4466453232" lon="-7.8417658713">
        <ele>288.05</ele>
        <time>2018-12-19T12:56:01Z</time>
      </trkpt>
      <trkpt lat="39.4466520287" lon="-7.8418851458">
        <ele>288.05</ele>
        <time>2018-12-19T12:56:09Z</time>
      </trkpt>
      <trkpt lat="39.4466494303" lon="-7.8420141432">
        <ele>288.05</ele>
        <time>2018-12-19T12:56:16Z</time>
      </trkpt>
      <trkpt lat="39.4466666970" lon="-7.8421765845">
        <ele>288.05</ele>
        <time>2018-12-19T12:56:26Z</time>
      </trkpt>
      <trkpt lat="39.4466631766" lon="-7.8423295543">
        <ele>288.05</ele>
        <time>2018-12-19T12:56:36Z</time>
      </trkpt>
      <trkpt lat="39.4466713071" lon="-7.8424847871">
        <ele>288.05</ele>
        <time>2018-12-19T12:56:46Z</time>
      </trkpt>
      <trkpt lat="39.4466728996" lon="-7.8426257707">
        <ele>288.05</ele>
        <time>2018-12-19T12:56:55Z</time>
      </trkpt>
      <trkpt lat="39.4466587342" lon="-7.8427890502">
        <ele>288.05</ele>
        <time>2018-12-19T12:57:04Z</time>
      </trkpt>
      <trkpt lat="39.4466629252" lon="-7.8429636452">
        <ele>288.53</ele>
        <time>2018-12-19T12:57:14Z</time>
      </trkpt>
      <trkpt lat="39.4466599915" lon="-7.8430796508">
        <ele>288.53</ele>
        <time>2018-12-19T12:57:21Z</time>
      </trkpt>
      <trkpt lat="39.4466760010" lon="-7.8432814032">
        <ele>287.57</ele>
        <time>2018-12-19T12:57:33Z</time>
      </trkpt>
      <trkpt lat="39.4466853887" lon="-7.8434235603">
        <ele>288.05</ele>
        <time>2018-12-19T12:57:42Z</time>
      </trkpt>
      <trkpt lat="39.4466999732" lon="-7.8435766138">
        <ele>287.09</ele>
        <time>2018-12-19T12:57:51Z</time>
      </trkpt>
      <trkpt lat="39.4467246998" lon="-7.8437273204">
        <ele>287.57</ele>
        <time>2018-12-19T12:58:00Z</time>
      </trkpt>
      <trkpt lat="39.4467544556" lon="-7.8438696451">
        <ele>287.09</ele>
        <time>2018-12-19T12:58:09Z</time>
      </trkpt>
      <trkpt lat="39.4467658550" lon="-7.8439475130">
        <ele>286.61</ele>
        <time>2018-12-19T12:58:14Z</time>
      </trkpt>
      <trkpt lat="39.4467718899" lon="-7.8441145644">
        <ele>286.61</ele>
        <time>2018-12-19T12:58:24Z</time>
      </trkpt>
      <trkpt lat="39.4467863068" lon="-7.8442355152">
        <ele>286.61</ele>
        <time>2018-12-19T12:58:32Z</time>
      </trkpt>
      <trkpt lat="39.4468053337" lon="-7.8443833720">
        <ele>287.09</ele>
        <time>2018-12-19T12:58:41Z</time>
      </trkpt>
      <trkpt lat="39.4468062557" lon="-7.8445334081">
        <ele>286.61</ele>
        <time>2018-12-19T12:58:51Z</time>
      </trkpt>
      <trkpt lat="39.4468161464" lon="-7.8446928319">
        <ele>287.57</ele>
        <time>2018-12-19T12:59:00Z</time>
      </trkpt>
      <trkpt lat="39.4468211755" lon="-7.8448566981">
        <ele>286.61</ele>
        <time>2018-12-19T12:59:10Z</time>
      </trkpt>
      <trkpt lat="39.4468283840" lon="-7.8449816722">
        <ele>287.09</ele>
        <time>2018-12-19T12:59:18Z</time>
      </trkpt>
      <trkpt lat="39.4468366820" lon="-7.8451392520">
        <ele>286.13</ele>
        <time>2018-12-19T12:59:28Z</time>
      </trkpt>
      <trkpt lat="39.4468472432" lon="-7.8452795651">
        <ele>287.09</ele>
        <time>2018-12-19T12:59:36Z</time>
      </trkpt>
      <trkpt lat="39.4468549546" lon="-7.8453824110">
        <ele>286.61</ele>
        <time>2018-12-19T12:59:43Z</time>
      </trkpt>
      <trkpt lat="39.4468417112" lon="-7.8455407452">
        <ele>287.09</ele>
        <time>2018-12-19T12:59:52Z</time>
      </trkpt>
      <trkpt lat="39.4468237739" lon="-7.8456929605">
        <ele>286.13</ele>
        <time>2018-12-19T13:00:02Z</time>
      </trkpt>
      <trkpt lat="39.4468368497" lon="-7.8457720019">
        <ele>287.09</ele>
        <time>2018-12-19T13:00:09Z</time>
      </trkpt>
      <trkpt lat="39.4468744844" lon="-7.8458116483">
        <ele>286.61</ele>
        <time>2018-12-19T13:00:18Z</time>
      </trkpt>
      <trkpt lat="39.4468732271" lon="-7.8458269034">
        <ele>286.61</ele>
        <time>2018-12-19T13:00:24Z</time>
      </trkpt>
      <trkpt lat="39.4468542840" lon="-7.8458483610">
        <ele>286.61</ele>
        <time>2018-12-19T13:00:38Z</time>
      </trkpt>
      <trkpt lat="39.4468545355" lon="-7.8458502050">
        <ele>286.61</ele>
        <time>2018-12-19T13:00:48Z</time>
      </trkpt>
      <trkpt lat="39.4468558766" lon="-7.8458466846">
        <ele>286.13</ele>
        <time>2018-12-19T13:00:56Z</time>
      </trkpt>
      <trkpt lat="39.4468411244" lon="-7.8458507918">
        <ele>286.61</ele>
        <time>2018-12-19T13:01:07Z</time>
      </trkpt>
      <trkpt lat="39.4468373526" lon="-7.8458589222">
        <ele>285.17</ele>
        <time>2018-12-19T13:01:14Z</time>
      </trkpt>
      <trkpt lat="39.4468121231" lon="-7.8458587546">
        <ele>285.65</ele>
        <time>2018-12-19T13:01:27Z</time>
      </trkpt>
      <trkpt lat="39.4468036573" lon="-7.8458310943">
        <ele>285.17</ele>
        <time>2018-12-19T13:01:39Z</time>
      </trkpt>
      <trkpt lat="39.4468117878" lon="-7.8458331898">
        <ele>286.61</ele>
        <time>2018-12-19T13:01:47Z</time>
      </trkpt>
      <trkpt lat="39.4467984606" lon="-7.8458438348">
        <ele>285.65</ele>
        <time>2018-12-19T13:01:57Z</time>
      </trkpt>
      <trkpt lat="39.4467341714" lon="-7.8459192719">
        <ele>286.13</ele>
        <time>2018-12-19T13:02:04Z</time>
      </trkpt>
      <trkpt lat="39.4466722291" lon="-7.8460201062">
        <ele>286.13</ele>
        <time>2018-12-19T13:02:12Z</time>
      </trkpt>
      <trkpt lat="39.4466491789" lon="-7.8460817132">
        <ele>285.65</ele>
        <time>2018-12-19T13:02:17Z</time>
      </trkpt>
      <trkpt lat="39.4465772621" lon="-7.8462026641">
        <ele>290.94</ele>
        <time>2018-12-19T13:02:27Z</time>
      </trkpt>
      <trkpt lat="39.4465693831" lon="-7.8462127224">
        <ele>286.61</ele>
        <time>2018-12-19T13:02:28Z</time>
      </trkpt>
      <trkpt lat="39.4465502724" lon="-7.8462325037">
        <ele>286.13</ele>
        <time>2018-12-19T13:02:30Z</time>
      </trkpt>
      <trkpt lat="39.4464756735" lon="-7.8462762572">
        <ele>285.65</ele>
        <time>2018-12-19T13:02:38Z</time>
      </trkpt>
      <trkpt lat="39.4463926926" lon="-7.8463696316">
        <ele>285.65</ele>
        <time>2018-12-19T13:02:47Z</time>
      </trkpt>
      <trkpt lat="39.4463434909" lon="-7.8464125469">
        <ele>285.17</ele>
        <time>2018-12-19T13:02:52Z</time>
      </trkpt>
      <trkpt lat="39.4462667964" lon="-7.8464793507">
        <ele>285.17</ele>
        <time>2018-12-19T13:03:00Z</time>
      </trkpt>
      <trkpt lat="39.4461892638" lon="-7.8465552907">
        <ele>285.17</ele>
        <time>2018-12-19T13:03:08Z</time>
      </trkpt>
      <trkpt lat="39.4461230468" lon="-7.8465935960">
        <ele>285.17</ele>
        <time>2018-12-19T13:03:15Z</time>
      </trkpt>
      <trkpt lat="39.4460355397" lon="-7.8466449771">
        <ele>285.17</ele>
        <time>2018-12-19T13:03:24Z</time>
      </trkpt>
      <trkpt lat="39.4459342863" lon="-7.8467488289">
        <ele>284.69</ele>
        <time>2018-12-19T13:03:34Z</time>
      </trkpt>
      <trkpt lat="39.4458322786" lon="-7.8468636610">
        <ele>284.21</ele>
        <time>2018-12-19T13:03:44Z</time>
      </trkpt>
      <trkpt lat="39.4457114115" lon="-7.8469765652">
        <ele>285.17</ele>
        <time>2018-12-19T13:03:55Z</time>
      </trkpt>
      <trkpt lat="39.4456748664" lon="-7.8470007889">
        <ele>284.69</ele>
        <time>2018-12-19T13:03:58Z</time>
      </trkpt>
      <trkpt lat="39.4455840904" lon="-7.8471245896">
        <ele>284.69</ele>
        <time>2018-12-19T13:04:08Z</time>
      </trkpt>
      <trkpt lat="39.4455165323" lon="-7.8472207300">
        <ele>284.69</ele>
        <time>2018-12-19T13:04:16Z</time>
      </trkpt>
      <trkpt lat="39.4454503153" lon="-7.8472977597">
        <ele>284.69</ele>
        <time>2018-12-19T13:04:24Z</time>
      </trkpt>
      <trkpt lat="39.4453991018" lon="-7.8473266773">
        <ele>284.69</ele>
        <time>2018-12-19T13:04:29Z</time>
      </trkpt>
      <trkpt lat="39.4453113433" lon="-7.8474493884">
        <ele>284.69</ele>
        <time>2018-12-19T13:04:39Z</time>
      </trkpt>
      <trkpt lat="39.4452268537" lon="-7.8475566767">
        <ele>285.17</ele>
        <time>2018-12-19T13:04:49Z</time>
      </trkpt>
      <trkpt lat="39.4451657496" lon="-7.8476512246">
        <ele>284.21</ele>
        <time>2018-12-19T13:04:57Z</time>
      </trkpt>
      <trkpt lat="39.4450829364" lon="-7.8477297630">
        <ele>284.69</ele>
        <time>2018-12-19T13:05:05Z</time>
      </trkpt>
      <trkpt lat="39.4450174738" lon="-7.8478027694">
        <ele>284.21</ele>
        <time>2018-12-19T13:05:13Z</time>
      </trkpt>
      <trkpt lat="39.4449603092" lon="-7.8478621133">
        <ele>284.21</ele>
        <time>2018-12-19T13:05:20Z</time>
      </trkpt>
      <trkpt lat="39.4448886439" lon="-7.8479474410">
        <ele>284.21</ele>
        <time>2018-12-19T13:05:29Z</time>
      </trkpt>
      <trkpt lat="39.4448755682" lon="-7.8479844052">
        <ele>284.69</ele>
        <time>2018-12-19T13:05:32Z</time>
      </trkpt>
      <trkpt lat="39.4448085129" lon="-7.8480697330">
        <ele>284.69</ele>
        <time>2018-12-19T13:05:41Z</time>
      </trkpt>
      <trkpt lat="39.4448014721" lon="-7.8480787855">
        <ele>284.21</ele>
        <time>2018-12-19T13:05:42Z</time>
      </trkpt>
      <trkpt lat="39.4447532762" lon="-7.8481283225">
        <ele>285.65</ele>
        <time>2018-12-19T13:05:49Z</time>
      </trkpt>
      <trkpt lat="39.4447054155" lon="-7.8481772728">
        <ele>285.65</ele>
        <time>2018-12-19T13:05:58Z</time>
      </trkpt>
      <trkpt lat="39.4446968660" lon="-7.8481861576">
        <ele>285.17</ele>
        <time>2018-12-19T13:05:59Z</time>
      </trkpt>
      <trkpt lat="39.4446174055" lon="-7.8482631035">
        <ele>281.32</ele>
        <time>2018-12-19T13:06:07Z</time>
      </trkpt>
      <trkpt lat="39.4446069282" lon="-7.8482714854">
        <ele>287.57</ele>
        <time>2018-12-19T13:06:08Z</time>
      </trkpt>
      <trkpt lat="39.4445957802" lon="-7.8482803702">
        <ele>286.61</ele>
        <time>2018-12-19T13:06:09Z</time>
      </trkpt>
      <trkpt lat="39.4445545413" lon="-7.8483183403">
        <ele>282.77</ele>
        <time>2018-12-19T13:06:13Z</time>
      </trkpt>
      <trkpt lat="39.4445438962" lon="-7.8483298235">
        <ele>284.69</ele>
        <time>2018-12-19T13:06:14Z</time>
      </trkpt>
      <trkpt lat="39.4444072712" lon="-7.8484331723">
        <ele>284.21</ele>
        <time>2018-12-19T13:06:26Z</time>
      </trkpt>
      <trkpt lat="39.4443186745" lon="-7.8484929353">
        <ele>284.21</ele>
        <time>2018-12-19T13:06:34Z</time>
      </trkpt>
      <trkpt lat="39.4442049321" lon="-7.8485412989">
        <ele>284.21</ele>
        <time>2018-12-19T13:06:42Z</time>
      </trkpt>
      <trkpt lat="39.4441170897" lon="-7.8486104496">
        <ele>284.21</ele>
        <time>2018-12-19T13:06:50Z</time>
      </trkpt>
      <trkpt lat="39.4440141600" lon="-7.8486713860">
        <ele>283.73</ele>
        <time>2018-12-19T13:06:59Z</time>
      </trkpt>
      <trkpt lat="39.4439369626" lon="-7.8486963641">
        <ele>283.73</ele>
        <time>2018-12-19T13:07:06Z</time>
      </trkpt>
      <trkpt lat="39.4438806362" lon="-7.8487621620">
        <ele>284.21</ele>
        <time>2018-12-19T13:07:14Z</time>
      </trkpt>
      <trkpt lat="39.4437601883" lon="-7.8488054965">
        <ele>283.73</ele>
        <time>2018-12-19T13:07:22Z</time>
      </trkpt>
      <trkpt lat="39.4436231442" lon="-7.8488854598">
        <ele>283.25</ele>
        <time>2018-12-19T13:07:32Z</time>
      </trkpt>
      <trkpt lat="39.4434870221" lon="-7.8489810135">
        <ele>283.25</ele>
        <time>2018-12-19T13:07:42Z</time>
      </trkpt>
      <trkpt lat="39.4433804881" lon="-7.8490567021">
        <ele>283.25</ele>
        <time>2018-12-19T13:07:52Z</time>
      </trkpt>
      <trkpt lat="39.4432673324" lon="-7.8491035569">
        <ele>282.77</ele>
        <time>2018-12-19T13:08:01Z</time>
      </trkpt>
      <trkpt lat="39.4432586152" lon="-7.8491079155">
        <ele>283.25</ele>
        <time>2018-12-19T13:08:02Z</time>
      </trkpt>
      <trkpt lat="39.4431275222" lon="-7.8492377512">
        <ele>283.25</ele>
        <time>2018-12-19T13:08:14Z</time>
      </trkpt>
      <trkpt lat="39.4430339802" lon="-7.8493309580">
        <ele>283.25</ele>
        <time>2018-12-19T13:08:23Z</time>
      </trkpt>
      <trkpt lat="39.4429343194" lon="-7.8494508192">
        <ele>283.25</ele>
        <time>2018-12-19T13:08:33Z</time>
      </trkpt>
      <trkpt lat="39.4428574573" lon="-7.8495964129">
        <ele>283.25</ele>
        <time>2018-12-19T13:08:43Z</time>
      </trkpt>
      <trkpt lat="39.4427440502" lon="-7.8497140948">
        <ele>282.77</ele>
        <time>2018-12-19T13:08:53Z</time>
      </trkpt>
      <trkpt lat="39.4426704571" lon="-7.8498274181">
        <ele>283.25</ele>
        <time>2018-12-19T13:09:02Z</time>
      </trkpt>
      <trkpt lat="39.4425856322" lon="-7.8499347903">
        <ele>282.77</ele>
        <time>2018-12-19T13:09:11Z</time>
      </trkpt>
      <trkpt lat="39.4425106980" lon="-7.8500844911">
        <ele>282.77</ele>
        <time>2018-12-19T13:09:21Z</time>
      </trkpt>
      <trkpt lat="39.4424366020" lon="-7.8502058610">
        <ele>282.77</ele>
        <time>2018-12-19T13:09:30Z</time>
      </trkpt>
      <trkpt lat="39.4423261285" lon="-7.8503327630">
        <ele>283.25</ele>
        <time>2018-12-19T13:09:41Z</time>
      </trkpt>
      <trkpt lat="39.4422369450" lon="-7.8504567314">
        <ele>282.28</ele>
        <time>2018-12-19T13:09:51Z</time>
      </trkpt>
      <trkpt lat="39.4421521202" lon="-7.8506382834">
        <ele>282.28</ele>
        <time>2018-12-19T13:10:03Z</time>
      </trkpt>
      <trkpt lat="39.4421232864" lon="-7.8506904189">
        <ele>281.80</ele>
        <time>2018-12-19T13:10:07Z</time>
      </trkpt>
      <trkpt lat="39.4420635235" lon="-7.8508213442">
        <ele>282.77</ele>
        <time>2018-12-19T13:10:17Z</time>
      </trkpt>
      <trkpt lat="39.4420241285" lon="-7.8509555385">
        <ele>282.28</ele>
        <time>2018-12-19T13:10:25Z</time>
      </trkpt>
      <trkpt lat="39.4419723283" lon="-7.8510812670">
        <ele>282.28</ele>
        <time>2018-12-19T13:10:34Z</time>
      </trkpt>
      <trkpt lat="39.4419165049" lon="-7.8512151260">
        <ele>282.77</ele>
        <time>2018-12-19T13:10:43Z</time>
      </trkpt>
      <trkpt lat="39.4418491144" lon="-7.8513405193">
        <ele>282.77</ele>
        <time>2018-12-19T13:10:52Z</time>
      </trkpt>
      <trkpt lat="39.4417503756" lon="-7.8514537588">
        <ele>282.77</ele>
        <time>2018-12-19T13:11:02Z</time>
      </trkpt>
      <trkpt lat="39.4416604377" lon="-7.8515866119">
        <ele>282.77</ele>
        <time>2018-12-19T13:11:14Z</time>
      </trkpt>
      <trkpt lat="39.4416259043" lon="-7.8515918925">
        <ele>283.73</ele>
        <time>2018-12-19T13:11:28Z</time>
      </trkpt>
      <trkpt lat="39.4416061230" lon="-7.8516588639">
        <ele>282.77</ele>
        <time>2018-12-19T13:11:36Z</time>
      </trkpt>
      <trkpt lat="39.4415484555" lon="-7.8517864365">
        <ele>283.25</ele>
        <time>2018-12-19T13:11:46Z</time>
      </trkpt>
      <trkpt lat="39.4414824899" lon="-7.8519094829">
        <ele>283.73</ele>
        <time>2018-12-19T13:11:56Z</time>
      </trkpt>
      <trkpt lat="39.4414124172" lon="-7.8520046175">
        <ele>283.25</ele>
        <time>2018-12-19T13:12:04Z</time>
      </trkpt>
      <trkpt lat="39.4413861819" lon="-7.8521590959">
        <ele>283.25</ele>
        <time>2018-12-19T13:12:14Z</time>
      </trkpt>
      <trkpt lat="39.4413120020" lon="-7.8523265664">
        <ele>283.25</ele>
        <time>2018-12-19T13:12:26Z</time>
      </trkpt>
      <trkpt lat="39.4412420131" lon="-7.8524984792">
        <ele>282.77</ele>
        <time>2018-12-19T13:12:38Z</time>
      </trkpt>
      <trkpt lat="39.4411742873" lon="-7.8526771814">
        <ele>283.25</ele>
        <time>2018-12-19T13:12:50Z</time>
      </trkpt>
      <trkpt lat="39.4411200564" lon="-7.8528285585">
        <ele>281.80</ele>
        <time>2018-12-19T13:13:00Z</time>
      </trkpt>
      <trkpt lat="39.4410781469" lon="-7.8529257886">
        <ele>281.80</ele>
        <time>2018-12-19T13:13:07Z</time>
      </trkpt>
      <trkpt lat="39.4410177972" lon="-7.8531195782">
        <ele>281.80</ele>
        <time>2018-12-19T13:13:19Z</time>
      </trkpt>
      <trkpt lat="39.4410120975" lon="-7.8531503398">
        <ele>280.84</ele>
        <time>2018-12-19T13:13:21Z</time>
      </trkpt>
      <trkpt lat="39.4409560226" lon="-7.8532971907">
        <ele>280.84</ele>
        <time>2018-12-19T13:13:31Z</time>
      </trkpt>
      <trkpt lat="39.4409088325" lon="-7.8534406051">
        <ele>280.36</ele>
        <time>2018-12-19T13:13:40Z</time>
      </trkpt>
      <trkpt lat="39.4408665039" lon="-7.8535824269">
        <ele>280.36</ele>
        <time>2018-12-19T13:13:49Z</time>
      </trkpt>
      <trkpt lat="39.4408406038" lon="-7.8536797408">
        <ele>279.88</ele>
        <time>2018-12-19T13:13:55Z</time>
      </trkpt>
      <trkpt lat="39.4407894742" lon="-7.8538208082">
        <ele>280.36</ele>
        <time>2018-12-19T13:14:05Z</time>
      </trkpt>
      <trkpt lat="39.4407421164" lon="-7.8539463691">
        <ele>279.88</ele>
        <time>2018-12-19T13:14:13Z</time>
      </trkpt>
      <trkpt lat="39.4407157134" lon="-7.8540916275">
        <ele>280.36</ele>
        <time>2018-12-19T13:14:22Z</time>
      </trkpt>
      <trkpt lat="39.4406941719" lon="-7.8542437591">
        <ele>279.88</ele>
        <time>2018-12-19T13:14:31Z</time>
      </trkpt>
      <trkpt lat="39.4406346604" lon="-7.8543914482">
        <ele>279.88</ele>
        <time>2018-12-19T13:14:41Z</time>
      </trkpt>
      <trkpt lat="39.4406183995" lon="-7.8544369619">
        <ele>279.88</ele>
        <time>2018-12-19T13:14:44Z</time>
      </trkpt>
      <trkpt lat="39.4405859616" lon="-7.8545994870">
        <ele>280.84</ele>
        <time>2018-12-19T13:14:54Z</time>
      </trkpt>
      <trkpt lat="39.4405678567" lon="-7.8547660355">
        <ele>281.32</ele>
        <time>2018-12-19T13:15:04Z</time>
      </trkpt>
      <trkpt lat="39.4405345805" lon="-7.8549044207">
        <ele>281.32</ele>
        <time>2018-12-19T13:15:13Z</time>
      </trkpt>
      <trkpt lat="39.4405204989" lon="-7.8550723102">
        <ele>282.28</ele>
        <time>2018-12-19T13:15:23Z</time>
      </trkpt>
      <trkpt lat="39.4405024778" lon="-7.8552474082">
        <ele>282.77</ele>
        <time>2018-12-19T13:15:33Z</time>
      </trkpt>
      <trkpt lat="39.4404700398" lon="-7.8553971089">
        <ele>282.77</ele>
        <time>2018-12-19T13:15:42Z</time>
      </trkpt>
      <trkpt lat="39.4404526055" lon="-7.8555640765">
        <ele>282.77</ele>
        <time>2018-12-19T13:15:52Z</time>
      </trkpt>
      <trkpt lat="39.4404391944" lon="-7.8557658289">
        <ele>281.80</ele>
        <time>2018-12-19T13:16:04Z</time>
      </trkpt>
      <trkpt lat="39.4404407032" lon="-7.8559794836">
        <ele>282.28</ele>
        <time>2018-12-19T13:16:17Z</time>
      </trkpt>
      <trkpt lat="39.4404408708" lon="-7.8561212216">
        <ele>280.36</ele>
        <time>2018-12-19T13:16:25Z</time>
      </trkpt>
      <trkpt lat="39.4404291362" lon="-7.8562546615">
        <ele>279.88</ele>
        <time>2018-12-19T13:16:33Z</time>
      </trkpt>
      <trkpt lat="39.4404319860" lon="-7.8562905360">
        <ele>279.40</ele>
        <time>2018-12-19T13:16:35Z</time>
      </trkpt>
      <trkpt lat="39.4404474087" lon="-7.8564611077">
        <ele>279.88</ele>
        <time>2018-12-19T13:16:46Z</time>
      </trkpt>
      <trkpt lat="39.4404311478" lon="-7.8566511255">
        <ele>281.32</ele>
        <time>2018-12-19T13:16:57Z</time>
      </trkpt>
      <trkpt lat="39.4404115342" lon="-7.8567719087">
        <ele>282.28</ele>
        <time>2018-12-19T13:17:05Z</time>
      </trkpt>
      <trkpt lat="39.4404207543" lon="-7.8569254652">
        <ele>282.28</ele>
        <time>2018-12-19T13:17:14Z</time>
      </trkpt>
      <trkpt lat="39.4404215924" lon="-7.8571010660">
        <ele>282.28</ele>
        <time>2018-12-19T13:17:25Z</time>
      </trkpt>
      <trkpt lat="39.4404462352" lon="-7.8572472464">
        <ele>282.28</ele>
        <time>2018-12-19T13:17:34Z</time>
      </trkpt>
      <trkpt lat="39.4404949341" lon="-7.8574034851">
        <ele>282.77</ele>
        <time>2018-12-19T13:17:44Z</time>
      </trkpt>
      <trkpt lat="39.4405309763" lon="-7.8575522639">
        <ele>283.25</ele>
        <time>2018-12-19T13:17:53Z</time>
      </trkpt>
      <trkpt lat="39.4405609835" lon="-7.8576931637">
        <ele>284.21</ele>
        <time>2018-12-19T13:18:04Z</time>
      </trkpt>
      <trkpt lat="39.4405536074" lon="-7.8577025514">
        <ele>284.21</ele>
        <time>2018-12-19T13:18:18Z</time>
      </trkpt>
      <trkpt lat="39.4405890629" lon="-7.8578062356">
        <ele>284.69</ele>
        <time>2018-12-19T13:18:26Z</time>
      </trkpt>
      <trkpt lat="39.4406023901" lon="-7.8579644021">
        <ele>284.21</ele>
        <time>2018-12-19T13:18:36Z</time>
      </trkpt>
      <trkpt lat="39.4406194054" lon="-7.8580669127">
        <ele>283.73</ele>
        <time>2018-12-19T13:18:43Z</time>
      </trkpt>
      <trkpt lat="39.4406672660" lon="-7.8582219779">
        <ele>283.73</ele>
        <time>2018-12-19T13:18:53Z</time>
      </trkpt>
      <trkpt lat="39.4406794198" lon="-7.8583689127">
        <ele>283.25</ele>
        <time>2018-12-19T13:19:03Z</time>
      </trkpt>
      <trkpt lat="39.4407008775" lon="-7.8585366346">
        <ele>282.77</ele>
        <time>2018-12-19T13:19:13Z</time>
      </trkpt>
      <trkpt lat="39.4407353271" lon="-7.8586986568">
        <ele>282.77</ele>
        <time>2018-12-19T13:19:23Z</time>
      </trkpt>
      <trkpt lat="39.4407908153" lon="-7.8588853218">
        <ele>282.28</ele>
        <time>2018-12-19T13:19:34Z</time>
      </trkpt>
      <trkpt lat="39.4408820104" lon="-7.8590743337">
        <ele>282.28</ele>
        <time>2018-12-19T13:19:47Z</time>
      </trkpt>
      <trkpt lat="39.4409442041" lon="-7.8592037503">
        <ele>282.28</ele>
        <time>2018-12-19T13:19:56Z</time>
      </trkpt>
      <trkpt lat="39.4410339743" lon="-7.8593481705">
        <ele>281.80</ele>
        <time>2018-12-19T13:20:07Z</time>
      </trkpt>
      <trkpt lat="39.4411146920" lon="-7.8594891541">
        <ele>281.32</ele>
        <time>2018-12-19T13:20:17Z</time>
      </trkpt>
      <trkpt lat="39.4411762152" lon="-7.8596154694">
        <ele>280.84</ele>
        <time>2018-12-19T13:20:26Z</time>
      </trkpt>
      <trkpt lat="39.4412602857" lon="-7.8597477358">
        <ele>279.88</ele>
        <time>2018-12-19T13:20:36Z</time>
      </trkpt>
      <trkpt lat="39.4413500559" lon="-7.8598924913">
        <ele>280.84</ele>
        <time>2018-12-19T13:20:47Z</time>
      </trkpt>
      <trkpt lat="39.4414054602" lon="-7.8599876259">
        <ele>280.36</ele>
        <time>2018-12-19T13:20:54Z</time>
      </trkpt>
      <trkpt lat="39.4414420892" lon="-7.8600442875">
        <ele>279.88</ele>
        <time>2018-12-19T13:20:58Z</time>
      </trkpt>
      <trkpt lat="39.4415269140" lon="-7.8601832595">
        <ele>279.40</ele>
        <time>2018-12-19T13:21:09Z</time>
      </trkpt>
      <trkpt lat="39.4416221324" lon="-7.8603192978">
        <ele>278.44</ele>
        <time>2018-12-19T13:21:19Z</time>
      </trkpt>
      <trkpt lat="39.4416958932" lon="-7.8604606166">
        <ele>278.44</ele>
        <time>2018-12-19T13:21:29Z</time>
      </trkpt>
      <trkpt lat="39.4417708274" lon="-7.8605867643">
        <ele>278.44</ele>
        <time>2018-12-19T13:21:39Z</time>
      </trkpt>
      <trkpt lat="39.4418557361" lon="-7.8607121576">
        <ele>278.92</ele>
        <time>2018-12-19T13:21:49Z</time>
      </trkpt>
      <trkpt lat="39.4419253897" lon="-7.8608255647">
        <ele>278.44</ele>
        <time>2018-12-19T13:21:58Z</time>
      </trkpt>
      <trkpt lat="39.4419904333" lon="-7.8608954698">
        <ele>278.44</ele>
        <time>2018-12-19T13:22:05Z</time>
      </trkpt>
      <trkpt lat="39.4420413114" lon="-7.8609513771">
        <ele>278.44</ele>
        <time>2018-12-19T13:22:10Z</time>
      </trkpt>
      <trkpt lat="39.4420908485" lon="-7.8610734176">
        <ele>279.40</ele>
        <time>2018-12-19T13:22:19Z</time>
      </trkpt>
      <trkpt lat="39.4421357755" lon="-7.8612043429">
        <ele>278.92</ele>
        <time>2018-12-19T13:22:28Z</time>
      </trkpt>
      <trkpt lat="39.4422170799" lon="-7.8613656946">
        <ele>278.92</ele>
        <time>2018-12-19T13:22:39Z</time>
      </trkpt>
      <trkpt lat="39.4422764238" lon="-7.8614640143">
        <ele>278.92</ele>
        <time>2018-12-19T13:22:47Z</time>
      </trkpt>
      <trkpt lat="39.4423418865" lon="-7.8615935985">
        <ele>279.40</ele>
        <time>2018-12-19T13:22:56Z</time>
      </trkpt>
      <trkpt lat="39.4423989672" lon="-7.8617173154">
        <ele>278.92</ele>
        <time>2018-12-19T13:23:05Z</time>
      </trkpt>
      <trkpt lat="39.4424800202" lon="-7.8618608974">
        <ele>280.36</ele>
        <time>2018-12-19T13:23:15Z</time>
      </trkpt>
      <trkpt lat="39.4425486680" lon="-7.8619774897">
        <ele>281.32</ele>
        <time>2018-12-19T13:23:24Z</time>
      </trkpt>
      <trkpt lat="39.4426118676" lon="-7.8620952554">
        <ele>279.88</ele>
        <time>2018-12-19T13:23:33Z</time>
      </trkpt>
      <trkpt lat="39.4426799286" lon="-7.8622047231">
        <ele>280.36</ele>
        <time>2018-12-19T13:23:42Z</time>
      </trkpt>
      <trkpt lat="39.4427581318" lon="-7.8623313736">
        <ele>281.32</ele>
        <time>2018-12-19T13:23:52Z</time>
      </trkpt>
      <trkpt lat="39.4428227562" lon="-7.8624519892">
        <ele>281.80</ele>
        <time>2018-12-19T13:24:01Z</time>
      </trkpt>
      <trkpt lat="39.4429095928" lon="-7.8625904582">
        <ele>281.80</ele>
        <time>2018-12-19T13:24:12Z</time>
      </trkpt>
      <trkpt lat="39.4429727085" lon="-7.8627161868">
        <ele>282.28</ele>
        <time>2018-12-19T13:24:22Z</time>
      </trkpt>
      <trkpt lat="39.4430377521" lon="-7.8628497105">
        <ele>282.28</ele>
        <time>2018-12-19T13:24:32Z</time>
      </trkpt>
      <trkpt lat="39.4431080762" lon="-7.8629695717">
        <ele>282.77</ele>
        <time>2018-12-19T13:24:41Z</time>
      </trkpt>
      <trkpt lat="39.4431807473" lon="-7.8631179314">
        <ele>282.77</ele>
        <time>2018-12-19T13:24:52Z</time>
      </trkpt>
      <trkpt lat="39.4432605430" lon="-7.8632632736">
        <ele>283.25</ele>
        <time>2018-12-19T13:25:02Z</time>
      </trkpt>
      <trkpt lat="39.4433450326" lon="-7.8634354379">
        <ele>282.77</ele>
        <time>2018-12-19T13:25:14Z</time>
      </trkpt>
      <trkpt lat="39.4434001017" lon="-7.8635265492">
        <ele>283.25</ele>
        <time>2018-12-19T13:25:21Z</time>
      </trkpt>
      <trkpt lat="39.4434754550" lon="-7.8636718914">
        <ele>283.25</ele>
        <time>2018-12-19T13:25:31Z</time>
      </trkpt>
      <trkpt lat="39.4435487129" lon="-7.8637909982">
        <ele>283.25</ele>
        <time>2018-12-19T13:25:40Z</time>
      </trkpt>
      <trkpt lat="39.4436173607" lon="-7.8639319818">
        <ele>283.25</ele>
        <time>2018-12-19T13:25:50Z</time>
      </trkpt>
      <trkpt lat="39.4436889421" lon="-7.8640745580">
        <ele>284.21</ele>
        <time>2018-12-19T13:26:00Z</time>
      </trkpt>
      <trkpt lat="39.4437775388" lon="-7.8642490692">
        <ele>283.25</ele>
        <time>2018-12-19T13:26:12Z</time>
      </trkpt>
      <trkpt lat="39.4438393135" lon="-7.8643741272">
        <ele>283.73</ele>
        <time>2018-12-19T13:26:21Z</time>
      </trkpt>
      <trkpt lat="39.4438961428" lon="-7.8644727822">
        <ele>283.73</ele>
        <time>2018-12-19T13:26:29Z</time>
      </trkpt>
      <trkpt lat="39.4439643715" lon="-7.8645985108">
        <ele>284.21</ele>
        <time>2018-12-19T13:26:38Z</time>
      </trkpt>
      <trkpt lat="39.4440537225" lon="-7.8647428472">
        <ele>284.21</ele>
        <time>2018-12-19T13:26:48Z</time>
      </trkpt>
      <trkpt lat="39.4441096298" lon="-7.8648693301">
        <ele>284.21</ele>
        <time>2018-12-19T13:26:57Z</time>
      </trkpt>
      <trkpt lat="39.4441647828" lon="-7.8650120739">
        <ele>284.21</ele>
        <time>2018-12-19T13:27:07Z</time>
      </trkpt>
      <trkpt lat="39.4442175049" lon="-7.8651186917">
        <ele>283.73</ele>
        <time>2018-12-19T13:27:15Z</time>
      </trkpt>
      <trkpt lat="39.4442792796" lon="-7.8652795404">
        <ele>284.21</ele>
        <time>2018-12-19T13:27:26Z</time>
      </trkpt>
      <trkpt lat="39.4442853145" lon="-7.8652913589">
        <ele>283.73</ele>
        <time>2018-12-19T13:27:27Z</time>
      </trkpt>
      <trkpt lat="39.4443511963" lon="-7.8654179256">
        <ele>284.21</ele>
        <time>2018-12-19T13:27:37Z</time>
      </trkpt>
      <trkpt lat="39.4443650264" lon="-7.8654438257">
        <ele>284.21</ele>
        <time>2018-12-19T13:27:39Z</time>
      </trkpt>
      <trkpt lat="39.4444603287" lon="-7.8656249586">
        <ele>284.21</ele>
        <time>2018-12-19T13:27:52Z</time>
      </trkpt>
      <trkpt lat="39.4445321616" lon="-7.8657646012">
        <ele>284.69</ele>
        <time>2018-12-19T13:28:03Z</time>
      </trkpt>
      <trkpt lat="39.4446165673" lon="-7.8659185767">
        <ele>285.17</ele>
        <time>2018-12-19T13:28:14Z</time>
      </trkpt>
      <trkpt lat="39.4446708821" lon="-7.8660075925">
        <ele>285.17</ele>
        <time>2018-12-19T13:28:24Z</time>
      </trkpt>
      <trkpt lat="39.4446889032" lon="-7.8660440538">
        <ele>285.17</ele>
        <time>2018-12-19T13:28:27Z</time>
      </trkpt>
      <trkpt lat="39.4447319023" lon="-7.8661373444">
        <ele>284.69</ele>
        <time>2018-12-19T13:28:34Z</time>
      </trkpt>
      <trkpt lat="39.4448163919" lon="-7.8662636597">
        <ele>285.65</ele>
        <time>2018-12-19T13:28:44Z</time>
      </trkpt>
      <trkpt lat="39.4448638335" lon="-7.8663391806">
        <ele>285.17</ele>
        <time>2018-12-19T13:28:51Z</time>
      </trkpt>
      <trkpt lat="39.4449430425" lon="-7.8664646577">
        <ele>285.65</ele>
        <time>2018-12-19T13:29:01Z</time>
      </trkpt>
      <trkpt lat="39.4450279512" lon="-7.8665612172">
        <ele>285.65</ele>
        <time>2018-12-19T13:29:10Z</time>
      </trkpt>
      <trkpt lat="39.4451116864" lon="-7.8666780610">
        <ele>285.65</ele>
        <time>2018-12-19T13:29:20Z</time>
      </trkpt>
      <trkpt lat="39.4451790769" lon="-7.8667550907">
        <ele>285.65</ele>
        <time>2018-12-19T13:29:28Z</time>
      </trkpt>
      <trkpt lat="39.4452627283" lon="-7.8668661509">
        <ele>286.13</ele>
        <time>2018-12-19T13:29:37Z</time>
      </trkpt>
      <trkpt lat="39.4453646522" lon="-7.8670188691">
        <ele>286.13</ele>
        <time>2018-12-19T13:29:48Z</time>
      </trkpt>
      <trkpt lat="39.4454419333" lon="-7.8671461064">
        <ele>286.13</ele>
        <time>2018-12-19T13:29:58Z</time>
      </trkpt>
      <trkpt lat="39.4455382414" lon="-7.8672947176">
        <ele>286.13</ele>
        <time>2018-12-19T13:30:09Z</time>
      </trkpt>
      <trkpt lat="39.4456256647" lon="-7.8674061131">
        <ele>286.61</ele>
        <time>2018-12-19T13:30:19Z</time>
      </trkpt>
      <trkpt lat="39.4457135908" lon="-7.8675065283">
        <ele>287.09</ele>
        <time>2018-12-19T13:30:28Z</time>
      </trkpt>
      <trkpt lat="39.4458035287" lon="-7.8675746731">
        <ele>286.13</ele>
        <time>2018-12-19T13:30:37Z</time>
      </trkpt>
      <trkpt lat="39.4459311012" lon="-7.8676724900">
        <ele>286.61</ele>
        <time>2018-12-19T13:30:50Z</time>
      </trkpt>
      <trkpt lat="39.4460159261" lon="-7.8677548002">
        <ele>286.61</ele>
        <time>2018-12-19T13:30:59Z</time>
      </trkpt>
      <trkpt lat="39.4461010862" lon="-7.8678274713">
        <ele>286.61</ele>
        <time>2018-12-19T13:31:08Z</time>
      </trkpt>
      <trkpt lat="39.4462044351" lon="-7.8679226059">
        <ele>287.09</ele>
        <time>2018-12-19T13:31:18Z</time>
      </trkpt>
      <trkpt lat="39.4463009946" lon="-7.8680032399">
        <ele>287.09</ele>
        <time>2018-12-19T13:31:28Z</time>
      </trkpt>
      <trkpt lat="39.4464383740" lon="-7.8680978715">
        <ele>287.09</ele>
        <time>2018-12-19T13:31:39Z</time>
      </trkpt>
      <trkpt lat="39.4465402979" lon="-7.8681788407">
        <ele>287.09</ele>
        <time>2018-12-19T13:31:49Z</time>
      </trkpt>
      <trkpt lat="39.4466519449" lon="-7.8682401963">
        <ele>287.57</ele>
        <time>2018-12-19T13:31:59Z</time>
      </trkpt>
      <trkpt lat="39.4467676152" lon="-7.8683262784">
        <ele>287.57</ele>
        <time>2018-12-19T13:32:09Z</time>
      </trkpt>
      <trkpt lat="39.4468597323" lon="-7.8683510888">
        <ele>287.57</ele>
        <time>2018-12-19T13:32:17Z</time>
      </trkpt>
      <trkpt lat="39.4469778333" lon="-7.8684014641">
        <ele>287.57</ele>
        <time>2018-12-19T13:32:27Z</time>
      </trkpt>
      <trkpt lat="39.4471198227" lon="-7.8684762307">
        <ele>287.09</ele>
        <time>2018-12-19T13:32:38Z</time>
      </trkpt>
      <trkpt lat="39.4472289551" lon="-7.8685309645">
        <ele>287.57</ele>
        <time>2018-12-19T13:32:47Z</time>
      </trkpt>
      <trkpt lat="39.4472995307" lon="-7.8686170466">
        <ele>288.05</ele>
        <time>2018-12-19T13:32:55Z</time>
      </trkpt>
      <trkpt lat="39.4473639876" lon="-7.8687232453">
        <ele>288.05</ele>
        <time>2018-12-19T13:33:03Z</time>
      </trkpt>
      <trkpt lat="39.4473571144" lon="-7.8688927274">
        <ele>288.05</ele>
        <time>2018-12-19T13:33:12Z</time>
      </trkpt>
      <trkpt lat="39.4472821802" lon="-7.8690326214">
        <ele>287.57</ele>
        <time>2018-12-19T13:33:22Z</time>
      </trkpt>
      <trkpt lat="39.4472570345" lon="-7.8691875190">
        <ele>287.09</ele>
        <time>2018-12-19T13:33:32Z</time>
      </trkpt>
      <trkpt lat="39.4472380076" lon="-7.8693269938">
        <ele>287.09</ele>
        <time>2018-12-19T13:33:41Z</time>
      </trkpt>
      <trkpt lat="39.4471838605" lon="-7.8695202805">
        <ele>287.09</ele>
        <time>2018-12-19T13:33:53Z</time>
      </trkpt>
      <trkpt lat="39.4471701980" lon="-7.8695989028">
        <ele>287.09</ele>
        <time>2018-12-19T13:33:58Z</time>
      </trkpt>
      <trkpt lat="39.4471129496" lon="-7.8697890043">
        <ele>287.09</ele>
        <time>2018-12-19T13:34:10Z</time>
      </trkpt>
      <trkpt lat="39.4470692798" lon="-7.8699379507">
        <ele>286.61</ele>
        <time>2018-12-19T13:34:19Z</time>
      </trkpt>
      <trkpt lat="39.4470347464" lon="-7.8701153118">
        <ele>286.13</ele>
        <time>2018-12-19T13:34:30Z</time>
      </trkpt>
      <trkpt lat="39.4470000453" lon="-7.8702409565">
        <ele>286.61</ele>
        <time>2018-12-19T13:34:39Z</time>
      </trkpt>
      <trkpt lat="39.4469791744" lon="-7.8703937586">
        <ele>286.61</ele>
        <time>2018-12-19T13:34:48Z</time>
      </trkpt>
      <trkpt lat="39.4469750673" lon="-7.8704103548">
        <ele>286.13</ele>
        <time>2018-12-19T13:34:49Z</time>
      </trkpt>
      <trkpt lat="39.4469699543" lon="-7.8705727123">
        <ele>286.13</ele>
        <time>2018-12-19T13:34:59Z</time>
      </trkpt>
      <trkpt lat="39.4469529390" lon="-7.8705971036">
        <ele>285.17</ele>
        <time>2018-12-19T13:35:06Z</time>
      </trkpt>
      <trkpt lat="39.4469474908" lon="-7.8705783281">
        <ele>285.65</ele>
        <time>2018-12-19T13:35:19Z</time>
      </trkpt>
      <trkpt lat="39.4469483290" lon="-7.8705946729">
        <ele>284.69</ele>
        <time>2018-12-19T13:35:29Z</time>
      </trkpt>
      <trkpt lat="39.4469511788" lon="-7.8706011269">
        <ele>285.65</ele>
        <time>2018-12-19T13:35:38Z</time>
      </trkpt>
      <trkpt lat="39.4469464850" lon="-7.8705996182">
        <ele>285.65</ele>
        <time>2018-12-19T13:35:48Z</time>
      </trkpt>
      <trkpt lat="39.4469459821" lon="-7.8705981933">
        <ele>285.65</ele>
        <time>2018-12-19T13:36:01Z</time>
      </trkpt>
      <trkpt lat="39.4469384383" lon="-7.8705978580">
        <ele>285.65</ele>
        <time>2018-12-19T13:36:12Z</time>
      </trkpt>
      <trkpt lat="39.4469298050" lon="-7.8706000373">
        <ele>286.61</ele>
        <time>2018-12-19T13:36:24Z</time>
      </trkpt>
      <trkpt lat="39.4469360914" lon="-7.8706584591">
        <ele>286.13</ele>
        <time>2018-12-19T13:36:31Z</time>
      </trkpt>
      <trkpt lat="39.4469161425" lon="-7.8707903065">
        <ele>286.13</ele>
        <time>2018-12-19T13:36:40Z</time>
      </trkpt>
      <trkpt lat="39.4468921702" lon="-7.8709509037">
        <ele>286.61</ele>
        <time>2018-12-19T13:36:50Z</time>
      </trkpt>
      <trkpt lat="39.4468910806" lon="-7.8709902149">
        <ele>286.13</ele>
        <time>2018-12-19T13:36:53Z</time>
      </trkpt>
      <trkpt lat="39.4469148014" lon="-7.8711462021">
        <ele>285.65</ele>
        <time>2018-12-19T13:37:04Z</time>
      </trkpt>
      <trkpt lat="39.4469181541" lon="-7.8711519856">
        <ele>286.13</ele>
        <time>2018-12-19T13:37:07Z</time>
      </trkpt>
      <trkpt lat="39.4469038211" lon="-7.8713088948">
        <ele>285.65</ele>
        <time>2018-12-19T13:37:18Z</time>
      </trkpt>
      <trkpt lat="39.4468824472" lon="-7.8714448493">
        <ele>286.13</ele>
        <time>2018-12-19T13:37:27Z</time>
      </trkpt>
      <trkpt lat="39.4468510151" lon="-7.8715551551">
        <ele>285.65</ele>
        <time>2018-12-19T13:37:35Z</time>
      </trkpt>
      <trkpt lat="39.4468080159" lon="-7.8716850746">
        <ele>286.13</ele>
        <time>2018-12-19T13:37:44Z</time>
      </trkpt>
      <trkpt lat="39.4467964489" lon="-7.8717167582">
        <ele>286.13</ele>
        <time>2018-12-19T13:37:46Z</time>
      </trkpt>
      <trkpt lat="39.4467490073" lon="-7.8718444984">
        <ele>285.65</ele>
        <time>2018-12-19T13:37:55Z</time>
      </trkpt>
      <trkpt lat="39.4467016496" lon="-7.8719780222">
        <ele>285.65</ele>
        <time>2018-12-19T13:38:04Z</time>
      </trkpt>
      <trkpt lat="39.4466362707" lon="-7.8720882442">
        <ele>286.13</ele>
        <time>2018-12-19T13:38:13Z</time>
      </trkpt>
      <trkpt lat="39.4465625938" lon="-7.8722751606">
        <ele>286.61</ele>
        <time>2018-12-19T13:38:26Z</time>
      </trkpt>
      <trkpt lat="39.4465189241" lon="-7.8724013921">
        <ele>286.13</ele>
        <time>2018-12-19T13:38:35Z</time>
      </trkpt>
      <trkpt lat="39.4464590773" lon="-7.8725661803">
        <ele>286.61</ele>
        <time>2018-12-19T13:38:46Z</time>
      </trkpt>
      <trkpt lat="39.4464173354" lon="-7.8727371711">
        <ele>287.09</ele>
        <time>2018-12-19T13:38:57Z</time>
      </trkpt>
      <trkpt lat="39.4463553093" lon="-7.8729190584">
        <ele>286.61</ele>
        <time>2018-12-19T13:39:09Z</time>
      </trkpt>
      <trkpt lat="39.4463154115" lon="-7.8730702680">
        <ele>286.13</ele>
        <time>2018-12-19T13:39:19Z</time>
      </trkpt>
      <trkpt lat="39.4462923612" lon="-7.8732272610">
        <ele>286.13</ele>
        <time>2018-12-19T13:39:29Z</time>
      </trkpt>
      <trkpt lat="39.4462431595" lon="-7.8733716812">
        <ele>286.13</ele>
        <time>2018-12-19T13:39:39Z</time>
      </trkpt>
      <trkpt lat="39.4462171756" lon="-7.8734943923">
        <ele>284.21</ele>
        <time>2018-12-19T13:39:47Z</time>
      </trkpt>
      <trkpt lat="39.4461911079" lon="-7.8735616989">
        <ele>288.05</ele>
        <time>2018-12-19T13:39:52Z</time>
      </trkpt>
      <trkpt lat="39.4461756013" lon="-7.8735868447">
        <ele>286.61</ele>
        <time>2018-12-19T13:39:54Z</time>
      </trkpt>
      <trkpt lat="39.4460963923" lon="-7.8737293370">
        <ele>286.61</ele>
        <time>2018-12-19T13:40:04Z</time>
      </trkpt>
      <trkpt lat="39.4460221287" lon="-7.8739092965">
        <ele>287.09</ele>
        <time>2018-12-19T13:40:16Z</time>
      </trkpt>
      <trkpt lat="39.4459605217" lon="-7.8740079515">
        <ele>287.57</ele>
        <time>2018-12-19T13:40:24Z</time>
      </trkpt>
      <trkpt lat="39.4459248148" lon="-7.8741907608">
        <ele>286.61</ele>
        <time>2018-12-19T13:40:35Z</time>
      </trkpt>
      <trkpt lat="39.4459068775" lon="-7.8743446525">
        <ele>287.57</ele>
        <time>2018-12-19T13:40:45Z</time>
      </trkpt>
      <trkpt lat="39.4458705839" lon="-7.8745280486">
        <ele>286.61</ele>
        <time>2018-12-19T13:40:57Z</time>
      </trkpt>
      <trkpt lat="39.4458520599" lon="-7.8746742290">
        <ele>287.09</ele>
        <time>2018-12-19T13:41:06Z</time>
      </trkpt>
      <trkpt lat="39.4458440971" lon="-7.8748217504">
        <ele>286.13</ele>
        <time>2018-12-19T13:41:16Z</time>
      </trkpt>
      <trkpt lat="39.4458124135" lon="-7.8749883827">
        <ele>287.09</ele>
        <time>2018-12-19T13:41:26Z</time>
      </trkpt>
      <trkpt lat="39.4457553327" lon="-7.8751689289">
        <ele>286.13</ele>
        <time>2018-12-19T13:41:37Z</time>
      </trkpt>
      <trkpt lat="39.4457353838" lon="-7.8753329627">
        <ele>286.13</ele>
        <time>2018-12-19T13:41:47Z</time>
      </trkpt>
      <trkpt lat="39.4457092322" lon="-7.8754734434">
        <ele>287.09</ele>
        <time>2018-12-19T13:41:55Z</time>
      </trkpt>
      <trkpt lat="39.4456819072" lon="-7.8756244853">
        <ele>285.65</ele>
        <time>2018-12-19T13:42:04Z</time>
      </trkpt>
      <trkpt lat="39.4456757046" lon="-7.8756530676">
        <ele>286.13</ele>
        <time>2018-12-19T13:42:06Z</time>
      </trkpt>
      <trkpt lat="39.4456501398" lon="-7.8757904470">
        <ele>285.65</ele>
        <time>2018-12-19T13:42:16Z</time>
      </trkpt>
      <trkpt lat="39.4456291851" lon="-7.8759271558">
        <ele>286.13</ele>
        <time>2018-12-19T13:42:25Z</time>
      </trkpt>
      <trkpt lat="39.4456212223" lon="-7.8760043532">
        <ele>285.65</ele>
        <time>2018-12-19T13:42:29Z</time>
      </trkpt>
      <trkpt lat="39.4455935620" lon="-7.8761655372">
        <ele>285.17</ele>
        <time>2018-12-19T13:42:39Z</time>
      </trkpt>
      <trkpt lat="39.4455650635" lon="-7.8763096221">
        <ele>285.17</ele>
        <time>2018-12-19T13:42:48Z</time>
      </trkpt>
      <trkpt lat="39.4455298595" lon="-7.8764546290">
        <ele>285.65</ele>
        <time>2018-12-19T13:42:56Z</time>
      </trkpt>
      <trkpt lat="39.4455212262" lon="-7.8765037470">
        <ele>285.17</ele>
        <time>2018-12-19T13:42:59Z</time>
      </trkpt>
      <trkpt lat="39.4455158617" lon="-7.8765729815">
        <ele>285.17</ele>
        <time>2018-12-19T13:43:03Z</time>
      </trkpt>
      <trkpt lat="39.4454883691" lon="-7.8766574711">
        <ele>285.17</ele>
        <time>2018-12-19T13:43:08Z</time>
      </trkpt>
      <trkpt lat="39.4454697613" lon="-7.8767913301">
        <ele>285.17</ele>
        <time>2018-12-19T13:43:16Z</time>
      </trkpt>
      <trkpt lat="39.4454379100" lon="-7.8768899851">
        <ele>285.17</ele>
        <time>2018-12-19T13:43:22Z</time>
      </trkpt>
      <trkpt lat="39.4454086572" lon="-7.8770945035">
        <ele>284.69</ele>
        <time>2018-12-19T13:43:34Z</time>
      </trkpt>
      <trkpt lat="39.4454014488" lon="-7.8771432023">
        <ele>284.21</ele>
        <time>2018-12-19T13:43:37Z</time>
      </trkpt>
      <trkpt lat="39.4453673344" lon="-7.8773055598">
        <ele>284.69</ele>
        <time>2018-12-19T13:43:47Z</time>
      </trkpt>
      <trkpt lat="39.4453154504" lon="-7.8774506506">
        <ele>284.21</ele>
        <time>2018-12-19T13:43:57Z</time>
      </trkpt>
      <trkpt lat="39.4452870358" lon="-7.8776249941">
        <ele>283.73</ele>
        <time>2018-12-19T13:44:07Z</time>
      </trkpt>
      <trkpt lat="39.4452624768" lon="-7.8777654748">
        <ele>284.21</ele>
        <time>2018-12-19T13:44:16Z</time>
      </trkpt>
      <trkpt lat="39.4452572800" lon="-7.8778889403">
        <ele>283.25</ele>
        <time>2018-12-19T13:44:24Z</time>
      </trkpt>
      <trkpt lat="39.4452390913" lon="-7.8779946361">
        <ele>283.25</ele>
        <time>2018-12-19T13:44:31Z</time>
      </trkpt>
      <trkpt lat="39.4452390913" lon="-7.8780403174">
        <ele>283.25</ele>
        <time>2018-12-19T13:44:34Z</time>
      </trkpt>
      <trkpt lat="39.4452062342" lon="-7.8782156669">
        <ele>283.25</ele>
        <time>2018-12-19T13:44:44Z</time>
      </trkpt>
      <trkpt lat="39.4451856147" lon="-7.8783666249">
        <ele>282.77</ele>
        <time>2018-12-19T13:44:53Z</time>
      </trkpt>
      <trkpt lat="39.4451835193" lon="-7.8783827182">
        <ele>282.28</ele>
        <time>2018-12-19T13:44:54Z</time>
      </trkpt>
      <trkpt lat="39.4452214893" lon="-7.8785423934">
        <ele>282.77</ele>
        <time>2018-12-19T13:45:04Z</time>
      </trkpt>
      <trkpt lat="39.4452753849" lon="-7.8786555491">
        <ele>282.77</ele>
        <time>2018-12-19T13:45:11Z</time>
      </trkpt>
      <trkpt lat="39.4452967588" lon="-7.8787029069">
        <ele>282.77</ele>
        <time>2018-12-19T13:45:14Z</time>
      </trkpt>
      <trkpt lat="39.4453045540" lon="-7.8787983768">
        <ele>283.25</ele>
        <time>2018-12-19T13:45:20Z</time>
      </trkpt>
      <trkpt lat="39.4453426078" lon="-7.8789232671">
        <ele>283.73</ele>
        <time>2018-12-19T13:45:29Z</time>
      </trkpt>
      <trkpt lat="39.4453535043" lon="-7.8789557051">
        <ele>283.73</ele>
        <time>2018-12-19T13:45:31Z</time>
      </trkpt>
      <trkpt lat="39.4454001915" lon="-7.8790624067">
        <ele>284.21</ele>
        <time>2018-12-19T13:45:37Z</time>
      </trkpt>
      <trkpt lat="39.4454213977" lon="-7.8791515063">
        <ele>283.73</ele>
        <time>2018-12-19T13:45:44Z</time>
      </trkpt>
      <trkpt lat="39.4454572722" lon="-7.8792695235">
        <ele>284.21</ele>
        <time>2018-12-19T13:45:52Z</time>
      </trkpt>
      <trkpt lat="39.4454794005" lon="-7.8793510795">
        <ele>283.73</ele>
        <time>2018-12-19T13:45:57Z</time>
      </trkpt>
      <trkpt lat="39.4454830885" lon="-7.8794120159">
        <ele>284.21</ele>
        <time>2018-12-19T13:46:01Z</time>
      </trkpt>
      <trkpt lat="39.4454950746" lon="-7.8794579487">
        <ele>283.73</ele>
        <time>2018-12-19T13:46:04Z</time>
      </trkpt>
      <trkpt lat="39.4455300272" lon="-7.8795743734">
        <ele>284.21</ele>
        <time>2018-12-19T13:46:13Z</time>
      </trkpt>
      <trkpt lat="39.4455435220" lon="-7.8796310350">
        <ele>284.69</ele>
        <time>2018-12-19T13:46:21Z</time>
      </trkpt>
      <trkpt lat="39.4455410074" lon="-7.8796586953">
        <ele>285.17</ele>
        <time>2018-12-19T13:46:36Z</time>
      </trkpt>
      <trkpt lat="39.4455550890" lon="-7.8797200508">
        <ele>285.17</ele>
        <time>2018-12-19T13:46:41Z</time>
      </trkpt>
      <trkpt lat="39.4456135947" lon="-7.8798638005">
        <ele>285.17</ele>
        <time>2018-12-19T13:46:51Z</time>
      </trkpt>
      <trkpt lat="39.4456363097" lon="-7.8799495474">
        <ele>284.69</ele>
        <time>2018-12-19T13:46:57Z</time>
      </trkpt>
      <trkpt lat="39.4456561748" lon="-7.8800404910">
        <ele>284.69</ele>
        <time>2018-12-19T13:47:03Z</time>
      </trkpt>
      <trkpt lat="39.4456815720" lon="-7.8801193647">
        <ele>285.17</ele>
        <time>2018-12-19T13:47:08Z</time>
      </trkpt>
      <trkpt lat="39.4457119144" lon="-7.8802793752">
        <ele>285.17</ele>
        <time>2018-12-19T13:47:18Z</time>
      </trkpt>
      <trkpt lat="39.4457358029" lon="-7.8803653736">
        <ele>285.65</ele>
        <time>2018-12-19T13:47:24Z</time>
      </trkpt>
      <trkpt lat="39.4457409158" lon="-7.8804830555">
        <ele>285.65</ele>
        <time>2018-12-19T13:47:32Z</time>
      </trkpt>
      <trkpt lat="39.4457787182" lon="-7.8806478437">
        <ele>286.13</ele>
        <time>2018-12-19T13:47:42Z</time>
      </trkpt>
      <trkpt lat="39.4457897823" lon="-7.8807791881">
        <ele>286.13</ele>
        <time>2018-12-19T13:47:51Z</time>
      </trkpt>
      <trkpt lat="39.4457938056" lon="-7.8809532803">
        <ele>286.13</ele>
        <time>2018-12-19T13:48:02Z</time>
      </trkpt>
      <trkpt lat="39.4458098151" lon="-7.8810899053">
        <ele>286.13</ele>
        <time>2018-12-19T13:48:11Z</time>
      </trkpt>
      <trkpt lat="39.4458265789" lon="-7.8812168073">
        <ele>286.61</ele>
        <time>2018-12-19T13:48:19Z</time>
      </trkpt>
      <trkpt lat="39.4458435941" lon="-7.8813484870">
        <ele>285.65</ele>
        <time>2018-12-19T13:48:27Z</time>
      </trkpt>
      <trkpt lat="39.4458490424" lon="-7.8814154584">
        <ele>285.17</ele>
        <time>2018-12-19T13:48:31Z</time>
      </trkpt>
      <trkpt lat="39.4458601065" lon="-7.8814467229">
        <ele>286.13</ele>
        <time>2018-12-19T13:48:33Z</time>
      </trkpt>
      <trkpt lat="39.4458718412" lon="-7.8815551847">
        <ele>285.65</ele>
        <time>2018-12-19T13:48:40Z</time>
      </trkpt>
      <trkpt lat="39.4458607771" lon="-7.8816300351">
        <ele>285.17</ele>
        <time>2018-12-19T13:48:45Z</time>
      </trkpt>
      <trkpt lat="39.4458425883" lon="-7.8818194661">
        <ele>285.17</ele>
        <time>2018-12-19T13:48:56Z</time>
      </trkpt>
      <trkpt lat="39.4458372239" lon="-7.8818642255">
        <ele>284.69</ele>
        <time>2018-12-19T13:48:59Z</time>
      </trkpt>
      <trkpt lat="39.4458351284" lon="-7.8820077237">
        <ele>284.69</ele>
        <time>2018-12-19T13:49:07Z</time>
      </trkpt>
      <trkpt lat="39.4458457734" lon="-7.8821426723">
        <ele>284.21</ele>
        <time>2018-12-19T13:49:15Z</time>
      </trkpt>
      <trkpt lat="39.4458821509" lon="-7.8822919540">
        <ele>283.73</ele>
        <time>2018-12-19T13:49:24Z</time>
      </trkpt>
      <trkpt lat="39.4458971545" lon="-7.8823638707">
        <ele>284.21</ele>
        <time>2018-12-19T13:49:28Z</time>
      </trkpt>
      <trkpt lat="39.4459347893" lon="-7.8824628610">
        <ele>283.73</ele>
        <time>2018-12-19T13:49:34Z</time>
      </trkpt>
      <trkpt lat="39.4459439255" lon="-7.8825114761">
        <ele>283.73</ele>
        <time>2018-12-19T13:49:37Z</time>
      </trkpt>
      <trkpt lat="39.4459523074" lon="-7.8826025873">
        <ele>283.25</ele>
        <time>2018-12-19T13:49:42Z</time>
      </trkpt>
      <trkpt lat="39.4459502120" lon="-7.8826803714">
        <ele>283.25</ele>
        <time>2018-12-19T13:49:46Z</time>
      </trkpt>
      <trkpt lat="39.4459539838" lon="-7.8828237858">
        <ele>283.73</ele>
        <time>2018-12-19T13:49:55Z</time>
      </trkpt>
      <trkpt lat="39.4459654670" lon="-7.8829282243">
        <ele>282.77</ele>
        <time>2018-12-19T13:50:03Z</time>
      </trkpt>
      <trkpt lat="39.4459922053" lon="-7.8830479179">
        <ele>282.28</ele>
        <time>2018-12-19T13:50:11Z</time>
      </trkpt>
      <trkpt lat="39.4460326899" lon="-7.8831733949">
        <ele>282.77</ele>
        <time>2018-12-19T13:50:19Z</time>
      </trkpt>
      <trkpt lat="39.4460385572" lon="-7.8831845429">
        <ele>282.77</ele>
        <time>2018-12-19T13:50:20Z</time>
      </trkpt>
      <trkpt lat="39.4461075403" lon="-7.8833114449">
        <ele>282.77</ele>
        <time>2018-12-19T13:50:28Z</time>
      </trkpt>
      <trkpt lat="39.4461466838" lon="-7.8834376764">
        <ele>282.28</ele>
        <time>2018-12-19T13:50:35Z</time>
      </trkpt>
      <trkpt lat="39.4461736735" lon="-7.8835877124">
        <ele>282.28</ele>
        <time>2018-12-19T13:50:44Z</time>
      </trkpt>
      <trkpt lat="39.4462352805" lon="-7.8837300371">
        <ele>282.28</ele>
        <time>2018-12-19T13:50:54Z</time>
      </trkpt>
      <trkpt lat="39.4462502841" lon="-7.8838448692">
        <ele>282.77</ele>
        <time>2018-12-19T13:51:03Z</time>
      </trkpt>
      <trkpt lat="39.4462494459" lon="-7.8838731162">
        <ele>282.77</ele>
        <time>2018-12-19T13:51:05Z</time>
      </trkpt>
      <trkpt lat="39.4463037606" lon="-7.8841057979">
        <ele>283.25</ele>
        <time>2018-12-19T13:51:18Z</time>
      </trkpt>
      <trkpt lat="39.4463597517" lon="-7.8842873499">
        <ele>283.25</ele>
        <time>2018-12-19T13:51:30Z</time>
      </trkpt>
      <trkpt lat="39.4463994820" lon="-7.8844160121">
        <ele>282.77</ele>
        <time>2018-12-19T13:51:39Z</time>
      </trkpt>
      <trkpt lat="39.4464118872" lon="-7.8845526371">
        <ele>283.25</ele>
        <time>2018-12-19T13:51:48Z</time>
      </trkpt>
      <trkpt lat="39.4464432355" lon="-7.8847173415">
        <ele>282.77</ele>
        <time>2018-12-19T13:51:58Z</time>
      </trkpt>
      <trkpt lat="39.4464359432" lon="-7.8848059382">
        <ele>283.25</ele>
        <time>2018-12-19T13:52:06Z</time>
      </trkpt>
      <trkpt lat="39.4464216102" lon="-7.8848374542">
        <ele>282.77</ele>
        <time>2018-12-19T13:52:17Z</time>
      </trkpt>
      <trkpt lat="39.4464260526" lon="-7.8848603368">
        <ele>283.73</ele>
        <time>2018-12-19T13:52:26Z</time>
      </trkpt>
      <trkpt lat="39.4464188442" lon="-7.8848834708">
        <ele>283.73</ele>
        <time>2018-12-19T13:52:33Z</time>
      </trkpt>
      <trkpt lat="39.4464262202" lon="-7.8849150706">
        <ele>282.77</ele>
        <time>2018-12-19T13:52:40Z</time>
      </trkpt>
      <trkpt lat="39.4464329258" lon="-7.8848828003">
        <ele>283.25</ele>
        <time>2018-12-19T13:52:51Z</time>
      </trkpt>
      <trkpt lat="39.4464326743" lon="-7.8848898411">
        <ele>277.96</ele>
        <time>2018-12-19T13:52:57Z</time>
      </trkpt>
      <trkpt lat="39.4464271422" lon="-7.8848937806">
        <ele>285.17</ele>
        <time>2018-12-19T13:52:59Z</time>
      </trkpt>
      <trkpt lat="39.4464251306" lon="-7.8848964628">
        <ele>291.90</ele>
        <time>2018-12-19T13:53:00Z</time>
      </trkpt>
      <trkpt lat="39.4464217778" lon="-7.8848921042">
        <ele>284.21</ele>
        <time>2018-12-19T13:53:01Z</time>
      </trkpt>
      <trkpt lat="39.4464229513" lon="-7.8848849796">
        <ele>282.77</ele>
        <time>2018-12-19T13:53:02Z</time>
      </trkpt>
      <trkpt lat="39.4464232866" lon="-7.8849076945">
        <ele>283.25</ele>
        <time>2018-12-19T13:53:04Z</time>
      </trkpt>
      <trkpt lat="39.4464334287" lon="-7.8849720675">
        <ele>283.25</ele>
        <time>2018-12-19T13:53:08Z</time>
      </trkpt>
      <trkpt lat="39.4464318361" lon="-7.8851267137">
        <ele>282.77</ele>
        <time>2018-12-19T13:53:18Z</time>
      </trkpt>
      <trkpt lat="39.4464383740" lon="-7.8852146398">
        <ele>283.73</ele>
        <time>2018-12-19T13:53:26Z</time>
      </trkpt>
      <trkpt lat="39.4464397989" lon="-7.8853157256">
        <ele>283.25</ele>
        <time>2018-12-19T13:53:33Z</time>
      </trkpt>
      <trkpt lat="39.4464537967" lon="-7.8854668513">
        <ele>283.73</ele>
        <time>2018-12-19T13:53:42Z</time>
      </trkpt>
      <trkpt lat="39.4464336801" lon="-7.8856240958">
        <ele>283.25</ele>
        <time>2018-12-19T13:53:52Z</time>
      </trkpt>
      <trkpt lat="39.4464423973" lon="-7.8857696056">
        <ele>283.73</ele>
        <time>2018-12-19T13:54:01Z</time>
      </trkpt>
      <trkpt lat="39.4464436546" lon="-7.8858948313">
        <ele>284.21</ele>
        <time>2018-12-19T13:54:09Z</time>
      </trkpt>
      <trkpt lat="39.4464411400" lon="-7.8859220725">
        <ele>284.21</ele>
        <time>2018-12-19T13:54:11Z</time>
      </trkpt>
      <trkpt lat="39.4464477617" lon="-7.8860038798">
        <ele>283.73</ele>
        <time>2018-12-19T13:54:16Z</time>
      </trkpt>
      <trkpt lat="39.4464336801" lon="-7.8861502279">
        <ele>284.69</ele>
        <time>2018-12-19T13:54:25Z</time>
      </trkpt>
      <trkpt lat="39.4464374520" lon="-7.8862979170">
        <ele>285.17</ele>
        <time>2018-12-19T13:54:34Z</time>
      </trkpt>
      <trkpt lat="39.4464583229" lon="-7.8864660580">
        <ele>285.65</ele>
        <time>2018-12-19T13:54:44Z</time>
      </trkpt>
      <trkpt lat="39.4464613404" lon="-7.8866174351">
        <ele>285.17</ele>
        <time>2018-12-19T13:54:53Z</time>
      </trkpt>
      <trkpt lat="39.4464860670" lon="-7.8867817204">
        <ele>286.61</ele>
        <time>2018-12-19T13:55:03Z</time>
      </trkpt>
      <trkpt lat="39.4465190917" lon="-7.8869605064">
        <ele>286.13</ele>
        <time>2018-12-19T13:55:14Z</time>
      </trkpt>
      <trkpt lat="39.4465097878" lon="-7.8871226124">
        <ele>286.13</ele>
        <time>2018-12-19T13:55:24Z</time>
      </trkpt>
      <trkpt lat="39.4465108775" lon="-7.8872864787">
        <ele>286.13</ele>
        <time>2018-12-19T13:55:34Z</time>
      </trkpt>
      <trkpt lat="39.4465076923" lon="-7.8874184936">
        <ele>286.13</ele>
        <time>2018-12-19T13:55:42Z</time>
      </trkpt>
      <trkpt lat="39.4465208519" lon="-7.8875544481">
        <ele>285.17</ele>
        <time>2018-12-19T13:55:51Z</time>
      </trkpt>
      <trkpt lat="39.4465461653" lon="-7.8877287917">
        <ele>285.65</ele>
        <time>2018-12-19T13:56:01Z</time>
      </trkpt>
      <trkpt lat="39.4465484284" lon="-7.8877453040">
        <ele>284.69</ele>
        <time>2018-12-19T13:56:02Z</time>
      </trkpt>
      <trkpt lat="39.4465707242" lon="-7.8879182227">
        <ele>284.69</ele>
        <time>2018-12-19T13:56:13Z</time>
      </trkpt>
      <trkpt lat="39.4466087781" lon="-7.8880778141">
        <ele>285.17</ele>
        <time>2018-12-19T13:56:23Z</time>
      </trkpt>
      <trkpt lat="39.4466304034" lon="-7.8882028721">
        <ele>285.17</ele>
        <time>2018-12-19T13:56:31Z</time>
      </trkpt>
      <trkpt lat="39.4466148969" lon="-7.8883584403">
        <ele>285.17</ele>
        <time>2018-12-19T13:56:41Z</time>
      </trkpt>
      <trkpt lat="39.4466091972" lon="-7.8884897009">
        <ele>285.17</ele>
        <time>2018-12-19T13:56:50Z</time>
      </trkpt>
      <trkpt lat="39.4465861470" lon="-7.8885972407">
        <ele>284.69</ele>
        <time>2018-12-19T13:56:58Z</time>
      </trkpt>
      <trkpt lat="39.4465851411" lon="-7.8886114899">
        <ele>284.21</ele>
        <time>2018-12-19T13:56:59Z</time>
      </trkpt>
      <trkpt lat="39.4466015697" lon="-7.8887660522">
        <ele>284.21</ele>
        <time>2018-12-19T13:57:09Z</time>
      </trkpt>
      <trkpt lat="39.4466085266" lon="-7.8889412340">
        <ele>283.73</ele>
        <time>2018-12-19T13:57:20Z</time>
      </trkpt>
      <trkpt lat="39.4466215186" lon="-7.8891175892">
        <ele>284.69</ele>
        <time>2018-12-19T13:57:31Z</time>
      </trkpt>
      <trkpt lat="39.4466462452" lon="-7.8892896697">
        <ele>284.69</ele>
        <time>2018-12-19T13:57:42Z</time>
      </trkpt>
      <trkpt lat="39.4466879033" lon="-7.8894872312">
        <ele>284.69</ele>
        <time>2018-12-19T13:57:54Z</time>
      </trkpt>
      <trkpt lat="39.4467338361" lon="-7.8896533605">
        <ele>284.21</ele>
        <time>2018-12-19T13:58:05Z</time>
      </trkpt>
      <trkpt lat="39.4467490911" lon="-7.8897868004">
        <ele>284.21</ele>
        <time>2018-12-19T13:58:14Z</time>
      </trkpt>
      <trkpt lat="39.4467666093" lon="-7.8899442125">
        <ele>284.21</ele>
        <time>2018-12-19T13:58:24Z</time>
      </trkpt>
      <trkpt lat="39.4468113687" lon="-7.8900896385">
        <ele>284.21</ele>
        <time>2018-12-19T13:58:34Z</time>
      </trkpt>
      <trkpt lat="39.4468448963" lon="-7.8902335558">
        <ele>285.65</ele>
        <time>2018-12-19T13:58:43Z</time>
      </trkpt>
      <trkpt lat="39.4469175674" lon="-7.8903708514">
        <ele>286.13</ele>
        <time>2018-12-19T13:58:53Z</time>
      </trkpt>
      <trkpt lat="39.4469882268" lon="-7.8905111644">
        <ele>287.09</ele>
        <time>2018-12-19T13:59:04Z</time>
      </trkpt>
      <trkpt lat="39.4470639154" lon="-7.8906425927">
        <ele>287.09</ele>
        <time>2018-12-19T13:59:14Z</time>
      </trkpt>
      <trkpt lat="39.4471288752" lon="-7.8907872643">
        <ele>287.57</ele>
        <time>2018-12-19T13:59:24Z</time>
      </trkpt>
      <trkpt lat="39.4472028036" lon="-7.8908932954">
        <ele>287.09</ele>
        <time>2018-12-19T13:59:33Z</time>
      </trkpt>
      <trkpt lat="39.4472859520" lon="-7.8910333570">
        <ele>286.61</ele>
        <time>2018-12-19T13:59:44Z</time>
      </trkpt>
      <trkpt lat="39.4473759737" lon="-7.8911873326">
        <ele>286.61</ele>
        <time>2018-12-19T13:59:56Z</time>
      </trkpt>
      <trkpt lat="39.4474870339" lon="-7.8913118038">
        <ele>286.61</ele>
        <time>2018-12-19T14:00:08Z</time>
      </trkpt>
      <trkpt lat="39.4475350622" lon="-7.8913444094">
        <ele>286.61</ele>
        <time>2018-12-19T14:00:15Z</time>
      </trkpt>
      <trkpt lat="39.4475887902" lon="-7.8914098721">
        <ele>286.61</ele>
        <time>2018-12-19T14:00:22Z</time>
      </trkpt>
      <trkpt lat="39.4475970883" lon="-7.8915185016">
        <ele>286.61</ele>
        <time>2018-12-19T14:00:29Z</time>
      </trkpt>
      <trkpt lat="39.4476906303" lon="-7.8916587308">
        <ele>286.61</ele>
        <time>2018-12-19T14:00:40Z</time>
      </trkpt>
      <trkpt lat="39.4477692526" lon="-7.8918093536">
        <ele>286.13</ele>
        <time>2018-12-19T14:00:51Z</time>
      </trkpt>
      <trkpt lat="39.4478659797" lon="-7.8919437155">
        <ele>287.57</ele>
        <time>2018-12-19T14:01:02Z</time>
      </trkpt>
      <trkpt lat="39.4479339570" lon="-7.8920640796">
        <ele>287.57</ele>
        <time>2018-12-19T14:01:11Z</time>
      </trkpt>
      <trkpt lat="39.4480067957" lon="-7.8922334779">
        <ele>288.05</ele>
        <time>2018-12-19T14:01:23Z</time>
      </trkpt>
      <trkpt lat="39.4480618648" lon="-7.8923400957">
        <ele>288.05</ele>
        <time>2018-12-19T14:01:31Z</time>
      </trkpt>
      <trkpt lat="39.4481235556" lon="-7.8924805764">
        <ele>289.01</ele>
        <time>2018-12-19T14:01:41Z</time>
      </trkpt>
      <trkpt lat="39.4481818099" lon="-7.8925798181">
        <ele>288.53</ele>
        <time>2018-12-19T14:01:49Z</time>
      </trkpt>
      <trkpt lat="39.4481968973" lon="-7.8926074784">
        <ele>288.05</ele>
        <time>2018-12-19T14:01:51Z</time>
      </trkpt>
      <trkpt lat="39.4482586719" lon="-7.8926886991">
        <ele>287.57</ele>
        <time>2018-12-19T14:01:58Z</time>
      </trkpt>
      <trkpt lat="39.4482640363" lon="-7.8927038703">
        <ele>290.46</ele>
        <time>2018-12-19T14:01:59Z</time>
      </trkpt>
      <trkpt lat="39.4482850749" lon="-7.8927426785">
        <ele>287.09</ele>
        <time>2018-12-19T14:02:02Z</time>
      </trkpt>
      <trkpt lat="39.4483446702" lon="-7.8928299341">
        <ele>287.09</ele>
        <time>2018-12-19T14:02:11Z</time>
      </trkpt>
      <trkpt lat="39.4483512919" lon="-7.8928399086">
        <ele>287.57</ele>
        <time>2018-12-19T14:02:12Z</time>
      </trkpt>
      <trkpt lat="39.4483987335" lon="-7.8929837421">
        <ele>288.53</ele>
        <time>2018-12-19T14:02:21Z</time>
      </trkpt>
      <trkpt lat="39.4484501146" lon="-7.8931016754">
        <ele>287.57</ele>
        <time>2018-12-19T14:02:28Z</time>
      </trkpt>
      <trkpt lat="39.4485263061" lon="-7.8932454251">
        <ele>288.53</ele>
        <time>2018-12-19T14:02:39Z</time>
      </trkpt>
      <trkpt lat="39.4485966302" lon="-7.8934011608">
        <ele>288.53</ele>
        <time>2018-12-19T14:02:50Z</time>
      </trkpt>
      <trkpt lat="39.4486525375" lon="-7.8935630992">
        <ele>288.05</ele>
        <time>2018-12-19T14:03:01Z</time>
      </trkpt>
      <trkpt lat="39.4487414695" lon="-7.8937109560">
        <ele>289.01</ele>
        <time>2018-12-19T14:03:12Z</time>
      </trkpt>
      <trkpt lat="39.4488319103" lon="-7.8938752413">
        <ele>289.01</ele>
        <time>2018-12-19T14:03:24Z</time>
      </trkpt>
      <trkpt lat="39.4489168189" lon="-7.8940086812">
        <ele>289.49</ele>
        <time>2018-12-19T14:03:35Z</time>
      </trkpt>
      <trkpt lat="39.4489676971" lon="-7.8941504192">
        <ele>289.97</ele>
        <time>2018-12-19T14:03:45Z</time>
      </trkpt>
      <trkpt lat="39.4490006380" lon="-7.8943048138">
        <ele>289.97</ele>
        <time>2018-12-19T14:03:55Z</time>
      </trkpt>
      <trkpt lat="39.4489851315" lon="-7.8944501560">
        <ele>289.01</ele>
        <time>2018-12-19T14:04:04Z</time>
      </trkpt>
      <trkpt lat="39.4489582255" lon="-7.8945973422">
        <ele>289.01</ele>
        <time>2018-12-19T14:04:13Z</time>
      </trkpt>
      <trkpt lat="39.4488873985" lon="-7.8947087377">
        <ele>289.49</ele>
        <time>2018-12-19T14:04:22Z</time>
      </trkpt>
      <trkpt lat="39.4487566408" lon="-7.8948248271">
        <ele>289.49</ele>
        <time>2018-12-19T14:04:34Z</time>
      </trkpt>
      <trkpt lat="39.4486309122" lon="-7.8949472867">
        <ele>289.97</ele>
        <time>2018-12-19T14:04:46Z</time>
      </trkpt>
      <trkpt lat="39.4485378731" lon="-7.8950613644">
        <ele>289.49</ele>
        <time>2018-12-19T14:04:56Z</time>
      </trkpt>
      <trkpt lat="39.4484259747" lon="-7.8951689880">
        <ele>290.46</ele>
        <time>2018-12-19T14:05:07Z</time>
      </trkpt>
      <trkpt lat="39.4483260624" lon="-7.8952886816">
        <ele>290.94</ele>
        <time>2018-12-19T14:05:18Z</time>
      </trkpt>
      <trkpt lat="39.4482268207" lon="-7.8954087105">
        <ele>289.49</ele>
        <time>2018-12-19T14:05:29Z</time>
      </trkpt>
      <trkpt lat="39.4481533114" lon="-7.8955034260">
        <ele>290.46</ele>
        <time>2018-12-19T14:05:38Z</time>
      </trkpt>
      <trkpt lat="39.4480693247" lon="-7.8956458345">
        <ele>289.97</ele>
        <time>2018-12-19T14:05:49Z</time>
      </trkpt>
      <trkpt lat="39.4480103999" lon="-7.8958215192">
        <ele>290.46</ele>
        <time>2018-12-19T14:06:01Z</time>
      </trkpt>
      <trkpt lat="39.4479789678" lon="-7.8959497623">
        <ele>289.49</ele>
        <time>2018-12-19T14:06:10Z</time>
      </trkpt>
      <trkpt lat="39.4479856733" lon="-7.8960898239">
        <ele>290.46</ele>
        <time>2018-12-19T14:06:19Z</time>
      </trkpt>
      <trkpt lat="39.4480238948" lon="-7.8962260298">
        <ele>289.97</ele>
        <time>2018-12-19T14:06:29Z</time>
      </trkpt>
      <trkpt lat="39.4480198715" lon="-7.8962597251">
        <ele>289.97</ele>
        <time>2018-12-19T14:06:37Z</time>
      </trkpt>
      <trkpt lat="39.4480142556" lon="-7.8962733038">
        <ele>290.46</ele>
        <time>2018-12-19T14:06:46Z</time>
      </trkpt>
      <trkpt lat="39.4480077177" lon="-7.8962733876">
        <ele>290.46</ele>
        <time>2018-12-19T14:06:55Z</time>
      </trkpt>
      <trkpt lat="39.4480107352" lon="-7.8962821048">
        <ele>289.97</ele>
        <time>2018-12-19T14:07:05Z</time>
      </trkpt>
      <trkpt lat="39.4480033591" lon="-7.8962743934">
        <ele>290.46</ele>
        <time>2018-12-19T14:07:18Z</time>
      </trkpt>
      <trkpt lat="39.4480263256" lon="-7.8962915763">
        <ele>289.97</ele>
        <time>2018-12-19T14:07:27Z</time>
      </trkpt>
      <trkpt lat="39.4480413292" lon="-7.8963025566">
        <ele>290.46</ele>
        <time>2018-12-19T14:07:30Z</time>
      </trkpt>
      <trkpt lat="39.4480813947" lon="-7.8963736352">
        <ele>290.46</ele>
        <time>2018-12-19T14:07:37Z</time>
      </trkpt>
      <trkpt lat="39.4481416605" lon="-7.8964990284">
        <ele>289.49</ele>
        <time>2018-12-19T14:07:47Z</time>
      </trkpt>
      <trkpt lat="39.4481777865" lon="-7.8966302890">
        <ele>290.94</ele>
        <time>2018-12-19T14:07:57Z</time>
      </trkpt>
      <trkpt lat="39.4482426625" lon="-7.8967745416">
        <ele>291.42</ele>
        <time>2018-12-19T14:08:08Z</time>
      </trkpt>
      <trkpt lat="39.4483025093" lon="-7.8968964145">
        <ele>291.90</ele>
        <time>2018-12-19T14:08:17Z</time>
      </trkpt>
      <trkpt lat="39.4483743422" lon="-7.8970060498">
        <ele>291.42</ele>
        <time>2018-12-19T14:08:26Z</time>
      </trkpt>
      <trkpt lat="39.4484326802" lon="-7.8971354663">
        <ele>291.42</ele>
        <time>2018-12-19T14:08:35Z</time>
      </trkpt>
      <trkpt lat="39.4485118054" lon="-7.8972729295">
        <ele>291.42</ele>
        <time>2018-12-19T14:08:45Z</time>
      </trkpt>
      <trkpt lat="39.4486047607" lon="-7.8973951377">
        <ele>291.42</ele>
        <time>2018-12-19T14:08:55Z</time>
      </trkpt>
      <trkpt lat="39.4486960396" lon="-7.8975471854">
        <ele>289.97</ele>
        <time>2018-12-19T14:09:07Z</time>
      </trkpt>
      <trkpt lat="39.4487909228" lon="-7.8976572398">
        <ele>289.49</ele>
        <time>2018-12-19T14:09:18Z</time>
      </trkpt>
      <trkpt lat="39.4488666113" lon="-7.8977558110">
        <ele>288.05</ele>
        <time>2018-12-19T14:09:27Z</time>
      </trkpt>
      <trkpt lat="39.4489463232" lon="-7.8978410549">
        <ele>286.13</ele>
        <time>2018-12-19T14:09:35Z</time>
      </trkpt>
      <trkpt lat="39.4490216766" lon="-7.8979253769">
        <ele>285.65</ele>
        <time>2018-12-19T14:09:44Z</time>
      </trkpt>
      <trkpt lat="39.4491093513" lon="-7.8980151471">
        <ele>284.21</ele>
        <time>2018-12-19T14:09:53Z</time>
      </trkpt>
      <trkpt lat="39.4491484948" lon="-7.8980725631">
        <ele>284.21</ele>
        <time>2018-12-19T14:09:58Z</time>
      </trkpt>
      <trkpt lat="39.4491616543" lon="-7.8981793486">
        <ele>285.17</ele>
        <time>2018-12-19T14:10:07Z</time>
      </trkpt>
      <trkpt lat="39.4491401967" lon="-7.8982531093">
        <ele>285.65</ele>
        <time>2018-12-19T14:10:13Z</time>
      </trkpt>
      <trkpt lat="39.4490837026" lon="-7.8983654268">
        <ele>287.09</ele>
        <time>2018-12-19T14:10:22Z</time>
      </trkpt>
      <trkpt lat="39.4490448106" lon="-7.8984399419">
        <ele>288.05</ele>
        <time>2018-12-19T14:10:29Z</time>
      </trkpt>
      <trkpt lat="39.4489763305" lon="-7.8985406924">
        <ele>289.01</ele>
        <time>2018-12-19T14:10:37Z</time>
      </trkpt>
      <trkpt lat="39.4489324093" lon="-7.8986398503">
        <ele>289.97</ele>
        <time>2018-12-19T14:10:45Z</time>
      </trkpt>
      <trkpt lat="39.4489480834" lon="-7.8986828495">
        <ele>290.46</ele>
        <time>2018-12-19T14:10:48Z</time>
      </trkpt>
      <trkpt lat="39.4490372669" lon="-7.8987530898">
        <ele>289.97</ele>
        <time>2018-12-19T14:10:57Z</time>
      </trkpt>
      <trkpt lat="39.4491341617" lon="-7.8988212347">
        <ele>289.01</ele>
        <time>2018-12-19T14:11:06Z</time>
      </trkpt>
      <trkpt lat="39.4491764065" lon="-7.8988455422">
        <ele>289.49</ele>
        <time>2018-12-19T14:11:14Z</time>
      </trkpt>
      <trkpt lat="39.4492098503" lon="-7.8988890443">
        <ele>289.01</ele>
        <time>2018-12-19T14:11:18Z</time>
      </trkpt>
      <trkpt lat="39.4493174739" lon="-7.8990107495">
        <ele>289.49</ele>
        <time>2018-12-19T14:11:29Z</time>
      </trkpt>
      <trkpt lat="39.4493264426" lon="-7.8990188800">
        <ele>289.01</ele>
        <time>2018-12-19T14:11:30Z</time>
      </trkpt>
      <trkpt lat="39.4493516721" lon="-7.8990399186">
        <ele>289.01</ele>
        <time>2018-12-19T14:11:33Z</time>
      </trkpt>
      <trkpt lat="39.4493993651" lon="-7.8991259169">
        <ele>289.01</ele>
        <time>2018-12-19T14:11:40Z</time>
      </trkpt>
      <trkpt lat="39.4494054839" lon="-7.8992518969">
        <ele>288.53</ele>
        <time>2018-12-19T14:11:49Z</time>
      </trkpt>
      <trkpt lat="39.4495452102" lon="-7.8993870970">
        <ele>288.05</ele>
        <time>2018-12-19T14:12:02Z</time>
      </trkpt>
      <trkpt lat="39.4496380817" lon="-7.8994783759">
        <ele>287.09</ele>
        <time>2018-12-19T14:12:12Z</time>
      </trkpt>
      <trkpt lat="39.4497458730" lon="-7.8995841555">
        <ele>286.13</ele>
        <time>2018-12-19T14:12:24Z</time>
      </trkpt>
      <trkpt lat="39.4498261716" lon="-7.8996685613">
        <ele>284.69</ele>
        <time>2018-12-19T14:12:34Z</time>
      </trkpt>
      <trkpt lat="39.4498317875" lon="-7.8996903542">
        <ele>284.21</ele>
        <time>2018-12-19T14:12:44Z</time>
      </trkpt>
      <trkpt lat="39.4499256648" lon="-7.8997815493">
        <ele>282.77</ele>
        <time>2018-12-19T14:12:54Z</time>
      </trkpt>
      <trkpt lat="39.4500321988" lon="-7.8998933639">
        <ele>281.32</ele>
        <time>2018-12-19T14:13:06Z</time>
      </trkpt>
      <trkpt lat="39.4501122460" lon="-7.8999691363">
        <ele>279.40</ele>
        <time>2018-12-19T14:13:15Z</time>
      </trkpt>
      <trkpt lat="39.4502044469" lon="-7.9000457469">
        <ele>278.44</ele>
        <time>2018-12-19T14:13:24Z</time>
      </trkpt>
      <trkpt lat="39.4503266551" lon="-7.9001355171">
        <ele>277.00</ele>
        <time>2018-12-19T14:13:35Z</time>
      </trkpt>
      <trkpt lat="39.4503509626" lon="-7.9001660272">
        <ele>276.52</ele>
        <time>2018-12-19T14:13:38Z</time>
      </trkpt>
      <trkpt lat="39.4504366256" lon="-7.9002599046">
        <ele>277.00</ele>
        <time>2018-12-19T14:13:47Z</time>
      </trkpt>
      <trkpt lat="39.4504485279" lon="-7.9002691247">
        <ele>276.52</ele>
        <time>2018-12-19T14:13:48Z</time>
      </trkpt>
      <trkpt lat="39.4505342748" lon="-7.9003452323">
        <ele>275.56</ele>
        <time>2018-12-19T14:13:56Z</time>
      </trkpt>
      <trkpt lat="39.4505812135" lon="-7.9004045762">
        <ele>276.04</ele>
        <time>2018-12-19T14:14:01Z</time>
      </trkpt>
      <trkpt lat="39.4506824668" lon="-7.9005122837">
        <ele>277.00</ele>
        <time>2018-12-19T14:14:11Z</time>
      </trkpt>
      <trkpt lat="39.4508073572" lon="-7.9006131180">
        <ele>276.04</ele>
        <time>2018-12-19T14:14:23Z</time>
      </trkpt>
      <trkpt lat="39.4508246239" lon="-7.9006316420">
        <ele>277.00</ele>
        <time>2018-12-19T14:14:25Z</time>
      </trkpt>
      <trkpt lat="39.4509407971" lon="-7.9007027205">
        <ele>276.52</ele>
        <time>2018-12-19T14:14:36Z</time>
      </trkpt>
      <trkpt lat="39.4510367699" lon="-7.9007913172">
        <ele>275.56</ele>
        <time>2018-12-19T14:14:47Z</time>
      </trkpt>
      <trkpt lat="39.4511092734" lon="-7.9008722026">
        <ele>275.07</ele>
        <time>2018-12-19T14:14:57Z</time>
      </trkpt>
      <trkpt lat="39.4511759933" lon="-7.9009515792">
        <ele>273.63</ele>
        <time>2018-12-19T14:15:06Z</time>
      </trkpt>
      <trkpt lat="39.4511772506" lon="-7.9009664990">
        <ele>273.15</ele>
        <time>2018-12-19T14:15:07Z</time>
      </trkpt>
      <trkpt lat="39.4511298090" lon="-7.9011101648">
        <ele>273.63</ele>
        <time>2018-12-19T14:15:19Z</time>
      </trkpt>
      <trkpt lat="39.4511329941" lon="-7.9011298623">
        <ele>274.11</ele>
        <time>2018-12-19T14:15:28Z</time>
      </trkpt>
      <trkpt lat="39.4511407893" lon="-7.9011240788">
        <ele>273.15</ele>
        <time>2018-12-19T14:15:35Z</time>
      </trkpt>
      <trkpt lat="39.4511465728" lon="-7.9011312872">
        <ele>273.63</ele>
        <time>2018-12-19T14:15:41Z</time>
      </trkpt>
      <trkpt lat="39.4511350058" lon="-7.9011308681">
        <ele>273.63</ele>
        <time>2018-12-19T14:16:02Z</time>
      </trkpt>
      <trkpt lat="39.4511324912" lon="-7.9011503980">
        <ele>273.63</ele>
        <time>2018-12-19T14:16:24Z</time>
      </trkpt>
      <trkpt lat="39.4511070941" lon="-7.9011348914">
        <ele>273.63</ele>
        <time>2018-12-19T14:16:45Z</time>
      </trkpt>
      <trkpt lat="39.4511433877" lon="-7.9011368193">
        <ele>273.15</ele>
        <time>2018-12-19T14:17:06Z</time>
      </trkpt>
      <trkpt lat="39.4511418790" lon="-7.9011394177">
        <ele>273.63</ele>
        <time>2018-12-19T14:17:21Z</time>
      </trkpt>
      <trkpt lat="39.4511318207" lon="-7.9011451174">
        <ele>273.63</ele>
        <time>2018-12-19T14:17:41Z</time>
      </trkpt>
      <trkpt lat="39.4511359278" lon="-7.9011405073">
        <ele>273.63</ele>
        <time>2018-12-19T14:17:56Z</time>
      </trkpt>
      <trkpt lat="39.4511503447" lon="-7.9011296108">
        <ele>273.63</ele>
        <time>2018-12-19T14:18:13Z</time>
      </trkpt>
      <trkpt lat="39.4511432201" lon="-7.9011275154">
        <ele>273.63</ele>
        <time>2018-12-19T14:18:32Z</time>
      </trkpt>
      <trkpt lat="39.4511298928" lon="-7.9011241626">
        <ele>274.59</ele>
        <time>2018-12-19T14:18:46Z</time>
      </trkpt>
      <trkpt lat="39.4511691201" lon="-7.9011596180">
        <ele>274.11</ele>
        <time>2018-12-19T14:19:03Z</time>
      </trkpt>
      <trkpt lat="39.4511907455" lon="-7.9011552595">
        <ele>274.59</ele>
        <time>2018-12-19T14:19:20Z</time>
      </trkpt>
      <trkpt lat="39.4511774182" lon="-7.9011499789">
        <ele>274.11</ele>
        <time>2018-12-19T14:19:40Z</time>
      </trkpt>
      <trkpt lat="39.4511770830" lon="-7.9011440277">
        <ele>274.59</ele>
        <time>2018-12-19T14:19:57Z</time>
      </trkpt>
      <trkpt lat="39.4511715509" lon="-7.9011345562">
        <ele>274.59</ele>
        <time>2018-12-19T14:20:12Z</time>
      </trkpt>
      <trkpt lat="39.4511295576" lon="-7.9011215642">
        <ele>274.11</ele>
        <time>2018-12-19T14:20:28Z</time>
      </trkpt>
      <trkpt lat="39.4511187449" lon="-7.9011478834">
        <ele>274.59</ele>
        <time>2018-12-19T14:20:44Z</time>
      </trkpt>
      <trkpt lat="39.4510938507" lon="-7.9011513200">
        <ele>274.59</ele>
        <time>2018-12-19T14:21:00Z</time>
      </trkpt>
      <trkpt lat="39.4510894921" lon="-7.9011400044">
        <ele>274.59</ele>
        <time>2018-12-19T14:21:17Z</time>
      </trkpt>
      <trkpt lat="39.4510781765" lon="-7.9011275154">
        <ele>274.11</ele>
        <time>2018-12-19T14:21:29Z</time>
      </trkpt>
      <trkpt lat="39.4510697108" lon="-7.9011198040">
        <ele>274.11</ele>
        <time>2018-12-19T14:21:49Z</time>
      </trkpt>
      <trkpt lat="39.4510759134" lon="-7.9011131823">
        <ele>274.11</ele>
        <time>2018-12-19T14:22:08Z</time>
      </trkpt>
      <trkpt lat="39.4510944374" lon="-7.9011213128">
        <ele>274.11</ele>
        <time>2018-12-19T14:22:29Z</time>
      </trkpt>
      <trkpt lat="39.4511360954" lon="-7.9011242464">
        <ele>273.63</ele>
        <time>2018-12-19T14:22:47Z</time>
      </trkpt>
      <trkpt lat="39.4511461537" lon="-7.9011353105">
        <ele>274.59</ele>
        <time>2018-12-19T14:23:08Z</time>
      </trkpt>
      <trkpt lat="39.4511309825" lon="-7.9011409264">
        <ele>275.56</ele>
        <time>2018-12-19T14:23:30Z</time>
      </trkpt>
      <trkpt lat="39.4511268754" lon="-7.9011469614">
        <ele>275.07</ele>
        <time>2018-12-19T14:23:40Z</time>
      </trkpt>
      <trkpt lat="39.4511250313" lon="-7.9011461232">
        <ele>275.07</ele>
        <time>2018-12-19T14:23:48Z</time>
      </trkpt>
      <trkpt lat="39.4511376042" lon="-7.9011372384">
        <ele>274.11</ele>
        <time>2018-12-19T14:23:57Z</time>
      </trkpt>
      <trkpt lat="39.4511437230" lon="-7.9011367355">
        <ele>277.48</ele>
        <time>2018-12-19T14:24:05Z</time>
      </trkpt>
      <trkpt lat="39.4511319045" lon="-7.9011169542">
        <ele>273.15</ele>
        <time>2018-12-19T14:24:08Z</time>
      </trkpt>
      <trkpt lat="39.4511300605" lon="-7.9011157807">
        <ele>276.52</ele>
        <time>2018-12-19T14:24:09Z</time>
      </trkpt>
      <trkpt lat="39.4511170685" lon="-7.9011196364">
        <ele>274.11</ele>
        <time>2018-12-19T14:24:20Z</time>
      </trkpt>
      <trkpt lat="39.4510993827" lon="-7.9011700954">
        <ele>274.11</ele>
        <time>2018-12-19T14:24:26Z</time>
      </trkpt>
      <trkpt lat="39.4510735665" lon="-7.9012606200">
        <ele>273.15</ele>
        <time>2018-12-19T14:24:35Z</time>
      </trkpt>
      <trkpt lat="39.4510307349" lon="-7.9013897013">
        <ele>272.67</ele>
        <time>2018-12-19T14:24:46Z</time>
      </trkpt>
      <trkpt lat="39.4510404579" lon="-7.9013970774">
        <ele>273.15</ele>
        <time>2018-12-19T14:24:54Z</time>
      </trkpt>
      <trkpt lat="39.4510528632" lon="-7.9014188703">
        <ele>272.67</ele>
        <time>2018-12-19T14:25:04Z</time>
      </trkpt>
      <trkpt lat="39.4510628376" lon="-7.9014300182">
        <ele>272.67</ele>
        <time>2018-12-19T14:25:17Z</time>
      </trkpt>
      <trkpt lat="39.4510652684" lon="-7.9014422558">
        <ele>272.67</ele>
        <time>2018-12-19T14:25:29Z</time>
      </trkpt>
      <trkpt lat="39.4510898273" lon="-7.9014344607">
        <ele>273.15</ele>
        <time>2018-12-19T14:25:41Z</time>
      </trkpt>
      <trkpt lat="39.4510614965" lon="-7.9014426749">
        <ele>273.15</ele>
        <time>2018-12-19T14:25:48Z</time>
      </trkpt>
      <trkpt lat="39.4510475826" lon="-7.9014539067">
        <ele>273.15</ele>
        <time>2018-12-19T14:25:58Z</time>
      </trkpt>
      <trkpt lat="39.4510417152" lon="-7.9014420882">
        <ele>273.15</ele>
        <time>2018-12-19T14:26:15Z</time>
      </trkpt>
      <trkpt lat="39.4510752428" lon="-7.9014492128">
        <ele>272.67</ele>
        <time>2018-12-19T14:26:27Z</time>
      </trkpt>
      <trkpt lat="39.4510863069" lon="-7.9014497157">
        <ele>272.19</ele>
        <time>2018-12-19T14:26:28Z</time>
      </trkpt>
      <trkpt lat="39.4512026478" lon="-7.9014968220">
        <ele>272.19</ele>
        <time>2018-12-19T14:26:38Z</time>
      </trkpt>
      <trkpt lat="39.4513003808" lon="-7.9015143402">
        <ele>271.71</ele>
        <time>2018-12-19T14:26:46Z</time>
      </trkpt>
      <trkpt lat="39.4513582159" lon="-7.9015292600">
        <ele>271.71</ele>
        <time>2018-12-19T14:26:51Z</time>
      </trkpt>
      <trkpt lat="39.4514390174" lon="-7.9015782941">
        <ele>272.19</ele>
        <time>2018-12-19T14:27:01Z</time>
      </trkpt>
      <trkpt lat="39.4514852017" lon="-7.9015917052">
        <ele>272.67</ele>
        <time>2018-12-19T14:27:11Z</time>
      </trkpt>
      <trkpt lat="39.4515892211" lon="-7.9016440921">
        <ele>272.67</ele>
        <time>2018-12-19T14:27:20Z</time>
      </trkpt>
      <trkpt lat="39.4516731240" lon="-7.9016928747">
        <ele>273.63</ele>
        <time>2018-12-19T14:27:28Z</time>
      </trkpt>
      <trkpt lat="39.4517765567" lon="-7.9017638694">
        <ele>274.59</ele>
        <time>2018-12-19T14:27:38Z</time>
      </trkpt>
      <trkpt lat="39.4518462103" lon="-7.9018907715">
        <ele>274.11</ele>
        <time>2018-12-19T14:27:48Z</time>
      </trkpt>
      <trkpt lat="39.4518750440" lon="-7.9019907676">
        <ele>276.04</ele>
        <time>2018-12-19T14:27:56Z</time>
      </trkpt>
      <trkpt lat="39.4518930651" lon="-7.9021169152">
        <ele>276.04</ele>
        <time>2018-12-19T14:28:04Z</time>
      </trkpt>
      <trkpt lat="39.4519161154" lon="-7.9022374470">
        <ele>276.52</ele>
        <time>2018-12-19T14:28:13Z</time>
      </trkpt>
      <trkpt lat="39.4519311190" lon="-7.9023764189">
        <ele>277.96</ele>
        <time>2018-12-19T14:28:23Z</time>
      </trkpt>
      <trkpt lat="39.4519626349" lon="-7.9024975374">
        <ele>279.40</ele>
        <time>2018-12-19T14:28:33Z</time>
      </trkpt>
      <trkpt lat="39.4520011917" lon="-7.9026222602">
        <ele>278.92</ele>
        <time>2018-12-19T14:28:42Z</time>
      </trkpt>
      <trkpt lat="39.4520494714" lon="-7.9027339071">
        <ele>277.96</ele>
        <time>2018-12-19T14:28:51Z</time>
      </trkpt>
      <trkpt lat="39.4520915486" lon="-7.9028324783">
        <ele>277.96</ele>
        <time>2018-12-19T14:28:59Z</time>
      </trkpt>
      <trkpt lat="39.4521123357" lon="-7.9029437061">
        <ele>277.00</ele>
        <time>2018-12-19T14:29:08Z</time>
      </trkpt>
      <trkpt lat="39.4521228131" lon="-7.9029855318">
        <ele>274.11</ele>
        <time>2018-12-19T14:29:11Z</time>
      </trkpt>
      <trkpt lat="39.4521252438" lon="-7.9029980209">
        <ele>279.88</ele>
        <time>2018-12-19T14:29:12Z</time>
      </trkpt>
      <trkpt lat="39.4521320332" lon="-7.9030181374">
        <ele>276.04</ele>
        <time>2018-12-19T14:29:14Z</time>
      </trkpt>
      <trkpt lat="39.4521360565" lon="-7.9030388407">
        <ele>279.88</ele>
        <time>2018-12-19T14:29:16Z</time>
      </trkpt>
      <trkpt lat="39.4521374814" lon="-7.9030550178">
        <ele>269.31</ele>
        <time>2018-12-19T14:29:17Z</time>
      </trkpt>
      <trkpt lat="39.4521394093" lon="-7.9030697700">
        <ele>280.84</ele>
        <time>2018-12-19T14:29:18Z</time>
      </trkpt>
      <trkpt lat="39.4521415886" lon="-7.9030790739">
        <ele>272.67</ele>
        <time>2018-12-19T14:29:19Z</time>
      </trkpt>
      <trkpt lat="39.4521416724" lon="-7.9030926526">
        <ele>275.56</ele>
        <time>2018-12-19T14:29:20Z</time>
      </trkpt>
      <trkpt lat="39.4521466177" lon="-7.9031207319">
        <ele>279.40</ele>
        <time>2018-12-19T14:29:22Z</time>
      </trkpt>
      <trkpt lat="39.4521483779" lon="-7.9031322990">
        <ele>275.07</ele>
        <time>2018-12-19T14:29:23Z</time>
      </trkpt>
      <trkpt lat="39.4521537423" lon="-7.9031540081">
        <ele>268.35</ele>
        <time>2018-12-19T14:29:25Z</time>
      </trkpt>
      <trkpt lat="39.4521557540" lon="-7.9031635635">
        <ele>276.04</ele>
        <time>2018-12-19T14:29:26Z</time>
      </trkpt>
      <trkpt lat="39.4521788880" lon="-7.9032693431">
        <ele>272.67</ele>
        <time>2018-12-19T14:29:35Z</time>
      </trkpt>
      <trkpt lat="39.4521817379" lon="-7.9032830056">
        <ele>269.31</ele>
        <time>2018-12-19T14:29:36Z</time>
      </trkpt>
      <trkpt lat="39.4521830790" lon="-7.9032954108">
        <ele>273.15</ele>
        <time>2018-12-19T14:29:37Z</time>
      </trkpt>
      <trkpt lat="39.4521849230" lon="-7.9033058882">
        <ele>279.40</ele>
        <time>2018-12-19T14:29:38Z</time>
      </trkpt>
      <trkpt lat="39.4521876052" lon="-7.9033162817">
        <ele>275.07</ele>
        <time>2018-12-19T14:29:39Z</time>
      </trkpt>
      <trkpt lat="39.4521917962" lon="-7.9033380747">
        <ele>271.71</ele>
        <time>2018-12-19T14:29:41Z</time>
      </trkpt>
      <trkpt lat="39.4522066321" lon="-7.9034115840">
        <ele>273.15</ele>
        <time>2018-12-19T14:29:47Z</time>
      </trkpt>
      <trkpt lat="39.4522451051" lon="-7.9034980852">
        <ele>270.27</ele>
        <time>2018-12-19T14:29:55Z</time>
      </trkpt>
      <trkpt lat="39.4522643834" lon="-7.9035484605">
        <ele>271.23</ele>
        <time>2018-12-19T14:29:59Z</time>
      </trkpt>
      <trkpt lat="39.4523331150" lon="-7.9036477860">
        <ele>269.79</ele>
        <time>2018-12-19T14:30:08Z</time>
      </trkpt>
      <trkpt lat="39.4523423351" lon="-7.9036557488">
        <ele>270.75</ele>
        <time>2018-12-19T14:30:09Z</time>
      </trkpt>
      <trkpt lat="39.4524255674" lon="-7.9037269950">
        <ele>268.83</ele>
        <time>2018-12-19T14:30:18Z</time>
      </trkpt>
      <trkpt lat="39.4525502902" lon="-7.9037870932">
        <ele>267.86</ele>
        <time>2018-12-19T14:30:29Z</time>
      </trkpt>
      <trkpt lat="39.4526662957" lon="-7.9037893564">
        <ele>267.38</ele>
        <time>2018-12-19T14:30:39Z</time>
      </trkpt>
      <trkpt lat="39.4527968019" lon="-7.9038097244">
        <ele>266.42</ele>
        <time>2018-12-19T14:30:49Z</time>
      </trkpt>
      <trkpt lat="39.4528516196" lon="-7.9038105626">
        <ele>266.42</ele>
        <time>2018-12-19T14:30:54Z</time>
      </trkpt>
      <trkpt lat="39.4529627636" lon="-7.9038657993">
        <ele>266.42</ele>
        <time>2018-12-19T14:31:04Z</time>
      </trkpt>
      <trkpt lat="39.4530858938" lon="-7.9039247241">
        <ele>266.42</ele>
        <time>2018-12-19T14:31:14Z</time>
      </trkpt>
      <trkpt lat="39.4532069284" lon="-7.9039944615">
        <ele>266.90</ele>
        <time>2018-12-19T14:31:25Z</time>
      </trkpt>
      <trkpt lat="39.4533067569" lon="-7.9041145742">
        <ele>267.38</ele>
        <time>2018-12-19T14:31:36Z</time>
      </trkpt>
      <trkpt lat="39.4533551205" lon="-7.9041934479">
        <ele>268.35</ele>
        <time>2018-12-19T14:31:43Z</time>
      </trkpt>
      <trkpt lat="39.4534056634" lon="-7.9043412209">
        <ele>269.31</ele>
        <time>2018-12-19T14:31:53Z</time>
      </trkpt>
      <trkpt lat="39.4534326531" lon="-7.9044782650">
        <ele>268.83</ele>
        <time>2018-12-19T14:32:02Z</time>
      </trkpt>
      <trkpt lat="39.4534653425" lon="-7.9046443943">
        <ele>269.79</ele>
        <time>2018-12-19T14:32:12Z</time>
      </trkpt>
      <trkpt lat="39.4534682762" lon="-7.9046891537">
        <ele>269.79</ele>
        <time>2018-12-19T14:32:15Z</time>
      </trkpt>
      <trkpt lat="39.4534510933" lon="-7.9048256110">
        <ele>269.79</ele>
        <time>2018-12-19T14:32:24Z</time>
      </trkpt>
      <trkpt lat="39.4534337427" lon="-7.9049451370">
        <ele>268.35</ele>
        <time>2018-12-19T14:32:32Z</time>
      </trkpt>
      <trkpt lat="39.4534125365" lon="-7.9050867073">
        <ele>267.38</ele>
        <time>2018-12-19T14:32:42Z</time>
      </trkpt>
      <trkpt lat="39.4533991255" lon="-7.9052398447">
        <ele>265.94</ele>
        <time>2018-12-19T14:32:52Z</time>
      </trkpt>
      <trkpt lat="39.4533834513" lon="-7.9053993523">
        <ele>264.50</ele>
        <time>2018-12-19T14:33:02Z</time>
      </trkpt>
      <trkpt lat="39.4533749018" lon="-7.9055361450">
        <ele>264.02</ele>
        <time>2018-12-19T14:33:11Z</time>
      </trkpt>
      <trkpt lat="39.4533463195" lon="-7.9056293517">
        <ele>263.54</ele>
        <time>2018-12-19T14:33:18Z</time>
      </trkpt>
      <trkpt lat="39.4533308968" lon="-7.9057930503">
        <ele>262.58</ele>
        <time>2018-12-19T14:33:29Z</time>
      </trkpt>
      <trkpt lat="39.4533137977" lon="-7.9059386440">
        <ele>261.62</ele>
        <time>2018-12-19T14:33:39Z</time>
      </trkpt>
      <trkpt lat="39.4533049129" lon="-7.9060648754">
        <ele>261.62</ele>
        <time>2018-12-19T14:33:47Z</time>
      </trkpt>
      <trkpt lat="39.4532833714" lon="-7.9062073678">
        <ele>262.10</ele>
        <time>2018-12-19T14:33:56Z</time>
      </trkpt>
      <trkpt lat="39.4532777555" lon="-7.9063795321">
        <ele>262.10</ele>
        <time>2018-12-19T14:34:07Z</time>
      </trkpt>
      <trkpt lat="39.4532653503" lon="-7.9065527860">
        <ele>262.58</ele>
        <time>2018-12-19T14:34:18Z</time>
      </trkpt>
      <trkpt lat="39.4532523584" lon="-7.9066741560">
        <ele>261.14</ele>
        <time>2018-12-19T14:34:27Z</time>
      </trkpt>
      <trkpt lat="39.4532532804" lon="-7.9068280477">
        <ele>259.69</ele>
        <time>2018-12-19T14:34:37Z</time>
      </trkpt>
      <trkpt lat="39.4532391988" lon="-7.9069734737">
        <ele>259.69</ele>
        <time>2018-12-19T14:34:46Z</time>
      </trkpt>
      <trkpt lat="39.4532220159" lon="-7.9070402775">
        <ele>259.21</ele>
        <time>2018-12-19T14:34:51Z</time>
      </trkpt>
      <trkpt lat="39.4532067608" lon="-7.9071951751">
        <ele>259.21</ele>
        <time>2018-12-19T14:35:01Z</time>
      </trkpt>
      <trkpt lat="39.4531818666" lon="-7.9073625617">
        <ele>259.21</ele>
        <time>2018-12-19T14:35:12Z</time>
      </trkpt>
      <trkpt lat="39.4531729817" lon="-7.9073910601">
        <ele>258.73</ele>
        <time>2018-12-19T14:35:14Z</time>
      </trkpt>
      <trkpt lat="39.4531371910" lon="-7.9075028747">
        <ele>259.21</ele>
        <time>2018-12-19T14:35:22Z</time>
      </trkpt>
      <trkpt lat="39.4531091116" lon="-7.9075952433">
        <ele>260.65</ele>
        <time>2018-12-19T14:35:29Z</time>
      </trkpt>
      <trkpt lat="39.4530982990" lon="-7.9076569341">
        <ele>261.14</ele>
        <time>2018-12-19T14:35:33Z</time>
      </trkpt>
      <trkpt lat="39.4530869834" lon="-7.9078291822">
        <ele>261.14</ele>
        <time>2018-12-19T14:35:44Z</time>
      </trkpt>
      <trkpt lat="39.4530729856" lon="-7.9079454392">
        <ele>260.65</ele>
        <time>2018-12-19T14:35:52Z</time>
      </trkpt>
      <trkpt lat="39.4530487619" lon="-7.9080118239">
        <ele>261.62</ele>
        <time>2018-12-19T14:35:59Z</time>
      </trkpt>
      <trkpt lat="39.4530342612" lon="-7.9080508836">
        <ele>261.62</ele>
        <time>2018-12-19T14:36:02Z</time>
      </trkpt>
      <trkpt lat="39.4530094508" lon="-7.9082002491">
        <ele>261.62</ele>
        <time>2018-12-19T14:36:12Z</time>
      </trkpt>
      <trkpt lat="39.4530075230" lon="-7.9082150012">
        <ele>261.62</ele>
        <time>2018-12-19T14:36:13Z</time>
      </trkpt>
      <trkpt lat="39.4530046731" lon="-7.9083633609">
        <ele>261.14</ele>
        <time>2018-12-19T14:36:23Z</time>
      </trkpt>
      <trkpt lat="39.4530173298" lon="-7.9085057694">
        <ele>259.69</ele>
        <time>2018-12-19T14:36:32Z</time>
      </trkpt>
      <trkpt lat="39.4530071877" lon="-7.9085941985">
        <ele>258.73</ele>
        <time>2018-12-19T14:36:39Z</time>
      </trkpt>
      <trkpt lat="39.4529801980" lon="-7.9086900875">
        <ele>257.29</ele>
        <time>2018-12-19T14:36:46Z</time>
      </trkpt>
      <trkpt lat="39.4529814553" lon="-7.9087874014">
        <ele>256.33</ele>
        <time>2018-12-19T14:36:52Z</time>
      </trkpt>
      <trkpt lat="39.4529306609" lon="-7.9089277145">
        <ele>255.85</ele>
        <time>2018-12-19T14:37:02Z</time>
      </trkpt>
      <trkpt lat="39.4528996479" lon="-7.9090400320">
        <ele>256.33</ele>
        <time>2018-12-19T14:37:11Z</time>
      </trkpt>
      <trkpt lat="39.4529140648" lon="-7.9090702068">
        <ele>256.33</ele>
        <time>2018-12-19T14:37:19Z</time>
      </trkpt>
      <trkpt lat="39.4529403001" lon="-7.9090733919">
        <ele>255.85</ele>
        <time>2018-12-19T14:37:22Z</time>
      </trkpt>
      <trkpt lat="39.4530584011" lon="-7.9091250245">
        <ele>255.37</ele>
        <time>2018-12-19T14:37:33Z</time>
      </trkpt>
      <trkpt lat="39.4531645998" lon="-7.9091877211">
        <ele>252.96</ele>
        <time>2018-12-19T14:37:42Z</time>
      </trkpt>
      <trkpt lat="39.4531747419" lon="-7.9091938399">
        <ele>252.48</ele>
        <time>2018-12-19T14:37:43Z</time>
      </trkpt>
      <trkpt lat="39.4531911705" lon="-7.9092104360">
        <ele>252.48</ele>
        <time>2018-12-19T14:37:45Z</time>
      </trkpt>
      <trkpt lat="39.4532092754" lon="-7.9092588834">
        <ele>251.52</ele>
        <time>2018-12-19T14:37:49Z</time>
      </trkpt>
      <trkpt lat="39.4532399531" lon="-7.9093968496">
        <ele>251.04</ele>
        <time>2018-12-19T14:37:59Z</time>
      </trkpt>
      <trkpt lat="39.4532682002" lon="-7.9095293675">
        <ele>250.56</ele>
        <time>2018-12-19T14:38:08Z</time>
      </trkpt>
      <trkpt lat="39.4532762468" lon="-7.9095541779">
        <ele>250.56</ele>
        <time>2018-12-19T14:38:10Z</time>
      </trkpt>
      <trkpt lat="39.4533284660" lon="-7.9096934013">
        <ele>251.52</ele>
        <time>2018-12-19T14:38:20Z</time>
      </trkpt>
      <trkpt lat="39.4533642568" lon="-7.9098318703">
        <ele>252.00</ele>
        <time>2018-12-19T14:38:30Z</time>
      </trkpt>
      <trkpt lat="39.4533713814" lon="-7.9098955728">
        <ele>252.96</ele>
        <time>2018-12-19T14:38:35Z</time>
      </trkpt>
      <trkpt lat="39.4533914980" lon="-7.9100347124">
        <ele>254.41</ele>
        <time>2018-12-19T14:38:45Z</time>
      </trkpt>
      <trkpt lat="39.4534078427" lon="-7.9101019353">
        <ele>254.41</ele>
        <time>2018-12-19T14:38:50Z</time>
      </trkpt>
      <trkpt lat="39.4534609001" lon="-7.9101803899">
        <ele>255.37</ele>
        <time>2018-12-19T14:38:58Z</time>
      </trkpt>
      <trkpt lat="39.4534895662" lon="-7.9102173541">
        <ele>255.85</ele>
        <time>2018-12-19T14:39:02Z</time>
      </trkpt>
      <trkpt lat="39.4535647519" lon="-7.9102687351">
        <ele>256.81</ele>
        <time>2018-12-19T14:39:10Z</time>
      </trkpt>
      <trkpt lat="39.4536235929" lon="-7.9103688989">
        <ele>257.29</ele>
        <time>2018-12-19T14:39:19Z</time>
      </trkpt>
      <trkpt lat="39.4536561985" lon="-7.9104609322">
        <ele>258.73</ele>
        <time>2018-12-19T14:39:28Z</time>
      </trkpt>
      <trkpt lat="39.4536816794" lon="-7.9105677176">
        <ele>260.17</ele>
        <time>2018-12-19T14:39:37Z</time>
      </trkpt>
      <trkpt lat="39.4536964316" lon="-7.9106637742">
        <ele>261.62</ele>
        <time>2018-12-19T14:39:45Z</time>
      </trkpt>
      <trkpt lat="39.4537158776" lon="-7.9107557237">
        <ele>262.58</ele>
        <time>2018-12-19T14:39:52Z</time>
      </trkpt>
      <trkpt lat="39.4537240919" lon="-7.9108122177">
        <ele>262.10</ele>
        <time>2018-12-19T14:40:01Z</time>
      </trkpt>
      <trkpt lat="39.4537222479" lon="-7.9108516127">
        <ele>262.10</ele>
        <time>2018-12-19T14:40:12Z</time>
      </trkpt>
      <trkpt lat="39.4537169673" lon="-7.9108759202">
        <ele>261.14</ele>
        <time>2018-12-19T14:40:14Z</time>
      </trkpt>
      <trkpt lat="39.4537054840" lon="-7.9110624176">
        <ele>259.69</ele>
        <time>2018-12-19T14:40:27Z</time>
      </trkpt>
      <trkpt lat="39.4537005387" lon="-7.9111754056">
        <ele>258.73</ele>
        <time>2018-12-19T14:40:35Z</time>
      </trkpt>
      <trkpt lat="39.4536775723" lon="-7.9113344941">
        <ele>257.29</ele>
        <time>2018-12-19T14:40:46Z</time>
      </trkpt>
      <trkpt lat="39.4536856189" lon="-7.9114691075">
        <ele>256.33</ele>
        <time>2018-12-19T14:40:55Z</time>
      </trkpt>
      <trkpt lat="39.4536806736" lon="-7.9116196465">
        <ele>254.89</ele>
        <time>2018-12-19T14:41:05Z</time>
      </trkpt>
      <trkpt lat="39.4536722917" lon="-7.9117021244">
        <ele>254.41</ele>
        <time>2018-12-19T14:41:12Z</time>
      </trkpt>
      <trkpt lat="39.4536592998" lon="-7.9118446168">
        <ele>252.96</ele>
        <time>2018-12-19T14:41:21Z</time>
      </trkpt>
      <trkpt lat="39.4536529295" lon="-7.9119943175">
        <ele>252.96</ele>
        <time>2018-12-19T14:41:30Z</time>
      </trkpt>
      <trkpt lat="39.4536643289" lon="-7.9121535737">
        <ele>252.00</ele>
        <time>2018-12-19T14:41:40Z</time>
      </trkpt>
      <trkpt lat="39.4536754768" lon="-7.9122899473">
        <ele>252.00</ele>
        <time>2018-12-19T14:41:50Z</time>
      </trkpt>
      <trkpt lat="39.4536792487" lon="-7.9123314377">
        <ele>252.00</ele>
        <time>2018-12-19T14:41:53Z</time>
      </trkpt>
      <trkpt lat="39.4537220802" lon="-7.9124463536">
        <ele>252.00</ele>
        <time>2018-12-19T14:42:01Z</time>
      </trkpt>
      <trkpt lat="39.4537909795" lon="-7.9125776142">
        <ele>251.52</ele>
        <time>2018-12-19T14:42:11Z</time>
      </trkpt>
      <trkpt lat="39.4538497366" lon="-7.9127172567">
        <ele>251.04</ele>
        <time>2018-12-19T14:42:21Z</time>
      </trkpt>
      <trkpt lat="39.4538863655" lon="-7.9128391296">
        <ele>251.52</ele>
        <time>2018-12-19T14:42:29Z</time>
      </trkpt>
      <trkpt lat="39.4539222401" lon="-7.9129744135">
        <ele>250.08</ele>
        <time>2018-12-19T14:42:38Z</time>
      </trkpt>
      <trkpt lat="39.4539539237" lon="-7.9131102841">
        <ele>249.12</ele>
        <time>2018-12-19T14:42:47Z</time>
      </trkpt>
      <trkpt lat="39.4539741240" lon="-7.9132621642">
        <ele>249.12</ele>
        <time>2018-12-19T14:42:56Z</time>
      </trkpt>
      <trkpt lat="39.4539835118" lon="-7.9133670218">
        <ele>249.12</ele>
        <time>2018-12-19T14:43:03Z</time>
      </trkpt>
      <trkpt lat="39.4539954141" lon="-7.9134888109">
        <ele>246.23</ele>
        <time>2018-12-19T14:43:11Z</time>
      </trkpt>
      <trkpt lat="39.4540202245" lon="-7.9136199038">
        <ele>247.68</ele>
        <time>2018-12-19T14:43:19Z</time>
      </trkpt>
      <trkpt lat="39.4539892953" lon="-7.9137813393">
        <ele>247.20</ele>
        <time>2018-12-19T14:43:29Z</time>
      </trkpt>
      <trkpt lat="39.4539834280" lon="-7.9138388392">
        <ele>247.68</ele>
        <time>2018-12-19T14:43:32Z</time>
      </trkpt>
      <trkpt lat="39.4540226553" lon="-7.9139576107">
        <ele>247.68</ele>
        <time>2018-12-19T14:43:41Z</time>
      </trkpt>
      <trkpt lat="39.4541046303" lon="-7.9140002746">
        <ele>245.75</ele>
        <time>2018-12-19T14:43:49Z</time>
      </trkpt>
      <trkpt lat="39.4541332964" lon="-7.9140101653">
        <ele>245.75</ele>
        <time>2018-12-19T14:43:52Z</time>
      </trkpt>
      <trkpt lat="39.4542316999" lon="-7.9141337983">
        <ele>244.79</ele>
        <time>2018-12-19T14:44:03Z</time>
      </trkpt>
      <trkpt lat="39.4542342145" lon="-7.9141462035">
        <ele>243.83</ele>
        <time>2018-12-19T14:44:04Z</time>
      </trkpt>
      <trkpt lat="39.4542976655" lon="-7.9142831638">
        <ele>243.83</ele>
        <time>2018-12-19T14:44:14Z</time>
      </trkpt>
      <trkpt lat="39.4543316960" lon="-7.9143461958">
        <ele>244.31</ele>
        <time>2018-12-19T14:44:21Z</time>
      </trkpt>
      <trkpt lat="39.4543818198" lon="-7.9144575913">
        <ele>243.83</ele>
        <time>2018-12-19T14:44:31Z</time>
      </trkpt>
      <trkpt lat="39.4544263277" lon="-7.9145543184">
        <ele>243.35</ele>
        <time>2018-12-19T14:44:40Z</time>
      </trkpt>
      <trkpt lat="39.4544756133" lon="-7.9146784544">
        <ele>242.39</ele>
        <time>2018-12-19T14:44:52Z</time>
      </trkpt>
      <trkpt lat="39.4545248151" lon="-7.9147890117">
        <ele>242.87</ele>
        <time>2018-12-19T14:45:01Z</time>
      </trkpt>
      <trkpt lat="39.4545408245" lon="-7.9148856550">
        <ele>242.39</ele>
        <time>2018-12-19T14:45:08Z</time>
      </trkpt>
      <trkpt lat="39.4545590971" lon="-7.9150235374">
        <ele>241.43</ele>
        <time>2018-12-19T14:45:18Z</time>
      </trkpt>
      <trkpt lat="39.4545719214" lon="-7.9151523672">
        <ele>240.47</ele>
        <time>2018-12-19T14:45:27Z</time>
      </trkpt>
      <trkpt lat="39.4545866735" lon="-7.9152257927">
        <ele>240.95</ele>
        <time>2018-12-19T14:45:33Z</time>
      </trkpt>
      <trkpt lat="39.4545896072" lon="-7.9153164849">
        <ele>240.47</ele>
        <time>2018-12-19T14:45:41Z</time>
      </trkpt>
      <trkpt lat="39.4545933791" lon="-7.9153797682">
        <ele>240.47</ele>
        <time>2018-12-19T14:45:45Z</time>
      </trkpt>
      <trkpt lat="39.4545896072" lon="-7.9154075962">
        <ele>239.99</ele>
        <time>2018-12-19T14:45:47Z</time>
      </trkpt>
      <trkpt lat="39.4545901939" lon="-7.9154640902">
        <ele>239.99</ele>
        <time>2018-12-19T14:45:51Z</time>
      </trkpt>
      <trkpt lat="39.4545899425" lon="-7.9154913314">
        <ele>239.99</ele>
        <time>2018-12-19T14:45:53Z</time>
      </trkpt>
      <trkpt lat="39.4545671437" lon="-7.9155987035">
        <ele>239.51</ele>
        <time>2018-12-19T14:46:01Z</time>
      </trkpt>
      <trkpt lat="39.4545549061" lon="-7.9157177266">
        <ele>239.02</ele>
        <time>2018-12-19T14:46:09Z</time>
      </trkpt>
      <trkpt lat="39.4545355439" lon="-7.9158178903">
        <ele>238.06</ele>
        <time>2018-12-19T14:46:16Z</time>
      </trkpt>
      <trkpt lat="39.4545287546" lon="-7.9159043916">
        <ele>238.06</ele>
        <time>2018-12-19T14:46:22Z</time>
      </trkpt>
      <trkpt lat="39.4545285031" lon="-7.9160385020">
        <ele>237.58</ele>
        <time>2018-12-19T14:46:32Z</time>
      </trkpt>
      <trkpt lat="39.4545438420" lon="-7.9160934035">
        <ele>237.58</ele>
        <time>2018-12-19T14:46:39Z</time>
      </trkpt>
      <trkpt lat="39.4545432553" lon="-7.9161218181">
        <ele>237.58</ele>
        <time>2018-12-19T14:46:41Z</time>
      </trkpt>
      <trkpt lat="39.4545643777" lon="-7.9162416793">
        <ele>237.10</ele>
        <time>2018-12-19T14:46:50Z</time>
      </trkpt>
      <trkpt lat="39.4545682333" lon="-7.9162558448">
        <ele>238.06</ele>
        <time>2018-12-19T14:46:51Z</time>
      </trkpt>
      <trkpt lat="39.4546044432" lon="-7.9164026957">
        <ele>237.10</ele>
        <time>2018-12-19T14:47:02Z</time>
      </trkpt>
      <trkpt lat="39.4545911998" lon="-7.9164769594">
        <ele>236.62</ele>
        <time>2018-12-19T14:47:08Z</time>
      </trkpt>
      <trkpt lat="39.4545954745" lon="-7.9166165181">
        <ele>236.62</ele>
        <time>2018-12-19T14:47:18Z</time>
      </trkpt>
      <trkpt lat="39.4545894396" lon="-7.9167499579">
        <ele>236.14</ele>
        <time>2018-12-19T14:47:28Z</time>
      </trkpt>
      <trkpt lat="39.4546027668" lon="-7.9168750998">
        <ele>235.66</ele>
        <time>2018-12-19T14:47:37Z</time>
      </trkpt>
      <trkpt lat="39.4546321873" lon="-7.9169957992">
        <ele>235.66</ele>
        <time>2018-12-19T14:47:45Z</time>
      </trkpt>
      <trkpt lat="39.4546554051" lon="-7.9170729965">
        <ele>235.18</ele>
        <time>2018-12-19T14:47:51Z</time>
      </trkpt>
      <trkpt lat="39.4546917826" lon="-7.9171954561">
        <ele>233.74</ele>
        <time>2018-12-19T14:48:01Z</time>
      </trkpt>
      <trkpt lat="39.4547382183" lon="-7.9173408821">
        <ele>233.26</ele>
        <time>2018-12-19T14:48:11Z</time>
      </trkpt>
      <trkpt lat="39.4547418226" lon="-7.9174335022">
        <ele>233.74</ele>
        <time>2018-12-19T14:48:19Z</time>
      </trkpt>
      <trkpt lat="39.4547098875" lon="-7.9174806923">
        <ele>232.78</ele>
        <time>2018-12-19T14:48:37Z</time>
      </trkpt>
      <trkpt lat="39.4547521323" lon="-7.9175500944">
        <ele>233.26</ele>
        <time>2018-12-19T14:48:46Z</time>
      </trkpt>
      <trkpt lat="39.4547962211" lon="-7.9176412057">
        <ele>232.30</ele>
        <time>2018-12-19T14:48:55Z</time>
      </trkpt>
      <trkpt lat="39.4548202772" lon="-7.9177189898">
        <ele>232.30</ele>
        <time>2018-12-19T14:49:04Z</time>
      </trkpt>
      <trkpt lat="39.4548285753" lon="-7.9177598096">
        <ele>232.78</ele>
        <time>2018-12-19T14:49:10Z</time>
      </trkpt>
      <trkpt lat="39.4548652880" lon="-7.9178023897">
        <ele>232.30</ele>
        <time>2018-12-19T14:49:18Z</time>
      </trkpt>
      <trkpt lat="39.4548922777" lon="-7.9178318102">
        <ele>232.78</ele>
        <time>2018-12-19T14:49:24Z</time>
      </trkpt>
      <trkpt lat="39.4549369533" lon="-7.9178570397">
        <ele>232.30</ele>
        <time>2018-12-19T14:49:31Z</time>
      </trkpt>
      <trkpt lat="39.4549691398" lon="-7.9178835265">
        <ele>231.81</ele>
        <time>2018-12-19T14:49:39Z</time>
      </trkpt>
      <trkpt lat="39.4550268911" lon="-7.9178926628">
        <ele>232.78</ele>
        <time>2018-12-19T14:49:46Z</time>
      </trkpt>
      <trkpt lat="39.4550625142" lon="-7.9180055670">
        <ele>231.81</ele>
        <time>2018-12-19T14:49:55Z</time>
      </trkpt>
      <trkpt lat="39.4550480973" lon="-7.9180292878">
        <ele>231.33</ele>
        <time>2018-12-19T14:49:57Z</time>
      </trkpt>
      <trkpt lat="39.4550474267" lon="-7.9181836825">
        <ele>231.81</ele>
        <time>2018-12-19T14:50:08Z</time>
      </trkpt>
      <trkpt lat="39.4550509471" lon="-7.9182241671">
        <ele>230.85</ele>
        <time>2018-12-19T14:50:11Z</time>
      </trkpt>
      <trkpt lat="39.4550626818" lon="-7.9183288570">
        <ele>230.85</ele>
        <time>2018-12-19T14:50:20Z</time>
      </trkpt>
      <trkpt lat="39.4550773501" lon="-7.9184451140">
        <ele>231.33</ele>
        <time>2018-12-19T14:50:28Z</time>
      </trkpt>
      <trkpt lat="39.4550732430" lon="-7.9185591079">
        <ele>229.89</ele>
        <time>2018-12-19T14:50:36Z</time>
      </trkpt>
      <trkpt lat="39.4550713990" lon="-7.9186770413">
        <ele>229.41</ele>
        <time>2018-12-19T14:50:44Z</time>
      </trkpt>
      <trkpt lat="39.4550847262" lon="-7.9188697413">
        <ele>228.45</ele>
        <time>2018-12-19T14:50:56Z</time>
      </trkpt>
      <trkpt lat="39.4551034179" lon="-7.9190041870">
        <ele>227.97</ele>
        <time>2018-12-19T14:51:05Z</time>
      </trkpt>
      <trkpt lat="39.4551147334" lon="-7.9190346133">
        <ele>228.45</ele>
        <time>2018-12-19T14:51:08Z</time>
      </trkpt>
      <trkpt lat="39.4551379513" lon="-7.9191786144">
        <ele>227.49</ele>
        <time>2018-12-19T14:51:18Z</time>
      </trkpt>
      <trkpt lat="39.4551375322" lon="-7.9192083701">
        <ele>228.45</ele>
        <time>2018-12-19T14:51:20Z</time>
      </trkpt>
      <trkpt lat="39.4551573973" lon="-7.9193641897">
        <ele>227.49</ele>
        <time>2018-12-19T14:51:31Z</time>
      </trkpt>
      <trkpt lat="39.4551877398" lon="-7.9194827098">
        <ele>227.49</ele>
        <time>2018-12-19T14:51:39Z</time>
      </trkpt>
      <trkpt lat="39.4551800285" lon="-7.9196397867">
        <ele>227.01</ele>
        <time>2018-12-19T14:51:49Z</time>
      </trkpt>
      <trkpt lat="39.4551943615" lon="-7.9197883978">
        <ele>226.53</ele>
        <time>2018-12-19T14:51:58Z</time>
      </trkpt>
      <trkpt lat="39.4551995583" lon="-7.9199688602">
        <ele>226.05</ele>
        <time>2018-12-19T14:52:09Z</time>
      </trkpt>
      <trkpt lat="39.4552192558" lon="-7.9201076645">
        <ele>225.57</ele>
        <time>2018-12-19T14:52:18Z</time>
      </trkpt>
      <trkpt lat="39.4552495144" lon="-7.9202719498">
        <ele>224.61</ele>
        <time>2018-12-19T14:52:29Z</time>
      </trkpt>
      <trkpt lat="39.4553110376" lon="-7.9203839321">
        <ele>223.16</ele>
        <time>2018-12-19T14:52:38Z</time>
      </trkpt>
      <trkpt lat="39.4553612452" lon="-7.9204939026">
        <ele>223.16</ele>
        <time>2018-12-19T14:52:47Z</time>
      </trkpt>
      <trkpt lat="39.4553402904" lon="-7.9205789790">
        <ele>223.16</ele>
        <time>2018-12-19T14:52:57Z</time>
      </trkpt>
      <trkpt lat="39.4553194195" lon="-7.9206199665">
        <ele>222.68</ele>
        <time>2018-12-19T14:53:05Z</time>
      </trkpt>
      <trkpt lat="39.4553126302" lon="-7.9206827469">
        <ele>223.16</ele>
        <time>2018-12-19T14:53:12Z</time>
      </trkpt>
      <trkpt lat="39.4552980457" lon="-7.9207602795">
        <ele>223.16</ele>
        <time>2018-12-19T14:53:20Z</time>
      </trkpt>
      <trkpt lat="39.4552633446" lon="-7.9208303522">
        <ele>223.16</ele>
        <time>2018-12-19T14:53:28Z</time>
      </trkpt>
      <trkpt lat="39.4552413840" lon="-7.9208665621">
        <ele>223.16</ele>
        <time>2018-12-19T14:53:36Z</time>
      </trkpt>
      <trkpt lat="39.4552473351" lon="-7.9208954796">
        <ele>223.16</ele>
        <time>2018-12-19T14:53:42Z</time>
      </trkpt>
      <trkpt lat="39.4552115444" lon="-7.9209501296">
        <ele>223.16</ele>
        <time>2018-12-19T14:53:49Z</time>
      </trkpt>
      <trkpt lat="39.4551573135" lon="-7.9210222978">
        <ele>223.64</ele>
        <time>2018-12-19T14:53:57Z</time>
      </trkpt>
      <trkpt lat="39.4551075250" lon="-7.9211113974">
        <ele>224.61</ele>
        <time>2018-12-19T14:54:04Z</time>
      </trkpt>
      <trkpt lat="39.4550934434" lon="-7.9211745970">
        <ele>224.61</ele>
        <time>2018-12-19T14:54:10Z</time>
      </trkpt>
      <trkpt lat="39.4550875761" lon="-7.9212420713">
        <ele>225.57</ele>
        <time>2018-12-19T14:54:16Z</time>
      </trkpt>
      <trkpt lat="39.4550833851" lon="-7.9213066120">
        <ele>225.09</ele>
        <time>2018-12-19T14:54:23Z</time>
      </trkpt>
      <trkpt lat="39.4550763443" lon="-7.9213914368">
        <ele>226.05</ele>
        <time>2018-12-19T14:54:32Z</time>
      </trkpt>
      <trkpt lat="39.4550796971" lon="-7.9214729927">
        <ele>227.97</ele>
        <time>2018-12-19T14:54:41Z</time>
      </trkpt>
      <trkpt lat="39.4550759252" lon="-7.9215511959">
        <ele>229.41</ele>
        <time>2018-12-19T14:54:51Z</time>
      </trkpt>
      <trkpt lat="39.4550858159" lon="-7.9216422234">
        <ele>231.33</ele>
        <time>2018-12-19T14:55:01Z</time>
      </trkpt>
      <trkpt lat="39.4550886657" lon="-7.9217214324">
        <ele>232.30</ele>
        <time>2018-12-19T14:55:10Z</time>
      </trkpt>
      <trkpt lat="39.4551258814" lon="-7.9218210932">
        <ele>233.74</ele>
        <time>2018-12-19T14:55:19Z</time>
      </trkpt>
      <trkpt lat="39.4551494345" lon="-7.9218684509">
        <ele>234.22</ele>
        <time>2018-12-19T14:55:26Z</time>
      </trkpt>
      <trkpt lat="39.4551745802" lon="-7.9219521862">
        <ele>235.66</ele>
        <time>2018-12-19T14:55:36Z</time>
      </trkpt>
      <trkpt lat="39.4551859796" lon="-7.9220071714">
        <ele>236.62</ele>
        <time>2018-12-19T14:55:44Z</time>
      </trkpt>
      <trkpt lat="39.4551817887" lon="-7.9221228417">
        <ele>238.06</ele>
        <time>2018-12-19T14:55:53Z</time>
      </trkpt>
      <trkpt lat="39.4551680423" lon="-7.9222401045">
        <ele>238.06</ele>
        <time>2018-12-19T14:56:01Z</time>
      </trkpt>
      <trkpt lat="39.4551580679" lon="-7.9223598819">
        <ele>238.54</ele>
        <time>2018-12-19T14:56:10Z</time>
      </trkpt>
      <trkpt lat="39.4551679585" lon="-7.9224918131">
        <ele>237.58</ele>
        <time>2018-12-19T14:56:20Z</time>
      </trkpt>
      <trkpt lat="39.4551804475" lon="-7.9226226546">
        <ele>237.58</ele>
        <time>2018-12-19T14:56:30Z</time>
      </trkpt>
      <trkpt lat="39.4551932719" lon="-7.9226599541">
        <ele>238.06</ele>
        <time>2018-12-19T14:56:33Z</time>
      </trkpt>
      <trkpt lat="39.4552187528" lon="-7.9227407556">
        <ele>239.99</ele>
        <time>2018-12-19T14:56:42Z</time>
      </trkpt>
      <trkpt lat="39.4552157354" lon="-7.9227761272">
        <ele>240.95</ele>
        <time>2018-12-19T14:56:51Z</time>
      </trkpt>
      <trkpt lat="39.4552338403" lon="-7.9228325374">
        <ele>240.95</ele>
        <time>2018-12-19T14:57:04Z</time>
      </trkpt>
      <trkpt lat="39.4552568067" lon="-7.9228726029">
        <ele>241.91</ele>
        <time>2018-12-19T14:57:12Z</time>
      </trkpt>
      <trkpt lat="39.4552642666" lon="-7.9229228105">
        <ele>242.87</ele>
        <time>2018-12-19T14:57:19Z</time>
      </trkpt>
      <trkpt lat="39.4552678708" lon="-7.9229893629">
        <ele>244.31</ele>
        <time>2018-12-19T14:57:26Z</time>
      </trkpt>
      <trkpt lat="39.4552866463" lon="-7.9230398219">
        <ele>244.79</ele>
        <time>2018-12-19T14:57:35Z</time>
      </trkpt>
      <trkpt lat="39.4552889932" lon="-7.9230594356">
        <ele>245.27</ele>
        <time>2018-12-19T14:57:44Z</time>
      </trkpt>
      <trkpt lat="39.4552889932" lon="-7.9231089726">
        <ele>245.27</ele>
        <time>2018-12-19T14:57:52Z</time>
      </trkpt>
      <trkpt lat="39.4552951120" lon="-7.9231340345">
        <ele>246.23</ele>
        <time>2018-12-19T14:57:58Z</time>
      </trkpt>
      <trkpt lat="39.4553059246" lon="-7.9231963959">
        <ele>246.72</ele>
        <time>2018-12-19T14:58:08Z</time>
      </trkpt>
      <trkpt lat="39.4553086068" lon="-7.9232470226">
        <ele>247.68</ele>
        <time>2018-12-19T14:58:15Z</time>
      </trkpt>
      <trkpt lat="39.4553130493" lon="-7.9232621100">
        <ele>248.64</ele>
        <time>2018-12-19T14:58:17Z</time>
      </trkpt>
      <trkpt lat="39.4553287234" lon="-7.9233123176">
        <ele>250.08</ele>
        <time>2018-12-19T14:58:23Z</time>
      </trkpt>
      <trkpt lat="39.4553355128" lon="-7.9233403131">
        <ele>249.60</ele>
        <time>2018-12-19T14:58:27Z</time>
      </trkpt>
      <trkpt lat="39.4553575572" lon="-7.9233918618">
        <ele>250.56</ele>
        <time>2018-12-19T14:58:34Z</time>
      </trkpt>
      <trkpt lat="39.4553540368" lon="-7.9234082904">
        <ele>251.04</ele>
        <time>2018-12-19T14:58:43Z</time>
      </trkpt>
      <trkpt lat="39.4553381950" lon="-7.9234186839">
        <ele>250.08</ele>
        <time>2018-12-19T14:58:53Z</time>
      </trkpt>
      <trkpt lat="39.4553733990" lon="-7.9234060273">
        <ele>250.56</ele>
        <time>2018-12-19T14:59:04Z</time>
      </trkpt>
      <trkpt lat="39.4553991314" lon="-7.9234157503">
        <ele>250.56</ele>
        <time>2018-12-19T14:59:17Z</time>
      </trkpt>
      <trkpt lat="39.4554288033" lon="-7.9234290775">
        <ele>250.56</ele>
        <time>2018-12-19T14:59:29Z</time>
      </trkpt>
      <trkpt lat="39.4554770831" lon="-7.9235004913">
        <ele>251.52</ele>
        <time>2018-12-19T14:59:37Z</time>
      </trkpt>
      <trkpt lat="39.4555121195" lon="-7.9236237891">
        <ele>251.04</ele>
        <time>2018-12-19T14:59:47Z</time>
      </trkpt>
      <trkpt lat="39.4555106945" lon="-7.9237579834">
        <ele>251.52</ele>
        <time>2018-12-19T14:59:56Z</time>
      </trkpt>
      <trkpt lat="39.4555080961" lon="-7.9237911757">
        <ele>251.04</ele>
        <time>2018-12-19T14:59:58Z</time>
      </trkpt>
      <trkpt lat="39.4555113651" lon="-7.9239144735">
        <ele>250.56</ele>
        <time>2018-12-19T15:00:07Z</time>
      </trkpt>
      <trkpt lat="39.4555096887" lon="-7.9239267949">
        <ele>250.56</ele>
        <time>2018-12-19T15:00:08Z</time>
      </trkpt>
      <trkpt lat="39.4554707129" lon="-7.9240309820">
        <ele>251.04</ele>
        <time>2018-12-19T15:00:16Z</time>
      </trkpt>
      <trkpt lat="39.4554277137" lon="-7.9241403658">
        <ele>251.04</ele>
        <time>2018-12-19T15:00:24Z</time>
      </trkpt>
      <trkpt lat="39.4554070104" lon="-7.9242352489">
        <ele>250.08</ele>
        <time>2018-12-19T15:00:31Z</time>
      </trkpt>
      <trkpt lat="39.4553813618" lon="-7.9243660904">
        <ele>249.12</ele>
        <time>2018-12-19T15:00:40Z</time>
      </trkpt>
      <trkpt lat="39.4553959463" lon="-7.9244805872">
        <ele>247.68</ele>
        <time>2018-12-19T15:00:47Z</time>
      </trkpt>
      <trkpt lat="39.4554277975" lon="-7.9246522486">
        <ele>245.75</ele>
        <time>2018-12-19T15:00:59Z</time>
      </trkpt>
      <trkpt lat="39.4554241095" lon="-7.9247607104">
        <ele>246.23</ele>
        <time>2018-12-19T15:01:08Z</time>
      </trkpt>
      <trkpt lat="39.4554375205" lon="-7.9248628020">
        <ele>246.23</ele>
        <time>2018-12-19T15:01:16Z</time>
      </trkpt>
      <trkpt lat="39.4554438908" lon="-7.9249636363">
        <ele>245.75</ele>
        <time>2018-12-19T15:01:23Z</time>
      </trkpt>
      <trkpt lat="39.4554601517" lon="-7.9251339566">
        <ele>246.23</ele>
        <time>2018-12-19T15:01:33Z</time>
      </trkpt>
      <trkpt lat="39.4554865547" lon="-7.9252827354">
        <ele>247.20</ele>
        <time>2018-12-19T15:01:42Z</time>
      </trkpt>
      <trkpt lat="39.4555217586" lon="-7.9254410695">
        <ele>247.20</ele>
        <time>2018-12-19T15:01:52Z</time>
      </trkpt>
      <trkpt lat="39.4555274583" lon="-7.9254528042">
        <ele>247.68</ele>
        <time>2018-12-19T15:01:53Z</time>
      </trkpt>
      <trkpt lat="39.4556087628" lon="-7.9256032594">
        <ele>247.68</ele>
        <time>2018-12-19T15:02:05Z</time>
      </trkpt>
      <trkpt lat="39.4556572940" lon="-7.9257056024">
        <ele>248.64</ele>
        <time>2018-12-19T15:02:14Z</time>
      </trkpt>
      <trkpt lat="39.4557271991" lon="-7.9258367792">
        <ele>249.12</ele>
        <time>2018-12-19T15:02:25Z</time>
      </trkpt>
      <trkpt lat="39.4557506684" lon="-7.9258665349">
        <ele>250.08</ele>
        <time>2018-12-19T15:02:28Z</time>
      </trkpt>
      <trkpt lat="39.4558621477" lon="-7.9259649385">
        <ele>251.04</ele>
        <time>2018-12-19T15:02:40Z</time>
      </trkpt>
      <trkpt lat="39.4559452962" lon="-7.9260091111">
        <ele>252.00</ele>
        <time>2018-12-19T15:02:49Z</time>
      </trkpt>
      <trkpt lat="39.4560377486" lon="-7.9260528646">
        <ele>252.48</ele>
        <time>2018-12-19T15:02:58Z</time>
      </trkpt>
      <trkpt lat="39.4561198074" lon="-7.9261009768">
        <ele>252.96</ele>
        <time>2018-12-19T15:03:07Z</time>
      </trkpt>
      <trkpt lat="39.4562001061" lon="-7.9261547048">
        <ele>253.93</ele>
        <time>2018-12-19T15:03:16Z</time>
      </trkpt>
      <trkpt lat="39.4562395848" lon="-7.9262174852">
        <ele>254.41</ele>
        <time>2018-12-19T15:03:23Z</time>
      </trkpt>
      <trkpt lat="39.4562769681" lon="-7.9263484944">
        <ele>254.89</ele>
        <time>2018-12-19T15:03:33Z</time>
      </trkpt>
      <trkpt lat="39.4562902115" lon="-7.9263914097">
        <ele>255.85</ele>
        <time>2018-12-19T15:03:36Z</time>
      </trkpt>
      <trkpt lat="39.4562870264" lon="-7.9265282024">
        <ele>255.85</ele>
        <time>2018-12-19T15:03:46Z</time>
      </trkpt>
      <trkpt lat="39.4562618807" lon="-7.9266293719">
        <ele>255.85</ele>
        <time>2018-12-19T15:03:54Z</time>
      </trkpt>
      <trkpt lat="39.4562540855" lon="-7.9267389234">
        <ele>256.81</ele>
        <time>2018-12-19T15:04:02Z</time>
      </trkpt>
      <trkpt lat="39.4562753756" lon="-7.9268519115">
        <ele>255.85</ele>
        <time>2018-12-19T15:04:09Z</time>
      </trkpt>
      <trkpt lat="39.4562664907" lon="-7.9270180408">
        <ele>255.85</ele>
        <time>2018-12-19T15:04:18Z</time>
      </trkpt>
      <trkpt lat="39.4562706817" lon="-7.9270612914">
        <ele>255.85</ele>
        <time>2018-12-19T15:04:21Z</time>
      </trkpt>
      <trkpt lat="39.4563314505" lon="-7.9271855112">
        <ele>254.41</ele>
        <time>2018-12-19T15:04:31Z</time>
      </trkpt>
      <trkpt lat="39.4563918840" lon="-7.9272811487">
        <ele>252.96</ele>
        <time>2018-12-19T15:04:40Z</time>
      </trkpt>
      <trkpt lat="39.4564984180" lon="-7.9273865093">
        <ele>252.00</ele>
        <time>2018-12-19T15:04:51Z</time>
      </trkpt>
      <trkpt lat="39.4565822370" lon="-7.9275264032">
        <ele>251.52</ele>
        <time>2018-12-19T15:05:02Z</time>
      </trkpt>
      <trkpt lat="39.4566528127" lon="-7.9276813008">
        <ele>250.56</ele>
        <time>2018-12-19T15:05:14Z</time>
      </trkpt>
      <trkpt lat="39.4567059539" lon="-7.9278004915">
        <ele>249.60</ele>
        <time>2018-12-19T15:05:23Z</time>
      </trkpt>
      <trkpt lat="39.4567651302" lon="-7.9279427323">
        <ele>251.04</ele>
        <time>2018-12-19T15:05:33Z</time>
      </trkpt>
      <trkpt lat="39.4568211213" lon="-7.9280629288">
        <ele>252.00</ele>
        <time>2018-12-19T15:05:42Z</time>
      </trkpt>
      <trkpt lat="39.4568605162" lon="-7.9281925969">
        <ele>252.00</ele>
        <time>2018-12-19T15:05:51Z</time>
      </trkpt>
      <trkpt lat="39.4569066167" lon="-7.9283304792">
        <ele>251.04</ele>
        <time>2018-12-19T15:06:01Z</time>
      </trkpt>
      <trkpt lat="39.4569149986" lon="-7.9283599835">
        <ele>250.56</ele>
        <time>2018-12-19T15:06:03Z</time>
      </trkpt>
      <trkpt lat="39.4569847360" lon="-7.9284889810">
        <ele>250.08</ele>
        <time>2018-12-19T15:06:13Z</time>
      </trkpt>
      <trkpt lat="39.4570559822" lon="-7.9286531825">
        <ele>249.12</ele>
        <time>2018-12-19T15:06:25Z</time>
      </trkpt>
      <trkpt lat="39.4571112189" lon="-7.9287774023">
        <ele>247.20</ele>
        <time>2018-12-19T15:06:34Z</time>
      </trkpt>
      <trkpt lat="39.4571315870" lon="-7.9288434517">
        <ele>247.68</ele>
        <time>2018-12-19T15:06:39Z</time>
      </trkpt>
      <trkpt lat="39.4572200999" lon="-7.9289763048">
        <ele>246.23</ele>
        <time>2018-12-19T15:06:50Z</time>
      </trkpt>
      <trkpt lat="39.4572826289" lon="-7.9291182104">
        <ele>245.75</ele>
        <time>2018-12-19T15:07:00Z</time>
      </trkpt>
      <trkpt lat="39.4573535398" lon="-7.9292447772">
        <ele>245.75</ele>
        <time>2018-12-19T15:07:10Z</time>
      </trkpt>
      <trkpt lat="39.4574621692" lon="-7.9294123314">
        <ele>244.79</ele>
        <time>2018-12-19T15:07:23Z</time>
      </trkpt>
      <trkpt lat="39.4575562142" lon="-7.9295407422">
        <ele>243.83</ele>
        <time>2018-12-19T15:07:34Z</time>
      </trkpt>
      <trkpt lat="39.4576211739" lon="-7.9295658879">
        <ele>244.31</ele>
        <time>2018-12-19T15:07:42Z</time>
      </trkpt>
      <trkpt lat="39.4576664362" lon="-7.9297056980">
        <ele>243.83</ele>
        <time>2018-12-19T15:07:52Z</time>
      </trkpt>
      <trkpt lat="39.4577018917" lon="-7.9298495315">
        <ele>244.31</ele>
        <time>2018-12-19T15:08:02Z</time>
      </trkpt>
      <trkpt lat="39.4577050768" lon="-7.9299141560">
        <ele>244.31</ele>
        <time>2018-12-19T15:08:06Z</time>
      </trkpt>
      <trkpt lat="39.4577397779" lon="-7.9300893378">
        <ele>243.83</ele>
        <time>2018-12-19T15:08:17Z</time>
      </trkpt>
      <trkpt lat="39.4577826094" lon="-7.9302514438">
        <ele>244.31</ele>
        <time>2018-12-19T15:08:28Z</time>
      </trkpt>
      <trkpt lat="39.4578458928" lon="-7.9303772561">
        <ele>244.79</ele>
        <time>2018-12-19T15:08:38Z</time>
      </trkpt>
      <trkpt lat="39.4578961004" lon="-7.9305449780">
        <ele>245.27</ele>
        <time>2018-12-19T15:08:49Z</time>
      </trkpt>
      <trkpt lat="39.4579344057" lon="-7.9306789208">
        <ele>245.75</ele>
        <time>2018-12-19T15:08:59Z</time>
      </trkpt>
      <trkpt lat="39.4579586294" lon="-7.9308422841">
        <ele>246.23</ele>
        <time>2018-12-19T15:09:10Z</time>
      </trkpt>
      <trkpt lat="39.4579564501" lon="-7.9309201520">
        <ele>247.20</ele>
        <time>2018-12-19T15:09:15Z</time>
      </trkpt>
      <trkpt lat="39.4579880498" lon="-7.9310329724">
        <ele>248.16</ele>
        <time>2018-12-19T15:09:24Z</time>
      </trkpt>
      <trkpt lat="39.4580056518" lon="-7.9310691822">
        <ele>248.16</ele>
        <time>2018-12-19T15:09:27Z</time>
      </trkpt>
      <trkpt lat="39.4580704439" lon="-7.9311862774">
        <ele>248.64</ele>
        <time>2018-12-19T15:09:37Z</time>
      </trkpt>
      <trkpt lat="39.4581610523" lon="-7.9313006904">
        <ele>249.12</ele>
        <time>2018-12-19T15:09:48Z</time>
      </trkpt>
      <trkpt lat="39.4582599588" lon="-7.9314298555">
        <ele>249.60</ele>
        <time>2018-12-19T15:10:00Z</time>
      </trkpt>
      <trkpt lat="39.4583411794" lon="-7.9315298516">
        <ele>250.08</ele>
        <time>2018-12-19T15:10:10Z</time>
      </trkpt>
      <trkpt lat="39.4583766349" lon="-7.9315609485">
        <ele>251.04</ele>
        <time>2018-12-19T15:10:14Z</time>
      </trkpt>
      <trkpt lat="39.4584487192" lon="-7.9316565022">
        <ele>252.00</ele>
        <time>2018-12-19T15:10:24Z</time>
      </trkpt>
      <trkpt lat="39.4584572688" lon="-7.9316627886">
        <ele>252.00</ele>
        <time>2018-12-19T15:10:25Z</time>
      </trkpt>
      <trkpt lat="39.4585477095" lon="-7.9317676462">
        <ele>252.96</ele>
        <time>2018-12-19T15:10:36Z</time>
      </trkpt>
      <trkpt lat="39.4586062152" lon="-7.9318685643">
        <ele>253.44</ele>
        <time>2018-12-19T15:10:46Z</time>
      </trkpt>
      <trkpt lat="39.4586793892" lon="-7.9319523834">
        <ele>254.89</ele>
        <time>2018-12-19T15:10:56Z</time>
      </trkpt>
      <trkpt lat="39.4587442651" lon="-7.9320243839">
        <ele>255.37</ele>
        <time>2018-12-19T15:11:04Z</time>
      </trkpt>
      <trkpt lat="39.4587645493" lon="-7.9320425726">
        <ele>255.85</ele>
        <time>2018-12-19T15:11:06Z</time>
      </trkpt>
      <trkpt lat="39.4588475302" lon="-7.9320947081">
        <ele>256.81</ele>
        <time>2018-12-19T15:11:14Z</time>
      </trkpt>
      <trkpt lat="39.4588577561" lon="-7.9320992343">
        <ele>256.33</ele>
        <time>2018-12-19T15:11:15Z</time>
      </trkpt>
      <trkpt lat="39.4589330256" lon="-7.9321257211">
        <ele>257.77</ele>
        <time>2018-12-19T15:11:22Z</time>
      </trkpt>
      <trkpt lat="39.4590402301" lon="-7.9321328457">
        <ele>257.77</ele>
        <time>2018-12-19T15:11:33Z</time>
      </trkpt>
      <trkpt lat="39.4591367058" lon="-7.9321400542">
        <ele>258.25</ele>
        <time>2018-12-19T15:11:42Z</time>
      </trkpt>
      <trkpt lat="39.4592258055" lon="-7.9321466759">
        <ele>259.21</ele>
        <time>2018-12-19T15:11:51Z</time>
      </trkpt>
      <trkpt lat="39.4592763484" lon="-7.9321549740">
        <ele>259.21</ele>
        <time>2018-12-19T15:12:02Z</time>
      </trkpt>
      <trkpt lat="39.4593353570" lon="-7.9321419820">
        <ele>259.69</ele>
        <time>2018-12-19T15:12:10Z</time>
      </trkpt>
      <trkpt lat="39.4594196789" lon="-7.9321316723">
        <ele>260.17</ele>
        <time>2018-12-19T15:12:19Z</time>
      </trkpt>
      <trkpt lat="39.4594785199" lon="-7.9321186803">
        <ele>261.14</ele>
        <time>2018-12-19T15:12:26Z</time>
      </trkpt>
      <trkpt lat="39.4595619198" lon="-7.9321346059">
        <ele>262.10</ele>
        <time>2018-12-19T15:12:35Z</time>
      </trkpt>
      <trkpt lat="39.4595739897" lon="-7.9321351927">
        <ele>261.62</ele>
        <time>2018-12-19T15:12:36Z</time>
      </trkpt>
      <trkpt lat="39.4596701302" lon="-7.9321527109">
        <ele>263.06</ele>
        <time>2018-12-19T15:12:46Z</time>
      </trkpt>
      <trkpt lat="39.4597338326" lon="-7.9321536329">
        <ele>263.06</ele>
        <time>2018-12-19T15:12:54Z</time>
      </trkpt>
      <trkpt lat="39.4598370139" lon="-7.9321769346">
        <ele>263.06</ele>
        <time>2018-12-19T15:13:03Z</time>
      </trkpt>
      <trkpt lat="39.4599356689" lon="-7.9321980570">
        <ele>264.98</ele>
        <time>2018-12-19T15:13:12Z</time>
      </trkpt>
      <trkpt lat="39.4600308035" lon="-7.9322302435">
        <ele>264.98</ele>
        <time>2018-12-19T15:13:19Z</time>
      </trkpt>
      <trkpt lat="39.4600707013" lon="-7.9322292376">
        <ele>265.46</ele>
        <time>2018-12-19T15:13:23Z</time>
      </trkpt>
      <trkpt lat="39.4601235073" lon="-7.9322486836">
        <ele>264.98</ele>
        <time>2018-12-19T15:13:28Z</time>
      </trkpt>
      <trkpt lat="39.4602155406" lon="-7.9322858155">
        <ele>265.94</ele>
        <time>2018-12-19T15:13:37Z</time>
      </trkpt>
      <trkpt lat="39.4602717832" lon="-7.9322934430">
        <ele>265.94</ele>
        <time>2018-12-19T15:13:41Z</time>
      </trkpt>
      <trkpt lat="39.4603771437" lon="-7.9323289823">
        <ele>266.42</ele>
        <time>2018-12-19T15:13:52Z</time>
      </trkpt>
      <trkpt lat="39.4604315422" lon="-7.9323615041">
        <ele>266.42</ele>
        <time>2018-12-19T15:13:58Z</time>
      </trkpt>
      <trkpt lat="39.4604683388" lon="-7.9323714785">
        <ele>267.86</ele>
        <time>2018-12-19T15:14:03Z</time>
      </trkpt>
      <trkpt lat="39.4605012797" lon="-7.9323866498">
        <ele>267.86</ele>
        <time>2018-12-19T15:14:07Z</time>
      </trkpt>
      <trkpt lat="39.4605689216" lon="-7.9324159026">
        <ele>268.35</ele>
        <time>2018-12-19T15:14:12Z</time>
      </trkpt>
      <trkpt lat="39.4606219791" lon="-7.9324454907">
        <ele>268.35</ele>
        <time>2018-12-19T15:14:17Z</time>
      </trkpt>
      <trkpt lat="39.4606508967" lon="-7.9324559681">
        <ele>268.35</ele>
        <time>2018-12-19T15:14:22Z</time>
      </trkpt>
      <trkpt lat="39.4606824964" lon="-7.9324652720">
        <ele>269.31</ele>
        <time>2018-12-19T15:14:26Z</time>
      </trkpt>
      <trkpt lat="39.4606997631" lon="-7.9324646853">
        <ele>269.31</ele>
        <time>2018-12-19T15:14:28Z</time>
      </trkpt>
      <trkpt lat="39.4607486296" lon="-7.9324728157">
        <ele>270.27</ele>
        <time>2018-12-19T15:14:34Z</time>
      </trkpt>
      <trkpt lat="39.4608084764" lon="-7.9325035773">
        <ele>269.79</ele>
        <time>2018-12-19T15:14:38Z</time>
      </trkpt>
      <trkpt lat="39.4608242344" lon="-7.9324978776">
        <ele>269.79</ele>
        <time>2018-12-19T15:14:41Z</time>
      </trkpt>
      <trkpt lat="39.4608890265" lon="-7.9325405415">
        <ele>271.23</ele>
        <time>2018-12-19T15:14:46Z</time>
      </trkpt>
      <trkpt lat="39.4608941395" lon="-7.9325418826">
        <ele>270.75</ele>
        <time>2018-12-19T15:14:47Z</time>
      </trkpt>
      <trkpt lat="39.4608473685" lon="-7.9326182418">
        <ele>271.23</ele>
        <time>2018-12-19T15:14:52Z</time>
      </trkpt>
      <trkpt lat="39.4608374778" lon="-7.9326281324">
        <ele>272.19</ele>
        <time>2018-12-19T15:14:55Z</time>
      </trkpt>
      <trkpt lat="39.4607823249" lon="-7.9326254502">
        <ele>272.19</ele>
        <time>2018-12-19T15:15:00Z</time>
      </trkpt>
      <trkpt lat="39.4607643876" lon="-7.9326231871">
        <ele>272.19</ele>
        <time>2018-12-19T15:15:11Z</time>
      </trkpt>
      <trkpt lat="39.4607674051" lon="-7.9326273780">
        <ele>272.67</ele>
        <time>2018-12-19T15:15:13Z</time>
      </trkpt>
      <trkpt lat="39.4607710093" lon="-7.9325448163">
        <ele>269.79</ele>
        <time>2018-12-20T07:05:36Z</time>
      </trkpt>
      <trkpt lat="39.4607708417" lon="-7.9325454868">
        <ele>269.79</ele>
        <time>2018-12-20T07:05:37Z</time>
      </trkpt>
      <trkpt lat="39.4607709255" lon="-7.9325464088">
        <ele>279.88</ele>
        <time>2018-12-20T07:05:38Z</time>
      </trkpt>
      <trkpt lat="39.4607710931" lon="-7.9325469118">
        <ele>275.56</ele>
        <time>2018-12-20T07:05:39Z</time>
      </trkpt>
      <trkpt lat="39.4607896172" lon="-7.9325372726">
        <ele>278.92</ele>
        <time>2018-12-20T07:05:46Z</time>
      </trkpt>
      <trkpt lat="39.4607931376" lon="-7.9325355124">
        <ele>275.56</ele>
        <time>2018-12-20T07:05:47Z</time>
      </trkpt>
      <trkpt lat="39.4607980829" lon="-7.9325327463">
        <ele>278.92</ele>
        <time>2018-12-20T07:05:49Z</time>
      </trkpt>
      <trkpt lat="39.4608060457" lon="-7.9325632565">
        <ele>277.00</ele>
        <time>2018-12-20T07:06:00Z</time>
      </trkpt>
      <trkpt lat="39.4608624559" lon="-7.9325954430">
        <ele>277.48</ele>
        <time>2018-12-20T07:06:08Z</time>
      </trkpt>
      <trkpt lat="39.4609448500" lon="-7.9325723089">
        <ele>277.96</ele>
        <time>2018-12-20T07:06:16Z</time>
      </trkpt>
      <trkpt lat="39.4610303454" lon="-7.9325708840">
        <ele>277.48</ele>
        <time>2018-12-20T07:06:25Z</time>
      </trkpt>
      <trkpt lat="39.4611006696" lon="-7.9325635079">
        <ele>277.48</ele>
        <time>2018-12-20T07:06:33Z</time>
      </trkpt>
      <trkpt lat="39.4611846562" lon="-7.9325815290">
        <ele>278.44</ele>
        <time>2018-12-20T07:06:42Z</time>
      </trkpt>
      <trkpt lat="39.4612472691" lon="-7.9326063395">
        <ele>278.92</ele>
        <time>2018-12-20T07:06:49Z</time>
      </trkpt>
      <trkpt lat="39.4613484386" lon="-7.9326401185">
        <ele>280.36</ele>
        <time>2018-12-20T07:06:59Z</time>
      </trkpt>
      <trkpt lat="39.4614172541" lon="-7.9326731432">
        <ele>280.84</ele>
        <time>2018-12-20T07:07:06Z</time>
      </trkpt>
      <trkpt lat="39.4615094550" lon="-7.9327145498">
        <ele>281.32</ele>
        <time>2018-12-20T07:07:15Z</time>
      </trkpt>
      <trkpt lat="39.4615946990" lon="-7.9327574652">
        <ele>283.25</ele>
        <time>2018-12-20T07:07:24Z</time>
      </trkpt>
      <trkpt lat="39.4616694655" lon="-7.9328172281">
        <ele>282.77</ele>
        <time>2018-12-20T07:07:33Z</time>
      </trkpt>
      <trkpt lat="39.4617370237" lon="-7.9328597244">
        <ele>283.73</ele>
        <time>2018-12-20T07:07:41Z</time>
      </trkpt>
      <trkpt lat="39.4617957808" lon="-7.9328756500">
        <ele>285.17</ele>
        <time>2018-12-20T07:07:48Z</time>
      </trkpt>
      <trkpt lat="39.4618452340" lon="-7.9329220857">
        <ele>284.69</ele>
        <time>2018-12-20T07:07:55Z</time>
      </trkpt>
      <trkpt lat="39.4619236887" lon="-7.9329713713">
        <ele>285.65</ele>
        <time>2018-12-20T07:08:05Z</time>
      </trkpt>
      <trkpt lat="39.4620309770" lon="-7.9330261052">
        <ele>287.09</ele>
        <time>2018-12-20T07:08:16Z</time>
      </trkpt>
      <trkpt lat="39.4620559551" lon="-7.9330457188">
        <ele>288.05</ele>
        <time>2018-12-20T07:08:22Z</time>
      </trkpt>
      <trkpt lat="39.4620787539" lon="-7.9330831021">
        <ele>288.53</ele>
        <time>2018-12-20T07:08:30Z</time>
      </trkpt>
      <trkpt lat="39.4621719606" lon="-7.9331381712">
        <ele>289.01</ele>
        <time>2018-12-20T07:08:39Z</time>
      </trkpt>
      <trkpt lat="39.4622233417" lon="-7.9331821762">
        <ele>289.49</ele>
        <time>2018-12-20T07:08:47Z</time>
      </trkpt>
      <trkpt lat="39.4623154588" lon="-7.9332313780">
        <ele>290.46</ele>
        <time>2018-12-20T07:08:56Z</time>
      </trkpt>
      <trkpt lat="39.4623468909" lon="-7.9332554340">
        <ele>290.94</ele>
        <time>2018-12-20T07:08:59Z</time>
      </trkpt>
      <trkpt lat="39.4623644091" lon="-7.9332880396">
        <ele>291.42</ele>
        <time>2018-12-20T07:09:02Z</time>
      </trkpt>
      <trkpt lat="39.4624571968" lon="-7.9333979264">
        <ele>291.90</ele>
        <time>2018-12-20T07:09:14Z</time>
      </trkpt>
      <trkpt lat="39.4625456259" lon="-7.9334871098">
        <ele>292.38</ele>
        <time>2018-12-20T07:09:24Z</time>
      </trkpt>
      <trkpt lat="39.4626088254" lon="-7.9335829988">
        <ele>291.90</ele>
        <time>2018-12-20T07:09:33Z</time>
      </trkpt>
      <trkpt lat="39.4626581948" lon="-7.9336536583">
        <ele>291.90</ele>
        <time>2018-12-20T07:09:41Z</time>
      </trkpt>
      <trkpt lat="39.4627013616" lon="-7.9337460268">
        <ele>292.38</ele>
        <time>2018-12-20T07:09:50Z</time>
      </trkpt>
      <trkpt lat="39.4627445284" lon="-7.9338457715">
        <ele>290.94</ele>
        <time>2018-12-20T07:09:59Z</time>
      </trkpt>
      <trkpt lat="39.4627858512" lon="-7.9339544848">
        <ele>290.46</ele>
        <time>2018-12-20T07:10:08Z</time>
      </trkpt>
      <trkpt lat="39.4628358074" lon="-7.9340317659">
        <ele>290.94</ele>
        <time>2018-12-20T07:10:15Z</time>
      </trkpt>
      <trkpt lat="39.4628760405" lon="-7.9341260623">
        <ele>290.46</ele>
        <time>2018-12-20T07:10:22Z</time>
      </trkpt>
      <trkpt lat="39.4629565906" lon="-7.9341918603">
        <ele>289.97</ele>
        <time>2018-12-20T07:10:29Z</time>
      </trkpt>
      <trkpt lat="39.4629984163" lon="-7.9342597537">
        <ele>290.46</ele>
        <time>2018-12-20T07:10:37Z</time>
      </trkpt>
      <trkpt lat="39.4630790502" lon="-7.9342597537">
        <ele>290.46</ele>
        <time>2018-12-20T07:10:40Z</time>
      </trkpt>
      <trkpt lat="39.4631551579" lon="-7.9343372863">
        <ele>289.97</ele>
        <time>2018-12-20T07:10:48Z</time>
      </trkpt>
      <trkpt lat="39.4632290024" lon="-7.9343845602">
        <ele>289.97</ele>
        <time>2018-12-20T07:10:56Z</time>
      </trkpt>
      <trkpt lat="39.4633419905" lon="-7.9344234522">
        <ele>289.97</ele>
        <time>2018-12-20T07:11:04Z</time>
      </trkpt>
      <trkpt lat="39.4634792022" lon="-7.9345307406">
        <ele>289.97</ele>
        <time>2018-12-20T07:11:15Z</time>
      </trkpt>
      <trkpt lat="39.4635503646" lon="-7.9346564692">
        <ele>289.97</ele>
        <time>2018-12-20T07:11:24Z</time>
      </trkpt>
      <trkpt lat="39.4636023324" lon="-7.9347764142">
        <ele>289.97</ele>
        <time>2018-12-20T07:11:33Z</time>
      </trkpt>
      <trkpt lat="39.4636107143" lon="-7.9348863009">
        <ele>289.97</ele>
        <time>2018-12-20T07:11:41Z</time>
      </trkpt>
      <trkpt lat="39.4636391290" lon="-7.9349798430">
        <ele>289.49</ele>
        <time>2018-12-20T07:11:48Z</time>
      </trkpt>
      <trkpt lat="39.4637471717" lon="-7.9351024702">
        <ele>289.01</ele>
        <time>2018-12-20T07:12:00Z</time>
      </trkpt>
      <trkpt lat="39.4638208486" lon="-7.9351564497">
        <ele>289.01</ele>
        <time>2018-12-20T07:12:07Z</time>
      </trkpt>
      <trkpt lat="39.4639213476" lon="-7.9352728743">
        <ele>288.05</ele>
        <time>2018-12-20T07:12:18Z</time>
      </trkpt>
      <trkpt lat="39.4639866427" lon="-7.9353835993">
        <ele>288.05</ele>
        <time>2018-12-20T07:12:27Z</time>
      </trkpt>
      <trkpt lat="39.4640614092" lon="-7.9354628082">
        <ele>287.09</ele>
        <time>2018-12-20T07:12:35Z</time>
      </trkpt>
      <trkpt lat="39.4641484972" lon="-7.9355789814">
        <ele>286.13</ele>
        <time>2018-12-20T07:12:45Z</time>
      </trkpt>
      <trkpt lat="39.4641817734" lon="-7.9356314521">
        <ele>286.61</ele>
        <time>2018-12-20T07:12:49Z</time>
      </trkpt>
      <trkpt lat="39.4642850384" lon="-7.9357726872">
        <ele>286.61</ele>
        <time>2018-12-20T07:13:00Z</time>
      </trkpt>
      <trkpt lat="39.4643489085" lon="-7.9359187838">
        <ele>286.61</ele>
        <time>2018-12-20T07:13:11Z</time>
      </trkpt>
      <trkpt lat="39.4643990323" lon="-7.9359983280">
        <ele>286.61</ele>
        <time>2018-12-20T07:13:18Z</time>
      </trkpt>
      <trkpt lat="39.4644675963" lon="-7.9360686522">
        <ele>287.09</ele>
        <time>2018-12-20T07:13:26Z</time>
      </trkpt>
      <trkpt lat="39.4645159598" lon="-7.9361231346">
        <ele>287.57</ele>
        <time>2018-12-20T07:13:32Z</time>
      </trkpt>
      <trkpt lat="39.4645657483" lon="-7.9361720011">
        <ele>287.57</ele>
        <time>2018-12-20T07:13:38Z</time>
      </trkpt>
      <trkpt lat="39.4646173809" lon="-7.9362851568">
        <ele>287.57</ele>
        <time>2018-12-20T07:13:46Z</time>
      </trkpt>
      <trkpt lat="39.4646613859" lon="-7.9363567382">
        <ele>288.05</ele>
        <time>2018-12-20T07:13:52Z</time>
      </trkpt>
      <trkpt lat="39.4647407625" lon="-7.9364394676">
        <ele>288.53</ele>
        <time>2018-12-20T07:14:01Z</time>
      </trkpt>
      <trkpt lat="39.4648360647" lon="-7.9365435708">
        <ele>288.53</ele>
        <time>2018-12-20T07:14:11Z</time>
      </trkpt>
      <trkpt lat="39.4649252482" lon="-7.9366756696">
        <ele>289.01</ele>
        <time>2018-12-20T07:14:21Z</time>
      </trkpt>
      <trkpt lat="39.4649858493" lon="-7.9368034936">
        <ele>289.01</ele>
        <time>2018-12-20T07:14:31Z</time>
      </trkpt>
      <trkpt lat="39.4649778027" lon="-7.9369161464">
        <ele>289.97</ele>
        <time>2018-12-20T07:14:39Z</time>
      </trkpt>
      <trkpt lat="39.4649629667" lon="-7.9370117839">
        <ele>288.53</ele>
        <time>2018-12-20T07:14:47Z</time>
      </trkpt>
      <trkpt lat="39.4649329595" lon="-7.9371485766">
        <ele>288.53</ele>
        <time>2018-12-20T07:14:56Z</time>
      </trkpt>
      <trkpt lat="39.4648917206" lon="-7.9372269474">
        <ele>289.01</ele>
        <time>2018-12-20T07:15:06Z</time>
      </trkpt>
      <trkpt lat="39.4648852665" lon="-7.9372483213">
        <ele>285.65</ele>
        <time>2018-12-20T07:15:15Z</time>
      </trkpt>
      <trkpt lat="39.4648849312" lon="-7.9372489080">
        <ele>290.46</ele>
        <time>2018-12-20T07:15:16Z</time>
      </trkpt>
      <trkpt lat="39.4648975879" lon="-7.9372654203">
        <ele>287.57</ele>
        <time>2018-12-20T07:15:20Z</time>
      </trkpt>
      <trkpt lat="39.4648944866" lon="-7.9372668453">
        <ele>287.57</ele>
        <time>2018-12-20T07:15:21Z</time>
      </trkpt>
      <trkpt lat="39.4650546648" lon="-7.9373054858">
        <ele>291.42</ele>
        <time>2018-12-20T07:35:32Z</time>
      </trkpt>
      <trkpt lat="39.4650558382" lon="-7.9373118561">
        <ele>291.42</ele>
        <time>2018-12-20T07:35:34Z</time>
      </trkpt>
      <trkpt lat="39.4650472887" lon="-7.9373090062">
        <ele>290.94</ele>
        <time>2018-12-20T07:35:38Z</time>
      </trkpt>
      <trkpt lat="39.4650659803" lon="-7.9373225011">
        <ele>291.90</ele>
        <time>2018-12-20T07:35:40Z</time>
      </trkpt>
      <trkpt lat="39.4651109073" lon="-7.9372951761">
        <ele>291.90</ele>
        <time>2018-12-20T07:35:47Z</time>
      </trkpt>
      <trkpt lat="39.4651246537" lon="-7.9373054858">
        <ele>291.42</ele>
        <time>2018-12-20T07:35:54Z</time>
      </trkpt>
      <trkpt lat="39.4651316945" lon="-7.9373093415">
        <ele>288.05</ele>
        <time>2018-12-20T07:35:56Z</time>
      </trkpt>
      <trkpt lat="39.4651331194" lon="-7.9373115208">
        <ele>294.30</ele>
        <time>2018-12-20T07:35:57Z</time>
      </trkpt>
      <trkpt lat="39.4651440997" lon="-7.9373258539">
        <ele>290.46</ele>
        <time>2018-12-20T07:36:00Z</time>
      </trkpt>
      <trkpt lat="39.4651792198" lon="-7.9373331461">
        <ele>290.94</ele>
        <time>2018-12-20T07:36:08Z</time>
      </trkpt>
      <trkpt lat="39.4652294274" lon="-7.9373138677">
        <ele>291.90</ele>
        <time>2018-12-20T07:36:15Z</time>
      </trkpt>
      <trkpt lat="39.4652982429" lon="-7.9372789152">
        <ele>291.42</ele>
        <time>2018-12-20T07:36:23Z</time>
      </trkpt>
      <trkpt lat="39.4653681479" lon="-7.9372216668">
        <ele>290.94</ele>
        <time>2018-12-20T07:36:30Z</time>
      </trkpt>
      <trkpt lat="39.4654127397" lon="-7.9371693637">
        <ele>291.42</ele>
        <time>2018-12-20T07:36:37Z</time>
      </trkpt>
      <trkpt lat="39.4654465187" lon="-7.9371527676">
        <ele>290.46</ele>
        <time>2018-12-20T07:36:45Z</time>
      </trkpt>
      <trkpt lat="39.4654729217" lon="-7.9371284600">
        <ele>291.42</ele>
        <time>2018-12-20T07:36:54Z</time>
      </trkpt>
      <trkpt lat="39.4655228779" lon="-7.9370764084">
        <ele>289.97</ele>
        <time>2018-12-20T07:37:00Z</time>
      </trkpt>
      <trkpt lat="39.4655924477" lon="-7.9369778372">
        <ele>289.97</ele>
        <time>2018-12-20T07:37:10Z</time>
      </trkpt>
      <trkpt lat="39.4656476006" lon="-7.9368733987">
        <ele>289.97</ele>
        <time>2018-12-20T07:37:21Z</time>
      </trkpt>
      <trkpt lat="39.4657005742" lon="-7.9367628414">
        <ele>289.49</ele>
        <time>2018-12-20T07:37:31Z</time>
      </trkpt>
      <trkpt lat="39.4657613430" lon="-7.9366381187">
        <ele>289.97</ele>
        <time>2018-12-20T07:37:42Z</time>
      </trkpt>
      <trkpt lat="39.4657997321" lon="-7.9365523718">
        <ele>289.01</ele>
        <time>2018-12-20T07:37:51Z</time>
      </trkpt>
      <trkpt lat="39.4658708107" lon="-7.9364481010">
        <ele>289.01</ele>
        <time>2018-12-20T07:38:00Z</time>
      </trkpt>
      <trkpt lat="39.4659337588" lon="-7.9363979772">
        <ele>289.49</ele>
        <time>2018-12-20T07:38:08Z</time>
      </trkpt>
      <trkpt lat="39.4659711421" lon="-7.9364195187">
        <ele>289.49</ele>
        <time>2018-12-20T07:38:14Z</time>
      </trkpt>
      <trkpt lat="39.4660543744" lon="-7.9364942852">
        <ele>290.46</ele>
        <time>2018-12-20T07:38:25Z</time>
      </trkpt>
      <trkpt lat="39.4661204237" lon="-7.9364779405">
        <ele>289.01</ele>
        <time>2018-12-20T07:38:32Z</time>
      </trkpt>
      <trkpt lat="39.4662156422" lon="-7.9364097957">
        <ele>288.53</ele>
        <time>2018-12-20T07:38:41Z</time>
      </trkpt>
      <trkpt lat="39.4662524387" lon="-7.9363808781">
        <ele>289.01</ele>
        <time>2018-12-20T07:38:45Z</time>
      </trkpt>
      <trkpt lat="39.4663062505" lon="-7.9363465961">
        <ele>289.01</ele>
        <time>2018-12-20T07:38:52Z</time>
      </trkpt>
      <trkpt lat="39.4663261157" lon="-7.9362844024">
        <ele>289.01</ele>
        <time>2018-12-20T07:39:01Z</time>
      </trkpt>
      <trkpt lat="39.4663270377" lon="-7.9361913633">
        <ele>289.01</ele>
        <time>2018-12-20T07:39:07Z</time>
      </trkpt>
      <trkpt lat="39.4663145486" lon="-7.9361022636">
        <ele>289.01</ele>
        <time>2018-12-20T07:39:15Z</time>
      </trkpt>
      <trkpt lat="39.4663051609" lon="-7.9360397346">
        <ele>289.01</ele>
        <time>2018-12-20T07:39:22Z</time>
      </trkpt>
      <trkpt lat="39.4663269538" lon="-7.9359730985">
        <ele>289.01</ele>
        <time>2018-12-20T07:39:27Z</time>
      </trkpt>
      <trkpt lat="39.4663642533" lon="-7.9359021876">
        <ele>289.49</ele>
        <time>2018-12-20T07:39:32Z</time>
      </trkpt>
      <trkpt lat="39.4663966075" lon="-7.9358038679">
        <ele>288.53</ele>
        <time>2018-12-20T07:39:39Z</time>
      </trkpt>
      <trkpt lat="39.4664233457" lon="-7.9357094038">
        <ele>288.53</ele>
        <time>2018-12-20T07:39:47Z</time>
      </trkpt>
      <trkpt lat="39.4664675184" lon="-7.9355524108">
        <ele>289.01</ele>
        <time>2018-12-20T07:39:58Z</time>
      </trkpt>
      <trkpt lat="39.4665170554" lon="-7.9354686756">
        <ele>289.01</ele>
        <time>2018-12-20T07:40:06Z</time>
      </trkpt>
      <trkpt lat="39.4665955938" lon="-7.9354760516">
        <ele>289.01</ele>
        <time>2018-12-20T07:40:13Z</time>
      </trkpt>
      <trkpt lat="39.4666548539" lon="-7.9355358146">
        <ele>288.53</ele>
        <time>2018-12-20T07:40:21Z</time>
      </trkpt>
      <trkpt lat="39.4666867889" lon="-7.9356031213">
        <ele>288.53</ele>
        <time>2018-12-20T07:40:28Z</time>
      </trkpt>
      <trkpt lat="39.4667003676" lon="-7.9356235731">
        <ele>288.53</ele>
        <time>2018-12-20T07:40:31Z</time>
      </trkpt>
      <trkpt lat="39.4667008705" lon="-7.9356643092">
        <ele>288.53</ele>
        <time>2018-12-20T07:40:34Z</time>
      </trkpt>
      <trkpt lat="39.4667049777" lon="-7.9356941488">
        <ele>288.05</ele>
        <time>2018-12-20T07:40:36Z</time>
      </trkpt>
      <trkpt lat="39.4667682610" lon="-7.9358170275">
        <ele>289.01</ele>
        <time>2018-12-20T07:40:46Z</time>
      </trkpt>
      <trkpt lat="39.4668299519" lon="-7.9359512217">
        <ele>289.01</ele>
        <time>2018-12-20T07:40:57Z</time>
      </trkpt>
      <trkpt lat="39.4669298641" lon="-7.9360096436">
        <ele>288.53</ele>
        <time>2018-12-20T07:41:07Z</time>
      </trkpt>
      <trkpt lat="39.4669936504" lon="-7.9360009264">
        <ele>289.01</ele>
        <time>2018-12-20T07:41:21Z</time>
      </trkpt>
      <trkpt lat="39.4670175388" lon="-7.9360427521">
        <ele>288.53</ele>
        <time>2018-12-20T07:41:32Z</time>
      </trkpt>
      <trkpt lat="39.4670380745" lon="-7.9361191951">
        <ele>289.01</ele>
        <time>2018-12-20T07:41:41Z</time>
      </trkpt>
      <trkpt lat="39.4670326263" lon="-7.9361859988">
        <ele>289.01</ele>
        <time>2018-12-20T07:41:51Z</time>
      </trkpt>
      <trkpt lat="39.4670572691" lon="-7.9362725839">
        <ele>288.05</ele>
        <time>2018-12-20T07:42:01Z</time>
      </trkpt>
      <trkpt lat="39.4670819957" lon="-7.9363656230">
        <ele>286.13</ele>
        <time>2018-12-20T07:42:10Z</time>
      </trkpt>
      <trkpt lat="39.4670717698" lon="-7.9364190158">
        <ele>285.17</ele>
        <time>2018-12-20T07:42:18Z</time>
      </trkpt>
      <trkpt lat="39.4670476299" lon="-7.9364870768">
        <ele>283.73</ele>
        <time>2018-12-20T07:42:26Z</time>
      </trkpt>
      <trkpt lat="39.4670763798" lon="-7.9366101231">
        <ele>282.28</ele>
        <time>2018-12-20T07:42:36Z</time>
      </trkpt>
      <trkpt lat="39.4671086501" lon="-7.9367076885">
        <ele>280.36</ele>
        <time>2018-12-20T07:42:45Z</time>
      </trkpt>
      <trkpt lat="39.4671363104" lon="-7.9368044995">
        <ele>278.44</ele>
        <time>2018-12-20T07:42:54Z</time>
      </trkpt>
      <trkpt lat="39.4671614561" lon="-7.9369370174">
        <ele>276.52</ele>
        <time>2018-12-20T07:43:04Z</time>
      </trkpt>
      <trkpt lat="39.4672100712" lon="-7.9370545316">
        <ele>276.04</ele>
        <time>2018-12-20T07:43:14Z</time>
      </trkpt>
      <trkpt lat="39.4672339596" lon="-7.9371360037">
        <ele>274.11</ele>
        <time>2018-12-20T07:43:20Z</time>
      </trkpt>
      <trkpt lat="39.4672886934" lon="-7.9372744728">
        <ele>272.67</ele>
        <time>2018-12-20T07:43:31Z</time>
      </trkpt>
      <trkpt lat="39.4673220534" lon="-7.9373620637">
        <ele>272.19</ele>
        <time>2018-12-20T07:43:38Z</time>
      </trkpt>
      <trkpt lat="39.4673216343" lon="-7.9373896401">
        <ele>271.23</ele>
        <time>2018-12-20T07:43:40Z</time>
      </trkpt>
      <trkpt lat="39.4673311058" lon="-7.9374317173">
        <ele>270.75</ele>
        <time>2018-12-20T07:43:43Z</time>
      </trkpt>
      <trkpt lat="39.4673701655" lon="-7.9375359043">
        <ele>269.31</ele>
        <time>2018-12-20T07:43:52Z</time>
      </trkpt>
      <trkpt lat="39.4674027711" lon="-7.9376519099">
        <ele>268.35</ele>
        <time>2018-12-20T07:44:02Z</time>
      </trkpt>
      <trkpt lat="39.4674482010" lon="-7.9377980903">
        <ele>267.38</ele>
        <time>2018-12-20T07:44:12Z</time>
      </trkpt>
      <trkpt lat="39.4674985763" lon="-7.9379584361">
        <ele>264.98</ele>
        <time>2018-12-20T07:44:24Z</time>
      </trkpt>
      <trkpt lat="39.4675412402" lon="-7.9380873498">
        <ele>263.06</ele>
        <time>2018-12-20T07:44:34Z</time>
      </trkpt>
      <trkpt lat="39.4675820600" lon="-7.9382434208">
        <ele>262.10</ele>
        <time>2018-12-20T07:44:45Z</time>
      </trkpt>
      <trkpt lat="39.4676457625" lon="-7.9383986536">
        <ele>260.17</ele>
        <time>2018-12-20T07:44:57Z</time>
      </trkpt>
      <trkpt lat="39.4677081238" lon="-7.9385720752">
        <ele>258.25</ele>
        <time>2018-12-20T07:45:09Z</time>
      </trkpt>
      <trkpt lat="39.4677378796" lon="-7.9387211893">
        <ele>257.29</ele>
        <time>2018-12-20T07:45:19Z</time>
      </trkpt>
      <trkpt lat="39.4677343592" lon="-7.9388657771">
        <ele>255.85</ele>
        <time>2018-12-20T07:45:29Z</time>
      </trkpt>
      <trkpt lat="39.4677332696" lon="-7.9388804454">
        <ele>256.33</ele>
        <time>2018-12-20T07:45:30Z</time>
      </trkpt>
      <trkpt lat="39.4676880073" lon="-7.9391579702">
        <ele>253.93</ele>
        <time>2018-12-20T07:45:47Z</time>
      </trkpt>
      <trkpt lat="39.4677101355" lon="-7.9393144604">
        <ele>252.00</ele>
        <time>2018-12-20T07:45:58Z</time>
      </trkpt>
      <trkpt lat="39.4677576609" lon="-7.9394257721">
        <ele>249.60</ele>
        <time>2018-12-20T07:46:09Z</time>
      </trkpt>
      <trkpt lat="39.4678240456" lon="-7.9395487346">
        <ele>247.68</ele>
        <time>2018-12-20T07:46:19Z</time>
      </trkpt>
      <trkpt lat="39.4678331818" lon="-7.9395725392">
        <ele>247.68</ele>
        <time>2018-12-20T07:46:21Z</time>
      </trkpt>
      <trkpt lat="39.4678447489" lon="-7.9397389200">
        <ele>246.72</ele>
        <time>2018-12-20T07:46:32Z</time>
      </trkpt>
      <trkpt lat="39.4678265601" lon="-7.9398712702">
        <ele>246.72</ele>
        <time>2018-12-20T07:46:42Z</time>
      </trkpt>
      <trkpt lat="39.4678202737" lon="-7.9400133435">
        <ele>247.20</ele>
        <time>2018-12-20T07:46:52Z</time>
      </trkpt>
      <trkpt lat="39.4678745884" lon="-7.9401662294">
        <ele>247.20</ele>
        <time>2018-12-20T07:47:02Z</time>
      </trkpt>
      <trkpt lat="39.4679112174" lon="-7.9402971547">
        <ele>247.20</ele>
        <time>2018-12-20T07:47:11Z</time>
      </trkpt>
      <trkpt lat="39.4679623470" lon="-7.9404413234">
        <ele>246.72</ele>
        <time>2018-12-20T07:47:21Z</time>
      </trkpt>
      <trkpt lat="39.4679661188" lon="-7.9404673073">
        <ele>246.72</ele>
        <time>2018-12-20T07:47:23Z</time>
      </trkpt>
      <trkpt lat="39.4679621793" lon="-7.9405989870">
        <ele>247.20</ele>
        <time>2018-12-20T07:47:32Z</time>
      </trkpt>
      <trkpt lat="39.4679608382" lon="-7.9406144936">
        <ele>247.20</ele>
        <time>2018-12-20T07:47:33Z</time>
      </trkpt>
      <trkpt lat="39.4679652806" lon="-7.9407824669">
        <ele>247.68</ele>
        <time>2018-12-20T07:47:44Z</time>
      </trkpt>
      <trkpt lat="39.4679844752" lon="-7.9409072734">
        <ele>247.68</ele>
        <time>2018-12-20T07:47:53Z</time>
      </trkpt>
      <trkpt lat="39.4680579845" lon="-7.9411036614">
        <ele>246.23</ele>
        <time>2018-12-20T07:48:06Z</time>
      </trkpt>
      <trkpt lat="39.4680658635" lon="-7.9411506001">
        <ele>246.72</ele>
        <time>2018-12-20T07:48:09Z</time>
      </trkpt>
      <trkpt lat="39.4680133089" lon="-7.9412750714">
        <ele>246.23</ele>
        <time>2018-12-20T07:48:19Z</time>
      </trkpt>
      <trkpt lat="39.4680124708" lon="-7.9414070025">
        <ele>245.27</ele>
        <time>2018-12-20T07:48:28Z</time>
      </trkpt>
      <trkpt lat="39.4680562243" lon="-7.9415901471">
        <ele>245.27</ele>
        <time>2018-12-20T07:48:40Z</time>
      </trkpt>
      <trkpt lat="39.4681056775" lon="-7.9417395964">
        <ele>242.87</ele>
        <time>2018-12-20T07:48:51Z</time>
      </trkpt>
      <trkpt lat="39.4681690447" lon="-7.9419131018">
        <ele>241.91</ele>
        <time>2018-12-20T07:49:03Z</time>
      </trkpt>
      <trkpt lat="39.4682235271" lon="-7.9420696758">
        <ele>240.95</ele>
        <time>2018-12-20T07:49:14Z</time>
      </trkpt>
      <trkpt lat="39.4683213439" lon="-7.9422310274">
        <ele>240.47</ele>
        <time>2018-12-20T07:49:27Z</time>
      </trkpt>
      <trkpt lat="39.4683655165" lon="-7.9422799777">
        <ele>240.47</ele>
        <time>2018-12-20T07:49:33Z</time>
      </trkpt>
      <trkpt lat="39.4684177358" lon="-7.9423632100">
        <ele>239.51</ele>
        <time>2018-12-20T07:49:42Z</time>
      </trkpt>
      <trkpt lat="39.4684596453" lon="-7.9424092267">
        <ele>238.54</ele>
        <time>2018-12-20T07:49:51Z</time>
      </trkpt>
      <trkpt lat="39.4684654288" lon="-7.9424194526">
        <ele>239.02</ele>
        <time>2018-12-20T07:49:52Z</time>
      </trkpt>
      <trkpt lat="39.4684815221" lon="-7.9426048603">
        <ele>238.06</ele>
        <time>2018-12-20T07:50:04Z</time>
      </trkpt>
      <trkpt lat="39.4684951846" lon="-7.9426635336">
        <ele>238.06</ele>
        <time>2018-12-20T07:50:08Z</time>
      </trkpt>
      <trkpt lat="39.4685945101" lon="-7.9427906033">
        <ele>238.06</ele>
        <time>2018-12-20T07:50:19Z</time>
      </trkpt>
      <trkpt lat="39.4686986972" lon="-7.9429107998">
        <ele>238.54</ele>
        <time>2018-12-20T07:50:30Z</time>
      </trkpt>
      <trkpt lat="39.4687939994" lon="-7.9430251289">
        <ele>239.02</ele>
        <time>2018-12-20T07:50:40Z</time>
      </trkpt>
      <trkpt lat="39.4688789919" lon="-7.9431472532">
        <ele>239.02</ele>
        <time>2018-12-20T07:50:50Z</time>
      </trkpt>
      <trkpt lat="39.4689077418" lon="-7.9431825411">
        <ele>239.02</ele>
        <time>2018-12-20T07:50:57Z</time>
      </trkpt>
      <trkpt lat="39.4689768087" lon="-7.9433006421">
        <ele>238.54</ele>
        <time>2018-12-20T07:51:06Z</time>
      </trkpt>
      <trkpt lat="39.4690310396" lon="-7.9434079304">
        <ele>238.54</ele>
        <time>2018-12-20T07:51:16Z</time>
      </trkpt>
      <trkpt lat="39.4690749608" lon="-7.9434914980">
        <ele>238.06</ele>
        <time>2018-12-20T07:51:24Z</time>
      </trkpt>
      <trkpt lat="39.4690938201" lon="-7.9435423762">
        <ele>238.06</ele>
        <time>2018-12-20T07:51:28Z</time>
      </trkpt>
      <trkpt lat="39.4691120088" lon="-7.9435763229">
        <ele>238.54</ele>
        <time>2018-12-20T07:51:31Z</time>
      </trkpt>
      <trkpt lat="39.4691904634" lon="-7.9437096789">
        <ele>238.54</ele>
        <time>2018-12-20T07:51:42Z</time>
      </trkpt>
      <trkpt lat="39.4692543335" lon="-7.9438199848">
        <ele>239.02</ele>
        <time>2018-12-20T07:51:51Z</time>
      </trkpt>
      <trkpt lat="39.4693295192" lon="-7.9439618066">
        <ele>238.54</ele>
        <time>2018-12-20T07:52:02Z</time>
      </trkpt>
      <trkpt lat="39.4693745300" lon="-7.9440838471">
        <ele>239.02</ele>
        <time>2018-12-20T07:52:11Z</time>
      </trkpt>
      <trkpt lat="39.4694332033" lon="-7.9442382418">
        <ele>238.06</ele>
        <time>2018-12-20T07:52:22Z</time>
      </trkpt>
      <trkpt lat="39.4694608636" lon="-7.9444057122">
        <ele>238.54</ele>
        <time>2018-12-20T07:52:33Z</time>
      </trkpt>
      <trkpt lat="39.4694864284" lon="-7.9445202090">
        <ele>238.54</ele>
        <time>2018-12-20T07:52:41Z</time>
      </trkpt>
      <trkpt lat="39.4695061259" lon="-7.9447055329">
        <ele>237.58</ele>
        <time>2018-12-20T07:52:53Z</time>
      </trkpt>
      <trkpt lat="39.4695340376" lon="-7.9448621906">
        <ele>236.62</ele>
        <time>2018-12-20T07:53:03Z</time>
      </trkpt>
      <trkpt lat="39.4695746899" lon="-7.9450177588">
        <ele>236.14</ele>
        <time>2018-12-20T07:53:13Z</time>
      </trkpt>
      <trkpt lat="39.4695989974" lon="-7.9451473430">
        <ele>236.14</ele>
        <time>2018-12-20T07:53:22Z</time>
      </trkpt>
      <trkpt lat="39.4696476962" lon="-7.9452893324">
        <ele>236.14</ele>
        <time>2018-12-20T07:53:33Z</time>
      </trkpt>
      <trkpt lat="39.4696751889" lon="-7.9453817010">
        <ele>236.62</ele>
        <time>2018-12-20T07:53:40Z</time>
      </trkpt>
      <trkpt lat="39.4697186910" lon="-7.9454574734">
        <ele>236.62</ele>
        <time>2018-12-20T07:53:47Z</time>
      </trkpt>
      <trkpt lat="39.4697823096" lon="-7.9455535300">
        <ele>236.62</ele>
        <time>2018-12-20T07:53:55Z</time>
      </trkpt>
      <trkpt lat="39.4698629435" lon="-7.9456777498">
        <ele>236.62</ele>
        <time>2018-12-20T07:54:05Z</time>
      </trkpt>
      <trkpt lat="39.4698850717" lon="-7.9457264487">
        <ele>235.66</ele>
        <time>2018-12-20T07:54:09Z</time>
      </trkpt>
      <trkpt lat="39.4699025061" lon="-7.9458630737">
        <ele>234.22</ele>
        <time>2018-12-20T07:54:19Z</time>
      </trkpt>
      <trkpt lat="39.4699294120" lon="-7.9460342322">
        <ele>233.26</ele>
        <time>2018-12-20T07:54:30Z</time>
      </trkpt>
      <trkpt lat="39.4699463435" lon="-7.9461482260">
        <ele>232.78</ele>
        <time>2018-12-20T07:54:38Z</time>
      </trkpt>
      <trkpt lat="39.4699714892" lon="-7.9462292790">
        <ele>232.78</ele>
        <time>2018-12-20T07:54:44Z</time>
      </trkpt>
      <trkpt lat="39.4700670429" lon="-7.9463587794">
        <ele>232.30</ele>
        <time>2018-12-20T07:54:56Z</time>
      </trkpt>
      <trkpt lat="39.4701344334" lon="-7.9464871064">
        <ele>233.26</ele>
        <time>2018-12-20T07:55:06Z</time>
      </trkpt>
      <trkpt lat="39.4701941963" lon="-7.9465795588">
        <ele>232.78</ele>
        <time>2018-12-20T07:55:14Z</time>
      </trkpt>
      <trkpt lat="39.4702437334" lon="-7.9467120767">
        <ele>233.26</ele>
        <time>2018-12-20T07:55:24Z</time>
      </trkpt>
      <trkpt lat="39.4702705555" lon="-7.9468286689">
        <ele>233.26</ele>
        <time>2018-12-20T07:55:33Z</time>
      </trkpt>
      <trkpt lat="39.4702649396" lon="-7.9469704907">
        <ele>233.26</ele>
        <time>2018-12-20T07:55:42Z</time>
      </trkpt>
      <trkpt lat="39.4702636823" lon="-7.9469863325">
        <ele>233.74</ele>
        <time>2018-12-20T07:55:43Z</time>
      </trkpt>
      <trkpt lat="39.4702361897" lon="-7.9471253045">
        <ele>233.74</ele>
        <time>2018-12-20T07:55:52Z</time>
      </trkpt>
      <trkpt lat="39.4702190906" lon="-7.9472666234">
        <ele>234.70</ele>
        <time>2018-12-20T07:56:02Z</time>
      </trkpt>
      <trkpt lat="39.4702144805" lon="-7.9473480117">
        <ele>235.66</ele>
        <time>2018-12-20T07:56:08Z</time>
      </trkpt>
      <trkpt lat="39.4702116307" lon="-7.9474542942">
        <ele>236.62</ele>
        <time>2018-12-20T07:56:15Z</time>
      </trkpt>
      <trkpt lat="39.4702352677" lon="-7.9475990497">
        <ele>237.58</ele>
        <time>2018-12-20T07:56:25Z</time>
      </trkpt>
      <trkpt lat="39.4702666160" lon="-7.9477201682">
        <ele>239.99</ele>
        <time>2018-12-20T07:56:35Z</time>
      </trkpt>
      <trkpt lat="39.4702872355" lon="-7.9478212539">
        <ele>240.95</ele>
        <time>2018-12-20T07:56:43Z</time>
      </trkpt>
      <trkpt lat="39.4703196734" lon="-7.9479502514">
        <ele>241.91</ele>
        <time>2018-12-20T07:56:52Z</time>
      </trkpt>
      <trkpt lat="39.4703364372" lon="-7.9480837751">
        <ele>241.91</ele>
        <time>2018-12-20T07:57:01Z</time>
      </trkpt>
      <trkpt lat="39.4703516923" lon="-7.9482219089">
        <ele>242.39</ele>
        <time>2018-12-20T07:57:10Z</time>
      </trkpt>
      <trkpt lat="39.4703487586" lon="-7.9483490624">
        <ele>242.87</ele>
        <time>2018-12-20T07:57:19Z</time>
      </trkpt>
      <trkpt lat="39.4703528658" lon="-7.9484076519">
        <ele>243.35</ele>
        <time>2018-12-20T07:57:24Z</time>
      </trkpt>
      <trkpt lat="39.4703462441" lon="-7.9485131800">
        <ele>244.79</ele>
        <time>2018-12-20T07:57:32Z</time>
      </trkpt>
      <trkpt lat="39.4703236129" lon="-7.9486111645">
        <ele>245.75</ele>
        <time>2018-12-20T07:57:40Z</time>
      </trkpt>
      <trkpt lat="39.4702995569" lon="-7.9487404972">
        <ele>246.72</ele>
        <time>2018-12-20T07:57:49Z</time>
      </trkpt>
      <trkpt lat="39.4702812005" lon="-7.9488502163">
        <ele>247.68</ele>
        <time>2018-12-20T07:57:57Z</time>
      </trkpt>
      <trkpt lat="39.4702646043" lon="-7.9489641264">
        <ele>248.64</ele>
        <time>2018-12-20T07:58:06Z</time>
      </trkpt>
      <trkpt lat="39.4702679571" lon="-7.9491196107">
        <ele>249.60</ele>
        <time>2018-12-20T07:58:15Z</time>
      </trkpt>
      <trkpt lat="39.4702718966" lon="-7.9491344467">
        <ele>249.12</ele>
        <time>2018-12-20T07:58:16Z</time>
      </trkpt>
      <trkpt lat="39.4702893309" lon="-7.9492766038">
        <ele>249.60</ele>
        <time>2018-12-20T07:58:25Z</time>
      </trkpt>
      <trkpt lat="39.4703190867" lon="-7.9494397156">
        <ele>250.56</ele>
        <time>2018-12-20T07:58:36Z</time>
      </trkpt>
      <trkpt lat="39.4703268819" lon="-7.9496225249">
        <ele>249.60</ele>
        <time>2018-12-20T07:58:47Z</time>
      </trkpt>
      <trkpt lat="39.4703361019" lon="-7.9497304000">
        <ele>250.08</ele>
        <time>2018-12-20T07:58:54Z</time>
      </trkpt>
      <trkpt lat="39.4703242835" lon="-7.9498593975">
        <ele>250.08</ele>
        <time>2018-12-20T07:59:03Z</time>
      </trkpt>
      <trkpt lat="39.4703222718" lon="-7.9499042407">
        <ele>249.60</ele>
        <time>2018-12-20T07:59:10Z</time>
      </trkpt>
      <trkpt lat="39.4703195058" lon="-7.9500225931">
        <ele>249.12</ele>
        <time>2018-12-20T07:59:20Z</time>
      </trkpt>
      <trkpt lat="39.4703205954" lon="-7.9500522651">
        <ele>249.60</ele>
        <time>2018-12-20T07:59:22Z</time>
      </trkpt>
      <trkpt lat="39.4703096151" lon="-7.9501275346">
        <ele>249.60</ele>
        <time>2018-12-20T07:59:30Z</time>
      </trkpt>
      <trkpt lat="39.4703151472" lon="-7.9501367547">
        <ele>250.56</ele>
        <time>2018-12-20T07:59:31Z</time>
      </trkpt>
      <trkpt lat="39.4703985471" lon="-7.9502762295">
        <ele>250.08</ele>
        <time>2018-12-20T07:59:43Z</time>
      </trkpt>
      <trkpt lat="39.4704440609" lon="-7.9504247569">
        <ele>251.04</ele>
        <time>2018-12-20T07:59:53Z</time>
      </trkpt>
      <trkpt lat="39.4704639260" lon="-7.9505064804">
        <ele>250.08</ele>
        <time>2018-12-20T07:59:59Z</time>
      </trkpt>
      <trkpt lat="39.4705297239" lon="-7.9506584443">
        <ele>247.68</ele>
        <time>2018-12-20T08:00:10Z</time>
      </trkpt>
      <trkpt lat="39.4705921691" lon="-7.9507866036">
        <ele>247.20</ele>
        <time>2018-12-20T08:00:19Z</time>
      </trkpt>
      <trkpt lat="39.4706149679" lon="-7.9508855101">
        <ele>247.68</ele>
        <time>2018-12-20T08:00:26Z</time>
      </trkpt>
      <trkpt lat="39.4706350844" lon="-7.9509972408">
        <ele>247.68</ele>
        <time>2018-12-20T08:00:34Z</time>
      </trkpt>
      <trkpt lat="39.4706409518" lon="-7.9510272481">
        <ele>247.68</ele>
        <time>2018-12-20T08:00:36Z</time>
      </trkpt>
      <trkpt lat="39.4706961885" lon="-7.9511035234">
        <ele>247.20</ele>
        <time>2018-12-20T08:00:42Z</time>
      </trkpt>
      <trkpt lat="39.4707386848" lon="-7.9511650465">
        <ele>247.20</ele>
        <time>2018-12-20T08:00:47Z</time>
      </trkpt>
      <trkpt lat="39.4707556162" lon="-7.9512064531">
        <ele>247.20</ele>
        <time>2018-12-20T08:00:50Z</time>
      </trkpt>
      <trkpt lat="39.4708530977" lon="-7.9513178486">
        <ele>247.68</ele>
        <time>2018-12-20T08:01:00Z</time>
      </trkpt>
      <trkpt lat="39.4709126931" lon="-7.9514303338">
        <ele>248.16</ele>
        <time>2018-12-20T08:01:09Z</time>
      </trkpt>
      <trkpt lat="39.4709269423" lon="-7.9514512885">
        <ele>248.16</ele>
        <time>2018-12-20T08:01:11Z</time>
      </trkpt>
      <trkpt lat="39.4709758088" lon="-7.9515576549">
        <ele>248.64</ele>
        <time>2018-12-20T08:01:19Z</time>
      </trkpt>
      <trkpt lat="39.4710115995" lon="-7.9516149033">
        <ele>249.12</ele>
        <time>2018-12-20T08:01:24Z</time>
      </trkpt>
      <trkpt lat="39.4711113442" lon="-7.9517703038">
        <ele>249.60</ele>
        <time>2018-12-20T08:01:36Z</time>
      </trkpt>
      <trkpt lat="39.4711183850" lon="-7.9517822899">
        <ele>249.12</ele>
        <time>2018-12-20T08:01:37Z</time>
      </trkpt>
      <trkpt lat="39.4711938221" lon="-7.9519320745">
        <ele>249.60</ele>
        <time>2018-12-20T08:01:48Z</time>
      </trkpt>
      <trkpt lat="39.4712319598" lon="-7.9520256165">
        <ele>249.60</ele>
        <time>2018-12-20T08:01:55Z</time>
      </trkpt>
      <trkpt lat="39.4712467957" lon="-7.9520833679">
        <ele>250.56</ele>
        <time>2018-12-20T08:01:59Z</time>
      </trkpt>
      <trkpt lat="39.4712978415" lon="-7.9522391874">
        <ele>250.08</ele>
        <time>2018-12-20T08:02:09Z</time>
      </trkpt>
      <trkpt lat="39.4713449478" lon="-7.9523727950">
        <ele>250.56</ele>
        <time>2018-12-20T08:02:18Z</time>
      </trkpt>
      <trkpt lat="39.4713879470" lon="-7.9525206517">
        <ele>250.08</ele>
        <time>2018-12-20T08:02:28Z</time>
      </trkpt>
      <trkpt lat="39.4713907130" lon="-7.9525459651">
        <ele>249.12</ele>
        <time>2018-12-20T08:02:30Z</time>
      </trkpt>
      <trkpt lat="39.4714012742" lon="-7.9526629765">
        <ele>250.08</ele>
        <time>2018-12-20T08:02:38Z</time>
      </trkpt>
      <trkpt lat="39.4713938981" lon="-7.9527934827">
        <ele>250.08</ele>
        <time>2018-12-20T08:02:47Z</time>
      </trkpt>
      <trkpt lat="39.4713778049" lon="-7.9528915510">
        <ele>251.04</ele>
        <time>2018-12-20T08:02:54Z</time>
      </trkpt>
      <trkpt lat="39.4713599514" lon="-7.9529850930">
        <ele>252.00</ele>
        <time>2018-12-20T08:03:02Z</time>
      </trkpt>
      <trkpt lat="39.4713448640" lon="-7.9530925490">
        <ele>252.00</ele>
        <time>2018-12-20T08:03:10Z</time>
      </trkpt>
      <trkpt lat="39.4713343028" lon="-7.9531751107">
        <ele>252.96</ele>
        <time>2018-12-20T08:03:17Z</time>
      </trkpt>
      <trkpt lat="39.4713044632" lon="-7.9532849137">
        <ele>253.93</ele>
        <time>2018-12-20T08:03:26Z</time>
      </trkpt>
      <trkpt lat="39.4712814130" lon="-7.9533951357">
        <ele>254.41</ele>
        <time>2018-12-20T08:03:34Z</time>
      </trkpt>
      <trkpt lat="39.4712794852" lon="-7.9534100555">
        <ele>254.89</ele>
        <time>2018-12-20T08:03:35Z</time>
      </trkpt>
      <trkpt lat="39.4712658226" lon="-7.9534766916">
        <ele>255.37</ele>
        <time>2018-12-20T08:03:39Z</time>
      </trkpt>
      <trkpt lat="39.4712291937" lon="-7.9536053538">
        <ele>255.85</ele>
        <time>2018-12-20T08:03:48Z</time>
      </trkpt>
      <trkpt lat="39.4711894635" lon="-7.9537248798">
        <ele>255.85</ele>
        <time>2018-12-20T08:03:57Z</time>
      </trkpt>
      <trkpt lat="39.4711681735" lon="-7.9538579844">
        <ele>255.37</ele>
        <time>2018-12-20T08:04:06Z</time>
      </trkpt>
      <trkpt lat="39.4711521640" lon="-7.9539441504">
        <ele>255.85</ele>
        <time>2018-12-20T08:04:13Z</time>
      </trkpt>
      <trkpt lat="39.4711436145" lon="-7.9540635087">
        <ele>256.33</ele>
        <time>2018-12-20T08:04:22Z</time>
      </trkpt>
      <trkpt lat="39.4710987713" lon="-7.9541507643">
        <ele>256.81</ele>
        <time>2018-12-20T08:04:31Z</time>
      </trkpt>
      <trkpt lat="39.4710474741" lon="-7.9542250279">
        <ele>257.29</ele>
        <time>2018-12-20T08:04:39Z</time>
      </trkpt>
      <trkpt lat="39.4709755573" lon="-7.9543033987">
        <ele>258.25</ele>
        <time>2018-12-20T08:04:49Z</time>
      </trkpt>
      <trkpt lat="39.4709098432" lon="-7.9543811828">
        <ele>258.73</ele>
        <time>2018-12-20T08:04:57Z</time>
      </trkpt>
      <trkpt lat="39.4708295446" lon="-7.9544401914">
        <ele>258.25</ele>
        <time>2018-12-20T08:05:05Z</time>
      </trkpt>
      <trkpt lat="39.4707703684" lon="-7.9544867110">
        <ele>257.29</ele>
        <time>2018-12-20T08:05:12Z</time>
      </trkpt>
      <trkpt lat="39.4706855435" lon="-7.9545613099">
        <ele>257.77</ele>
        <time>2018-12-20T08:05:20Z</time>
      </trkpt>
      <trkpt lat="39.4706112798" lon="-7.9546223301">
        <ele>256.81</ele>
        <time>2018-12-20T08:05:27Z</time>
      </trkpt>
      <trkpt lat="39.4704996329" lon="-7.9547140282">
        <ele>257.29</ele>
        <time>2018-12-20T08:05:35Z</time>
      </trkpt>
      <trkpt lat="39.4703932665" lon="-7.9547752999">
        <ele>257.77</ele>
        <time>2018-12-20T08:05:41Z</time>
      </trkpt>
      <trkpt lat="39.4702723157" lon="-7.9548405949">
        <ele>258.25</ele>
        <time>2018-12-20T08:05:49Z</time>
      </trkpt>
      <trkpt lat="39.4701734092" lon="-7.9548877850">
        <ele>258.25</ele>
        <time>2018-12-20T08:05:57Z</time>
      </trkpt>
      <trkpt lat="39.4700798672" lon="-7.9549341369">
        <ele>259.21</ele>
        <time>2018-12-20T08:06:06Z</time>
      </trkpt>
      <trkpt lat="39.4700361136" lon="-7.9549503978">
        <ele>259.21</ele>
        <time>2018-12-20T08:06:13Z</time>
      </trkpt>
      <trkpt lat="39.4699530490" lon="-7.9550046287">
        <ele>260.65</ele>
        <time>2018-12-20T08:06:22Z</time>
      </trkpt>
      <trkpt lat="39.4698704872" lon="-7.9550418444">
        <ele>261.14</ele>
        <time>2018-12-20T08:06:30Z</time>
      </trkpt>
      <trkpt lat="39.4697686471" lon="-7.9551104922">
        <ele>262.58</ele>
        <time>2018-12-20T08:06:40Z</time>
      </trkpt>
      <trkpt lat="39.4696903601" lon="-7.9551676568">
        <ele>262.58</ele>
        <time>2018-12-20T08:06:49Z</time>
      </trkpt>
      <trkpt lat="39.4696115702" lon="-7.9552352149">
        <ele>263.54</ele>
        <time>2018-12-20T08:06:58Z</time>
      </trkpt>
      <trkpt lat="39.4695651345" lon="-7.9553080536">
        <ele>264.50</ele>
        <time>2018-12-20T08:07:06Z</time>
      </trkpt>
      <trkpt lat="39.4695267454" lon="-7.9553743545">
        <ele>264.98</ele>
        <time>2018-12-20T08:07:14Z</time>
      </trkpt>
      <trkpt lat="39.4694941398" lon="-7.9554465227">
        <ele>266.90</ele>
        <time>2018-12-20T08:07:23Z</time>
      </trkpt>
      <trkpt lat="39.4694939721" lon="-7.9554554913">
        <ele>267.38</ele>
        <time>2018-12-20T08:07:24Z</time>
      </trkpt>
      <trkpt lat="39.4694838300" lon="-7.9555424117">
        <ele>267.86</ele>
        <time>2018-12-20T08:07:33Z</time>
      </trkpt>
      <trkpt lat="39.4694861770" lon="-7.9556232970">
        <ele>267.38</ele>
        <time>2018-12-20T08:07:40Z</time>
      </trkpt>
      <trkpt lat="39.4695168547" lon="-7.9557189345">
        <ele>269.31</ele>
        <time>2018-12-20T08:07:48Z</time>
      </trkpt>
      <trkpt lat="39.4695594348" lon="-7.9557995684">
        <ele>269.79</ele>
        <time>2018-12-20T08:07:56Z</time>
      </trkpt>
      <trkpt lat="39.4696212932" lon="-7.9558708146">
        <ele>270.75</ele>
        <time>2018-12-20T08:08:05Z</time>
      </trkpt>
      <trkpt lat="39.4696937129" lon="-7.9559463356">
        <ele>271.23</ele>
        <time>2018-12-20T08:08:14Z</time>
      </trkpt>
      <trkpt lat="39.4697786216" lon="-7.9560248740">
        <ele>271.23</ele>
        <time>2018-12-20T08:08:23Z</time>
      </trkpt>
      <trkpt lat="39.4698381331" lon="-7.9561097827">
        <ele>271.23</ele>
        <time>2018-12-20T08:08:32Z</time>
      </trkpt>
      <trkpt lat="39.4699165877" lon="-7.9562027380">
        <ele>271.71</ele>
        <time>2018-12-20T08:08:41Z</time>
      </trkpt>
      <trkpt lat="39.4699943718" lon="-7.9562952742">
        <ele>272.19</ele>
        <time>2018-12-20T08:08:50Z</time>
      </trkpt>
      <trkpt lat="39.4700572360" lon="-7.9563831165">
        <ele>271.71</ele>
        <time>2018-12-20T08:08:58Z</time>
      </trkpt>
      <trkpt lat="39.4701267220" lon="-7.9564774130">
        <ele>272.19</ele>
        <time>2018-12-20T08:09:08Z</time>
      </trkpt>
      <trkpt lat="39.4701938611" lon="-7.9565515928">
        <ele>272.19</ele>
        <time>2018-12-20T08:09:16Z</time>
      </trkpt>
      <trkpt lat="39.4702724833" lon="-7.9566806741">
        <ele>271.71</ele>
        <time>2018-12-20T08:09:27Z</time>
      </trkpt>
      <trkpt lat="39.4703146443" lon="-7.9567644931">
        <ele>272.19</ele>
        <time>2018-12-20T08:09:34Z</time>
      </trkpt>
      <trkpt lat="39.4703644328" lon="-7.9568641540">
        <ele>273.15</ele>
        <time>2018-12-20T08:09:42Z</time>
      </trkpt>
      <trkpt lat="39.4704245310" lon="-7.9569805786">
        <ele>272.19</ele>
        <time>2018-12-20T08:09:52Z</time>
      </trkpt>
      <trkpt lat="39.4704490900" lon="-7.9570406768">
        <ele>272.19</ele>
        <time>2018-12-20T08:10:00Z</time>
      </trkpt>
      <trkpt lat="39.4704612438" lon="-7.9570659064">
        <ele>271.71</ele>
        <time>2018-12-20T08:10:07Z</time>
      </trkpt>
      <trkpt lat="39.4705021475" lon="-7.9570547584">
        <ele>272.19</ele>
        <time>2018-12-20T08:10:15Z</time>
      </trkpt>
      <trkpt lat="39.4704936817" lon="-7.9570900463">
        <ele>271.71</ele>
        <time>2018-12-20T08:10:25Z</time>
      </trkpt>
      <trkpt lat="39.4705003873" lon="-7.9570989311">
        <ele>271.23</ele>
        <time>2018-12-20T08:10:39Z</time>
      </trkpt>
      <trkpt lat="39.4705030695" lon="-7.9571133479">
        <ele>271.23</ele>
        <time>2018-12-20T08:10:50Z</time>
      </trkpt>
      <trkpt lat="39.4704950228" lon="-7.9571530782">
        <ele>271.71</ele>
        <time>2018-12-20T08:11:04Z</time>
      </trkpt>
      <trkpt lat="39.4704426359" lon="-7.9571819957">
        <ele>271.71</ele>
        <time>2018-12-20T08:11:17Z</time>
      </trkpt>
      <trkpt lat="39.4704273809" lon="-7.9571976699">
        <ele>271.71</ele>
        <time>2018-12-20T08:11:30Z</time>
      </trkpt>
      <trkpt lat="39.4704468269" lon="-7.9571649805">
        <ele>271.71</ele>
        <time>2018-12-20T08:11:45Z</time>
      </trkpt>
      <trkpt lat="39.4704228546" lon="-7.9571618792">
        <ele>271.23</ele>
        <time>2018-12-20T08:11:58Z</time>
      </trkpt>
      <trkpt lat="39.4704216812" lon="-7.9571553413">
        <ele>271.23</ele>
        <time>2018-12-20T08:12:08Z</time>
      </trkpt>
      <trkpt lat="39.4704161491" lon="-7.9571632203">
        <ele>271.71</ele>
        <time>2018-12-20T08:12:17Z</time>
      </trkpt>
      <trkpt lat="39.4704627525" lon="-7.9571218137">
        <ele>271.71</ele>
        <time>2018-12-20T08:12:28Z</time>
      </trkpt>
      <trkpt lat="39.4704500120" lon="-7.9570783954">
        <ele>270.75</ele>
        <time>2018-12-20T08:12:43Z</time>
      </trkpt>
      <trkpt lat="39.4704715535" lon="-7.9570503999">
        <ele>271.23</ele>
        <time>2018-12-20T08:12:56Z</time>
      </trkpt>
      <trkpt lat="39.4704790972" lon="-7.9570258409">
        <ele>271.23</ele>
        <time>2018-12-20T08:13:15Z</time>
      </trkpt>
      <trkpt lat="39.4704617467" lon="-7.9570451193">
        <ele>271.23</ele>
        <time>2018-12-20T08:13:23Z</time>
      </trkpt>
      <trkpt lat="39.4704602379" lon="-7.9570452031">
        <ele>272.67</ele>
        <time>2018-12-20T08:13:28Z</time>
      </trkpt>
      <trkpt lat="39.4704607408" lon="-7.9570522439">
        <ele>271.23</ele>
        <time>2018-12-20T08:13:30Z</time>
      </trkpt>
      <trkpt lat="39.4704589806" lon="-7.9570768028">
        <ele>272.67</ele>
        <time>2018-12-20T08:13:42Z</time>
      </trkpt>
      <trkpt lat="39.4704574719" lon="-7.9570819996">
        <ele>267.38</ele>
        <time>2018-12-20T08:13:54Z</time>
      </trkpt>
      <trkpt lat="39.4704566337" lon="-7.9570821673">
        <ele>274.59</ele>
        <time>2018-12-20T08:13:55Z</time>
      </trkpt>
      <trkpt lat="39.4704555441" lon="-7.9570814967">
        <ele>273.15</ele>
        <time>2018-12-20T08:13:56Z</time>
      </trkpt>
      <trkpt lat="39.4704552926" lon="-7.9570821673">
        <ele>269.79</ele>
        <time>2018-12-20T08:13:57Z</time>
      </trkpt>
      <trkpt lat="39.4704544544" lon="-7.9570838436">
        <ele>273.15</ele>
        <time>2018-12-20T08:13:58Z</time>
      </trkpt>
      <trkpt lat="39.4704537001" lon="-7.9570839275">
        <ele>269.79</ele>
        <time>2018-12-20T08:13:59Z</time>
      </trkpt>
      <trkpt lat="39.4704547897" lon="-7.9570835084">
        <ele>273.63</ele>
        <time>2018-12-20T08:14:01Z</time>
      </trkpt>
      <trkpt lat="39.4704555441" lon="-7.9570818320">
        <ele>268.35</ele>
        <time>2018-12-20T08:14:03Z</time>
      </trkpt>
      <trkpt lat="39.4704557117" lon="-7.9570818320">
        <ele>275.07</ele>
        <time>2018-12-20T08:14:04Z</time>
      </trkpt>
      <trkpt lat="39.4704571366" lon="-7.9570813291">
        <ele>270.27</ele>
        <time>2018-12-20T08:14:06Z</time>
      </trkpt>
      <trkpt lat="39.4704557117" lon="-7.9570940696">
        <ele>271.71</ele>
        <time>2018-12-20T08:14:10Z</time>
      </trkpt>
      <trkpt lat="39.4704480842" lon="-7.9571012780">
        <ele>267.38</ele>
        <time>2018-12-20T08:14:12Z</time>
      </trkpt>
      <trkpt lat="39.4704350084" lon="-7.9571081512">
        <ele>270.27</ele>
        <time>2018-12-20T08:14:13Z</time>
      </trkpt>
      <trkpt lat="39.4704283867" lon="-7.9571156111">
        <ele>277.00</ele>
        <time>2018-12-20T08:14:14Z</time>
      </trkpt>
      <trkpt lat="39.4704240281" lon="-7.9571198858">
        <ele>272.19</ele>
        <time>2018-12-20T08:14:15Z</time>
      </trkpt>
      <trkpt lat="39.4704259560" lon="-7.9571105819">
        <ele>271.71</ele>
        <time>2018-12-20T08:14:22Z</time>
      </trkpt>
      <trkpt lat="39.4704405405" lon="-7.9571315367">
        <ele>265.94</ele>
        <time>2018-12-20T08:14:26Z</time>
      </trkpt>
      <trkpt lat="39.4704425521" lon="-7.9571334645">
        <ele>275.56</ele>
        <time>2018-12-20T08:14:27Z</time>
      </trkpt>
      <trkpt lat="39.4704448152" lon="-7.9571344703">
        <ele>271.23</ele>
        <time>2018-12-20T08:14:28Z</time>
      </trkpt>
      <trkpt lat="39.4704449829" lon="-7.9571502283">
        <ele>267.38</ele>
        <time>2018-12-20T08:14:35Z</time>
      </trkpt>
      <trkpt lat="39.4704423007" lon="-7.9571571015">
        <ele>274.11</ele>
        <time>2018-12-20T08:14:36Z</time>
      </trkpt>
      <trkpt lat="39.4704386126" lon="-7.9571659863">
        <ele>271.23</ele>
        <time>2018-12-20T08:14:37Z</time>
      </trkpt>
      <trkpt lat="39.4704326615" lon="-7.9572400823">
        <ele>271.71</ele>
        <time>2018-12-20T08:14:45Z</time>
      </trkpt>
      <trkpt lat="39.4704133831" lon="-7.9573363904">
        <ele>270.75</ele>
        <time>2018-12-20T08:14:54Z</time>
      </trkpt>
      <trkpt lat="39.4704045821" lon="-7.9573900346">
        <ele>271.23</ele>
        <time>2018-12-20T08:15:00Z</time>
      </trkpt>
      <trkpt lat="39.4703718089" lon="-7.9574924614">
        <ele>272.19</ele>
        <time>2018-12-20T08:15:08Z</time>
      </trkpt>
      <trkpt lat="39.4703230262" lon="-7.9576186929">
        <ele>271.23</ele>
        <time>2018-12-20T08:15:16Z</time>
      </trkpt>
      <trkpt lat="39.4703089446" lon="-7.9576937947">
        <ele>271.23</ele>
        <time>2018-12-20T08:15:21Z</time>
      </trkpt>
      <trkpt lat="39.4702377822" lon="-7.9578048550">
        <ele>270.75</ele>
        <time>2018-12-20T08:15:29Z</time>
      </trkpt>
      <trkpt lat="39.4701472577" lon="-7.9578657914">
        <ele>269.79</ele>
        <time>2018-12-20T08:15:37Z</time>
      </trkpt>
      <trkpt lat="39.4701119699" lon="-7.9578786157">
        <ele>268.83</ele>
        <time>2018-12-20T08:15:41Z</time>
      </trkpt>
      <trkpt lat="39.4700391311" lon="-7.9579018336">
        <ele>269.31</ele>
        <time>2018-12-20T08:15:45Z</time>
      </trkpt>
      <trkpt lat="39.4699265622" lon="-7.9579001572">
        <ele>269.31</ele>
        <time>2018-12-20T08:15:54Z</time>
      </trkpt>
      <trkpt lat="39.4698261470" lon="-7.9578733351">
        <ele>268.35</ele>
        <time>2018-12-20T08:16:02Z</time>
      </trkpt>
      <trkpt lat="39.4697847404" lon="-7.9578531347">
        <ele>267.38</ele>
        <time>2018-12-20T08:16:05Z</time>
      </trkpt>
      <trkpt lat="39.4697017595" lon="-7.9578502849">
        <ele>267.38</ele>
        <time>2018-12-20T08:16:13Z</time>
      </trkpt>
      <trkpt lat="39.4696203712" lon="-7.9578790348">
        <ele>267.86</ele>
        <time>2018-12-20T08:16:22Z</time>
      </trkpt>
      <trkpt lat="39.4695356302" lon="-7.9579600878">
        <ele>266.90</ele>
        <time>2018-12-20T08:16:31Z</time>
      </trkpt>
      <trkpt lat="39.4694794714" lon="-7.9580279812">
        <ele>266.42</ele>
        <time>2018-12-20T08:16:39Z</time>
      </trkpt>
      <trkpt lat="39.4694729336" lon="-7.9580446612">
        <ele>266.42</ele>
        <time>2018-12-20T08:16:41Z</time>
      </trkpt>
      <trkpt lat="39.4694204628" lon="-7.9581580684">
        <ele>266.42</ele>
        <time>2018-12-20T08:16:50Z</time>
      </trkpt>
      <trkpt lat="39.4693251606" lon="-7.9582920112">
        <ele>265.94</ele>
        <time>2018-12-20T08:16:59Z</time>
      </trkpt>
      <trkpt lat="39.4692520704" lon="-7.9583988804">
        <ele>264.98</ele>
        <time>2018-12-20T08:17:07Z</time>
      </trkpt>
      <trkpt lat="39.4691999350" lon="-7.9584947694">
        <ele>264.98</ele>
        <time>2018-12-20T08:17:14Z</time>
      </trkpt>
      <trkpt lat="39.4691421837" lon="-7.9586053267">
        <ele>264.98</ele>
        <time>2018-12-20T08:17:23Z</time>
      </trkpt>
      <trkpt lat="39.4690759666" lon="-7.9587383475">
        <ele>263.54</ele>
        <time>2018-12-20T08:17:32Z</time>
      </trkpt>
      <trkpt lat="39.4690125156" lon="-7.9588264413">
        <ele>263.54</ele>
        <time>2018-12-20T08:17:39Z</time>
      </trkpt>
      <trkpt lat="39.4689590391" lon="-7.9589160439">
        <ele>264.02</ele>
        <time>2018-12-20T08:17:46Z</time>
      </trkpt>
      <trkpt lat="39.4689238351" lon="-7.9590131063">
        <ele>262.10</ele>
        <time>2018-12-20T08:17:53Z</time>
      </trkpt>
      <trkpt lat="39.4688698556" lon="-7.9591229931">
        <ele>262.58</ele>
        <time>2018-12-20T08:18:01Z</time>
      </trkpt>
      <trkpt lat="39.4688064884" lon="-7.9592188820">
        <ele>263.06</ele>
        <time>2018-12-20T08:18:09Z</time>
      </trkpt>
      <trkpt lat="39.4687400199" lon="-7.9593271762">
        <ele>262.10</ele>
        <time>2018-12-20T08:18:18Z</time>
      </trkpt>
      <trkpt lat="39.4686954282" lon="-7.9594678245">
        <ele>262.10</ele>
        <time>2018-12-20T08:18:28Z</time>
      </trkpt>
      <trkpt lat="39.4686262775" lon="-7.9595811479">
        <ele>261.62</ele>
        <time>2018-12-20T08:18:37Z</time>
      </trkpt>
      <trkpt lat="39.4685612340" lon="-7.9597059544">
        <ele>260.65</ele>
        <time>2018-12-20T08:18:47Z</time>
      </trkpt>
      <trkpt lat="39.4685102720" lon="-7.9597995803">
        <ele>260.65</ele>
        <time>2018-12-20T08:18:55Z</time>
      </trkpt>
      <trkpt lat="39.4684455637" lon="-7.9599411506">
        <ele>260.17</ele>
        <time>2018-12-20T08:19:04Z</time>
      </trkpt>
      <trkpt lat="39.4684072584" lon="-7.9600719083">
        <ele>260.17</ele>
        <time>2018-12-20T08:19:13Z</time>
      </trkpt>
      <trkpt lat="39.4683718868" lon="-7.9601891711">
        <ele>259.21</ele>
        <time>2018-12-20T08:19:22Z</time>
      </trkpt>
      <trkpt lat="39.4683511835" lon="-7.9602864012">
        <ele>260.17</ele>
        <time>2018-12-20T08:19:28Z</time>
      </trkpt>
      <trkpt lat="39.4683958590" lon="-7.9604226071">
        <ele>256.81</ele>
        <time>2018-12-20T08:19:38Z</time>
      </trkpt>
      <trkpt lat="39.4684049115" lon="-7.9604251217">
        <ele>262.58</ele>
        <time>2018-12-20T08:19:39Z</time>
      </trkpt>
      <trkpt lat="39.4684127904" lon="-7.9604277201">
        <ele>258.25</ele>
        <time>2018-12-20T08:19:40Z</time>
      </trkpt>
      <trkpt lat="39.4684376847" lon="-7.9604376946">
        <ele>261.14</ele>
        <time>2018-12-20T08:19:43Z</time>
      </trkpt>
      <trkpt lat="39.4684472401" lon="-7.9604392033">
        <ele>258.73</ele>
        <time>2018-12-20T08:19:44Z</time>
      </trkpt>
      <trkpt lat="39.4685179833" lon="-7.9604263790">
        <ele>256.33</ele>
        <time>2018-12-20T08:19:52Z</time>
      </trkpt>
      <trkpt lat="39.4685266167" lon="-7.9604306538">
        <ele>259.21</ele>
        <time>2018-12-20T08:19:53Z</time>
      </trkpt>
      <trkpt lat="39.4685560372" lon="-7.9604532849">
        <ele>257.77</ele>
        <time>2018-12-20T08:19:56Z</time>
      </trkpt>
      <trkpt lat="39.4685671851" lon="-7.9604910873">
        <ele>255.85</ele>
        <time>2018-12-20T08:19:59Z</time>
      </trkpt>
      <trkpt lat="39.4685623236" lon="-7.9605183285">
        <ele>260.65</ele>
        <time>2018-12-20T08:20:01Z</time>
      </trkpt>
      <trkpt lat="39.4685594738" lon="-7.9605334997">
        <ele>257.77</ele>
        <time>2018-12-20T08:20:02Z</time>
      </trkpt>
      <trkpt lat="39.4685234316" lon="-7.9606369324">
        <ele>257.29</ele>
        <time>2018-12-20T08:20:10Z</time>
      </trkpt>
      <trkpt lat="39.4684993755" lon="-7.9607398622">
        <ele>257.77</ele>
        <time>2018-12-20T08:20:19Z</time>
      </trkpt>
      <trkpt lat="39.4684743136" lon="-7.9608547781">
        <ele>258.25</ele>
        <time>2018-12-20T08:20:27Z</time>
      </trkpt>
      <trkpt lat="39.4684544485" lon="-7.9609944206">
        <ele>257.77</ele>
        <time>2018-12-20T08:20:36Z</time>
      </trkpt>
      <trkpt lat="39.4684293028" lon="-7.9611237533">
        <ele>257.29</ele>
        <time>2018-12-20T08:20:44Z</time>
      </trkpt>
      <trkpt lat="39.4684051629" lon="-7.9612395074">
        <ele>257.29</ele>
        <time>2018-12-20T08:20:53Z</time>
      </trkpt>
      <trkpt lat="39.4683622476" lon="-7.9613443650">
        <ele>257.77</ele>
        <time>2018-12-20T08:21:01Z</time>
      </trkpt>
      <trkpt lat="39.4683365989" lon="-7.9614800680">
        <ele>257.29</ele>
        <time>2018-12-20T08:21:09Z</time>
      </trkpt>
      <trkpt lat="39.4683184940" lon="-7.9615695029">
        <ele>257.77</ele>
        <time>2018-12-20T08:21:15Z</time>
      </trkpt>
      <trkpt lat="39.4682710525" lon="-7.9616955668">
        <ele>257.29</ele>
        <time>2018-12-20T08:21:23Z</time>
      </trkpt>
      <trkpt lat="39.4682425540" lon="-7.9617782962">
        <ele>257.29</ele>
        <time>2018-12-20T08:21:28Z</time>
      </trkpt>
      <trkpt lat="39.4682240300" lon="-7.9619182739">
        <ele>257.29</ele>
        <time>2018-12-20T08:21:37Z</time>
      </trkpt>
      <trkpt lat="39.4681874011" lon="-7.9620356206">
        <ele>257.29</ele>
        <time>2018-12-20T08:21:45Z</time>
      </trkpt>
      <trkpt lat="39.4681394566" lon="-7.9622061923">
        <ele>256.81</ele>
        <time>2018-12-20T08:21:56Z</time>
      </trkpt>
      <trkpt lat="39.4681035820" lon="-7.9623200186">
        <ele>256.81</ele>
        <time>2018-12-20T08:22:04Z</time>
      </trkpt>
      <trkpt lat="39.4680472557" lon="-7.9624730721">
        <ele>256.81</ele>
        <time>2018-12-20T08:22:14Z</time>
      </trkpt>
      <trkpt lat="39.4680318329" lon="-7.9625815339">
        <ele>256.33</ele>
        <time>2018-12-20T08:22:21Z</time>
      </trkpt>
      <trkpt lat="39.4680071902" lon="-7.9627350904">
        <ele>255.85</ele>
        <time>2018-12-20T08:22:30Z</time>
      </trkpt>
      <trkpt lat="39.4679884985" lon="-7.9628754035">
        <ele>255.85</ele>
        <time>2018-12-20T08:22:39Z</time>
      </trkpt>
      <trkpt lat="39.4679432362" lon="-7.9630353302">
        <ele>255.85</ele>
        <time>2018-12-20T08:22:50Z</time>
      </trkpt>
      <trkpt lat="39.4679240417" lon="-7.9631998669">
        <ele>255.85</ele>
        <time>2018-12-20T08:23:01Z</time>
      </trkpt>
      <trkpt lat="39.4679022487" lon="-7.9633053951">
        <ele>255.37</ele>
        <time>2018-12-20T08:23:09Z</time>
      </trkpt>
      <trkpt lat="39.4678603392" lon="-7.9634185508">
        <ele>255.85</ele>
        <time>2018-12-20T08:23:17Z</time>
      </trkpt>
      <trkpt lat="39.4678526279" lon="-7.9634607956">
        <ele>254.89</ele>
        <time>2018-12-20T08:23:20Z</time>
      </trkpt>
      <trkpt lat="39.4678279851" lon="-7.9635826685">
        <ele>255.37</ele>
        <time>2018-12-20T08:23:28Z</time>
      </trkpt>
      <trkpt lat="39.4677838124" lon="-7.9636837542">
        <ele>254.89</ele>
        <time>2018-12-20T08:23:35Z</time>
      </trkpt>
      <trkpt lat="39.4677561522" lon="-7.9638132546">
        <ele>254.89</ele>
        <time>2018-12-20T08:23:44Z</time>
      </trkpt>
      <trkpt lat="39.4677152485" lon="-7.9639452696">
        <ele>255.37</ele>
        <time>2018-12-20T08:23:53Z</time>
      </trkpt>
      <trkpt lat="39.4677086268" lon="-7.9640523903">
        <ele>255.37</ele>
        <time>2018-12-20T08:24:02Z</time>
      </trkpt>
      <trkpt lat="39.4677144103" lon="-7.9641916975">
        <ele>255.37</ele>
        <time>2018-12-20T08:24:10Z</time>
      </trkpt>
      <trkpt lat="39.4677229598" lon="-7.9642528016">
        <ele>256.33</ele>
        <time>2018-12-20T08:24:14Z</time>
      </trkpt>
      <trkpt lat="39.4677570742" lon="-7.9644690547">
        <ele>255.85</ele>
        <time>2018-12-20T08:24:27Z</time>
      </trkpt>
      <trkpt lat="39.4677947089" lon="-7.9645622615">
        <ele>256.33</ele>
        <time>2018-12-20T08:24:34Z</time>
      </trkpt>
      <trkpt lat="39.4678423181" lon="-7.9646744952">
        <ele>255.85</ele>
        <time>2018-12-20T08:24:42Z</time>
      </trkpt>
      <trkpt lat="39.4678942021" lon="-7.9648278002">
        <ele>255.37</ele>
        <time>2018-12-20T08:24:52Z</time>
      </trkpt>
      <trkpt lat="39.4679098763" lon="-7.9648816958">
        <ele>255.37</ele>
        <time>2018-12-20T08:24:56Z</time>
      </trkpt>
      <trkpt lat="39.4679269753" lon="-7.9649800155">
        <ele>254.89</ele>
        <time>2018-12-20T08:25:03Z</time>
      </trkpt>
      <trkpt lat="39.4679315016" lon="-7.9650068376">
        <ele>254.89</ele>
        <time>2018-12-20T08:25:05Z</time>
      </trkpt>
      <trkpt lat="39.4679477625" lon="-7.9650697857">
        <ele>254.89</ele>
        <time>2018-12-20T08:25:10Z</time>
      </trkpt>
      <trkpt lat="39.4679707289" lon="-7.9651758168">
        <ele>254.41</ele>
        <time>2018-12-20T08:25:19Z</time>
      </trkpt>
      <trkpt lat="39.4679661188" lon="-7.9652108531">
        <ele>254.41</ele>
        <time>2018-12-20T08:25:22Z</time>
      </trkpt>
      <trkpt lat="39.4679723214" lon="-7.9653093405">
        <ele>253.44</ele>
        <time>2018-12-20T08:25:30Z</time>
      </trkpt>
      <trkpt lat="39.4679874089" lon="-7.9654333927">
        <ele>252.96</ele>
        <time>2018-12-20T08:25:39Z</time>
      </trkpt>
      <trkpt lat="39.4680006523" lon="-7.9655439500">
        <ele>252.00</ele>
        <time>2018-12-20T08:25:46Z</time>
      </trkpt>
      <trkpt lat="39.4680297375" lon="-7.9656495620">
        <ele>250.56</ele>
        <time>2018-12-20T08:25:54Z</time>
      </trkpt>
      <trkpt lat="39.4680325873" lon="-7.9657705966">
        <ele>250.08</ele>
        <time>2018-12-20T08:26:03Z</time>
      </trkpt>
      <trkpt lat="39.4680356886" lon="-7.9658240732">
        <ele>250.56</ele>
        <time>2018-12-20T08:26:06Z</time>
      </trkpt>
      <trkpt lat="39.4680540450" lon="-7.9659480415">
        <ele>249.60</ele>
        <time>2018-12-20T08:26:14Z</time>
      </trkpt>
      <trkpt lat="39.4680709764" lon="-7.9660727642">
        <ele>249.60</ele>
        <time>2018-12-20T08:26:23Z</time>
      </trkpt>
      <trkpt lat="39.4680850580" lon="-7.9662047792">
        <ele>248.64</ele>
        <time>2018-12-20T08:26:32Z</time>
      </trkpt>
      <trkpt lat="39.4680888299" lon="-7.9663100559">
        <ele>248.64</ele>
        <time>2018-12-20T08:26:40Z</time>
      </trkpt>
      <trkpt lat="39.4681226928" lon="-7.9663966410">
        <ele>247.68</ele>
        <time>2018-12-20T08:26:48Z</time>
      </trkpt>
      <trkpt lat="39.4681158196" lon="-7.9664991517">
        <ele>247.20</ele>
        <time>2018-12-20T08:26:55Z</time>
      </trkpt>
      <trkpt lat="39.4681143947" lon="-7.9665931128">
        <ele>246.23</ele>
        <time>2018-12-20T08:27:02Z</time>
      </trkpt>
      <trkpt lat="39.4681268837" lon="-7.9667336773">
        <ele>245.75</ele>
        <time>2018-12-20T08:27:11Z</time>
      </trkpt>
      <trkpt lat="39.4681273028" lon="-7.9668774270">
        <ele>246.23</ele>
        <time>2018-12-20T08:27:20Z</time>
      </trkpt>
      <trkpt lat="39.4681342598" lon="-7.9669967853">
        <ele>245.75</ele>
        <time>2018-12-20T08:27:28Z</time>
      </trkpt>
      <trkpt lat="39.4681416359" lon="-7.9671293031">
        <ele>246.23</ele>
        <time>2018-12-20T08:27:36Z</time>
      </trkpt>
      <trkpt lat="39.4681179989" lon="-7.9672465660">
        <ele>244.79</ele>
        <time>2018-12-20T08:27:45Z</time>
      </trkpt>
      <trkpt lat="39.4681210164" lon="-7.9673539381">
        <ele>243.35</ele>
        <time>2018-12-20T08:27:54Z</time>
      </trkpt>
      <trkpt lat="39.4681132212" lon="-7.9674088396">
        <ele>243.35</ele>
        <time>2018-12-20T08:27:58Z</time>
      </trkpt>
      <trkpt lat="39.4680857286" lon="-7.9675610550">
        <ele>241.91</ele>
        <time>2018-12-20T08:28:08Z</time>
      </trkpt>
      <trkpt lat="39.4680581521" lon="-7.9677113425">
        <ele>241.43</ele>
        <time>2018-12-20T08:28:17Z</time>
      </trkpt>
      <trkpt lat="39.4680335931" lon="-7.9678877816">
        <ele>241.43</ele>
        <time>2018-12-20T08:28:27Z</time>
      </trkpt>
      <trkpt lat="39.4680133928" lon="-7.9679861851">
        <ele>239.99</ele>
        <time>2018-12-20T08:28:35Z</time>
      </trkpt>
      <trkpt lat="39.4679943658" lon="-7.9680666514">
        <ele>240.47</ele>
        <time>2018-12-20T08:28:43Z</time>
      </trkpt>
      <trkpt lat="39.4679851457" lon="-7.9681197926">
        <ele>239.99</ele>
        <time>2018-12-20T08:28:50Z</time>
      </trkpt>
      <trkpt lat="39.4680046756" lon="-7.9681388196">
        <ele>239.99</ele>
        <time>2018-12-20T08:29:01Z</time>
      </trkpt>
      <trkpt lat="39.4679874927" lon="-7.9682233091">
        <ele>239.99</ele>
        <time>2018-12-20T08:29:08Z</time>
      </trkpt>
      <trkpt lat="39.4679648615" lon="-7.9683191981">
        <ele>239.02</ele>
        <time>2018-12-20T08:29:16Z</time>
      </trkpt>
      <trkpt lat="39.4679549709" lon="-7.9683718365">
        <ele>238.54</ele>
        <time>2018-12-20T08:29:20Z</time>
      </trkpt>
      <trkpt lat="39.4679373689" lon="-7.9685310926">
        <ele>238.54</ele>
        <time>2018-12-20T08:29:30Z</time>
      </trkpt>
      <trkpt lat="39.4678902626" lon="-7.9686727468">
        <ele>238.54</ele>
        <time>2018-12-20T08:29:40Z</time>
      </trkpt>
      <trkpt lat="39.4678422343" lon="-7.9687838908">
        <ele>238.06</ele>
        <time>2018-12-20T08:29:48Z</time>
      </trkpt>
      <trkpt lat="39.4677771069" lon="-7.9688930232">
        <ele>237.58</ele>
        <time>2018-12-20T08:29:57Z</time>
      </trkpt>
      <trkpt lat="39.4677423220" lon="-7.9690273013">
        <ele>236.62</ele>
        <time>2018-12-20T08:30:07Z</time>
      </trkpt>
      <trkpt lat="39.4677222054" lon="-7.9691278841">
        <ele>236.62</ele>
        <time>2018-12-20T08:30:14Z</time>
      </trkpt>
      <trkpt lat="39.4677206967" lon="-7.9692379385">
        <ele>235.18</ele>
        <time>2018-12-20T08:30:23Z</time>
      </trkpt>
      <trkpt lat="39.4677215349" lon="-7.9693349171">
        <ele>233.74</ele>
        <time>2018-12-20T08:30:31Z</time>
      </trkpt>
      <trkpt lat="39.4677434955" lon="-7.9694346618">
        <ele>232.30</ele>
        <time>2018-12-20T08:30:40Z</time>
      </trkpt>
      <trkpt lat="39.4677704014" lon="-7.9695338197">
        <ele>230.37</ele>
        <time>2018-12-20T08:30:48Z</time>
      </trkpt>
      <trkpt lat="39.4678255543" lon="-7.9696304630">
        <ele>229.41</ele>
        <time>2018-12-20T08:30:56Z</time>
      </trkpt>
      <trkpt lat="39.4678703137" lon="-7.9697372485">
        <ele>227.97</ele>
        <time>2018-12-20T08:31:05Z</time>
      </trkpt>
      <trkpt lat="39.4679144025" lon="-7.9698003642">
        <ele>226.05</ele>
        <time>2018-12-20T08:31:13Z</time>
      </trkpt>
      <trkpt lat="39.4679338485" lon="-7.9698929004">
        <ele>224.61</ele>
        <time>2018-12-20T08:31:22Z</time>
      </trkpt>
      <trkpt lat="39.4679379556" lon="-7.9699743725">
        <ele>223.64</ele>
        <time>2018-12-20T08:31:29Z</time>
      </trkpt>
      <trkpt lat="39.4679560605" lon="-7.9700924736">
        <ele>222.20</ele>
        <time>2018-12-20T08:31:38Z</time>
      </trkpt>
      <trkpt lat="39.4679515343" lon="-7.9701829143">
        <ele>221.24</ele>
        <time>2018-12-20T08:31:45Z</time>
      </trkpt>
      <trkpt lat="39.4679456670" lon="-7.9702539090">
        <ele>219.80</ele>
        <time>2018-12-20T08:31:51Z</time>
      </trkpt>
      <trkpt lat="39.4679290708" lon="-7.9703544080">
        <ele>219.32</ele>
        <time>2018-12-20T08:31:59Z</time>
      </trkpt>
      <trkpt lat="39.4678967167" lon="-7.9704721738">
        <ele>218.84</ele>
        <time>2018-12-20T08:32:08Z</time>
      </trkpt>
      <trkpt lat="39.4678523764" lon="-7.9706127383">
        <ele>216.91</ele>
        <time>2018-12-20T08:32:18Z</time>
      </trkpt>
      <trkpt lat="39.4678407256" lon="-7.9707338568">
        <ele>215.95</ele>
        <time>2018-12-20T08:32:27Z</time>
      </trkpt>
      <trkpt lat="39.4678231236" lon="-7.9708434921">
        <ele>214.99</ele>
        <time>2018-12-20T08:32:36Z</time>
      </trkpt>
      <trkpt lat="39.4678227883" lon="-7.9708564002">
        <ele>214.99</ele>
        <time>2018-12-20T08:32:37Z</time>
      </trkpt>
      <trkpt lat="39.4678369537" lon="-7.9709509481">
        <ele>213.55</ele>
        <time>2018-12-20T08:32:44Z</time>
      </trkpt>
      <trkpt lat="39.4678085390" lon="-7.9710539617">
        <ele>212.59</ele>
        <time>2018-12-20T08:32:52Z</time>
      </trkpt>
      <trkpt lat="39.4678060245" lon="-7.9710831307">
        <ele>212.11</ele>
        <time>2018-12-20T08:32:54Z</time>
      </trkpt>
      <trkpt lat="39.4677864946" lon="-7.9712090269">
        <ele>211.63</ele>
        <time>2018-12-20T08:33:03Z</time>
      </trkpt>
      <trkpt lat="39.4677562360" lon="-7.9713081010">
        <ele>212.11</ele>
        <time>2018-12-20T08:33:10Z</time>
      </trkpt>
      <trkpt lat="39.4677289948" lon="-7.9714302253">
        <ele>213.07</ele>
        <time>2018-12-20T08:33:18Z</time>
      </trkpt>
      <trkpt lat="39.4677046873" lon="-7.9715401959">
        <ele>214.03</ele>
        <time>2018-12-20T08:33:26Z</time>
      </trkpt>
      <trkpt lat="39.4676725008" lon="-7.9716644157">
        <ele>214.51</ele>
        <time>2018-12-20T08:33:35Z</time>
      </trkpt>
      <trkpt lat="39.4676439185" lon="-7.9717774037">
        <ele>214.99</ele>
        <time>2018-12-20T08:33:45Z</time>
      </trkpt>
      <trkpt lat="39.4676128216" lon="-7.9718892183">
        <ele>214.99</ele>
        <time>2018-12-20T08:33:54Z</time>
      </trkpt>
      <trkpt lat="39.4675719179" lon="-7.9719975963">
        <ele>214.51</ele>
        <time>2018-12-20T08:34:02Z</time>
      </trkpt>
      <trkpt lat="39.4675431680" lon="-7.9721066449">
        <ele>214.99</ele>
        <time>2018-12-20T08:34:10Z</time>
      </trkpt>
      <trkpt lat="39.4675152563" lon="-7.9722300265">
        <ele>214.99</ele>
        <time>2018-12-20T08:34:19Z</time>
      </trkpt>
      <trkpt lat="39.4675044436" lon="-7.9723295197">
        <ele>214.51</ele>
        <time>2018-12-20T08:34:27Z</time>
      </trkpt>
      <trkpt lat="39.4674878474" lon="-7.9724390712">
        <ele>213.55</ele>
        <time>2018-12-20T08:34:35Z</time>
      </trkpt>
      <trkpt lat="39.4674834050" lon="-7.9724749457">
        <ele>213.07</ele>
        <time>2018-12-20T08:34:37Z</time>
      </trkpt>
      <trkpt lat="39.4674720056" lon="-7.9726264067">
        <ele>213.07</ele>
        <time>2018-12-20T08:34:47Z</time>
      </trkpt>
      <trkpt lat="39.4674683176" lon="-7.9726404883">
        <ele>213.07</ele>
        <time>2018-12-20T08:34:48Z</time>
      </trkpt>
      <trkpt lat="39.4674463570" lon="-7.9727035202">
        <ele>212.59</ele>
        <time>2018-12-20T08:34:52Z</time>
      </trkpt>
      <trkpt lat="39.4674143381" lon="-7.9728557356">
        <ele>213.07</ele>
        <time>2018-12-20T08:35:02Z</time>
      </trkpt>
      <trkpt lat="39.4674113207" lon="-7.9728993215">
        <ele>213.07</ele>
        <time>2018-12-20T08:35:05Z</time>
      </trkpt>
      <trkpt lat="39.4673908688" lon="-7.9730128963">
        <ele>212.59</ele>
        <time>2018-12-20T08:35:14Z</time>
      </trkpt>
      <trkpt lat="39.4673419185" lon="-7.9730833881">
        <ele>211.63</ele>
        <time>2018-12-20T08:35:22Z</time>
      </trkpt>
      <trkpt lat="39.4672938064" lon="-7.9731191788">
        <ele>211.15</ele>
        <time>2018-12-20T08:35:29Z</time>
      </trkpt>
      <trkpt lat="39.4672718458" lon="-7.9731595796">
        <ele>210.19</ele>
        <time>2018-12-20T08:35:36Z</time>
      </trkpt>
      <trkpt lat="39.4672502205" lon="-7.9731941968">
        <ele>210.19</ele>
        <time>2018-12-20T08:35:44Z</time>
      </trkpt>
      <trkpt lat="39.4672140945" lon="-7.9731107131">
        <ele>210.67</ele>
        <time>2018-12-20T08:35:51Z</time>
      </trkpt>
      <trkpt lat="39.4671474583" lon="-7.9730729945">
        <ele>209.70</ele>
        <time>2018-12-20T08:35:58Z</time>
      </trkpt>
      <trkpt lat="39.4671279285" lon="-7.9730279837">
        <ele>209.70</ele>
        <time>2018-12-20T08:36:05Z</time>
      </trkpt>
      <trkpt lat="39.4670994300" lon="-7.9730063584">
        <ele>209.22</ele>
        <time>2018-12-20T08:36:12Z</time>
      </trkpt>
      <trkpt lat="39.4670142699" lon="-7.9729522113">
        <ele>208.74</ele>
        <time>2018-12-20T08:36:21Z</time>
      </trkpt>
      <trkpt lat="39.4669458736" lon="-7.9728907719">
        <ele>206.34</ele>
        <time>2018-12-20T08:36:30Z</time>
      </trkpt>
      <trkpt lat="39.4668745436" lon="-7.9728257284">
        <ele>204.90</ele>
        <time>2018-12-20T08:36:40Z</time>
      </trkpt>
      <trkpt lat="39.4668227434" lon="-7.9727959726">
        <ele>202.98</ele>
        <time>2018-12-20T08:36:48Z</time>
      </trkpt>
      <trkpt lat="39.4667568617" lon="-7.9727561586">
        <ele>201.53</ele>
        <time>2018-12-20T08:36:55Z</time>
      </trkpt>
      <trkpt lat="39.4666876271" lon="-7.9726833198">
        <ele>200.09</ele>
        <time>2018-12-20T08:37:03Z</time>
      </trkpt>
      <trkpt lat="39.4666283671" lon="-7.9726232216">
        <ele>199.13</ele>
        <time>2018-12-20T08:37:11Z</time>
      </trkpt>
      <trkpt lat="39.4665593002" lon="-7.9725765344">
        <ele>197.69</ele>
        <time>2018-12-20T08:37:20Z</time>
      </trkpt>
      <trkpt lat="39.4665272813" lon="-7.9725585133">
        <ele>197.21</ele>
        <time>2018-12-20T08:37:24Z</time>
      </trkpt>
      <trkpt lat="39.4664474018" lon="-7.9725414142">
        <ele>196.25</ele>
        <time>2018-12-20T08:37:33Z</time>
      </trkpt>
      <trkpt lat="39.4663951825" lon="-7.9725834075">
        <ele>196.73</ele>
        <time>2018-12-20T08:37:40Z</time>
      </trkpt>
      <trkpt lat="39.4663761556" lon="-7.9726610240">
        <ele>197.69</ele>
        <time>2018-12-20T08:37:47Z</time>
      </trkpt>
      <trkpt lat="39.4663713779" lon="-7.9727607686">
        <ele>199.13</ele>
        <time>2018-12-20T08:37:56Z</time>
      </trkpt>
      <trkpt lat="39.4663667679" lon="-7.9728436656">
        <ele>201.05</ele>
        <time>2018-12-20T08:38:04Z</time>
      </trkpt>
      <trkpt lat="39.4663735572" lon="-7.9729236290">
        <ele>202.49</ele>
        <time>2018-12-20T08:38:12Z</time>
      </trkpt>
      <trkpt lat="39.4663697854" lon="-7.9730279837">
        <ele>203.46</ele>
        <time>2018-12-20T08:38:20Z</time>
      </trkpt>
      <trkpt lat="39.4663672708" lon="-7.9730389640">
        <ele>203.46</ele>
        <time>2018-12-20T08:38:21Z</time>
      </trkpt>
      <trkpt lat="39.4663664326" lon="-7.9731834680">
        <ele>202.98</ele>
        <time>2018-12-20T08:38:31Z</time>
      </trkpt>
      <trkpt lat="39.4663606491" lon="-7.9732977971">
        <ele>203.46</ele>
        <time>2018-12-20T08:38:39Z</time>
      </trkpt>
      <trkpt lat="39.4663602300" lon="-7.9734059237">
        <ele>202.01</ele>
        <time>2018-12-20T08:38:47Z</time>
      </trkpt>
      <trkpt lat="39.4663573802" lon="-7.9734915029">
        <ele>200.09</ele>
        <time>2018-12-20T08:38:55Z</time>
      </trkpt>
      <trkpt lat="39.4663546979" lon="-7.9735629167">
        <ele>198.17</ele>
        <time>2018-12-20T08:39:04Z</time>
      </trkpt>
      <trkpt lat="39.4663738087" lon="-7.9736683611">
        <ele>195.77</ele>
        <time>2018-12-20T08:39:14Z</time>
      </trkpt>
      <trkpt lat="39.4663756527" lon="-7.9737596400">
        <ele>193.36</ele>
        <time>2018-12-20T08:39:24Z</time>
      </trkpt>
      <trkpt lat="39.4663748983" lon="-7.9738423694">
        <ele>192.40</ele>
        <time>2018-12-20T08:39:31Z</time>
      </trkpt>
      <trkpt lat="39.4663676899" lon="-7.9739235900">
        <ele>190.96</ele>
        <time>2018-12-20T08:39:38Z</time>
      </trkpt>
      <trkpt lat="39.4663759042" lon="-7.9740303755">
        <ele>189.04</ele>
        <time>2018-12-20T08:39:46Z</time>
      </trkpt>
      <trkpt lat="39.4663610682" lon="-7.9741471354">
        <ele>187.59</ele>
        <time>2018-12-20T08:39:53Z</time>
      </trkpt>
      <trkpt lat="39.4663503394" lon="-7.9742904659">
        <ele>187.11</ele>
        <time>2018-12-20T08:40:03Z</time>
      </trkpt>
      <trkpt lat="39.4663455617" lon="-7.9743975028">
        <ele>186.15</ele>
        <time>2018-12-20T08:40:12Z</time>
      </trkpt>
      <trkpt lat="39.4663520996" lon="-7.9745576810">
        <ele>184.23</ele>
        <time>2018-12-20T08:40:21Z</time>
      </trkpt>
      <trkpt lat="39.4663486630" lon="-7.9746885225">
        <ele>184.23</ele>
        <time>2018-12-20T08:40:29Z</time>
      </trkpt>
      <trkpt lat="39.4663427118" lon="-7.9748119041">
        <ele>183.75</ele>
        <time>2018-12-20T08:40:38Z</time>
      </trkpt>
      <trkpt lat="39.4663410354" lon="-7.9749612696">
        <ele>182.31</ele>
        <time>2018-12-20T08:40:48Z</time>
      </trkpt>
      <trkpt lat="39.4663519319" lon="-7.9750678036">
        <ele>180.38</ele>
        <time>2018-12-20T08:40:56Z</time>
      </trkpt>
      <trkpt lat="39.4663460646" lon="-7.9752230365">
        <ele>179.90</ele>
        <time>2018-12-20T08:41:05Z</time>
      </trkpt>
      <trkpt lat="39.4663348328" lon="-7.9753354378">
        <ele>179.90</ele>
        <time>2018-12-20T08:41:13Z</time>
      </trkpt>
      <trkpt lat="39.4663315639" lon="-7.9754506890">
        <ele>178.94</ele>
        <time>2018-12-20T08:41:21Z</time>
      </trkpt>
      <trkpt lat="39.4663310610" lon="-7.9755597375">
        <ele>177.02</ele>
        <time>2018-12-20T08:41:29Z</time>
      </trkpt>
      <trkpt lat="39.4663198292" lon="-7.9756727256">
        <ele>175.10</ele>
        <time>2018-12-20T08:41:38Z</time>
      </trkpt>
      <trkpt lat="39.4663074240" lon="-7.9757651780">
        <ele>174.14</ele>
        <time>2018-12-20T08:41:45Z</time>
      </trkpt>
      <trkpt lat="39.4662965275" lon="-7.9758582171">
        <ele>172.69</ele>
        <time>2018-12-20T08:41:52Z</time>
      </trkpt>
      <trkpt lat="39.4662904087" lon="-7.9759772401">
        <ele>171.25</ele>
        <time>2018-12-20T08:42:00Z</time>
      </trkpt>
      <trkpt lat="39.4662820268" lon="-7.9761050642">
        <ele>170.29</ele>
        <time>2018-12-20T08:42:08Z</time>
      </trkpt>
      <trkpt lat="39.4662778359" lon="-7.9762390070">
        <ele>169.81</ele>
        <time>2018-12-20T08:42:16Z</time>
      </trkpt>
      <trkpt lat="39.4662885647" lon="-7.9763320461">
        <ele>169.81</ele>
        <time>2018-12-20T08:42:23Z</time>
      </trkpt>
      <trkpt lat="39.4662879780" lon="-7.9764298629">
        <ele>169.33</ele>
        <time>2018-12-20T08:42:29Z</time>
      </trkpt>
      <trkpt lat="39.4662768301" lon="-7.9765958246">
        <ele>169.33</ele>
        <time>2018-12-20T08:42:38Z</time>
      </trkpt>
      <trkpt lat="39.4662671071" lon="-7.9767450225">
        <ele>167.41</ele>
        <time>2018-12-20T08:42:47Z</time>
      </trkpt>
      <trkpt lat="39.4662429672" lon="-7.9768814798">
        <ele>166.45</ele>
        <time>2018-12-20T08:42:56Z</time>
      </trkpt>
      <trkpt lat="39.4662290532" lon="-7.9769968148">
        <ele>165.96</ele>
        <time>2018-12-20T08:43:04Z</time>
      </trkpt>
      <trkpt lat="39.4661811087" lon="-7.9771160893">
        <ele>165.48</ele>
        <time>2018-12-20T08:43:12Z</time>
      </trkpt>
      <trkpt lat="39.4661153946" lon="-7.9772263113">
        <ele>165.48</ele>
        <time>2018-12-20T08:43:21Z</time>
      </trkpt>
      <trkpt lat="39.4660642650" lon="-7.9772901814">
        <ele>165.00</ele>
        <time>2018-12-20T08:43:27Z</time>
      </trkpt>
      <trkpt lat="39.4660536200" lon="-7.9773014132">
        <ele>165.00</ele>
        <time>2018-12-20T08:43:28Z</time>
      </trkpt>
      <trkpt lat="39.4659543782" lon="-7.9773896746">
        <ele>165.96</ele>
        <time>2018-12-20T08:43:37Z</time>
      </trkpt>
      <trkpt lat="39.4659287296" lon="-7.9774258845">
        <ele>165.48</ele>
        <time>2018-12-20T08:43:45Z</time>
      </trkpt>
      <trkpt lat="39.4659117144" lon="-7.9774547182">
        <ele>165.48</ele>
        <time>2018-12-20T08:43:53Z</time>
      </trkpt>
      <trkpt lat="39.4658726547" lon="-7.9774744157">
        <ele>165.48</ele>
        <time>2018-12-20T08:43:57Z</time>
      </trkpt>
      <trkpt lat="39.4658268057" lon="-7.9775293171">
        <ele>166.45</ele>
        <time>2018-12-20T08:44:04Z</time>
      </trkpt>
      <trkpt lat="39.4658189267" lon="-7.9775383696">
        <ele>165.96</ele>
        <time>2018-12-20T08:44:05Z</time>
      </trkpt>
      <trkpt lat="39.4657548051" lon="-7.9776150640">
        <ele>165.96</ele>
        <time>2018-12-20T08:44:13Z</time>
      </trkpt>
      <trkpt lat="39.4657167513" lon="-7.9776867293">
        <ele>165.96</ele>
        <time>2018-12-20T08:44:18Z</time>
      </trkpt>
      <trkpt lat="39.4656854030" lon="-7.9777617473">
        <ele>165.48</ele>
        <time>2018-12-20T08:44:26Z</time>
      </trkpt>
      <trkpt lat="39.4656700641" lon="-7.9777991306">
        <ele>165.96</ele>
        <time>2018-12-20T08:44:34Z</time>
      </trkpt>
      <trkpt lat="39.4656490255" lon="-7.9778613243">
        <ele>165.96</ele>
        <time>2018-12-20T08:44:42Z</time>
      </trkpt>
      <trkpt lat="39.4656192698" lon="-7.9779447243">
        <ele>165.48</ele>
        <time>2018-12-20T08:44:50Z</time>
      </trkpt>
      <trkpt lat="39.4655533880" lon="-7.9781064112">
        <ele>165.48</ele>
        <time>2018-12-20T08:44:58Z</time>
      </trkpt>
      <trkpt lat="39.4654928707" lon="-7.9782359954">
        <ele>164.52</ele>
        <time>2018-12-20T08:45:07Z</time>
      </trkpt>
      <trkpt lat="39.4654872548" lon="-7.9782489035">
        <ele>164.52</ele>
        <time>2018-12-20T08:45:08Z</time>
      </trkpt>
      <trkpt lat="39.4654410705" lon="-7.9783089180">
        <ele>165.00</ele>
        <time>2018-12-20T08:45:13Z</time>
      </trkpt>
      <trkpt lat="39.4654250611" lon="-7.9783302080">
        <ele>165.00</ele>
        <time>2018-12-20T08:45:15Z</time>
      </trkpt>
      <trkpt lat="39.4653259031" lon="-7.9784934875">
        <ele>162.60</ele>
        <time>2018-12-20T08:45:24Z</time>
      </trkpt>
      <trkpt lat="39.4652615301" lon="-7.9786130134">
        <ele>162.60</ele>
        <time>2018-12-20T08:45:33Z</time>
      </trkpt>
      <trkpt lat="39.4652456045" lon="-7.9786496423">
        <ele>162.12</ele>
        <time>2018-12-20T08:45:36Z</time>
      </trkpt>
      <trkpt lat="39.4652072154" lon="-7.9787454475">
        <ele>161.64</ele>
        <time>2018-12-20T08:45:44Z</time>
      </trkpt>
      <trkpt lat="39.4651566725" lon="-7.9788135085">
        <ele>161.64</ele>
        <time>2018-12-20T08:45:51Z</time>
      </trkpt>
      <trkpt lat="39.4651496317" lon="-7.9788249079">
        <ele>161.64</ele>
        <time>2018-12-20T08:45:52Z</time>
      </trkpt>
      <trkpt lat="39.4650765415" lon="-7.9789280891">
        <ele>160.20</ele>
        <time>2018-12-20T08:45:59Z</time>
      </trkpt>
      <trkpt lat="39.4650456961" lon="-7.9790042806">
        <ele>164.04</ele>
        <time>2018-12-20T08:46:04Z</time>
      </trkpt>
      <trkpt lat="39.4649848435" lon="-7.9791161790">
        <ele>161.64</ele>
        <time>2018-12-20T08:46:13Z</time>
      </trkpt>
      <trkpt lat="39.4649807364" lon="-7.9791244771">
        <ele>161.64</ele>
        <time>2018-12-20T08:46:14Z</time>
      </trkpt>
      <trkpt lat="39.4649216440" lon="-7.9792068712">
        <ele>161.16</ele>
        <time>2018-12-20T08:46:23Z</time>
      </trkpt>
      <trkpt lat="39.4648862723" lon="-7.9792188574">
        <ele>161.64</ele>
        <time>2018-12-20T08:46:30Z</time>
      </trkpt>
      <trkpt lat="39.4648404233" lon="-7.9792760219">
        <ele>160.20</ele>
        <time>2018-12-20T08:46:38Z</time>
      </trkpt>
      <trkpt lat="39.4648364000" lon="-7.9792850744">
        <ele>164.04</ele>
        <time>2018-12-20T08:46:39Z</time>
      </trkpt>
      <trkpt lat="39.4648315385" lon="-7.9792951327">
        <ele>158.75</ele>
        <time>2018-12-20T08:46:40Z</time>
      </trkpt>
      <trkpt lat="39.4648203067" lon="-7.9793318454">
        <ele>160.20</ele>
        <time>2018-12-20T08:46:43Z</time>
      </trkpt>
      <trkpt lat="39.4647938199" lon="-7.9793978110">
        <ele>160.20</ele>
        <time>2018-12-20T08:46:50Z</time>
      </trkpt>
      <trkpt lat="39.4647861924" lon="-7.9794104677">
        <ele>159.24</ele>
        <time>2018-12-20T08:46:51Z</time>
      </trkpt>
      <trkpt lat="39.4647692610" lon="-7.9794738349">
        <ele>160.68</ele>
        <time>2018-12-20T08:46:55Z</time>
      </trkpt>
      <trkpt lat="39.4647426065" lon="-7.9795554746">
        <ele>159.24</ele>
        <time>2018-12-20T08:47:01Z</time>
      </trkpt>
      <trkpt lat="39.4647010323" lon="-7.9797036666">
        <ele>159.24</ele>
        <time>2018-12-20T08:47:11Z</time>
      </trkpt>
      <trkpt lat="39.4646980986" lon="-7.9797137249">
        <ele>159.24</ele>
        <time>2018-12-20T08:47:12Z</time>
      </trkpt>
      <trkpt lat="39.4646426104" lon="-7.9798884038">
        <ele>158.27</ele>
        <time>2018-12-20T08:47:21Z</time>
      </trkpt>
      <trkpt lat="39.4645909779" lon="-7.9800187424">
        <ele>158.75</ele>
        <time>2018-12-20T08:47:29Z</time>
      </trkpt>
      <trkpt lat="39.4645590428" lon="-7.9801472370">
        <ele>157.79</ele>
        <time>2018-12-20T08:47:37Z</time>
      </trkpt>
      <trkpt lat="39.4645289518" lon="-7.9802707862">
        <ele>157.79</ele>
        <time>2018-12-20T08:47:44Z</time>
      </trkpt>
      <trkpt lat="39.4644841924" lon="-7.9804089200">
        <ele>157.31</ele>
        <time>2018-12-20T08:47:52Z</time>
      </trkpt>
      <trkpt lat="39.4644568674" lon="-7.9805530049">
        <ele>157.31</ele>
        <time>2018-12-20T08:48:01Z</time>
      </trkpt>
      <trkpt lat="39.4644307997" lon="-7.9806744587">
        <ele>156.83</ele>
        <time>2018-12-20T08:48:09Z</time>
      </trkpt>
      <trkpt lat="39.4643929973" lon="-7.9807915539">
        <ele>157.31</ele>
        <time>2018-12-20T08:48:16Z</time>
      </trkpt>
      <trkpt lat="39.4643707015" lon="-7.9809285142">
        <ele>157.31</ele>
        <time>2018-12-20T08:48:23Z</time>
      </trkpt>
      <trkpt lat="39.4643524289" lon="-7.9810566735">
        <ele>156.35</ele>
        <time>2018-12-20T08:48:30Z</time>
      </trkpt>
      <trkpt lat="39.4643295463" lon="-7.9812026024">
        <ele>156.35</ele>
        <time>2018-12-20T08:48:38Z</time>
      </trkpt>
      <trkpt lat="39.4643019699" lon="-7.9813528899">
        <ele>155.39</ele>
        <time>2018-12-20T08:48:48Z</time>
      </trkpt>
      <trkpt lat="39.4642694481" lon="-7.9814439174">
        <ele>155.87</ele>
        <time>2018-12-20T08:48:55Z</time>
      </trkpt>
      <trkpt lat="39.4642267004" lon="-7.9815630242">
        <ele>155.39</ele>
        <time>2018-12-20T08:49:03Z</time>
      </trkpt>
      <trkpt lat="39.4642063323" lon="-7.9816411436">
        <ele>155.39</ele>
        <time>2018-12-20T08:49:10Z</time>
      </trkpt>
      <trkpt lat="39.4641912449" lon="-7.9817628488">
        <ele>155.39</ele>
        <time>2018-12-20T08:49:19Z</time>
      </trkpt>
      <trkpt lat="39.4642125349" lon="-7.9817837197">
        <ele>155.39</ele>
        <time>2018-12-20T08:49:27Z</time>
      </trkpt>
      <trkpt lat="39.4642287120" lon="-7.9818531219">
        <ele>154.91</ele>
        <time>2018-12-20T08:49:38Z</time>
      </trkpt>
      <trkpt lat="39.4642325677" lon="-7.9819024913">
        <ele>155.87</ele>
        <time>2018-12-20T08:49:42Z</time>
      </trkpt>
      <trkpt lat="39.4642338250" lon="-7.9820422176">
        <ele>155.39</ele>
        <time>2018-12-20T08:49:51Z</time>
      </trkpt>
      <trkpt lat="39.4642471522" lon="-7.9821488354">
        <ele>155.39</ele>
        <time>2018-12-20T08:49:58Z</time>
      </trkpt>
      <trkpt lat="39.4642783329" lon="-7.9822217580">
        <ele>154.91</ele>
        <time>2018-12-20T08:50:03Z</time>
      </trkpt>
      <trkpt lat="39.4643295463" lon="-7.9823493306">
        <ele>154.43</ele>
        <time>2018-12-20T08:50:12Z</time>
      </trkpt>
      <trkpt lat="39.4643558655" lon="-7.9824384302">
        <ele>153.47</ele>
        <time>2018-12-20T08:50:19Z</time>
      </trkpt>
      <trkpt lat="39.4643845316" lon="-7.9825353250">
        <ele>153.95</ele>
        <time>2018-12-20T08:50:26Z</time>
      </trkpt>
      <trkpt lat="39.4644328114" lon="-7.9826763924">
        <ele>153.47</ele>
        <time>2018-12-20T08:50:35Z</time>
      </trkpt>
      <trkpt lat="39.4644635729" lon="-7.9827857763">
        <ele>152.99</ele>
        <time>2018-12-20T08:50:43Z</time>
      </trkpt>
      <trkpt lat="39.4644828513" lon="-7.9828993510">
        <ele>152.51</ele>
        <time>2018-12-20T08:50:51Z</time>
      </trkpt>
      <trkpt lat="39.4644928258" lon="-7.9829550069">
        <ele>152.51</ele>
        <time>2018-12-20T08:50:55Z</time>
      </trkpt>
      <trkpt lat="39.4644981902" lon="-7.9830902070">
        <ele>152.51</ele>
        <time>2018-12-20T08:51:03Z</time>
      </trkpt>
      <trkpt lat="39.4644941669" lon="-7.9831779655">
        <ele>152.03</ele>
        <time>2018-12-20T08:51:08Z</time>
      </trkpt>
      <trkpt lat="39.4644915685" lon="-7.9832371417">
        <ele>152.03</ele>
        <time>2018-12-20T08:51:12Z</time>
      </trkpt>
      <trkpt lat="39.4644676801" lon="-7.9833585117">
        <ele>151.54</ele>
        <time>2018-12-20T08:51:20Z</time>
      </trkpt>
      <trkpt lat="39.4644463900" lon="-7.9835025966">
        <ele>152.03</ele>
        <time>2018-12-20T08:51:28Z</time>
      </trkpt>
      <trkpt lat="39.4644251838" lon="-7.9836393055">
        <ele>152.03</ele>
        <time>2018-12-20T08:51:36Z</time>
      </trkpt>
      <trkpt lat="39.4643793348" lon="-7.9837558139">
        <ele>151.54</ele>
        <time>2018-12-20T08:51:44Z</time>
      </trkpt>
      <trkpt lat="39.4643511716" lon="-7.9838628508">
        <ele>151.06</ele>
        <time>2018-12-20T08:51:51Z</time>
      </trkpt>
      <trkpt lat="39.4643178117" lon="-7.9840193409">
        <ele>151.06</ele>
        <time>2018-12-20T08:52:00Z</time>
      </trkpt>
      <trkpt lat="39.4642827753" lon="-7.9841560498">
        <ele>153.95</ele>
        <time>2018-12-20T08:52:08Z</time>
      </trkpt>
      <trkpt lat="39.4642801769" lon="-7.9841705505">
        <ele>150.58</ele>
        <time>2018-12-20T08:52:09Z</time>
      </trkpt>
      <trkpt lat="39.4642671011" lon="-7.9842127953">
        <ele>151.06</ele>
        <time>2018-12-20T08:52:12Z</time>
      </trkpt>
      <trkpt lat="39.4642550312" lon="-7.9842318222">
        <ele>150.58</ele>
        <time>2018-12-20T08:52:14Z</time>
      </trkpt>
      <trkpt lat="39.4641991239" lon="-7.9843687825">
        <ele>151.06</ele>
        <time>2018-12-20T08:52:21Z</time>
      </trkpt>
      <trkpt lat="39.4641317334" lon="-7.9845012166">
        <ele>151.06</ele>
        <time>2018-12-20T08:52:27Z</time>
      </trkpt>
      <trkpt lat="39.4641334936" lon="-7.9845158011">
        <ele>151.54</ele>
        <time>2018-12-20T08:52:33Z</time>
      </trkpt>
      <trkpt lat="39.4641357567" lon="-7.9845213331">
        <ele>151.54</ele>
        <time>2018-12-20T08:52:34Z</time>
      </trkpt>
      <trkpt lat="39.4640446454" lon="-7.9846470617">
        <ele>152.03</ele>
        <time>2018-12-20T08:52:41Z</time>
      </trkpt>
      <trkpt lat="39.4640291389" lon="-7.9846614785">
        <ele>151.54</ele>
        <time>2018-12-20T08:52:42Z</time>
      </trkpt>
      <trkpt lat="39.4639863074" lon="-7.9847108480">
        <ele>152.51</ele>
        <time>2018-12-20T08:52:45Z</time>
      </trkpt>
      <trkpt lat="39.4639768358" lon="-7.9847541824">
        <ele>152.51</ele>
        <time>2018-12-20T08:52:53Z</time>
      </trkpt>
      <trkpt lat="39.4639102835" lon="-7.9848527536">
        <ele>153.47</ele>
        <time>2018-12-20T08:52:59Z</time>
      </trkpt>
      <trkpt lat="39.4638452400" lon="-7.9849471338">
        <ele>154.43</ele>
        <time>2018-12-20T08:53:05Z</time>
      </trkpt>
      <trkpt lat="39.4637936074" lon="-7.9850273486">
        <ele>152.51</ele>
        <time>2018-12-20T08:53:13Z</time>
      </trkpt>
      <trkpt lat="39.4637897518" lon="-7.9850402568">
        <ele>157.31</ele>
        <time>2018-12-20T08:53:14Z</time>
      </trkpt>
      <trkpt lat="39.4637839682" lon="-7.9850540031">
        <ele>155.39</ele>
        <time>2018-12-20T08:53:15Z</time>
      </trkpt>
      <trkpt lat="39.4637687970" lon="-7.9850747902">
        <ele>156.83</ele>
        <time>2018-12-20T08:53:17Z</time>
      </trkpt>
      <trkpt lat="39.4637490157" lon="-7.9851178732">
        <ele>151.54</ele>
        <time>2018-12-20T08:53:21Z</time>
      </trkpt>
      <trkpt lat="39.4637464173" lon="-7.9851295240">
        <ele>157.31</ele>
        <time>2018-12-20T08:53:22Z</time>
      </trkpt>
      <trkpt lat="39.4637216907" lon="-7.9851637222">
        <ele>154.91</ele>
        <time>2018-12-20T08:53:25Z</time>
      </trkpt>
      <trkpt lat="39.4637037534" lon="-7.9851907957">
        <ele>153.95</ele>
        <time>2018-12-20T08:53:27Z</time>
      </trkpt>
      <trkpt lat="39.4636502769" lon="-7.9852981679">
        <ele>154.91</ele>
        <time>2018-12-20T08:53:35Z</time>
      </trkpt>
      <trkpt lat="39.4636330940" lon="-7.9854125809">
        <ele>154.91</ele>
        <time>2018-12-20T08:53:43Z</time>
      </trkpt>
      <trkpt lat="39.4636097085" lon="-7.9855462722">
        <ele>156.83</ele>
        <time>2018-12-20T08:53:53Z</time>
      </trkpt>
      <trkpt lat="39.4636086188" lon="-7.9855811410">
        <ele>156.35</ele>
        <time>2018-12-20T08:53:56Z</time>
      </trkpt>
      <trkpt lat="39.4635821320" lon="-7.9856486991">
        <ele>157.31</ele>
        <time>2018-12-20T08:54:02Z</time>
      </trkpt>
      <trkpt lat="39.4634854887" lon="-7.9857311770">
        <ele>157.31</ele>
        <time>2018-12-20T08:54:12Z</time>
      </trkpt>
      <trkpt lat="39.4634148292" lon="-7.9857371282">
        <ele>158.75</ele>
        <time>2018-12-20T08:54:18Z</time>
      </trkpt>
      <trkpt lat="39.4633205328" lon="-7.9857181013">
        <ele>157.79</ele>
        <time>2018-12-20T08:54:26Z</time>
      </trkpt>
      <trkpt lat="39.4632430840" lon="-7.9856839869">
        <ele>158.27</ele>
        <time>2018-12-20T08:54:33Z</time>
      </trkpt>
      <trkpt lat="39.4631678145" lon="-7.9856890999">
        <ele>157.79</ele>
        <time>2018-12-20T08:54:41Z</time>
      </trkpt>
      <trkpt lat="39.4630798884" lon="-7.9856945481">
        <ele>158.27</ele>
        <time>2018-12-20T08:54:47Z</time>
      </trkpt>
      <trkpt lat="39.4630511384" lon="-7.9857188556">
        <ele>159.72</ele>
        <time>2018-12-20T08:54:52Z</time>
      </trkpt>
      <trkpt lat="39.4629771262" lon="-7.9857611842">
        <ele>159.24</ele>
        <time>2018-12-20T08:54:57Z</time>
      </trkpt>
      <trkpt lat="39.4629306067" lon="-7.9857756011">
        <ele>159.24</ele>
        <time>2018-12-20T08:55:01Z</time>
      </trkpt>
      <trkpt lat="39.4629196264" lon="-7.9857687280">
        <ele>160.20</ele>
        <time>2018-12-20T08:55:03Z</time>
      </trkpt>
      <trkpt lat="39.4629019406" lon="-7.9857833963">
        <ele>159.72</ele>
        <time>2018-12-20T08:55:05Z</time>
      </trkpt>
      <trkpt lat="39.4628275093" lon="-7.9858533852">
        <ele>160.20</ele>
        <time>2018-12-20T08:55:13Z</time>
      </trkpt>
      <trkpt lat="39.4627524074" lon="-7.9859440774">
        <ele>161.16</ele>
        <time>2018-12-20T08:55:21Z</time>
      </trkpt>
      <trkpt lat="39.4627075642" lon="-7.9860387929">
        <ele>162.12</ele>
        <time>2018-12-20T08:55:28Z</time>
      </trkpt>
      <trkpt lat="39.4626584463" lon="-7.9861682095">
        <ele>163.56</ele>
        <time>2018-12-20T08:55:37Z</time>
      </trkpt>
      <trkpt lat="39.4626430236" lon="-7.9862699658">
        <ele>165.00</ele>
        <time>2018-12-20T08:55:45Z</time>
      </trkpt>
      <trkpt lat="39.4626426883" lon="-7.9863573052">
        <ele>165.00</ele>
        <time>2018-12-20T08:55:53Z</time>
      </trkpt>
      <trkpt lat="39.4626716897" lon="-7.9864643421">
        <ele>165.48</ele>
        <time>2018-12-20T08:56:01Z</time>
      </trkpt>
      <trkpt lat="39.4627488870" lon="-7.9865785036">
        <ele>165.96</ele>
        <time>2018-12-20T08:56:10Z</time>
      </trkpt>
      <trkpt lat="39.4627660699" lon="-7.9866814334">
        <ele>165.96</ele>
        <time>2018-12-20T08:56:18Z</time>
      </trkpt>
      <trkpt lat="39.4627924729" lon="-7.9867808428">
        <ele>165.96</ele>
        <time>2018-12-20T08:56:26Z</time>
      </trkpt>
      <trkpt lat="39.4627808221" lon="-7.9868836049">
        <ele>166.93</ele>
        <time>2018-12-20T08:56:34Z</time>
      </trkpt>
      <trkpt lat="39.4627922215" lon="-7.9869473074">
        <ele>168.85</ele>
        <time>2018-12-20T08:56:39Z</time>
      </trkpt>
      <trkpt lat="39.4627784751" lon="-7.9870164581">
        <ele>169.33</ele>
        <time>2018-12-20T08:56:46Z</time>
      </trkpt>
      <trkpt lat="39.4627685007" lon="-7.9870961700">
        <ele>170.77</ele>
        <time>2018-12-20T08:56:53Z</time>
      </trkpt>
      <trkpt lat="39.4627519045" lon="-7.9871809110">
        <ele>171.73</ele>
        <time>2018-12-20T08:57:01Z</time>
      </trkpt>
      <trkpt lat="39.4627400022" lon="-7.9872890376">
        <ele>173.17</ele>
        <time>2018-12-20T08:57:10Z</time>
      </trkpt>
      <trkpt lat="39.4627290219" lon="-7.9873949010">
        <ele>174.14</ele>
        <time>2018-12-20T08:57:19Z</time>
      </trkpt>
      <trkpt lat="39.4627441093" lon="-7.9874743614">
        <ele>174.62</ele>
        <time>2018-12-20T08:57:26Z</time>
      </trkpt>
      <trkpt lat="39.4627419300" lon="-7.9875460267">
        <ele>175.58</ele>
        <time>2018-12-20T08:57:34Z</time>
      </trkpt>
      <trkpt lat="39.4627364818" lon="-7.9876257386">
        <ele>176.54</ele>
        <time>2018-12-20T08:57:43Z</time>
      </trkpt>
      <trkpt lat="39.4627374876" lon="-7.9877248965">
        <ele>177.98</ele>
        <time>2018-12-20T08:57:52Z</time>
      </trkpt>
      <trkpt lat="39.4627418462" lon="-7.9878321849">
        <ele>178.94</ele>
        <time>2018-12-20T08:58:01Z</time>
      </trkpt>
      <trkpt lat="39.4627260882" lon="-7.9879377130">
        <ele>178.94</ele>
        <time>2018-12-20T08:58:09Z</time>
      </trkpt>
      <trkpt lat="39.4626862742" lon="-7.9880234599">
        <ele>178.94</ele>
        <time>2018-12-20T08:58:17Z</time>
      </trkpt>
      <trkpt lat="39.4626456220" lon="-7.9881040100">
        <ele>177.98</ele>
        <time>2018-12-20T08:58:24Z</time>
      </trkpt>
      <trkpt lat="39.4625799078" lon="-7.9881953727">
        <ele>178.94</ele>
        <time>2018-12-20T08:58:32Z</time>
      </trkpt>
      <trkpt lat="39.4625175465" lon="-7.9883169103">
        <ele>178.94</ele>
        <time>2018-12-20T08:58:41Z</time>
      </trkpt>
      <trkpt lat="39.4624699373" lon="-7.9884107038">
        <ele>179.42</ele>
        <time>2018-12-20T08:58:49Z</time>
      </trkpt>
      <trkpt lat="39.4624209870" lon="-7.9885204230">
        <ele>178.46</ele>
        <time>2018-12-20T08:58:58Z</time>
      </trkpt>
      <trkpt lat="39.4623613916" lon="-7.9886485822">
        <ele>178.94</ele>
        <time>2018-12-20T08:59:07Z</time>
      </trkpt>
      <trkpt lat="39.4623199850" lon="-7.9887603130">
        <ele>179.90</ele>
        <time>2018-12-20T08:59:15Z</time>
      </trkpt>
      <trkpt lat="39.4622705318" lon="-7.9888774082">
        <ele>179.42</ele>
        <time>2018-12-20T08:59:23Z</time>
      </trkpt>
      <trkpt lat="39.4622692745" lon="-7.9888962675">
        <ele>178.94</ele>
        <time>2018-12-20T08:59:24Z</time>
      </trkpt>
      <trkpt lat="39.4622207433" lon="-7.9890443757">
        <ele>178.94</ele>
        <time>2018-12-20T08:59:34Z</time>
      </trkpt>
      <trkpt lat="39.4621738046" lon="-7.9891834315">
        <ele>178.46</ele>
        <time>2018-12-20T08:59:42Z</time>
      </trkpt>
      <trkpt lat="39.4621370081" lon="-7.9892964195">
        <ele>177.98</ele>
        <time>2018-12-20T08:59:50Z</time>
      </trkpt>
      <trkpt lat="39.4621126167" lon="-7.9893824179">
        <ele>177.50</ele>
        <time>2018-12-20T08:59:55Z</time>
      </trkpt>
      <trkpt lat="39.4620640017" lon="-7.9895361420">
        <ele>177.50</ele>
        <time>2018-12-20T09:00:05Z</time>
      </trkpt>
      <trkpt lat="39.4620050769" lon="-7.9896384012">
        <ele>177.02</ele>
        <time>2018-12-20T09:00:14Z</time>
      </trkpt>
      <trkpt lat="39.4619458169" lon="-7.9897577595">
        <ele>175.58</ele>
        <time>2018-12-20T09:00:23Z</time>
      </trkpt>
      <trkpt lat="39.4618911669" lon="-7.9898493737">
        <ele>176.06</ele>
        <time>2018-12-20T09:00:30Z</time>
      </trkpt>
      <trkpt lat="39.4618334156" lon="-7.9899326898">
        <ele>176.06</ele>
        <time>2018-12-20T09:00:37Z</time>
      </trkpt>
      <trkpt lat="39.4617648516" lon="-7.9900362063">
        <ele>176.06</ele>
        <time>2018-12-20T09:00:45Z</time>
      </trkpt>
      <trkpt lat="39.4617009815" lon="-7.9901321791">
        <ele>176.54</ele>
        <time>2018-12-20T09:00:53Z</time>
      </trkpt>
      <trkpt lat="39.4616776798" lon="-7.9902287386">
        <ele>177.02</ele>
        <time>2018-12-20T09:01:00Z</time>
      </trkpt>
      <trkpt lat="39.4616592396" lon="-7.9903501086">
        <ele>175.58</ele>
        <time>2018-12-20T09:01:09Z</time>
      </trkpt>
      <trkpt lat="39.4616709743" lon="-7.9904427286">
        <ele>174.62</ele>
        <time>2018-12-20T09:01:16Z</time>
      </trkpt>
      <trkpt lat="39.4617229421" lon="-7.9905907530">
        <ele>172.21</ele>
        <time>2018-12-20T09:01:25Z</time>
      </trkpt>
      <trkpt lat="39.4617594872" lon="-7.9906539526">
        <ele>170.77</ele>
        <time>2018-12-20T09:01:34Z</time>
      </trkpt>
      <trkpt lat="39.4617806934" lon="-7.9906996340">
        <ele>168.85</ele>
        <time>2018-12-20T09:01:42Z</time>
      </trkpt>
      <trkpt lat="39.4618051685" lon="-7.9907604866">
        <ele>167.89</ele>
        <time>2018-12-20T09:01:50Z</time>
      </trkpt>
      <trkpt lat="39.4618177414" lon="-7.9908029828">
        <ele>165.96</ele>
        <time>2018-12-20T09:01:54Z</time>
      </trkpt>
      <trkpt lat="39.4618528616" lon="-7.9909031466">
        <ele>165.00</ele>
        <time>2018-12-20T09:02:02Z</time>
      </trkpt>
      <trkpt lat="39.4618968666" lon="-7.9910204932">
        <ele>163.56</ele>
        <time>2018-12-20T09:02:11Z</time>
      </trkpt>
      <trkpt lat="39.4618998840" lon="-7.9910531826">
        <ele>163.08</ele>
        <time>2018-12-20T09:02:14Z</time>
      </trkpt>
      <trkpt lat="39.4619509298" lon="-7.9911546875">
        <ele>163.56</ele>
        <time>2018-12-20T09:02:22Z</time>
      </trkpt>
      <trkpt lat="39.4619925879" lon="-7.9912478104">
        <ele>164.52</ele>
        <time>2018-12-20T09:02:30Z</time>
      </trkpt>
      <trkpt lat="39.4620098546" lon="-7.9912810028">
        <ele>165.48</ele>
        <time>2018-12-20T09:02:33Z</time>
      </trkpt>
      <trkpt lat="39.4620591402" lon="-7.9913684260">
        <ele>167.41</ele>
        <time>2018-12-20T09:02:41Z</time>
      </trkpt>
      <trkpt lat="39.4621156342" lon="-7.9914621357">
        <ele>168.85</ele>
        <time>2018-12-20T09:02:50Z</time>
      </trkpt>
      <trkpt lat="39.4621982798" lon="-7.9914968368">
        <ele>169.81</ele>
        <time>2018-12-20T09:02:57Z</time>
      </trkpt>
      <trkpt lat="39.4623068254" lon="-7.9915057216">
        <ele>170.29</ele>
        <time>2018-12-20T09:03:06Z</time>
      </trkpt>
      <trkpt lat="39.4624037202" lon="-7.9914949089">
        <ele>170.29</ele>
        <time>2018-12-20T09:03:15Z</time>
      </trkpt>
      <trkpt lat="39.4624971785" lon="-7.9914989322">
        <ele>170.77</ele>
        <time>2018-12-20T09:03:24Z</time>
      </trkpt>
      <trkpt lat="39.4626390841" lon="-7.9915037937">
        <ele>170.77</ele>
        <time>2018-12-20T09:03:34Z</time>
      </trkpt>
      <trkpt lat="39.4627241604" lon="-7.9915173724">
        <ele>171.25</ele>
        <time>2018-12-20T09:03:41Z</time>
      </trkpt>
      <trkpt lat="39.4628272578" lon="-7.9915501457">
        <ele>172.21</ele>
        <time>2018-12-20T09:03:51Z</time>
      </trkpt>
      <trkpt lat="39.4629021920" lon="-7.9916140996">
        <ele>172.21</ele>
        <time>2018-12-20T09:03:59Z</time>
      </trkpt>
      <trkpt lat="39.4629422575" lon="-7.9916994274">
        <ele>172.69</ele>
        <time>2018-12-20T09:04:07Z</time>
      </trkpt>
      <trkpt lat="39.4629316963" lon="-7.9917917121">
        <ele>173.17</ele>
        <time>2018-12-20T09:04:15Z</time>
      </trkpt>
      <trkpt lat="39.4629255775" lon="-7.9917999264">
        <ele>173.17</ele>
        <time>2018-12-20T09:04:16Z</time>
      </trkpt>
      <trkpt lat="39.4628968276" lon="-7.9918668140">
        <ele>173.66</ele>
        <time>2018-12-20T09:04:21Z</time>
      </trkpt>
      <trkpt lat="39.4628352206" lon="-7.9920131620">
        <ele>173.17</ele>
        <time>2018-12-20T09:04:30Z</time>
      </trkpt>
      <trkpt lat="39.4627889525" lon="-7.9920938797">
        <ele>174.14</ele>
        <time>2018-12-20T09:04:37Z</time>
      </trkpt>
      <trkpt lat="39.4627201371" lon="-7.9921903554">
        <ele>174.14</ele>
        <time>2018-12-20T09:04:46Z</time>
      </trkpt>
      <trkpt lat="39.4626693428" lon="-7.9922823887">
        <ele>174.62</ele>
        <time>2018-12-20T09:04:54Z</time>
      </trkpt>
      <trkpt lat="39.4626209792" lon="-7.9924164992">
        <ele>175.10</ele>
        <time>2018-12-20T09:05:05Z</time>
      </trkpt>
      <trkpt lat="39.4625718612" lon="-7.9925187584">
        <ele>176.06</ele>
        <time>2018-12-20T09:05:14Z</time>
      </trkpt>
      <trkpt lat="39.4625473861" lon="-7.9926332552">
        <ele>176.54</ele>
        <time>2018-12-20T09:05:21Z</time>
      </trkpt>
      <trkpt lat="39.4625245035" lon="-7.9927415494">
        <ele>177.02</ele>
        <time>2018-12-20T09:05:28Z</time>
      </trkpt>
      <trkpt lat="39.4624975137" lon="-7.9927932657">
        <ele>177.98</ele>
        <time>2018-12-20T09:05:34Z</time>
      </trkpt>
      <trkpt lat="39.4624814205" lon="-7.9928644281">
        <ele>177.98</ele>
        <time>2018-12-20T09:05:40Z</time>
      </trkpt>
      <trkpt lat="39.4624724519" lon="-7.9929467384">
        <ele>178.46</ele>
        <time>2018-12-20T09:05:48Z</time>
      </trkpt>
      <trkpt lat="39.4624630641" lon="-7.9930281267">
        <ele>178.94</ele>
        <time>2018-12-20T09:05:56Z</time>
      </trkpt>
      <trkpt lat="39.4624628127" lon="-7.9931123648">
        <ele>180.38</ele>
        <time>2018-12-20T09:06:03Z</time>
      </trkpt>
      <trkpt lat="39.4624552689" lon="-7.9932444636">
        <ele>180.87</ele>
        <time>2018-12-20T09:06:11Z</time>
      </trkpt>
      <trkpt lat="39.4624575321" lon="-7.9933442082">
        <ele>181.83</ele>
        <time>2018-12-20T09:06:19Z</time>
      </trkpt>
      <trkpt lat="39.4624741282" lon="-7.9934332240">
        <ele>182.31</ele>
        <time>2018-12-20T09:06:25Z</time>
      </trkpt>
      <trkpt lat="39.4624971785" lon="-7.9935317114">
        <ele>182.79</ele>
        <time>2018-12-20T09:06:33Z</time>
      </trkpt>
      <trkpt lat="39.4625086617" lon="-7.9935698491">
        <ele>183.75</ele>
        <time>2018-12-20T09:06:37Z</time>
      </trkpt>
      <trkpt lat="39.4625324663" lon="-7.9936433583">
        <ele>183.75</ele>
        <time>2018-12-20T09:06:47Z</time>
      </trkpt>
      <trkpt lat="39.4625761360" lon="-7.9936809093">
        <ele>183.75</ele>
        <time>2018-12-20T09:06:55Z</time>
      </trkpt>
      <trkpt lat="39.4626174588" lon="-7.9936738685">
        <ele>183.75</ele>
        <time>2018-12-20T09:07:02Z</time>
      </trkpt>
      <trkpt lat="39.4626296964" lon="-7.9936285224">
        <ele>183.27</ele>
        <time>2018-12-20T09:07:15Z</time>
      </trkpt>
      <trkpt lat="39.4626452867" lon="-7.9936392512">
        <ele>183.27</ele>
        <time>2018-12-20T09:07:29Z</time>
      </trkpt>
      <trkpt lat="39.4626752101" lon="-7.9936520755">
        <ele>183.75</ele>
        <time>2018-12-20T09:07:32Z</time>
      </trkpt>
      <trkpt lat="39.4627658185" lon="-7.9936799873">
        <ele>183.27</ele>
        <time>2018-12-20T09:07:40Z</time>
      </trkpt>
      <trkpt lat="39.4628892839" lon="-7.9937113356">
        <ele>181.83</ele>
        <time>2018-12-20T09:07:50Z</time>
      </trkpt>
      <trkpt lat="39.4629817363" lon="-7.9937217291">
        <ele>181.35</ele>
        <time>2018-12-20T09:07:59Z</time>
      </trkpt>
      <trkpt lat="39.4630535692" lon="-7.9937637225">
        <ele>180.87</ele>
        <time>2018-12-20T09:08:06Z</time>
      </trkpt>
      <trkpt lat="39.4631624501" lon="-7.9938519839">
        <ele>179.90</ele>
        <time>2018-12-20T09:08:15Z</time>
      </trkpt>
      <trkpt lat="39.4632209558" lon="-7.9939776286">
        <ele>177.98</ele>
        <time>2018-12-20T09:08:25Z</time>
      </trkpt>
      <trkpt lat="39.4632647932" lon="-7.9941220488">
        <ele>176.06</ele>
        <time>2018-12-20T09:08:35Z</time>
      </trkpt>
      <trkpt lat="39.4633074570" lon="-7.9942076281">
        <ele>174.62</ele>
        <time>2018-12-20T09:08:42Z</time>
      </trkpt>
      <trkpt lat="39.4633476902" lon="-7.9943124019">
        <ele>174.14</ele>
        <time>2018-12-20T09:08:49Z</time>
      </trkpt>
      <trkpt lat="39.4633875042" lon="-7.9943712428">
        <ele>174.14</ele>
        <time>2018-12-20T09:08:55Z</time>
      </trkpt>
      <trkpt lat="39.4634249713" lon="-7.9944046028">
        <ele>174.14</ele>
        <time>2018-12-20T09:08:59Z</time>
      </trkpt>
      <trkpt lat="39.4635157473" lon="-7.9945115559">
        <ele>173.66</ele>
        <time>2018-12-20T09:09:10Z</time>
      </trkpt>
      <trkpt lat="39.4635680504" lon="-7.9945614282">
        <ele>174.14</ele>
        <time>2018-12-20T09:09:18Z</time>
      </trkpt>
      <trkpt lat="39.4636431523" lon="-7.9946140666">
        <ele>175.10</ele>
        <time>2018-12-20T09:09:27Z</time>
      </trkpt>
      <trkpt lat="39.4637221936" lon="-7.9946703091">
        <ele>175.10</ele>
        <time>2018-12-20T09:09:35Z</time>
      </trkpt>
      <trkpt lat="39.4637716468" lon="-7.9947009031">
        <ele>176.54</ele>
        <time>2018-12-20T09:09:42Z</time>
      </trkpt>
      <trkpt lat="39.4638584834" lon="-7.9947437346">
        <ele>177.02</ele>
        <time>2018-12-20T09:09:51Z</time>
      </trkpt>
      <trkpt lat="39.4639793504" lon="-7.9948151484">
        <ele>178.94</ele>
        <time>2018-12-20T09:10:00Z</time>
      </trkpt>
      <trkpt lat="39.4640536141" lon="-7.9948506039">
        <ele>179.42</ele>
        <time>2018-12-20T09:10:07Z</time>
      </trkpt>
      <trkpt lat="39.4641332421" lon="-7.9949083552">
        <ele>179.90</ele>
        <time>2018-12-20T09:10:15Z</time>
      </trkpt>
      <trkpt lat="39.4642198272" lon="-7.9949850496">
        <ele>179.90</ele>
        <time>2018-12-20T09:10:23Z</time>
      </trkpt>
      <trkpt lat="39.4642804284" lon="-7.9950372688">
        <ele>181.35</ele>
        <time>2018-12-20T09:10:33Z</time>
      </trkpt>
      <trkpt lat="39.4643595535" lon="-7.9950999655">
        <ele>182.31</ele>
        <time>2018-12-20T09:10:41Z</time>
      </trkpt>
      <trkpt lat="39.4644701108" lon="-7.9951847065">
        <ele>182.79</ele>
        <time>2018-12-20T09:10:50Z</time>
      </trkpt>
      <trkpt lat="39.4645473920" lon="-7.9952450562">
        <ele>183.75</ele>
        <time>2018-12-20T09:10:59Z</time>
      </trkpt>
      <trkpt lat="39.4645606354" lon="-7.9952498339">
        <ele>184.71</ele>
        <time>2018-12-20T09:11:01Z</time>
      </trkpt>
      <trkpt lat="39.4645977672" lon="-7.9952847026">
        <ele>184.23</ele>
        <time>2018-12-20T09:11:08Z</time>
      </trkpt>
      <trkpt lat="39.4646471366" lon="-7.9953292944">
        <ele>185.19</ele>
        <time>2018-12-20T09:11:15Z</time>
      </trkpt>
      <trkpt lat="39.4647156168" lon="-7.9954494070">
        <ele>185.19</ele>
        <time>2018-12-20T09:11:23Z</time>
      </trkpt>
      <trkpt lat="39.4647426065" lon="-7.9954901431">
        <ele>184.71</ele>
        <time>2018-12-20T09:11:28Z</time>
      </trkpt>
      <trkpt lat="39.4647653215" lon="-7.9955560248">
        <ele>183.75</ele>
        <time>2018-12-20T09:11:36Z</time>
      </trkpt>
      <trkpt lat="39.4648186304" lon="-7.9956825916">
        <ele>183.75</ele>
        <time>2018-12-20T09:11:45Z</time>
      </trkpt>
      <trkpt lat="39.4648759626" lon="-7.9957903828">
        <ele>181.83</ele>
        <time>2018-12-20T09:11:54Z</time>
      </trkpt>
      <trkpt lat="39.4649298582" lon="-7.9958964139">
        <ele>179.90</ele>
        <time>2018-12-20T09:12:03Z</time>
      </trkpt>
      <trkpt lat="39.4650060497" lon="-7.9960107431">
        <ele>178.94</ele>
        <time>2018-12-20T09:12:12Z</time>
      </trkpt>
      <trkpt lat="39.4650715124" lon="-7.9960976634">
        <ele>177.02</ele>
        <time>2018-12-20T09:12:19Z</time>
      </trkpt>
      <trkpt lat="39.4651298504" lon="-7.9961913731">
        <ele>177.02</ele>
        <time>2018-12-20T09:12:26Z</time>
      </trkpt>
      <trkpt lat="39.4651833270" lon="-7.9962933809">
        <ele>175.58</ele>
        <time>2018-12-20T09:12:35Z</time>
      </trkpt>
      <trkpt lat="39.4652327802" lon="-7.9963932931">
        <ele>174.62</ele>
        <time>2018-12-20T09:12:44Z</time>
      </trkpt>
      <trkpt lat="39.4652623683" lon="-7.9964885954">
        <ele>173.66</ele>
        <time>2018-12-20T09:12:51Z</time>
      </trkpt>
      <trkpt lat="39.4652922917" lon="-7.9966005776">
        <ele>172.21</ele>
        <time>2018-12-20T09:12:59Z</time>
      </trkpt>
      <trkpt lat="39.4653017633" lon="-7.9966932815">
        <ele>171.25</ele>
        <time>2018-12-20T09:13:06Z</time>
      </trkpt>
      <trkpt lat="39.4653278310" lon="-7.9967952892">
        <ele>169.33</ele>
        <time>2018-12-20T09:13:13Z</time>
      </trkpt>
      <trkpt lat="39.4653325249" lon="-7.9968150705">
        <ele>170.29</ele>
        <time>2018-12-20T09:13:14Z</time>
      </trkpt>
      <trkpt lat="39.4653535634" lon="-7.9968722351">
        <ele>169.33</ele>
        <time>2018-12-20T09:13:17Z</time>
      </trkpt>
      <trkpt lat="39.4654119015" lon="-7.9969859775">
        <ele>167.89</ele>
        <time>2018-12-20T09:13:26Z</time>
      </trkpt>
      <trkpt lat="39.4654341135" lon="-7.9970358498">
        <ele>167.41</ele>
        <time>2018-12-20T09:13:30Z</time>
      </trkpt>
      <trkpt lat="39.4654887635" lon="-7.9971206747">
        <ele>167.89</ele>
        <time>2018-12-20T09:13:39Z</time>
      </trkpt>
      <trkpt lat="39.4655209500" lon="-7.9971661884">
        <ele>168.85</ele>
        <time>2018-12-20T09:13:47Z</time>
      </trkpt>
      <trkpt lat="39.4655688107" lon="-7.9972336628">
        <ele>169.81</ele>
        <time>2018-12-20T09:13:55Z</time>
      </trkpt>
      <trkpt lat="39.4655753486" lon="-7.9973151349">
        <ele>170.77</ele>
        <time>2018-12-20T09:14:03Z</time>
      </trkpt>
      <trkpt lat="39.4655600935" lon="-7.9973517638">
        <ele>171.73</ele>
        <time>2018-12-20T09:14:10Z</time>
      </trkpt>
      <trkpt lat="39.4655752648" lon="-7.9972852953">
        <ele>171.73</ele>
        <time>2018-12-20T09:14:32Z</time>
      </trkpt>
      <trkpt lat="39.4656012487" lon="-7.9973700363">
        <ele>171.25</ele>
        <time>2018-12-20T09:14:39Z</time>
      </trkpt>
      <trkpt lat="39.4655951299" lon="-7.9974044021">
        <ele>171.73</ele>
        <time>2018-12-20T09:14:45Z</time>
      </trkpt>
      <trkpt lat="39.4656216167" lon="-7.9974478204">
        <ele>171.25</ele>
        <time>2018-12-20T09:14:53Z</time>
      </trkpt>
      <trkpt lat="39.4656175096" lon="-7.9974893946">
        <ele>171.25</ele>
        <time>2018-12-20T09:15:00Z</time>
      </trkpt>
      <trkpt lat="39.4656461757" lon="-7.9975078348">
        <ele>171.25</ele>
        <time>2018-12-20T09:15:08Z</time>
      </trkpt>
      <trkpt lat="39.4656441640" lon="-7.9975218326">
        <ele>170.77</ele>
        <time>2018-12-20T09:15:20Z</time>
      </trkpt>
      <trkpt lat="39.4656178448" lon="-7.9975314718">
        <ele>170.77</ele>
        <time>2018-12-20T09:15:30Z</time>
      </trkpt>
      <trkpt lat="39.4656131510" lon="-7.9975143727">
        <ele>170.77</ele>
        <time>2018-12-20T09:15:38Z</time>
      </trkpt>
      <trkpt lat="39.4656359497" lon="-7.9975243472">
        <ele>171.25</ele>
        <time>2018-12-20T09:15:46Z</time>
      </trkpt>
      <trkpt lat="39.4656403083" lon="-7.9975818470">
        <ele>170.29</ele>
        <time>2018-12-20T09:15:56Z</time>
      </trkpt>
      <trkpt lat="39.4656464271" lon="-7.9975966830">
        <ele>170.77</ele>
        <time>2018-12-20T09:16:03Z</time>
      </trkpt>
      <trkpt lat="39.4656451698" lon="-7.9976000357">
        <ele>170.77</ele>
        <time>2018-12-20T09:16:17Z</time>
      </trkpt>
      <trkpt lat="39.4656409789" lon="-7.9976464715">
        <ele>170.29</ele>
        <time>2018-12-20T09:16:32Z</time>
      </trkpt>
      <trkpt lat="39.4656396378" lon="-7.9976421129">
        <ele>170.29</ele>
        <time>2018-12-20T09:16:39Z</time>
      </trkpt>
      <trkpt lat="39.4656675495" lon="-7.9975899775">
        <ele>170.29</ele>
        <time>2018-12-20T09:16:53Z</time>
      </trkpt>
      <trkpt lat="39.4656668790" lon="-7.9976126924">
        <ele>170.77</ele>
        <time>2018-12-20T09:17:01Z</time>
      </trkpt>
      <trkpt lat="39.4656480197" lon="-7.9976579547">
        <ele>170.29</ele>
        <time>2018-12-20T09:17:08Z</time>
      </trkpt>
      <trkpt lat="39.4656656217" lon="-7.9976788256">
        <ele>169.33</ele>
        <time>2018-12-20T09:17:10Z</time>
      </trkpt>
      <trkpt lat="39.4657274801" lon="-7.9977440368">
        <ele>167.41</ele>
        <time>2018-12-20T09:17:18Z</time>
      </trkpt>
      <trkpt lat="39.4657351077" lon="-7.9977534246">
        <ele>166.93</ele>
        <time>2018-12-20T09:17:19Z</time>
      </trkpt>
      <trkpt lat="39.4657470100" lon="-7.9977778159">
        <ele>166.45</ele>
        <time>2018-12-20T09:17:21Z</time>
      </trkpt>
      <trkpt lat="39.4658131432" lon="-7.9978402611">
        <ele>165.00</ele>
        <time>2018-12-20T09:17:30Z</time>
      </trkpt>
      <trkpt lat="39.4659001473" lon="-7.9979240801">
        <ele>162.12</ele>
        <time>2018-12-20T09:17:41Z</time>
      </trkpt>
      <trkpt lat="39.4659623411" lon="-7.9979820829">
        <ele>161.16</ele>
        <time>2018-12-20T09:17:50Z</time>
      </trkpt>
      <trkpt lat="39.4659835473" lon="-7.9980347212">
        <ele>160.20</ele>
        <time>2018-12-20T09:17:57Z</time>
      </trkpt>
      <trkpt lat="39.4659843855" lon="-7.9981024470">
        <ele>158.27</ele>
        <time>2018-12-20T09:18:05Z</time>
      </trkpt>
      <trkpt lat="39.4659382850" lon="-7.9981568456">
        <ele>157.31</ele>
        <time>2018-12-20T09:18:13Z</time>
      </trkpt>
      <trkpt lat="39.4658882450" lon="-7.9982015211">
        <ele>155.87</ele>
        <time>2018-12-20T09:18:19Z</time>
      </trkpt>
      <trkpt lat="39.4658652786" lon="-7.9982070532">
        <ele>155.39</ele>
        <time>2018-12-20T09:18:21Z</time>
      </trkpt>
      <trkpt lat="39.4657651987" lon="-7.9982862622">
        <ele>154.43</ele>
        <time>2018-12-20T09:18:30Z</time>
      </trkpt>
      <trkpt lat="39.4657154940" lon="-7.9983631242">
        <ele>152.99</ele>
        <time>2018-12-20T09:18:38Z</time>
      </trkpt>
      <trkpt lat="39.4656793680" lon="-7.9984797165">
        <ele>151.54</ele>
        <time>2018-12-20T09:18:47Z</time>
      </trkpt>
      <trkpt lat="39.4656634424" lon="-7.9985785391">
        <ele>150.10</ele>
        <time>2018-12-20T09:18:55Z</time>
      </trkpt>
      <trkpt lat="39.4656335190" lon="-7.9986824747">
        <ele>148.66</ele>
        <time>2018-12-20T09:19:02Z</time>
      </trkpt>
      <trkpt lat="39.4656154979" lon="-7.9987130687">
        <ele>148.18</ele>
        <time>2018-12-20T09:19:05Z</time>
      </trkpt>
      <trkpt lat="39.4655645359" lon="-7.9988058563">
        <ele>146.74</ele>
        <time>2018-12-20T09:19:12Z</time>
      </trkpt>
      <trkpt lat="39.4655858260" lon="-7.9989160784">
        <ele>144.82</ele>
        <time>2018-12-20T09:19:22Z</time>
      </trkpt>
      <trkpt lat="39.4656103011" lon="-7.9990374483">
        <ele>144.34</ele>
        <time>2018-12-20T09:19:30Z</time>
      </trkpt>
      <trkpt lat="39.4656393025" lon="-7.9991431441">
        <ele>142.41</ele>
        <time>2018-12-20T09:19:39Z</time>
      </trkpt>
      <trkpt lat="39.4656435773" lon="-7.9992021527">
        <ele>140.97</ele>
        <time>2018-12-20T09:19:43Z</time>
      </trkpt>
      <trkpt lat="39.4656796195" lon="-7.9993141349">
        <ele>140.01</ele>
        <time>2018-12-20T09:19:51Z</time>
      </trkpt>
      <trkpt lat="39.4656903483" lon="-7.9993930925">
        <ele>138.57</ele>
        <time>2018-12-20T09:19:57Z</time>
      </trkpt>
      <trkpt lat="39.4657134824" lon="-7.9994966928">
        <ele>137.13</ele>
        <time>2018-12-20T09:20:05Z</time>
      </trkpt>
      <trkpt lat="39.4657376222" lon="-7.9996072501">
        <ele>135.20</ele>
        <time>2018-12-20T09:20:13Z</time>
      </trkpt>
      <trkpt lat="39.4657572359" lon="-7.9996922426">
        <ele>134.24</ele>
        <time>2018-12-20T09:20:20Z</time>
      </trkpt>
      <trkpt lat="39.4657776877" lon="-7.9997530952">
        <ele>132.80</ele>
        <time>2018-12-20T09:20:26Z</time>
      </trkpt>
      <trkpt lat="39.4658661168" lon="-7.9998981860">
        <ele>129.92</ele>
        <time>2018-12-20T09:20:36Z</time>
      </trkpt>
      <trkpt lat="39.4658703078" lon="-7.9999145307">
        <ele>129.92</ele>
        <time>2018-12-20T09:20:37Z</time>
      </trkpt>
      <trkpt lat="39.4658890832" lon="-8.0000046361">
        <ele>128.95</ele>
        <time>2018-12-20T09:20:43Z</time>
      </trkpt>
      <trkpt lat="39.4659001473" lon="-8.0000949930">
        <ele>127.99</ele>
        <time>2018-12-20T09:20:49Z</time>
      </trkpt>
      <trkpt lat="39.4658983871" lon="-8.0001675803">
        <ele>127.99</ele>
        <time>2018-12-20T09:20:53Z</time>
      </trkpt>
      <trkpt lat="39.4658811204" lon="-8.0003439356">
        <ele>127.03</ele>
        <time>2018-12-20T09:21:03Z</time>
      </trkpt>
      <trkpt lat="39.4658743311" lon="-8.0004770402">
        <ele>126.07</ele>
        <time>2018-12-20T09:21:11Z</time>
      </trkpt>
      <trkpt lat="39.4658719841" lon="-8.0006365478">
        <ele>125.59</ele>
        <time>2018-12-20T09:21:20Z</time>
      </trkpt>
      <trkpt lat="39.4658599142" lon="-8.0006798822">
        <ele>125.11</ele>
        <time>2018-12-20T09:21:23Z</time>
      </trkpt>
      <trkpt lat="39.4658093713" lon="-8.0008365400">
        <ele>124.15</ele>
        <time>2018-12-20T09:21:33Z</time>
      </trkpt>
      <trkpt lat="39.4657974690" lon="-8.0009922758">
        <ele>123.67</ele>
        <time>2018-12-20T09:21:42Z</time>
      </trkpt>
      <trkpt lat="39.4658003189" lon="-8.0010417290">
        <ele>123.19</ele>
        <time>2018-12-20T09:21:45Z</time>
      </trkpt>
      <trkpt lat="39.4657927752" lon="-8.0011818744">
        <ele>122.22</ele>
        <time>2018-12-20T09:21:55Z</time>
      </trkpt>
      <trkpt lat="39.4657901768" lon="-8.0011921842">
        <ele>122.22</ele>
        <time>2018-12-20T09:21:56Z</time>
      </trkpt>
      <trkpt lat="39.4657646120" lon="-8.0012709741">
        <ele>121.74</ele>
        <time>2018-12-20T09:22:01Z</time>
      </trkpt>
      <trkpt lat="39.4657277316" lon="-8.0014030728">
        <ele>119.34</ele>
        <time>2018-12-20T09:22:09Z</time>
      </trkpt>
      <trkpt lat="39.4657123089" lon="-8.0015164800">
        <ele>118.38</ele>
        <time>2018-12-20T09:22:16Z</time>
      </trkpt>
      <trkpt lat="39.4657258876" lon="-8.0016038194">
        <ele>117.42</ele>
        <time>2018-12-20T09:22:22Z</time>
      </trkpt>
      <trkpt lat="39.4657163322" lon="-8.0016873870">
        <ele>116.46</ele>
        <time>2018-12-20T09:22:28Z</time>
      </trkpt>
      <trkpt lat="39.4656997360" lon="-8.0018349085">
        <ele>115.98</ele>
        <time>2018-12-20T09:22:38Z</time>
      </trkpt>
      <trkpt lat="39.4656690583" lon="-8.0020031333">
        <ele>115.50</ele>
        <time>2018-12-20T09:22:48Z</time>
      </trkpt>
      <trkpt lat="39.4656396378" lon="-8.0021351483">
        <ele>114.53</ele>
        <time>2018-12-20T09:22:57Z</time>
      </trkpt>
      <trkpt lat="39.4656481035" lon="-8.0022409279">
        <ele>112.61</ele>
        <time>2018-12-20T09:23:04Z</time>
      </trkpt>
      <trkpt lat="39.4656418171" lon="-8.0022720248">
        <ele>111.65</ele>
        <time>2018-12-20T09:23:07Z</time>
      </trkpt>
      <trkpt lat="39.4656497799" lon="-8.0023495574">
        <ele>109.25</ele>
        <time>2018-12-20T09:23:14Z</time>
      </trkpt>
      <trkpt lat="39.4656526297" lon="-8.0023690034">
        <ele>108.77</ele>
        <time>2018-12-20T09:23:15Z</time>
      </trkpt>
      <trkpt lat="39.4656436611" lon="-8.0025137588">
        <ele>107.32</ele>
        <time>2018-12-20T09:23:22Z</time>
      </trkpt>
      <trkpt lat="39.4656355307" lon="-8.0025851727">
        <ele>105.40</ele>
        <time>2018-12-20T09:23:28Z</time>
      </trkpt>
      <trkpt lat="39.4656377099" lon="-8.0026513059">
        <ele>103.48</ele>
        <time>2018-12-20T09:23:33Z</time>
      </trkpt>
      <trkpt lat="39.4656607602" lon="-8.0027732626">
        <ele>102.04</ele>
        <time>2018-12-20T09:23:42Z</time>
      </trkpt>
      <trkpt lat="39.4656585809" lon="-8.0028754380">
        <ele>100.11</ele>
        <time>2018-12-20T09:23:50Z</time>
      </trkpt>
      <trkpt lat="39.4656621851" lon="-8.0029509589">
        <ele>99.15</ele>
        <time>2018-12-20T09:23:55Z</time>
      </trkpt>
      <trkpt lat="39.4656740874" lon="-8.0030909367">
        <ele>96.75</ele>
        <time>2018-12-20T09:24:03Z</time>
      </trkpt>
      <trkpt lat="39.4656738359" lon="-8.0031058565">
        <ele>96.75</ele>
        <time>2018-12-20T09:24:04Z</time>
      </trkpt>
      <trkpt lat="39.4656643644" lon="-8.0032228678">
        <ele>95.79</ele>
        <time>2018-12-20T09:24:13Z</time>
      </trkpt>
      <trkpt lat="39.4656665437" lon="-8.0033118837">
        <ele>94.83</ele>
        <time>2018-12-20T09:24:20Z</time>
      </trkpt>
      <trkpt lat="39.4656611793" lon="-8.0034154002">
        <ele>93.87</ele>
        <time>2018-12-20T09:24:27Z</time>
      </trkpt>
      <trkpt lat="39.4656433258" lon="-8.0034652725">
        <ele>93.39</ele>
        <time>2018-12-20T09:24:31Z</time>
      </trkpt>
      <trkpt lat="39.4656046852" lon="-8.0035619158">
        <ele>91.46</ele>
        <time>2018-12-20T09:24:39Z</time>
      </trkpt>
      <trkpt lat="39.4655916095" lon="-8.0035853013">
        <ele>91.46</ele>
        <time>2018-12-20T09:24:41Z</time>
      </trkpt>
      <trkpt lat="39.4655625243" lon="-8.0037138797">
        <ele>89.54</ele>
        <time>2018-12-20T09:24:48Z</time>
      </trkpt>
      <trkpt lat="39.4655321818" lon="-8.0037822761">
        <ele>89.06</ele>
        <time>2018-12-20T09:24:52Z</time>
      </trkpt>
      <trkpt lat="39.4654958881" lon="-8.0039046519">
        <ele>88.58</ele>
        <time>2018-12-20T09:25:00Z</time>
      </trkpt>
      <trkpt lat="39.4654937088" lon="-8.0039301328">
        <ele>88.10</ele>
        <time>2018-12-20T09:25:02Z</time>
      </trkpt>
      <trkpt lat="39.4654649589" lon="-8.0040533468">
        <ele>86.18</ele>
        <time>2018-12-20T09:25:11Z</time>
      </trkpt>
      <trkpt lat="39.4654230494" lon="-8.0041670054">
        <ele>84.73</ele>
        <time>2018-12-20T09:25:20Z</time>
      </trkpt>
      <trkpt lat="39.4654164277" lon="-8.0041939113">
        <ele>84.73</ele>
        <time>2018-12-20T09:25:22Z</time>
      </trkpt>
      <trkpt lat="39.4653955568" lon="-8.0043475516">
        <ele>83.29</ele>
        <time>2018-12-20T09:25:31Z</time>
      </trkpt>
      <trkpt lat="39.4653832354" lon="-8.0043765530">
        <ele>82.33</ele>
        <time>2018-12-20T09:25:33Z</time>
      </trkpt>
      <trkpt lat="39.4653703272" lon="-8.0044703465">
        <ele>81.37</ele>
        <time>2018-12-20T09:25:40Z</time>
      </trkpt>
      <trkpt lat="39.4653707463" lon="-8.0045022815">
        <ele>80.89</ele>
        <time>2018-12-20T09:25:42Z</time>
      </trkpt>
      <trkpt lat="39.4653981552" lon="-8.0046041217">
        <ele>79.45</ele>
        <time>2018-12-20T09:25:50Z</time>
      </trkpt>
      <trkpt lat="39.4654110633" lon="-8.0046461150">
        <ele>78.97</ele>
        <time>2018-12-20T09:25:59Z</time>
      </trkpt>
      <trkpt lat="39.4654329401" lon="-8.0046887789">
        <ele>78.48</ele>
        <time>2018-12-20T09:26:10Z</time>
      </trkpt>
      <trkpt lat="39.4654751848" lon="-8.0047425069">
        <ele>77.04</ele>
        <time>2018-12-20T09:26:16Z</time>
      </trkpt>
      <trkpt lat="39.4655266497" lon="-8.0048007611">
        <ele>75.60</ele>
        <time>2018-12-20T09:26:24Z</time>
      </trkpt>
      <trkpt lat="39.4655750133" lon="-8.0048614461">
        <ele>74.64</ele>
        <time>2018-12-20T09:26:32Z</time>
      </trkpt>
      <trkpt lat="39.4656234607" lon="-8.0049114861">
        <ele>73.68</ele>
        <time>2018-12-20T09:26:41Z</time>
      </trkpt>
      <trkpt lat="39.4656596705" lon="-8.0049393140">
        <ele>72.72</ele>
        <time>2018-12-20T09:26:54Z</time>
      </trkpt>
      <trkpt lat="39.4657182600" lon="-8.0049829837">
        <ele>71.76</ele>
        <time>2018-12-20T09:27:01Z</time>
      </trkpt>
      <trkpt lat="39.4657725748" lon="-8.0050091352">
        <ele>70.31</ele>
        <time>2018-12-20T09:27:09Z</time>
      </trkpt>
      <trkpt lat="39.4658315834" lon="-8.0050445069">
        <ele>68.87</ele>
        <time>2018-12-20T09:27:16Z</time>
      </trkpt>
      <trkpt lat="39.4659075234" lon="-8.0051035993">
        <ele>66.95</ele>
        <time>2018-12-20T09:27:25Z</time>
      </trkpt>
      <trkpt lat="39.4659876544" lon="-8.0051548965">
        <ele>65.51</ele>
        <time>2018-12-20T09:27:32Z</time>
      </trkpt>
      <trkpt lat="39.4660598226" lon="-8.0051893461">
        <ele>64.07</ele>
        <time>2018-12-20T09:27:37Z</time>
      </trkpt>
      <trkpt lat="39.4661479164" lon="-8.0052532163">
        <ele>62.62</ele>
        <time>2018-12-20T09:27:46Z</time>
      </trkpt>
      <trkpt lat="39.4661943521" lon="-8.0053146556">
        <ele>63.58</ele>
        <time>2018-12-20T09:27:53Z</time>
      </trkpt>
      <trkpt lat="39.4662607368" lon="-8.0054049287">
        <ele>62.14</ele>
        <time>2018-12-20T09:28:01Z</time>
      </trkpt>
      <trkpt lat="39.4662884809" lon="-8.0054817908">
        <ele>60.70</ele>
        <time>2018-12-20T09:28:09Z</time>
      </trkpt>
      <trkpt lat="39.4663302228" lon="-8.0055802781">
        <ele>59.26</ele>
        <time>2018-12-20T09:28:17Z</time>
      </trkpt>
      <trkpt lat="39.4663432147" lon="-8.0055936053">
        <ele>58.78</ele>
        <time>2018-12-20T09:28:22Z</time>
      </trkpt>
      <trkpt lat="39.4663769100" lon="-8.0056902487">
        <ele>57.82</ele>
        <time>2018-12-20T09:28:31Z</time>
      </trkpt>
      <trkpt lat="39.4663857948" lon="-8.0057479162">
        <ele>55.89</ele>
        <time>2018-12-20T09:28:37Z</time>
      </trkpt>
      <trkpt lat="39.4664469827" lon="-8.0058224313">
        <ele>53.97</ele>
        <time>2018-12-20T09:28:47Z</time>
      </trkpt>
      <trkpt lat="39.4665148761" lon="-8.0058859661">
        <ele>53.49</ele>
        <time>2018-12-20T09:28:55Z</time>
      </trkpt>
      <trkpt lat="39.4665695261" lon="-8.0059417058">
        <ele>52.05</ele>
        <time>2018-12-20T09:29:04Z</time>
      </trkpt>
      <trkpt lat="39.4666199014" lon="-8.0059576314">
        <ele>51.09</ele>
        <time>2018-12-20T09:29:12Z</time>
      </trkpt>
      <trkpt lat="39.4666576199" lon="-8.0059788376">
        <ele>49.65</ele>
        <time>2018-12-20T09:29:16Z</time>
      </trkpt>
      <trkpt lat="39.4666822627" lon="-8.0060090125">
        <ele>50.13</ele>
        <time>2018-12-20T09:29:20Z</time>
      </trkpt>
      <trkpt lat="39.4666842744" lon="-8.0060567055">
        <ele>49.16</ele>
        <time>2018-12-20T09:29:23Z</time>
      </trkpt>
      <trkpt lat="39.4666312169" lon="-8.0061042309">
        <ele>47.72</ele>
        <time>2018-12-20T09:29:28Z</time>
      </trkpt>
      <trkpt lat="39.4665997848" lon="-8.0061413627">
        <ele>47.24</ele>
        <time>2018-12-20T09:29:31Z</time>
      </trkpt>
      <trkpt lat="39.4665618148" lon="-8.0061571207">
        <ele>46.76</ele>
        <time>2018-12-20T09:29:38Z</time>
      </trkpt>
      <trkpt lat="39.4665491581" lon="-8.0061760638">
        <ele>46.28</ele>
        <time>2018-12-20T09:29:43Z</time>
      </trkpt>
      <trkpt lat="39.4665287063" lon="-8.0061343219">
        <ele>46.28</ele>
        <time>2018-12-20T09:29:51Z</time>
      </trkpt>
      <trkpt lat="39.4665240962" lon="-8.0061238445">
        <ele>46.76</ele>
        <time>2018-12-20T09:30:10Z</time>
      </trkpt>
      <trkpt lat="39.4665127806" lon="-8.0061370041">
        <ele>46.28</ele>
        <time>2018-12-20T09:30:19Z</time>
      </trkpt>
      <trkpt lat="39.4664494973" lon="-8.0061801709">
        <ele>44.36</ele>
        <time>2018-12-20T09:30:27Z</time>
      </trkpt>
      <trkpt lat="39.4663803466" lon="-8.0062250141">
        <ele>42.92</ele>
        <time>2018-12-20T09:30:35Z</time>
      </trkpt>
      <trkpt lat="39.4663236849" lon="-8.0063218251">
        <ele>41.95</ele>
        <time>2018-12-20T09:30:44Z</time>
      </trkpt>
      <trkpt lat="39.4662617426" lon="-8.0063967593">
        <ele>41.95</ele>
        <time>2018-12-20T09:30:51Z</time>
      </trkpt>
      <trkpt lat="39.4661842939" lon="-8.0064218212">
        <ele>41.47</ele>
        <time>2018-12-20T09:31:00Z</time>
      </trkpt>
      <trkpt lat="39.4661338348" lon="-8.0064616352">
        <ele>41.95</ele>
        <time>2018-12-20T09:31:05Z</time>
      </trkpt>
      <trkpt lat="39.4661127124" lon="-8.0064746272">
        <ele>41.95</ele>
        <time>2018-12-20T09:31:07Z</time>
      </trkpt>
      <trkpt lat="39.4660968706" lon="-8.0064773932">
        <ele>41.95</ele>
        <time>2018-12-20T09:31:09Z</time>
      </trkpt>
      <trkpt lat="39.4660217687" lon="-8.0065941531">
        <ele>41.95</ele>
        <time>2018-12-20T09:31:20Z</time>
      </trkpt>
      <trkpt lat="39.4660132192" lon="-8.0066222325">
        <ele>42.44</ele>
        <time>2018-12-20T09:31:22Z</time>
      </trkpt>
      <trkpt lat="39.4659695495" lon="-8.0066606216">
        <ele>42.44</ele>
        <time>2018-12-20T09:31:30Z</time>
      </trkpt>
      <trkpt lat="39.4659665320" lon="-8.0066718534">
        <ele>41.95</ele>
        <time>2018-12-20T09:31:31Z</time>
      </trkpt>
      <trkpt lat="39.4659344293" lon="-8.0067913793">
        <ele>42.44</ele>
        <time>2018-12-20T09:31:41Z</time>
      </trkpt>
      <trkpt lat="39.4659088645" lon="-8.0068905372">
        <ele>42.44</ele>
        <time>2018-12-20T09:31:48Z</time>
      </trkpt>
      <trkpt lat="39.4658816233" lon="-8.0070206244">
        <ele>41.95</ele>
        <time>2018-12-20T09:31:57Z</time>
      </trkpt>
      <trkpt lat="39.4658101257" lon="-8.0071952194">
        <ele>42.44</ele>
        <time>2018-12-20T09:32:07Z</time>
      </trkpt>
      <trkpt lat="39.4657655340" lon="-8.0073383823">
        <ele>42.44</ele>
        <time>2018-12-20T09:32:16Z</time>
      </trkpt>
      <trkpt lat="39.4657341018" lon="-8.0073704850">
        <ele>42.44</ele>
        <time>2018-12-20T09:32:20Z</time>
      </trkpt>
      <trkpt lat="39.4657144044" lon="-8.0073824711">
        <ele>42.92</ele>
        <time>2018-12-20T09:32:22Z</time>
      </trkpt>
      <trkpt lat="39.4656566530" lon="-8.0074559804">
        <ele>43.40</ele>
        <time>2018-12-20T09:32:28Z</time>
      </trkpt>
      <trkpt lat="39.4655498676" lon="-8.0075466726">
        <ele>42.92</ele>
        <time>2018-12-20T09:32:38Z</time>
      </trkpt>
      <trkpt lat="39.4654546492" lon="-8.0075984728">
        <ele>43.88</ele>
        <time>2018-12-20T09:32:46Z</time>
      </trkpt>
      <trkpt lat="39.4653272443" lon="-8.0076221097">
        <ele>43.88</ele>
        <time>2018-12-20T09:32:56Z</time>
      </trkpt>
      <trkpt lat="39.4652964827" lon="-8.0076408014">
        <ele>44.84</ele>
        <time>2018-12-20T09:32:59Z</time>
      </trkpt>
      <trkpt lat="39.4652670622" lon="-8.0076566432">
        <ele>44.36</ele>
        <time>2018-12-20T09:33:02Z</time>
      </trkpt>
      <trkpt lat="39.4651571754" lon="-8.0076763406">
        <ele>44.84</ele>
        <time>2018-12-20T09:33:11Z</time>
      </trkpt>
      <trkpt lat="39.4650731049" lon="-8.0077267159">
        <ele>45.32</ele>
        <time>2018-12-20T09:33:19Z</time>
      </trkpt>
      <trkpt lat="39.4650646392" lon="-8.0077274702">
        <ele>45.80</ele>
        <time>2018-12-20T09:33:20Z</time>
      </trkpt>
      <trkpt lat="39.4649888668" lon="-8.0078094453">
        <ele>45.80</ele>
        <time>2018-12-20T09:33:29Z</time>
      </trkpt>
      <trkpt lat="39.4649390783" lon="-8.0078662746">
        <ele>46.28</ele>
        <time>2018-12-20T09:33:36Z</time>
      </trkpt>
      <trkpt lat="39.4648971688" lon="-8.0079086032">
        <ele>45.80</ele>
        <time>2018-12-20T09:33:40Z</time>
      </trkpt>
      <trkpt lat="39.4648644794" lon="-8.0079201702">
        <ele>46.28</ele>
        <time>2018-12-20T09:33:43Z</time>
      </trkpt>
      <trkpt lat="39.4648429379" lon="-8.0079242773">
        <ele>46.28</ele>
        <time>2018-12-20T09:33:45Z</time>
      </trkpt>
      <trkpt lat="39.4647654053" lon="-8.0080142990">
        <ele>46.76</ele>
        <time>2018-12-20T09:33:54Z</time>
      </trkpt>
      <trkpt lat="39.4647368230" lon="-8.0080439709">
        <ele>47.24</ele>
        <time>2018-12-20T09:33:57Z</time>
      </trkpt>
      <trkpt lat="39.4646585360" lon="-8.0081523489">
        <ele>46.76</ele>
        <time>2018-12-20T09:34:06Z</time>
      </trkpt>
      <trkpt lat="39.4646170456" lon="-8.0082007963">
        <ele>47.24</ele>
        <time>2018-12-20T09:34:11Z</time>
      </trkpt>
      <trkpt lat="39.4645880442" lon="-8.0082627386">
        <ele>47.24</ele>
        <time>2018-12-20T09:34:15Z</time>
      </trkpt>
      <trkpt lat="39.4645498227" lon="-8.0083043966">
        <ele>47.72</ele>
        <time>2018-12-20T09:34:19Z</time>
      </trkpt>
      <trkpt lat="39.4645047281" lon="-8.0083698593">
        <ele>47.72</ele>
        <time>2018-12-20T09:34:24Z</time>
      </trkpt>
      <trkpt lat="39.4644459710" lon="-8.0084540974">
        <ele>48.20</ele>
        <time>2018-12-20T09:34:33Z</time>
      </trkpt>
      <trkpt lat="39.4643741380" lon="-8.0085822567">
        <ele>48.20</ele>
        <time>2018-12-20T09:34:43Z</time>
      </trkpt>
      <trkpt lat="39.4643398561" lon="-8.0086570233">
        <ele>48.68</ele>
        <time>2018-12-20T09:34:49Z</time>
      </trkpt>
      <trkpt lat="39.4642759860" lon="-8.0087286048">
        <ele>48.68</ele>
        <time>2018-12-20T09:34:57Z</time>
      </trkpt>
      <trkpt lat="39.4642406981" lon="-8.0087676644">
        <ele>49.16</ele>
        <time>2018-12-20T09:35:01Z</time>
      </trkpt>
      <trkpt lat="39.4642056618" lon="-8.0087925587">
        <ele>49.16</ele>
        <time>2018-12-20T09:35:04Z</time>
      </trkpt>
      <trkpt lat="39.4641713798" lon="-8.0088344682">
        <ele>50.13</ele>
        <time>2018-12-20T09:35:12Z</time>
      </trkpt>
      <trkpt lat="39.4641728885" lon="-8.0088888668">
        <ele>49.65</ele>
        <time>2018-12-20T09:35:20Z</time>
      </trkpt>
      <trkpt lat="39.4641922507" lon="-8.0089098215">
        <ele>50.61</ele>
        <time>2018-12-20T09:35:23Z</time>
      </trkpt>
      <trkpt lat="39.4642850384" lon="-8.0089161918">
        <ele>51.57</ele>
        <time>2018-12-20T09:35:32Z</time>
      </trkpt>
      <trkpt lat="39.4643648341" lon="-8.0089377332">
        <ele>52.05</ele>
        <time>2018-12-20T09:35:39Z</time>
      </trkpt>
      <trkpt lat="39.4644632377" lon="-8.0089760385">
        <ele>52.53</ele>
        <time>2018-12-20T09:35:47Z</time>
      </trkpt>
      <trkpt lat="39.4645671733" lon="-8.0090060458">
        <ele>52.53</ele>
        <time>2018-12-20T09:35:56Z</time>
      </trkpt>
      <trkpt lat="39.4646178000" lon="-8.0090301856">
        <ele>52.53</ele>
        <time>2018-12-20T09:36:04Z</time>
      </trkpt>
      <trkpt lat="39.4646922313" lon="-8.0090547446">
        <ele>53.49</ele>
        <time>2018-12-20T09:36:13Z</time>
      </trkpt>
      <trkpt lat="39.4647052232" lon="-8.0090537388">
        <ele>53.01</ele>
        <time>2018-12-20T09:36:17Z</time>
      </trkpt>
      <trkpt lat="39.4647586998" lon="-8.0090862606">
        <ele>53.49</ele>
        <time>2018-12-20T09:36:22Z</time>
      </trkpt>
      <trkpt lat="39.4648032077" lon="-8.0091025215">
        <ele>53.97</ele>
        <time>2018-12-20T09:36:26Z</time>
      </trkpt>
      <trkpt lat="39.4649238233" lon="-8.0091545731">
        <ele>53.97</ele>
        <time>2018-12-20T09:36:36Z</time>
      </trkpt>
      <trkpt lat="39.4649995118" lon="-8.0092039425">
        <ele>54.45</ele>
        <time>2018-12-20T09:36:44Z</time>
      </trkpt>
      <trkpt lat="39.4650389906" lon="-8.0092361290">
        <ele>54.93</ele>
        <time>2018-12-20T09:36:51Z</time>
      </trkpt>
      <trkpt lat="39.4650592748" lon="-8.0092506297">
        <ele>54.93</ele>
        <time>2018-12-20T09:36:54Z</time>
      </trkpt>
      <trkpt lat="39.4651498832" lon="-8.0093286652">
        <ele>55.89</ele>
        <time>2018-12-20T09:37:04Z</time>
      </trkpt>
      <trkpt lat="39.4652096462" lon="-8.0094046053">
        <ele>56.37</ele>
        <time>2018-12-20T09:37:12Z</time>
      </trkpt>
      <trkpt lat="39.4652891904" lon="-8.0094994884">
        <ele>57.34</ele>
        <time>2018-12-20T09:37:21Z</time>
      </trkpt>
      <trkpt lat="39.4653543178" lon="-8.0096102133">
        <ele>57.34</ele>
        <time>2018-12-20T09:37:30Z</time>
      </trkpt>
      <trkpt lat="39.4654343650" lon="-8.0097325053">
        <ele>57.82</ele>
        <time>2018-12-20T09:37:40Z</time>
      </trkpt>
      <trkpt lat="39.4654913619" lon="-8.0098422244">
        <ele>58.30</ele>
        <time>2018-12-20T09:37:49Z</time>
      </trkpt>
      <trkpt lat="39.4655559864" lon="-8.0099568050">
        <ele>58.30</ele>
        <time>2018-12-20T09:37:58Z</time>
      </trkpt>
      <trkpt lat="39.4656261429" lon="-8.0100624170">
        <ele>58.78</ele>
        <time>2018-12-20T09:38:07Z</time>
      </trkpt>
      <trkpt lat="39.4656313397" lon="-8.0100736488">
        <ele>58.78</ele>
        <time>2018-12-20T09:38:08Z</time>
      </trkpt>
      <trkpt lat="39.4657149073" lon="-8.0102046579">
        <ele>58.78</ele>
        <time>2018-12-20T09:38:19Z</time>
      </trkpt>
      <trkpt lat="39.4657883327" lon="-8.0103079230">
        <ele>59.26</ele>
        <time>2018-12-20T09:38:28Z</time>
      </trkpt>
      <trkpt lat="39.4658589922" lon="-8.0103876349">
        <ele>58.78</ele>
        <time>2018-12-20T09:38:36Z</time>
      </trkpt>
      <trkpt lat="39.4659166597" lon="-8.0104825180">
        <ele>58.78</ele>
        <time>2018-12-20T09:38:44Z</time>
      </trkpt>
      <trkpt lat="39.4659858942" lon="-8.0105807539">
        <ele>57.82</ele>
        <time>2018-12-20T09:38:53Z</time>
      </trkpt>
      <trkpt lat="39.4660690427" lon="-8.0106799956">
        <ele>57.82</ele>
        <time>2018-12-20T09:39:03Z</time>
      </trkpt>
      <trkpt lat="39.4661534484" lon="-8.0107768066">
        <ele>57.34</ele>
        <time>2018-12-20T09:39:12Z</time>
      </trkpt>
      <trkpt lat="39.4662271254" lon="-8.0108880345">
        <ele>57.34</ele>
        <time>2018-12-20T09:39:21Z</time>
      </trkpt>
      <trkpt lat="39.4663116988" lon="-8.0109738652">
        <ele>56.86</ele>
        <time>2018-12-20T09:39:30Z</time>
      </trkpt>
      <trkpt lat="39.4663868006" lon="-8.0110650603">
        <ele>56.37</ele>
        <time>2018-12-20T09:39:39Z</time>
      </trkpt>
      <trkpt lat="39.4664671831" lon="-8.0112028588">
        <ele>55.89</ele>
        <time>2018-12-20T09:39:50Z</time>
      </trkpt>
      <trkpt lat="39.4665118586" lon="-8.0112684891">
        <ele>55.89</ele>
        <time>2018-12-20T09:39:56Z</time>
      </trkpt>
      <trkpt lat="39.4665624853" lon="-8.0113828182">
        <ele>55.89</ele>
        <time>2018-12-20T09:40:06Z</time>
      </trkpt>
      <trkpt lat="39.4666167162" lon="-8.0114983208">
        <ele>55.41</ele>
        <time>2018-12-20T09:40:15Z</time>
      </trkpt>
      <trkpt lat="39.4666604698" lon="-8.0116178468">
        <ele>54.93</ele>
        <time>2018-12-20T09:40:25Z</time>
      </trkpt>
      <trkpt lat="39.4667070732" lon="-8.0117141549">
        <ele>54.93</ele>
        <time>2018-12-20T09:40:35Z</time>
      </trkpt>
      <trkpt lat="39.4667450432" lon="-8.0118218623">
        <ele>54.93</ele>
        <time>2018-12-20T09:40:43Z</time>
      </trkpt>
      <trkpt lat="39.4667602982" lon="-8.0118739139">
        <ele>54.45</ele>
        <time>2018-12-20T09:40:47Z</time>
      </trkpt>
      <trkpt lat="39.4667778164" lon="-8.0119304080">
        <ele>53.97</ele>
        <time>2018-12-20T09:40:51Z</time>
      </trkpt>
      <trkpt lat="39.4667784870" lon="-8.0120708048">
        <ele>53.97</ele>
        <time>2018-12-20T09:41:01Z</time>
      </trkpt>
      <trkpt lat="39.4667671714" lon="-8.0121750757">
        <ele>53.01</ele>
        <time>2018-12-20T09:41:08Z</time>
      </trkpt>
      <trkpt lat="39.4667265192" lon="-8.0123035703">
        <ele>53.01</ele>
        <time>2018-12-20T09:41:17Z</time>
      </trkpt>
      <trkpt lat="39.4667125214" lon="-8.0123888142">
        <ele>51.57</ele>
        <time>2018-12-20T09:41:26Z</time>
      </trkpt>
      <trkpt lat="39.4666963443" lon="-8.0124653410">
        <ele>50.61</ele>
        <time>2018-12-20T09:41:34Z</time>
      </trkpt>
      <trkpt lat="39.4666669238" lon="-8.0125762336">
        <ele>50.13</ele>
        <time>2018-12-20T09:41:43Z</time>
      </trkpt>
      <trkpt lat="39.4666173868" lon="-8.0127085000">
        <ele>49.16</ele>
        <time>2018-12-20T09:41:53Z</time>
      </trkpt>
      <trkpt lat="39.4666111004" lon="-8.0127236713">
        <ele>48.68</ele>
        <time>2018-12-20T09:41:54Z</time>
      </trkpt>
      <trkpt lat="39.4665369205" lon="-8.0128617212">
        <ele>48.20</ele>
        <time>2018-12-20T09:42:05Z</time>
      </trkpt>
      <trkpt lat="39.4664550293" lon="-8.0129726138">
        <ele>48.20</ele>
        <time>2018-12-20T09:42:15Z</time>
      </trkpt>
      <trkpt lat="39.4663944282" lon="-8.0130593665">
        <ele>47.72</ele>
        <time>2018-12-20T09:42:23Z</time>
      </trkpt>
      <trkpt lat="39.4663658459" lon="-8.0131818261">
        <ele>47.72</ele>
        <time>2018-12-20T09:42:32Z</time>
      </trkpt>
      <trkpt lat="39.4663857948" lon="-8.0133062974">
        <ele>47.72</ele>
        <time>2018-12-20T09:42:40Z</time>
      </trkpt>
      <trkpt lat="39.4664152991" lon="-8.0134412460">
        <ele>47.72</ele>
        <time>2018-12-20T09:42:50Z</time>
      </trkpt>
      <trkpt lat="39.4664572924" lon="-8.0135785416">
        <ele>47.24</ele>
        <time>2018-12-20T09:43:00Z</time>
      </trkpt>
      <trkpt lat="39.4664885569" lon="-8.0137274880">
        <ele>47.24</ele>
        <time>2018-12-20T09:43:11Z</time>
      </trkpt>
      <trkpt lat="39.4665114395" lon="-8.0138257239">
        <ele>47.24</ele>
        <time>2018-12-20T09:43:19Z</time>
      </trkpt>
      <trkpt lat="39.4665199891" lon="-8.0138650350">
        <ele>47.72</ele>
        <time>2018-12-20T09:43:22Z</time>
      </trkpt>
      <trkpt lat="39.4665558636" lon="-8.0140107963">
        <ele>47.24</ele>
        <time>2018-12-20T09:43:32Z</time>
      </trkpt>
      <trkpt lat="39.4665795844" lon="-8.0141309090">
        <ele>47.24</ele>
        <time>2018-12-20T09:43:41Z</time>
      </trkpt>
      <trkpt lat="39.4665862899" lon="-8.0142241158">
        <ele>46.76</ele>
        <time>2018-12-20T09:43:48Z</time>
      </trkpt>
      <trkpt lat="39.4664918259" lon="-8.0142878182">
        <ele>47.24</ele>
        <time>2018-12-20T09:43:57Z</time>
      </trkpt>
      <trkpt lat="39.4664719608" lon="-8.0142948590">
        <ele>46.76</ele>
        <time>2018-12-20T09:43:59Z</time>
      </trkpt>
      <trkpt lat="39.4663453940" lon="-8.0143396184">
        <ele>47.24</ele>
        <time>2018-12-20T09:44:10Z</time>
      </trkpt>
      <trkpt lat="39.4662515167" lon="-8.0143663567">
        <ele>47.72</ele>
        <time>2018-12-20T09:44:18Z</time>
      </trkpt>
      <trkpt lat="39.4662098587" lon="-8.0143872276">
        <ele>47.24</ele>
        <time>2018-12-20T09:44:22Z</time>
      </trkpt>
      <trkpt lat="39.4660894107" lon="-8.0144208390">
        <ele>47.24</ele>
        <time>2018-12-20T09:44:33Z</time>
      </trkpt>
      <trkpt lat="39.4659830444" lon="-8.0144527741">
        <ele>47.72</ele>
        <time>2018-12-20T09:44:42Z</time>
      </trkpt>
      <trkpt lat="39.4658739958" lon="-8.0144958571">
        <ele>47.72</ele>
        <time>2018-12-20T09:44:51Z</time>
      </trkpt>
      <trkpt lat="39.4657931942" lon="-8.0145127047">
        <ele>47.72</ele>
        <time>2018-12-20T09:44:59Z</time>
      </trkpt>
      <trkpt lat="39.4657418970" lon="-8.0145205837">
        <ele>47.72</ele>
        <time>2018-12-20T09:45:04Z</time>
      </trkpt>
      <trkpt lat="39.4656573236" lon="-8.0145318154">
        <ele>48.20</ele>
        <time>2018-12-20T09:45:12Z</time>
      </trkpt>
      <trkpt lat="39.4655423239" lon="-8.0145733897">
        <ele>49.16</ele>
        <time>2018-12-20T09:45:22Z</time>
      </trkpt>
      <trkpt lat="39.4654542301" lon="-8.0145904049">
        <ele>49.65</ele>
        <time>2018-12-20T09:45:30Z</time>
      </trkpt>
      <trkpt lat="39.4653739315" lon="-8.0146132875">
        <ele>49.16</ele>
        <time>2018-12-20T09:45:38Z</time>
      </trkpt>
      <trkpt lat="39.4652979076" lon="-8.0146237649">
        <ele>50.13</ele>
        <time>2018-12-20T09:45:47Z</time>
      </trkpt>
      <trkpt lat="39.4652492926" lon="-8.0146385171">
        <ele>50.61</ele>
        <time>2018-12-20T09:45:56Z</time>
      </trkpt>
      <trkpt lat="39.4651989173" lon="-8.0146610644">
        <ele>51.09</ele>
        <time>2018-12-20T09:46:02Z</time>
      </trkpt>
      <trkpt lat="39.4652145077" lon="-8.0146922451">
        <ele>50.13</ele>
        <time>2018-12-20T09:46:06Z</time>
      </trkpt>
      <trkpt lat="39.4653067924" lon="-8.0148046464">
        <ele>49.65</ele>
        <time>2018-12-20T09:46:16Z</time>
      </trkpt>
      <trkpt lat="39.4653512165" lon="-8.0148894712">
        <ele>49.65</ele>
        <time>2018-12-20T09:46:25Z</time>
      </trkpt>
      <trkpt lat="39.4653790444" lon="-8.0149364937">
        <ele>49.16</ele>
        <time>2018-12-20T09:46:31Z</time>
      </trkpt>
      <trkpt lat="39.4654569123" lon="-8.0150353163">
        <ele>49.16</ele>
        <time>2018-12-20T09:46:41Z</time>
      </trkpt>
      <trkpt lat="39.4654709101" lon="-8.0150726158">
        <ele>49.16</ele>
        <time>2018-12-20T09:46:45Z</time>
      </trkpt>
      <trkpt lat="39.4654797949" lon="-8.0150882062">
        <ele>48.20</ele>
        <time>2018-12-20T09:46:47Z</time>
      </trkpt>
      <trkpt lat="39.4655554835" lon="-8.0151883699">
        <ele>48.20</ele>
        <time>2018-12-20T09:46:56Z</time>
      </trkpt>
      <trkpt lat="39.4655962195" lon="-8.0152701773">
        <ele>48.20</ele>
        <time>2018-12-20T09:47:05Z</time>
      </trkpt>
      <trkpt lat="39.4656600058" lon="-8.0153738614">
        <ele>48.68</ele>
        <time>2018-12-20T09:47:13Z</time>
      </trkpt>
      <trkpt lat="39.4656685553" lon="-8.0153830815">
        <ele>47.72</ele>
        <time>2018-12-20T09:47:14Z</time>
      </trkpt>
      <trkpt lat="39.4657393824" lon="-8.0154916272">
        <ele>48.20</ele>
        <time>2018-12-20T09:47:24Z</time>
      </trkpt>
      <trkpt lat="39.4658095390" lon="-8.0156014301">
        <ele>48.20</ele>
        <time>2018-12-20T09:47:34Z</time>
      </trkpt>
      <trkpt lat="39.4658549689" lon="-8.0157063715">
        <ele>48.20</ele>
        <time>2018-12-20T09:47:42Z</time>
      </trkpt>
      <trkpt lat="39.4659024104" lon="-8.0157773662">
        <ele>47.72</ele>
        <time>2018-12-20T09:47:48Z</time>
      </trkpt>
      <trkpt lat="39.4659923483" lon="-8.0159231275">
        <ele>48.20</ele>
        <time>2018-12-20T09:48:00Z</time>
      </trkpt>
      <trkpt lat="39.4660755806" lon="-8.0160728283">
        <ele>47.72</ele>
        <time>2018-12-20T09:48:12Z</time>
      </trkpt>
      <trkpt lat="39.4661318231" lon="-8.0162132252">
        <ele>47.24</ele>
        <time>2018-12-20T09:48:23Z</time>
      </trkpt>
      <trkpt lat="39.4661375228" lon="-8.0162237026">
        <ele>48.20</ele>
        <time>2018-12-20T09:48:24Z</time>
      </trkpt>
      <trkpt lat="39.4662475772" lon="-8.0163891613">
        <ele>47.24</ele>
        <time>2018-12-20T09:48:37Z</time>
      </trkpt>
      <trkpt lat="39.4662828650" lon="-8.0164863076">
        <ele>47.72</ele>
        <time>2018-12-20T09:48:44Z</time>
      </trkpt>
      <trkpt lat="39.4663659297" lon="-8.0166648421">
        <ele>46.76</ele>
        <time>2018-12-20T09:48:56Z</time>
      </trkpt>
      <trkpt lat="39.4664635789" lon="-8.0168126151">
        <ele>47.24</ele>
        <time>2018-12-20T09:49:08Z</time>
      </trkpt>
      <trkpt lat="39.4665240962" lon="-8.0169639923">
        <ele>47.24</ele>
        <time>2018-12-20T09:49:19Z</time>
      </trkpt>
      <trkpt lat="39.4666127767" lon="-8.0171071552">
        <ele>46.76</ele>
        <time>2018-12-20T09:49:30Z</time>
      </trkpt>
      <trkpt lat="39.4666732103" lon="-8.0172263458">
        <ele>47.24</ele>
        <time>2018-12-20T09:49:39Z</time>
      </trkpt>
      <trkpt lat="39.4667255972" lon="-8.0173234083">
        <ele>46.76</ele>
        <time>2018-12-20T09:49:47Z</time>
      </trkpt>
      <trkpt lat="39.4668030459" lon="-8.0174404196">
        <ele>46.28</ele>
        <time>2018-12-20T09:49:57Z</time>
      </trkpt>
      <trkpt lat="39.4668303709" lon="-8.0174809881">
        <ele>46.28</ele>
        <time>2018-12-20T09:50:01Z</time>
      </trkpt>
      <trkpt lat="39.4668977614" lon="-8.0176088959">
        <ele>46.28</ele>
        <time>2018-12-20T09:50:10Z</time>
      </trkpt>
      <trkpt lat="39.4669880345" lon="-8.0177370552">
        <ele>46.28</ele>
        <time>2018-12-20T09:50:20Z</time>
      </trkpt>
      <trkpt lat="39.4670452829" lon="-8.0178593472">
        <ele>45.80</ele>
        <time>2018-12-20T09:50:29Z</time>
      </trkpt>
      <trkpt lat="39.4671225641" lon="-8.0179616902">
        <ele>46.28</ele>
        <time>2018-12-20T09:50:38Z</time>
      </trkpt>
      <trkpt lat="39.4672073051" lon="-8.0181227904">
        <ele>44.84</ele>
        <time>2018-12-20T09:50:50Z</time>
      </trkpt>
      <trkpt lat="39.4672493823" lon="-8.0182225350">
        <ele>44.36</ele>
        <time>2018-12-20T09:50:58Z</time>
      </trkpt>
      <trkpt lat="39.4673252385" lon="-8.0183461681">
        <ele>44.36</ele>
        <time>2018-12-20T09:51:07Z</time>
      </trkpt>
      <trkpt lat="39.4674035255" lon="-8.0184792727">
        <ele>43.88</ele>
        <time>2018-12-20T09:51:17Z</time>
      </trkpt>
      <trkpt lat="39.4674620312" lon="-8.0186030734">
        <ele>43.40</ele>
        <time>2018-12-20T09:51:27Z</time>
      </trkpt>
      <trkpt lat="39.4675382227" lon="-8.0187576357">
        <ele>42.44</ele>
        <time>2018-12-20T09:51:39Z</time>
      </trkpt>
      <trkpt lat="39.4675466046" lon="-8.0187834520">
        <ele>42.44</ele>
        <time>2018-12-20T09:51:41Z</time>
      </trkpt>
      <trkpt lat="39.4676016737" lon="-8.0189133715">
        <ele>41.95</ele>
        <time>2018-12-20T09:51:51Z</time>
      </trkpt>
      <trkpt lat="39.4676459301" lon="-8.0190381780">
        <ele>41.47</ele>
        <time>2018-12-20T09:52:01Z</time>
      </trkpt>
      <trkpt lat="39.4677000772" lon="-8.0191933271">
        <ele>40.51</ele>
        <time>2018-12-20T09:52:12Z</time>
      </trkpt>
      <trkpt lat="39.4677177630" lon="-8.0193124339">
        <ele>40.99</ele>
        <time>2018-12-20T09:52:21Z</time>
      </trkpt>
      <trkpt lat="39.4677450042" lon="-8.0194298644">
        <ele>40.51</ele>
        <time>2018-12-20T09:52:30Z</time>
      </trkpt>
      <trkpt lat="39.4677565712" lon="-8.0195493903">
        <ele>39.55</ele>
        <time>2018-12-20T09:52:39Z</time>
      </trkpt>
      <trkpt lat="39.4677624386" lon="-8.0195773859">
        <ele>40.03</ele>
        <time>2018-12-20T09:52:41Z</time>
      </trkpt>
      <trkpt lat="39.4677586667" lon="-8.0197314452">
        <ele>40.03</ele>
        <time>2018-12-20T09:52:51Z</time>
      </trkpt>
      <trkpt lat="39.4677630253" lon="-8.0198901147">
        <ele>39.55</ele>
        <time>2018-12-20T09:53:01Z</time>
      </trkpt>
      <trkpt lat="39.4677542243" lon="-8.0200112332">
        <ele>39.55</ele>
        <time>2018-12-20T09:53:10Z</time>
      </trkpt>
      <trkpt lat="39.4677442499" lon="-8.0201397277">
        <ele>40.51</ele>
        <time>2018-12-20T09:53:19Z</time>
      </trkpt>
      <trkpt lat="39.4677413162" lon="-8.0201674718">
        <ele>40.03</ele>
        <time>2018-12-20T09:53:21Z</time>
      </trkpt>
      <trkpt lat="39.4677201938" lon="-8.0203524604">
        <ele>39.55</ele>
        <time>2018-12-20T09:53:32Z</time>
      </trkpt>
      <trkpt lat="39.4676999934" lon="-8.0205197632">
        <ele>39.55</ele>
        <time>2018-12-20T09:53:41Z</time>
      </trkpt>
      <trkpt lat="39.4677004125" lon="-8.0206363555">
        <ele>40.03</ele>
        <time>2018-12-20T09:53:50Z</time>
      </trkpt>
      <trkpt lat="39.4677011669" lon="-8.0206979625">
        <ele>40.51</ele>
        <time>2018-12-20T09:53:59Z</time>
      </trkpt>
      <trkpt lat="39.4676896837" lon="-8.0208467413">
        <ele>40.99</ele>
        <time>2018-12-20T09:54:08Z</time>
      </trkpt>
      <trkpt lat="39.4677015021" lon="-8.0209980346">
        <ele>40.99</ele>
        <time>2018-12-20T09:54:18Z</time>
      </trkpt>
      <trkpt lat="39.4676941261" lon="-8.0210305564">
        <ele>40.99</ele>
        <time>2018-12-20T09:54:20Z</time>
      </trkpt>
      <trkpt lat="39.4676864985" lon="-8.0211633258">
        <ele>41.47</ele>
        <time>2018-12-20T09:54:29Z</time>
      </trkpt>
      <trkpt lat="39.4676910248" lon="-8.0212050676">
        <ele>40.99</ele>
        <time>2018-12-20T09:54:32Z</time>
      </trkpt>
      <trkpt lat="39.4676776137" lon="-8.0213171337">
        <ele>41.47</ele>
        <time>2018-12-20T09:54:40Z</time>
      </trkpt>
      <trkpt lat="39.4676826429" lon="-8.0214317981">
        <ele>40.99</ele>
        <time>2018-12-20T09:54:48Z</time>
      </trkpt>
      <trkpt lat="39.4676623587" lon="-8.0215748772">
        <ele>41.95</ele>
        <time>2018-12-20T09:54:57Z</time>
      </trkpt>
      <trkpt lat="39.4676551502" lon="-8.0216990970">
        <ele>42.44</ele>
        <time>2018-12-20T09:55:05Z</time>
      </trkpt>
      <trkpt lat="39.4676431641" lon="-8.0218358897">
        <ele>42.44</ele>
        <time>2018-12-20T09:55:14Z</time>
      </trkpt>
      <trkpt lat="39.4676379673" lon="-8.0219876859">
        <ele>41.95</ele>
        <time>2018-12-20T09:55:23Z</time>
      </trkpt>
      <trkpt lat="39.4676443376" lon="-8.0221469421">
        <ele>41.47</ele>
        <time>2018-12-20T09:55:33Z</time>
      </trkpt>
      <trkpt lat="39.4676572457" lon="-8.0223068688">
        <ele>40.99</ele>
        <time>2018-12-20T09:55:43Z</time>
      </trkpt>
      <trkpt lat="39.4676535577" lon="-8.0224510375">
        <ele>41.47</ele>
        <time>2018-12-20T09:55:52Z</time>
      </trkpt>
      <trkpt lat="39.4676611014" lon="-8.0225808732">
        <ele>40.99</ele>
        <time>2018-12-20T09:56:01Z</time>
      </trkpt>
      <trkpt lat="39.4676854089" lon="-8.0227404647">
        <ele>40.51</ele>
        <time>2018-12-20T09:56:11Z</time>
      </trkpt>
      <trkpt lat="39.4676797930" lon="-8.0228984635">
        <ele>40.03</ele>
        <time>2018-12-20T09:56:21Z</time>
      </trkpt>
      <trkpt lat="39.4676600955" lon="-8.0230620783">
        <ele>40.03</ele>
        <time>2018-12-20T09:56:31Z</time>
      </trkpt>
      <trkpt lat="39.4676533062" lon="-8.0231657624">
        <ele>40.03</ele>
        <time>2018-12-20T09:56:38Z</time>
      </trkpt>
      <trkpt lat="39.4676530547" lon="-8.0233490746">
        <ele>40.03</ele>
        <time>2018-12-20T09:56:48Z</time>
      </trkpt>
      <trkpt lat="39.4676391408" lon="-8.0235013738">
        <ele>40.51</ele>
        <time>2018-12-20T09:56:57Z</time>
      </trkpt>
      <trkpt lat="39.4676468521" lon="-8.0236965045">
        <ele>40.51</ele>
        <time>2018-12-20T09:57:08Z</time>
      </trkpt>
      <trkpt lat="39.4676472712" lon="-8.0237128492">
        <ele>39.55</ele>
        <time>2018-12-20T09:57:09Z</time>
      </trkpt>
      <trkpt lat="39.4676110614" lon="-8.0238638073">
        <ele>40.03</ele>
        <time>2018-12-20T09:57:19Z</time>
      </trkpt>
      <trkpt lat="39.4675928727" lon="-8.0240171123">
        <ele>39.55</ele>
        <time>2018-12-20T09:57:29Z</time>
      </trkpt>
      <trkpt lat="39.4675875083" lon="-8.0241485406">
        <ele>39.55</ele>
        <time>2018-12-20T09:57:38Z</time>
      </trkpt>
      <trkpt lat="39.4675875921" lon="-8.0241628736">
        <ele>39.07</ele>
        <time>2018-12-20T09:57:39Z</time>
      </trkpt>
      <trkpt lat="39.4675855804" lon="-8.0243004207">
        <ele>39.07</ele>
        <time>2018-12-20T09:57:48Z</time>
      </trkpt>
      <trkpt lat="39.4675947167" lon="-8.0244779494">
        <ele>39.07</ele>
        <time>2018-12-20T09:57:59Z</time>
      </trkpt>
      <trkpt lat="39.4675840717" lon="-8.0246357806">
        <ele>39.07</ele>
        <time>2018-12-20T09:58:08Z</time>
      </trkpt>
      <trkpt lat="39.4675629493" lon="-8.0247792788">
        <ele>39.07</ele>
        <time>2018-12-20T09:58:18Z</time>
      </trkpt>
      <trkpt lat="39.4675519690" lon="-8.0249482580">
        <ele>38.11</ele>
        <time>2018-12-20T09:58:28Z</time>
      </trkpt>
      <trkpt lat="39.4675296731" lon="-8.0251014791">
        <ele>38.11</ele>
        <time>2018-12-20T09:58:37Z</time>
      </trkpt>
      <trkpt lat="39.4675212912" lon="-8.0252671055">
        <ele>39.07</ele>
        <time>2018-12-20T09:58:46Z</time>
      </trkpt>
      <trkpt lat="39.4675378036" lon="-8.0254300497">
        <ele>38.59</ele>
        <time>2018-12-20T09:58:55Z</time>
      </trkpt>
      <trkpt lat="39.4675163459" lon="-8.0255818460">
        <ele>39.07</ele>
        <time>2018-12-20T09:59:05Z</time>
      </trkpt>
      <trkpt lat="39.4675097242" lon="-8.0257296190">
        <ele>39.07</ele>
        <time>2018-12-20T09:59:15Z</time>
      </trkpt>
      <trkpt lat="39.4675077964" lon="-8.0258718599">
        <ele>39.07</ele>
        <time>2018-12-20T09:59:24Z</time>
      </trkpt>
      <trkpt lat="39.4675001688" lon="-8.0260011926">
        <ele>40.03</ele>
        <time>2018-12-20T09:59:32Z</time>
      </trkpt>
      <trkpt lat="39.4675047789" lon="-8.0261538271">
        <ele>39.55</ele>
        <time>2018-12-20T09:59:42Z</time>
      </trkpt>
      <trkpt lat="39.4675080478" lon="-8.0262403283">
        <ele>40.03</ele>
        <time>2018-12-20T09:59:48Z</time>
      </trkpt>
      <trkpt lat="39.4675349537" lon="-8.0264026858">
        <ele>40.03</ele>
        <time>2018-12-20T09:59:58Z</time>
      </trkpt>
      <trkpt lat="39.4675259013" lon="-8.0265464354">
        <ele>40.03</ele>
        <time>2018-12-20T10:00:08Z</time>
      </trkpt>
      <trkpt lat="39.4675363787" lon="-8.0267149117">
        <ele>40.51</ele>
        <time>2018-12-20T10:00:18Z</time>
      </trkpt>
      <trkpt lat="39.4675571658" lon="-8.0268874113">
        <ele>40.51</ele>
        <time>2018-12-20T10:00:28Z</time>
      </trkpt>
      <trkpt lat="39.4675821438" lon="-8.0270452425">
        <ele>40.51</ele>
        <time>2018-12-20T10:00:37Z</time>
      </trkpt>
      <trkpt lat="39.4675751869" lon="-8.0271770898">
        <ele>40.99</ele>
        <time>2018-12-20T10:00:46Z</time>
      </trkpt>
      <trkpt lat="39.4675916154" lon="-8.0273265392">
        <ele>40.51</ele>
        <time>2018-12-20T10:00:56Z</time>
      </trkpt>
      <trkpt lat="39.4676139951" lon="-8.0274308100">
        <ele>40.99</ele>
        <time>2018-12-20T10:01:03Z</time>
      </trkpt>
      <trkpt lat="39.4676125702" lon="-8.0275037326">
        <ele>40.99</ele>
        <time>2018-12-20T10:01:08Z</time>
      </trkpt>
      <trkpt lat="39.4676447567" lon="-8.0276439618">
        <ele>40.51</ele>
        <time>2018-12-20T10:01:17Z</time>
      </trkpt>
      <trkpt lat="39.4676486123" lon="-8.0277594645">
        <ele>40.51</ele>
        <time>2018-12-20T10:01:25Z</time>
      </trkpt>
      <trkpt lat="39.4676564913" lon="-8.0278965086">
        <ele>40.99</ele>
        <time>2018-12-20T10:01:33Z</time>
      </trkpt>
      <trkpt lat="39.4676703215" lon="-8.0280305352">
        <ele>41.47</ele>
        <time>2018-12-20T10:01:41Z</time>
      </trkpt>
      <trkpt lat="39.4676692318" lon="-8.0282016098">
        <ele>40.99</ele>
        <time>2018-12-20T10:01:51Z</time>
      </trkpt>
      <trkpt lat="39.4676704891" lon="-8.0283482093">
        <ele>41.47</ele>
        <time>2018-12-20T10:02:00Z</time>
      </trkpt>
      <trkpt lat="39.4676607661" lon="-8.0284944735">
        <ele>41.47</ele>
        <time>2018-12-20T10:02:09Z</time>
      </trkpt>
      <trkpt lat="39.4676408172" lon="-8.0286323559">
        <ele>40.99</ele>
        <time>2018-12-20T10:02:18Z</time>
      </trkpt>
      <trkpt lat="39.4676414877" lon="-8.0287587550">
        <ele>40.99</ele>
        <time>2018-12-20T10:02:26Z</time>
      </trkpt>
      <trkpt lat="39.4676085468" lon="-8.0288921110">
        <ele>41.47</ele>
        <time>2018-12-20T10:02:35Z</time>
      </trkpt>
      <trkpt lat="39.4675861672" lon="-8.0290010758">
        <ele>40.99</ele>
        <time>2018-12-20T10:02:43Z</time>
      </trkpt>
      <trkpt lat="39.4675462693" lon="-8.0291175004">
        <ele>40.99</ele>
        <time>2018-12-20T10:02:52Z</time>
      </trkpt>
      <trkpt lat="39.4674998336" lon="-8.0292433128">
        <ele>41.95</ele>
        <time>2018-12-20T10:03:01Z</time>
      </trkpt>
      <trkpt lat="39.4674834888" lon="-8.0293458235">
        <ele>41.95</ele>
        <time>2018-12-20T10:03:08Z</time>
      </trkpt>
      <trkpt lat="39.4674464408" lon="-8.0294813588">
        <ele>43.40</ele>
        <time>2018-12-20T10:03:18Z</time>
      </trkpt>
      <trkpt lat="39.4673880190" lon="-8.0296359211">
        <ele>43.40</ele>
        <time>2018-12-20T10:03:28Z</time>
      </trkpt>
      <trkpt lat="39.4673280045" lon="-8.0297577940">
        <ele>43.88</ele>
        <time>2018-12-20T10:03:37Z</time>
      </trkpt>
      <trkpt lat="39.4672225602" lon="-8.0298798345">
        <ele>44.36</ele>
        <time>2018-12-20T10:03:48Z</time>
      </trkpt>
      <trkpt lat="39.4671998452" lon="-8.0298962630">
        <ele>43.88</ele>
        <time>2018-12-20T10:03:50Z</time>
      </trkpt>
      <trkpt lat="39.4671026990" lon="-8.0299544334">
        <ele>44.36</ele>
        <time>2018-12-20T10:04:00Z</time>
      </trkpt>
      <trkpt lat="39.4670050498" lon="-8.0300332233">
        <ele>44.36</ele>
        <time>2018-12-20T10:04:10Z</time>
      </trkpt>
      <trkpt lat="39.4668900501" lon="-8.0301023740">
        <ele>43.40</ele>
        <time>2018-12-20T10:04:20Z</time>
      </trkpt>
      <trkpt lat="39.4667923171" lon="-8.0301831756">
        <ele>43.40</ele>
        <time>2018-12-20T10:04:30Z</time>
      </trkpt>
      <trkpt lat="39.4667400140" lon="-8.0302958284">
        <ele>42.92</ele>
        <time>2018-12-20T10:04:39Z</time>
      </trkpt>
      <trkpt lat="39.4666777365" lon="-8.0304383207">
        <ele>43.88</ele>
        <time>2018-12-20T10:04:49Z</time>
      </trkpt>
      <trkpt lat="39.4666594639" lon="-8.0305801425">
        <ele>43.88</ele>
        <time>2018-12-20T10:04:58Z</time>
      </trkpt>
      <trkpt lat="39.4666330609" lon="-8.0307394825">
        <ele>44.36</ele>
        <time>2018-12-20T10:05:09Z</time>
      </trkpt>
      <trkpt lat="39.4666145369" lon="-8.0309056118">
        <ele>45.32</ele>
        <time>2018-12-20T10:05:20Z</time>
      </trkpt>
      <trkpt lat="39.4665927440" lon="-8.0310519598">
        <ele>45.80</ele>
        <time>2018-12-20T10:05:30Z</time>
      </trkpt>
      <trkpt lat="39.4665582944" lon="-8.0311631877">
        <ele>46.76</ele>
        <time>2018-12-20T10:05:38Z</time>
      </trkpt>
      <trkpt lat="39.4664999563" lon="-8.0312822107">
        <ele>47.72</ele>
        <time>2018-12-20T10:05:47Z</time>
      </trkpt>
      <trkpt lat="39.4664456416" lon="-8.0314190872">
        <ele>47.24</ele>
        <time>2018-12-20T10:05:57Z</time>
      </trkpt>
      <trkpt lat="39.4663675223" lon="-8.0315574724">
        <ele>47.72</ele>
        <time>2018-12-20T10:06:08Z</time>
      </trkpt>
      <trkpt lat="39.4663085975" lon="-8.0316764116">
        <ele>48.20</ele>
        <time>2018-12-20T10:06:17Z</time>
      </trkpt>
      <trkpt lat="39.4662397821" lon="-8.0317969434">
        <ele>48.20</ele>
        <time>2018-12-20T10:06:26Z</time>
      </trkpt>
      <trkpt lat="39.4661844615" lon="-8.0319266114">
        <ele>48.20</ele>
        <time>2018-12-20T10:06:35Z</time>
      </trkpt>
      <trkpt lat="39.4661122095" lon="-8.0320434552">
        <ele>48.68</ele>
        <time>2018-12-20T10:06:44Z</time>
      </trkpt>
      <trkpt lat="39.4660678692" lon="-8.0321767274">
        <ele>48.20</ele>
        <time>2018-12-20T10:06:53Z</time>
      </trkpt>
      <trkpt lat="39.4660241995" lon="-8.0323314574">
        <ele>49.16</ele>
        <time>2018-12-20T10:07:04Z</time>
      </trkpt>
      <trkpt lat="39.4659885764" lon="-8.0324547552">
        <ele>48.20</ele>
        <time>2018-12-20T10:07:12Z</time>
      </trkpt>
      <trkpt lat="39.4659216050" lon="-8.0326114129">
        <ele>48.68</ele>
        <time>2018-12-20T10:07:23Z</time>
      </trkpt>
      <trkpt lat="39.4658756722" lon="-8.0327794701">
        <ele>48.20</ele>
        <time>2018-12-20T10:07:34Z</time>
      </trkpt>
      <trkpt lat="39.4658195972" lon="-8.0329608545">
        <ele>48.68</ele>
        <time>2018-12-20T10:07:46Z</time>
      </trkpt>
      <trkpt lat="39.4658014923" lon="-8.0330223776">
        <ele>48.20</ele>
        <time>2018-12-20T10:07:50Z</time>
      </trkpt>
      <trkpt lat="39.4657715689" lon="-8.0331393890">
        <ele>48.20</ele>
        <time>2018-12-20T10:07:58Z</time>
      </trkpt>
      <trkpt lat="39.4657286536" lon="-8.0333004054">
        <ele>48.68</ele>
        <time>2018-12-20T10:08:09Z</time>
      </trkpt>
      <trkpt lat="39.4657234568" lon="-8.0333133135">
        <ele>48.68</ele>
        <time>2018-12-20T10:08:10Z</time>
      </trkpt>
      <trkpt lat="39.4656707346" lon="-8.0334624276">
        <ele>48.68</ele>
        <time>2018-12-20T10:08:20Z</time>
      </trkpt>
      <trkpt lat="39.4656172581" lon="-8.0336132180">
        <ele>48.68</ele>
        <time>2018-12-20T10:08:30Z</time>
      </trkpt>
      <trkpt lat="39.4655517116" lon="-8.0337459873">
        <ele>48.68</ele>
        <time>2018-12-20T10:08:39Z</time>
      </trkpt>
      <trkpt lat="39.4654724188" lon="-8.0338820256">
        <ele>48.20</ele>
        <time>2018-12-20T10:08:49Z</time>
      </trkpt>
      <trkpt lat="39.4653630350" lon="-8.0339956842">
        <ele>48.68</ele>
        <time>2018-12-20T10:09:00Z</time>
      </trkpt>
      <trkpt lat="39.4652684033" lon="-8.0341005418">
        <ele>49.16</ele>
        <time>2018-12-20T10:09:10Z</time>
      </trkpt>
      <trkpt lat="39.4651636295" lon="-8.0341841932">
        <ele>49.16</ele>
        <time>2018-12-20T10:09:20Z</time>
      </trkpt>
      <trkpt lat="39.4650551677" lon="-8.0343126878">
        <ele>49.16</ele>
        <time>2018-12-20T10:09:31Z</time>
      </trkpt>
      <trkpt lat="39.4649607036" lon="-8.0344051402">
        <ele>49.16</ele>
        <time>2018-12-20T10:09:41Z</time>
      </trkpt>
      <trkpt lat="39.4648520742" lon="-8.0345331319">
        <ele>48.68</ele>
        <time>2018-12-20T10:09:53Z</time>
      </trkpt>
      <trkpt lat="39.4647618011" lon="-8.0346587766">
        <ele>49.16</ele>
        <time>2018-12-20T10:10:03Z</time>
      </trkpt>
      <trkpt lat="39.4646941591" lon="-8.0347697530">
        <ele>49.16</ele>
        <time>2018-12-20T10:10:12Z</time>
      </trkpt>
      <trkpt lat="39.4646210689" lon="-8.0349041987">
        <ele>49.16</ele>
        <time>2018-12-20T10:10:22Z</time>
      </trkpt>
      <trkpt lat="39.4645535946" lon="-8.0350244790">
        <ele>49.65</ele>
        <time>2018-12-20T10:10:31Z</time>
      </trkpt>
      <trkpt lat="39.4644929096" lon="-8.0351472739">
        <ele>49.65</ele>
        <time>2018-12-20T10:10:41Z</time>
      </trkpt>
      <trkpt lat="39.4644439593" lon="-8.0352519639">
        <ele>50.13</ele>
        <time>2018-12-20T10:10:48Z</time>
      </trkpt>
      <trkpt lat="39.4644248486" lon="-8.0354179256">
        <ele>50.61</ele>
        <time>2018-12-20T10:10:59Z</time>
      </trkpt>
      <trkpt lat="39.4644105993" lon="-8.0355536286">
        <ele>50.61</ele>
        <time>2018-12-20T10:11:08Z</time>
      </trkpt>
      <trkpt lat="39.4644147903" lon="-8.0356496852">
        <ele>51.57</ele>
        <time>2018-12-20T10:11:15Z</time>
      </trkpt>
      <trkpt lat="39.4644057378" lon="-8.0357590690">
        <ele>51.09</ele>
        <time>2018-12-20T10:11:22Z</time>
      </trkpt>
      <trkpt lat="39.4644186459" lon="-8.0359297246">
        <ele>51.57</ele>
        <time>2018-12-20T10:11:32Z</time>
      </trkpt>
      <trkpt lat="39.4644540176" lon="-8.0360893160">
        <ele>51.09</ele>
        <time>2018-12-20T10:11:42Z</time>
      </trkpt>
      <trkpt lat="39.4644877128" lon="-8.0362537690">
        <ele>51.57</ele>
        <time>2018-12-20T10:11:52Z</time>
      </trkpt>
      <trkpt lat="39.4645264372" lon="-8.0364457984">
        <ele>51.57</ele>
        <time>2018-12-20T10:12:04Z</time>
      </trkpt>
      <trkpt lat="39.4645350706" lon="-8.0365086626">
        <ele>51.09</ele>
        <time>2018-12-20T10:12:08Z</time>
      </trkpt>
      <trkpt lat="39.4645368308" lon="-8.0365360714">
        <ele>51.57</ele>
        <time>2018-12-20T10:12:10Z</time>
      </trkpt>
      <trkpt lat="39.4645724539" lon="-8.0366689246">
        <ele>51.09</ele>
        <time>2018-12-20T10:12:20Z</time>
      </trkpt>
      <trkpt lat="39.4645957556" lon="-8.0368174519">
        <ele>51.57</ele>
        <time>2018-12-20T10:12:30Z</time>
      </trkpt>
      <trkpt lat="39.4646161236" lon="-8.0369349662">
        <ele>51.09</ele>
        <time>2018-12-20T10:12:37Z</time>
      </trkpt>
      <trkpt lat="39.4646292832" lon="-8.0370508041">
        <ele>51.57</ele>
        <time>2018-12-20T10:12:44Z</time>
      </trkpt>
      <trkpt lat="39.4645445421" lon="-8.0372429173">
        <ele>51.09</ele>
        <time>2018-12-20T10:12:56Z</time>
      </trkpt>
      <trkpt lat="39.4644579571" lon="-8.0373678915">
        <ele>51.57</ele>
        <time>2018-12-20T10:13:06Z</time>
      </trkpt>
      <trkpt lat="39.4643936679" lon="-8.0374837294">
        <ele>51.57</ele>
        <time>2018-12-20T10:13:15Z</time>
      </trkpt>
      <trkpt lat="39.4643860403" lon="-8.0374958832">
        <ele>51.09</ele>
        <time>2018-12-20T10:13:16Z</time>
      </trkpt>
      <trkpt lat="39.4642883912" lon="-8.0375956278">
        <ele>50.61</ele>
        <time>2018-12-20T10:13:27Z</time>
      </trkpt>
      <trkpt lat="39.4642771594" lon="-8.0376225337">
        <ele>50.13</ele>
        <time>2018-12-20T10:13:35Z</time>
      </trkpt>
      <trkpt lat="39.4642132055" lon="-8.0376911815">
        <ele>51.09</ele>
        <time>2018-12-20T10:13:45Z</time>
      </trkpt>
      <trkpt lat="39.4642145466" lon="-8.0377050117">
        <ele>44.84</ele>
        <time>2018-12-20T10:13:54Z</time>
      </trkpt>
      <trkpt lat="39.4642144628" lon="-8.0377020780">
        <ele>53.49</ele>
        <time>2018-12-20T10:13:55Z</time>
      </trkpt>
      <trkpt lat="39.4642159715" lon="-8.0377006531">
        <ele>52.05</ele>
        <time>2018-12-20T10:13:56Z</time>
      </trkpt>
      <trkpt lat="39.4642299693" lon="-8.0377009884">
        <ele>49.65</ele>
        <time>2018-12-20T10:14:08Z</time>
      </trkpt>
      <trkpt lat="39.4642033987" lon="-8.0376998149">
        <ele>50.61</ele>
        <time>2018-12-20T10:14:24Z</time>
      </trkpt>
      <trkpt lat="39.4642059971" lon="-8.0377133097">
        <ele>50.61</ele>
        <time>2018-12-20T10:14:28Z</time>
      </trkpt>
      <trkpt lat="39.4642311428" lon="-8.0378362723">
        <ele>49.65</ele>
        <time>2018-12-20T10:14:34Z</time>
      </trkpt>
      <trkpt lat="39.4642508402" lon="-8.0378482584">
        <ele>49.16</ele>
        <time>2018-12-20T10:14:40Z</time>
      </trkpt>
      <trkpt lat="39.4642546959" lon="-8.0378643516">
        <ele>48.68</ele>
        <time>2018-12-20T10:14:46Z</time>
      </trkpt>
      <trkpt lat="39.4643907342" lon="-8.0380024016">
        <ele>47.72</ele>
        <time>2018-12-20T10:14:55Z</time>
      </trkpt>
      <trkpt lat="39.4644794147" lon="-8.0380366836">
        <ele>48.68</ele>
        <time>2018-12-20T10:15:02Z</time>
      </trkpt>
      <trkpt lat="39.4645618089" lon="-8.0380585603">
        <ele>47.24</ele>
        <time>2018-12-20T10:15:09Z</time>
      </trkpt>
      <trkpt lat="39.4646497350" lon="-8.0380876455">
        <ele>47.24</ele>
        <time>2018-12-20T10:15:15Z</time>
      </trkpt>
      <trkpt lat="39.4647426903" lon="-8.0381250288">
        <ele>47.24</ele>
        <time>2018-12-20T10:15:21Z</time>
      </trkpt>
      <trkpt lat="39.4647659082" lon="-8.0381448101">
        <ele>46.76</ele>
        <time>2018-12-20T10:15:26Z</time>
      </trkpt>
      <trkpt lat="39.4648105837" lon="-8.0381573830">
        <ele>46.76</ele>
        <time>2018-12-20T10:15:31Z</time>
      </trkpt>
      <trkpt lat="39.4649586920" lon="-8.0381914135">
        <ele>45.32</ele>
        <time>2018-12-20T10:15:44Z</time>
      </trkpt>
      <trkpt lat="39.4650135934" lon="-8.0381944310">
        <ele>37.15</ele>
        <time>2018-12-20T10:15:49Z</time>
      </trkpt>
      <trkpt lat="39.4650229812" lon="-8.0381948501">
        <ele>51.57</ele>
        <time>2018-12-20T10:15:50Z</time>
      </trkpt>
      <trkpt lat="39.4650332071" lon="-8.0381981190">
        <ele>46.28</ele>
        <time>2018-12-20T10:15:51Z</time>
      </trkpt>
      <trkpt lat="39.4651586004" lon="-8.0382577982">
        <ele>45.32</ele>
        <time>2018-12-20T10:16:02Z</time>
      </trkpt>
      <trkpt lat="39.4652321097" lon="-8.0382638332">
        <ele>45.32</ele>
        <time>2018-12-20T10:16:08Z</time>
      </trkpt>
      <trkpt lat="39.4652486220" lon="-8.0382563733">
        <ele>46.76</ele>
        <time>2018-12-20T10:16:10Z</time>
      </trkpt>
      <trkpt lat="39.4652589317" lon="-8.0382528529">
        <ele>44.36</ele>
        <time>2018-12-20T10:16:12Z</time>
      </trkpt>
      <trkpt lat="39.4653436728" lon="-8.0382682756">
        <ele>44.36</ele>
        <time>2018-12-20T10:16:18Z</time>
      </trkpt>
      <trkpt lat="39.4654384721" lon="-8.0382557027">
        <ele>44.84</ele>
        <time>2018-12-20T10:16:23Z</time>
      </trkpt>
      <trkpt lat="39.4655040186" lon="-8.0382356700">
        <ele>44.84</ele>
        <time>2018-12-20T10:16:30Z</time>
      </trkpt>
      <trkpt lat="39.4655346125" lon="-8.0382443871">
        <ele>44.36</ele>
        <time>2018-12-20T10:16:37Z</time>
      </trkpt>
      <trkpt lat="39.4655429106" lon="-8.0382382683">
        <ele>44.36</ele>
        <time>2018-12-20T10:16:43Z</time>
      </trkpt>
      <trkpt lat="39.4655316789" lon="-8.0382387713">
        <ele>44.84</ele>
        <time>2018-12-20T10:16:49Z</time>
      </trkpt>
      <trkpt lat="39.4655430783" lon="-8.0382469855">
        <ele>44.84</ele>
        <time>2018-12-20T10:16:54Z</time>
      </trkpt>
      <trkpt lat="39.4655621052" lon="-8.0382349156">
        <ele>44.84</ele>
        <time>2018-12-20T10:16:57Z</time>
      </trkpt>
      <trkpt lat="39.4655626919" lon="-8.0382478237">
        <ele>44.36</ele>
        <time>2018-12-20T10:17:02Z</time>
      </trkpt>
      <trkpt lat="39.4655730017" lon="-8.0382636655">
        <ele>44.36</ele>
        <time>2018-12-20T10:17:04Z</time>
      </trkpt>
      <trkpt lat="39.4656831399" lon="-8.0383048207">
        <ele>44.36</ele>
        <time>2018-12-20T10:17:09Z</time>
      </trkpt>
      <trkpt lat="39.4657674618" lon="-8.0383417010">
        <ele>44.36</ele>
        <time>2018-12-20T10:17:15Z</time>
      </trkpt>
      <trkpt lat="39.4657920208" lon="-8.0383473169">
        <ele>44.36</ele>
        <time>2018-12-20T10:17:22Z</time>
      </trkpt>
      <trkpt lat="39.4659004826" lon="-8.0383745581">
        <ele>44.36</ele>
        <time>2018-12-20T10:17:28Z</time>
      </trkpt>
      <trkpt lat="39.4659884926" lon="-8.0383942556">
        <ele>44.36</ele>
        <time>2018-12-20T10:17:35Z</time>
      </trkpt>
      <trkpt lat="39.4660019036" lon="-8.0384054035">
        <ele>44.36</ele>
        <time>2018-12-20T10:17:39Z</time>
      </trkpt>
      <trkpt lat="39.4661077671" lon="-8.0384341534">
        <ele>44.84</ele>
        <time>2018-12-20T10:17:46Z</time>
      </trkpt>
      <trkpt lat="39.4661935978" lon="-8.0384556949">
        <ele>44.84</ele>
        <time>2018-12-20T10:17:52Z</time>
      </trkpt>
      <trkpt lat="39.4662314840" lon="-8.0384831876">
        <ele>44.84</ele>
        <time>2018-12-20T10:18:00Z</time>
      </trkpt>
      <trkpt lat="39.4663550332" lon="-8.0385079142">
        <ele>44.36</ele>
        <time>2018-12-20T10:18:06Z</time>
      </trkpt>
      <trkpt lat="39.4664196577" lon="-8.0385406036">
        <ele>44.36</ele>
        <time>2018-12-20T10:18:12Z</time>
      </trkpt>
      <trkpt lat="39.4664209150" lon="-8.0385270249">
        <ele>44.36</ele>
        <time>2018-12-20T10:18:17Z</time>
      </trkpt>
      <trkpt lat="39.4664745592" lon="-8.0385380890">
        <ele>43.40</ele>
        <time>2018-12-20T10:18:22Z</time>
      </trkpt>
      <trkpt lat="39.4666421972" lon="-8.0385775678">
        <ele>42.92</ele>
        <time>2018-12-20T10:18:30Z</time>
      </trkpt>
      <trkpt lat="39.4666845258" lon="-8.0385802500">
        <ele>43.40</ele>
        <time>2018-12-20T10:18:36Z</time>
      </trkpt>
      <trkpt lat="39.4667303748" lon="-8.0385849439">
        <ele>42.44</ele>
        <time>2018-12-20T10:18:42Z</time>
      </trkpt>
      <trkpt lat="39.4668789022" lon="-8.0385724548">
        <ele>42.44</ele>
        <time>2018-12-20T10:18:50Z</time>
      </trkpt>
      <trkpt lat="39.4669393357" lon="-8.0385106802">
        <ele>41.47</ele>
        <time>2018-12-20T10:18:57Z</time>
      </trkpt>
      <trkpt lat="39.4669380784" lon="-8.0384821817">
        <ele>40.51</ele>
        <time>2018-12-20T10:19:03Z</time>
      </trkpt>
      <trkpt lat="39.4670364819" lon="-8.0384845287">
        <ele>40.03</ele>
        <time>2018-12-20T10:19:09Z</time>
      </trkpt>
      <trkpt lat="39.4670562632" lon="-8.0384898093">
        <ele>39.55</ele>
        <time>2018-12-20T10:19:10Z</time>
      </trkpt>
      <trkpt lat="39.4671389926" lon="-8.0384613946">
        <ele>39.07</ele>
        <time>2018-12-20T10:19:16Z</time>
      </trkpt>
      <trkpt lat="39.4671809021" lon="-8.0384675972">
        <ele>39.07</ele>
        <time>2018-12-20T10:19:22Z</time>
      </trkpt>
      <trkpt lat="39.4672767073" lon="-8.0384762306">
        <ele>39.07</ele>
        <time>2018-12-20T10:19:26Z</time>
      </trkpt>
      <trkpt lat="39.4673112407" lon="-8.0385113508">
        <ele>38.59</ele>
        <time>2018-12-20T10:19:33Z</time>
      </trkpt>
      <trkpt lat="39.4673348777" lon="-8.0385390949">
        <ele>38.11</ele>
        <time>2018-12-20T10:19:36Z</time>
      </trkpt>
      <trkpt lat="39.4674089737" lon="-8.0386110116">
        <ele>38.11</ele>
        <time>2018-12-20T10:19:40Z</time>
      </trkpt>
      <trkpt lat="39.4675236382" lon="-8.0387381651">
        <ele>38.59</ele>
        <time>2018-12-20T10:19:48Z</time>
      </trkpt>
      <trkpt lat="39.4675134961" lon="-8.0387415178">
        <ele>37.63</ele>
        <time>2018-12-20T10:19:56Z</time>
      </trkpt>
      <trkpt lat="39.4675139990" lon="-8.0387460440">
        <ele>37.63</ele>
        <time>2018-12-20T10:19:58Z</time>
      </trkpt>
      <trkpt lat="39.4675346185" lon="-8.0388035439">
        <ele>38.11</ele>
        <time>2018-12-20T10:20:05Z</time>
      </trkpt>
      <trkpt lat="39.4675476104" lon="-8.0388946552">
        <ele>38.11</ele>
        <time>2018-12-20T10:20:11Z</time>
      </trkpt>
      <trkpt lat="39.4675976504" lon="-8.0390768778">
        <ele>38.11</ele>
        <time>2018-12-20T10:20:17Z</time>
      </trkpt>
      <trkpt lat="39.4675995782" lon="-8.0390983354">
        <ele>38.11</ele>
        <time>2018-12-20T10:20:23Z</time>
      </trkpt>
      <trkpt lat="39.4676051103" lon="-8.0391331203">
        <ele>38.59</ele>
        <time>2018-12-20T10:20:26Z</time>
      </trkpt>
      <trkpt lat="39.4676072896" lon="-8.0392854195">
        <ele>37.63</ele>
        <time>2018-12-20T10:20:32Z</time>
      </trkpt>
      <trkpt lat="39.4676133245" lon="-8.0393937137">
        <ele>38.59</ele>
        <time>2018-12-20T10:20:37Z</time>
      </trkpt>
      <trkpt lat="39.4676314294" lon="-8.0394512136">
        <ele>38.11</ele>
        <time>2018-12-20T10:20:43Z</time>
      </trkpt>
      <trkpt lat="39.4676238857" lon="-8.0394980684">
        <ele>38.59</ele>
        <time>2018-12-20T10:20:50Z</time>
      </trkpt>
      <trkpt lat="39.4675646257" lon="-8.0396227073">
        <ele>39.07</ele>
        <time>2018-12-20T10:20:55Z</time>
      </trkpt>
      <trkpt lat="39.4675372168" lon="-8.0396980606">
        <ele>39.55</ele>
        <time>2018-12-20T10:21:01Z</time>
      </trkpt>
      <trkpt lat="39.4674635399" lon="-8.0397748388">
        <ele>40.51</ele>
        <time>2018-12-20T10:21:07Z</time>
      </trkpt>
      <trkpt lat="39.4674262404" lon="-8.0398044270">
        <ele>41.47</ele>
        <time>2018-12-20T10:21:09Z</time>
      </trkpt>
      <trkpt lat="39.4674123265" lon="-8.0398067739">
        <ele>41.47</ele>
        <time>2018-12-20T10:21:13Z</time>
      </trkpt>
      <trkpt lat="39.4673240650" lon="-8.0398819596">
        <ele>42.44</ele>
        <time>2018-12-20T10:21:19Z</time>
      </trkpt>
      <trkpt lat="39.4673200417" lon="-8.0398720689">
        <ele>42.44</ele>
        <time>2018-12-20T10:21:24Z</time>
      </trkpt>
      <trkpt lat="39.4673052058" lon="-8.0398994777">
        <ele>42.92</ele>
        <time>2018-12-20T10:21:28Z</time>
      </trkpt>
      <trkpt lat="39.4673115760" lon="-8.0398952868">
        <ele>42.92</ele>
        <time>2018-12-20T10:21:31Z</time>
      </trkpt>
      <trkpt lat="39.4672737736" lon="-8.0400506034">
        <ele>43.40</ele>
        <time>2018-12-20T10:21:38Z</time>
      </trkpt>
      <trkpt lat="39.4672747795" lon="-8.0400921777">
        <ele>43.40</ele>
        <time>2018-12-20T10:21:45Z</time>
      </trkpt>
      <trkpt lat="39.4672846701" lon="-8.0402251147">
        <ele>43.40</ele>
        <time>2018-12-20T10:21:51Z</time>
      </trkpt>
      <trkpt lat="39.4673114084" lon="-8.0404211674">
        <ele>43.88</ele>
        <time>2018-12-20T10:21:59Z</time>
      </trkpt>
      <trkpt lat="39.4673147611" lon="-8.0404258613">
        <ele>43.40</ele>
        <time>2018-12-20T10:22:06Z</time>
      </trkpt>
      <trkpt lat="39.4673085585" lon="-8.0404366739">
        <ele>43.88</ele>
        <time>2018-12-20T10:22:09Z</time>
      </trkpt>
      <trkpt lat="39.4673276693" lon="-8.0406235904">
        <ele>43.88</ele>
        <time>2018-12-20T10:22:16Z</time>
      </trkpt>
      <trkpt lat="39.4673318602" lon="-8.0407557730">
        <ele>43.40</ele>
        <time>2018-12-20T10:22:22Z</time>
      </trkpt>
      <trkpt lat="39.4673358835" lon="-8.0407716986">
        <ele>43.88</ele>
        <time>2018-12-20T10:22:28Z</time>
      </trkpt>
      <trkpt lat="39.4673326984" lon="-8.0408826750">
        <ele>44.84</ele>
        <time>2018-12-20T10:22:34Z</time>
      </trkpt>
      <trkpt lat="39.4673404936" lon="-8.0410338845">
        <ele>44.36</ele>
        <time>2018-12-20T10:22:39Z</time>
      </trkpt>
      <trkpt lat="39.4673530664" lon="-8.0411702581">
        <ele>44.36</ele>
        <time>2018-12-20T10:22:46Z</time>
      </trkpt>
      <trkpt lat="39.4673305191" lon="-8.0412104912">
        <ele>43.88</ele>
        <time>2018-12-20T10:22:53Z</time>
      </trkpt>
      <trkpt lat="39.4673301838" lon="-8.0412961543">
        <ele>44.84</ele>
        <time>2018-12-20T10:23:00Z</time>
      </trkpt>
      <trkpt lat="39.4673358835" lon="-8.0413201265">
        <ele>45.32</ele>
        <time>2018-12-20T10:23:01Z</time>
      </trkpt>
      <trkpt lat="39.4674023520" lon="-8.0414010957">
        <ele>44.84</ele>
        <time>2018-12-20T10:23:07Z</time>
      </trkpt>
      <trkpt lat="39.4674036093" lon="-8.0413767882">
        <ele>43.88</ele>
        <time>2018-12-20T10:23:13Z</time>
      </trkpt>
      <trkpt lat="39.4674282521" lon="-8.0413784645">
        <ele>44.84</ele>
        <time>2018-12-20T10:23:15Z</time>
      </trkpt>
      <trkpt lat="39.4675600994" lon="-8.0414462741">
        <ele>44.36</ele>
        <time>2018-12-20T10:23:21Z</time>
      </trkpt>
      <trkpt lat="39.4675829820" lon="-8.0414506327">
        <ele>44.36</ele>
        <time>2018-12-20T10:23:22Z</time>
      </trkpt>
      <trkpt lat="39.4677330181" lon="-8.0414832383">
        <ele>43.40</ele>
        <time>2018-12-20T10:23:30Z</time>
      </trkpt>
      <trkpt lat="39.4678546395" lon="-8.0414836574">
        <ele>42.92</ele>
        <time>2018-12-20T10:23:35Z</time>
      </trkpt>
      <trkpt lat="39.4679032546" lon="-8.0414729286">
        <ele>42.44</ele>
        <time>2018-12-20T10:23:39Z</time>
      </trkpt>
      <trkpt lat="39.4678929448" lon="-8.0414720066">
        <ele>41.95</ele>
        <time>2018-12-20T10:23:40Z</time>
      </trkpt>
      <trkpt lat="39.4678632729" lon="-8.0414661393">
        <ele>42.44</ele>
        <time>2018-12-20T10:23:42Z</time>
      </trkpt>
      <trkpt lat="39.4679242093" lon="-8.0414960627">
        <ele>41.95</ele>
        <time>2018-12-20T10:23:49Z</time>
      </trkpt>
      <trkpt lat="39.4680345990" lon="-8.0415605195">
        <ele>41.47</ele>
        <time>2018-12-20T10:23:56Z</time>
      </trkpt>
      <trkpt lat="39.4680332579" lon="-8.0415592622">
        <ele>40.51</ele>
        <time>2018-12-20T10:24:01Z</time>
      </trkpt>
      <trkpt lat="39.4680171646" lon="-8.0415664706">
        <ele>40.99</ele>
        <time>2018-12-20T10:24:05Z</time>
      </trkpt>
      <trkpt lat="39.4680468366" lon="-8.0416809674">
        <ele>40.99</ele>
        <time>2018-12-20T10:24:10Z</time>
      </trkpt>
      <trkpt lat="39.4680960383" lon="-8.0418122280">
        <ele>40.51</ele>
        <time>2018-12-20T10:24:17Z</time>
      </trkpt>
      <trkpt lat="39.4681033306" lon="-8.0418313388">
        <ele>40.51</ele>
        <time>2018-12-20T10:24:22Z</time>
      </trkpt>
      <trkpt lat="39.4681121316" lon="-8.0420105439">
        <ele>40.51</ele>
        <time>2018-12-20T10:24:28Z</time>
      </trkpt>
      <trkpt lat="39.4681234471" lon="-8.0420954525">
        <ele>40.51</ele>
        <time>2018-12-20T10:24:34Z</time>
      </trkpt>
      <trkpt lat="39.4681233633" lon="-8.0420939438">
        <ele>40.03</ele>
        <time>2018-12-20T10:24:36Z</time>
      </trkpt>
      <trkpt lat="39.4681151491" lon="-8.0420839693">
        <ele>40.03</ele>
        <time>2018-12-20T10:24:39Z</time>
      </trkpt>
      <trkpt lat="39.4681851380" lon="-8.0422547087">
        <ele>40.03</ele>
        <time>2018-12-20T10:24:46Z</time>
      </trkpt>
      <trkpt lat="39.4682000577" lon="-8.0422830395">
        <ele>40.03</ele>
        <time>2018-12-20T10:24:50Z</time>
      </trkpt>
      <trkpt lat="39.4681884069" lon="-8.0422925111">
        <ele>40.03</ele>
        <time>2018-12-20T10:24:53Z</time>
      </trkpt>
      <trkpt lat="39.4682340045" lon="-8.0423549563">
        <ele>39.55</ele>
        <time>2018-12-20T10:24:59Z</time>
      </trkpt>
      <trkpt lat="39.4682383630" lon="-8.0423589796">
        <ele>40.51</ele>
        <time>2018-12-20T10:25:01Z</time>
      </trkpt>
      <trkpt lat="39.4682422187" lon="-8.0424593948">
        <ele>39.55</ele>
        <time>2018-12-20T10:25:07Z</time>
      </trkpt>
      <trkpt lat="39.4682348426" lon="-8.0425796751">
        <ele>39.07</ele>
        <time>2018-12-20T10:25:11Z</time>
      </trkpt>
      <trkpt lat="39.4682641793" lon="-8.0426512565">
        <ele>39.07</ele>
        <time>2018-12-20T10:25:18Z</time>
      </trkpt>
      <trkpt lat="39.4682750758" lon="-8.0426876340">
        <ele>38.59</ele>
        <time>2018-12-20T10:25:24Z</time>
      </trkpt>
      <trkpt lat="39.4683009759" lon="-8.0427317228">
        <ele>39.07</ele>
        <time>2018-12-20T10:25:31Z</time>
      </trkpt>
      <trkpt lat="39.4682980422" lon="-8.0427977722">
        <ele>38.59</ele>
        <time>2018-12-20T10:25:38Z</time>
      </trkpt>
      <trkpt lat="39.4683109503" lon="-8.0428409390">
        <ele>38.59</ele>
        <time>2018-12-20T10:25:41Z</time>
      </trkpt>
      <trkpt lat="39.4683285523" lon="-8.0428858660">
        <ele>38.11</ele>
        <time>2018-12-20T10:25:47Z</time>
      </trkpt>
      <trkpt lat="39.4683430530" lon="-8.0429858621">
        <ele>38.11</ele>
        <time>2018-12-20T10:25:52Z</time>
      </trkpt>
      <trkpt lat="39.4683656003" lon="-8.0430531688">
        <ele>38.11</ele>
        <time>2018-12-20T10:25:57Z</time>
      </trkpt>
      <trkpt lat="39.4683653489" lon="-8.0431012809">
        <ele>37.63</ele>
        <time>2018-12-20T10:26:02Z</time>
      </trkpt>
      <trkpt lat="39.4684008043" lon="-8.0432546698">
        <ele>38.11</ele>
        <time>2018-12-20T10:26:08Z</time>
      </trkpt>
      <trkpt lat="39.4684026483" lon="-8.0432752054">
        <ele>37.63</ele>
        <time>2018-12-20T10:26:13Z</time>
      </trkpt>
      <trkpt lat="39.4683947694" lon="-8.0432705116">
        <ele>37.15</ele>
        <time>2018-12-20T10:26:15Z</time>
      </trkpt>
      <trkpt lat="39.4683769159" lon="-8.0433941446">
        <ele>37.63</ele>
        <time>2018-12-20T10:26:20Z</time>
      </trkpt>
      <trkpt lat="39.4683822803" lon="-8.0434456933">
        <ele>38.59</ele>
        <time>2018-12-20T10:26:22Z</time>
      </trkpt>
      <trkpt lat="39.4683771674" lon="-8.0435069650">
        <ele>38.11</ele>
        <time>2018-12-20T10:26:30Z</time>
      </trkpt>
      <trkpt lat="39.4683782570" lon="-8.0435297638">
        <ele>37.63</ele>
        <time>2018-12-20T10:26:34Z</time>
      </trkpt>
      <trkpt lat="39.4683734793" lon="-8.0436158460">
        <ele>37.15</ele>
        <time>2018-12-20T10:26:42Z</time>
      </trkpt>
      <trkpt lat="39.4683729764" lon="-8.0436181091">
        <ele>37.63</ele>
        <time>2018-12-20T10:26:54Z</time>
      </trkpt>
      <trkpt lat="39.4683758263" lon="-8.0436781235">
        <ele>37.15</ele>
        <time>2018-12-20T10:27:01Z</time>
      </trkpt>
      <trkpt lat="39.4683601521" lon="-8.0437078793">
        <ele>37.15</ele>
        <time>2018-12-20T10:27:07Z</time>
      </trkpt>
      <trkpt lat="39.4683590624" lon="-8.0437064543">
        <ele>37.15</ele>
        <time>2018-12-20T10:27:14Z</time>
      </trkpt>
      <trkpt lat="39.4683806878" lon="-8.0437277444">
        <ele>37.15</ele>
        <time>2018-12-20T10:27:20Z</time>
      </trkpt>
      <trkpt lat="39.4684020616" lon="-8.0437707435">
        <ele>37.15</ele>
        <time>2018-12-20T10:27:25Z</time>
      </trkpt>
      <trkpt lat="39.4684132095" lon="-8.0437875912">
        <ele>36.67</ele>
        <time>2018-12-20T10:27:26Z</time>
      </trkpt>
      <trkpt lat="39.4684616569" lon="-8.0438182689">
        <ele>36.67</ele>
        <time>2018-12-20T10:27:31Z</time>
      </trkpt>
      <trkpt lat="39.4684924185" lon="-8.0438403133">
        <ele>35.71</ele>
        <time>2018-12-20T10:27:36Z</time>
      </trkpt>
      <trkpt lat="39.4684908260" lon="-8.0438381340">
        <ele>35.71</ele>
        <time>2018-12-20T10:27:43Z</time>
      </trkpt>
      <trkpt lat="39.4684945140" lon="-8.0438586697">
        <ele>35.71</ele>
        <time>2018-12-20T10:27:50Z</time>
      </trkpt>
      <trkpt lat="39.4685344957" lon="-8.0439371243">
        <ele>35.23</ele>
        <time>2018-12-20T10:27:55Z</time>
      </trkpt>
      <trkpt lat="39.4685333222" lon="-8.0439316761">
        <ele>35.71</ele>
        <time>2018-12-20T10:27:58Z</time>
      </trkpt>
      <trkpt lat="39.4685422909" lon="-8.0440242961">
        <ele>36.19</ele>
        <time>2018-12-20T10:28:02Z</time>
      </trkpt>
      <trkpt lat="39.4685528520" lon="-8.0441049300">
        <ele>35.71</ele>
        <time>2018-12-20T10:28:07Z</time>
      </trkpt>
      <trkpt lat="39.4685645867" lon="-8.0441804510">
        <ele>36.19</ele>
        <time>2018-12-20T10:28:13Z</time>
      </trkpt>
      <trkpt lat="39.4685860444" lon="-8.0442778487">
        <ele>36.67</ele>
        <time>2018-12-20T10:28:18Z</time>
      </trkpt>
      <trkpt lat="39.4685864635" lon="-8.0442754179">
        <ele>36.19</ele>
        <time>2018-12-20T10:28:23Z</time>
      </trkpt>
      <trkpt lat="39.4686044846" lon="-8.0444212630">
        <ele>36.19</ele>
        <time>2018-12-20T10:28:28Z</time>
      </trkpt>
      <trkpt lat="39.4685978629" lon="-8.0444350094">
        <ele>36.19</ele>
        <time>2018-12-20T10:28:32Z</time>
      </trkpt>
      <trkpt lat="39.4685970247" lon="-8.0444387812">
        <ele>35.71</ele>
        <time>2018-12-20T10:28:33Z</time>
      </trkpt>
      <trkpt lat="39.4686213322" lon="-8.0445866380">
        <ele>36.19</ele>
        <time>2018-12-20T10:28:39Z</time>
      </trkpt>
      <trkpt lat="39.4686359167" lon="-8.0446083471">
        <ele>35.23</ele>
        <time>2018-12-20T10:28:44Z</time>
      </trkpt>
      <trkpt lat="39.4686676003" lon="-8.0446585547">
        <ele>36.67</ele>
        <time>2018-12-20T10:28:49Z</time>
      </trkpt>
      <trkpt lat="39.4686966017" lon="-8.0447258614">
        <ele>36.19</ele>
        <time>2018-12-20T10:28:54Z</time>
      </trkpt>
      <trkpt lat="39.4686948415" lon="-8.0447276216">
        <ele>36.19</ele>
        <time>2018-12-20T10:28:56Z</time>
      </trkpt>
      <trkpt lat="39.4686975237" lon="-8.0447330698">
        <ele>35.71</ele>
        <time>2018-12-20T10:28:59Z</time>
      </trkpt>
      <trkpt lat="39.4687299617" lon="-8.0447749794">
        <ele>36.19</ele>
        <time>2018-12-20T10:29:04Z</time>
      </trkpt>
      <trkpt lat="39.4687612262" lon="-8.0448136199">
        <ele>36.67</ele>
        <time>2018-12-20T10:29:08Z</time>
      </trkpt>
      <trkpt lat="39.4687795825" lon="-8.0448380113">
        <ele>36.67</ele>
        <time>2018-12-20T10:29:13Z</time>
      </trkpt>
      <trkpt lat="39.4687666744" lon="-8.0448255222">
        <ele>37.15</ele>
        <time>2018-12-20T10:29:20Z</time>
      </trkpt>
      <trkpt lat="39.4687432051" lon="-8.0448126979">
        <ele>36.67</ele>
        <time>2018-12-20T10:29:26Z</time>
      </trkpt>
      <trkpt lat="39.4687434565" lon="-8.0447939225">
        <ele>37.63</ele>
        <time>2018-12-20T10:29:35Z</time>
      </trkpt>
      <trkpt lat="39.4687428698" lon="-8.0448383465">
        <ele>36.67</ele>
        <time>2018-12-20T10:29:46Z</time>
      </trkpt>
      <trkpt lat="39.4687445462" lon="-8.0449172202">
        <ele>36.67</ele>
        <time>2018-12-20T10:29:52Z</time>
      </trkpt>
      <trkpt lat="39.4687092584" lon="-8.0449981056">
        <ele>36.67</ele>
        <time>2018-12-20T10:29:58Z</time>
      </trkpt>
      <trkpt lat="39.4687113538" lon="-8.0450049788">
        <ele>36.67</ele>
        <time>2018-12-20T10:30:00Z</time>
      </trkpt>
      <trkpt lat="39.4686802570" lon="-8.0450492352">
        <ele>38.11</ele>
        <time>2018-12-20T10:30:06Z</time>
      </trkpt>
      <trkpt lat="39.4686607271" lon="-8.0450597964">
        <ele>37.63</ele>
        <time>2018-12-20T10:30:11Z</time>
      </trkpt>
      <trkpt lat="39.4686617330" lon="-8.0450544320">
        <ele>37.15</ele>
        <time>2018-12-20T10:30:14Z</time>
      </trkpt>
      <trkpt lat="39.4686352462" lon="-8.0451385863">
        <ele>37.63</ele>
        <time>2018-12-20T10:30:19Z</time>
      </trkpt>
      <trkpt lat="39.4686350785" lon="-8.0451335572">
        <ele>37.63</ele>
        <time>2018-12-20T10:30:21Z</time>
      </trkpt>
      <trkpt lat="39.4686472323" lon="-8.0451980978">
        <ele>38.11</ele>
        <time>2018-12-20T10:30:26Z</time>
      </trkpt>
      <trkpt lat="39.4686457235" lon="-8.0452010315">
        <ele>38.11</ele>
        <time>2018-12-20T10:30:28Z</time>
      </trkpt>
      <trkpt lat="39.4686377607" lon="-8.0452681705">
        <ele>38.11</ele>
        <time>2018-12-20T10:30:33Z</time>
      </trkpt>
      <trkpt lat="39.4686417840" lon="-8.0452680029">
        <ele>38.11</ele>
        <time>2018-12-20T10:30:36Z</time>
      </trkpt>
      <trkpt lat="39.4687396847" lon="-8.0452875327">
        <ele>38.11</ele>
        <time>2018-12-20T10:30:43Z</time>
      </trkpt>
      <trkpt lat="39.4687525090" lon="-8.0452918913">
        <ele>37.63</ele>
        <time>2018-12-20T10:30:45Z</time>
      </trkpt>
      <trkpt lat="39.4687853660" lon="-8.0453626346">
        <ele>38.11</ele>
        <time>2018-12-20T10:30:50Z</time>
      </trkpt>
      <trkpt lat="39.4687546045" lon="-8.0454003531">
        <ele>38.59</ele>
        <time>2018-12-20T10:30:56Z</time>
      </trkpt>
      <trkpt lat="39.4687401038" lon="-8.0453989282">
        <ele>38.59</ele>
        <time>2018-12-20T10:31:03Z</time>
      </trkpt>
      <trkpt lat="39.4687532634" lon="-8.0454067234">
        <ele>38.59</ele>
        <time>2018-12-20T10:31:09Z</time>
      </trkpt>
      <trkpt lat="39.4687600527" lon="-8.0453935638">
        <ele>38.59</ele>
        <time>2018-12-20T10:31:12Z</time>
      </trkpt>
      <trkpt lat="39.4687802531" lon="-8.0453130975">
        <ele>39.07</ele>
        <time>2018-12-20T10:31:18Z</time>
      </trkpt>
      <trkpt lat="39.4687675964" lon="-8.0453024525">
        <ele>38.59</ele>
        <time>2018-12-20T10:31:21Z</time>
      </trkpt>
      <trkpt lat="39.4686789997" lon="-8.0452920590">
        <ele>39.07</ele>
        <time>2018-12-20T10:31:28Z</time>
      </trkpt>
      <trkpt lat="39.4686201587" lon="-8.0452971719">
        <ele>39.07</ele>
        <time>2018-12-20T10:31:32Z</time>
      </trkpt>
      <trkpt lat="39.4685997069" lon="-8.0453353096">
        <ele>38.59</ele>
        <time>2018-12-20T10:31:37Z</time>
      </trkpt>
      <trkpt lat="39.4685907383" lon="-8.0453552585">
        <ele>38.59</ele>
        <time>2018-12-20T10:31:38Z</time>
      </trkpt>
      <trkpt lat="39.4685940072" lon="-8.0454084836">
        <ele>39.07</ele>
        <time>2018-12-20T10:31:43Z</time>
      </trkpt>
      <trkpt lat="39.4685939234" lon="-8.0454991758">
        <ele>39.07</ele>
        <time>2018-12-20T10:31:49Z</time>
      </trkpt>
      <trkpt lat="39.4685975276" lon="-8.0454997625">
        <ele>39.55</ele>
        <time>2018-12-20T10:31:50Z</time>
      </trkpt>
      <trkpt lat="39.4685895648" lon="-8.0455933046">
        <ele>39.07</ele>
        <time>2018-12-20T10:31:56Z</time>
      </trkpt>
      <trkpt lat="39.4685961027" lon="-8.0455955677">
        <ele>39.55</ele>
        <time>2018-12-20T10:32:00Z</time>
      </trkpt>
      <trkpt lat="39.4685974438" lon="-8.0456314422">
        <ele>40.51</ele>
        <time>2018-12-20T10:32:05Z</time>
      </trkpt>
      <trkpt lat="39.4685458951" lon="-8.0457329471">
        <ele>40.51</ele>
        <time>2018-12-20T10:32:09Z</time>
      </trkpt>
      <trkpt lat="39.4685449731" lon="-8.0457396526">
        <ele>41.47</ele>
        <time>2018-12-20T10:32:14Z</time>
      </trkpt>
      <trkpt lat="39.4685474876" lon="-8.0457332823">
        <ele>41.47</ele>
        <time>2018-12-20T10:32:22Z</time>
      </trkpt>
      <trkpt lat="39.4685376808" lon="-8.0457686540">
        <ele>41.47</ele>
        <time>2018-12-20T10:32:27Z</time>
      </trkpt>
      <trkpt lat="39.4685325678" lon="-8.0457800534">
        <ele>40.51</ele>
        <time>2018-12-20T10:32:33Z</time>
      </trkpt>
      <trkpt lat="39.4685306400" lon="-8.0457833223">
        <ele>39.55</ele>
        <time>2018-12-20T10:32:34Z</time>
      </trkpt>
      <trkpt lat="39.4685341604" lon="-8.0457736831">
        <ele>25.61</ele>
        <time>2018-12-20T11:04:24Z</time>
      </trkpt>
      <trkpt lat="39.4685679395" lon="-8.0456879362">
        <ele>25.61</ele>
        <time>2018-12-20T11:04:25Z</time>
      </trkpt>
      <trkpt lat="39.4685259461" lon="-8.0457531475">
        <ele>28.50</ele>
        <time>2018-12-20T11:04:35Z</time>
      </trkpt>
      <trkpt lat="39.4685262814" lon="-8.0457474478">
        <ele>30.42</ele>
        <time>2018-12-20T11:04:39Z</time>
      </trkpt>
      <trkpt lat="39.4685171451" lon="-8.0457445979">
        <ele>34.26</ele>
        <time>2018-12-20T11:04:44Z</time>
      </trkpt>
      <trkpt lat="39.4685162231" lon="-8.0457445979">
        <ele>35.71</ele>
        <time>2018-12-20T11:04:47Z</time>
      </trkpt>
      <trkpt lat="39.4685201626" lon="-8.0457493756">
        <ele>39.55</ele>
        <time>2018-12-20T11:04:57Z</time>
      </trkpt>
      <trkpt lat="39.4685230963" lon="-8.0457404070">
        <ele>39.55</ele>
        <time>2018-12-20T11:04:58Z</time>
      </trkpt>
      <trkpt lat="39.4685282093" lon="-8.0457196198">
        <ele>40.51</ele>
        <time>2018-12-20T11:05:06Z</time>
      </trkpt>
      <trkpt lat="39.4685335737" lon="-8.0457268283">
        <ele>41.95</ele>
        <time>2018-12-20T11:05:11Z</time>
      </trkpt>
      <trkpt lat="39.4685182348" lon="-8.0457563326">
        <ele>44.36</ele>
        <time>2018-12-20T11:05:20Z</time>
      </trkpt>
      <trkpt lat="39.4685134571" lon="-8.0457644630">
        <ele>47.72</ele>
        <time>2018-12-20T11:05:35Z</time>
      </trkpt>
      <trkpt lat="39.4684936758" lon="-8.0457417481">
        <ele>49.65</ele>
        <time>2018-12-20T11:05:50Z</time>
      </trkpt>
      <trkpt lat="39.4685102720" lon="-8.0457072984">
        <ele>51.57</ele>
        <time>2018-12-20T11:06:03Z</time>
      </trkpt>
      <trkpt lat="39.4685441349" lon="-8.0457319412">
        <ele>53.01</ele>
        <time>2018-12-20T11:06:18Z</time>
      </trkpt>
      <trkpt lat="39.4685323164" lon="-8.0457452685">
        <ele>53.97</ele>
        <time>2018-12-20T11:06:25Z</time>
      </trkpt>
      <trkpt lat="39.4685297180" lon="-8.0457911175">
        <ele>53.97</ele>
        <time>2018-12-20T11:06:37Z</time>
      </trkpt>
      <trkpt lat="39.4685396086" lon="-8.0457864236">
        <ele>53.97</ele>
        <time>2018-12-20T11:06:47Z</time>
      </trkpt>
      <trkpt lat="39.4685425423" lon="-8.0457621999">
        <ele>53.97</ele>
        <time>2018-12-20T11:06:49Z</time>
      </trkpt>
      <trkpt lat="39.4685909059" lon="-8.0457163509">
        <ele>53.01</ele>
        <time>2018-12-20T11:06:55Z</time>
      </trkpt>
      <trkpt lat="39.4686365034" lon="-8.0458360445">
        <ele>52.53</ele>
        <time>2018-12-20T11:07:03Z</time>
      </trkpt>
      <trkpt lat="39.4686542731" lon="-8.0459157564">
        <ele>53.01</ele>
        <time>2018-12-20T11:07:10Z</time>
      </trkpt>
      <trkpt lat="39.4686401915" lon="-8.0459516309">
        <ele>52.53</ele>
        <time>2018-12-20T11:07:21Z</time>
      </trkpt>
      <trkpt lat="39.4686704502" lon="-8.0460127350">
        <ele>51.57</ele>
        <time>2018-12-20T11:07:30Z</time>
      </trkpt>
      <trkpt lat="39.4686691929" lon="-8.0460144952">
        <ele>51.57</ele>
        <time>2018-12-20T11:07:31Z</time>
      </trkpt>
      <trkpt lat="39.4686940033" lon="-8.0460269842">
        <ele>52.53</ele>
        <time>2018-12-20T11:07:38Z</time>
      </trkpt>
      <trkpt lat="39.4686967693" lon="-8.0460994039">
        <ele>52.05</ele>
        <time>2018-12-20T11:07:44Z</time>
      </trkpt>
      <trkpt lat="39.4686997868" lon="-8.0461280700">
        <ele>52.53</ele>
        <time>2018-12-20T11:07:53Z</time>
      </trkpt>
      <trkpt lat="39.4687122758" lon="-8.0461801216">
        <ele>52.05</ele>
        <time>2018-12-20T11:08:02Z</time>
      </trkpt>
      <trkpt lat="39.4687349070" lon="-8.0462629348">
        <ele>51.57</ele>
        <time>2018-12-20T11:08:09Z</time>
      </trkpt>
      <trkpt lat="39.4687471446" lon="-8.0463822093">
        <ele>51.57</ele>
        <time>2018-12-20T11:08:19Z</time>
      </trkpt>
      <trkpt lat="39.4687648304" lon="-8.0465230253">
        <ele>52.05</ele>
        <time>2018-12-20T11:08:30Z</time>
      </trkpt>
      <trkpt lat="39.4687639922" lon="-8.0465470813">
        <ele>52.53</ele>
        <time>2018-12-20T11:08:32Z</time>
      </trkpt>
      <trkpt lat="39.4687510841" lon="-8.0466248654">
        <ele>52.53</ele>
        <time>2018-12-20T11:08:39Z</time>
      </trkpt>
      <trkpt lat="39.4687029719" lon="-8.0467245262">
        <ele>53.97</ele>
        <time>2018-12-20T11:08:49Z</time>
      </trkpt>
      <trkpt lat="39.4686561171" lon="-8.0467888992">
        <ele>54.93</ele>
        <time>2018-12-20T11:08:56Z</time>
      </trkpt>
      <trkpt lat="39.4685834460" lon="-8.0468742270">
        <ele>56.37</ele>
        <time>2018-12-20T11:09:06Z</time>
      </trkpt>
      <trkpt lat="39.4685499184" lon="-8.0469704513">
        <ele>57.34</ele>
        <time>2018-12-20T11:09:16Z</time>
      </trkpt>
      <trkpt lat="39.4685142115" lon="-8.0470538512">
        <ele>58.30</ele>
        <time>2018-12-20T11:09:26Z</time>
      </trkpt>
      <trkpt lat="39.4684932567" lon="-8.0471318029">
        <ele>60.22</ele>
        <time>2018-12-20T11:09:34Z</time>
      </trkpt>
      <trkpt lat="39.4684679434" lon="-8.0472404324">
        <ele>60.70</ele>
        <time>2018-12-20T11:09:43Z</time>
      </trkpt>
      <trkpt lat="39.4684515148" lon="-8.0473131035">
        <ele>61.18</ele>
        <time>2018-12-20T11:09:49Z</time>
      </trkpt>
      <trkpt lat="39.4684229326" lon="-8.0473995209">
        <ele>62.14</ele>
        <time>2018-12-20T11:09:57Z</time>
      </trkpt>
      <trkpt lat="39.4683527760" lon="-8.0474579427">
        <ele>63.58</ele>
        <time>2018-12-20T11:10:06Z</time>
      </trkpt>
      <trkpt lat="39.4682672806" lon="-8.0474809092">
        <ele>63.58</ele>
        <time>2018-12-20T11:10:15Z</time>
      </trkpt>
      <trkpt lat="39.4682174083" lon="-8.0474782269">
        <ele>63.58</ele>
        <time>2018-12-20T11:10:20Z</time>
      </trkpt>
      <trkpt lat="39.4681423903" lon="-8.0474711861">
        <ele>64.07</ele>
        <time>2018-12-20T11:10:27Z</time>
      </trkpt>
      <trkpt lat="39.4680575654" lon="-8.0474596191">
        <ele>64.55</ele>
        <time>2018-12-20T11:10:35Z</time>
      </trkpt>
      <trkpt lat="39.4679828826" lon="-8.0474367365">
        <ele>64.55</ele>
        <time>2018-12-20T11:10:43Z</time>
      </trkpt>
      <trkpt lat="39.4679027516" lon="-8.0474240799">
        <ele>64.55</ele>
        <time>2018-12-20T11:10:51Z</time>
      </trkpt>
      <trkpt lat="39.4678118080" lon="-8.0474006943">
        <ele>64.55</ele>
        <time>2018-12-20T11:11:01Z</time>
      </trkpt>
      <trkpt lat="39.4677314255" lon="-8.0473893788">
        <ele>64.55</ele>
        <time>2018-12-20T11:11:09Z</time>
      </trkpt>
      <trkpt lat="39.4676394761" lon="-8.0473589525">
        <ele>63.58</ele>
        <time>2018-12-20T11:11:18Z</time>
      </trkpt>
      <trkpt lat="39.4675364625" lon="-8.0472827610">
        <ele>63.58</ele>
        <time>2018-12-20T11:11:27Z</time>
      </trkpt>
      <trkpt lat="39.4674444292" lon="-8.0472571123">
        <ele>63.58</ele>
        <time>2018-12-20T11:11:36Z</time>
      </trkpt>
      <trkpt lat="39.4673417509" lon="-8.0472396780">
        <ele>62.14</ele>
        <time>2018-12-20T11:11:45Z</time>
      </trkpt>
      <trkpt lat="39.4673061278" lon="-8.0472801626">
        <ele>61.18</ele>
        <time>2018-12-20T11:11:49Z</time>
      </trkpt>
      <trkpt lat="39.4672528189" lon="-8.0473752134">
        <ele>60.22</ele>
        <time>2018-12-20T11:11:57Z</time>
      </trkpt>
      <trkpt lat="39.4671746995" lon="-8.0474695936">
        <ele>60.22</ele>
        <time>2018-12-20T11:12:06Z</time>
      </trkpt>
      <trkpt lat="39.4670675788" lon="-8.0475643929">
        <ele>59.74</ele>
        <time>2018-12-20T11:12:16Z</time>
      </trkpt>
      <trkpt lat="39.4669645652" lon="-8.0475881137">
        <ele>59.74</ele>
        <time>2018-12-20T11:12:25Z</time>
      </trkpt>
      <trkpt lat="39.4668946601" lon="-8.0475964118">
        <ele>59.26</ele>
        <time>2018-12-20T11:12:33Z</time>
      </trkpt>
      <trkpt lat="39.4668012019" lon="-8.0475752056">
        <ele>59.26</ele>
        <time>2018-12-20T11:12:43Z</time>
      </trkpt>
      <trkpt lat="39.4666941650" lon="-8.0475515686">
        <ele>58.78</ele>
        <time>2018-12-20T11:12:54Z</time>
      </trkpt>
      <trkpt lat="39.4666250981" lon="-8.0475522391">
        <ele>59.26</ele>
        <time>2018-12-20T11:13:04Z</time>
      </trkpt>
      <trkpt lat="39.4665140379" lon="-8.0475367326">
        <ele>58.78</ele>
        <time>2018-12-20T11:13:14Z</time>
      </trkpt>
      <trkpt lat="39.4664252736" lon="-8.0475176219">
        <ele>57.82</ele>
        <time>2018-12-20T11:13:23Z</time>
      </trkpt>
      <trkpt lat="39.4663174823" lon="-8.0475140177">
        <ele>57.82</ele>
        <time>2018-12-20T11:13:32Z</time>
      </trkpt>
      <trkpt lat="39.4661896583" lon="-8.0474945717">
        <ele>57.82</ele>
        <time>2018-12-20T11:13:43Z</time>
      </trkpt>
      <trkpt lat="39.4660662767" lon="-8.0474864412">
        <ele>57.34</ele>
        <time>2018-12-20T11:13:53Z</time>
      </trkpt>
      <trkpt lat="39.4660572242" lon="-8.0474985112">
        <ele>57.82</ele>
        <time>2018-12-20T11:13:55Z</time>
      </trkpt>
      <trkpt lat="39.4660249539" lon="-8.0475708470">
        <ele>57.34</ele>
        <time>2018-12-20T11:14:02Z</time>
      </trkpt>
      <trkpt lat="39.4660397898" lon="-8.0476866849">
        <ele>57.34</ele>
        <time>2018-12-20T11:14:11Z</time>
      </trkpt>
      <trkpt lat="39.4660668634" lon="-8.0477871001">
        <ele>56.86</ele>
        <time>2018-12-20T11:14:18Z</time>
      </trkpt>
      <trkpt lat="39.4660739880" lon="-8.0478198733">
        <ele>56.86</ele>
        <time>2018-12-20T11:14:20Z</time>
      </trkpt>
      <trkpt lat="39.4661013968" lon="-8.0478798877">
        <ele>57.34</ele>
        <time>2018-12-20T11:14:24Z</time>
      </trkpt>
      <trkpt lat="39.4661501795" lon="-8.0480269063">
        <ele>56.86</ele>
        <time>2018-12-20T11:14:33Z</time>
      </trkpt>
      <trkpt lat="39.4661640935" lon="-8.0480829813">
        <ele>57.34</ele>
        <time>2018-12-20T11:14:37Z</time>
      </trkpt>
      <trkpt lat="39.4662043266" lon="-8.0481141619">
        <ele>57.34</ele>
        <time>2018-12-20T11:14:39Z</time>
      </trkpt>
      <trkpt lat="39.4662402011" lon="-8.0482710712">
        <ele>58.30</ele>
        <time>2018-12-20T11:14:50Z</time>
      </trkpt>
      <trkpt lat="39.4662348367" lon="-8.0483166687">
        <ele>57.82</ele>
        <time>2018-12-20T11:14:55Z</time>
      </trkpt>
      <trkpt lat="39.4662407879" lon="-8.0484200176">
        <ele>58.30</ele>
        <time>2018-12-20T11:15:01Z</time>
      </trkpt>
      <trkpt lat="39.4662659336" lon="-8.0485480931">
        <ele>57.82</ele>
        <time>2018-12-20T11:15:10Z</time>
      </trkpt>
      <trkpt lat="39.4662799314" lon="-8.0486711394">
        <ele>57.34</ele>
        <time>2018-12-20T11:15:19Z</time>
      </trkpt>
      <trkpt lat="39.4663089328" lon="-8.0487788469">
        <ele>57.34</ele>
        <time>2018-12-20T11:15:27Z</time>
      </trkpt>
      <trkpt lat="39.4663344976" lon="-8.0489210039">
        <ele>57.34</ele>
        <time>2018-12-20T11:15:37Z</time>
      </trkpt>
      <trkpt lat="39.4663718808" lon="-8.0490256939">
        <ele>56.86</ele>
        <time>2018-12-20T11:15:45Z</time>
      </trkpt>
      <trkpt lat="39.4664207473" lon="-8.0491577927">
        <ele>57.34</ele>
        <time>2018-12-20T11:15:54Z</time>
      </trkpt>
      <trkpt lat="39.4664507546" lon="-8.0492882989">
        <ele>57.34</ele>
        <time>2018-12-20T11:16:03Z</time>
      </trkpt>
      <trkpt lat="39.4664702844" lon="-8.0494363233">
        <ele>58.78</ele>
        <time>2018-12-20T11:16:13Z</time>
      </trkpt>
      <trkpt lat="39.4664859585" lon="-8.0495916400">
        <ele>58.78</ele>
        <time>2018-12-20T11:16:23Z</time>
      </trkpt>
      <trkpt lat="39.4664839469" lon="-8.0497317016">
        <ele>59.74</ele>
        <time>2018-12-20T11:16:34Z</time>
      </trkpt>
      <trkpt lat="39.4664986990" lon="-8.0498469528">
        <ele>60.22</ele>
        <time>2018-12-20T11:16:43Z</time>
      </trkpt>
      <trkpt lat="39.4664955139" lon="-8.0499563366">
        <ele>60.70</ele>
        <time>2018-12-20T11:16:51Z</time>
      </trkpt>
      <trkpt lat="39.4665007107" lon="-8.0499923788">
        <ele>60.70</ele>
        <time>2018-12-20T11:16:54Z</time>
      </trkpt>
      <trkpt lat="39.4665030576" lon="-8.0501128267">
        <ele>61.66</ele>
        <time>2018-12-20T11:17:03Z</time>
      </trkpt>
      <trkpt lat="39.4665001240" lon="-8.0501466896">
        <ele>62.14</ele>
        <time>2018-12-20T11:17:06Z</time>
      </trkpt>
      <trkpt lat="39.4664855395" lon="-8.0502683949">
        <ele>62.14</ele>
        <time>2018-12-20T11:17:14Z</time>
      </trkpt>
      <trkpt lat="39.4664416183" lon="-8.0503860768">
        <ele>63.10</ele>
        <time>2018-12-20T11:17:23Z</time>
      </trkpt>
      <trkpt lat="39.4664075039" lon="-8.0505045969">
        <ele>63.10</ele>
        <time>2018-12-20T11:17:32Z</time>
      </trkpt>
      <trkpt lat="39.4663769100" lon="-8.0506017432">
        <ele>64.07</ele>
        <time>2018-12-20T11:17:40Z</time>
      </trkpt>
      <trkpt lat="39.4663474057" lon="-8.0507067684">
        <ele>65.51</ele>
        <time>2018-12-20T11:17:48Z</time>
      </trkpt>
      <trkpt lat="39.4663054124" lon="-8.0508135539">
        <ele>65.51</ele>
        <time>2018-12-20T11:17:56Z</time>
      </trkpt>
      <trkpt lat="39.4662827812" lon="-8.0508511886">
        <ele>65.99</ele>
        <time>2018-12-20T11:17:59Z</time>
      </trkpt>
      <trkpt lat="39.4662656821" lon="-8.0509840418">
        <ele>65.99</ele>
        <time>2018-12-20T11:18:07Z</time>
      </trkpt>
      <trkpt lat="39.4662651792" lon="-8.0510891508">
        <ele>67.43</ele>
        <time>2018-12-20T11:18:16Z</time>
      </trkpt>
      <trkpt lat="39.4662439730" lon="-8.0512093473">
        <ele>67.43</ele>
        <time>2018-12-20T11:18:25Z</time>
      </trkpt>
      <trkpt lat="39.4662070088" lon="-8.0512960162">
        <ele>68.39</ele>
        <time>2018-12-20T11:18:33Z</time>
      </trkpt>
      <trkpt lat="39.4661977887" lon="-8.0513566174">
        <ele>67.91</ele>
        <time>2018-12-20T11:18:37Z</time>
      </trkpt>
      <trkpt lat="39.4661777560" lon="-8.0514903087">
        <ele>68.39</ele>
        <time>2018-12-20T11:18:47Z</time>
      </trkpt>
      <trkpt lat="39.4661605731" lon="-8.0515406001">
        <ele>69.35</ele>
        <time>2018-12-20T11:18:50Z</time>
      </trkpt>
      <trkpt lat="39.4661447313" lon="-8.0516616348">
        <ele>69.35</ele>
        <time>2018-12-20T11:18:59Z</time>
      </trkpt>
      <trkpt lat="39.4661170710" lon="-8.0517711863">
        <ele>70.31</ele>
        <time>2018-12-20T11:19:07Z</time>
      </trkpt>
      <trkpt lat="39.4660905004" lon="-8.0518634710">
        <ele>70.79</ele>
        <time>2018-12-20T11:19:14Z</time>
      </trkpt>
      <trkpt lat="39.4660801068" lon="-8.0519723520">
        <ele>70.31</ele>
        <time>2018-12-20T11:19:23Z</time>
      </trkpt>
      <trkpt lat="39.4660849683" lon="-8.0520657264">
        <ele>71.27</ele>
        <time>2018-12-20T11:19:30Z</time>
      </trkpt>
      <trkpt lat="39.4660722278" lon="-8.0522015970">
        <ele>71.76</ele>
        <time>2018-12-20T11:19:39Z</time>
      </trkpt>
      <trkpt lat="39.4660503510" lon="-8.0523134116">
        <ele>71.76</ele>
        <time>2018-12-20T11:19:46Z</time>
      </trkpt>
      <trkpt lat="39.4660244510" lon="-8.0524466000">
        <ele>72.24</ele>
        <time>2018-12-20T11:19:55Z</time>
      </trkpt>
      <trkpt lat="39.4660247862" lon="-8.0525685567">
        <ele>71.76</ele>
        <time>2018-12-20T11:20:03Z</time>
      </trkpt>
      <trkpt lat="39.4660056755" lon="-8.0527051818">
        <ele>71.76</ele>
        <time>2018-12-20T11:20:12Z</time>
      </trkpt>
      <trkpt lat="39.4659935217" lon="-8.0528309941">
        <ele>72.72</ele>
        <time>2018-12-20T11:20:20Z</time>
      </trkpt>
      <trkpt lat="39.4659703877" lon="-8.0529282242">
        <ele>73.20</ele>
        <time>2018-12-20T11:20:27Z</time>
      </trkpt>
      <trkpt lat="39.4659585692" lon="-8.0530412961">
        <ele>73.68</ele>
        <time>2018-12-20T11:20:36Z</time>
      </trkpt>
      <trkpt lat="39.4659483433" lon="-8.0531405378">
        <ele>73.68</ele>
        <time>2018-12-20T11:20:44Z</time>
      </trkpt>
      <trkpt lat="39.4659205154" lon="-8.0532347504">
        <ele>73.20</ele>
        <time>2018-12-20T11:20:52Z</time>
      </trkpt>
      <trkpt lat="39.4659048412" lon="-8.0533522647">
        <ele>74.16</ele>
        <time>2018-12-20T11:21:01Z</time>
      </trkpt>
      <trkpt lat="39.4658662006" lon="-8.0535028037">
        <ele>73.68</ele>
        <time>2018-12-20T11:21:10Z</time>
      </trkpt>
      <trkpt lat="39.4658444077" lon="-8.0535712838">
        <ele>75.12</ele>
        <time>2018-12-20T11:21:15Z</time>
      </trkpt>
      <trkpt lat="39.4657991454" lon="-8.0536917318">
        <ele>74.64</ele>
        <time>2018-12-20T11:21:24Z</time>
      </trkpt>
      <trkpt lat="39.4657996483" lon="-8.0537495669">
        <ele>76.08</ele>
        <time>2018-12-20T11:21:33Z</time>
      </trkpt>
      <trkpt lat="39.4657789450" lon="-8.0538293626">
        <ele>75.60</ele>
        <time>2018-12-20T11:21:41Z</time>
      </trkpt>
      <trkpt lat="39.4657754246" lon="-8.0538996868">
        <ele>75.60</ele>
        <time>2018-12-20T11:21:47Z</time>
      </trkpt>
      <trkpt lat="39.4657586608" lon="-8.0540042091">
        <ele>77.04</ele>
        <time>2018-12-20T11:21:55Z</time>
      </trkpt>
      <trkpt lat="39.4657436572" lon="-8.0540959910">
        <ele>77.52</ele>
        <time>2018-12-20T11:22:03Z</time>
      </trkpt>
      <trkpt lat="39.4657180086" lon="-8.0541948974">
        <ele>78.00</ele>
        <time>2018-12-20T11:22:13Z</time>
      </trkpt>
      <trkpt lat="39.4657030050" lon="-8.0542916246">
        <ele>78.48</ele>
        <time>2018-12-20T11:22:21Z</time>
      </trkpt>
      <trkpt lat="39.4656814635" lon="-8.0543944705">
        <ele>79.45</ele>
        <time>2018-12-20T11:22:30Z</time>
      </trkpt>
      <trkpt lat="39.4656480197" lon="-8.0545051955">
        <ele>80.89</ele>
        <time>2018-12-20T11:22:40Z</time>
      </trkpt>
      <trkpt lat="39.4656230416" lon="-8.0545921996">
        <ele>81.37</ele>
        <time>2018-12-20T11:22:47Z</time>
      </trkpt>
      <trkpt lat="39.4656013325" lon="-8.0547040142">
        <ele>82.33</ele>
        <time>2018-12-20T11:22:56Z</time>
      </trkpt>
      <trkpt lat="39.4655882567" lon="-8.0548074469">
        <ele>83.29</ele>
        <time>2018-12-20T11:23:04Z</time>
      </trkpt>
      <trkpt lat="39.4655657932" lon="-8.0548898410">
        <ele>84.25</ele>
        <time>2018-12-20T11:23:11Z</time>
      </trkpt>
      <trkpt lat="39.4655448385" lon="-8.0549712293">
        <ele>85.21</ele>
        <time>2018-12-20T11:23:18Z</time>
      </trkpt>
      <trkpt lat="39.4655238837" lon="-8.0550484266">
        <ele>85.69</ele>
        <time>2018-12-20T11:23:26Z</time>
      </trkpt>
      <trkpt lat="39.4655126520" lon="-8.0551286414">
        <ele>86.18</ele>
        <time>2018-12-20T11:23:33Z</time>
      </trkpt>
      <trkpt lat="39.4655556511" lon="-8.0552789290">
        <ele>86.66</ele>
        <time>2018-12-20T11:23:42Z</time>
      </trkpt>
      <trkpt lat="39.4656177610" lon="-8.0553165637">
        <ele>88.58</ele>
        <time>2018-12-20T11:23:50Z</time>
      </trkpt>
      <trkpt lat="39.4657118898" lon="-8.0553629156">
        <ele>89.06</ele>
        <time>2018-12-20T11:24:01Z</time>
      </trkpt>
      <trkpt lat="39.4657988939" lon="-8.0554038193">
        <ele>88.10</ele>
        <time>2018-12-20T11:24:10Z</time>
      </trkpt>
      <trkpt lat="39.4658962078" lon="-8.0554598104">
        <ele>88.10</ele>
        <time>2018-12-20T11:24:20Z</time>
      </trkpt>
      <trkpt lat="39.4659116305" lon="-8.0554850399">
        <ele>88.58</ele>
        <time>2018-12-20T11:24:22Z</time>
      </trkpt>
      <trkpt lat="39.4659538753" lon="-8.0556468107">
        <ele>87.62</ele>
        <time>2018-12-20T11:24:32Z</time>
      </trkpt>
      <trkpt lat="39.4659518637" lon="-8.0557124410">
        <ele>87.62</ele>
        <time>2018-12-20T11:24:37Z</time>
      </trkpt>
      <trkpt lat="39.4659399614" lon="-8.0558720324">
        <ele>88.58</ele>
        <time>2018-12-20T11:24:48Z</time>
      </trkpt>
      <trkpt lat="39.4659206830" lon="-8.0560210627">
        <ele>88.58</ele>
        <time>2018-12-20T11:24:58Z</time>
      </trkpt>
      <trkpt lat="39.4659075234" lon="-8.0561544187">
        <ele>88.10</ele>
        <time>2018-12-20T11:25:07Z</time>
      </trkpt>
      <trkpt lat="39.4658808690" lon="-8.0562923849">
        <ele>88.10</ele>
        <time>2018-12-20T11:25:17Z</time>
      </trkpt>
      <trkpt lat="39.4658522867" lon="-8.0564409122">
        <ele>88.58</ele>
        <time>2018-12-20T11:25:28Z</time>
      </trkpt>
      <trkpt lat="39.4658269733" lon="-8.0565730948">
        <ele>88.58</ele>
        <time>2018-12-20T11:25:37Z</time>
      </trkpt>
      <trkpt lat="39.4657959603" lon="-8.0566536449">
        <ele>88.58</ele>
        <time>2018-12-20T11:25:43Z</time>
      </trkpt>
      <trkpt lat="39.4657873269" lon="-8.0567381345">
        <ele>88.58</ele>
        <time>2018-12-20T11:25:49Z</time>
      </trkpt>
      <trkpt lat="39.4657573197" lon="-8.0568486080">
        <ele>88.58</ele>
        <time>2018-12-20T11:25:58Z</time>
      </trkpt>
      <trkpt lat="39.4657339342" lon="-8.0569111370">
        <ele>88.58</ele>
        <time>2018-12-20T11:26:03Z</time>
      </trkpt>
      <trkpt lat="39.4657281507" lon="-8.0569655355">
        <ele>89.06</ele>
        <time>2018-12-20T11:26:07Z</time>
      </trkpt>
      <trkpt lat="39.4657025859" lon="-8.0571066868">
        <ele>88.58</ele>
        <time>2018-12-20T11:26:17Z</time>
      </trkpt>
      <trkpt lat="39.4656966347" lon="-8.0571195949">
        <ele>88.58</ele>
        <time>2018-12-20T11:26:18Z</time>
      </trkpt>
      <trkpt lat="39.4656793680" lon="-8.0571742449">
        <ele>89.06</ele>
        <time>2018-12-20T11:26:22Z</time>
      </trkpt>
      <trkpt lat="39.4656721596" lon="-8.0572571419">
        <ele>88.58</ele>
        <time>2018-12-20T11:26:28Z</time>
      </trkpt>
      <trkpt lat="39.4656417333" lon="-8.0573830381">
        <ele>88.58</ele>
        <time>2018-12-20T11:26:37Z</time>
      </trkpt>
      <trkpt lat="39.4656382967" lon="-8.0573949404">
        <ele>89.06</ele>
        <time>2018-12-20T11:26:38Z</time>
      </trkpt>
      <trkpt lat="39.4656030927" lon="-8.0574550387">
        <ele>89.54</ele>
        <time>2018-12-20T11:26:43Z</time>
      </trkpt>
      <trkpt lat="39.4655861612" lon="-8.0575824436">
        <ele>90.50</ele>
        <time>2018-12-20T11:26:52Z</time>
      </trkpt>
      <trkpt lat="39.4655856583" lon="-8.0575968605">
        <ele>90.02</ele>
        <time>2018-12-20T11:26:53Z</time>
      </trkpt>
      <trkpt lat="39.4655980635" lon="-8.0576380994">
        <ele>92.90</ele>
        <time>2018-12-20T11:26:57Z</time>
      </trkpt>
      <trkpt lat="39.4656033441" lon="-8.0576443020">
        <ele>90.02</ele>
        <time>2018-12-20T11:26:58Z</time>
      </trkpt>
      <trkpt lat="39.4656176772" lon="-8.0576579645">
        <ele>91.46</ele>
        <time>2018-12-20T11:27:00Z</time>
      </trkpt>
      <trkpt lat="39.4656237122" lon="-8.0576634128">
        <ele>90.02</ele>
        <time>2018-12-20T11:27:02Z</time>
      </trkpt>
      <trkpt lat="39.4656424038" lon="-8.0576864630">
        <ele>89.54</ele>
        <time>2018-12-20T11:27:05Z</time>
      </trkpt>
      <trkpt lat="39.4656570721" lon="-8.0577792507">
        <ele>90.02</ele>
        <time>2018-12-20T11:27:11Z</time>
      </trkpt>
      <trkpt lat="39.4656658731" lon="-8.0577975232">
        <ele>90.02</ele>
        <time>2018-12-20T11:27:14Z</time>
      </trkpt>
      <trkpt lat="39.4657403883" lon="-8.0578712840">
        <ele>89.54</ele>
        <time>2018-12-20T11:27:21Z</time>
      </trkpt>
      <trkpt lat="39.4657455850" lon="-8.0578748044">
        <ele>90.50</ele>
        <time>2018-12-20T11:27:24Z</time>
      </trkpt>
      <trkpt lat="39.4657999836" lon="-8.0579239223">
        <ele>90.50</ele>
        <time>2018-12-20T11:27:28Z</time>
      </trkpt>
      <trkpt lat="39.4658770971" lon="-8.0580027960">
        <ele>89.06</ele>
        <time>2018-12-20T11:27:35Z</time>
      </trkpt>
      <trkpt lat="39.4659403805" lon="-8.0580565240">
        <ele>89.54</ele>
        <time>2018-12-20T11:27:42Z</time>
      </trkpt>
      <trkpt lat="39.4660184160" lon="-8.0581447016">
        <ele>89.06</ele>
        <time>2018-12-20T11:27:48Z</time>
      </trkpt>
      <trkpt lat="39.4660261273" lon="-8.0581514910">
        <ele>89.54</ele>
        <time>2018-12-20T11:27:52Z</time>
      </trkpt>
      <trkpt lat="39.4661318231" lon="-8.0582475476">
        <ele>89.06</ele>
        <time>2018-12-20T11:27:59Z</time>
      </trkpt>
      <trkpt lat="39.4661572203" lon="-8.0582703464">
        <ele>89.54</ele>
        <time>2018-12-20T11:28:06Z</time>
      </trkpt>
      <trkpt lat="39.4662529416" lon="-8.0583718512">
        <ele>89.06</ele>
        <time>2018-12-20T11:28:12Z</time>
      </trkpt>
      <trkpt lat="39.4662951026" lon="-8.0584042054">
        <ele>89.06</ele>
        <time>2018-12-20T11:28:20Z</time>
      </trkpt>
      <trkpt lat="39.4663886447" lon="-8.0584976636">
        <ele>89.06</ele>
        <time>2018-12-20T11:28:26Z</time>
      </trkpt>
      <trkpt lat="39.4664047379" lon="-8.0585143436">
        <ele>89.06</ele>
        <time>2018-12-20T11:28:31Z</time>
      </trkpt>
      <trkpt lat="39.4664605614" lon="-8.0585537385">
        <ele>88.58</ele>
        <time>2018-12-20T11:28:36Z</time>
      </trkpt>
      <trkpt lat="39.4665494096" lon="-8.0586193688">
        <ele>88.58</ele>
        <time>2018-12-20T11:28:42Z</time>
      </trkpt>
      <trkpt lat="39.4665613119" lon="-8.0586258229">
        <ele>89.06</ele>
        <time>2018-12-20T11:28:47Z</time>
      </trkpt>
      <trkpt lat="39.4666623138" lon="-8.0587136652">
        <ele>88.10</ele>
        <time>2018-12-20T11:28:54Z</time>
      </trkpt>
      <trkpt lat="39.4666769821" lon="-8.0587243102">
        <ele>88.58</ele>
        <time>2018-12-20T11:29:00Z</time>
      </trkpt>
      <trkpt lat="39.4667730387" lon="-8.0588057823">
        <ele>88.10</ele>
        <time>2018-12-20T11:29:06Z</time>
      </trkpt>
      <trkpt lat="39.4667963404" lon="-8.0588414054">
        <ele>88.10</ele>
        <time>2018-12-20T11:29:13Z</time>
      </trkpt>
      <trkpt lat="39.4669001922" lon="-8.0589424912">
        <ele>89.06</ele>
        <time>2018-12-20T11:29:20Z</time>
      </trkpt>
      <trkpt lat="39.4669213984" lon="-8.0589701515">
        <ele>88.58</ele>
        <time>2018-12-20T11:29:25Z</time>
      </trkpt>
      <trkpt lat="39.4669874478" lon="-8.0590489414">
        <ele>88.58</ele>
        <time>2018-12-20T11:29:31Z</time>
      </trkpt>
      <trkpt lat="39.4670488033" lon="-8.0591025017">
        <ele>88.10</ele>
        <time>2018-12-20T11:29:37Z</time>
      </trkpt>
      <trkpt lat="39.4670549221" lon="-8.0591051839">
        <ele>89.06</ele>
        <time>2018-12-20T11:29:40Z</time>
      </trkpt>
      <trkpt lat="39.4671521522" lon="-8.0592087004">
        <ele>89.06</ele>
        <time>2018-12-20T11:29:47Z</time>
      </trkpt>
      <trkpt lat="39.4671612885" lon="-8.0592154060">
        <ele>89.06</ele>
        <time>2018-12-20T11:29:52Z</time>
      </trkpt>
      <trkpt lat="39.4672220573" lon="-8.0592713133">
        <ele>89.06</ele>
        <time>2018-12-20T11:29:56Z</time>
      </trkpt>
      <trkpt lat="39.4672609493" lon="-8.0593189225">
        <ele>89.06</ele>
        <time>2018-12-20T11:30:02Z</time>
      </trkpt>
      <trkpt lat="39.4673098158" lon="-8.0593652744">
        <ele>88.58</ele>
        <time>2018-12-20T11:30:07Z</time>
      </trkpt>
      <trkpt lat="39.4673722610" lon="-8.0594159011">
        <ele>88.58</ele>
        <time>2018-12-20T11:30:12Z</time>
      </trkpt>
      <trkpt lat="39.4673873484" lon="-8.0594169907">
        <ele>88.10</ele>
        <time>2018-12-20T11:30:17Z</time>
      </trkpt>
      <trkpt lat="39.4674513862" lon="-8.0594889075">
        <ele>88.10</ele>
        <time>2018-12-20T11:30:21Z</time>
      </trkpt>
      <trkpt lat="39.4674716704" lon="-8.0595414620">
        <ele>88.58</ele>
        <time>2018-12-20T11:30:27Z</time>
      </trkpt>
      <trkpt lat="39.4674713351" lon="-8.0595518555">
        <ele>88.58</ele>
        <time>2018-12-20T11:30:28Z</time>
      </trkpt>
      <trkpt lat="39.4674640428" lon="-8.0597237684">
        <ele>87.62</ele>
        <time>2018-12-20T11:30:35Z</time>
      </trkpt>
      <trkpt lat="39.4674616959" lon="-8.0597434659">
        <ele>88.10</ele>
        <time>2018-12-20T11:30:40Z</time>
      </trkpt>
      <trkpt lat="39.4673994184" lon="-8.0598734692">
        <ele>88.10</ele>
        <time>2018-12-20T11:30:46Z</time>
      </trkpt>
      <trkpt lat="39.4673905335" lon="-8.0598913226">
        <ele>87.62</ele>
        <time>2018-12-20T11:30:51Z</time>
      </trkpt>
      <trkpt lat="39.4672958180" lon="-8.0599053204">
        <ele>88.58</ele>
        <time>2018-12-20T11:30:57Z</time>
      </trkpt>
      <trkpt lat="39.4672486279" lon="-8.0598907359">
        <ele>88.10</ele>
        <time>2018-12-20T11:31:03Z</time>
      </trkpt>
      <trkpt lat="39.4671552535" lon="-8.0598831084">
        <ele>87.62</ele>
        <time>2018-12-20T11:31:08Z</time>
      </trkpt>
      <trkpt lat="39.4671453629" lon="-8.0598870479">
        <ele>88.58</ele>
        <time>2018-12-20T11:31:12Z</time>
      </trkpt>
      <trkpt lat="39.4670829177" lon="-8.0598593876">
        <ele>87.62</ele>
        <time>2018-12-20T11:31:17Z</time>
      </trkpt>
      <trkpt lat="39.4669918902" lon="-8.0598545261">
        <ele>87.62</ele>
        <time>2018-12-20T11:31:23Z</time>
      </trkpt>
      <trkpt lat="39.4669919740" lon="-8.0598489102">
        <ele>88.10</ele>
        <time>2018-12-20T11:31:27Z</time>
      </trkpt>
      <trkpt lat="39.4668850210" lon="-8.0598526821">
        <ele>88.10</ele>
        <time>2018-12-20T11:31:32Z</time>
      </trkpt>
      <trkpt lat="39.4668334723" lon="-8.0598511733">
        <ele>88.10</ele>
        <time>2018-12-20T11:31:38Z</time>
      </trkpt>
      <trkpt lat="39.4667621423" lon="-8.0598589685">
        <ele>88.10</ele>
        <time>2018-12-20T11:31:43Z</time>
      </trkpt>
      <trkpt lat="39.4667599630" lon="-8.0598605610">
        <ele>88.10</ele>
        <time>2018-12-20T11:31:48Z</time>
      </trkpt>
      <trkpt lat="39.4667555206" lon="-8.0598705355">
        <ele>88.58</ele>
        <time>2018-12-20T11:31:56Z</time>
      </trkpt>
      <trkpt lat="39.4666584581" lon="-8.0598512571">
        <ele>88.10</ele>
        <time>2018-12-20T11:32:02Z</time>
      </trkpt>
      <trkpt lat="39.4666635711" lon="-8.0598577112">
        <ele>88.10</ele>
        <time>2018-12-20T11:32:07Z</time>
      </trkpt>
      <trkpt lat="39.4665625691" lon="-8.0598494131">
        <ele>88.10</ele>
        <time>2018-12-20T11:32:12Z</time>
      </trkpt>
      <trkpt lat="39.4664951786" lon="-8.0598588008">
        <ele>87.14</ele>
        <time>2018-12-20T11:32:18Z</time>
      </trkpt>
      <trkpt lat="39.4664999563" lon="-8.0598626565">
        <ele>88.10</ele>
        <time>2018-12-20T11:32:21Z</time>
      </trkpt>
      <trkpt lat="39.4663873035" lon="-8.0598762352">
        <ele>88.10</ele>
        <time>2018-12-20T11:32:27Z</time>
      </trkpt>
      <trkpt lat="39.4663505908" lon="-8.0598896462">
        <ele>88.10</ele>
        <time>2018-12-20T11:32:34Z</time>
      </trkpt>
      <trkpt lat="39.4662481640" lon="-8.0599061586">
        <ele>88.58</ele>
        <time>2018-12-20T11:32:40Z</time>
      </trkpt>
      <trkpt lat="39.4661807735" lon="-8.0599345732">
        <ele>89.06</ele>
        <time>2018-12-20T11:32:45Z</time>
      </trkpt>
      <trkpt lat="39.4661885686" lon="-8.0599256046">
        <ele>89.06</ele>
        <time>2018-12-20T11:32:49Z</time>
      </trkpt>
      <trkpt lat="39.4660827890" lon="-8.0599507503">
        <ele>90.02</ele>
        <time>2018-12-20T11:32:55Z</time>
      </trkpt>
      <trkpt lat="39.4660770055" lon="-8.0599605571">
        <ele>86.66</ele>
        <time>2018-12-20T11:32:56Z</time>
      </trkpt>
      <trkpt lat="39.4660776760" lon="-8.0599546060">
        <ele>89.54</ele>
        <time>2018-12-20T11:32:57Z</time>
      </trkpt>
      <trkpt lat="39.4660447352" lon="-8.0599653348">
        <ele>88.58</ele>
        <time>2018-12-20T11:33:02Z</time>
      </trkpt>
      <trkpt lat="39.4659576472" lon="-8.0600085855">
        <ele>88.10</ele>
        <time>2018-12-20T11:33:08Z</time>
      </trkpt>
      <trkpt lat="39.4659385365" lon="-8.0600074958">
        <ele>89.06</ele>
        <time>2018-12-20T11:33:12Z</time>
      </trkpt>
      <trkpt lat="39.4659180008" lon="-8.0600199010">
        <ele>88.58</ele>
        <time>2018-12-20T11:33:14Z</time>
      </trkpt>
      <trkpt lat="39.4658218604" lon="-8.0600613076">
        <ele>88.58</ele>
        <time>2018-12-20T11:33:20Z</time>
      </trkpt>
      <trkpt lat="39.4657958765" lon="-8.0600640737">
        <ele>88.58</ele>
        <time>2018-12-20T11:33:26Z</time>
      </trkpt>
      <trkpt lat="39.4656560663" lon="-8.0601302069">
        <ele>88.58</ele>
        <time>2018-12-20T11:33:34Z</time>
      </trkpt>
      <trkpt lat="39.4656299986" lon="-8.0601438694">
        <ele>88.58</ele>
        <time>2018-12-20T11:33:40Z</time>
      </trkpt>
      <trkpt lat="39.4655010011" lon="-8.0602070689">
        <ele>89.54</ele>
        <time>2018-12-20T11:33:47Z</time>
      </trkpt>
      <trkpt lat="39.4654878415" lon="-8.0602102540">
        <ele>89.06</ele>
        <time>2018-12-20T11:33:53Z</time>
      </trkpt>
      <trkpt lat="39.4653921202" lon="-8.0602596235">
        <ele>89.06</ele>
        <time>2018-12-20T11:33:58Z</time>
      </trkpt>
      <trkpt lat="39.4653511327" lon="-8.0602897145">
        <ele>90.02</ele>
        <time>2018-12-20T11:34:03Z</time>
      </trkpt>
      <trkpt lat="39.4652711693" lon="-8.0603265949">
        <ele>90.02</ele>
        <time>2018-12-20T11:34:09Z</time>
      </trkpt>
      <trkpt lat="39.4652572554" lon="-8.0603276007">
        <ele>90.50</ele>
        <time>2018-12-20T11:34:10Z</time>
      </trkpt>
      <trkpt lat="39.4652285054" lon="-8.0603560153">
        <ele>90.50</ele>
        <time>2018-12-20T11:34:17Z</time>
      </trkpt>
      <trkpt lat="39.4650935568" lon="-8.0604639743">
        <ele>90.02</ele>
        <time>2018-12-20T11:34:25Z</time>
      </trkpt>
      <trkpt lat="39.4650507253" lon="-8.0605134275">
        <ele>90.50</ele>
        <time>2018-12-20T11:34:30Z</time>
      </trkpt>
      <trkpt lat="39.4650517311" lon="-8.0605109129">
        <ele>90.50</ele>
        <time>2018-12-20T11:34:31Z</time>
      </trkpt>
      <trkpt lat="39.4650151860" lon="-8.0605149362">
        <ele>90.02</ele>
        <time>2018-12-20T11:34:38Z</time>
      </trkpt>
      <trkpt lat="39.4649313670" lon="-8.0605802312">
        <ele>90.50</ele>
        <time>2018-12-20T11:34:44Z</time>
      </trkpt>
      <trkpt lat="39.4649077300" lon="-8.0605912954">
        <ele>90.98</ele>
        <time>2018-12-20T11:34:50Z</time>
      </trkpt>
      <trkpt lat="39.4648524933" lon="-8.0606517289">
        <ele>90.98</ele>
        <time>2018-12-20T11:34:54Z</time>
      </trkpt>
      <trkpt lat="39.4647908863" lon="-8.0607288424">
        <ele>90.98</ele>
        <time>2018-12-20T11:35:01Z</time>
      </trkpt>
      <trkpt lat="39.4647009484" lon="-8.0607995857">
        <ele>90.98</ele>
        <time>2018-12-20T11:35:08Z</time>
      </trkpt>
      <trkpt lat="39.4646949135" lon="-8.0608088896">
        <ele>91.94</ele>
        <time>2018-12-20T11:35:13Z</time>
      </trkpt>
      <trkpt lat="39.4646275230" lon="-8.0608686525">
        <ele>91.46</ele>
        <time>2018-12-20T11:35:18Z</time>
      </trkpt>
      <trkpt lat="39.4646250084" lon="-8.0608863384">
        <ele>92.42</ele>
        <time>2018-12-20T11:35:23Z</time>
      </trkpt>
      <trkpt lat="39.4645233359" lon="-8.0609646253">
        <ele>92.90</ele>
        <time>2018-12-20T11:35:29Z</time>
      </trkpt>
      <trkpt lat="39.4645201508" lon="-8.0609688163">
        <ele>92.90</ele>
        <time>2018-12-20T11:35:34Z</time>
      </trkpt>
      <trkpt lat="39.4644494075" lon="-8.0610304233">
        <ele>93.87</ele>
        <time>2018-12-20T11:35:40Z</time>
      </trkpt>
      <trkpt lat="39.4644323085" lon="-8.0610823911">
        <ele>93.87</ele>
        <time>2018-12-20T11:35:45Z</time>
      </trkpt>
      <trkpt lat="39.4644150417" lon="-8.0611015856">
        <ele>93.87</ele>
        <time>2018-12-20T11:35:46Z</time>
      </trkpt>
      <trkpt lat="39.4643831067" lon="-8.0611466803">
        <ele>95.31</ele>
        <time>2018-12-20T11:35:51Z</time>
      </trkpt>
      <trkpt lat="39.4643669296" lon="-8.0611515418">
        <ele>94.35</ele>
        <time>2018-12-20T11:35:53Z</time>
      </trkpt>
      <trkpt lat="39.4643344078" lon="-8.0612258054">
        <ele>94.83</ele>
        <time>2018-12-20T11:35:59Z</time>
      </trkpt>
      <trkpt lat="39.4643194880" lon="-8.0612589139">
        <ele>94.35</ele>
        <time>2018-12-20T11:36:04Z</time>
      </trkpt>
      <trkpt lat="39.4642561208" lon="-8.0613909289">
        <ele>93.39</ele>
        <time>2018-12-20T11:36:10Z</time>
      </trkpt>
      <trkpt lat="39.4642479904" lon="-8.0613942817">
        <ele>93.39</ele>
        <time>2018-12-20T11:36:16Z</time>
      </trkpt>
      <trkpt lat="39.4641902391" lon="-8.0614926852">
        <ele>92.90</ele>
        <time>2018-12-20T11:36:21Z</time>
      </trkpt>
      <trkpt lat="39.4641500898" lon="-8.0615917593">
        <ele>93.39</ele>
        <time>2018-12-20T11:36:26Z</time>
      </trkpt>
      <trkpt lat="39.4641495869" lon="-8.0616215989">
        <ele>92.90</ele>
        <time>2018-12-20T11:36:29Z</time>
      </trkpt>
      <trkpt lat="39.4641231839" lon="-8.0616749916">
        <ele>93.39</ele>
        <time>2018-12-20T11:36:37Z</time>
      </trkpt>
      <trkpt lat="39.4641229324" lon="-8.0616692081">
        <ele>93.39</ele>
        <time>2018-12-20T11:36:43Z</time>
      </trkpt>
      <trkpt lat="39.4641030673" lon="-8.0616987962">
        <ele>92.42</ele>
        <time>2018-12-20T11:36:48Z</time>
      </trkpt>
      <trkpt lat="39.4640416279" lon="-8.0618329067">
        <ele>92.42</ele>
        <time>2018-12-20T11:36:55Z</time>
      </trkpt>
      <trkpt lat="39.4640420470" lon="-8.0618319847">
        <ele>92.42</ele>
        <time>2018-12-20T11:36:56Z</time>
      </trkpt>
      <trkpt lat="39.4640435558" lon="-8.0618358403">
        <ele>92.42</ele>
        <time>2018-12-20T11:36:59Z</time>
      </trkpt>
      <trkpt lat="39.4640068430" lon="-8.0618977826">
        <ele>91.94</ele>
        <time>2018-12-20T11:37:03Z</time>
      </trkpt>
      <trkpt lat="39.4639597367" lon="-8.0619812664">
        <ele>91.46</ele>
        <time>2018-12-20T11:37:10Z</time>
      </trkpt>
      <trkpt lat="39.4639635924" lon="-8.0619849544">
        <ele>92.42</ele>
        <time>2018-12-20T11:37:12Z</time>
      </trkpt>
      <trkpt lat="39.4639202580" lon="-8.0620967690">
        <ele>91.94</ele>
        <time>2018-12-20T11:37:18Z</time>
      </trkpt>
      <trkpt lat="39.4639170729" lon="-8.0621049833">
        <ele>91.94</ele>
        <time>2018-12-20T11:37:22Z</time>
      </trkpt>
      <trkpt lat="39.4638703857" lon="-8.0622254312">
        <ele>91.94</ele>
        <time>2018-12-20T11:37:28Z</time>
      </trkpt>
      <trkpt lat="39.4638719782" lon="-8.0622245092">
        <ele>90.98</ele>
        <time>2018-12-20T11:37:34Z</time>
      </trkpt>
      <trkpt lat="39.4638457429" lon="-8.0622954201">
        <ele>91.94</ele>
        <time>2018-12-20T11:37:39Z</time>
      </trkpt>
      <trkpt lat="39.4638216030" lon="-8.0623675045">
        <ele>92.42</ele>
        <time>2018-12-20T11:37:44Z</time>
      </trkpt>
      <trkpt lat="39.4638239499" lon="-8.0623866990">
        <ele>91.46</ele>
        <time>2018-12-20T11:37:48Z</time>
      </trkpt>
      <trkpt lat="39.4637879916" lon="-8.0624509044">
        <ele>91.46</ele>
        <time>2018-12-20T11:37:53Z</time>
      </trkpt>
      <trkpt lat="39.4637946971" lon="-8.0624745414">
        <ele>90.98</ele>
        <time>2018-12-20T11:37:59Z</time>
      </trkpt>
      <trkpt lat="39.4637490157" lon="-8.0626214761">
        <ele>90.50</ele>
        <time>2018-12-20T11:38:06Z</time>
      </trkpt>
      <trkpt lat="39.4637516979" lon="-8.0626208056">
        <ele>90.50</ele>
        <time>2018-12-20T11:38:10Z</time>
      </trkpt>
      <trkpt lat="39.4636971317" lon="-8.0627922993">
        <ele>90.50</ele>
        <time>2018-12-20T11:38:17Z</time>
      </trkpt>
      <trkpt lat="39.4637045078" lon="-8.0628171936">
        <ele>90.02</ele>
        <time>2018-12-20T11:38:22Z</time>
      </trkpt>
      <trkpt lat="39.4637048431" lon="-8.0628292635">
        <ele>90.50</ele>
        <time>2018-12-20T11:38:25Z</time>
      </trkpt>
      <trkpt lat="39.4636434875" lon="-8.0629750248">
        <ele>90.50</ele>
        <time>2018-12-20T11:38:31Z</time>
      </trkpt>
      <trkpt lat="39.4636346027" lon="-8.0630392302">
        <ele>90.50</ele>
        <time>2018-12-20T11:38:36Z</time>
      </trkpt>
      <trkpt lat="39.4636404701" lon="-8.0630327761">
        <ele>90.02</ele>
        <time>2018-12-20T11:38:39Z</time>
      </trkpt>
      <trkpt lat="39.4636013266" lon="-8.0631394777">
        <ele>90.02</ele>
        <time>2018-12-20T11:38:44Z</time>
      </trkpt>
      <trkpt lat="39.4635839760" lon="-8.0632372946">
        <ele>90.02</ele>
        <time>2018-12-20T11:38:49Z</time>
      </trkpt>
      <trkpt lat="39.4635904301" lon="-8.0632269010">
        <ele>89.54</ele>
        <time>2018-12-20T11:38:53Z</time>
      </trkpt>
      <trkpt lat="39.4635460898" lon="-8.0633172579">
        <ele>89.54</ele>
        <time>2018-12-20T11:38:58Z</time>
      </trkpt>
      <trkpt lat="39.4635369536" lon="-8.0633512046">
        <ele>89.54</ele>
        <time>2018-12-20T11:39:01Z</time>
      </trkpt>
      <trkpt lat="39.4635152444" lon="-8.0634203553">
        <ele>89.54</ele>
        <time>2018-12-20T11:39:05Z</time>
      </trkpt>
      <trkpt lat="39.4634994026" lon="-8.0634826329">
        <ele>89.54</ele>
        <time>2018-12-20T11:39:11Z</time>
      </trkpt>
      <trkpt lat="39.4634998217" lon="-8.0635217763">
        <ele>89.06</ele>
        <time>2018-12-20T11:39:17Z</time>
      </trkpt>
      <trkpt lat="39.4634724967" lon="-8.0636206828">
        <ele>88.58</ele>
        <time>2018-12-20T11:39:22Z</time>
      </trkpt>
      <trkpt lat="39.4634760171" lon="-8.0636186711">
        <ele>88.58</ele>
        <time>2018-12-20T11:39:26Z</time>
      </trkpt>
      <trkpt lat="39.4633921981" lon="-8.0637641810">
        <ele>88.58</ele>
        <time>2018-12-20T11:39:33Z</time>
      </trkpt>
      <trkpt lat="39.4633900188" lon="-8.0638178252">
        <ele>88.58</ele>
        <time>2018-12-20T11:39:38Z</time>
      </trkpt>
      <trkpt lat="39.4633973110" lon="-8.0638578068">
        <ele>88.10</ele>
        <time>2018-12-20T11:39:44Z</time>
      </trkpt>
      <trkpt lat="39.4633383024" lon="-8.0639790930">
        <ele>89.06</ele>
        <time>2018-12-20T11:39:49Z</time>
      </trkpt>
      <trkpt lat="39.4633172639" lon="-8.0640193261">
        <ele>88.58</ele>
        <time>2018-12-20T11:39:55Z</time>
      </trkpt>
      <trkpt lat="39.4632607698" lon="-8.0641536880">
        <ele>89.06</ele>
        <time>2018-12-20T11:40:01Z</time>
      </trkpt>
      <trkpt lat="39.4632552378" lon="-8.0642367527">
        <ele>88.58</ele>
        <time>2018-12-20T11:40:06Z</time>
      </trkpt>
      <trkpt lat="39.4632203691" lon="-8.0643715337">
        <ele>89.06</ele>
        <time>2018-12-20T11:40:15Z</time>
      </trkpt>
      <trkpt lat="39.4632031024" lon="-8.0644251779">
        <ele>89.06</ele>
        <time>2018-12-20T11:40:23Z</time>
      </trkpt>
      <trkpt lat="39.4631933793" lon="-8.0644587055">
        <ele>89.54</ele>
        <time>2018-12-20T11:40:27Z</time>
      </trkpt>
      <trkpt lat="39.4631662220" lon="-8.0645308737">
        <ele>88.58</ele>
        <time>2018-12-20T11:40:32Z</time>
      </trkpt>
      <trkpt lat="39.4631550740" lon="-8.0645616353">
        <ele>89.06</ele>
        <time>2018-12-20T11:40:38Z</time>
      </trkpt>
      <trkpt lat="39.4631156791" lon="-8.0646424368">
        <ele>89.06</ele>
        <time>2018-12-20T11:40:42Z</time>
      </trkpt>
      <trkpt lat="39.4631026872" lon="-8.0647148564">
        <ele>89.54</ele>
        <time>2018-12-20T11:40:46Z</time>
      </trkpt>
      <trkpt lat="39.4631010108" lon="-8.0647146050">
        <ele>89.54</ele>
        <time>2018-12-20T11:40:50Z</time>
      </trkpt>
      <trkpt lat="39.4630956464" lon="-8.0647437740">
        <ele>89.54</ele>
        <time>2018-12-20T11:40:52Z</time>
      </trkpt>
      <trkpt lat="39.4630439300" lon="-8.0648466200">
        <ele>89.06</ele>
        <time>2018-12-20T11:40:57Z</time>
      </trkpt>
      <trkpt lat="39.4630431756" lon="-8.0648705084">
        <ele>88.58</ele>
        <time>2018-12-20T11:40:58Z</time>
      </trkpt>
      <trkpt lat="39.4630419184" lon="-8.0649312772">
        <ele>89.06</ele>
        <time>2018-12-20T11:41:05Z</time>
      </trkpt>
      <trkpt lat="39.4629703369" lon="-8.0651023518">
        <ele>89.06</ele>
        <time>2018-12-20T11:41:12Z</time>
      </trkpt>
      <trkpt lat="39.4629622065" lon="-8.0651233904">
        <ele>89.06</ele>
        <time>2018-12-20T11:41:13Z</time>
      </trkpt>
      <trkpt lat="39.4629529864" lon="-8.0651419144">
        <ele>89.54</ele>
        <time>2018-12-20T11:41:15Z</time>
      </trkpt>
      <trkpt lat="39.4629659783" lon="-8.0651751067">
        <ele>90.02</ele>
        <time>2018-12-20T11:41:19Z</time>
      </trkpt>
      <trkpt lat="39.4629179500" lon="-8.0652898550">
        <ele>89.54</ele>
        <time>2018-12-20T11:41:26Z</time>
      </trkpt>
      <trkpt lat="39.4629161898" lon="-8.0653345305">
        <ele>90.02</ele>
        <time>2018-12-20T11:41:33Z</time>
      </trkpt>
      <trkpt lat="39.4629178662" lon="-8.0654137395">
        <ele>90.02</ele>
        <time>2018-12-20T11:41:40Z</time>
      </trkpt>
      <trkpt lat="39.4628300238" lon="-8.0655708164">
        <ele>90.50</ele>
        <time>2018-12-20T11:41:46Z</time>
      </trkpt>
      <trkpt lat="39.4628038723" lon="-8.0656760931">
        <ele>90.02</ele>
        <time>2018-12-20T11:41:52Z</time>
      </trkpt>
      <trkpt lat="39.4628130086" lon="-8.0656726565">
        <ele>90.02</ele>
        <time>2018-12-20T11:41:56Z</time>
      </trkpt>
      <trkpt lat="39.4628174510" lon="-8.0657107104">
        <ele>89.54</ele>
        <time>2018-12-20T11:42:00Z</time>
      </trkpt>
      <trkpt lat="39.4627581071" lon="-8.0658459943">
        <ele>89.54</ele>
        <time>2018-12-20T11:42:06Z</time>
      </trkpt>
      <trkpt lat="39.4627440255" lon="-8.0659189168">
        <ele>89.54</ele>
        <time>2018-12-20T11:42:09Z</time>
      </trkpt>
      <trkpt lat="39.4627365656" lon="-8.0660106987">
        <ele>89.54</ele>
        <time>2018-12-20T11:42:17Z</time>
      </trkpt>
      <trkpt lat="39.4626793172" lon="-8.0660885666">
        <ele>89.54</ele>
        <time>2018-12-20T11:42:22Z</time>
      </trkpt>
      <trkpt lat="39.4626787305" lon="-8.0661122873">
        <ele>89.54</ele>
        <time>2018-12-20T11:42:26Z</time>
      </trkpt>
      <trkpt lat="39.4626431074" lon="-8.0661879759">
        <ele>90.02</ele>
        <time>2018-12-20T11:42:31Z</time>
      </trkpt>
      <trkpt lat="39.4626282714" lon="-8.0662444700">
        <ele>90.02</ele>
        <time>2018-12-20T11:42:36Z</time>
      </trkpt>
      <trkpt lat="39.4626125135" lon="-8.0662830267">
        <ele>90.98</ele>
        <time>2018-12-20T11:42:40Z</time>
      </trkpt>
      <trkpt lat="39.4625802431" lon="-8.0663709529">
        <ele>90.50</ele>
        <time>2018-12-20T11:42:45Z</time>
      </trkpt>
      <trkpt lat="39.4625203125" lon="-8.0664890539">
        <ele>90.50</ele>
        <time>2018-12-20T11:42:50Z</time>
      </trkpt>
      <trkpt lat="39.4625195581" lon="-8.0665551871">
        <ele>89.54</ele>
        <time>2018-12-20T11:42:57Z</time>
      </trkpt>
      <trkpt lat="39.4625103381" lon="-8.0665566958">
        <ele>90.50</ele>
        <time>2018-12-20T11:43:04Z</time>
      </trkpt>
      <trkpt lat="39.4624798279" lon="-8.0666751321">
        <ele>89.54</ele>
        <time>2018-12-20T11:43:10Z</time>
      </trkpt>
      <trkpt lat="39.4624259323" lon="-8.0668406747">
        <ele>89.06</ele>
        <time>2018-12-20T11:43:16Z</time>
      </trkpt>
      <trkpt lat="39.4624098390" lon="-8.0669188779">
        <ele>90.50</ele>
        <time>2018-12-20T11:43:20Z</time>
      </trkpt>
      <trkpt lat="39.4624122698" lon="-8.0669448618">
        <ele>90.02</ele>
        <time>2018-12-20T11:43:22Z</time>
      </trkpt>
      <trkpt lat="39.4623940811" lon="-8.0669792276">
        <ele>90.02</ele>
        <time>2018-12-20T11:43:29Z</time>
      </trkpt>
      <trkpt lat="39.4623958413" lon="-8.0669827480">
        <ele>90.50</ele>
        <time>2018-12-20T11:43:34Z</time>
      </trkpt>
      <trkpt lat="39.4624048937" lon="-8.0670047086">
        <ele>90.02</ele>
        <time>2018-12-20T11:43:36Z</time>
      </trkpt>
      <trkpt lat="39.4623649959" lon="-8.0671117455">
        <ele>89.06</ele>
        <time>2018-12-20T11:43:42Z</time>
      </trkpt>
      <trkpt lat="39.4623582903" lon="-8.0671270844">
        <ele>88.58</ele>
        <time>2018-12-20T11:43:47Z</time>
      </trkpt>
      <trkpt lat="39.4623562787" lon="-8.0671409145">
        <ele>89.06</ele>
        <time>2018-12-20T11:43:48Z</time>
      </trkpt>
      <trkpt lat="39.4623131957" lon="-8.0673081335">
        <ele>89.06</ele>
        <time>2018-12-20T11:43:55Z</time>
      </trkpt>
      <trkpt lat="39.4623005390" lon="-8.0673038587">
        <ele>89.06</ele>
        <time>2018-12-20T11:44:01Z</time>
      </trkpt>
      <trkpt lat="39.4622494932" lon="-8.0674088001">
        <ele>88.58</ele>
        <time>2018-12-20T11:44:07Z</time>
      </trkpt>
      <trkpt lat="39.4621862937" lon="-8.0675443355">
        <ele>89.06</ele>
        <time>2018-12-20T11:44:13Z</time>
      </trkpt>
      <trkpt lat="39.4621800072" lon="-8.0675962195">
        <ele>89.06</ele>
        <time>2018-12-20T11:44:18Z</time>
      </trkpt>
      <trkpt lat="39.4621844497" lon="-8.0676352791">
        <ele>88.58</ele>
        <time>2018-12-20T11:44:24Z</time>
      </trkpt>
      <trkpt lat="39.4621280394" lon="-8.0677712336">
        <ele>88.58</ele>
        <time>2018-12-20T11:44:30Z</time>
      </trkpt>
      <trkpt lat="39.4620764907" lon="-8.0679454934">
        <ele>88.10</ele>
        <time>2018-12-20T11:44:37Z</time>
      </trkpt>
      <trkpt lat="39.4620822743" lon="-8.0679548811">
        <ele>88.58</ele>
        <time>2018-12-20T11:44:43Z</time>
      </trkpt>
      <trkpt lat="39.4620876387" lon="-8.0679575633">
        <ele>87.62</ele>
        <time>2018-12-20T11:44:46Z</time>
      </trkpt>
      <trkpt lat="39.4620158896" lon="-8.0680835433">
        <ele>87.62</ele>
        <time>2018-12-20T11:44:53Z</time>
      </trkpt>
      <trkpt lat="39.4619961921" lon="-8.0681477487">
        <ele>87.62</ele>
        <time>2018-12-20T11:44:59Z</time>
      </trkpt>
      <trkpt lat="39.4620118663" lon="-8.0681723915">
        <ele>87.14</ele>
        <time>2018-12-20T11:45:05Z</time>
      </trkpt>
      <trkpt lat="39.4618493412" lon="-8.0681986269">
        <ele>87.14</ele>
        <time>2018-12-20T11:45:13Z</time>
      </trkpt>
      <trkpt lat="39.4617905840" lon="-8.0682055838">
        <ele>87.14</ele>
        <time>2018-12-20T11:45:18Z</time>
      </trkpt>
      <trkpt lat="39.4617410470" lon="-8.0681957770">
        <ele>87.14</ele>
        <time>2018-12-20T11:45:24Z</time>
      </trkpt>
      <trkpt lat="39.4616116304" lon="-8.0681589805">
        <ele>87.14</ele>
        <time>2018-12-20T11:45:30Z</time>
      </trkpt>
      <trkpt lat="39.4615667034" lon="-8.0681599025">
        <ele>88.10</ele>
        <time>2018-12-20T11:45:35Z</time>
      </trkpt>
      <trkpt lat="39.4615613390" lon="-8.0681750737">
        <ele>86.66</ele>
        <time>2018-12-20T11:45:41Z</time>
      </trkpt>
      <trkpt lat="39.4614456687" lon="-8.0682591442">
        <ele>85.69</ele>
        <time>2018-12-20T11:45:48Z</time>
      </trkpt>
      <trkpt lat="39.4613473490" lon="-8.0683752336">
        <ele>86.18</ele>
        <time>2018-12-20T11:45:54Z</time>
      </trkpt>
      <trkpt lat="39.4613035955" lon="-8.0684686080">
        <ele>86.18</ele>
        <time>2018-12-20T11:46:00Z</time>
      </trkpt>
      <trkpt lat="39.4613184314" lon="-8.0684687756">
        <ele>86.18</ele>
        <time>2018-12-20T11:46:06Z</time>
      </trkpt>
      <trkpt lat="39.4612833112" lon="-8.0685536843">
        <ele>85.69</ele>
        <time>2018-12-20T11:46:11Z</time>
      </trkpt>
      <trkpt lat="39.4612843171" lon="-8.0686722882">
        <ele>85.21</ele>
        <time>2018-12-20T11:46:16Z</time>
      </trkpt>
      <trkpt lat="39.4612914417" lon="-8.0686846934">
        <ele>85.21</ele>
        <time>2018-12-20T11:46:21Z</time>
      </trkpt>
      <trkpt lat="39.4612540584" lon="-8.0688405968">
        <ele>85.69</ele>
        <time>2018-12-20T11:46:27Z</time>
      </trkpt>
      <trkpt lat="39.4612538908" lon="-8.0688966718">
        <ele>85.21</ele>
        <time>2018-12-20T11:46:33Z</time>
      </trkpt>
      <trkpt lat="39.4612482749" lon="-8.0689254217">
        <ele>86.18</ele>
        <time>2018-12-20T11:46:38Z</time>
      </trkpt>
      <trkpt lat="39.4612127356" lon="-8.0690728594">
        <ele>86.66</ele>
        <time>2018-12-20T11:46:43Z</time>
      </trkpt>
      <trkpt lat="39.4612052757" lon="-8.0691405013">
        <ele>86.18</ele>
        <time>2018-12-20T11:46:48Z</time>
      </trkpt>
      <trkpt lat="39.4611942116" lon="-8.0691555887">
        <ele>85.69</ele>
        <time>2018-12-20T11:46:53Z</time>
      </trkpt>
      <trkpt lat="39.4611579180" lon="-8.0693182815">
        <ele>86.66</ele>
        <time>2018-12-20T11:46:59Z</time>
      </trkpt>
      <trkpt lat="39.4611539785" lon="-8.0694059562">
        <ele>86.18</ele>
        <time>2018-12-20T11:47:06Z</time>
      </trkpt>
      <trkpt lat="39.4611546490" lon="-8.0694101471">
        <ele>86.66</ele>
        <time>2018-12-20T11:47:08Z</time>
      </trkpt>
      <trkpt lat="39.4611162599" lon="-8.0695404857">
        <ele>86.66</ele>
        <time>2018-12-20T11:47:14Z</time>
      </trkpt>
      <trkpt lat="39.4611156732" lon="-8.0695360433">
        <ele>87.62</ele>
        <time>2018-12-20T11:47:15Z</time>
      </trkpt>
      <trkpt lat="39.4610757753" lon="-8.0696184374">
        <ele>87.14</ele>
        <time>2018-12-20T11:47:20Z</time>
      </trkpt>
      <trkpt lat="39.4610774517" lon="-8.0696259812">
        <ele>87.14</ele>
        <time>2018-12-20T11:47:24Z</time>
      </trkpt>
      <trkpt lat="39.4610522222" lon="-8.0698038451">
        <ele>87.62</ele>
        <time>2018-12-20T11:47:31Z</time>
      </trkpt>
      <trkpt lat="39.4610513840" lon="-8.0698108859">
        <ele>88.58</ele>
        <time>2018-12-20T11:47:36Z</time>
      </trkpt>
      <trkpt lat="39.4610538147" lon="-8.0698158313">
        <ele>87.62</ele>
        <time>2018-12-20T11:47:37Z</time>
      </trkpt>
      <trkpt lat="39.4610321894" lon="-8.0699146539">
        <ele>87.62</ele>
        <time>2018-12-20T11:47:43Z</time>
      </trkpt>
      <trkpt lat="39.4610316865" lon="-8.0699154083">
        <ele>87.62</ele>
        <time>2018-12-20T11:47:44Z</time>
      </trkpt>
      <trkpt lat="39.4609938003" lon="-8.0700493511">
        <ele>88.10</ele>
        <time>2018-12-20T11:47:50Z</time>
      </trkpt>
      <trkpt lat="39.4609738514" lon="-8.0701442342">
        <ele>87.62</ele>
        <time>2018-12-20T11:47:56Z</time>
      </trkpt>
      <trkpt lat="39.4609751087" lon="-8.0701391213">
        <ele>87.14</ele>
        <time>2018-12-20T11:48:02Z</time>
      </trkpt>
      <trkpt lat="39.4609595183" lon="-8.0702241138">
        <ele>87.14</ele>
        <time>2018-12-20T11:48:08Z</time>
      </trkpt>
      <trkpt lat="39.4608889427" lon="-8.0704101082">
        <ele>86.66</ele>
        <time>2018-12-20T11:48:15Z</time>
      </trkpt>
      <trkpt lat="39.4608715922" lon="-8.0704678595">
        <ele>87.14</ele>
        <time>2018-12-20T11:48:21Z</time>
      </trkpt>
      <trkpt lat="39.4608881045" lon="-8.0705014709">
        <ele>86.18</ele>
        <time>2018-12-20T11:48:29Z</time>
      </trkpt>
      <trkpt lat="39.4608790521" lon="-8.0705534387">
        <ele>85.69</ele>
        <time>2018-12-20T11:48:32Z</time>
      </trkpt>
      <trkpt lat="39.4607868511" lon="-8.0706479866">
        <ele>86.18</ele>
        <time>2018-12-20T11:48:36Z</time>
      </trkpt>
      <trkpt lat="39.4607109111" lon="-8.0707860366">
        <ele>86.18</ele>
        <time>2018-12-20T11:48:42Z</time>
      </trkpt>
      <trkpt lat="39.4607199635" lon="-8.0707856175">
        <ele>85.69</ele>
        <time>2018-12-20T11:48:48Z</time>
      </trkpt>
      <trkpt lat="39.4606459513" lon="-8.0709037185">
        <ele>85.21</ele>
        <time>2018-12-20T11:48:54Z</time>
      </trkpt>
      <trkpt lat="39.4605856854" lon="-8.0710136052">
        <ele>85.69</ele>
        <time>2018-12-20T11:49:00Z</time>
      </trkpt>
      <trkpt lat="39.4605860207" lon="-8.0709968414">
        <ele>84.73</ele>
        <time>2018-12-20T11:49:06Z</time>
      </trkpt>
      <trkpt lat="39.4605474640" lon="-8.0710483901">
        <ele>84.25</ele>
        <time>2018-12-20T11:49:10Z</time>
      </trkpt>
      <trkpt lat="39.4604574423" lon="-8.0711541697">
        <ele>83.29</ele>
        <time>2018-12-20T11:49:16Z</time>
      </trkpt>
      <trkpt lat="39.4604720268" lon="-8.0711459555">
        <ele>83.29</ele>
        <time>2018-12-20T11:49:20Z</time>
      </trkpt>
      <trkpt lat="39.4603995234" lon="-8.0712593626">
        <ele>82.81</ele>
        <time>2018-12-20T11:49:25Z</time>
      </trkpt>
      <trkpt lat="39.4603877049" lon="-8.0713068880">
        <ele>81.37</ele>
        <time>2018-12-20T11:49:31Z</time>
      </trkpt>
      <trkpt lat="39.4603969250" lon="-8.0713067204">
        <ele>80.89</ele>
        <time>2018-12-20T11:49:33Z</time>
      </trkpt>
      <trkpt lat="39.4603774790" lon="-8.0713843368">
        <ele>80.41</ele>
        <time>2018-12-20T11:49:39Z</time>
      </trkpt>
      <trkpt lat="39.4603168778" lon="-8.0715384800">
        <ele>79.45</ele>
        <time>2018-12-20T11:49:47Z</time>
      </trkpt>
      <trkpt lat="39.4603135251" lon="-8.0715993326">
        <ele>78.48</ele>
        <time>2018-12-20T11:49:49Z</time>
      </trkpt>
      <trkpt lat="39.4603085797" lon="-8.0716569163">
        <ele>77.52</ele>
        <time>2018-12-20T11:49:56Z</time>
      </trkpt>
      <trkpt lat="39.4603140280" lon="-8.0716772843">
        <ele>76.56</ele>
        <time>2018-12-20T11:50:02Z</time>
      </trkpt>
      <trkpt lat="39.4603124354" lon="-8.0716943834">
        <ele>75.60</ele>
        <time>2018-12-20T11:50:03Z</time>
      </trkpt>
      <trkpt lat="39.4602887146" lon="-8.0717963912">
        <ele>76.08</ele>
        <time>2018-12-20T11:50:07Z</time>
      </trkpt>
      <trkpt lat="39.4602880441" lon="-8.0719019193">
        <ele>76.08</ele>
        <time>2018-12-20T11:50:13Z</time>
      </trkpt>
      <trkpt lat="39.4602773990" lon="-8.0719328485">
        <ele>75.60</ele>
        <time>2018-12-20T11:50:18Z</time>
      </trkpt>
      <trkpt lat="39.4602546003" lon="-8.0719859060">
        <ele>75.12</ele>
        <time>2018-12-20T11:50:20Z</time>
      </trkpt>
      <trkpt lat="39.4602221623" lon="-8.0720928591">
        <ele>75.60</ele>
        <time>2018-12-20T11:50:26Z</time>
      </trkpt>
      <trkpt lat="39.4602052309" lon="-8.0721206870">
        <ele>75.60</ele>
        <time>2018-12-20T11:50:30Z</time>
      </trkpt>
      <trkpt lat="39.4601664227" lon="-8.0722471699">
        <ele>75.12</ele>
        <time>2018-12-20T11:50:35Z</time>
      </trkpt>
      <trkpt lat="39.4601561129" lon="-8.0722760875">
        <ele>75.12</ele>
        <time>2018-12-20T11:50:40Z</time>
      </trkpt>
      <trkpt lat="39.4601593819" lon="-8.0722779315">
        <ele>75.12</ele>
        <time>2018-12-20T11:50:42Z</time>
      </trkpt>
      <trkpt lat="39.4601446297" lon="-8.0723314919">
        <ele>74.64</ele>
        <time>2018-12-20T11:50:45Z</time>
      </trkpt>
      <trkpt lat="39.4601315539" lon="-8.0724215135">
        <ele>75.12</ele>
        <time>2018-12-20T11:50:52Z</time>
      </trkpt>
      <trkpt lat="39.4601354096" lon="-8.0724218488">
        <ele>74.64</ele>
        <time>2018-12-20T11:50:55Z</time>
      </trkpt>
      <trkpt lat="39.4601162151" lon="-8.0724928435">
        <ele>75.60</ele>
        <time>2018-12-20T11:50:58Z</time>
      </trkpt>
      <trkpt lat="39.4601166341" lon="-8.0725781713">
        <ele>76.08</ele>
        <time>2018-12-20T11:51:04Z</time>
      </trkpt>
      <trkpt lat="39.4601118565" lon="-8.0725796800">
        <ele>75.60</ele>
        <time>2018-12-20T11:51:06Z</time>
      </trkpt>
      <trkpt lat="39.4601605553" lon="-8.0727233458">
        <ele>75.12</ele>
        <time>2018-12-20T11:51:12Z</time>
      </trkpt>
      <trkpt lat="39.4601665903" lon="-8.0727334041">
        <ele>76.56</ele>
        <time>2018-12-20T11:51:16Z</time>
      </trkpt>
      <trkpt lat="39.4602097571" lon="-8.0728103500">
        <ele>76.08</ele>
        <time>2018-12-20T11:51:21Z</time>
      </trkpt>
      <trkpt lat="39.4602282811" lon="-8.0728343222">
        <ele>76.56</ele>
        <time>2018-12-20T11:51:25Z</time>
      </trkpt>
      <trkpt lat="39.4602630660" lon="-8.0728776567">
        <ele>76.56</ele>
        <time>2018-12-20T11:51:29Z</time>
      </trkpt>
      <trkpt lat="39.4602707773" lon="-8.0728767347">
        <ele>77.52</ele>
        <time>2018-12-20T11:51:31Z</time>
      </trkpt>
      <trkpt lat="39.4603051431" lon="-8.0729701929">
        <ele>77.52</ele>
        <time>2018-12-20T11:51:37Z</time>
      </trkpt>
      <trkpt lat="39.4603022095" lon="-8.0729696061">
        <ele>78.00</ele>
        <time>2018-12-20T11:51:39Z</time>
      </trkpt>
      <trkpt lat="39.4603201468" lon="-8.0731099192">
        <ele>78.97</ele>
        <time>2018-12-20T11:51:45Z</time>
      </trkpt>
      <trkpt lat="39.4603089150" lon="-8.0731128529">
        <ele>78.97</ele>
        <time>2018-12-20T11:51:48Z</time>
      </trkpt>
      <trkpt lat="39.4602810871" lon="-8.0731457938">
        <ele>79.45</ele>
        <time>2018-12-20T11:51:54Z</time>
      </trkpt>
      <trkpt lat="39.4602604676" lon="-8.0731974263">
        <ele>79.45</ele>
        <time>2018-12-20T11:52:04Z</time>
      </trkpt>
      <trkpt lat="39.4602685142" lon="-8.0732612126">
        <ele>80.41</ele>
        <time>2018-12-20T11:52:09Z</time>
      </trkpt>
      <trkpt lat="39.4602571148" lon="-8.0733218975">
        <ele>80.89</ele>
        <time>2018-12-20T11:52:14Z</time>
      </trkpt>
      <trkpt lat="39.4602340646" lon="-8.0734007712">
        <ele>82.33</ele>
        <time>2018-12-20T11:52:20Z</time>
      </trkpt>
      <trkpt lat="39.4602162950" lon="-8.0734821595">
        <ele>81.37</ele>
        <time>2018-12-20T11:52:24Z</time>
      </trkpt>
      <trkpt lat="39.4602073263" lon="-8.0734974984">
        <ele>82.33</ele>
        <time>2018-12-20T11:52:28Z</time>
      </trkpt>
      <trkpt lat="39.4601939153" lon="-8.0735722650">
        <ele>82.81</ele>
        <time>2018-12-20T11:52:32Z</time>
      </trkpt>
      <trkpt lat="39.4601841085" lon="-8.0736416671">
        <ele>83.29</ele>
        <time>2018-12-20T11:52:37Z</time>
      </trkpt>
      <trkpt lat="39.4601798337" lon="-8.0736494623">
        <ele>83.29</ele>
        <time>2018-12-20T11:52:39Z</time>
      </trkpt>
      <trkpt lat="39.4601644110" lon="-8.0737325270">
        <ele>84.25</ele>
        <time>2018-12-20T11:52:44Z</time>
      </trkpt>
      <trkpt lat="39.4601663388" lon="-8.0737359636">
        <ele>83.29</ele>
        <time>2018-12-20T11:52:46Z</time>
      </trkpt>
      <trkpt lat="39.4601635728" lon="-8.0738229677">
        <ele>85.21</ele>
        <time>2018-12-20T11:52:52Z</time>
      </trkpt>
      <trkpt lat="39.4601644110" lon="-8.0738242250">
        <ele>85.21</ele>
        <time>2018-12-20T11:52:53Z</time>
      </trkpt>
      <trkpt lat="39.4601491559" lon="-8.0739062838">
        <ele>85.69</ele>
        <time>2018-12-20T11:52:59Z</time>
      </trkpt>
      <trkpt lat="39.4601537660" lon="-8.0739107262">
        <ele>85.21</ele>
        <time>2018-12-20T11:53:00Z</time>
      </trkpt>
      <trkpt lat="39.4601421151" lon="-8.0739913601">
        <ele>86.18</ele>
        <time>2018-12-20T11:53:05Z</time>
      </trkpt>
      <trkpt lat="39.4601445459" lon="-8.0739985686">
        <ele>86.18</ele>
        <time>2018-12-20T11:53:07Z</time>
      </trkpt>
      <trkpt lat="39.4601217471" lon="-8.0740599241">
        <ele>86.66</ele>
        <time>2018-12-20T11:53:13Z</time>
      </trkpt>
      <trkpt lat="39.4601219986" lon="-8.0740604270">
        <ele>86.66</ele>
        <time>2018-12-20T11:53:17Z</time>
      </trkpt>
      <trkpt lat="39.4600851182" lon="-8.0741596688">
        <ele>87.14</ele>
        <time>2018-12-20T11:53:23Z</time>
      </trkpt>
      <trkpt lat="39.4600696955" lon="-8.0742284004">
        <ele>87.14</ele>
        <time>2018-12-20T11:53:28Z</time>
      </trkpt>
      <trkpt lat="39.4600682706" lon="-8.0742339324">
        <ele>87.62</ele>
        <time>2018-12-20T11:53:30Z</time>
      </trkpt>
      <trkpt lat="39.4600461423" lon="-8.0743050110">
        <ele>88.10</ele>
        <time>2018-12-20T11:53:35Z</time>
      </trkpt>
      <trkpt lat="39.4600319769" lon="-8.0743709765">
        <ele>88.58</ele>
        <time>2018-12-20T11:53:40Z</time>
      </trkpt>
      <trkpt lat="39.4600328151" lon="-8.0743776821">
        <ele>89.06</ele>
        <time>2018-12-20T11:53:43Z</time>
      </trkpt>
      <trkpt lat="39.4600198232" lon="-8.0744781811">
        <ele>89.54</ele>
        <time>2018-12-20T11:53:49Z</time>
      </trkpt>
      <trkpt lat="39.4600204937" lon="-8.0744849704">
        <ele>89.54</ele>
        <time>2018-12-20T11:53:50Z</time>
      </trkpt>
      <trkpt lat="39.4600001257" lon="-8.0745710526">
        <ele>90.02</ele>
        <time>2018-12-20T11:53:54Z</time>
      </trkpt>
      <trkpt lat="39.4599769078" lon="-8.0746345874">
        <ele>90.50</ele>
        <time>2018-12-20T11:53:59Z</time>
      </trkpt>
      <trkpt lat="39.4599677715" lon="-8.0746624153">
        <ele>90.02</ele>
        <time>2018-12-20T11:54:03Z</time>
      </trkpt>
      <trkpt lat="39.4599707890" lon="-8.0746626668">
        <ele>90.50</ele>
        <time>2018-12-20T11:54:04Z</time>
      </trkpt>
      <trkpt lat="39.4599400274" lon="-8.0747536104">
        <ele>90.98</ele>
        <time>2018-12-20T11:54:10Z</time>
      </trkpt>
      <trkpt lat="39.4599439669" lon="-8.0747531913">
        <ele>90.98</ele>
        <time>2018-12-20T11:54:11Z</time>
      </trkpt>
      <trkpt lat="39.4599256106" lon="-8.0748499185">
        <ele>91.94</ele>
        <time>2018-12-20T11:54:16Z</time>
      </trkpt>
      <trkpt lat="39.4599191565" lon="-8.0748629104">
        <ele>92.42</ele>
        <time>2018-12-20T11:54:20Z</time>
      </trkpt>
      <trkpt lat="39.4598795101" lon="-8.0749991164">
        <ele>92.42</ele>
        <time>2018-12-20T11:54:26Z</time>
      </trkpt>
      <trkpt lat="39.4598774984" lon="-8.0750063248">
        <ele>91.94</ele>
        <time>2018-12-20T11:54:31Z</time>
      </trkpt>
      <trkpt lat="39.4598401990" lon="-8.0751193967">
        <ele>93.87</ele>
        <time>2018-12-20T11:54:36Z</time>
      </trkpt>
      <trkpt lat="39.4598400313" lon="-8.0751378369">
        <ele>92.90</ele>
        <time>2018-12-20T11:54:39Z</time>
      </trkpt>
      <trkpt lat="39.4598075934" lon="-8.0752396770">
        <ele>93.39</ele>
        <time>2018-12-20T11:54:45Z</time>
      </trkpt>
      <trkpt lat="39.4598153047" lon="-8.0752442870">
        <ele>93.87</ele>
        <time>2018-12-20T11:54:47Z</time>
      </trkpt>
      <trkpt lat="39.4598204177" lon="-8.0753249209">
        <ele>94.35</ele>
        <time>2018-12-20T11:54:53Z</time>
      </trkpt>
      <trkpt lat="39.4598002173" lon="-8.0753752962">
        <ele>94.35</ele>
        <time>2018-12-20T11:54:58Z</time>
      </trkpt>
      <trkpt lat="39.4597909972" lon="-8.0753782298">
        <ele>94.35</ele>
        <time>2018-12-20T11:55:01Z</time>
      </trkpt>
      <trkpt lat="39.4597798493" lon="-8.0753825046">
        <ele>94.35</ele>
        <time>2018-12-20T11:55:03Z</time>
      </trkpt>
      <trkpt lat="39.4597239420" lon="-8.0753596220">
        <ele>94.35</ele>
        <time>2018-12-20T11:55:08Z</time>
      </trkpt>
      <trkpt lat="39.4597269595" lon="-8.0753495637">
        <ele>93.87</ele>
        <time>2018-12-20T11:55:11Z</time>
      </trkpt>
      <trkpt lat="39.4596398715" lon="-8.0753395893">
        <ele>95.31</ele>
        <time>2018-12-20T11:55:18Z</time>
      </trkpt>
      <trkpt lat="39.4595742412" lon="-8.0753305368">
        <ele>95.79</ele>
        <time>2018-12-20T11:55:23Z</time>
      </trkpt>
      <trkpt lat="39.4594861474" lon="-8.0753509048">
        <ele>94.83</ele>
        <time>2018-12-20T11:55:29Z</time>
      </trkpt>
      <trkpt lat="39.4594823755" lon="-8.0753717758">
        <ele>94.35</ele>
        <time>2018-12-20T11:55:35Z</time>
      </trkpt>
      <trkpt lat="39.4593108818" lon="-8.0755009409">
        <ele>93.87</ele>
        <time>2018-12-20T11:55:48Z</time>
      </trkpt>
      <trkpt lat="39.4593019132" lon="-8.0755079817">
        <ele>97.71</ele>
        <time>2018-12-20T11:55:49Z</time>
      </trkpt>
      <trkpt lat="39.4592955429" lon="-8.0755143519">
        <ele>92.90</ele>
        <time>2018-12-20T11:55:50Z</time>
      </trkpt>
      <trkpt lat="39.4592330977" lon="-8.0755572673">
        <ele>93.39</ele>
        <time>2018-12-20T11:55:55Z</time>
      </trkpt>
      <trkpt lat="39.4591595046" lon="-8.0756280106">
        <ele>92.90</ele>
        <time>2018-12-20T11:56:01Z</time>
      </trkpt>
      <trkpt lat="39.4591469318" lon="-8.0756217241">
        <ele>93.39</ele>
        <time>2018-12-20T11:56:05Z</time>
      </trkpt>
      <trkpt lat="39.4590460137" lon="-8.0757000949">
        <ele>92.90</ele>
        <time>2018-12-20T11:56:12Z</time>
      </trkpt>
      <trkpt lat="39.4589704089" lon="-8.0757489614">
        <ele>92.42</ele>
        <time>2018-12-20T11:56:18Z</time>
      </trkpt>
      <trkpt lat="39.4589655474" lon="-8.0757762026">
        <ele>91.94</ele>
        <time>2018-12-20T11:56:25Z</time>
      </trkpt>
      <trkpt lat="39.4588555768" lon="-8.0758133344">
        <ele>92.42</ele>
        <time>2018-12-20T11:56:30Z</time>
      </trkpt>
      <trkpt lat="39.4588135835" lon="-8.0758579262">
        <ele>91.94</ele>
        <time>2018-12-20T11:56:35Z</time>
      </trkpt>
      <trkpt lat="39.4587900303" lon="-8.0758911185">
        <ele>91.46</ele>
        <time>2018-12-20T11:56:40Z</time>
      </trkpt>
      <trkpt lat="39.4587235618" lon="-8.0759450980">
        <ele>92.42</ele>
        <time>2018-12-20T11:56:46Z</time>
      </trkpt>
      <trkpt lat="39.4586772099" lon="-8.0759942997">
        <ele>91.94</ele>
        <time>2018-12-20T11:56:51Z</time>
      </trkpt>
      <trkpt lat="39.4586261641" lon="-8.0760370474">
        <ele>92.42</ele>
        <time>2018-12-20T11:56:56Z</time>
      </trkpt>
      <trkpt lat="39.4586195424" lon="-8.0760558229">
        <ele>91.94</ele>
        <time>2018-12-20T11:57:01Z</time>
      </trkpt>
      <trkpt lat="39.4585351367" lon="-8.0761336070">
        <ele>92.90</ele>
        <time>2018-12-20T11:57:06Z</time>
      </trkpt>
      <trkpt lat="39.4585003518" lon="-8.0761897657">
        <ele>92.90</ele>
        <time>2018-12-20T11:57:12Z</time>
      </trkpt>
      <trkpt lat="39.4584531616" lon="-8.0762305018">
        <ele>93.87</ele>
        <time>2018-12-20T11:57:17Z</time>
      </trkpt>
      <trkpt lat="39.4583886210" lon="-8.0763067771">
        <ele>93.87</ele>
        <time>2018-12-20T11:57:22Z</time>
      </trkpt>
      <trkpt lat="39.4583700970" lon="-8.0763506982">
        <ele>93.87</ele>
        <time>2018-12-20T11:57:28Z</time>
      </trkpt>
      <trkpt lat="39.4583086576" lon="-8.0764638539">
        <ele>95.31</ele>
        <time>2018-12-20T11:57:35Z</time>
      </trkpt>
      <trkpt lat="39.4583063107" lon="-8.0764889996">
        <ele>94.83</ele>
        <time>2018-12-20T11:57:40Z</time>
      </trkpt>
      <trkpt lat="39.4582427759" lon="-8.0765780993">
        <ele>94.83</ele>
        <time>2018-12-20T11:57:45Z</time>
      </trkpt>
      <trkpt lat="39.4582259282" lon="-8.0765952822">
        <ele>95.31</ele>
        <time>2018-12-20T11:57:51Z</time>
      </trkpt>
      <trkpt lat="39.4581704400" lon="-8.0766790174">
        <ele>95.79</ele>
        <time>2018-12-20T11:57:56Z</time>
      </trkpt>
      <trkpt lat="39.4581571966" lon="-8.0766915064">
        <ele>96.75</ele>
        <time>2018-12-20T11:58:00Z</time>
      </trkpt>
      <trkpt lat="39.4581129402" lon="-8.0767703801">
        <ele>97.71</ele>
        <time>2018-12-20T11:58:06Z</time>
      </trkpt>
      <trkpt lat="39.4580974337" lon="-8.0767976213">
        <ele>97.71</ele>
        <time>2018-12-20T11:58:10Z</time>
      </trkpt>
      <trkpt lat="39.4580542669" lon="-8.0768849608">
        <ele>97.23</ele>
        <time>2018-12-20T11:58:16Z</time>
      </trkpt>
      <trkpt lat="39.4580589607" lon="-8.0768976174">
        <ele>97.71</ele>
        <time>2018-12-20T11:58:19Z</time>
      </trkpt>
      <trkpt lat="39.4580300432" lon="-8.0769430473">
        <ele>98.67</ele>
        <time>2018-12-20T11:58:21Z</time>
      </trkpt>
      <trkpt lat="39.4580071606" lon="-8.0770080909">
        <ele>98.19</ele>
        <time>2018-12-20T11:58:26Z</time>
      </trkpt>
      <trkpt lat="39.4579767343" lon="-8.0770821869">
        <ele>98.67</ele>
        <time>2018-12-20T11:58:30Z</time>
      </trkpt>
      <trkpt lat="39.4579449669" lon="-8.0771767348">
        <ele>99.15</ele>
        <time>2018-12-20T11:58:35Z</time>
      </trkpt>
      <trkpt lat="39.4579492416" lon="-8.0771897268">
        <ele>99.63</ele>
        <time>2018-12-20T11:58:38Z</time>
      </trkpt>
      <trkpt lat="39.4579298794" lon="-8.0772737134">
        <ele>99.15</ele>
        <time>2018-12-20T11:58:43Z</time>
      </trkpt>
      <trkpt lat="39.4579302985" lon="-8.0772793293">
        <ele>100.60</ele>
        <time>2018-12-20T11:58:46Z</time>
      </trkpt>
      <trkpt lat="39.4579165522" lon="-8.0773281120">
        <ele>100.11</ele>
        <time>2018-12-20T11:58:48Z</time>
      </trkpt>
      <trkpt lat="39.4579073321" lon="-8.0774030462">
        <ele>100.60</ele>
        <time>2018-12-20T11:58:54Z</time>
      </trkpt>
      <trkpt lat="39.4579074997" lon="-8.0774087459">
        <ele>100.60</ele>
        <time>2018-12-20T11:58:55Z</time>
      </trkpt>
      <trkpt lat="39.4578784145" lon="-8.0775080714">
        <ele>101.56</ele>
        <time>2018-12-20T11:59:01Z</time>
      </trkpt>
      <trkpt lat="39.4578699488" lon="-8.0775700975">
        <ele>101.08</ele>
        <time>2018-12-20T11:59:06Z</time>
      </trkpt>
      <trkpt lat="39.4578572083" lon="-8.0776686687">
        <ele>101.08</ele>
        <time>2018-12-20T11:59:11Z</time>
      </trkpt>
      <trkpt lat="39.4578607287" lon="-8.0776798166">
        <ele>101.56</ele>
        <time>2018-12-20T11:59:14Z</time>
      </trkpt>
      <trkpt lat="39.4578216691" lon="-8.0777877755">
        <ele>101.56</ele>
        <time>2018-12-20T11:59:19Z</time>
      </trkpt>
      <trkpt lat="39.4578195736" lon="-8.0778061319">
        <ele>101.56</ele>
        <time>2018-12-20T11:59:24Z</time>
      </trkpt>
      <trkpt lat="39.4578137901" lon="-8.0779006798">
        <ele>101.56</ele>
        <time>2018-12-20T11:59:29Z</time>
      </trkpt>
      <trkpt lat="39.4577956852" lon="-8.0779598560">
        <ele>101.08</ele>
        <time>2018-12-20T11:59:31Z</time>
      </trkpt>
      <trkpt lat="39.4577976130" lon="-8.0780834891">
        <ele>100.60</ele>
        <time>2018-12-20T11:59:37Z</time>
      </trkpt>
      <trkpt lat="39.4578093477" lon="-8.0780763645">
        <ele>100.60</ele>
        <time>2018-12-20T11:59:42Z</time>
      </trkpt>
      <trkpt lat="39.4577811845" lon="-8.0781788751">
        <ele>100.11</ele>
        <time>2018-12-20T11:59:46Z</time>
      </trkpt>
      <trkpt lat="39.4577606488" lon="-8.0782449245">
        <ele>99.15</ele>
        <time>2018-12-20T11:59:52Z</time>
      </trkpt>
      <trkpt lat="39.4577621575" lon="-8.0782693997">
        <ele>99.15</ele>
        <time>2018-12-20T11:59:56Z</time>
      </trkpt>
      <trkpt lat="39.4576979522" lon="-8.0784143228">
        <ele>98.67</ele>
        <time>2018-12-20T12:00:02Z</time>
      </trkpt>
      <trkpt lat="39.4576937612" lon="-8.0784554780">
        <ele>97.71</ele>
        <time>2018-12-20T12:00:07Z</time>
      </trkpt>
      <trkpt lat="39.4577007182" lon="-8.0784693919">
        <ele>98.19</ele>
        <time>2018-12-20T12:00:09Z</time>
      </trkpt>
      <trkpt lat="39.4576721359" lon="-8.0785315856">
        <ele>97.71</ele>
        <time>2018-12-20T12:00:12Z</time>
      </trkpt>
      <trkpt lat="39.4576683640" lon="-8.0786320008">
        <ele>98.19</ele>
        <time>2018-12-20T12:00:19Z</time>
      </trkpt>
      <trkpt lat="39.4576735608" lon="-8.0786372814">
        <ele>97.71</ele>
        <time>2018-12-20T12:00:22Z</time>
      </trkpt>
      <trkpt lat="39.4576201681" lon="-8.0788202584">
        <ele>97.23</ele>
        <time>2018-12-20T12:00:29Z</time>
      </trkpt>
      <trkpt lat="39.4576153904" lon="-8.0788263772">
        <ele>96.27</ele>
        <time>2018-12-20T12:00:33Z</time>
      </trkpt>
      <trkpt lat="39.4576192461" lon="-8.0788236111">
        <ele>95.79</ele>
        <time>2018-12-20T12:00:35Z</time>
      </trkpt>
      <trkpt lat="39.4576039910" lon="-8.0789793469">
        <ele>96.27</ele>
        <time>2018-12-20T12:00:41Z</time>
      </trkpt>
      <trkpt lat="39.4575939327" lon="-8.0790197477">
        <ele>95.79</ele>
        <time>2018-12-20T12:00:45Z</time>
      </trkpt>
      <trkpt lat="39.4575933460" lon="-8.0790123716">
        <ele>95.79</ele>
        <time>2018-12-20T12:00:48Z</time>
      </trkpt>
      <trkpt lat="39.4575997163" lon="-8.0791556183">
        <ele>95.31</ele>
        <time>2018-12-20T12:00:54Z</time>
      </trkpt>
      <trkpt lat="39.4576025661" lon="-8.0791577976">
        <ele>94.35</ele>
        <time>2018-12-20T12:00:58Z</time>
      </trkpt>
      <trkpt lat="39.4576083496" lon="-8.0791663472">
        <ele>94.35</ele>
        <time>2018-12-20T12:00:59Z</time>
      </trkpt>
      <trkpt lat="39.4576070923" lon="-8.0793025531">
        <ele>94.83</ele>
        <time>2018-12-20T12:01:04Z</time>
      </trkpt>
      <trkpt lat="39.4576107804" lon="-8.0793151259">
        <ele>94.35</ele>
        <time>2018-12-20T12:01:08Z</time>
      </trkpt>
      <trkpt lat="39.4576257840" lon="-8.0794439558">
        <ele>94.35</ele>
        <time>2018-12-20T12:01:14Z</time>
      </trkpt>
      <trkpt lat="39.4576554559" lon="-8.0794949178">
        <ele>93.39</ele>
        <time>2018-12-20T12:01:18Z</time>
      </trkpt>
      <trkpt lat="39.4576432183" lon="-8.0795014556">
        <ele>93.39</ele>
        <time>2018-12-20T12:01:25Z</time>
      </trkpt>
      <trkpt lat="39.4576926716" lon="-8.0796923954">
        <ele>92.42</ele>
        <time>2018-12-20T12:01:32Z</time>
      </trkpt>
      <trkpt lat="39.4576940127" lon="-8.0797146074">
        <ele>92.90</ele>
        <time>2018-12-20T12:01:36Z</time>
      </trkpt>
      <trkpt lat="39.4576905761" lon="-8.0797629710">
        <ele>92.90</ele>
        <time>2018-12-20T12:01:42Z</time>
      </trkpt>
      <trkpt lat="39.4576650951" lon="-8.0799465347">
        <ele>93.39</ele>
        <time>2018-12-20T12:01:48Z</time>
      </trkpt>
      <trkpt lat="39.4576573838" lon="-8.0800032802">
        <ele>92.90</ele>
        <time>2018-12-20T12:01:53Z</time>
      </trkpt>
      <trkpt lat="39.4576595630" lon="-8.0799968261">
        <ele>92.90</ele>
        <time>2018-12-20T12:01:55Z</time>
      </trkpt>
      <trkpt lat="39.4576681964" lon="-8.0800204631">
        <ele>92.42</ele>
        <time>2018-12-20T12:01:57Z</time>
      </trkpt>
      <trkpt lat="39.4576951861" lon="-8.0801790487">
        <ele>92.90</ele>
        <time>2018-12-20T12:02:03Z</time>
      </trkpt>
      <trkpt lat="39.4576972816" lon="-8.0802160129">
        <ele>92.90</ele>
        <time>2018-12-20T12:02:08Z</time>
      </trkpt>
      <trkpt lat="39.4576927554" lon="-8.0802842416">
        <ele>92.42</ele>
        <time>2018-12-20T12:02:13Z</time>
      </trkpt>
      <trkpt lat="39.4577100221" lon="-8.0804161727">
        <ele>93.39</ele>
        <time>2018-12-20T12:02:18Z</time>
      </trkpt>
      <trkpt lat="39.4577039871" lon="-8.0804055277">
        <ele>92.42</ele>
        <time>2018-12-20T12:02:22Z</time>
      </trkpt>
      <trkpt lat="39.4576955214" lon="-8.0803963076">
        <ele>92.42</ele>
        <time>2018-12-20T12:02:24Z</time>
      </trkpt>
      <trkpt lat="39.4577111118" lon="-8.0805246346">
        <ele>92.90</ele>
        <time>2018-12-20T12:02:29Z</time>
      </trkpt>
      <trkpt lat="39.4577355869" lon="-8.0806221161">
        <ele>91.46</ele>
        <time>2018-12-20T12:02:34Z</time>
      </trkpt>
      <trkpt lat="39.4577339943" lon="-8.0806058552">
        <ele>91.94</ele>
        <time>2018-12-20T12:02:39Z</time>
      </trkpt>
      <trkpt lat="39.4577398617" lon="-8.0806363653">
        <ele>90.50</ele>
        <time>2018-12-20T12:02:42Z</time>
      </trkpt>
      <trkpt lat="39.4577777479" lon="-8.0808019079">
        <ele>90.50</ele>
        <time>2018-12-20T12:02:48Z</time>
      </trkpt>
      <trkpt lat="39.4578061625" lon="-8.0808799434">
        <ele>90.98</ele>
        <time>2018-12-20T12:02:53Z</time>
      </trkpt>
      <trkpt lat="39.4578148797" lon="-8.0809055921">
        <ele>90.02</ele>
        <time>2018-12-20T12:02:59Z</time>
      </trkpt>
      <trkpt lat="39.4578217529" lon="-8.0809229426">
        <ele>90.02</ele>
        <time>2018-12-20T12:03:00Z</time>
      </trkpt>
      <trkpt lat="39.4578351639" lon="-8.0810365174">
        <ele>90.02</ele>
        <time>2018-12-20T12:03:05Z</time>
      </trkpt>
      <trkpt lat="39.4579366688" lon="-8.0811919179">
        <ele>89.06</ele>
        <time>2018-12-20T12:03:13Z</time>
      </trkpt>
      <trkpt lat="39.4579250179" lon="-8.0812087655">
        <ele>88.10</ele>
        <time>2018-12-20T12:03:19Z</time>
      </trkpt>
      <trkpt lat="39.4579188991" lon="-8.0812391080">
        <ele>88.10</ele>
        <time>2018-12-20T12:03:21Z</time>
      </trkpt>
      <trkpt lat="39.4579274487" lon="-8.0812835321">
        <ele>88.10</ele>
        <time>2018-12-20T12:03:24Z</time>
      </trkpt>
      <trkpt lat="39.4579015486" lon="-8.0814852845">
        <ele>87.14</ele>
        <time>2018-12-20T12:03:32Z</time>
      </trkpt>
      <trkpt lat="39.4578866288" lon="-8.0815549381">
        <ele>86.18</ele>
        <time>2018-12-20T12:03:39Z</time>
      </trkpt>
      <trkpt lat="39.4578782469" lon="-8.0815733783">
        <ele>85.69</ele>
        <time>2018-12-20T12:03:43Z</time>
      </trkpt>
      <trkpt lat="39.4577905722" lon="-8.0816738773">
        <ele>85.21</ele>
        <time>2018-12-20T12:03:49Z</time>
      </trkpt>
      <trkpt lat="39.4577599782" lon="-8.0817338079">
        <ele>84.25</ele>
        <time>2018-12-20T12:03:54Z</time>
      </trkpt>
      <trkpt lat="39.4577122852" lon="-8.0817748792">
        <ele>83.29</ele>
        <time>2018-12-20T12:04:02Z</time>
      </trkpt>
      <trkpt lat="39.4576961920" lon="-8.0817835126">
        <ele>82.81</ele>
        <time>2018-12-20T12:04:03Z</time>
      </trkpt>
      <trkpt lat="39.4576791767" lon="-8.0817907210">
        <ele>82.81</ele>
        <time>2018-12-20T12:04:04Z</time>
      </trkpt>
      <trkpt lat="39.4575980399" lon="-8.0818509031">
        <ele>82.33</ele>
        <time>2018-12-20T12:04:10Z</time>
      </trkpt>
      <trkpt lat="39.4576026499" lon="-8.0818549264">
        <ele>81.37</ele>
        <time>2018-12-20T12:04:14Z</time>
      </trkpt>
      <trkpt lat="39.4575733971" lon="-8.0818897951">
        <ele>81.37</ele>
        <time>2018-12-20T12:04:19Z</time>
      </trkpt>
      <trkpt lat="39.4574414659" lon="-8.0819220655">
        <ele>79.93</ele>
        <time>2018-12-20T12:04:25Z</time>
      </trkpt>
      <trkpt lat="39.4573646877" lon="-8.0820228159">
        <ele>79.45</ele>
        <time>2018-12-20T12:04:32Z</time>
      </trkpt>
      <trkpt lat="39.4573650230" lon="-8.0820539128">
        <ele>78.97</ele>
        <time>2018-12-20T12:04:39Z</time>
      </trkpt>
      <trkpt lat="39.4573132228" lon="-8.0821222253">
        <ele>79.93</ele>
        <time>2018-12-20T12:04:43Z</time>
      </trkpt>
      <trkpt lat="39.4572998118" lon="-8.0821678229">
        <ele>78.48</ele>
        <time>2018-12-20T12:04:46Z</time>
      </trkpt>
      <trkpt lat="39.4572902564" lon="-8.0821720138">
        <ele>78.97</ele>
        <time>2018-12-20T12:04:52Z</time>
      </trkpt>
      <trkpt lat="39.4572680444" lon="-8.0822001770">
        <ele>78.97</ele>
        <time>2018-12-20T12:04:55Z</time>
      </trkpt>
      <trkpt lat="39.4572110474" lon="-8.0823084712">
        <ele>79.93</ele>
        <time>2018-12-20T12:05:01Z</time>
      </trkpt>
      <trkpt lat="39.4572020788" lon="-8.0823011789">
        <ele>78.48</ele>
        <time>2018-12-20T12:05:07Z</time>
      </trkpt>
      <trkpt lat="39.4571563974" lon="-8.0824158434">
        <ele>78.97</ele>
        <time>2018-12-20T12:05:13Z</time>
      </trkpt>
      <trkpt lat="39.4571532123" lon="-8.0824280810">
        <ele>78.48</ele>
        <time>2018-12-20T12:05:17Z</time>
      </trkpt>
      <trkpt lat="39.4570881687" lon="-8.0825196113">
        <ele>79.45</ele>
        <time>2018-12-20T12:05:24Z</time>
      </trkpt>
      <trkpt lat="39.4570742548" lon="-8.0825688131">
        <ele>79.93</ele>
        <time>2018-12-20T12:05:30Z</time>
      </trkpt>
      <trkpt lat="39.4570560660" lon="-8.0826263968">
        <ele>79.93</ele>
        <time>2018-12-20T12:05:35Z</time>
      </trkpt>
      <trkpt lat="39.4570294116" lon="-8.0826978944">
        <ele>80.89</ele>
        <time>2018-12-20T12:05:40Z</time>
      </trkpt>
      <trkpt lat="39.4570154976" lon="-8.0827486049">
        <ele>81.37</ele>
        <time>2018-12-20T12:05:46Z</time>
      </trkpt>
      <trkpt lat="39.4569877535" lon="-8.0827955436">
        <ele>80.41</ele>
        <time>2018-12-20T12:05:51Z</time>
      </trkpt>
      <trkpt lat="39.4569843169" lon="-8.0828039255">
        <ele>85.21</ele>
        <time>2018-12-20T12:05:52Z</time>
      </trkpt>
      <trkpt lat="39.4569834787" lon="-8.0828189291">
        <ele>82.33</ele>
        <time>2018-12-20T12:05:53Z</time>
      </trkpt>
      <trkpt lat="39.4569288287" lon="-8.0829118844">
        <ele>82.81</ele>
        <time>2018-12-20T12:05:57Z</time>
      </trkpt>
      <trkpt lat="39.4569300022" lon="-8.0829187576">
        <ele>82.81</ele>
        <time>2018-12-20T12:05:58Z</time>
      </trkpt>
      <trkpt lat="39.4569249731" lon="-8.0829428136">
        <ele>83.29</ele>
        <time>2018-12-20T12:06:02Z</time>
      </trkpt>
      <trkpt lat="39.4569124002" lon="-8.0829694681">
        <ele>83.29</ele>
        <time>2018-12-20T12:06:05Z</time>
      </trkpt>
      <trkpt lat="39.4568635337" lon="-8.0830148142">
        <ele>84.73</ele>
        <time>2018-12-20T12:06:10Z</time>
      </trkpt>
      <trkpt lat="39.4568372983" lon="-8.0830098689">
        <ele>84.73</ele>
        <time>2018-12-20T12:06:15Z</time>
      </trkpt>
      <trkpt lat="39.4568330236" lon="-8.0830061808">
        <ele>85.21</ele>
        <time>2018-12-20T12:06:24Z</time>
      </trkpt>
      <trkpt lat="39.4568134099" lon="-8.0830586515">
        <ele>85.21</ele>
        <time>2018-12-20T12:06:30Z</time>
      </trkpt>
      <trkpt lat="39.4567806367" lon="-8.0831194203">
        <ele>86.18</ele>
        <time>2018-12-20T12:06:34Z</time>
      </trkpt>
      <trkpt lat="39.4567880128" lon="-8.0831125472">
        <ele>86.18</ele>
        <time>2018-12-20T12:06:36Z</time>
      </trkpt>
      <trkpt lat="39.4567686506" lon="-8.0831501819">
        <ele>86.66</ele>
        <time>2018-12-20T12:06:40Z</time>
      </trkpt>
      <trkpt lat="39.4567649625" lon="-8.0832043290">
        <ele>86.66</ele>
        <time>2018-12-20T12:06:45Z</time>
      </trkpt>
      <trkpt lat="39.4567585085" lon="-8.0832548719">
        <ele>87.62</ele>
        <time>2018-12-20T12:06:49Z</time>
      </trkpt>
      <trkpt lat="39.4567655493" lon="-8.0832746532">
        <ele>88.10</ele>
        <time>2018-12-20T12:06:54Z</time>
      </trkpt>
      <trkpt lat="39.4567937963" lon="-8.0833645072">
        <ele>89.06</ele>
        <time>2018-12-20T12:06:59Z</time>
      </trkpt>
      <trkpt lat="39.4567974843" lon="-8.0833723862">
        <ele>89.06</ele>
        <time>2018-12-20T12:07:01Z</time>
      </trkpt>
      <trkpt lat="39.4568175171" lon="-8.0834257789">
        <ele>89.54</ele>
        <time>2018-12-20T12:07:06Z</time>
      </trkpt>
      <trkpt lat="39.4568229653" lon="-8.0834315624">
        <ele>89.54</ele>
        <time>2018-12-20T12:07:07Z</time>
      </trkpt>
      <trkpt lat="39.4568806328" lon="-8.0835013837">
        <ele>90.98</ele>
        <time>2018-12-20T12:07:12Z</time>
      </trkpt>
      <trkpt lat="39.4568879250" lon="-8.0835064128">
        <ele>90.50</ele>
        <time>2018-12-20T12:07:14Z</time>
      </trkpt>
      <trkpt lat="39.4569103885" lon="-8.0835723784">
        <ele>90.98</ele>
        <time>2018-12-20T12:07:20Z</time>
      </trkpt>
      <trkpt lat="39.4569258951" lon="-8.0835787486">
        <ele>91.94</ele>
        <time>2018-12-20T12:07:23Z</time>
      </trkpt>
      <trkpt lat="39.4569511246" lon="-8.0836410262">
        <ele>92.42</ele>
        <time>2018-12-20T12:07:28Z</time>
      </trkpt>
      <trkpt lat="39.4569792878" lon="-8.0836771522">
        <ele>92.90</ele>
        <time>2018-12-20T12:07:32Z</time>
      </trkpt>
      <trkpt lat="39.4569817185" lon="-8.0836784933">
        <ele>93.39</ele>
        <time>2018-12-20T12:07:34Z</time>
      </trkpt>
      <trkpt lat="39.4569950458" lon="-8.0837323051">
        <ele>94.35</ele>
        <time>2018-12-20T12:07:38Z</time>
      </trkpt>
      <trkpt lat="39.4570232090" lon="-8.0837988574">
        <ele>94.35</ele>
        <time>2018-12-20T12:07:44Z</time>
      </trkpt>
      <trkpt lat="39.4570242986" lon="-8.0838018749">
        <ele>94.83</ele>
        <time>2018-12-20T12:07:45Z</time>
      </trkpt>
      <trkpt lat="39.4570522103" lon="-8.0838607159">
        <ele>95.31</ele>
        <time>2018-12-20T12:07:51Z</time>
      </trkpt>
      <trkpt lat="39.4570542220" lon="-8.0838826764">
        <ele>96.75</ele>
        <time>2018-12-20T12:07:56Z</time>
      </trkpt>
      <trkpt lat="39.4570526294" lon="-8.0838954169">
        <ele>95.31</ele>
        <time>2018-12-20T12:08:05Z</time>
      </trkpt>
      <trkpt lat="39.4570740033" lon="-8.0839465465">
        <ele>96.27</ele>
        <time>2018-12-20T12:08:11Z</time>
      </trkpt>
      <trkpt lat="39.4570953771" lon="-8.0840209778">
        <ele>97.23</ele>
        <time>2018-12-20T12:08:17Z</time>
      </trkpt>
      <trkpt lat="39.4571034238" lon="-8.0841263384">
        <ele>97.71</ele>
        <time>2018-12-20T12:08:23Z</time>
      </trkpt>
      <trkpt lat="39.4571066089" lon="-8.0841317866">
        <ele>98.19</ele>
        <time>2018-12-20T12:08:25Z</time>
      </trkpt>
      <trkpt lat="39.4571222831" lon="-8.0842349678">
        <ele>99.63</ele>
        <time>2018-12-20T12:08:31Z</time>
      </trkpt>
      <trkpt lat="39.4571435731" lon="-8.0843016878">
        <ele>100.11</ele>
        <time>2018-12-20T12:08:36Z</time>
      </trkpt>
      <trkpt lat="39.4571512006" lon="-8.0843428429">
        <ele>101.08</ele>
        <time>2018-12-20T12:08:40Z</time>
      </trkpt>
      <trkpt lat="39.4571600854" lon="-8.0843814835">
        <ele>100.60</ele>
        <time>2018-12-20T12:08:45Z</time>
      </trkpt>
      <trkpt lat="39.4571790285" lon="-8.0844781268">
        <ele>100.60</ele>
        <time>2018-12-20T12:08:53Z</time>
      </trkpt>
      <trkpt lat="39.4571641926" lon="-8.0844969023">
        <ele>102.04</ele>
        <time>2018-12-20T12:09:00Z</time>
      </trkpt>
      <trkpt lat="39.4571749214" lon="-8.0844923761">
        <ele>101.56</ele>
        <time>2018-12-20T12:09:08Z</time>
      </trkpt>
      <trkpt lat="39.4571559783" lon="-8.0844779592">
        <ele>101.56</ele>
        <time>2018-12-20T12:09:24Z</time>
      </trkpt>
      <trkpt lat="39.4571601693" lon="-8.0844834913">
        <ele>100.60</ele>
        <time>2018-12-20T12:09:43Z</time>
      </trkpt>
      <trkpt lat="39.4571722392" lon="-8.0844815634">
        <ele>101.56</ele>
        <time>2018-12-20T12:10:03Z</time>
      </trkpt>
      <trkpt lat="39.4571891706" lon="-8.0844856706">
        <ele>101.08</ele>
        <time>2018-12-20T12:10:20Z</time>
      </trkpt>
      <trkpt lat="39.4571843930" lon="-8.0844838265">
        <ele>101.56</ele>
        <time>2018-12-20T12:10:39Z</time>
      </trkpt>
      <trkpt lat="39.4572062697" lon="-8.0844829883">
        <ele>101.08</ele>
        <time>2018-12-20T12:11:02Z</time>
      </trkpt>
      <trkpt lat="39.4571913499" lon="-8.0844777916">
        <ele>101.56</ele>
        <time>2018-12-20T12:11:19Z</time>
      </trkpt>
      <trkpt lat="39.4571742509" lon="-8.0844866764">
        <ele>101.08</ele>
        <time>2018-12-20T12:11:27Z</time>
      </trkpt>
      <trkpt lat="39.4571579900" lon="-8.0844880175">
        <ele>101.56</ele>
        <time>2018-12-20T12:11:35Z</time>
      </trkpt>
      <trkpt lat="39.4571662880" lon="-8.0845036078">
        <ele>100.60</ele>
        <time>2018-12-20T12:11:55Z</time>
      </trkpt>
      <trkpt lat="39.4572037552" lon="-8.0845289212">
        <ele>99.15</ele>
        <time>2018-12-20T12:11:59Z</time>
      </trkpt>
      <trkpt lat="39.4572221115" lon="-8.0845445953">
        <ele>101.56</ele>
        <time>2018-12-20T12:12:02Z</time>
      </trkpt>
      <trkpt lat="39.4572662842" lon="-8.0846076272">
        <ele>102.52</ele>
        <time>2018-12-20T12:12:07Z</time>
      </trkpt>
      <trkpt lat="39.4573237840" lon="-8.0846766103">
        <ele>103.00</ele>
        <time>2018-12-20T12:12:14Z</time>
      </trkpt>
      <trkpt lat="39.4573346805" lon="-8.0846947152">
        <ele>103.48</ele>
        <time>2018-12-20T12:12:17Z</time>
      </trkpt>
      <trkpt lat="39.4573803619" lon="-8.0847807974">
        <ele>104.44</ele>
        <time>2018-12-20T12:12:24Z</time>
      </trkpt>
      <trkpt lat="39.4574152306" lon="-8.0848438293">
        <ele>104.44</ele>
        <time>2018-12-20T12:12:30Z</time>
      </trkpt>
      <trkpt lat="39.4574182481" lon="-8.0848479364">
        <ele>104.44</ele>
        <time>2018-12-20T12:12:31Z</time>
      </trkpt>
      <trkpt lat="39.4574694615" lon="-8.0849122256">
        <ele>105.88</ele>
        <time>2018-12-20T12:12:37Z</time>
      </trkpt>
      <trkpt lat="39.4574908353" lon="-8.0849542189">
        <ele>105.88</ele>
        <time>2018-12-20T12:12:41Z</time>
      </trkpt>
      <trkpt lat="39.4575178251" lon="-8.0850177538">
        <ele>106.84</ele>
        <time>2018-12-20T12:12:47Z</time>
      </trkpt>
      <trkpt lat="39.4575461559" lon="-8.0850983039">
        <ele>106.84</ele>
        <time>2018-12-20T12:12:53Z</time>
      </trkpt>
      <trkpt lat="39.4575580582" lon="-8.0851219408">
        <ele>107.32</ele>
        <time>2018-12-20T12:12:56Z</time>
      </trkpt>
      <trkpt lat="39.4575743191" lon="-8.0852250382">
        <ele>108.77</ele>
        <time>2018-12-20T12:13:04Z</time>
      </trkpt>
      <trkpt lat="39.4575759117" lon="-8.0852445681">
        <ele>108.77</ele>
        <time>2018-12-20T12:13:05Z</time>
      </trkpt>
      <trkpt lat="39.4575880654" lon="-8.0852727313">
        <ele>108.77</ele>
        <time>2018-12-20T12:13:09Z</time>
      </trkpt>
      <trkpt lat="39.4576062541" lon="-8.0853562988">
        <ele>109.73</ele>
        <time>2018-12-20T12:13:14Z</time>
      </trkpt>
      <trkpt lat="39.4576247782" lon="-8.0854146369">
        <ele>110.21</ele>
        <time>2018-12-20T12:13:19Z</time>
      </trkpt>
      <trkpt lat="39.4576364290" lon="-8.0854832847">
        <ele>111.17</ele>
        <time>2018-12-20T12:13:25Z</time>
      </trkpt>
      <trkpt lat="39.4576385245" lon="-8.0855004676">
        <ele>111.65</ele>
        <time>2018-12-20T12:13:26Z</time>
      </trkpt>
      <trkpt lat="39.4576574676" lon="-8.0855327379">
        <ele>111.65</ele>
        <time>2018-12-20T12:13:30Z</time>
      </trkpt>
      <trkpt lat="39.4576853793" lon="-8.0856335722">
        <ele>113.09</ele>
        <time>2018-12-20T12:13:37Z</time>
      </trkpt>
      <trkpt lat="39.4576836191" lon="-8.0856633279">
        <ele>113.09</ele>
        <time>2018-12-20T12:13:39Z</time>
      </trkpt>
      <trkpt lat="39.4576974493" lon="-8.0857054051">
        <ele>113.09</ele>
        <time>2018-12-20T12:13:42Z</time>
      </trkpt>
      <trkpt lat="39.4577163924" lon="-8.0857886374">
        <ele>113.57</ele>
        <time>2018-12-20T12:13:49Z</time>
      </trkpt>
      <trkpt lat="39.4577262830" lon="-8.0858360790">
        <ele>114.53</ele>
        <time>2018-12-20T12:13:53Z</time>
      </trkpt>
      <trkpt lat="39.4577769097" lon="-8.0859178025">
        <ele>115.01</ele>
        <time>2018-12-20T12:14:00Z</time>
      </trkpt>
      <trkpt lat="39.4578073360" lon="-8.0860443693">
        <ele>115.98</ele>
        <time>2018-12-20T12:14:07Z</time>
      </trkpt>
      <trkpt lat="39.4578098506" lon="-8.0860812496">
        <ele>115.98</ele>
        <time>2018-12-20T12:14:11Z</time>
      </trkpt>
      <trkpt lat="39.4578308053" lon="-8.0861416832">
        <ele>115.98</ele>
        <time>2018-12-20T12:14:15Z</time>
      </trkpt>
      <trkpt lat="39.4578323141" lon="-8.0861434434">
        <ele>115.98</ele>
        <time>2018-12-20T12:14:17Z</time>
      </trkpt>
      <trkpt lat="39.4578565378" lon="-8.0862268433">
        <ele>116.94</ele>
        <time>2018-12-20T12:14:22Z</time>
      </trkpt>
      <trkpt lat="39.4578586332" lon="-8.0862259213">
        <ele>116.94</ele>
        <time>2018-12-20T12:14:24Z</time>
      </trkpt>
      <trkpt lat="39.4578924123" lon="-8.0863083154">
        <ele>116.94</ele>
        <time>2018-12-20T12:14:29Z</time>
      </trkpt>
      <trkpt lat="39.4578881375" lon="-8.0862976704">
        <ele>117.90</ele>
        <time>2018-12-20T12:14:31Z</time>
      </trkpt>
      <trkpt lat="39.4579372555" lon="-8.0863845069">
        <ele>118.38</ele>
        <time>2018-12-20T12:14:37Z</time>
      </trkpt>
      <trkpt lat="39.4579659216" lon="-8.0864748638">
        <ele>119.34</ele>
        <time>2018-12-20T12:14:43Z</time>
      </trkpt>
      <trkpt lat="39.4579810929" lon="-8.0864937231">
        <ele>119.82</ele>
        <time>2018-12-20T12:14:47Z</time>
      </trkpt>
      <trkpt lat="39.4579761475" lon="-8.0864886940">
        <ele>120.30</ele>
        <time>2018-12-20T12:14:48Z</time>
      </trkpt>
      <trkpt lat="39.4580283668" lon="-8.0865652207">
        <ele>120.30</ele>
        <time>2018-12-20T12:14:54Z</time>
      </trkpt>
      <trkpt lat="39.4580344856" lon="-8.0865669809">
        <ele>119.82</ele>
        <time>2018-12-20T12:14:55Z</time>
      </trkpt>
      <trkpt lat="39.4581251778" lon="-8.0866195355">
        <ele>120.30</ele>
        <time>2018-12-20T12:15:01Z</time>
      </trkpt>
      <trkpt lat="39.4581553526" lon="-8.0866540689">
        <ele>120.30</ele>
        <time>2018-12-20T12:15:07Z</time>
      </trkpt>
      <trkpt lat="39.4582370762" lon="-8.0867343675">
        <ele>120.30</ele>
        <time>2018-12-20T12:15:13Z</time>
      </trkpt>
      <trkpt lat="39.4582373276" lon="-8.0867550708">
        <ele>120.30</ele>
        <time>2018-12-20T12:15:20Z</time>
      </trkpt>
      <trkpt lat="39.4582379144" lon="-8.0867616087">
        <ele>119.82</ele>
        <time>2018-12-20T12:15:21Z</time>
      </trkpt>
      <trkpt lat="39.4583032094" lon="-8.0868846551">
        <ele>120.78</ele>
        <time>2018-12-20T12:15:26Z</time>
      </trkpt>
      <trkpt lat="39.4583509024" lon="-8.0869591702">
        <ele>120.78</ele>
        <time>2018-12-20T12:15:32Z</time>
      </trkpt>
      <trkpt lat="39.4583555125" lon="-8.0869714078">
        <ele>120.78</ele>
        <time>2018-12-20T12:15:34Z</time>
      </trkpt>
      <trkpt lat="39.4584122580" lon="-8.0870947894">
        <ele>121.74</ele>
        <time>2018-12-20T12:15:41Z</time>
      </trkpt>
      <trkpt lat="39.4584059715" lon="-8.0871062726">
        <ele>121.26</ele>
        <time>2018-12-20T12:15:46Z</time>
      </trkpt>
      <trkpt lat="39.4584632199" lon="-8.0872547999">
        <ele>122.22</ele>
        <time>2018-12-20T12:15:52Z</time>
      </trkpt>
      <trkpt lat="39.4585055485" lon="-8.0873186700">
        <ele>122.22</ele>
        <time>2018-12-20T12:15:57Z</time>
      </trkpt>
      <trkpt lat="39.4585124217" lon="-8.0873810314">
        <ele>122.22</ele>
        <time>2018-12-20T12:16:04Z</time>
      </trkpt>
      <trkpt lat="39.4585507270" lon="-8.0875163153">
        <ele>122.71</ele>
        <time>2018-12-20T12:16:09Z</time>
      </trkpt>
      <trkpt lat="39.4585812371" lon="-8.0876074266">
        <ele>123.19</ele>
        <time>2018-12-20T12:16:15Z</time>
      </trkpt>
      <trkpt lat="39.4585772976" lon="-8.0876308121">
        <ele>123.67</ele>
        <time>2018-12-20T12:16:20Z</time>
      </trkpt>
      <trkpt lat="39.4585855119" lon="-8.0876667704">
        <ele>124.15</ele>
        <time>2018-12-20T12:16:22Z</time>
      </trkpt>
      <trkpt lat="39.4586461969" lon="-8.0878343247">
        <ele>124.63</ele>
        <time>2018-12-20T12:16:30Z</time>
      </trkpt>
      <trkpt lat="39.4586486276" lon="-8.0878648348">
        <ele>124.15</ele>
        <time>2018-12-20T12:16:36Z</time>
      </trkpt>
      <trkpt lat="39.4586530700" lon="-8.0878797546">
        <ele>124.63</ele>
        <time>2018-12-20T12:16:37Z</time>
      </trkpt>
      <trkpt lat="39.4587108213" lon="-8.0880507454">
        <ele>124.15</ele>
        <time>2018-12-20T12:16:44Z</time>
      </trkpt>
      <trkpt lat="39.4587656390" lon="-8.0881645717">
        <ele>123.19</ele>
        <time>2018-12-20T12:16:51Z</time>
      </trkpt>
      <trkpt lat="39.4587623700" lon="-8.0881707743">
        <ele>123.19</ele>
        <time>2018-12-20T12:16:55Z</time>
      </trkpt>
      <trkpt lat="39.4587772060" lon="-8.0881851073">
        <ele>122.71</ele>
        <time>2018-12-20T12:16:57Z</time>
      </trkpt>
      <trkpt lat="39.4588077161" lon="-8.0883252528">
        <ele>122.71</ele>
        <time>2018-12-20T12:17:03Z</time>
      </trkpt>
      <trkpt lat="39.4588443451" lon="-8.0884099100">
        <ele>123.19</ele>
        <time>2018-12-20T12:17:10Z</time>
      </trkpt>
      <trkpt lat="39.4588440098" lon="-8.0884156935">
        <ele>122.71</ele>
        <time>2018-12-20T12:17:15Z</time>
      </trkpt>
      <trkpt lat="39.4588720892" lon="-8.0885722674">
        <ele>122.22</ele>
        <time>2018-12-20T12:17:21Z</time>
      </trkpt>
      <trkpt lat="39.4588839076" lon="-8.0886017717">
        <ele>122.22</ele>
        <time>2018-12-20T12:17:22Z</time>
      </trkpt>
      <trkpt lat="39.4589296728" lon="-8.0886990856">
        <ele>122.22</ele>
        <time>2018-12-20T12:17:29Z</time>
      </trkpt>
      <trkpt lat="39.4589388091" lon="-8.0887304340">
        <ele>121.74</ele>
        <time>2018-12-20T12:17:35Z</time>
      </trkpt>
      <trkpt lat="39.4589405693" lon="-8.0887598544">
        <ele>121.74</ele>
        <time>2018-12-20T12:17:37Z</time>
      </trkpt>
      <trkpt lat="39.4589792937" lon="-8.0889496207">
        <ele>121.74</ele>
        <time>2018-12-20T12:17:44Z</time>
      </trkpt>
      <trkpt lat="39.4590118155" lon="-8.0890251417">
        <ele>121.26</ele>
        <time>2018-12-20T12:17:50Z</time>
      </trkpt>
      <trkpt lat="39.4590194430" lon="-8.0890217051">
        <ele>121.26</ele>
        <time>2018-12-20T12:17:54Z</time>
      </trkpt>
      <trkpt lat="39.4590630289" lon="-8.0891763512">
        <ele>121.26</ele>
        <time>2018-12-20T12:18:01Z</time>
      </trkpt>
      <trkpt lat="39.4590667170" lon="-8.0892179254">
        <ele>120.78</ele>
        <time>2018-12-20T12:18:03Z</time>
      </trkpt>
      <trkpt lat="39.4590470195" lon="-8.0892460886">
        <ele>121.26</ele>
        <time>2018-12-20T12:18:10Z</time>
      </trkpt>
      <trkpt lat="39.4590486959" lon="-8.0892613437">
        <ele>120.78</ele>
        <time>2018-12-20T12:18:11Z</time>
      </trkpt>
      <trkpt lat="39.4591274019" lon="-8.0894061830">
        <ele>121.26</ele>
        <time>2018-12-20T12:18:17Z</time>
      </trkpt>
      <trkpt lat="39.4591344427" lon="-8.0894423090">
        <ele>121.26</ele>
        <time>2018-12-20T12:18:22Z</time>
      </trkpt>
      <trkpt lat="39.4591370411" lon="-8.0894809496">
        <ele>121.74</ele>
        <time>2018-12-20T12:18:26Z</time>
      </trkpt>
      <trkpt lat="39.4591730833" lon="-8.0896315724">
        <ele>120.78</ele>
        <time>2018-12-20T12:18:33Z</time>
      </trkpt>
      <trkpt lat="39.4591840636" lon="-8.0896701291">
        <ele>121.26</ele>
        <time>2018-12-20T12:18:39Z</time>
      </trkpt>
      <trkpt lat="39.4591955468" lon="-8.0896800198">
        <ele>120.78</ele>
        <time>2018-12-20T12:18:42Z</time>
      </trkpt>
      <trkpt lat="39.4592310023" lon="-8.0898287147">
        <ele>121.26</ele>
        <time>2018-12-20T12:18:48Z</time>
      </trkpt>
      <trkpt lat="39.4592509512" lon="-8.0898728035">
        <ele>120.78</ele>
        <time>2018-12-20T12:18:53Z</time>
      </trkpt>
      <trkpt lat="39.4592650328" lon="-8.0899123661">
        <ele>120.30</ele>
        <time>2018-12-20T12:18:59Z</time>
      </trkpt>
      <trkpt lat="39.4593098760" lon="-8.0900662579">
        <ele>120.78</ele>
        <time>2018-12-20T12:19:05Z</time>
      </trkpt>
      <trkpt lat="39.4593329262" lon="-8.0901245121">
        <ele>120.78</ele>
        <time>2018-12-20T12:19:07Z</time>
      </trkpt>
      <trkpt lat="39.4593451638" lon="-8.0901458859">
        <ele>120.78</ele>
        <time>2018-12-20T12:19:13Z</time>
      </trkpt>
      <trkpt lat="39.4593513664" lon="-8.0901581235">
        <ele>120.30</ele>
        <time>2018-12-20T12:19:15Z</time>
      </trkpt>
      <trkpt lat="39.4593952876" lon="-8.0903079920">
        <ele>120.30</ele>
        <time>2018-12-20T12:19:21Z</time>
      </trkpt>
      <trkpt lat="39.4594201818" lon="-8.0903317966">
        <ele>120.30</ele>
        <time>2018-12-20T12:19:27Z</time>
      </trkpt>
      <trkpt lat="39.4594202656" lon="-8.0903357361">
        <ele>120.78</ele>
        <time>2018-12-20T12:19:28Z</time>
      </trkpt>
      <trkpt lat="39.4594516139" lon="-8.0904243328">
        <ele>120.30</ele>
        <time>2018-12-20T12:19:32Z</time>
      </trkpt>
      <trkpt lat="39.4594727363" lon="-8.0904467963">
        <ele>120.78</ele>
        <time>2018-12-20T12:19:38Z</time>
      </trkpt>
      <trkpt lat="39.4594903383" lon="-8.0905262567">
        <ele>120.30</ele>
        <time>2018-12-20T12:19:44Z</time>
      </trkpt>
      <trkpt lat="39.4595518615" lon="-8.0906320363">
        <ele>120.30</ele>
        <time>2018-12-20T12:19:51Z</time>
      </trkpt>
      <trkpt lat="39.4595791865" lon="-8.0906814057">
        <ele>120.30</ele>
        <time>2018-12-20T12:19:57Z</time>
      </trkpt>
      <trkpt lat="39.4596633408" lon="-8.0908481218">
        <ele>120.30</ele>
        <time>2018-12-20T12:20:04Z</time>
      </trkpt>
      <trkpt lat="39.4596859720" lon="-8.0909035262">
        <ele>120.78</ele>
        <time>2018-12-20T12:20:09Z</time>
      </trkpt>
      <trkpt lat="39.4596699625" lon="-8.0909689050">
        <ele>120.30</ele>
        <time>2018-12-20T12:20:17Z</time>
      </trkpt>
      <trkpt lat="39.4597013947" lon="-8.0911378842">
        <ele>120.30</ele>
        <time>2018-12-20T12:20:23Z</time>
      </trkpt>
      <trkpt lat="39.4597379398" lon="-8.0912479386">
        <ele>119.34</ele>
        <time>2018-12-20T12:20:29Z</time>
      </trkpt>
      <trkpt lat="39.4597158954" lon="-8.0912504531">
        <ele>119.34</ele>
        <time>2018-12-20T12:20:35Z</time>
      </trkpt>
      <trkpt lat="39.4597047474" lon="-8.0912665464">
        <ele>119.34</ele>
        <time>2018-12-20T12:20:39Z</time>
      </trkpt>
      <trkpt lat="39.4597442262" lon="-8.0915194284">
        <ele>119.34</ele>
        <time>2018-12-20T12:20:47Z</time>
      </trkpt>
      <trkpt lat="39.4597765803" lon="-8.0916138086">
        <ele>117.42</ele>
        <time>2018-12-20T12:20:52Z</time>
      </trkpt>
      <trkpt lat="39.4597723056" lon="-8.0916206818">
        <ele>118.38</ele>
        <time>2018-12-20T12:20:59Z</time>
      </trkpt>
      <trkpt lat="39.4597933441" lon="-8.0916962866">
        <ele>117.42</ele>
        <time>2018-12-20T12:21:06Z</time>
      </trkpt>
      <trkpt lat="39.4598280452" lon="-8.0919044092">
        <ele>117.42</ele>
        <time>2018-12-20T12:21:13Z</time>
      </trkpt>
      <trkpt lat="39.4598914962" lon="-8.0920707062">
        <ele>118.38</ele>
        <time>2018-12-20T12:21:20Z</time>
      </trkpt>
      <trkpt lat="39.4598923344" lon="-8.0920904037">
        <ele>117.90</ele>
        <time>2018-12-20T12:21:27Z</time>
      </trkpt>
      <trkpt lat="39.4598946813" lon="-8.0921624042">
        <ele>118.38</ele>
        <time>2018-12-20T12:21:35Z</time>
      </trkpt>
      <trkpt lat="39.4599055778" lon="-8.0922858696">
        <ele>117.90</ele>
        <time>2018-12-20T12:21:40Z</time>
      </trkpt>
      <trkpt lat="39.4599140435" lon="-8.0923245102">
        <ele>117.90</ele>
        <time>2018-12-20T12:21:41Z</time>
      </trkpt>
      <trkpt lat="39.4599487446" lon="-8.0924786534">
        <ele>117.90</ele>
        <time>2018-12-20T12:21:48Z</time>
      </trkpt>
      <trkpt lat="39.4599403627" lon="-8.0925241672">
        <ele>117.42</ele>
        <time>2018-12-20T12:21:55Z</time>
      </trkpt>
      <trkpt lat="39.4599574618" lon="-8.0925744586">
        <ele>117.90</ele>
        <time>2018-12-20T12:22:00Z</time>
      </trkpt>
      <trkpt lat="39.4599822722" lon="-8.0927573517">
        <ele>116.94</ele>
        <time>2018-12-20T12:22:07Z</time>
      </trkpt>
      <trkpt lat="39.4599967729" lon="-8.0928369798">
        <ele>117.42</ele>
        <time>2018-12-20T12:22:10Z</time>
      </trkpt>
      <trkpt lat="39.4600315578" lon="-8.0928886123">
        <ele>116.94</ele>
        <time>2018-12-20T12:22:16Z</time>
      </trkpt>
      <trkpt lat="39.4600371737" lon="-8.0929189548">
        <ele>116.94</ele>
        <time>2018-12-20T12:22:18Z</time>
      </trkpt>
      <trkpt lat="39.4600427896" lon="-8.0930334516">
        <ele>116.94</ele>
        <time>2018-12-20T12:22:24Z</time>
      </trkpt>
      <trkpt lat="39.4600619003" lon="-8.0931342859">
        <ele>116.46</ele>
        <time>2018-12-20T12:22:28Z</time>
      </trkpt>
      <trkpt lat="39.4600755628" lon="-8.0932313483">
        <ele>115.98</ele>
        <time>2018-12-20T12:22:34Z</time>
      </trkpt>
      <trkpt lat="39.4600649178" lon="-8.0931884330">
        <ele>115.98</ele>
        <time>2018-12-20T12:22:41Z</time>
      </trkpt>
      <trkpt lat="39.4600759819" lon="-8.0933697335">
        <ele>115.98</ele>
        <time>2018-12-20T12:22:47Z</time>
      </trkpt>
      <trkpt lat="39.4600948412" lon="-8.0935077835">
        <ele>115.50</ele>
        <time>2018-12-20T12:22:55Z</time>
      </trkpt>
      <trkpt lat="39.4601058215" lon="-8.0935475975">
        <ele>114.53</ele>
        <time>2018-12-20T12:23:00Z</time>
      </trkpt>
      <trkpt lat="39.4601080846" lon="-8.0935648642">
        <ele>115.50</ele>
        <time>2018-12-20T12:23:01Z</time>
      </trkpt>
      <trkpt lat="39.4601101801" lon="-8.0936489347">
        <ele>115.50</ele>
        <time>2018-12-20T12:23:05Z</time>
      </trkpt>
      <trkpt lat="39.4601175562" lon="-8.0938512739">
        <ele>115.50</ele>
        <time>2018-12-20T12:23:13Z</time>
      </trkpt>
      <trkpt lat="39.4601292908" lon="-8.0938489269">
        <ele>114.53</ele>
        <time>2018-12-20T12:23:19Z</time>
      </trkpt>
      <trkpt lat="39.4601318892" lon="-8.0939333327">
        <ele>114.53</ele>
        <time>2018-12-20T12:23:26Z</time>
      </trkpt>
      <trkpt lat="39.4601131976" lon="-8.0940759927">
        <ele>114.05</ele>
        <time>2018-12-20T12:23:31Z</time>
      </trkpt>
      <trkpt lat="39.4601247646" lon="-8.0941474903">
        <ele>114.53</ele>
        <time>2018-12-20T12:23:35Z</time>
      </trkpt>
      <trkpt lat="39.4601399358" lon="-8.0941800959">
        <ele>113.57</ele>
        <time>2018-12-20T12:23:39Z</time>
      </trkpt>
      <trkpt lat="39.4601602200" lon="-8.0941937584">
        <ele>115.01</ele>
        <time>2018-12-20T12:23:44Z</time>
      </trkpt>
      <trkpt lat="39.4601437915" lon="-8.0943729635">
        <ele>113.57</ele>
        <time>2018-12-20T12:23:51Z</time>
      </trkpt>
      <trkpt lat="39.4601462223" lon="-8.0944665056">
        <ele>113.57</ele>
        <time>2018-12-20T12:23:56Z</time>
      </trkpt>
      <trkpt lat="39.4601608068" lon="-8.0944838561">
        <ele>113.57</ele>
        <time>2018-12-20T12:24:01Z</time>
      </trkpt>
      <trkpt lat="39.4601723738" lon="-8.0945517495">
        <ele>113.57</ele>
        <time>2018-12-20T12:24:06Z</time>
      </trkpt>
      <trkpt lat="39.4601934124" lon="-8.0946721975">
        <ele>114.53</ele>
        <time>2018-12-20T12:24:13Z</time>
      </trkpt>
      <trkpt lat="39.4601962622" lon="-8.0947775580">
        <ele>114.53</ele>
        <time>2018-12-20T12:24:20Z</time>
      </trkpt>
      <trkpt lat="39.4602216594" lon="-8.0949161109">
        <ele>114.53</ele>
        <time>2018-12-20T12:24:26Z</time>
      </trkpt>
      <trkpt lat="39.4602265209" lon="-8.0949419271">
        <ele>115.50</ele>
        <time>2018-12-20T12:24:31Z</time>
      </trkpt>
      <trkpt lat="39.4602481462" lon="-8.0950363912">
        <ele>115.01</ele>
        <time>2018-12-20T12:24:36Z</time>
      </trkpt>
      <trkpt lat="39.4602502417" lon="-8.0950451922">
        <ele>115.50</ele>
        <time>2018-12-20T12:24:38Z</time>
      </trkpt>
      <trkpt lat="39.4602483138" lon="-8.0950770434">
        <ele>116.46</ele>
        <time>2018-12-20T12:24:42Z</time>
      </trkpt>
      <trkpt lat="39.4602586236" lon="-8.0951439310">
        <ele>116.94</ele>
        <time>2018-12-20T12:24:47Z</time>
      </trkpt>
      <trkpt lat="39.4602645747" lon="-8.0952926259">
        <ele>117.42</ele>
        <time>2018-12-20T12:24:53Z</time>
      </trkpt>
      <trkpt lat="39.4602612220" lon="-8.0953326076">
        <ele>117.42</ele>
        <time>2018-12-20T12:24:59Z</time>
      </trkpt>
      <trkpt lat="39.4602556899" lon="-8.0954185221">
        <ele>117.90</ele>
        <time>2018-12-20T12:25:03Z</time>
      </trkpt>
      <trkpt lat="39.4602442905" lon="-8.0955386348">
        <ele>118.86</ele>
        <time>2018-12-20T12:25:10Z</time>
      </trkpt>
      <trkpt lat="39.4602433685" lon="-8.0955714919">
        <ele>117.90</ele>
        <time>2018-12-20T12:25:15Z</time>
      </trkpt>
      <trkpt lat="39.4602151215" lon="-8.0957467575">
        <ele>117.90</ele>
        <time>2018-12-20T12:25:22Z</time>
      </trkpt>
      <trkpt lat="39.4602063205" lon="-8.0958355218">
        <ele>118.38</ele>
        <time>2018-12-20T12:25:29Z</time>
      </trkpt>
      <trkpt lat="39.4601877127" lon="-8.0959055107">
        <ele>118.38</ele>
        <time>2018-12-20T12:25:37Z</time>
      </trkpt>
      <trkpt lat="39.4601651654" lon="-8.0960641801">
        <ele>118.86</ele>
        <time>2018-12-20T12:25:42Z</time>
      </trkpt>
      <trkpt lat="39.4601648301" lon="-8.0960899964">
        <ele>118.86</ele>
        <time>2018-12-20T12:25:43Z</time>
      </trkpt>
      <trkpt lat="39.4601584598" lon="-8.0961415451">
        <ele>118.86</ele>
        <time>2018-12-20T12:25:49Z</time>
      </trkpt>
      <trkpt lat="39.4601545203" lon="-8.0961413775">
        <ele>119.34</ele>
        <time>2018-12-20T12:25:50Z</time>
      </trkpt>
      <trkpt lat="39.4601436239" lon="-8.0961772520">
        <ele>118.38</ele>
        <time>2018-12-20T12:25:54Z</time>
      </trkpt>
      <trkpt lat="39.4601097610" lon="-8.0963577982">
        <ele>118.86</ele>
        <time>2018-12-20T12:26:01Z</time>
      </trkpt>
      <trkpt lat="39.4600997865" lon="-8.0963821057">
        <ele>119.34</ele>
        <time>2018-12-20T12:26:07Z</time>
      </trkpt>
      <trkpt lat="39.4600947574" lon="-8.0963863805">
        <ele>119.34</ele>
        <time>2018-12-20T12:26:09Z</time>
      </trkpt>
      <trkpt lat="39.4600414485" lon="-8.0965391826">
        <ele>119.34</ele>
        <time>2018-12-20T12:26:15Z</time>
      </trkpt>
      <trkpt lat="39.4600278698" lon="-8.0965893064">
        <ele>120.30</ele>
        <time>2018-12-20T12:26:20Z</time>
      </trkpt>
      <trkpt lat="39.4599878043" lon="-8.0966623127">
        <ele>120.30</ele>
        <time>2018-12-20T12:26:26Z</time>
      </trkpt>
      <trkpt lat="39.4599593058" lon="-8.0967362411">
        <ele>120.78</ele>
        <time>2018-12-20T12:26:29Z</time>
      </trkpt>
      <trkpt lat="39.4599473197" lon="-8.0967852753">
        <ele>120.30</ele>
        <time>2018-12-20T12:26:34Z</time>
      </trkpt>
      <trkpt lat="39.4598923344" lon="-8.0968956649">
        <ele>120.78</ele>
        <time>2018-12-20T12:26:40Z</time>
      </trkpt>
      <trkpt lat="39.4598580524" lon="-8.0970073957">
        <ele>121.74</ele>
        <time>2018-12-20T12:26:46Z</time>
      </trkpt>
      <trkpt lat="39.4598488323" lon="-8.0970524065">
        <ele>120.78</ele>
        <time>2018-12-20T12:26:51Z</time>
      </trkpt>
      <trkpt lat="39.4597756583" lon="-8.0972105730">
        <ele>121.74</ele>
        <time>2018-12-20T12:26:57Z</time>
      </trkpt>
      <trkpt lat="39.4597369339" lon="-8.0972663965">
        <ele>121.74</ele>
        <time>2018-12-20T12:27:03Z</time>
      </trkpt>
      <trkpt lat="39.4597239420" lon="-8.0972676538">
        <ele>122.22</ele>
        <time>2018-12-20T12:27:09Z</time>
      </trkpt>
      <trkpt lat="39.4596428890" lon="-8.0973865930">
        <ele>122.71</ele>
        <time>2018-12-20T12:27:15Z</time>
      </trkpt>
      <trkpt lat="39.4596286397" lon="-8.0974104814">
        <ele>122.71</ele>
        <time>2018-12-20T12:27:16Z</time>
      </trkpt>
      <trkpt lat="39.4596272986" lon="-8.0974641256">
        <ele>123.19</ele>
        <time>2018-12-20T12:27:23Z</time>
      </trkpt>
      <trkpt lat="39.4596132170" lon="-8.0974713340">
        <ele>122.71</ele>
        <time>2018-12-20T12:27:26Z</time>
      </trkpt>
      <trkpt lat="39.4595163222" lon="-8.0976006668">
        <ele>123.19</ele>
        <time>2018-12-20T12:27:33Z</time>
      </trkpt>
      <trkpt lat="39.4594626781" lon="-8.0976886768">
        <ele>123.19</ele>
        <time>2018-12-20T12:27:40Z</time>
      </trkpt>
      <trkpt lat="39.4594478421" lon="-8.0976842344">
        <ele>123.19</ele>
        <time>2018-12-20T12:27:46Z</time>
      </trkpt>
      <trkpt lat="39.4593775179" lon="-8.0977870803">
        <ele>123.67</ele>
        <time>2018-12-20T12:27:52Z</time>
      </trkpt>
      <trkpt lat="39.4592756778" lon="-8.0979727395">
        <ele>123.67</ele>
        <time>2018-12-20T12:28:00Z</time>
      </trkpt>
      <trkpt lat="39.4592716545" lon="-8.0979800317">
        <ele>123.19</ele>
        <time>2018-12-20T12:28:06Z</time>
      </trkpt>
      <trkpt lat="39.4592686370" lon="-8.0979801994">
        <ele>122.71</ele>
        <time>2018-12-20T12:28:07Z</time>
      </trkpt>
      <trkpt lat="39.4591784477" lon="-8.0981507711">
        <ele>123.67</ele>
        <time>2018-12-20T12:28:15Z</time>
      </trkpt>
      <trkpt lat="39.4591196068" lon="-8.0983132962">
        <ele>122.71</ele>
        <time>2018-12-20T12:28:21Z</time>
      </trkpt>
      <trkpt lat="39.4591172598" lon="-8.0983241927">
        <ele>123.19</ele>
        <time>2018-12-20T12:28:27Z</time>
      </trkpt>
      <trkpt lat="39.4591168407" lon="-8.0983331613">
        <ele>122.22</ele>
        <time>2018-12-20T12:28:29Z</time>
      </trkpt>
      <trkpt lat="39.4590548985" lon="-8.0984339118">
        <ele>122.71</ele>
        <time>2018-12-20T12:28:35Z</time>
      </trkpt>
      <trkpt lat="39.4589557406" lon="-8.0986825190">
        <ele>121.74</ele>
        <time>2018-12-20T12:28:43Z</time>
      </trkpt>
      <trkpt lat="39.4589384738" lon="-8.0987486523">
        <ele>120.78</ele>
        <time>2018-12-20T12:28:48Z</time>
      </trkpt>
      <trkpt lat="39.4589395635" lon="-8.0987658352">
        <ele>120.78</ele>
        <time>2018-12-20T12:28:56Z</time>
      </trkpt>
      <trkpt lat="39.4589283317" lon="-8.0988053139">
        <ele>120.30</ele>
        <time>2018-12-20T12:29:01Z</time>
      </trkpt>
      <trkpt lat="39.4588605221" lon="-8.0989799928">
        <ele>118.86</ele>
        <time>2018-12-20T12:29:09Z</time>
      </trkpt>
      <trkpt lat="39.4588522241" lon="-8.0990807433">
        <ele>117.90</ele>
        <time>2018-12-20T12:29:13Z</time>
      </trkpt>
      <trkpt lat="39.4587896112" lon="-8.0992614571">
        <ele>116.46</ele>
        <time>2018-12-20T12:29:19Z</time>
      </trkpt>
      <trkpt lat="39.4587331172" lon="-8.0994002614">
        <ele>116.94</ele>
        <time>2018-12-20T12:29:24Z</time>
      </trkpt>
      <trkpt lat="39.4587362185" lon="-8.0993869342">
        <ele>117.42</ele>
        <time>2018-12-20T12:29:30Z</time>
      </trkpt>
      <trkpt lat="39.4587242324" lon="-8.0994340405">
        <ele>118.38</ele>
        <time>2018-12-20T12:29:35Z</time>
      </trkpt>
      <trkpt lat="39.4587052055" lon="-8.0994640477">
        <ele>118.38</ele>
        <time>2018-12-20T12:29:36Z</time>
      </trkpt>
      <trkpt lat="39.4586911239" lon="-8.0995332822">
        <ele>119.34</ele>
        <time>2018-12-20T12:29:43Z</time>
      </trkpt>
      <trkpt lat="39.4586539920" lon="-8.0996181071">
        <ele>119.82</ele>
        <time>2018-12-20T12:29:49Z</time>
      </trkpt>
      <trkpt lat="39.4586513937" lon="-8.0996615253">
        <ele>120.78</ele>
        <time>2018-12-20T12:29:55Z</time>
      </trkpt>
      <trkpt lat="39.4586578477" lon="-8.0996538978">
        <ele>121.26</ele>
        <time>2018-12-20T12:29:58Z</time>
      </trkpt>
      <trkpt lat="39.4586205482" lon="-8.0998160038">
        <ele>120.78</ele>
        <time>2018-12-20T12:30:05Z</time>
      </trkpt>
      <trkpt lat="39.4586072210" lon="-8.0999885034">
        <ele>121.26</ele>
        <time>2018-12-20T12:30:12Z</time>
      </trkpt>
      <trkpt lat="39.4586182013" lon="-8.0999934487">
        <ele>120.78</ele>
        <time>2018-12-20T12:30:18Z</time>
      </trkpt>
      <trkpt lat="39.4586074725" lon="-8.1001144834">
        <ele>119.82</ele>
        <time>2018-12-20T12:30:25Z</time>
      </trkpt>
      <trkpt lat="39.4585356396" lon="-8.1002960354">
        <ele>118.38</ele>
        <time>2018-12-20T12:30:32Z</time>
      </trkpt>
      <trkpt lat="39.4585205521" lon="-8.1003697962">
        <ele>116.94</ele>
        <time>2018-12-20T12:30:38Z</time>
      </trkpt>
      <trkpt lat="39.4585470390" lon="-8.1003100332">
        <ele>115.50</ele>
        <time>2018-12-20T12:30:45Z</time>
      </trkpt>
      <trkpt lat="39.4585574325" lon="-8.1003062613">
        <ele>115.01</ele>
        <time>2018-12-20T12:30:50Z</time>
      </trkpt>
      <trkpt lat="39.4585562591" lon="-8.1003247853">
        <ele>115.01</ele>
        <time>2018-12-20T12:30:51Z</time>
      </trkpt>
      <trkpt lat="39.4584372360" lon="-8.1004529446">
        <ele>114.53</ele>
        <time>2018-12-20T12:30:58Z</time>
      </trkpt>
      <trkpt lat="39.4583463762" lon="-8.1006039865">
        <ele>114.53</ele>
        <time>2018-12-20T12:31:05Z</time>
      </trkpt>
      <trkpt lat="39.4583515730" lon="-8.1005755719">
        <ele>115.01</ele>
        <time>2018-12-20T12:31:11Z</time>
      </trkpt>
      <trkpt lat="39.4583520759" lon="-8.1006332394">
        <ele>114.53</ele>
        <time>2018-12-20T12:31:16Z</time>
      </trkpt>
      <trkpt lat="39.4583496451" lon="-8.1006640010">
        <ele>115.01</ele>
        <time>2018-12-20T12:31:21Z</time>
      </trkpt>
      <trkpt lat="39.4583658222" lon="-8.1007158011">
        <ele>115.50</ele>
        <time>2018-12-20T12:31:28Z</time>
      </trkpt>
      <trkpt lat="39.4584069774" lon="-8.1008453015">
        <ele>115.98</ele>
        <time>2018-12-20T12:31:34Z</time>
      </trkpt>
      <trkpt lat="39.4584236573" lon="-8.1009025499">
        <ele>116.94</ele>
        <time>2018-12-20T12:31:40Z</time>
      </trkpt>
      <trkpt lat="39.4584416784" lon="-8.1009794958">
        <ele>117.42</ele>
        <time>2018-12-20T12:31:43Z</time>
      </trkpt>
      <trkpt lat="39.4584313687" lon="-8.1010258477">
        <ele>117.42</ele>
        <time>2018-12-20T12:31:49Z</time>
      </trkpt>
      <trkpt lat="39.4584370684" lon="-8.1010924838">
        <ele>118.38</ele>
        <time>2018-12-20T12:31:53Z</time>
      </trkpt>
      <trkpt lat="39.4584490545" lon="-8.1011489779">
        <ele>119.82</ele>
        <time>2018-12-20T12:31:58Z</time>
      </trkpt>
      <trkpt lat="39.4584742002" lon="-8.1012332998">
        <ele>120.30</ele>
        <time>2018-12-20T12:32:03Z</time>
      </trkpt>
      <trkpt lat="39.4585063029" lon="-8.1013201363">
        <ele>120.78</ele>
        <time>2018-12-20T12:32:09Z</time>
      </trkpt>
      <trkpt lat="39.4585079793" lon="-8.1013253331">
        <ele>120.78</ele>
        <time>2018-12-20T12:32:10Z</time>
      </trkpt>
      <trkpt lat="39.4585533254" lon="-8.1014583539">
        <ele>122.71</ele>
        <time>2018-12-20T12:32:17Z</time>
      </trkpt>
      <trkpt lat="39.4585765433" lon="-8.1015332881">
        <ele>123.19</ele>
        <time>2018-12-20T12:32:24Z</time>
      </trkpt>
      <trkpt lat="39.4585940614" lon="-8.1015797239">
        <ele>124.15</ele>
        <time>2018-12-20T12:32:29Z</time>
      </trkpt>
      <trkpt lat="39.4586104900" lon="-8.1016424205">
        <ele>124.63</ele>
        <time>2018-12-20T12:32:34Z</time>
      </trkpt>
      <trkpt lat="39.4586545788" lon="-8.1017350405">
        <ele>124.15</ele>
        <time>2018-12-20T12:32:40Z</time>
      </trkpt>
      <trkpt lat="39.4586779643" lon="-8.1018263195">
        <ele>125.11</ele>
        <time>2018-12-20T12:32:47Z</time>
      </trkpt>
      <trkpt lat="39.4587250706" lon="-8.1019357871">
        <ele>124.63</ele>
        <time>2018-12-20T12:32:53Z</time>
      </trkpt>
      <trkpt lat="39.4587225560" lon="-8.1019457616">
        <ele>125.11</ele>
        <time>2018-12-20T12:32:57Z</time>
      </trkpt>
      <trkpt lat="39.4587482885" lon="-8.1020332687">
        <ele>125.11</ele>
        <time>2018-12-20T12:33:01Z</time>
      </trkpt>
      <trkpt lat="39.4587697461" lon="-8.1021173391">
        <ele>125.11</ele>
        <time>2018-12-20T12:33:07Z</time>
      </trkpt>
      <trkpt lat="39.4587822352" lon="-8.1021675467">
        <ele>125.59</ele>
        <time>2018-12-20T12:33:12Z</time>
      </trkpt>
      <trkpt lat="39.4588050339" lon="-8.1022951193">
        <ele>125.11</ele>
        <time>2018-12-20T12:33:19Z</time>
      </trkpt>
      <trkpt lat="39.4588072971" lon="-8.1023031659">
        <ele>125.59</ele>
        <time>2018-12-20T12:33:22Z</time>
      </trkpt>
      <trkpt lat="39.4587487914" lon="-8.1024484243">
        <ele>125.59</ele>
        <time>2018-12-20T12:33:29Z</time>
      </trkpt>
      <trkpt lat="39.4587294292" lon="-8.1024489272">
        <ele>126.55</ele>
        <time>2018-12-20T12:33:35Z</time>
      </trkpt>
      <trkpt lat="39.4586679898" lon="-8.1025459897">
        <ele>126.07</ele>
        <time>2018-12-20T12:33:40Z</time>
      </trkpt>
      <trkpt lat="39.4585932232" lon="-8.1026543677">
        <ele>126.07</ele>
        <time>2018-12-20T12:33:46Z</time>
      </trkpt>
      <trkpt lat="39.4585900381" lon="-8.1026619952">
        <ele>126.55</ele>
        <time>2018-12-20T12:33:51Z</time>
      </trkpt>
      <trkpt lat="39.4585757051" lon="-8.1027003843">
        <ele>126.07</ele>
        <time>2018-12-20T12:33:55Z</time>
      </trkpt>
      <trkpt lat="39.4584600348" lon="-8.1028597243">
        <ele>126.07</ele>
        <time>2018-12-20T12:34:02Z</time>
      </trkpt>
      <trkpt lat="39.4583889563" lon="-8.1029506680">
        <ele>125.59</ele>
        <time>2018-12-20T12:34:08Z</time>
      </trkpt>
      <trkpt lat="39.4583693426" lon="-8.1029515900">
        <ele>126.07</ele>
        <time>2018-12-20T12:34:14Z</time>
      </trkpt>
      <trkpt lat="39.4582752138" lon="-8.1030635722">
        <ele>126.55</ele>
        <time>2018-12-20T12:34:21Z</time>
      </trkpt>
      <trkpt lat="39.4582346454" lon="-8.1031334773">
        <ele>126.55</ele>
        <time>2018-12-20T12:34:27Z</time>
      </trkpt>
      <trkpt lat="39.4582124334" lon="-8.1031689327">
        <ele>126.55</ele>
        <time>2018-12-20T12:34:35Z</time>
      </trkpt>
      <trkpt lat="39.4580941647" lon="-8.1033095811">
        <ele>126.55</ele>
        <time>2018-12-20T12:34:41Z</time>
      </trkpt>
      <trkpt lat="39.4580768980" lon="-8.1033314578">
        <ele>126.55</ele>
        <time>2018-12-20T12:34:42Z</time>
      </trkpt>
      <trkpt lat="39.4580101781" lon="-8.1034379080">
        <ele>126.55</ele>
        <time>2018-12-20T12:34:48Z</time>
      </trkpt>
      <trkpt lat="39.4579952583" lon="-8.1034853496">
        <ele>127.03</ele>
        <time>2018-12-20T12:34:53Z</time>
      </trkpt>
      <trkpt lat="39.4579219166" lon="-8.1035994273">
        <ele>126.55</ele>
        <time>2018-12-20T12:35:05Z</time>
      </trkpt>
      <trkpt lat="39.4578862935" lon="-8.1036855932">
        <ele>126.55</ele>
        <time>2018-12-20T12:35:10Z</time>
      </trkpt>
      <trkpt lat="39.4578355830" lon="-8.1037452724">
        <ele>127.03</ele>
        <time>2018-12-20T12:35:16Z</time>
      </trkpt>
      <trkpt lat="39.4578348286" lon="-8.1037663110">
        <ele>127.03</ele>
        <time>2018-12-20T12:35:23Z</time>
      </trkpt>
      <trkpt lat="39.4577337429" lon="-8.1038751081">
        <ele>127.51</ele>
        <time>2018-12-20T12:35:29Z</time>
      </trkpt>
      <trkpt lat="39.4576632511" lon="-8.1039929576">
        <ele>126.55</ele>
        <time>2018-12-20T12:35:35Z</time>
      </trkpt>
      <trkpt lat="39.4576510135" lon="-8.1040155049">
        <ele>127.03</ele>
        <time>2018-12-20T12:35:41Z</time>
      </trkpt>
      <trkpt lat="39.4576318190" lon="-8.1040332746">
        <ele>127.03</ele>
        <time>2018-12-20T12:35:47Z</time>
      </trkpt>
      <trkpt lat="39.4575715531" lon="-8.1041357014">
        <ele>126.55</ele>
        <time>2018-12-20T12:35:53Z</time>
      </trkpt>
      <trkpt lat="39.4574910868" lon="-8.1042659562">
        <ele>127.03</ele>
        <time>2018-12-20T12:35:59Z</time>
      </trkpt>
      <trkpt lat="39.4573931862" lon="-8.1044098735">
        <ele>127.03</ele>
        <time>2018-12-20T12:36:05Z</time>
      </trkpt>
      <trkpt lat="39.4573850557" lon="-8.1044050958">
        <ele>126.55</ele>
        <time>2018-12-20T12:36:11Z</time>
      </trkpt>
      <trkpt lat="39.4573954493" lon="-8.1043937802">
        <ele>126.55</ele>
        <time>2018-12-20T12:36:15Z</time>
      </trkpt>
      <trkpt lat="39.4573416375" lon="-8.1044657808">
        <ele>126.07</ele>
        <time>2018-12-20T12:36:20Z</time>
      </trkpt>
      <trkpt lat="39.4572465867" lon="-8.1045631785">
        <ele>126.07</ele>
        <time>2018-12-20T12:36:26Z</time>
      </trkpt>
      <trkpt lat="39.4572076946" lon="-8.1045909226">
        <ele>126.07</ele>
        <time>2018-12-20T12:36:33Z</time>
      </trkpt>
      <trkpt lat="39.4571967144" lon="-8.1045894139">
        <ele>126.55</ele>
        <time>2018-12-20T12:36:34Z</time>
      </trkpt>
      <trkpt lat="39.4571292400" lon="-8.1046564691">
        <ele>126.55</ele>
        <time>2018-12-20T12:36:39Z</time>
      </trkpt>
      <trkpt lat="39.4570983946" lon="-8.1047082692">
        <ele>126.55</ele>
        <time>2018-12-20T12:36:45Z</time>
      </trkpt>
      <trkpt lat="39.4570596702" lon="-8.1047584768">
        <ele>127.03</ele>
        <time>2018-12-20T12:36:50Z</time>
      </trkpt>
      <trkpt lat="39.4570611790" lon="-8.1048818585">
        <ele>126.07</ele>
        <time>2018-12-20T12:36:56Z</time>
      </trkpt>
      <trkpt lat="39.4570672140" lon="-8.1049251929">
        <ele>126.55</ele>
        <time>2018-12-20T12:37:02Z</time>
      </trkpt>
      <trkpt lat="39.4570996519" lon="-8.1050784141">
        <ele>128.47</ele>
        <time>2018-12-20T12:37:11Z</time>
      </trkpt>
      <trkpt lat="39.4571107998" lon="-8.1051541865">
        <ele>125.11</ele>
        <time>2018-12-20T12:37:16Z</time>
      </trkpt>
      <trkpt lat="39.4571136497" lon="-8.1051686872">
        <ele>127.03</ele>
        <time>2018-12-20T12:37:17Z</time>
      </trkpt>
      <trkpt lat="39.4571433216" lon="-8.1053351518">
        <ele>126.07</ele>
        <time>2018-12-20T12:37:26Z</time>
      </trkpt>
      <trkpt lat="39.4571620133" lon="-8.1053784862">
        <ele>125.59</ele>
        <time>2018-12-20T12:37:31Z</time>
      </trkpt>
      <trkpt lat="39.4571736641" lon="-8.1054230779">
        <ele>125.59</ele>
        <time>2018-12-20T12:37:37Z</time>
      </trkpt>
      <trkpt lat="39.4571810402" lon="-8.1055446155">
        <ele>126.07</ele>
        <time>2018-12-20T12:37:42Z</time>
      </trkpt>
      <trkpt lat="39.4572027493" lon="-8.1056453660">
        <ele>126.07</ele>
        <time>2018-12-20T12:37:48Z</time>
      </trkpt>
      <trkpt lat="39.4572035037" lon="-8.1057108287">
        <ele>126.55</ele>
        <time>2018-12-20T12:37:54Z</time>
      </trkpt>
      <trkpt lat="39.4572073594" lon="-8.1057377346">
        <ele>126.55</ele>
        <time>2018-12-20T12:37:55Z</time>
      </trkpt>
      <trkpt lat="39.4572484307" lon="-8.1059089769">
        <ele>126.55</ele>
        <time>2018-12-20T12:38:03Z</time>
      </trkpt>
      <trkpt lat="39.4572479278" lon="-8.1059337035">
        <ele>126.07</ele>
        <time>2018-12-20T12:38:10Z</time>
      </trkpt>
      <trkpt lat="39.4572541304" lon="-8.1060812250">
        <ele>126.07</ele>
        <time>2018-12-20T12:38:16Z</time>
      </trkpt>
      <trkpt lat="39.4572700560" lon="-8.1062155031">
        <ele>126.55</ele>
        <time>2018-12-20T12:38:22Z</time>
      </trkpt>
      <trkpt lat="39.4572866522" lon="-8.1062398106">
        <ele>126.07</ele>
        <time>2018-12-20T12:38:29Z</time>
      </trkpt>
      <trkpt lat="39.4573104568" lon="-8.1064297445">
        <ele>126.55</ele>
        <time>2018-12-20T12:38:36Z</time>
      </trkpt>
      <trkpt lat="39.4573211018" lon="-8.1064765994">
        <ele>126.07</ele>
        <time>2018-12-20T12:38:38Z</time>
      </trkpt>
      <trkpt lat="39.4573213533" lon="-8.1065263040">
        <ele>127.03</ele>
        <time>2018-12-20T12:38:46Z</time>
      </trkpt>
      <trkpt lat="39.4573403802" lon="-8.1065760087">
        <ele>126.07</ele>
        <time>2018-12-20T12:38:51Z</time>
      </trkpt>
      <trkpt lat="39.4573592395" lon="-8.1067198422">
        <ele>126.07</ele>
        <time>2018-12-20T12:38:56Z</time>
      </trkpt>
      <trkpt lat="39.4573816191" lon="-8.1068527792">
        <ele>126.55</ele>
        <time>2018-12-20T12:39:03Z</time>
      </trkpt>
      <trkpt lat="39.4573791046" lon="-8.1068725605">
        <ele>126.07</ele>
        <time>2018-12-20T12:39:10Z</time>
      </trkpt>
      <trkpt lat="39.4573894143" lon="-8.1070324872">
        <ele>126.07</ele>
        <time>2018-12-20T12:39:16Z</time>
      </trkpt>
      <trkpt lat="39.4574118778" lon="-8.1071513426">
        <ele>127.03</ele>
        <time>2018-12-20T12:39:21Z</time>
      </trkpt>
      <trkpt lat="39.4574209303" lon="-8.1071607303">
        <ele>125.59</ele>
        <time>2018-12-20T12:39:24Z</time>
      </trkpt>
      <trkpt lat="39.4574211817" lon="-8.1071877200">
        <ele>125.59</ele>
        <time>2018-12-20T12:39:31Z</time>
      </trkpt>
      <trkpt lat="39.4574423879" lon="-8.1073178072">
        <ele>126.07</ele>
        <time>2018-12-20T12:39:36Z</time>
      </trkpt>
      <trkpt lat="39.4574635942" lon="-8.1075711083">
        <ele>126.07</ele>
        <time>2018-12-20T12:39:44Z</time>
      </trkpt>
      <trkpt lat="39.4574696291" lon="-8.1076144427">
        <ele>126.07</ele>
        <time>2018-12-20T12:39:50Z</time>
      </trkpt>
      <trkpt lat="39.4574861415" lon="-8.1076375768">
        <ele>124.63</ele>
        <time>2018-12-20T12:39:57Z</time>
      </trkpt>
      <trkpt lat="39.4574868120" lon="-8.1078101601">
        <ele>124.63</ele>
        <time>2018-12-20T12:40:04Z</time>
      </trkpt>
      <trkpt lat="39.4575033244" lon="-8.1079388224">
        <ele>124.15</ele>
        <time>2018-12-20T12:40:11Z</time>
      </trkpt>
      <trkpt lat="39.4575097784" lon="-8.1079819892">
        <ele>124.15</ele>
        <time>2018-12-20T12:40:18Z</time>
      </trkpt>
      <trkpt lat="39.4575191662" lon="-8.1080142595">
        <ele>124.15</ele>
        <time>2018-12-20T12:40:20Z</time>
      </trkpt>
      <trkpt lat="39.4574922603" lon="-8.1082069594">
        <ele>124.15</ele>
        <time>2018-12-20T12:40:27Z</time>
      </trkpt>
      <trkpt lat="39.4574842975" lon="-8.1082777865">
        <ele>123.67</ele>
        <time>2018-12-20T12:40:33Z</time>
      </trkpt>
      <trkpt lat="39.4575037435" lon="-8.1082881801">
        <ele>123.67</ele>
        <time>2018-12-20T12:40:41Z</time>
      </trkpt>
      <trkpt lat="39.4575000554" lon="-8.1083188578">
        <ele>124.15</ele>
        <time>2018-12-20T12:40:44Z</time>
      </trkpt>
      <trkpt lat="39.4574854709" lon="-8.1084444188">
        <ele>123.67</ele>
        <time>2018-12-20T12:40:49Z</time>
      </trkpt>
      <trkpt lat="39.4574633427" lon="-8.1085279863">
        <ele>124.63</ele>
        <time>2018-12-20T12:40:52Z</time>
      </trkpt>
      <trkpt lat="39.4574747421" lon="-8.1086203549">
        <ele>123.67</ele>
        <time>2018-12-20T12:40:56Z</time>
      </trkpt>
      <trkpt lat="39.4574827049" lon="-8.1086874940">
        <ele>124.15</ele>
        <time>2018-12-20T12:41:04Z</time>
      </trkpt>
      <trkpt lat="39.4574774243" lon="-8.1087402161">
        <ele>124.63</ele>
        <time>2018-12-20T12:41:10Z</time>
      </trkpt>
      <trkpt lat="39.4574738201" lon="-8.1087605841">
        <ele>124.15</ele>
        <time>2018-12-20T12:41:11Z</time>
      </trkpt>
      <trkpt lat="39.4574539550" lon="-8.1088718120">
        <ele>123.67</ele>
        <time>2018-12-20T12:41:15Z</time>
      </trkpt>
      <trkpt lat="39.4574530330" lon="-8.1090389472">
        <ele>124.15</ele>
        <time>2018-12-20T12:41:23Z</time>
      </trkpt>
      <trkpt lat="39.4574340899" lon="-8.1090691220">
        <ele>124.63</ele>
        <time>2018-12-20T12:41:30Z</time>
      </trkpt>
      <trkpt lat="39.4574338384" lon="-8.1090668589">
        <ele>124.15</ele>
        <time>2018-12-20T12:41:31Z</time>
      </trkpt>
      <trkpt lat="39.4574395381" lon="-8.1091071758">
        <ele>124.15</ele>
        <time>2018-12-20T12:41:33Z</time>
      </trkpt>
      <trkpt lat="39.4574313238" lon="-8.1092087645">
        <ele>124.63</ele>
        <time>2018-12-20T12:41:38Z</time>
      </trkpt>
      <trkpt lat="39.4574224390" lon="-8.1092287973">
        <ele>123.67</ele>
        <time>2018-12-20T12:41:40Z</time>
      </trkpt>
      <trkpt lat="39.4573839661" lon="-8.1093308050">
        <ele>124.63</ele>
        <time>2018-12-20T12:41:46Z</time>
      </trkpt>
      <trkpt lat="39.4573803619" lon="-8.1094699446">
        <ele>124.15</ele>
        <time>2018-12-20T12:41:56Z</time>
      </trkpt>
      <trkpt lat="39.4573801942" lon="-8.1094934978">
        <ele>125.11</ele>
        <time>2018-12-20T12:41:58Z</time>
      </trkpt>
      <trkpt lat="39.4573569763" lon="-8.1096497364">
        <ele>124.63</ele>
        <time>2018-12-20T12:42:05Z</time>
      </trkpt>
      <trkpt lat="39.4573580660" lon="-8.1097130198">
        <ele>124.63</ele>
        <time>2018-12-20T12:42:12Z</time>
      </trkpt>
      <trkpt lat="39.4573594071" lon="-8.1097317114">
        <ele>124.15</ele>
        <time>2018-12-20T12:42:14Z</time>
      </trkpt>
      <trkpt lat="39.4573416375" lon="-8.1098942365">
        <ele>125.11</ele>
        <time>2018-12-20T12:42:22Z</time>
      </trkpt>
      <trkpt lat="39.4573498517" lon="-8.1099240761">
        <ele>124.63</ele>
        <time>2018-12-20T12:42:27Z</time>
      </trkpt>
      <trkpt lat="39.4573420566" lon="-8.1099379063">
        <ele>124.63</ele>
        <time>2018-12-20T12:42:29Z</time>
      </trkpt>
      <trkpt lat="39.4573148992" lon="-8.1100822426">
        <ele>124.63</ele>
        <time>2018-12-20T12:42:36Z</time>
      </trkpt>
      <trkpt lat="39.4573133066" lon="-8.1101088133">
        <ele>124.63</ele>
        <time>2018-12-20T12:42:37Z</time>
      </trkpt>
      <trkpt lat="39.4573260471" lon="-8.1101999246">
        <ele>125.11</ele>
        <time>2018-12-20T12:42:44Z</time>
      </trkpt>
      <trkpt lat="39.4573293999" lon="-8.1102382299">
        <ele>125.11</ele>
        <time>2018-12-20T12:42:51Z</time>
      </trkpt>
      <trkpt lat="39.4573261309" lon="-8.1102284230">
        <ele>125.59</ele>
        <time>2018-12-20T12:42:56Z</time>
      </trkpt>
      <trkpt lat="39.4573276397" lon="-8.1102745235">
        <ele>125.11</ele>
        <time>2018-12-20T12:43:00Z</time>
      </trkpt>
      <trkpt lat="39.4573064335" lon="-8.1104101427">
        <ele>124.63</ele>
        <time>2018-12-20T12:43:05Z</time>
      </trkpt>
      <trkpt lat="39.4572934415" lon="-8.1106710713">
        <ele>124.63</ele>
        <time>2018-12-20T12:43:12Z</time>
      </trkpt>
      <trkpt lat="39.4572754204" lon="-8.1108241249">
        <ele>125.11</ele>
        <time>2018-12-20T12:43:19Z</time>
      </trkpt>
      <trkpt lat="39.4572775159" lon="-8.1108396314">
        <ele>125.11</ele>
        <time>2018-12-20T12:43:26Z</time>
      </trkpt>
      <trkpt lat="39.4572687987" lon="-8.1109372806">
        <ele>125.11</ele>
        <time>2018-12-20T12:43:33Z</time>
      </trkpt>
      <trkpt lat="39.4572080299" lon="-8.1112157274">
        <ele>125.11</ele>
        <time>2018-12-20T12:43:42Z</time>
      </trkpt>
      <trkpt lat="39.4571880810" lon="-8.1112969480">
        <ele>124.63</ele>
        <time>2018-12-20T12:43:45Z</time>
      </trkpt>
      <trkpt lat="39.4571622647" lon="-8.1114303041">
        <ele>124.63</ele>
        <time>2018-12-20T12:43:50Z</time>
      </trkpt>
      <trkpt lat="39.4571550563" lon="-8.1114961021">
        <ele>123.67</ele>
        <time>2018-12-20T12:43:56Z</time>
      </trkpt>
      <trkpt lat="39.4571768492" lon="-8.1115323119">
        <ele>124.15</ele>
        <time>2018-12-20T12:44:03Z</time>
      </trkpt>
      <trkpt lat="39.4572027493" lon="-8.1115183141">
        <ele>124.63</ele>
        <time>2018-12-20T12:44:10Z</time>
      </trkpt>
      <trkpt lat="39.4572067726" lon="-8.1115437113">
        <ele>125.11</ele>
        <time>2018-12-20T12:44:12Z</time>
      </trkpt>
      <trkpt lat="39.4571601693" lon="-8.1116768159">
        <ele>125.59</ele>
        <time>2018-12-20T12:44:19Z</time>
      </trkpt>
      <trkpt lat="39.4571504463" lon="-8.1118231639">
        <ele>125.11</ele>
        <time>2018-12-20T12:44:24Z</time>
      </trkpt>
      <trkpt lat="39.4571416453" lon="-8.1118774787">
        <ele>124.63</ele>
        <time>2018-12-20T12:44:30Z</time>
      </trkpt>
      <trkpt lat="39.4571466744" lon="-8.1119173765">
        <ele>125.11</ele>
        <time>2018-12-20T12:44:35Z</time>
      </trkpt>
      <trkpt lat="39.4571102969" lon="-8.1120946538">
        <ele>125.59</ele>
        <time>2018-12-20T12:44:42Z</time>
      </trkpt>
      <trkpt lat="39.4570725784" lon="-8.1122466177">
        <ele>125.59</ele>
        <time>2018-12-20T12:44:47Z</time>
      </trkpt>
      <trkpt lat="39.4570692256" lon="-8.1122612860">
        <ele>125.59</ele>
        <time>2018-12-20T12:44:53Z</time>
      </trkpt>
      <trkpt lat="39.4570536353" lon="-8.1123109069">
        <ele>125.59</ele>
        <time>2018-12-20T12:44:58Z</time>
      </trkpt>
      <trkpt lat="39.4570030924" lon="-8.1124842446">
        <ele>125.59</ele>
        <time>2018-12-20T12:45:05Z</time>
      </trkpt>
      <trkpt lat="39.4570110552" lon="-8.1125029363">
        <ele>125.59</ele>
        <time>2018-12-20T12:45:10Z</time>
      </trkpt>
      <trkpt lat="39.4569740072" lon="-8.1125995796">
        <ele>126.07</ele>
        <time>2018-12-20T12:45:16Z</time>
      </trkpt>
      <trkpt lat="39.4569455925" lon="-8.1126942113">
        <ele>126.07</ele>
        <time>2018-12-20T12:45:22Z</time>
      </trkpt>
      <trkpt lat="39.4569517113" lon="-8.1127046887">
        <ele>126.55</ele>
        <time>2018-12-20T12:45:25Z</time>
      </trkpt>
      <trkpt lat="39.4569098018" lon="-8.1128374580">
        <ele>126.55</ele>
        <time>2018-12-20T12:45:32Z</time>
      </trkpt>
      <trkpt lat="39.4569032639" lon="-8.1129083689">
        <ele>126.55</ele>
        <time>2018-12-20T12:45:39Z</time>
      </trkpt>
      <trkpt lat="39.4568984024" lon="-8.1129299104">
        <ele>127.03</ele>
        <time>2018-12-20T12:45:40Z</time>
      </trkpt>
      <trkpt lat="39.4569079578" lon="-8.1130847242">
        <ele>127.03</ele>
        <time>2018-12-20T12:45:46Z</time>
      </trkpt>
      <trkpt lat="39.4569234643" lon="-8.1130991410">
        <ele>126.55</ele>
        <time>2018-12-20T12:45:50Z</time>
      </trkpt>
      <trkpt lat="39.4569942914" lon="-8.1131989695">
        <ele>127.03</ele>
        <time>2018-12-20T12:45:56Z</time>
      </trkpt>
      <trkpt lat="39.4569936208" lon="-8.1131923478">
        <ele>127.03</ele>
        <time>2018-12-20T12:46:03Z</time>
      </trkpt>
      <trkpt lat="39.4570626877" lon="-8.1132587325">
        <ele>126.55</ele>
        <time>2018-12-20T12:46:09Z</time>
      </trkpt>
      <trkpt lat="39.4571385439" lon="-8.1133671105">
        <ele>126.55</ele>
        <time>2018-12-20T12:46:14Z</time>
      </trkpt>
      <trkpt lat="39.4571522065" lon="-8.1133858021">
        <ele>126.55</ele>
        <time>2018-12-20T12:46:19Z</time>
      </trkpt>
      <trkpt lat="39.4571662880" lon="-8.1134080142">
        <ele>127.03</ele>
        <time>2018-12-20T12:46:22Z</time>
      </trkpt>
      <trkpt lat="39.4572664518" lon="-8.1134500913">
        <ele>126.55</ele>
        <time>2018-12-20T12:46:28Z</time>
      </trkpt>
      <trkpt lat="39.4573024940" lon="-8.1134556234">
        <ele>126.55</ele>
        <time>2018-12-20T12:46:35Z</time>
      </trkpt>
      <trkpt lat="39.4574257918" lon="-8.1134619936">
        <ele>126.55</ele>
        <time>2018-12-20T12:46:42Z</time>
      </trkpt>
      <trkpt lat="39.4574490935" lon="-8.1134555396">
        <ele>126.55</ele>
        <time>2018-12-20T12:46:48Z</time>
      </trkpt>
      <trkpt lat="39.4575816114" lon="-8.1134662684">
        <ele>126.07</ele>
        <time>2018-12-20T12:46:54Z</time>
      </trkpt>
      <trkpt lat="39.4576015603" lon="-8.1134531088">
        <ele>125.59</ele>
        <time>2018-12-20T12:47:00Z</time>
      </trkpt>
      <trkpt lat="39.4576857984" lon="-8.1134693697">
        <ele>125.11</ele>
        <time>2018-12-20T12:47:05Z</time>
      </trkpt>
      <trkpt lat="39.4577375147" lon="-8.1134635862">
        <ele>125.11</ele>
        <time>2018-12-20T12:47:10Z</time>
      </trkpt>
      <trkpt lat="39.4577495009" lon="-8.1134506781">
        <ele>125.11</ele>
        <time>2018-12-20T12:47:14Z</time>
      </trkpt>
      <trkpt lat="39.4578878861" lon="-8.1134867202">
        <ele>125.11</ele>
        <time>2018-12-20T12:47:21Z</time>
      </trkpt>
      <trkpt lat="39.4579246826" lon="-8.1134909950">
        <ele>124.63</ele>
        <time>2018-12-20T12:47:27Z</time>
      </trkpt>
      <trkpt lat="39.4579259399" lon="-8.1134935096">
        <ele>125.11</ele>
        <time>2018-12-20T12:47:28Z</time>
      </trkpt>
      <trkpt lat="39.4580553565" lon="-8.1135153025">
        <ele>124.63</ele>
        <time>2018-12-20T12:47:35Z</time>
      </trkpt>
      <trkpt lat="39.4580866210" lon="-8.1135072559">
        <ele>125.11</ele>
        <time>2018-12-20T12:47:40Z</time>
      </trkpt>
      <trkpt lat="39.4581008703" lon="-8.1135070883">
        <ele>124.15</ele>
        <time>2018-12-20T12:47:43Z</time>
      </trkpt>
      <trkpt lat="39.4582480565" lon="-8.1135338265">
        <ele>124.15</ele>
        <time>2018-12-20T12:47:51Z</time>
      </trkpt>
      <trkpt lat="39.4582678378" lon="-8.1135345809">
        <ele>124.15</ele>
        <time>2018-12-20T12:47:57Z</time>
      </trkpt>
      <trkpt lat="39.4583667442" lon="-8.1135468185">
        <ele>124.63</ele>
        <time>2018-12-20T12:48:03Z</time>
      </trkpt>
      <trkpt lat="39.4584816601" lon="-8.1135598943">
        <ele>123.67</ele>
        <time>2018-12-20T12:48:08Z</time>
      </trkpt>
      <trkpt lat="39.4585415069" lon="-8.1135530211">
        <ele>123.67</ele>
        <time>2018-12-20T12:48:16Z</time>
      </trkpt>
      <trkpt lat="39.4585582707" lon="-8.1135501713">
        <ele>124.15</ele>
        <time>2018-12-20T12:48:18Z</time>
      </trkpt>
      <trkpt lat="39.4586404134" lon="-8.1135641690">
        <ele>123.67</ele>
        <time>2018-12-20T12:48:24Z</time>
      </trkpt>
      <trkpt lat="39.4586923812" lon="-8.1135531887">
        <ele>123.19</ele>
        <time>2018-12-20T12:48:30Z</time>
      </trkpt>
      <trkpt lat="39.4587404933" lon="-8.1135554519">
        <ele>123.19</ele>
        <time>2018-12-20T12:48:37Z</time>
      </trkpt>
      <trkpt lat="39.4588872604" lon="-8.1135667674">
        <ele>123.19</ele>
        <time>2018-12-20T12:48:44Z</time>
      </trkpt>
      <trkpt lat="39.4589066226" lon="-8.1135726348">
        <ele>123.19</ele>
        <time>2018-12-20T12:48:49Z</time>
      </trkpt>
      <trkpt lat="39.4590061158" lon="-8.1135859620">
        <ele>123.19</ele>
        <time>2018-12-20T12:48:55Z</time>
      </trkpt>
      <trkpt lat="39.4591349456" lon="-8.1135793403">
        <ele>122.71</ele>
        <time>2018-12-20T12:49:02Z</time>
      </trkpt>
      <trkpt lat="39.4591547269" lon="-8.1135747302">
        <ele>122.71</ele>
        <time>2018-12-20T12:49:09Z</time>
      </trkpt>
      <trkpt lat="39.4591720775" lon="-8.1135742273">
        <ele>123.19</ele>
        <time>2018-12-20T12:49:12Z</time>
      </trkpt>
      <trkpt lat="39.4592422340" lon="-8.1135942601">
        <ele>122.71</ele>
        <time>2018-12-20T12:49:16Z</time>
      </trkpt>
      <trkpt lat="39.4593579043" lon="-8.1136119459">
        <ele>122.22</ele>
        <time>2018-12-20T12:49:22Z</time>
      </trkpt>
      <trkpt lat="39.4593851455" lon="-8.1136002112">
        <ele>122.22</ele>
        <time>2018-12-20T12:49:29Z</time>
      </trkpt>
      <trkpt lat="39.4594655279" lon="-8.1136089284">
        <ele>122.22</ele>
        <time>2018-12-20T12:49:35Z</time>
      </trkpt>
      <trkpt lat="39.4596239459" lon="-8.1136072520">
        <ele>122.71</ele>
        <time>2018-12-20T12:49:43Z</time>
      </trkpt>
      <trkpt lat="39.4596574735" lon="-8.1136132032">
        <ele>122.22</ele>
        <time>2018-12-20T12:49:50Z</time>
      </trkpt>
      <trkpt lat="39.4597208407" lon="-8.1136213336">
        <ele>122.22</ele>
        <time>2018-12-20T12:49:56Z</time>
      </trkpt>
      <trkpt lat="39.4598743971" lon="-8.1136572082">
        <ele>122.22</ele>
        <time>2018-12-20T12:50:03Z</time>
      </trkpt>
      <trkpt lat="39.4599297177" lon="-8.1136619020">
        <ele>122.22</ele>
        <time>2018-12-20T12:50:09Z</time>
      </trkpt>
      <trkpt lat="39.4599424582" lon="-8.1136608962">
        <ele>122.71</ele>
        <time>2018-12-20T12:50:15Z</time>
      </trkpt>
      <trkpt lat="39.4600287080" lon="-8.1136681046">
        <ele>122.71</ele>
        <time>2018-12-20T12:50:20Z</time>
      </trkpt>
      <trkpt lat="39.4601355772" lon="-8.1136650871">
        <ele>122.22</ele>
        <time>2018-12-20T12:50:27Z</time>
      </trkpt>
      <trkpt lat="39.4601877965" lon="-8.1136727985">
        <ele>122.71</ele>
        <time>2018-12-20T12:50:33Z</time>
      </trkpt>
      <trkpt lat="39.4602263533" lon="-8.1136700325">
        <ele>122.71</ele>
        <time>2018-12-20T12:50:37Z</time>
      </trkpt>
      <trkpt lat="39.4603320491" lon="-8.1136877183">
        <ele>122.22</ele>
        <time>2018-12-20T12:50:43Z</time>
      </trkpt>
      <trkpt lat="39.4604611304" lon="-8.1136867963">
        <ele>123.19</ele>
        <time>2018-12-20T12:50:50Z</time>
      </trkpt>
      <trkpt lat="39.4604799896" lon="-8.1137005426">
        <ele>122.22</ele>
        <time>2018-12-20T12:50:56Z</time>
      </trkpt>
      <trkpt lat="39.4605287723" lon="-8.1136986986">
        <ele>122.22</ele>
        <time>2018-12-20T12:51:03Z</time>
      </trkpt>
      <trkpt lat="39.4606842566" lon="-8.1137285382">
        <ele>122.71</ele>
        <time>2018-12-20T12:51:10Z</time>
      </trkpt>
      <trkpt lat="39.4607720990" lon="-8.1137214974">
        <ele>122.22</ele>
        <time>2018-12-20T12:51:17Z</time>
      </trkpt>
      <trkpt lat="39.4608125836" lon="-8.1137144566">
        <ele>122.71</ele>
        <time>2018-12-20T12:51:23Z</time>
      </trkpt>
      <trkpt lat="39.4609090593" lon="-8.1137129478">
        <ele>122.71</ele>
        <time>2018-12-20T12:51:29Z</time>
      </trkpt>
      <trkpt lat="39.4609534834" lon="-8.1137080863">
        <ele>122.22</ele>
        <time>2018-12-20T12:51:35Z</time>
      </trkpt>
      <trkpt lat="39.4610445946" lon="-8.1137308013">
        <ele>122.71</ele>
        <time>2018-12-20T12:51:40Z</time>
      </trkpt>
      <trkpt lat="39.4611365441" lon="-8.1137334835">
        <ele>122.71</ele>
        <time>2018-12-20T12:51:45Z</time>
      </trkpt>
      <trkpt lat="39.4611376338" lon="-8.1137282867">
        <ele>122.22</ele>
        <time>2018-12-20T12:51:52Z</time>
      </trkpt>
      <trkpt lat="39.4612881728" lon="-8.1137454696">
        <ele>122.71</ele>
        <time>2018-12-20T12:52:00Z</time>
      </trkpt>
      <trkpt lat="39.4613366202" lon="-8.1137329806">
        <ele>123.19</ele>
        <time>2018-12-20T12:52:05Z</time>
      </trkpt>
      <trkpt lat="39.4614323415" lon="-8.1137520075">
        <ele>122.22</ele>
        <time>2018-12-20T12:52:12Z</time>
      </trkpt>
      <trkpt lat="39.4615560584" lon="-8.1137625687">
        <ele>123.19</ele>
        <time>2018-12-20T12:52:18Z</time>
      </trkpt>
      <trkpt lat="39.4616053440" lon="-8.1137758959">
        <ele>122.71</ele>
        <time>2018-12-20T12:52:24Z</time>
      </trkpt>
      <trkpt lat="39.4616024103" lon="-8.1137645803">
        <ele>122.71</ele>
        <time>2018-12-20T12:52:32Z</time>
      </trkpt>
      <trkpt lat="39.4617290609" lon="-8.1137788296">
        <ele>122.22</ele>
        <time>2018-12-20T12:52:38Z</time>
      </trkpt>
      <trkpt lat="39.4617823698" lon="-8.1137767341">
        <ele>122.22</ele>
        <time>2018-12-20T12:52:44Z</time>
      </trkpt>
      <trkpt lat="39.4618182443" lon="-8.1137641612">
        <ele>122.22</ele>
        <time>2018-12-20T12:52:50Z</time>
      </trkpt>
      <trkpt lat="39.4619473256" lon="-8.1137875468">
        <ele>122.71</ele>
        <time>2018-12-20T12:52:56Z</time>
      </trkpt>
      <trkpt lat="39.4620022271" lon="-8.1137668435">
        <ele>122.22</ele>
        <time>2018-12-20T12:53:03Z</time>
      </trkpt>
      <trkpt lat="39.4620734733" lon="-8.1137781590">
        <ele>123.19</ele>
        <time>2018-12-20T12:53:10Z</time>
      </trkpt>
      <trkpt lat="39.4622505829" lon="-8.1138238404">
        <ele>122.71</ele>
        <time>2018-12-20T12:53:17Z</time>
      </trkpt>
      <trkpt lat="39.4623282831" lon="-8.1138226669">
        <ele>122.22</ele>
        <time>2018-12-20T12:53:24Z</time>
      </trkpt>
      <trkpt lat="39.4623245113" lon="-8.1138180569">
        <ele>121.26</ele>
        <time>2018-12-20T12:53:28Z</time>
      </trkpt>
      <trkpt lat="39.4623414427" lon="-8.1138175540">
        <ele>121.74</ele>
        <time>2018-12-20T12:53:30Z</time>
      </trkpt>
      <trkpt lat="39.4623862859" lon="-8.1138245109">
        <ele>121.26</ele>
        <time>2018-12-20T12:53:33Z</time>
      </trkpt>
      <trkpt lat="39.4624773972" lon="-8.1138536800">
        <ele>121.26</ele>
        <time>2018-12-20T12:53:38Z</time>
      </trkpt>
      <trkpt lat="39.4625645690" lon="-8.1138412748">
        <ele>121.26</ele>
        <time>2018-12-20T12:53:45Z</time>
      </trkpt>
      <trkpt lat="39.4625751302" lon="-8.1138228346">
        <ele>120.30</ele>
        <time>2018-12-20T12:53:51Z</time>
      </trkpt>
      <trkpt lat="39.4625854399" lon="-8.1138281152">
        <ele>120.78</ele>
        <time>2018-12-20T12:53:52Z</time>
      </trkpt>
      <trkpt lat="39.4626777247" lon="-8.1138525065">
        <ele>120.78</ele>
        <time>2018-12-20T12:53:57Z</time>
      </trkpt>
      <trkpt lat="39.4627642259" lon="-8.1138496567">
        <ele>119.82</ele>
        <time>2018-12-20T12:54:03Z</time>
      </trkpt>
      <trkpt lat="39.4627713505" lon="-8.1138493214">
        <ele>120.30</ele>
        <time>2018-12-20T12:54:05Z</time>
      </trkpt>
      <trkpt lat="39.4628751185" lon="-8.1138676777">
        <ele>119.82</ele>
        <time>2018-12-20T12:54:11Z</time>
      </trkpt>
      <trkpt lat="39.4630249031" lon="-8.1138625648">
        <ele>119.34</ele>
        <time>2018-12-20T12:54:18Z</time>
      </trkpt>
      <trkpt lat="39.4630605262" lon="-8.1138640735">
        <ele>119.34</ele>
        <time>2018-12-20T12:54:23Z</time>
      </trkpt>
      <trkpt lat="39.4631480332" lon="-8.1138981041">
        <ele>118.86</ele>
        <time>2018-12-20T12:54:29Z</time>
      </trkpt>
      <trkpt lat="39.4632687327" lon="-8.1139012892">
        <ele>117.90</ele>
        <time>2018-12-20T12:54:35Z</time>
      </trkpt>
      <trkpt lat="39.4632655475" lon="-8.1139033008">
        <ele>118.38</ele>
        <time>2018-12-20T12:54:40Z</time>
      </trkpt>
      <trkpt lat="39.4633157551" lon="-8.1138992775">
        <ele>117.90</ele>
        <time>2018-12-20T12:54:45Z</time>
      </trkpt>
      <trkpt lat="39.4634069502" lon="-8.1138722040">
        <ele>117.90</ele>
        <time>2018-12-20T12:54:52Z</time>
      </trkpt>
      <trkpt lat="39.4634154160" lon="-8.1138704438">
        <ele>117.90</ele>
        <time>2018-12-20T12:54:58Z</time>
      </trkpt>
      <trkpt lat="39.4635336008" lon="-8.1138594635">
        <ele>117.90</ele>
        <time>2018-12-20T12:55:04Z</time>
      </trkpt>
      <trkpt lat="39.4635465927" lon="-8.1138523389">
        <ele>117.42</ele>
        <time>2018-12-20T12:55:11Z</time>
      </trkpt>
      <trkpt lat="39.4636869058" lon="-8.1138331443">
        <ele>116.94</ele>
        <time>2018-12-20T12:55:18Z</time>
      </trkpt>
      <trkpt lat="39.4636888336" lon="-8.1138306297">
        <ele>116.46</ele>
        <time>2018-12-20T12:55:23Z</time>
      </trkpt>
      <trkpt lat="39.4637682941" lon="-8.1138262711">
        <ele>116.46</ele>
        <time>2018-12-20T12:55:28Z</time>
      </trkpt>
      <trkpt lat="39.4638252072" lon="-8.1138261873">
        <ele>116.46</ele>
        <time>2018-12-20T12:55:34Z</time>
      </trkpt>
      <trkpt lat="39.4638777617" lon="-8.1138225831">
        <ele>116.46</ele>
        <time>2018-12-20T12:55:39Z</time>
      </trkpt>
      <trkpt lat="39.4639600720" lon="-8.1138026342">
        <ele>116.46</ele>
        <time>2018-12-20T12:55:46Z</time>
      </trkpt>
      <trkpt lat="39.4639689568" lon="-8.1138060708">
        <ele>115.98</ele>
        <time>2018-12-20T12:55:50Z</time>
      </trkpt>
      <trkpt lat="39.4640685339" lon="-8.1137945037">
        <ele>115.50</ele>
        <time>2018-12-20T12:55:56Z</time>
      </trkpt>
      <trkpt lat="39.4640876446" lon="-8.1138051488">
        <ele>115.50</ele>
        <time>2018-12-20T12:56:01Z</time>
      </trkpt>
      <trkpt lat="39.4641638361" lon="-8.1139131077">
        <ele>115.01</ele>
        <time>2018-12-20T12:56:07Z</time>
      </trkpt>
      <trkpt lat="39.4642285444" lon="-8.1139577832">
        <ele>115.50</ele>
        <time>2018-12-20T12:56:13Z</time>
      </trkpt>
      <trkpt lat="39.4642369263" lon="-8.1139522512">
        <ele>115.50</ele>
        <time>2018-12-20T12:56:18Z</time>
      </trkpt>
      <trkpt lat="39.4643822685" lon="-8.1139311288">
        <ele>115.01</ele>
        <time>2018-12-20T12:56:24Z</time>
      </trkpt>
      <trkpt lat="39.4644913170" lon="-8.1138964277">
        <ele>114.53</ele>
        <time>2018-12-20T12:56:30Z</time>
      </trkpt>
      <trkpt lat="39.4644813426" lon="-8.1138973497">
        <ele>114.53</ele>
        <time>2018-12-20T12:56:35Z</time>
      </trkpt>
      <trkpt lat="39.4645975996" lon="-8.1139804982">
        <ele>114.53</ele>
        <time>2018-12-20T12:56:42Z</time>
      </trkpt>
      <trkpt lat="39.4647149462" lon="-8.1140885409">
        <ele>114.05</ele>
        <time>2018-12-20T12:56:48Z</time>
      </trkpt>
      <trkpt lat="39.4647290278" lon="-8.1140913069">
        <ele>113.57</ele>
        <time>2018-12-20T12:56:55Z</time>
      </trkpt>
      <trkpt lat="39.4647399243" lon="-8.1140874512">
        <ele>113.57</ele>
        <time>2018-12-20T12:56:59Z</time>
      </trkpt>
      <trkpt lat="39.4647867791" lon="-8.1142423488">
        <ele>112.61</ele>
        <time>2018-12-20T12:57:06Z</time>
      </trkpt>
      <trkpt lat="39.4648099132" lon="-8.1143871881">
        <ele>113.57</ele>
        <time>2018-12-20T12:57:10Z</time>
      </trkpt>
      <trkpt lat="39.4648563489" lon="-8.1145662256">
        <ele>112.61</ele>
        <time>2018-12-20T12:57:16Z</time>
      </trkpt>
      <trkpt lat="39.4648737833" lon="-8.1145868450">
        <ele>111.65</ele>
        <time>2018-12-20T12:57:23Z</time>
      </trkpt>
      <trkpt lat="39.4648980070" lon="-8.1146063749">
        <ele>111.65</ele>
        <time>2018-12-20T12:57:31Z</time>
      </trkpt>
      <trkpt lat="39.4649080653" lon="-8.1146268267">
        <ele>112.13</ele>
        <time>2018-12-20T12:57:33Z</time>
      </trkpt>
      <trkpt lat="39.4649507292" lon="-8.1147444248">
        <ele>110.69</ele>
        <time>2018-12-20T12:57:40Z</time>
      </trkpt>
      <trkpt lat="39.4649643917" lon="-8.1147674751">
        <ele>111.65</ele>
        <time>2018-12-20T12:57:41Z</time>
      </trkpt>
      <trkpt lat="39.4650261663" lon="-8.1148943771">
        <ele>110.21</ele>
        <time>2018-12-20T12:57:46Z</time>
      </trkpt>
      <trkpt lat="39.4650425110" lon="-8.1149346940">
        <ele>110.69</ele>
        <time>2018-12-20T12:57:52Z</time>
      </trkpt>
      <trkpt lat="39.4650513120" lon="-8.1149940379">
        <ele>110.69</ele>
        <time>2018-12-20T12:57:58Z</time>
      </trkpt>
      <trkpt lat="39.4651261624" lon="-8.1151723210">
        <ele>110.21</ele>
        <time>2018-12-20T12:58:04Z</time>
      </trkpt>
      <trkpt lat="39.4651337061" lon="-8.1151967123">
        <ele>110.21</ele>
        <time>2018-12-20T12:58:10Z</time>
      </trkpt>
      <trkpt lat="39.4651556667" lon="-8.1152506080">
        <ele>110.21</ele>
        <time>2018-12-20T12:58:14Z</time>
      </trkpt>
      <trkpt lat="39.4651889428" lon="-8.1153780129">
        <ele>109.73</ele>
        <time>2018-12-20T12:58:20Z</time>
      </trkpt>
      <trkpt lat="39.4651967380" lon="-8.1153848022">
        <ele>109.73</ele>
        <time>2018-12-20T12:58:25Z</time>
      </trkpt>
      <trkpt lat="39.4651914574" lon="-8.1153698824">
        <ele>110.21</ele>
        <time>2018-12-20T12:58:31Z</time>
      </trkpt>
      <trkpt lat="39.4651744422" lon="-8.1153580640">
        <ele>109.73</ele>
        <time>2018-12-20T12:58:40Z</time>
      </trkpt>
      <trkpt lat="39.4651943911" lon="-8.1153727323">
        <ele>109.25</ele>
        <time>2018-12-20T12:58:49Z</time>
      </trkpt>
      <trkpt lat="39.4652118254" lon="-8.1154249515">
        <ele>109.73</ele>
        <time>2018-12-20T12:58:51Z</time>
      </trkpt>
      <trkpt lat="39.4652401563" lon="-8.1154723931">
        <ele>109.25</ele>
        <time>2018-12-20T12:58:57Z</time>
      </trkpt>
      <trkpt lat="39.4652175251" lon="-8.1154710520">
        <ele>108.77</ele>
        <time>2018-12-20T12:59:03Z</time>
      </trkpt>
      <trkpt lat="39.4652094785" lon="-8.1154782604">
        <ele>108.77</ele>
        <time>2018-12-20T12:59:05Z</time>
      </trkpt>
      <trkpt lat="39.4652377255" lon="-8.1155607384">
        <ele>109.25</ele>
        <time>2018-12-20T12:59:11Z</time>
      </trkpt>
      <trkpt lat="39.4652570039" lon="-8.1156155560">
        <ele>108.77</ele>
        <time>2018-12-20T12:59:16Z</time>
      </trkpt>
      <trkpt lat="39.4652832393" lon="-8.1156458147">
        <ele>108.77</ele>
        <time>2018-12-20T12:59:18Z</time>
      </trkpt>
      <trkpt lat="39.4653009251" lon="-8.1156748999">
        <ele>108.77</ele>
        <time>2018-12-20T12:59:24Z</time>
      </trkpt>
      <trkpt lat="39.4653134141" lon="-8.1156857125">
        <ele>108.29</ele>
        <time>2018-12-20T12:59:30Z</time>
      </trkpt>
      <trkpt lat="39.4653168507" lon="-8.1156967767">
        <ele>108.77</ele>
        <time>2018-12-20T12:59:38Z</time>
      </trkpt>
      <trkpt lat="39.4653253164" lon="-8.1157344952">
        <ele>108.29</ele>
        <time>2018-12-20T12:59:46Z</time>
      </trkpt>
      <trkpt lat="39.4653192814" lon="-8.1157661788">
        <ele>109.73</ele>
        <time>2018-12-20T12:59:49Z</time>
      </trkpt>
      <trkpt lat="39.4653831515" lon="-8.1159088388">
        <ele>108.29</ele>
        <time>2018-12-20T12:59:55Z</time>
      </trkpt>
      <trkpt lat="39.4653979875" lon="-8.1159339845">
        <ele>107.81</ele>
        <time>2018-12-20T12:59:57Z</time>
      </trkpt>
      <trkpt lat="39.4654257316" lon="-8.1159436237">
        <ele>107.81</ele>
        <time>2018-12-20T13:00:06Z</time>
      </trkpt>
      <trkpt lat="39.4654457644" lon="-8.1159577053">
        <ele>107.81</ele>
        <time>2018-12-20T13:00:11Z</time>
      </trkpt>
      <trkpt lat="39.4654749334" lon="-8.1160131935">
        <ele>107.32</ele>
        <time>2018-12-20T13:00:15Z</time>
      </trkpt>
      <trkpt lat="39.4655183516" lon="-8.1161600444">
        <ele>106.84</ele>
        <time>2018-12-20T13:00:20Z</time>
      </trkpt>
      <trkpt lat="39.4655861612" lon="-8.1163154449">
        <ele>107.32</ele>
        <time>2018-12-20T13:00:27Z</time>
      </trkpt>
      <trkpt lat="39.4656100497" lon="-8.1163461227">
        <ele>107.32</ele>
        <time>2018-12-20T13:00:34Z</time>
      </trkpt>
      <trkpt lat="39.4656144083" lon="-8.1163486373">
        <ele>106.84</ele>
        <time>2018-12-20T13:00:38Z</time>
      </trkpt>
      <trkpt lat="39.4656522945" lon="-8.1164534949">
        <ele>106.84</ele>
        <time>2018-12-20T13:00:43Z</time>
      </trkpt>
      <trkpt lat="39.4656867441" lon="-8.1165509764">
        <ele>106.84</ele>
        <time>2018-12-20T13:00:49Z</time>
      </trkpt>
      <trkpt lat="39.4657103810" lon="-8.1165966578">
        <ele>107.32</ele>
        <time>2018-12-20T13:00:56Z</time>
      </trkpt>
      <trkpt lat="39.4658055156" lon="-8.1167607754">
        <ele>106.84</ele>
        <time>2018-12-20T13:01:02Z</time>
      </trkpt>
      <trkpt lat="39.4658288173" lon="-8.1168388948">
        <ele>106.36</ele>
        <time>2018-12-20T13:01:08Z</time>
      </trkpt>
      <trkpt lat="39.4658042584" lon="-8.1168497074">
        <ele>106.84</ele>
        <time>2018-12-20T13:01:14Z</time>
      </trkpt>
      <trkpt lat="39.4658648595" lon="-8.1170272361">
        <ele>105.88</ele>
        <time>2018-12-20T13:01:21Z</time>
      </trkpt>
      <trkpt lat="39.4658743311" lon="-8.1170560699">
        <ele>106.36</ele>
        <time>2018-12-20T13:01:22Z</time>
      </trkpt>
      <trkpt lat="39.4658998959" lon="-8.1170919444">
        <ele>106.36</ele>
        <time>2018-12-20T13:01:29Z</time>
      </trkpt>
      <trkpt lat="39.4659247063" lon="-8.1171307527">
        <ele>106.84</ele>
        <time>2018-12-20T13:01:34Z</time>
      </trkpt>
      <trkpt lat="39.4660285581" lon="-8.1172553916">
        <ele>106.36</ele>
        <time>2018-12-20T13:01:40Z</time>
      </trkpt>
      <trkpt lat="39.4660327490" lon="-8.1172589958">
        <ele>106.84</ele>
        <time>2018-12-20T13:01:45Z</time>
      </trkpt>
      <trkpt lat="39.4660344254" lon="-8.1172636896">
        <ele>106.36</ele>
        <time>2018-12-20T13:01:46Z</time>
      </trkpt>
      <trkpt lat="39.4660532847" lon="-8.1173583213">
        <ele>106.84</ele>
        <time>2018-12-20T13:01:50Z</time>
      </trkpt>
      <trkpt lat="39.4661267102" lon="-8.1174946949">
        <ele>106.84</ele>
        <time>2018-12-20T13:01:57Z</time>
      </trkpt>
      <trkpt lat="39.4661281351" lon="-8.1175171584">
        <ele>105.88</ele>
        <time>2018-12-20T13:02:03Z</time>
      </trkpt>
      <trkpt lat="39.4661506824" lon="-8.1176915020">
        <ele>106.84</ele>
        <time>2018-12-20T13:02:10Z</time>
      </trkpt>
      <trkpt lat="39.4661568850" lon="-8.1177157257">
        <ele>106.36</ele>
        <time>2018-12-20T13:02:11Z</time>
      </trkpt>
      <trkpt lat="39.4661680330" lon="-8.1177465711">
        <ele>106.84</ele>
        <time>2018-12-20T13:02:18Z</time>
      </trkpt>
      <trkpt lat="39.4661712181" lon="-8.1177580543">
        <ele>107.32</ele>
        <time>2018-12-20T13:02:19Z</time>
      </trkpt>
      <trkpt lat="39.4661691226" lon="-8.1178929191">
        <ele>107.32</ele>
        <time>2018-12-20T13:02:25Z</time>
      </trkpt>
      <trkpt lat="39.4661643449" lon="-8.1180450507">
        <ele>107.81</ele>
        <time>2018-12-20T13:02:30Z</time>
      </trkpt>
      <trkpt lat="39.4661793485" lon="-8.1180753093">
        <ele>107.32</ele>
        <time>2018-12-20T13:02:36Z</time>
      </trkpt>
      <trkpt lat="39.4661692064" lon="-8.1181190629">
        <ele>107.81</ele>
        <time>2018-12-20T13:02:42Z</time>
      </trkpt>
      <trkpt lat="39.4661608245" lon="-8.1181705277">
        <ele>107.81</ele>
        <time>2018-12-20T13:02:46Z</time>
      </trkpt>
      <trkpt lat="39.4661512692" lon="-8.1182853598">
        <ele>107.81</ele>
        <time>2018-12-20T13:02:53Z</time>
      </trkpt>
      <trkpt lat="39.4661709666" lon="-8.1183043867">
        <ele>107.81</ele>
        <time>2018-12-20T13:02:59Z</time>
      </trkpt>
      <trkpt lat="39.4661763310" lon="-8.1183014531">
        <ele>108.29</ele>
        <time>2018-12-20T13:03:07Z</time>
      </trkpt>
      <trkpt lat="39.4661698770" lon="-8.1183115114">
        <ele>108.29</ele>
        <time>2018-12-20T13:03:20Z</time>
      </trkpt>
      <trkpt lat="39.4661510177" lon="-8.1183548458">
        <ele>107.81</ele>
        <time>2018-12-20T13:03:25Z</time>
      </trkpt>
      <trkpt lat="39.4661140535" lon="-8.1184508186">
        <ele>108.77</ele>
        <time>2018-12-20T13:03:32Z</time>
      </trkpt>
      <trkpt lat="39.4660815317" lon="-8.1185406726">
        <ele>109.25</ele>
        <time>2018-12-20T13:03:38Z</time>
      </trkpt>
      <trkpt lat="39.4660600740" lon="-8.1185974181">
        <ele>108.77</ele>
        <time>2018-12-20T13:03:42Z</time>
      </trkpt>
      <trkpt lat="39.4660226069" lon="-8.1186695024">
        <ele>109.25</ele>
        <time>2018-12-20T13:03:49Z</time>
      </trkpt>
      <trkpt lat="39.4659447391" lon="-8.1187829096">
        <ele>109.73</ele>
        <time>2018-12-20T13:03:55Z</time>
      </trkpt>
      <trkpt lat="39.4659068529" lon="-8.1188203767">
        <ele>109.25</ele>
        <time>2018-12-20T13:04:01Z</time>
      </trkpt>
      <trkpt lat="39.4658753369" lon="-8.1188739371">
        <ele>110.21</ele>
        <time>2018-12-20T13:04:06Z</time>
      </trkpt>
      <trkpt lat="39.4658147357" lon="-8.1190169323">
        <ele>110.69</ele>
        <time>2018-12-20T13:04:12Z</time>
      </trkpt>
      <trkpt lat="39.4658006541" lon="-8.1190967280">
        <ele>110.21</ele>
        <time>2018-12-20T13:04:19Z</time>
      </trkpt>
      <trkpt lat="39.4657890871" lon="-8.1191026792">
        <ele>110.21</ele>
        <time>2018-12-20T13:04:23Z</time>
      </trkpt>
      <trkpt lat="39.4657826331" lon="-8.1191277411">
        <ele>110.21</ele>
        <time>2018-12-20T13:04:25Z</time>
      </trkpt>
      <trkpt lat="39.4657318387" lon="-8.1192190200">
        <ele>110.21</ele>
        <time>2018-12-20T13:04:30Z</time>
      </trkpt>
      <trkpt lat="39.4656543061" lon="-8.1193873286">
        <ele>110.21</ele>
        <time>2018-12-20T13:04:37Z</time>
      </trkpt>
      <trkpt lat="39.4656563178" lon="-8.1194329262">
        <ele>110.69</ele>
        <time>2018-12-20T13:04:44Z</time>
      </trkpt>
      <trkpt lat="39.4656622689" lon="-8.1194591615">
        <ele>111.17</ele>
        <time>2018-12-20T13:04:50Z</time>
      </trkpt>
      <trkpt lat="39.4656669628" lon="-8.1196320802">
        <ele>111.17</ele>
        <time>2018-12-20T13:04:57Z</time>
      </trkpt>
      <trkpt lat="39.4656451698" lon="-8.1196988001">
        <ele>111.17</ele>
        <time>2018-12-20T13:05:00Z</time>
      </trkpt>
      <trkpt lat="39.4656274002" lon="-8.1197538693">
        <ele>111.17</ele>
        <time>2018-12-20T13:05:03Z</time>
      </trkpt>
      <trkpt lat="39.4655855745" lon="-8.1197597366">
        <ele>110.69</ele>
        <time>2018-12-20T13:05:10Z</time>
      </trkpt>
      <trkpt lat="39.4655765221" lon="-8.1197965331">
        <ele>111.65</ele>
        <time>2018-12-20T13:05:14Z</time>
      </trkpt>
      <trkpt lat="39.4654669706" lon="-8.1199825276">
        <ele>111.17</ele>
        <time>2018-12-20T13:05:22Z</time>
      </trkpt>
      <trkpt lat="39.4654451776" lon="-8.1200834457">
        <ele>111.65</ele>
        <time>2018-12-20T13:05:29Z</time>
      </trkpt>
      <trkpt lat="39.4654098060" lon="-8.1201377604">
        <ele>111.65</ele>
        <time>2018-12-20T13:05:36Z</time>
      </trkpt>
      <trkpt lat="39.4653844927" lon="-8.1202341523">
        <ele>111.65</ele>
        <time>2018-12-20T13:05:42Z</time>
      </trkpt>
      <trkpt lat="39.4653166831" lon="-8.1204110943">
        <ele>111.17</ele>
        <time>2018-12-20T13:05:49Z</time>
      </trkpt>
      <trkpt lat="39.4652828202" lon="-8.1205076538">
        <ele>110.69</ele>
        <time>2018-12-20T13:05:56Z</time>
      </trkpt>
      <trkpt lat="39.4652642962" lon="-8.1205362361">
        <ele>110.69</ele>
        <time>2018-12-20T13:06:05Z</time>
      </trkpt>
      <trkpt lat="39.4652249850" lon="-8.1206242461">
        <ele>111.17</ele>
        <time>2018-12-20T13:06:10Z</time>
      </trkpt>
      <trkpt lat="39.4651554152" lon="-8.1208563410">
        <ele>110.69</ele>
        <time>2018-12-20T13:06:18Z</time>
      </trkpt>
      <trkpt lat="39.4651261624" lon="-8.1210497115">
        <ele>110.69</ele>
        <time>2018-12-20T13:06:24Z</time>
      </trkpt>
      <trkpt lat="39.4651658926" lon="-8.1210436765">
        <ele>110.21</ele>
        <time>2018-12-20T13:06:33Z</time>
      </trkpt>
      <trkpt lat="39.4651513081" lon="-8.1210908666">
        <ele>110.69</ele>
        <time>2018-12-20T13:06:38Z</time>
      </trkpt>
      <trkpt lat="39.4650936406" lon="-8.1213453412">
        <ele>109.73</ele>
        <time>2018-12-20T13:06:47Z</time>
      </trkpt>
      <trkpt lat="39.4650749490" lon="-8.1214447506">
        <ele>109.25</ele>
        <time>2018-12-20T13:06:53Z</time>
      </trkpt>
      <trkpt lat="39.4650860969" lon="-8.1214408949">
        <ele>109.25</ele>
        <time>2018-12-20T13:07:00Z</time>
      </trkpt>
      <trkpt lat="39.4650731049" lon="-8.1215141527">
        <ele>108.77</ele>
        <time>2018-12-20T13:07:06Z</time>
      </trkpt>
      <trkpt lat="39.4650596939" lon="-8.1215418968">
        <ele>109.25</ele>
        <time>2018-12-20T13:07:07Z</time>
      </trkpt>
      <trkpt lat="39.4650080614" lon="-8.1217035837">
        <ele>108.77</ele>
        <time>2018-12-20T13:07:13Z</time>
      </trkpt>
      <trkpt lat="39.4649678282" lon="-8.1218103692">
        <ele>108.29</ele>
        <time>2018-12-20T13:07:20Z</time>
      </trkpt>
      <trkpt lat="39.4649776351" lon="-8.1218018197">
        <ele>107.81</ele>
        <time>2018-12-20T13:07:24Z</time>
      </trkpt>
      <trkpt lat="39.4649729412" lon="-8.1218391191">
        <ele>107.81</ele>
        <time>2018-12-20T13:07:27Z</time>
      </trkpt>
      <trkpt lat="39.4649208058" lon="-8.1219037436">
        <ele>107.32</ele>
        <time>2018-12-20T13:07:31Z</time>
      </trkpt>
      <trkpt lat="39.4648141880" lon="-8.1220550369">
        <ele>106.36</ele>
        <time>2018-12-20T13:07:39Z</time>
      </trkpt>
      <trkpt lat="39.4648078177" lon="-8.1220722198">
        <ele>106.36</ele>
        <time>2018-12-20T13:07:43Z</time>
      </trkpt>
      <trkpt lat="39.4648006931" lon="-8.1220894028">
        <ele>105.40</ele>
        <time>2018-12-20T13:07:48Z</time>
      </trkpt>
      <trkpt lat="39.4648019504" lon="-8.1220930070">
        <ele>104.44</ele>
        <time>2018-12-20T13:07:53Z</time>
      </trkpt>
      <trkpt lat="39.4647954963" lon="-8.1220961921">
        <ele>103.96</ele>
        <time>2018-12-20T13:07:54Z</time>
      </trkpt>
      <trkpt lat="39.4647427741" lon="-8.1221650913">
        <ele>103.48</ele>
        <time>2018-12-20T13:07:58Z</time>
      </trkpt>
      <trkpt lat="39.4646203984" lon="-8.1223236769">
        <ele>103.00</ele>
        <time>2018-12-20T13:08:04Z</time>
      </trkpt>
      <trkpt lat="39.4646032155" lon="-8.1223965157">
        <ele>102.04</ele>
        <time>2018-12-20T13:08:10Z</time>
      </trkpt>
      <trkpt lat="39.4645917322" lon="-8.1223844457">
        <ele>101.56</ele>
        <time>2018-12-20T13:08:14Z</time>
      </trkpt>
      <trkpt lat="39.4645245094" lon="-8.1224566139">
        <ele>101.56</ele>
        <time>2018-12-20T13:08:19Z</time>
      </trkpt>
      <trkpt lat="39.4644337334" lon="-8.1225571129">
        <ele>100.11</ele>
        <time>2018-12-20T13:08:25Z</time>
      </trkpt>
      <trkpt lat="39.4644136168" lon="-8.1225675065">
        <ele>99.63</ele>
        <time>2018-12-20T13:08:32Z</time>
      </trkpt>
      <trkpt lat="39.4644012954" lon="-8.1225740444">
        <ele>99.15</ele>
        <time>2018-12-20T13:08:33Z</time>
      </trkpt>
      <trkpt lat="39.4643236790" lon="-8.1225902215">
        <ele>98.67</ele>
        <time>2018-12-20T13:08:38Z</time>
      </trkpt>
      <trkpt lat="39.4641795103" lon="-8.1226359867">
        <ele>98.19</ele>
        <time>2018-12-20T13:08:44Z</time>
      </trkpt>
      <trkpt lat="39.4641257823" lon="-8.1226804946">
        <ele>97.71</ele>
        <time>2018-12-20T13:08:50Z</time>
      </trkpt>
      <trkpt lat="39.4641366787" lon="-8.1226605456">
        <ele>97.23</ele>
        <time>2018-12-20T13:08:56Z</time>
      </trkpt>
      <trkpt lat="39.4641148020" lon="-8.1226467155">
        <ele>96.75</ele>
        <time>2018-12-20T13:09:01Z</time>
      </trkpt>
      <trkpt lat="39.4640487526" lon="-8.1225816719">
        <ele>95.79</ele>
        <time>2018-12-20T13:09:05Z</time>
      </trkpt>
      <trkpt lat="39.4639397040" lon="-8.1225007866">
        <ele>96.27</ele>
        <time>2018-12-20T13:09:12Z</time>
      </trkpt>
      <trkpt lat="39.4639020693" lon="-8.1225019600">
        <ele>95.79</ele>
        <time>2018-12-20T13:09:18Z</time>
      </trkpt>
      <trkpt lat="39.4638978783" lon="-8.1225065701">
        <ele>96.75</ele>
        <time>2018-12-20T13:09:19Z</time>
      </trkpt>
      <trkpt lat="39.4638532866" lon="-8.1225316320">
        <ele>96.27</ele>
        <time>2018-12-20T13:09:23Z</time>
      </trkpt>
      <trkpt lat="39.4637278933" lon="-8.1226057280">
        <ele>96.27</ele>
        <time>2018-12-20T13:09:29Z</time>
      </trkpt>
      <trkpt lat="39.4636992272" lon="-8.1226624735">
        <ele>96.27</ele>
        <time>2018-12-20T13:09:34Z</time>
      </trkpt>
      <trkpt lat="39.4637054298" lon="-8.1226887088">
        <ele>96.27</ele>
        <time>2018-12-20T13:09:39Z</time>
      </trkpt>
      <trkpt lat="39.4636661187" lon="-8.1228135992">
        <ele>96.27</ele>
        <time>2018-12-20T13:09:45Z</time>
      </trkpt>
      <trkpt lat="39.4636715669" lon="-8.1228746194">
        <ele>96.27</ele>
        <time>2018-12-20T13:09:52Z</time>
      </trkpt>
      <trkpt lat="39.4636810385" lon="-8.1229469553">
        <ele>95.79</ele>
        <time>2018-12-20T13:09:56Z</time>
      </trkpt>
      <trkpt lat="39.4636853971" lon="-8.1229705922">
        <ele>96.27</ele>
        <time>2018-12-20T13:10:01Z</time>
      </trkpt>
      <trkpt lat="39.4637170807" lon="-8.1230415031">
        <ele>95.79</ele>
        <time>2018-12-20T13:10:06Z</time>
      </trkpt>
      <trkpt lat="39.4637361914" lon="-8.1230502203">
        <ele>95.79</ele>
        <time>2018-12-20T13:10:10Z</time>
      </trkpt>
      <trkpt lat="39.4637672044" lon="-8.1231883541">
        <ele>96.75</ele>
        <time>2018-12-20T13:10:16Z</time>
      </trkpt>
      <trkpt lat="39.4637791067" lon="-8.1232345384">
        <ele>96.27</ele>
        <time>2018-12-20T13:10:20Z</time>
      </trkpt>
      <trkpt lat="39.4637825433" lon="-8.1232383940">
        <ele>96.27</ele>
        <time>2018-12-20T13:10:21Z</time>
      </trkpt>
      <trkpt lat="39.4638000615" lon="-8.1233440060">
        <ele>97.23</ele>
        <time>2018-12-20T13:10:27Z</time>
      </trkpt>
      <trkpt lat="39.4637876563" lon="-8.1233619433">
        <ele>97.71</ele>
        <time>2018-12-20T13:10:31Z</time>
      </trkpt>
      <trkpt lat="39.4637863990" lon="-8.1234443374">
        <ele>98.19</ele>
        <time>2018-12-20T13:10:37Z</time>
      </trkpt>
      <trkpt lat="39.4637663662" lon="-8.1235266477">
        <ele>99.63</ele>
        <time>2018-12-20T13:10:43Z</time>
      </trkpt>
      <trkpt lat="39.4637516979" lon="-8.1236130651">
        <ele>100.60</ele>
        <time>2018-12-20T13:10:49Z</time>
      </trkpt>
      <trkpt lat="39.4637414720" lon="-8.1236734986">
        <ele>100.60</ele>
        <time>2018-12-20T13:10:54Z</time>
      </trkpt>
      <trkpt lat="39.4637245405" lon="-8.1237258017">
        <ele>101.56</ele>
        <time>2018-12-20T13:10:59Z</time>
      </trkpt>
      <trkpt lat="39.4636969641" lon="-8.1238050945">
        <ele>103.00</ele>
        <time>2018-12-20T13:11:06Z</time>
      </trkpt>
      <trkpt lat="39.4636579044" lon="-8.1238628458">
        <ele>103.48</ele>
        <time>2018-12-20T13:11:12Z</time>
      </trkpt>
      <trkpt lat="39.4636367820" lon="-8.1239077728">
        <ele>103.96</ele>
        <time>2018-12-20T13:11:17Z</time>
      </trkpt>
      <trkpt lat="39.4636123069" lon="-8.1239460781">
        <ele>104.44</ele>
        <time>2018-12-20T13:11:21Z</time>
      </trkpt>
      <trkpt lat="39.4635544717" lon="-8.1240076013">
        <ele>105.88</ele>
        <time>2018-12-20T13:11:29Z</time>
      </trkpt>
      <trkpt lat="39.4635148253" lon="-8.1240490917">
        <ele>106.36</ele>
        <time>2018-12-20T13:11:34Z</time>
      </trkpt>
      <trkpt lat="39.4634750113" lon="-8.1240981258">
        <ele>106.36</ele>
        <time>2018-12-20T13:11:38Z</time>
      </trkpt>
      <trkpt lat="39.4634310901" lon="-8.1241271272">
        <ele>106.36</ele>
        <time>2018-12-20T13:11:43Z</time>
      </trkpt>
      <trkpt lat="39.4633952994" lon="-8.1241774186">
        <ele>107.81</ele>
        <time>2018-12-20T13:11:50Z</time>
      </trkpt>
      <trkpt lat="39.4633901864" lon="-8.1241803523">
        <ele>107.32</ele>
        <time>2018-12-20T13:11:51Z</time>
      </trkpt>
      <trkpt lat="39.4633713271" lon="-8.1242009718">
        <ele>108.29</ele>
        <time>2018-12-20T13:11:53Z</time>
      </trkpt>
      <trkpt lat="39.4633537252" lon="-8.1242028996">
        <ele>108.29</ele>
        <time>2018-12-20T13:11:55Z</time>
      </trkpt>
      <trkpt lat="39.4633131567" lon="-8.1242350861">
        <ele>108.77</ele>
        <time>2018-12-20T13:12:00Z</time>
      </trkpt>
      <trkpt lat="39.4632529747" lon="-8.1242873054">
        <ele>109.25</ele>
        <time>2018-12-20T13:12:08Z</time>
      </trkpt>
      <trkpt lat="39.4632398989" lon="-8.1242967770">
        <ele>110.21</ele>
        <time>2018-12-20T13:12:10Z</time>
      </trkpt>
      <trkpt lat="39.4631721731" lon="-8.1243421230">
        <ele>108.77</ele>
        <time>2018-12-20T13:12:14Z</time>
      </trkpt>
      <trkpt lat="39.4631466921" lon="-8.1243598927">
        <ele>110.21</ele>
        <time>2018-12-20T13:12:19Z</time>
      </trkpt>
      <trkpt lat="39.4630959816" lon="-8.1243974436">
        <ele>110.69</ele>
        <time>2018-12-20T13:12:24Z</time>
      </trkpt>
      <trkpt lat="39.4630834926" lon="-8.1244033948">
        <ele>110.21</ele>
        <time>2018-12-20T13:12:28Z</time>
      </trkpt>
      <trkpt lat="39.4630127493" lon="-8.1244282052">
        <ele>111.65</ele>
        <time>2018-12-20T13:12:34Z</time>
      </trkpt>
      <trkpt lat="39.4630000927" lon="-8.1244347431">
        <ele>111.17</ele>
        <time>2018-12-20T13:12:36Z</time>
      </trkpt>
      <trkpt lat="39.4628928881" lon="-8.1244994514">
        <ele>110.69</ele>
        <time>2018-12-20T13:12:42Z</time>
      </trkpt>
      <trkpt lat="39.4628687482" lon="-8.1245179754">
        <ele>111.17</ele>
        <time>2018-12-20T13:12:47Z</time>
      </trkpt>
      <trkpt lat="39.4628602825" lon="-8.1245188136">
        <ele>110.69</ele>
        <time>2018-12-20T13:12:48Z</time>
      </trkpt>
      <trkpt lat="39.4627793133" lon="-8.1245394330">
        <ele>111.17</ele>
        <time>2018-12-20T13:12:54Z</time>
      </trkpt>
      <trkpt lat="39.4627198018" lon="-8.1245743856">
        <ele>111.17</ele>
        <time>2018-12-20T13:13:00Z</time>
      </trkpt>
      <trkpt lat="39.4626541715" lon="-8.1245880481">
        <ele>111.65</ele>
        <time>2018-12-20T13:13:06Z</time>
      </trkpt>
      <trkpt lat="39.4626438618" lon="-8.1245934963">
        <ele>112.13</ele>
        <time>2018-12-20T13:13:09Z</time>
      </trkpt>
      <trkpt lat="39.4625868648" lon="-8.1246351544">
        <ele>111.65</ele>
        <time>2018-12-20T13:13:12Z</time>
      </trkpt>
      <trkpt lat="39.4625020400" lon="-8.1246784050">
        <ele>112.61</ele>
        <time>2018-12-20T13:13:20Z</time>
      </trkpt>
      <trkpt lat="39.4624100067" lon="-8.1247230805">
        <ele>113.09</ele>
        <time>2018-12-20T13:13:25Z</time>
      </trkpt>
      <trkpt lat="39.4623544347" lon="-8.1247299537">
        <ele>113.09</ele>
        <time>2018-12-20T13:13:31Z</time>
      </trkpt>
      <trkpt lat="39.4622960128" lon="-8.1247711927">
        <ele>112.61</ele>
        <time>2018-12-20T13:13:37Z</time>
      </trkpt>
      <trkpt lat="39.4621961005" lon="-8.1248282734">
        <ele>113.09</ele>
        <time>2018-12-20T13:13:43Z</time>
      </trkpt>
      <trkpt lat="39.4621835276" lon="-8.1248357333">
        <ele>112.61</ele>
        <time>2018-12-20T13:13:49Z</time>
      </trkpt>
      <trkpt lat="39.4621712901" lon="-8.1248486415">
        <ele>113.09</ele>
        <time>2018-12-20T13:13:50Z</time>
      </trkpt>
      <trkpt lat="39.4620838668" lon="-8.1249113381">
        <ele>113.09</ele>
        <time>2018-12-20T13:13:56Z</time>
      </trkpt>
      <trkpt lat="39.4620473217" lon="-8.1249596179">
        <ele>113.57</ele>
        <time>2018-12-20T13:14:02Z</time>
      </trkpt>
      <trkpt lat="39.4619852118" lon="-8.1250022817">
        <ele>113.09</ele>
        <time>2018-12-20T13:14:08Z</time>
      </trkpt>
      <trkpt lat="39.4618786778" lon="-8.1250725221">
        <ele>112.61</ele>
        <time>2018-12-20T13:14:14Z</time>
      </trkpt>
      <trkpt lat="39.4618287217" lon="-8.1251238193">
        <ele>113.09</ele>
        <time>2018-12-20T13:14:22Z</time>
      </trkpt>
      <trkpt lat="39.4617558829" lon="-8.1252185348">
        <ele>113.09</ele>
        <time>2018-12-20T13:14:29Z</time>
      </trkpt>
      <trkpt lat="39.4617539551" lon="-8.1252523139">
        <ele>113.09</ele>
        <time>2018-12-20T13:14:34Z</time>
      </trkpt>
      <trkpt lat="39.4616667833" lon="-8.1254000030">
        <ele>113.57</ele>
        <time>2018-12-20T13:14:43Z</time>
      </trkpt>
      <trkpt lat="39.4616402965" lon="-8.1254306808">
        <ele>113.57</ele>
        <time>2018-12-20T13:14:50Z</time>
      </trkpt>
      <trkpt lat="39.4615266379" lon="-8.1255922839">
        <ele>113.57</ele>
        <time>2018-12-20T13:14:58Z</time>
      </trkpt>
      <trkpt lat="39.4615130592" lon="-8.1256217882">
        <ele>113.57</ele>
        <time>2018-12-20T13:15:03Z</time>
      </trkpt>
      <trkpt lat="39.4614757597" lon="-8.1257084571">
        <ele>114.05</ele>
        <time>2018-12-20T13:15:10Z</time>
      </trkpt>
      <trkpt lat="39.4614586607" lon="-8.1257916894">
        <ele>113.57</ele>
        <time>2018-12-20T13:15:13Z</time>
      </trkpt>
      <trkpt lat="39.4614480156" lon="-8.1258279830">
        <ele>114.05</ele>
        <time>2018-12-20T13:15:18Z</time>
      </trkpt>
      <trkpt lat="39.4614461716" lon="-8.1258269772">
        <ele>114.05</ele>
        <time>2018-12-20T13:15:20Z</time>
      </trkpt>
      <trkpt lat="39.4614746701" lon="-8.1258926075">
        <ele>113.09</ele>
        <time>2018-12-20T13:15:24Z</time>
      </trkpt>
      <trkpt lat="39.4615501072" lon="-8.1260087807">
        <ele>113.09</ele>
        <time>2018-12-20T13:15:30Z</time>
      </trkpt>
      <trkpt lat="39.4616352674" lon="-8.1260797754">
        <ele>112.61</ele>
        <time>2018-12-20T13:15:36Z</time>
      </trkpt>
      <trkpt lat="39.4616583176" lon="-8.1260873191">
        <ele>111.17</ele>
        <time>2018-12-20T13:15:43Z</time>
      </trkpt>
      <trkpt lat="39.4617063459" lon="-8.1261213496">
        <ele>110.69</ele>
        <time>2018-12-20T13:15:48Z</time>
      </trkpt>
      <trkpt lat="39.4618452340" lon="-8.1262579747">
        <ele>111.17</ele>
        <time>2018-12-20T13:15:56Z</time>
      </trkpt>
      <trkpt lat="39.4618931785" lon="-8.1262634229">
        <ele>110.69</ele>
        <time>2018-12-20T13:16:03Z</time>
      </trkpt>
      <trkpt lat="39.4619221799" lon="-8.1262803543">
        <ele>110.21</ele>
        <time>2018-12-20T13:16:10Z</time>
      </trkpt>
      <trkpt lat="39.4620645046" lon="-8.1264016405">
        <ele>109.73</ele>
        <time>2018-12-20T13:16:18Z</time>
      </trkpt>
      <trkpt lat="39.4621806778" lon="-8.1264624093">
        <ele>110.21</ele>
        <time>2018-12-20T13:16:25Z</time>
      </trkpt>
      <trkpt lat="39.4622012135" lon="-8.1264666840">
        <ele>110.21</ele>
        <time>2018-12-20T13:16:31Z</time>
      </trkpt>
      <trkpt lat="39.4622556958" lon="-8.1265031453">
        <ele>109.73</ele>
        <time>2018-12-20T13:16:38Z</time>
      </trkpt>
      <trkpt lat="39.4623998646" lon="-8.1266140379">
        <ele>109.25</ele>
        <time>2018-12-20T13:16:45Z</time>
      </trkpt>
      <trkpt lat="39.4624374993" lon="-8.1266390160">
        <ele>109.73</ele>
        <time>2018-12-20T13:16:51Z</time>
      </trkpt>
      <trkpt lat="39.4624424446" lon="-8.1266373396">
        <ele>109.73</ele>
        <time>2018-12-20T13:16:54Z</time>
      </trkpt>
      <trkpt lat="39.4624843542" lon="-8.1266681012">
        <ele>109.25</ele>
        <time>2018-12-20T13:16:58Z</time>
      </trkpt>
      <trkpt lat="39.4625998568" lon="-8.1267609727">
        <ele>109.25</ele>
        <time>2018-12-20T13:17:06Z</time>
      </trkpt>
      <trkpt lat="39.4626294449" lon="-8.1267669238">
        <ele>108.77</ele>
        <time>2018-12-20T13:17:13Z</time>
      </trkpt>
      <trkpt lat="39.4626848493" lon="-8.1267976016">
        <ele>108.29</ele>
        <time>2018-12-20T13:17:19Z</time>
      </trkpt>
      <trkpt lat="39.4626960810" lon="-8.1268077437">
        <ele>108.77</ele>
        <time>2018-12-20T13:17:20Z</time>
      </trkpt>
      <trkpt lat="39.4627744518" lon="-8.1268585380">
        <ele>108.29</ele>
        <time>2018-12-20T13:17:25Z</time>
      </trkpt>
      <trkpt lat="39.4628590252" lon="-8.1269447878">
        <ele>107.81</ele>
        <time>2018-12-20T13:17:33Z</time>
      </trkpt>
      <trkpt lat="39.4628843386" lon="-8.1269848533">
        <ele>107.81</ele>
        <time>2018-12-20T13:17:37Z</time>
      </trkpt>
      <trkpt lat="39.4629042037" lon="-8.1271355599">
        <ele>106.84</ele>
        <time>2018-12-20T13:17:46Z</time>
      </trkpt>
      <trkpt lat="39.4628867693" lon="-8.1272495538">
        <ele>106.36</ele>
        <time>2018-12-20T13:17:53Z</time>
      </trkpt>
      <trkpt lat="39.4628705923" lon="-8.1273739412">
        <ele>105.88</ele>
        <time>2018-12-20T13:18:02Z</time>
      </trkpt>
      <trkpt lat="39.4628561754" lon="-8.1274622865">
        <ele>104.44</ele>
        <time>2018-12-20T13:18:07Z</time>
      </trkpt>
      <trkpt lat="39.4628480449" lon="-8.1274941377">
        <ele>106.36</ele>
        <time>2018-12-20T13:18:09Z</time>
      </trkpt>
      <trkpt lat="39.4628308620" lon="-8.1275554933">
        <ele>108.29</ele>
        <time>2018-12-20T13:18:13Z</time>
      </trkpt>
      <trkpt lat="39.4628368132" lon="-8.1275880150">
        <ele>105.88</ele>
        <time>2018-12-20T13:18:20Z</time>
      </trkpt>
      <trkpt lat="39.4628373999" lon="-8.1275972351">
        <ele>105.88</ele>
        <time>2018-12-20T13:18:21Z</time>
      </trkpt>
      <trkpt lat="39.4628069736" lon="-8.1277525518">
        <ele>105.88</ele>
        <time>2018-12-20T13:18:27Z</time>
      </trkpt>
      <trkpt lat="39.4628131762" lon="-8.1278376281">
        <ele>105.40</ele>
        <time>2018-12-20T13:18:32Z</time>
      </trkpt>
      <trkpt lat="39.4628177024" lon="-8.1278544758">
        <ele>106.36</ele>
        <time>2018-12-20T13:18:37Z</time>
      </trkpt>
      <trkpt lat="39.4628201332" lon="-8.1278711557">
        <ele>106.36</ele>
        <time>2018-12-20T13:18:38Z</time>
      </trkpt>
      <trkpt lat="39.4628110807" lon="-8.1279647816">
        <ele>106.36</ele>
        <time>2018-12-20T13:18:41Z</time>
      </trkpt>
      <trkpt lat="39.4628069736" lon="-8.1280432362">
        <ele>106.84</ele>
        <time>2018-12-20T13:18:47Z</time>
      </trkpt>
      <trkpt lat="39.4627827499" lon="-8.1281601638">
        <ele>107.32</ele>
        <time>2018-12-20T13:18:52Z</time>
      </trkpt>
      <trkpt lat="39.4627814088" lon="-8.1281704735">
        <ele>107.32</ele>
        <time>2018-12-20T13:18:56Z</time>
      </trkpt>
      <trkpt lat="39.4627738651" lon="-8.1282826234">
        <ele>106.84</ele>
        <time>2018-12-20T13:19:02Z</time>
      </trkpt>
      <trkpt lat="39.4627732784" lon="-8.1283563003">
        <ele>107.81</ele>
        <time>2018-12-20T13:19:08Z</time>
      </trkpt>
      <trkpt lat="39.4627495576" lon="-8.1284602359">
        <ele>108.29</ele>
        <time>2018-12-20T13:19:14Z</time>
      </trkpt>
      <trkpt lat="39.4627480488" lon="-8.1284689531">
        <ele>108.29</ele>
        <time>2018-12-20T13:19:15Z</time>
      </trkpt>
      <trkpt lat="39.4627184607" lon="-8.1285437196">
        <ele>108.29</ele>
        <time>2018-12-20T13:19:20Z</time>
      </trkpt>
      <trkpt lat="39.4627388287" lon="-8.1286277901">
        <ele>108.77</ele>
        <time>2018-12-20T13:19:25Z</time>
      </trkpt>
      <trkpt lat="39.4627373200" lon="-8.1286234315">
        <ele>108.77</ele>
        <time>2018-12-20T13:19:26Z</time>
      </trkpt>
      <trkpt lat="39.4627296086" lon="-8.1286873017">
        <ele>109.25</ele>
        <time>2018-12-20T13:19:30Z</time>
      </trkpt>
      <trkpt lat="39.4627145212" lon="-8.1287861243">
        <ele>109.25</ele>
        <time>2018-12-20T13:19:36Z</time>
      </trkpt>
      <trkpt lat="39.4627187960" lon="-8.1287803408">
        <ele>108.77</ele>
        <time>2018-12-20T13:19:39Z</time>
      </trkpt>
      <trkpt lat="39.4627239089" lon="-8.1288650818">
        <ele>109.73</ele>
        <time>2018-12-20T13:19:43Z</time>
      </trkpt>
      <trkpt lat="39.4626980927" lon="-8.1290693488">
        <ele>108.77</ele>
        <time>2018-12-20T13:19:51Z</time>
      </trkpt>
      <trkpt lat="39.4627012778" lon="-8.1290558539">
        <ele>109.73</ele>
        <time>2018-12-20T13:19:56Z</time>
      </trkpt>
      <trkpt lat="39.4627053011" lon="-8.1291130185">
        <ele>108.29</ele>
        <time>2018-12-20T13:19:59Z</time>
      </trkpt>
      <trkpt lat="39.4626827538" lon="-8.1292201392">
        <ele>109.25</ele>
        <time>2018-12-20T13:20:03Z</time>
      </trkpt>
      <trkpt lat="39.4626329653" lon="-8.1293403357">
        <ele>107.81</ele>
        <time>2018-12-20T13:20:08Z</time>
      </trkpt>
      <trkpt lat="39.4626216497" lon="-8.1293451134">
        <ele>108.29</ele>
        <time>2018-12-20T13:20:12Z</time>
      </trkpt>
      <trkpt lat="39.4626013655" lon="-8.1293814909">
        <ele>107.81</ele>
        <time>2018-12-20T13:20:16Z</time>
      </trkpt>
      <trkpt lat="39.4625944085" lon="-8.1294133421">
        <ele>108.29</ele>
        <time>2018-12-20T13:20:19Z</time>
      </trkpt>
      <trkpt lat="39.4624141138" lon="-8.1294939760">
        <ele>108.29</ele>
        <time>2018-12-20T13:20:26Z</time>
      </trkpt>
      <trkpt lat="39.4623873755" lon="-8.1294852588">
        <ele>108.29</ele>
        <time>2018-12-20T13:20:32Z</time>
      </trkpt>
      <trkpt lat="39.4623893034" lon="-8.1294885278">
        <ele>108.29</ele>
        <time>2018-12-20T13:20:34Z</time>
      </trkpt>
      <trkpt lat="39.4622762315" lon="-8.1295335386">
        <ele>108.77</ele>
        <time>2018-12-20T13:20:40Z</time>
      </trkpt>
      <trkpt lat="39.4621607289" lon="-8.1295759510">
        <ele>108.29</ele>
        <time>2018-12-20T13:20:46Z</time>
      </trkpt>
      <trkpt lat="39.4621572923" lon="-8.1295881048">
        <ele>108.29</ele>
        <time>2018-12-20T13:20:51Z</time>
      </trkpt>
      <trkpt lat="39.4620683603" lon="-8.1296333671">
        <ele>108.29</ele>
        <time>2018-12-20T13:20:57Z</time>
      </trkpt>
      <trkpt lat="39.4620113634" lon="-8.1296973210">
        <ele>108.29</ele>
        <time>2018-12-20T13:21:00Z</time>
      </trkpt>
      <trkpt lat="39.4620085135" lon="-8.1297120731">
        <ele>108.29</ele>
        <time>2018-12-20T13:21:04Z</time>
      </trkpt>
      <trkpt lat="39.4618941844" lon="-8.1297590956">
        <ele>108.29</ele>
        <time>2018-12-20T13:21:10Z</time>
      </trkpt>
      <trkpt lat="39.4618741516" lon="-8.1297807209">
        <ele>108.77</ele>
        <time>2018-12-20T13:21:14Z</time>
      </trkpt>
      <trkpt lat="39.4618293084" lon="-8.1297693215">
        <ele>108.29</ele>
        <time>2018-12-20T13:21:21Z</time>
      </trkpt>
      <trkpt lat="39.4617284741" lon="-8.1298124883">
        <ele>107.81</ele>
        <time>2018-12-20T13:21:25Z</time>
      </trkpt>
      <trkpt lat="39.4616861455" lon="-8.1298247259">
        <ele>108.29</ele>
        <time>2018-12-20T13:21:30Z</time>
      </trkpt>
      <trkpt lat="39.4616957847" lon="-8.1298224628">
        <ele>108.29</ele>
        <time>2018-12-20T13:21:33Z</time>
      </trkpt>
      <trkpt lat="39.4616119657" lon="-8.1298859138">
        <ele>107.81</ele>
        <time>2018-12-20T13:21:38Z</time>
      </trkpt>
      <trkpt lat="39.4615278114" lon="-8.1300202757">
        <ele>108.29</ele>
        <time>2018-12-20T13:21:44Z</time>
      </trkpt>
      <trkpt lat="39.4615529571" lon="-8.1300022546">
        <ele>108.29</ele>
        <time>2018-12-20T13:21:49Z</time>
      </trkpt>
      <trkpt lat="39.4616713934" lon="-8.1300938688">
        <ele>108.29</ele>
        <time>2018-12-20T13:21:56Z</time>
      </trkpt>
      <trkpt lat="39.4617066812" lon="-8.1300968863">
        <ele>107.81</ele>
        <time>2018-12-20T13:22:02Z</time>
      </trkpt>
      <trkpt lat="39.4617744908" lon="-8.1301370356">
        <ele>108.29</ele>
        <time>2018-12-20T13:22:06Z</time>
      </trkpt>
      <trkpt lat="39.4618486706" lon="-8.1301764306">
        <ele>108.77</ele>
        <time>2018-12-20T13:22:12Z</time>
      </trkpt>
      <trkpt lat="39.4618564658" lon="-8.1301768497">
        <ele>108.29</ele>
        <time>2018-12-20T13:22:14Z</time>
      </trkpt>
      <trkpt lat="39.4619490858" lon="-8.1302993931">
        <ele>108.29</ele>
        <time>2018-12-20T13:22:20Z</time>
      </trkpt>
      <trkpt lat="39.4619998801" lon="-8.1303914264">
        <ele>109.25</ele>
        <time>2018-12-20T13:22:27Z</time>
      </trkpt>
      <trkpt lat="39.4619956054" lon="-8.1304063462">
        <ele>109.73</ele>
        <time>2018-12-20T13:22:33Z</time>
      </trkpt>
      <trkpt lat="39.4620389398" lon="-8.1305274647">
        <ele>109.25</ele>
        <time>2018-12-20T13:22:38Z</time>
      </trkpt>
      <trkpt lat="39.4621178973" lon="-8.1306556240">
        <ele>109.25</ele>
        <time>2018-12-20T13:22:45Z</time>
      </trkpt>
      <trkpt lat="39.4621111080" lon="-8.1306689512">
        <ele>109.25</ele>
        <time>2018-12-20T13:22:52Z</time>
      </trkpt>
      <trkpt lat="39.4621216692" lon="-8.1306931749">
        <ele>109.25</ele>
        <time>2018-12-20T13:22:54Z</time>
      </trkpt>
      <trkpt lat="39.4622074999" lon="-8.1308658421">
        <ele>110.21</ele>
        <time>2018-12-20T13:23:01Z</time>
      </trkpt>
      <trkpt lat="39.4622883853" lon="-8.1309991982">
        <ele>109.73</ele>
        <time>2018-12-20T13:23:07Z</time>
      </trkpt>
      <trkpt lat="39.4623006228" lon="-8.1310176384">
        <ele>109.73</ele>
        <time>2018-12-20T13:23:13Z</time>
      </trkpt>
      <trkpt lat="39.4623026345" lon="-8.1310280319">
        <ele>109.73</ele>
        <time>2018-12-20T13:23:15Z</time>
      </trkpt>
      <trkpt lat="39.4623711146" lon="-8.1311707757">
        <ele>109.73</ele>
        <time>2018-12-20T13:23:22Z</time>
      </trkpt>
      <trkpt lat="39.4624008704" lon="-8.1312022079">
        <ele>109.73</ele>
        <time>2018-12-20T13:23:27Z</time>
      </trkpt>
      <trkpt lat="39.4624069892" lon="-8.1312257610">
        <ele>109.73</ele>
        <time>2018-12-20T13:23:34Z</time>
      </trkpt>
      <trkpt lat="39.4624927361" lon="-8.1314241607">
        <ele>109.25</ele>
        <time>2018-12-20T13:23:42Z</time>
      </trkpt>
      <trkpt lat="39.4625583664" lon="-8.1315534096">
        <ele>109.73</ele>
        <time>2018-12-20T13:23:49Z</time>
      </trkpt>
      <trkpt lat="39.4625538401" lon="-8.1315700896">
        <ele>108.29</ele>
        <time>2018-12-20T13:23:56Z</time>
      </trkpt>
      <trkpt lat="39.4626251701" lon="-8.1316816527">
        <ele>109.25</ele>
        <time>2018-12-20T13:24:02Z</time>
      </trkpt>
      <trkpt lat="39.4627037924" lon="-8.1318475306">
        <ele>109.25</ele>
        <time>2018-12-20T13:24:09Z</time>
      </trkpt>
      <trkpt lat="39.4627125934" lon="-8.1318613607">
        <ele>108.77</ele>
        <time>2018-12-20T13:24:15Z</time>
      </trkpt>
      <trkpt lat="39.4627148565" lon="-8.1318706647">
        <ele>109.25</ele>
        <time>2018-12-20T13:24:18Z</time>
      </trkpt>
      <trkpt lat="39.4627747871" lon="-8.1320151687">
        <ele>108.77</ele>
        <time>2018-12-20T13:24:24Z</time>
      </trkpt>
      <trkpt lat="39.4628249109" lon="-8.1321053579">
        <ele>108.77</ele>
        <time>2018-12-20T13:24:30Z</time>
      </trkpt>
      <trkpt lat="39.4628260005" lon="-8.1321081240">
        <ele>108.29</ele>
        <time>2018-12-20T13:24:33Z</time>
      </trkpt>
      <trkpt lat="39.4628618751" lon="-8.1321688928">
        <ele>108.77</ele>
        <time>2018-12-20T13:24:39Z</time>
      </trkpt>
      <trkpt lat="39.4629420899" lon="-8.1323350221">
        <ele>108.29</ele>
        <time>2018-12-20T13:24:45Z</time>
      </trkpt>
      <trkpt lat="39.4630206283" lon="-8.1324788556">
        <ele>108.29</ele>
        <time>2018-12-20T13:24:51Z</time>
      </trkpt>
      <trkpt lat="39.4630794693" lon="-8.1325648539">
        <ele>108.29</ele>
        <time>2018-12-20T13:24:57Z</time>
      </trkpt>
      <trkpt lat="39.4630639628" lon="-8.1325533707">
        <ele>108.29</ele>
        <time>2018-12-20T13:25:03Z</time>
      </trkpt>
      <trkpt lat="39.4631214626" lon="-8.1327097770">
        <ele>107.81</ele>
        <time>2018-12-20T13:25:12Z</time>
      </trkpt>
      <trkpt lat="39.4631988276" lon="-8.1328546163">
        <ele>107.81</ele>
        <time>2018-12-20T13:25:17Z</time>
      </trkpt>
      <trkpt lat="39.4632129930" lon="-8.1328502577">
        <ele>107.32</ele>
        <time>2018-12-20T13:25:22Z</time>
      </trkpt>
      <trkpt lat="39.4632152561" lon="-8.1328344159">
        <ele>107.32</ele>
        <time>2018-12-20T13:25:25Z</time>
      </trkpt>
      <trkpt lat="39.4632512983" lon="-8.1329039857">
        <ele>107.81</ele>
        <time>2018-12-20T13:25:30Z</time>
      </trkpt>
      <trkpt lat="39.4632553216" lon="-8.1330919918">
        <ele>106.84</ele>
        <time>2018-12-20T13:25:37Z</time>
      </trkpt>
      <trkpt lat="39.4632470235" lon="-8.1331191491">
        <ele>105.88</ele>
        <time>2018-12-20T13:25:43Z</time>
      </trkpt>
      <trkpt lat="39.4632593449" lon="-8.1333054788">
        <ele>105.40</ele>
        <time>2018-12-20T13:25:50Z</time>
      </trkpt>
      <trkpt lat="39.4632888492" lon="-8.1333799101">
        <ele>105.88</ele>
        <time>2018-12-20T13:25:54Z</time>
      </trkpt>
      <trkpt lat="39.4632897712" lon="-8.1333953328">
        <ele>105.88</ele>
        <time>2018-12-20T13:26:00Z</time>
      </trkpt>
      <trkpt lat="39.4633118995" lon="-8.1334371585">
        <ele>105.88</ele>
        <time>2018-12-20T13:26:04Z</time>
      </trkpt>
      <trkpt lat="39.4632857479" lon="-8.1336319540">
        <ele>104.92</ele>
        <time>2018-12-20T13:26:11Z</time>
      </trkpt>
      <trkpt lat="39.4632690679" lon="-8.1336995121">
        <ele>104.44</ele>
        <time>2018-12-20T13:26:16Z</time>
      </trkpt>
      <trkpt lat="39.4632781204" lon="-8.1337076426">
        <ele>103.96</ele>
        <time>2018-12-20T13:26:22Z</time>
      </trkpt>
      <trkpt lat="39.4632797968" lon="-8.1337972451">
        <ele>103.96</ele>
        <time>2018-12-20T13:26:26Z</time>
      </trkpt>
      <trkpt lat="39.4633051101" lon="-8.1339678168">
        <ele>103.96</ele>
        <time>2018-12-20T13:26:31Z</time>
      </trkpt>
      <trkpt lat="39.4633232988" lon="-8.1340028532">
        <ele>103.00</ele>
        <time>2018-12-20T13:26:37Z</time>
      </trkpt>
      <trkpt lat="39.4633095525" lon="-8.1339927111">
        <ele>102.52</ele>
        <time>2018-12-20T13:26:39Z</time>
      </trkpt>
      <trkpt lat="39.4633075409" lon="-8.1339757796">
        <ele>102.52</ele>
        <time>2018-12-20T13:26:42Z</time>
      </trkpt>
      <trkpt lat="39.4633008353" lon="-8.1339974888">
        <ele>103.00</ele>
        <time>2018-12-20T13:26:44Z</time>
      </trkpt>
      <trkpt lat="39.4632792100" lon="-8.1341022626">
        <ele>102.52</ele>
        <time>2018-12-20T13:26:48Z</time>
      </trkpt>
      <trkpt lat="39.4632202853" lon="-8.1341708265">
        <ele>102.04</ele>
        <time>2018-12-20T13:26:51Z</time>
      </trkpt>
      <trkpt lat="39.4631895237" lon="-8.1342926994">
        <ele>101.08</ele>
        <time>2018-12-20T13:26:58Z</time>
      </trkpt>
      <trkpt lat="39.4631901104" lon="-8.1342986505">
        <ele>101.08</ele>
        <time>2018-12-20T13:27:02Z</time>
      </trkpt>
      <trkpt lat="39.4631016813" lon="-8.1343926117">
        <ele>100.60</ele>
        <time>2018-12-20T13:27:07Z</time>
      </trkpt>
      <trkpt lat="39.4630138390" lon="-8.1344944518">
        <ele>100.60</ele>
        <time>2018-12-20T13:27:14Z</time>
      </trkpt>
      <trkpt lat="39.4629726000" lon="-8.1345303264">
        <ele>100.11</ele>
        <time>2018-12-20T13:27:18Z</time>
      </trkpt>
      <trkpt lat="39.4628166128" lon="-8.1345647760">
        <ele>99.63</ele>
        <time>2018-12-20T13:27:24Z</time>
      </trkpt>
      <trkpt lat="39.4627886172" lon="-8.1345798634">
        <ele>99.15</ele>
        <time>2018-12-20T13:27:25Z</time>
      </trkpt>
      <trkpt lat="39.4626926444" lon="-8.1346309930">
        <ele>99.63</ele>
        <time>2018-12-20T13:27:32Z</time>
      </trkpt>
      <trkpt lat="39.4626861066" lon="-8.1346433144">
        <ele>99.15</ele>
        <time>2018-12-20T13:27:39Z</time>
      </trkpt>
      <trkpt lat="39.4625955820" lon="-8.1347130518">
        <ele>98.67</ele>
        <time>2018-12-20T13:27:44Z</time>
      </trkpt>
      <trkpt lat="39.4625765551" lon="-8.1347485911">
        <ele>98.67</ele>
        <time>2018-12-20T13:27:50Z</time>
      </trkpt>
      <trkpt lat="39.4625742082" lon="-8.1347437296">
        <ele>98.19</ele>
        <time>2018-12-20T13:27:52Z</time>
      </trkpt>
      <trkpt lat="39.4624978490" lon="-8.1347956136">
        <ele>98.19</ele>
        <time>2018-12-20T13:27:57Z</time>
      </trkpt>
      <trkpt lat="39.4624616392" lon="-8.1348532811">
        <ele>97.23</ele>
        <time>2018-12-20T13:28:03Z</time>
      </trkpt>
      <trkpt lat="39.4624616392" lon="-8.1348558795">
        <ele>96.75</ele>
        <time>2018-12-20T13:28:05Z</time>
      </trkpt>
      <trkpt lat="39.4623590447" lon="-8.1349344179">
        <ele>96.75</ele>
        <time>2018-12-20T13:28:11Z</time>
      </trkpt>
      <trkpt lat="39.4623408560" lon="-8.1349620782">
        <ele>95.79</ele>
        <time>2018-12-20T13:28:17Z</time>
      </trkpt>
      <trkpt lat="39.4622941688" lon="-8.1350298878">
        <ele>95.79</ele>
        <time>2018-12-20T13:28:22Z</time>
      </trkpt>
      <trkpt lat="39.4621950109" lon="-8.1351966877">
        <ele>93.39</ele>
        <time>2018-12-20T13:28:29Z</time>
      </trkpt>
      <trkpt lat="39.4621887244" lon="-8.1352132838">
        <ele>93.39</ele>
        <time>2018-12-20T13:28:30Z</time>
      </trkpt>
      <trkpt lat="39.4621755648" lon="-8.1352486555">
        <ele>93.39</ele>
        <time>2018-12-20T13:28:36Z</time>
      </trkpt>
      <trkpt lat="39.4621697813" lon="-8.1352788303">
        <ele>92.90</ele>
        <time>2018-12-20T13:28:38Z</time>
      </trkpt>
      <trkpt lat="39.4621660095" lon="-8.1353831850">
        <ele>91.94</ele>
        <time>2018-12-20T13:28:44Z</time>
      </trkpt>
      <trkpt lat="39.4621520955" lon="-8.1353962608">
        <ele>92.42</ele>
        <time>2018-12-20T13:28:49Z</time>
      </trkpt>
      <trkpt lat="39.4621316437" lon="-8.1354223285">
        <ele>91.46</ele>
        <time>2018-12-20T13:28:51Z</time>
      </trkpt>
      <trkpt lat="39.4620663486" lon="-8.1355769746">
        <ele>91.46</ele>
        <time>2018-12-20T13:28:58Z</time>
      </trkpt>
      <trkpt lat="39.4620599784" lon="-8.1355824228">
        <ele>90.50</ele>
        <time>2018-12-20T13:29:03Z</time>
      </trkpt>
      <trkpt lat="39.4620583858" lon="-8.1355753820">
        <ele>90.02</ele>
        <time>2018-12-20T13:29:04Z</time>
      </trkpt>
      <trkpt lat="39.4620163925" lon="-8.1357336324">
        <ele>90.02</ele>
        <time>2018-12-20T13:29:11Z</time>
      </trkpt>
      <trkpt lat="39.4620101061" lon="-8.1357799843">
        <ele>90.02</ele>
        <time>2018-12-20T13:29:16Z</time>
      </trkpt>
      <trkpt lat="39.4620101899" lon="-8.1357843429">
        <ele>89.54</ele>
        <time>2018-12-20T13:29:18Z</time>
      </trkpt>
      <trkpt lat="39.4620038196" lon="-8.1359354686">
        <ele>89.54</ele>
        <time>2018-12-20T13:29:24Z</time>
      </trkpt>
      <trkpt lat="39.4620182365" lon="-8.1359522324">
        <ele>88.10</ele>
        <time>2018-12-20T13:29:29Z</time>
      </trkpt>
      <trkpt lat="39.4620377664" lon="-8.1360944733">
        <ele>87.14</ele>
        <time>2018-12-20T13:29:35Z</time>
      </trkpt>
      <trkpt lat="39.4620393589" lon="-8.1361912005">
        <ele>87.14</ele>
        <time>2018-12-20T13:29:41Z</time>
      </trkpt>
      <trkpt lat="39.4620301388" lon="-8.1362070423">
        <ele>86.66</ele>
        <time>2018-12-20T13:29:46Z</time>
      </trkpt>
      <trkpt lat="39.4619992934" lon="-8.1363521330">
        <ele>86.66</ele>
        <time>2018-12-20T13:29:51Z</time>
      </trkpt>
      <trkpt lat="39.4619789254" lon="-8.1364198588">
        <ele>85.69</ele>
        <time>2018-12-20T13:29:56Z</time>
      </trkpt>
      <trkpt lat="39.4619868882" lon="-8.1364269834">
        <ele>86.18</ele>
        <time>2018-12-20T13:30:00Z</time>
      </trkpt>
      <trkpt lat="39.4619188271" lon="-8.1365481857">
        <ele>85.69</ele>
        <time>2018-12-20T13:30:07Z</time>
      </trkpt>
      <trkpt lat="39.4618930109" lon="-8.1366098765">
        <ele>86.18</ele>
        <time>2018-12-20T13:30:12Z</time>
      </trkpt>
      <trkpt lat="39.4618945196" lon="-8.1366542168">
        <ele>85.69</ele>
        <time>2018-12-20T13:30:15Z</time>
      </trkpt>
      <trkpt lat="39.4618757442" lon="-8.1366921868">
        <ele>86.18</ele>
        <time>2018-12-20T13:30:20Z</time>
      </trkpt>
      <trkpt lat="39.4618538674" lon="-8.1367023289">
        <ele>86.66</ele>
        <time>2018-12-20T13:30:29Z</time>
      </trkpt>
      <trkpt lat="39.4618400373" lon="-8.1367026642">
        <ele>85.69</ele>
        <time>2018-12-20T13:30:40Z</time>
      </trkpt>
      <trkpt lat="39.4618422166" lon="-8.1367322523">
        <ele>86.66</ele>
        <time>2018-12-20T13:30:46Z</time>
      </trkpt>
      <trkpt lat="39.4618424680" lon="-8.1367532909">
        <ele>86.18</ele>
        <time>2018-12-20T13:30:48Z</time>
      </trkpt>
      <trkpt lat="39.4618232735" lon="-8.1367783528">
        <ele>85.69</ele>
        <time>2018-12-20T13:30:53Z</time>
      </trkpt>
      <trkpt lat="39.4618111197" lon="-8.1368076894">
        <ele>86.66</ele>
        <time>2018-12-20T13:31:00Z</time>
      </trkpt>
      <trkpt lat="39.4618288893" lon="-8.1368548796">
        <ele>86.66</ele>
        <time>2018-12-20T13:31:08Z</time>
      </trkpt>
      <trkpt lat="39.4618286379" lon="-8.1368665304">
        <ele>86.18</ele>
        <time>2018-12-20T13:31:09Z</time>
      </trkpt>
      <trkpt lat="39.4618148915" lon="-8.1369551271">
        <ele>86.18</ele>
        <time>2018-12-20T13:31:15Z</time>
      </trkpt>
      <trkpt lat="39.4618236087" lon="-8.1369605754">
        <ele>86.66</ele>
        <time>2018-12-20T13:31:17Z</time>
      </trkpt>
      <trkpt lat="39.4617981277" lon="-8.1369977910">
        <ele>87.14</ele>
        <time>2018-12-20T13:31:24Z</time>
      </trkpt>
      <trkpt lat="39.4617068488" lon="-8.1370852143">
        <ele>87.62</ele>
        <time>2018-12-20T13:31:31Z</time>
      </trkpt>
      <trkpt lat="39.4616816193" lon="-8.1371165626">
        <ele>87.14</ele>
        <time>2018-12-20T13:31:36Z</time>
      </trkpt>
      <trkpt lat="39.4615820423" lon="-8.1371836178">
        <ele>86.18</ele>
        <time>2018-12-20T13:31:44Z</time>
      </trkpt>
      <trkpt lat="39.4615807850" lon="-8.1371883117">
        <ele>88.58</ele>
        <time>2018-12-20T13:31:45Z</time>
      </trkpt>
      <trkpt lat="39.4615154900" lon="-8.1372246053">
        <ele>88.58</ele>
        <time>2018-12-20T13:31:51Z</time>
      </trkpt>
      <trkpt lat="39.4615039229" lon="-8.1372368429">
        <ele>89.54</ele>
        <time>2018-12-20T13:31:54Z</time>
      </trkpt>
      <trkpt lat="39.4614264742" lon="-8.1372412853">
        <ele>90.02</ele>
        <time>2018-12-20T13:31:59Z</time>
      </trkpt>
      <trkpt lat="39.4613994844" lon="-8.1372680236">
        <ele>90.50</ele>
        <time>2018-12-20T13:32:05Z</time>
      </trkpt>
      <trkpt lat="39.4613008294" lon="-8.1373146269">
        <ele>90.50</ele>
        <time>2018-12-20T13:32:11Z</time>
      </trkpt>
      <trkpt lat="39.4612889271" lon="-8.1373304687">
        <ele>90.50</ele>
        <time>2018-12-20T13:32:15Z</time>
      </trkpt>
      <trkpt lat="39.4611847401" lon="-8.1373600569">
        <ele>90.50</ele>
        <time>2018-12-20T13:32:20Z</time>
      </trkpt>
      <trkpt lat="39.4611474406" lon="-8.1373963505">
        <ele>90.50</ele>
        <time>2018-12-20T13:32:27Z</time>
      </trkpt>
      <trkpt lat="39.4610691536" lon="-8.1374714524">
        <ele>90.98</ele>
        <time>2018-12-20T13:32:32Z</time>
      </trkpt>
      <trkpt lat="39.4610654656" lon="-8.1375029683">
        <ele>90.98</ele>
        <time>2018-12-20T13:32:36Z</time>
      </trkpt>
      <trkpt lat="39.4609839935" lon="-8.1375649106">
        <ele>90.98</ele>
        <time>2018-12-20T13:32:42Z</time>
      </trkpt>
      <trkpt lat="39.4609463587" lon="-8.1375923194">
        <ele>91.46</ele>
        <time>2018-12-20T13:32:48Z</time>
      </trkpt>
      <trkpt lat="39.4608435128" lon="-8.1376561057">
        <ele>92.42</ele>
        <time>2018-12-20T13:32:55Z</time>
      </trkpt>
      <trkpt lat="39.4607848395" lon="-8.1377043854">
        <ele>92.42</ele>
        <time>2018-12-20T13:33:02Z</time>
      </trkpt>
      <trkpt lat="39.4607508928" lon="-8.1377322972">
        <ele>92.90</ele>
        <time>2018-12-20T13:33:07Z</time>
      </trkpt>
      <trkpt lat="39.4606668223" lon="-8.1378108356">
        <ele>94.35</ele>
        <time>2018-12-20T13:33:13Z</time>
      </trkpt>
      <trkpt lat="39.4606653973" lon="-8.1378165353">
        <ele>94.35</ele>
        <time>2018-12-20T13:33:15Z</time>
      </trkpt>
      <trkpt lat="39.4606151059" lon="-8.1378856022">
        <ele>94.83</ele>
        <time>2018-12-20T13:33:20Z</time>
      </trkpt>
      <trkpt lat="39.4605870266" lon="-8.1379358936">
        <ele>95.31</ele>
        <time>2018-12-20T13:33:25Z</time>
      </trkpt>
      <trkpt lat="39.4605493080" lon="-8.1379872747">
        <ele>96.27</ele>
        <time>2018-12-20T13:33:30Z</time>
      </trkpt>
      <trkpt lat="39.4605670776" lon="-8.1379884481">
        <ele>95.79</ele>
        <time>2018-12-20T13:33:33Z</time>
      </trkpt>
      <trkpt lat="39.4605897088" lon="-8.1380063854">
        <ele>96.75</ele>
        <time>2018-12-20T13:33:39Z</time>
      </trkpt>
      <trkpt lat="39.4605444465" lon="-8.1380876061">
        <ele>97.71</ele>
        <time>2018-12-20T13:33:44Z</time>
      </trkpt>
      <trkpt lat="39.4605412614" lon="-8.1380939763">
        <ele>97.23</ele>
        <time>2018-12-20T13:33:46Z</time>
      </trkpt>
      <trkpt lat="39.4605048839" lon="-8.1381401606">
        <ele>98.19</ele>
        <time>2018-12-20T13:33:51Z</time>
      </trkpt>
      <trkpt lat="39.4604962505" lon="-8.1381858420">
        <ele>98.67</ele>
        <time>2018-12-20T13:33:57Z</time>
      </trkpt>
      <trkpt lat="39.4604731165" lon="-8.1382638775">
        <ele>98.67</ele>
        <time>2018-12-20T13:34:01Z</time>
      </trkpt>
      <trkpt lat="39.4604607951" lon="-8.1383109838">
        <ele>99.63</ele>
        <time>2018-12-20T13:34:06Z</time>
      </trkpt>
      <trkpt lat="39.4604643993" lon="-8.1383480318">
        <ele>100.11</ele>
        <time>2018-12-20T13:34:12Z</time>
      </trkpt>
      <trkpt lat="39.4604576938" lon="-8.1384211220">
        <ele>100.60</ele>
        <time>2018-12-20T13:34:17Z</time>
      </trkpt>
      <trkpt lat="39.4604478031" lon="-8.1384906918">
        <ele>101.08</ele>
        <time>2018-12-20T13:34:23Z</time>
      </trkpt>
      <trkpt lat="39.4604514074" lon="-8.1385405641">
        <ele>101.56</ele>
        <time>2018-12-20T13:34:28Z</time>
      </trkpt>
      <trkpt lat="39.4604575261" lon="-8.1386102177">
        <ele>102.52</ele>
        <time>2018-12-20T13:34:33Z</time>
      </trkpt>
      <trkpt lat="39.4604576938" lon="-8.1386146601">
        <ele>102.04</ele>
        <time>2018-12-20T13:34:34Z</time>
      </trkpt>
      <trkpt lat="39.4604570232" lon="-8.1386929471">
        <ele>102.52</ele>
        <time>2018-12-20T13:34:39Z</time>
      </trkpt>
      <trkpt lat="39.4604530837" lon="-8.1386983115">
        <ele>103.00</ele>
        <time>2018-12-20T13:34:40Z</time>
      </trkpt>
      <trkpt lat="39.4604388345" lon="-8.1387859024">
        <ele>103.96</ele>
        <time>2018-12-20T13:34:46Z</time>
      </trkpt>
      <trkpt lat="39.4604409300" lon="-8.1388882454">
        <ele>103.96</ele>
        <time>2018-12-20T13:34:51Z</time>
      </trkpt>
      <trkpt lat="39.4604405109" lon="-8.1389321666">
        <ele>103.96</ele>
        <time>2018-12-20T13:34:56Z</time>
      </trkpt>
      <trkpt lat="39.4604419358" lon="-8.1389416382">
        <ele>103.48</ele>
        <time>2018-12-20T13:34:57Z</time>
      </trkpt>
      <trkpt lat="39.4604763016" lon="-8.1390436459">
        <ele>104.44</ele>
        <time>2018-12-20T13:35:01Z</time>
      </trkpt>
      <trkpt lat="39.4605061412" lon="-8.1391035765">
        <ele>104.44</ele>
        <time>2018-12-20T13:35:06Z</time>
      </trkpt>
      <trkpt lat="39.4605555106" lon="-8.1392307300">
        <ele>104.92</ele>
        <time>2018-12-20T13:35:12Z</time>
      </trkpt>
      <trkpt lat="39.4605825841" lon="-8.1392587256">
        <ele>109.25</ele>
        <time>2018-12-20T13:35:17Z</time>
      </trkpt>
      <trkpt lat="39.4605877809" lon="-8.1392672751">
        <ele>103.48</ele>
        <time>2018-12-20T13:35:18Z</time>
      </trkpt>
      <trkpt lat="39.4605940674" lon="-8.1392884813">
        <ele>106.84</ele>
        <time>2018-12-20T13:35:20Z</time>
      </trkpt>
      <trkpt lat="39.4605997670" lon="-8.1392982882">
        <ele>106.36</ele>
        <time>2018-12-20T13:35:21Z</time>
      </trkpt>
      <trkpt lat="39.4606551714" lon="-8.1393732224">
        <ele>106.84</ele>
        <time>2018-12-20T13:35:30Z</time>
      </trkpt>
      <trkpt lat="39.4606969971" lon="-8.1394189037">
        <ele>106.36</ele>
        <time>2018-12-20T13:35:38Z</time>
      </trkpt>
      <trkpt lat="39.4607383199" lon="-8.1394947600">
        <ele>105.88</ele>
        <time>2018-12-20T13:35:43Z</time>
      </trkpt>
      <trkpt lat="39.4607845042" lon="-8.1395686883">
        <ele>107.32</ele>
        <time>2018-12-20T13:35:50Z</time>
      </trkpt>
      <trkpt lat="39.4607893657" lon="-8.1395654194">
        <ele>106.84</ele>
        <time>2018-12-20T13:35:52Z</time>
      </trkpt>
      <trkpt lat="39.4608482905" lon="-8.1396930758">
        <ele>107.81</ele>
        <time>2018-12-20T13:35:58Z</time>
      </trkpt>
      <trkpt lat="39.4608693291" lon="-8.1397148687">
        <ele>107.81</ele>
        <time>2018-12-20T13:36:04Z</time>
      </trkpt>
      <trkpt lat="39.4609298464" lon="-8.1398074888">
        <ele>107.81</ele>
        <time>2018-12-20T13:36:10Z</time>
      </trkpt>
      <trkpt lat="39.4610136654" lon="-8.1399188843">
        <ele>107.81</ele>
        <time>2018-12-20T13:36:16Z</time>
      </trkpt>
      <trkpt lat="39.4610564131" lon="-8.1399696786">
        <ele>107.81</ele>
        <time>2018-12-20T13:36:22Z</time>
      </trkpt>
      <trkpt lat="39.4611313473" lon="-8.1400597841">
        <ele>107.81</ele>
        <time>2018-12-20T13:36:27Z</time>
      </trkpt>
      <trkpt lat="39.4611476921" lon="-8.1400788948">
        <ele>107.81</ele>
        <time>2018-12-20T13:36:32Z</time>
      </trkpt>
      <trkpt lat="39.4611463510" lon="-8.1400777213">
        <ele>107.81</ele>
        <time>2018-12-20T13:36:35Z</time>
      </trkpt>
      <trkpt lat="39.4611876737" lon="-8.1401477102">
        <ele>108.29</ele>
        <time>2018-12-20T13:36:40Z</time>
      </trkpt>
      <trkpt lat="39.4612472691" lon="-8.1402407493">
        <ele>108.77</ele>
        <time>2018-12-20T13:36:45Z</time>
      </trkpt>
      <trkpt lat="39.4612444192" lon="-8.1402523164">
        <ele>108.29</ele>
        <time>2018-12-20T13:36:51Z</time>
      </trkpt>
      <trkpt lat="39.4613227900" lon="-8.1403532345">
        <ele>107.81</ele>
        <time>2018-12-20T13:36:57Z</time>
      </trkpt>
      <trkpt lat="39.4613743387" lon="-8.1404230557">
        <ele>108.29</ele>
        <time>2018-12-20T13:37:02Z</time>
      </trkpt>
      <trkpt lat="39.4613787811" lon="-8.1404236425">
        <ele>108.77</ele>
        <time>2018-12-20T13:37:08Z</time>
      </trkpt>
      <trkpt lat="39.4614386279" lon="-8.1405227166">
        <ele>108.29</ele>
        <time>2018-12-20T13:37:13Z</time>
      </trkpt>
      <trkpt lat="39.4614972174" lon="-8.1406781171">
        <ele>108.77</ele>
        <time>2018-12-20T13:37:20Z</time>
      </trkpt>
      <trkpt lat="39.4614819624" lon="-8.1406835653">
        <ele>108.29</ele>
        <time>2018-12-20T13:37:25Z</time>
      </trkpt>
      <trkpt lat="39.4614264742" lon="-8.1408628542">
        <ele>107.81</ele>
        <time>2018-12-20T13:37:32Z</time>
      </trkpt>
      <trkpt lat="39.4614016637" lon="-8.1409636047">
        <ele>107.81</ele>
        <time>2018-12-20T13:37:37Z</time>
      </trkpt>
      <trkpt lat="39.4614035077" lon="-8.1409504451">
        <ele>108.29</ele>
        <time>2018-12-20T13:37:43Z</time>
      </trkpt>
      <trkpt lat="39.4613998197" lon="-8.1409887504">
        <ele>107.81</ele>
        <time>2018-12-20T13:37:48Z</time>
      </trkpt>
      <trkpt lat="39.4614972174" lon="-8.1412075181">
        <ele>107.81</ele>
        <time>2018-12-20T13:37:56Z</time>
      </trkpt>
      <trkpt lat="39.4615721516" lon="-8.1413018145">
        <ele>108.29</ele>
        <time>2018-12-20T13:38:02Z</time>
      </trkpt>
      <trkpt lat="39.4615646917" lon="-8.1413055863">
        <ele>107.32</ele>
        <time>2018-12-20T13:38:07Z</time>
      </trkpt>
      <trkpt lat="39.4616402127" lon="-8.1414317340">
        <ele>107.81</ele>
        <time>2018-12-20T13:38:13Z</time>
      </trkpt>
      <trkpt lat="39.4617106207" lon="-8.1415128708">
        <ele>107.32</ele>
        <time>2018-12-20T13:38:18Z</time>
      </trkpt>
      <trkpt lat="39.4617091957" lon="-8.1415021420">
        <ele>107.81</ele>
        <time>2018-12-20T13:38:24Z</time>
      </trkpt>
      <trkpt lat="39.4617784303" lon="-8.1416290440">
        <ele>107.32</ele>
        <time>2018-12-20T13:38:30Z</time>
      </trkpt>
      <trkpt lat="39.4618075155" lon="-8.1416965183">
        <ele>107.32</ele>
        <time>2018-12-20T13:38:36Z</time>
      </trkpt>
      <trkpt lat="39.4618484192" lon="-8.1417729612">
        <ele>106.36</ele>
        <time>2018-12-20T13:38:42Z</time>
      </trkpt>
      <trkpt lat="39.4619117863" lon="-8.1418557744">
        <ele>106.84</ele>
        <time>2018-12-20T13:38:48Z</time>
      </trkpt>
      <trkpt lat="39.4619160611" lon="-8.1418549363">
        <ele>106.84</ele>
        <time>2018-12-20T13:38:53Z</time>
      </trkpt>
      <trkpt lat="39.4619952701" lon="-8.1420048885">
        <ele>106.36</ele>
        <time>2018-12-20T13:38:59Z</time>
      </trkpt>
      <trkpt lat="39.4620334078" lon="-8.1420514919">
        <ele>106.36</ele>
        <time>2018-12-20T13:39:04Z</time>
      </trkpt>
      <trkpt lat="39.4620267022" lon="-8.1420336384">
        <ele>105.88</ele>
        <time>2018-12-20T13:39:08Z</time>
      </trkpt>
      <trkpt lat="39.4620891474" lon="-8.1421673298">
        <ele>106.36</ele>
        <time>2018-12-20T13:39:14Z</time>
      </trkpt>
      <trkpt lat="39.4621354155" lon="-8.1422329601">
        <ele>106.36</ele>
        <time>2018-12-20T13:39:16Z</time>
      </trkpt>
      <trkpt lat="39.4621905684" lon="-8.1422705110">
        <ele>105.88</ele>
        <time>2018-12-20T13:39:23Z</time>
      </trkpt>
      <trkpt lat="39.4621950947" lon="-8.1423242390">
        <ele>106.36</ele>
        <time>2018-12-20T13:39:28Z</time>
      </trkpt>
      <trkpt lat="39.4622556958" lon="-8.1424115784">
        <ele>105.40</ele>
        <time>2018-12-20T13:39:32Z</time>
      </trkpt>
      <trkpt lat="39.4622835238" lon="-8.1424310245">
        <ele>104.92</ele>
        <time>2018-12-20T13:39:37Z</time>
      </trkpt>
      <trkpt lat="39.4622867927" lon="-8.1424264982">
        <ele>104.44</ele>
        <time>2018-12-20T13:39:38Z</time>
      </trkpt>
      <trkpt lat="39.4623395149" lon="-8.1425588485">
        <ele>104.92</ele>
        <time>2018-12-20T13:39:44Z</time>
      </trkpt>
      <trkpt lat="39.4623576198" lon="-8.1425953098">
        <ele>104.44</ele>
        <time>2018-12-20T13:39:49Z</time>
      </trkpt>
      <trkpt lat="39.4623494055" lon="-8.1425803900">
        <ele>104.92</ele>
        <time>2018-12-20T13:39:52Z</time>
      </trkpt>
      <trkpt lat="39.4623535126" lon="-8.1426028535">
        <ele>104.44</ele>
        <time>2018-12-20T13:39:54Z</time>
      </trkpt>
      <trkpt lat="39.4623758085" lon="-8.1426536478">
        <ele>103.96</ele>
        <time>2018-12-20T13:39:57Z</time>
      </trkpt>
      <trkpt lat="39.4623940811" lon="-8.1426799670">
        <ele>104.44</ele>
        <time>2018-12-20T13:39:59Z</time>
      </trkpt>
      <trkpt lat="39.4624373317" lon="-8.1427317671">
        <ele>104.44</ele>
        <time>2018-12-20T13:40:05Z</time>
      </trkpt>
      <trkpt lat="39.4624292850" lon="-8.1427148357">
        <ele>104.92</ele>
        <time>2018-12-20T13:40:07Z</time>
      </trkpt>
      <trkpt lat="39.4624152873" lon="-8.1427071244">
        <ele>104.44</ele>
        <time>2018-12-20T13:40:09Z</time>
      </trkpt>
      <trkpt lat="39.4624964241" lon="-8.1428620219">
        <ele>103.96</ele>
        <time>2018-12-20T13:40:16Z</time>
      </trkpt>
      <trkpt lat="39.4625530019" lon="-8.1429425720">
        <ele>104.44</ele>
        <time>2018-12-20T13:40:22Z</time>
      </trkpt>
      <trkpt lat="39.4625650719" lon="-8.1429482717">
        <ele>103.96</ele>
        <time>2018-12-20T13:40:28Z</time>
      </trkpt>
      <trkpt lat="39.4626110047" lon="-8.1430859026">
        <ele>103.96</ele>
        <time>2018-12-20T13:40:33Z</time>
      </trkpt>
      <trkpt lat="39.4626293611" lon="-8.1432005670">
        <ele>103.96</ele>
        <time>2018-12-20T13:40:38Z</time>
      </trkpt>
      <trkpt lat="39.4626260921" lon="-8.1432021596">
        <ele>104.44</ele>
        <time>2018-12-20T13:40:42Z</time>
      </trkpt>
      <trkpt lat="39.4625419378" lon="-8.1432930194">
        <ele>104.92</ele>
        <time>2018-12-20T13:40:48Z</time>
      </trkpt>
      <trkpt lat="39.4625288621" lon="-8.1433011498">
        <ele>104.92</ele>
        <time>2018-12-20T13:40:53Z</time>
      </trkpt>
      <trkpt lat="39.4625242520" lon="-8.1433078554">
        <ele>104.92</ele>
        <time>2018-12-20T13:40:54Z</time>
      </trkpt>
      <trkpt lat="39.4624585379" lon="-8.1434366014">
        <ele>105.40</ele>
        <time>2018-12-20T13:41:00Z</time>
      </trkpt>
      <trkpt lat="39.4624421932" lon="-8.1434727274">
        <ele>105.88</ele>
        <time>2018-12-20T13:41:06Z</time>
      </trkpt>
      <trkpt lat="39.4624303747" lon="-8.1434859708">
        <ele>105.88</ele>
        <time>2018-12-20T13:41:10Z</time>
      </trkpt>
      <trkpt lat="39.4623201527" lon="-8.1436318159">
        <ele>106.36</ele>
        <time>2018-12-20T13:41:17Z</time>
      </trkpt>
      <trkpt lat="39.4622757286" lon="-8.1436862983">
        <ele>105.88</ele>
        <time>2018-12-20T13:41:23Z</time>
      </trkpt>
      <trkpt lat="39.4622532651" lon="-8.1437073369">
        <ele>106.36</ele>
        <time>2018-12-20T13:41:29Z</time>
      </trkpt>
      <trkpt lat="39.4622084219" lon="-8.1437444687">
        <ele>103.48</ele>
        <time>2018-12-20T13:41:32Z</time>
      </trkpt>
      <trkpt lat="39.4621912390" lon="-8.1437574606">
        <ele>107.81</ele>
        <time>2018-12-20T13:41:33Z</time>
      </trkpt>
      <trkpt lat="39.4621202443" lon="-8.1438167207">
        <ele>105.88</ele>
        <time>2018-12-20T13:41:37Z</time>
      </trkpt>
      <trkpt lat="39.4620739762" lon="-8.1438650843">
        <ele>105.88</ele>
        <time>2018-12-20T13:41:45Z</time>
      </trkpt>
      <trkpt lat="39.4619440567" lon="-8.1439535972">
        <ele>106.36</ele>
        <time>2018-12-20T13:41:52Z</time>
      </trkpt>
      <trkpt lat="39.4619078469" lon="-8.1439772341">
        <ele>106.36</ele>
        <time>2018-12-20T13:41:59Z</time>
      </trkpt>
      <trkpt lat="39.4618341699" lon="-8.1440268550">
        <ele>106.36</ele>
        <time>2018-12-20T13:42:06Z</time>
      </trkpt>
      <trkpt lat="39.4617614150" lon="-8.1441040523">
        <ele>106.84</ele>
        <time>2018-12-20T13:42:13Z</time>
      </trkpt>
      <trkpt lat="39.4617152307" lon="-8.1441796571">
        <ele>106.36</ele>
        <time>2018-12-20T13:42:21Z</time>
      </trkpt>
      <trkpt lat="39.4616979640" lon="-8.1442353968">
        <ele>105.40</ele>
        <time>2018-12-20T13:42:29Z</time>
      </trkpt>
      <trkpt lat="39.4616874028" lon="-8.1442405097">
        <ele>106.84</ele>
        <time>2018-12-20T13:42:40Z</time>
      </trkpt>
      <trkpt lat="39.4616891630" lon="-8.1442582794">
        <ele>106.84</ele>
        <time>2018-12-20T13:42:50Z</time>
      </trkpt>
      <trkpt lat="39.4617100339" lon="-8.1442850176">
        <ele>105.88</ele>
        <time>2018-12-20T13:42:58Z</time>
      </trkpt>
      <trkpt lat="39.4617476687" lon="-8.1443611253">
        <ele>106.36</ele>
        <time>2018-12-20T13:43:06Z</time>
      </trkpt>
      <trkpt lat="39.4617474172" lon="-8.1444115844">
        <ele>106.36</ele>
        <time>2018-12-20T13:43:10Z</time>
      </trkpt>
      <trkpt lat="39.4617655221" lon="-8.1444507279">
        <ele>105.40</ele>
        <time>2018-12-20T13:43:17Z</time>
      </trkpt>
      <trkpt lat="39.4617687073" lon="-8.1444607861">
        <ele>105.40</ele>
        <time>2018-12-20T13:43:18Z</time>
      </trkpt>
      <trkpt lat="39.4618641771" lon="-8.1446062960">
        <ele>105.88</ele>
        <time>2018-12-20T13:43:25Z</time>
      </trkpt>
      <trkpt lat="39.4618783426" lon="-8.1446325313">
        <ele>105.40</ele>
        <time>2018-12-20T13:43:30Z</time>
      </trkpt>
      <trkpt lat="39.4618706312" lon="-8.1446311064">
        <ele>105.40</ele>
        <time>2018-12-20T13:43:33Z</time>
      </trkpt>
      <trkpt lat="39.4619168155" lon="-8.1447294261">
        <ele>105.40</ele>
        <time>2018-12-20T13:43:39Z</time>
      </trkpt>
      <trkpt lat="39.4619428832" lon="-8.1447940506">
        <ele>105.40</ele>
        <time>2018-12-20T13:43:46Z</time>
      </trkpt>
      <trkpt lat="39.4619795121" lon="-8.1448491197">
        <ele>105.40</ele>
        <time>2018-12-20T13:43:52Z</time>
      </trkpt>
      <trkpt lat="39.4620705396" lon="-8.1449749321">
        <ele>105.88</ele>
        <time>2018-12-20T13:43:58Z</time>
      </trkpt>
      <trkpt lat="39.4621849526" lon="-8.1451258902">
        <ele>105.88</ele>
        <time>2018-12-20T13:44:10Z</time>
      </trkpt>
      <trkpt lat="39.4622406084" lon="-8.1451995671">
        <ele>104.92</ele>
        <time>2018-12-20T13:44:16Z</time>
      </trkpt>
      <trkpt lat="39.4622487389" lon="-8.1452148221">
        <ele>105.40</ele>
        <time>2018-12-20T13:44:23Z</time>
      </trkpt>
      <trkpt lat="39.4623425324" lon="-8.1453537103">
        <ele>104.92</ele>
        <time>2018-12-20T13:44:29Z</time>
      </trkpt>
      <trkpt lat="39.4623870403" lon="-8.1454336736">
        <ele>104.44</ele>
        <time>2018-12-20T13:44:37Z</time>
      </trkpt>
      <trkpt lat="39.4624231663" lon="-8.1455844641">
        <ele>103.96</ele>
        <time>2018-12-20T13:44:47Z</time>
      </trkpt>
      <trkpt lat="39.4624699373" lon="-8.1456847955">
        <ele>103.48</ele>
        <time>2018-12-20T13:44:53Z</time>
      </trkpt>
      <trkpt lat="39.4624633156" lon="-8.1456973683">
        <ele>103.48</ele>
        <time>2018-12-20T13:44:56Z</time>
      </trkpt>
      <trkpt lat="39.4624364097" lon="-8.1458386034">
        <ele>103.48</ele>
        <time>2018-12-20T13:45:04Z</time>
      </trkpt>
      <trkpt lat="39.4623963442" lon="-8.1460180599">
        <ele>103.48</ele>
        <time>2018-12-20T13:45:10Z</time>
      </trkpt>
      <trkpt lat="39.4623908959" lon="-8.1460383441">
        <ele>103.00</ele>
        <time>2018-12-20T13:45:11Z</time>
      </trkpt>
      <trkpt lat="39.4623906445" lon="-8.1460757274">
        <ele>103.48</ele>
        <time>2018-12-20T13:45:13Z</time>
      </trkpt>
      <trkpt lat="39.4623644929" lon="-8.1461192295">
        <ele>104.44</ele>
        <time>2018-12-20T13:45:20Z</time>
      </trkpt>
      <trkpt lat="39.4623613916" lon="-8.1461255997">
        <ele>104.44</ele>
        <time>2018-12-20T13:45:23Z</time>
      </trkpt>
      <trkpt lat="39.4624252617" lon="-8.1462774798">
        <ele>103.96</ele>
        <time>2018-12-20T13:45:30Z</time>
      </trkpt>
      <trkpt lat="39.4624953344" lon="-8.1463855226">
        <ele>104.92</ele>
        <time>2018-12-20T13:45:34Z</time>
      </trkpt>
      <trkpt lat="39.4624973461" lon="-8.1464344729">
        <ele>104.44</ele>
        <time>2018-12-20T13:45:40Z</time>
      </trkpt>
      <trkpt lat="39.4624566101" lon="-8.1464304496">
        <ele>104.44</ele>
        <time>2018-12-20T13:45:45Z</time>
      </trkpt>
      <trkpt lat="39.4624542631" lon="-8.1464431901">
        <ele>104.44</ele>
        <time>2018-12-20T13:45:47Z</time>
      </trkpt>
      <trkpt lat="39.4623520877" lon="-8.1465612911">
        <ele>103.00</ele>
        <time>2018-12-20T13:45:53Z</time>
      </trkpt>
      <trkpt lat="39.4622842781" lon="-8.1466935575">
        <ele>103.96</ele>
        <time>2018-12-20T13:45:59Z</time>
      </trkpt>
      <trkpt lat="39.4622579589" lon="-8.1466987543">
        <ele>103.48</ele>
        <time>2018-12-20T13:46:06Z</time>
      </trkpt>
      <trkpt lat="39.4622473978" lon="-8.1467376463">
        <ele>103.00</ele>
        <time>2018-12-20T13:46:10Z</time>
      </trkpt>
      <trkpt lat="39.4622427039" lon="-8.1467731856">
        <ele>103.00</ele>
        <time>2018-12-20T13:46:12Z</time>
      </trkpt>
      <trkpt lat="39.4621340744" lon="-8.1468993332">
        <ele>103.00</ele>
        <time>2018-12-20T13:46:18Z</time>
      </trkpt>
      <trkpt lat="39.4621261116" lon="-8.1469373032">
        <ele>102.04</ele>
        <time>2018-12-20T13:46:24Z</time>
      </trkpt>
      <trkpt lat="39.4621220883" lon="-8.1469553243">
        <ele>99.15</ele>
        <time>2018-12-20T13:46:27Z</time>
      </trkpt>
      <trkpt lat="39.4620987028" lon="-8.1469632033">
        <ele>121.26</ele>
        <time>2018-12-20T14:35:09Z</time>
      </trkpt>
      <trkpt lat="39.4621038996" lon="-8.1469565816">
        <ele>120.78</ele>
        <time>2018-12-20T14:35:10Z</time>
      </trkpt>
      <trkpt lat="39.4621365052" lon="-8.1469772849">
        <ele>113.09</ele>
        <time>2018-12-20T14:35:15Z</time>
      </trkpt>
      <trkpt lat="39.4621038996" lon="-8.1469565816">
        <ele>119.34</ele>
        <time>2018-12-20T14:37:00Z</time>
      </trkpt>
      <trkpt lat="39.4620345812" lon="-8.1470117345">
        <ele>118.86</ele>
        <time>2018-12-20T14:37:01Z</time>
      </trkpt>
      <trkpt lat="39.4621051569" lon="-8.1470182724">
        <ele>121.26</ele>
        <time>2018-12-20T14:37:08Z</time>
      </trkpt>
      <trkpt lat="39.4621038157" lon="-8.1470174342">
        <ele>119.82</ele>
        <time>2018-12-20T14:37:14Z</time>
      </trkpt>
      <trkpt lat="39.4621131197" lon="-8.1470208708">
        <ele>119.82</ele>
        <time>2018-12-20T14:37:22Z</time>
      </trkpt>
      <trkpt lat="39.4621974416" lon="-8.1470197812">
        <ele>120.78</ele>
        <time>2018-12-20T14:37:31Z</time>
      </trkpt>
      <trkpt lat="39.4622727111" lon="-8.1470773648">
        <ele>119.82</ele>
        <time>2018-12-20T14:37:40Z</time>
      </trkpt>
      <trkpt lat="39.4622855354" lon="-8.1470885128">
        <ele>118.86</ele>
        <time>2018-12-20T14:37:42Z</time>
      </trkpt>
      <trkpt lat="39.4623013772" lon="-8.1471200287">
        <ele>119.34</ele>
        <time>2018-12-20T14:37:48Z</time>
      </trkpt>
      <trkpt lat="39.4622955099" lon="-8.1471156701">
        <ele>119.34</ele>
        <time>2018-12-20T14:37:49Z</time>
      </trkpt>
      <trkpt lat="39.4621919934" lon="-8.1470378023">
        <ele>119.82</ele>
        <time>2018-12-20T14:37:56Z</time>
      </trkpt>
      <trkpt lat="39.4621367566" lon="-8.1470017601">
        <ele>120.30</ele>
        <time>2018-12-20T14:38:03Z</time>
      </trkpt>
      <trkpt lat="39.4621404447" lon="-8.1470078789">
        <ele>120.30</ele>
        <time>2018-12-20T14:38:08Z</time>
      </trkpt>
      <trkpt lat="39.4621942565" lon="-8.1470249780">
        <ele>119.34</ele>
        <time>2018-12-20T14:38:15Z</time>
      </trkpt>
      <trkpt lat="39.4622882176" lon="-8.1470835675">
        <ele>118.38</ele>
        <time>2018-12-20T14:38:22Z</time>
      </trkpt>
      <trkpt lat="39.4624234177" lon="-8.1471802108">
        <ele>118.38</ele>
        <time>2018-12-20T14:38:29Z</time>
      </trkpt>
      <trkpt lat="39.4625421055" lon="-8.1472631078">
        <ele>118.38</ele>
        <time>2018-12-20T14:38:37Z</time>
      </trkpt>
      <trkpt lat="39.4625966717" lon="-8.1472981442">
        <ele>118.86</ele>
        <time>2018-12-20T14:38:44Z</time>
      </trkpt>
      <trkpt lat="39.4625918102" lon="-8.1473227870">
        <ele>117.42</ele>
        <time>2018-12-20T14:38:52Z</time>
      </trkpt>
      <trkpt lat="39.4626224041" lon="-8.1473200209">
        <ele>117.42</ele>
        <time>2018-12-20T14:38:59Z</time>
      </trkpt>
      <trkpt lat="39.4626889564" lon="-8.1473320071">
        <ele>116.94</ele>
        <time>2018-12-20T14:39:04Z</time>
      </trkpt>
      <trkpt lat="39.4627473783" lon="-8.1473407242">
        <ele>116.94</ele>
        <time>2018-12-20T14:39:11Z</time>
      </trkpt>
      <trkpt lat="39.4627933111" lon="-8.1473488547">
        <ele>116.94</ele>
        <time>2018-12-20T14:39:16Z</time>
      </trkpt>
      <trkpt lat="39.4628481288" lon="-8.1473642774">
        <ele>117.42</ele>
        <time>2018-12-20T14:39:19Z</time>
      </trkpt>
      <trkpt lat="39.4629713427" lon="-8.1474756729">
        <ele>117.42</ele>
        <time>2018-12-20T14:39:24Z</time>
      </trkpt>
      <trkpt lat="39.4631162658" lon="-8.1475373637">
        <ele>117.90</ele>
        <time>2018-12-20T14:39:32Z</time>
      </trkpt>
      <trkpt lat="39.4631269109" lon="-8.1475836318">
        <ele>118.38</ele>
        <time>2018-12-20T14:39:38Z</time>
      </trkpt>
      <trkpt lat="39.4631448481" lon="-8.1477055047">
        <ele>118.38</ele>
        <time>2018-12-20T14:39:43Z</time>
      </trkpt>
      <trkpt lat="39.4631393161" lon="-8.1478422135">
        <ele>119.82</ele>
        <time>2018-12-20T14:39:49Z</time>
      </trkpt>
      <trkpt lat="39.4631256536" lon="-8.1479081791">
        <ele>120.30</ele>
        <time>2018-12-20T14:39:57Z</time>
      </trkpt>
      <trkpt lat="39.4631145056" lon="-8.1479392760">
        <ele>120.30</ele>
        <time>2018-12-20T14:39:59Z</time>
      </trkpt>
      <trkpt lat="39.4630883541" lon="-8.1481152959">
        <ele>120.30</ele>
        <time>2018-12-20T14:40:05Z</time>
      </trkpt>
      <trkpt lat="39.4630661421" lon="-8.1483418588">
        <ele>120.78</ele>
        <time>2018-12-20T14:40:12Z</time>
      </trkpt>
      <trkpt lat="39.4630554132" lon="-8.1485376600">
        <ele>120.78</ele>
        <time>2018-12-20T14:40:19Z</time>
      </trkpt>
      <trkpt lat="39.4630426727" lon="-8.1485836767">
        <ele>121.74</ele>
        <time>2018-12-20T14:40:26Z</time>
      </trkpt>
      <trkpt lat="39.4630067144" lon="-8.1485676672">
        <ele>120.78</ele>
        <time>2018-12-20T14:40:34Z</time>
      </trkpt>
      <trkpt lat="39.4629777130" lon="-8.1486535817">
        <ele>121.26</ele>
        <time>2018-12-20T14:40:40Z</time>
      </trkpt>
      <trkpt lat="39.4629654754" lon="-8.1486773025">
        <ele>121.26</ele>
        <time>2018-12-20T14:40:41Z</time>
      </trkpt>
      <trkpt lat="39.4629544113" lon="-8.1488335412">
        <ele>121.26</ele>
        <time>2018-12-20T14:40:46Z</time>
      </trkpt>
      <trkpt lat="39.4629229791" lon="-8.1489995867">
        <ele>121.26</ele>
        <time>2018-12-20T14:40:53Z</time>
      </trkpt>
      <trkpt lat="39.4629320316" lon="-8.1490330305">
        <ele>120.78</ele>
        <time>2018-12-20T14:40:59Z</time>
      </trkpt>
      <trkpt lat="39.4629715942" lon="-8.1490579247">
        <ele>121.26</ele>
        <time>2018-12-20T14:41:08Z</time>
      </trkpt>
      <trkpt lat="39.4631072134" lon="-8.1491308473">
        <ele>120.78</ele>
        <time>2018-12-20T14:41:15Z</time>
      </trkpt>
      <trkpt lat="39.4631656352" lon="-8.1491351221">
        <ele>121.26</ele>
        <time>2018-12-20T14:41:21Z</time>
      </trkpt>
      <trkpt lat="39.4631826505" lon="-8.1490949728">
        <ele>121.26</ele>
        <time>2018-12-20T14:41:24Z</time>
      </trkpt>
      <trkpt lat="39.4633145817" lon="-8.1491271593">
        <ele>121.26</ele>
        <time>2018-12-20T14:41:32Z</time>
      </trkpt>
      <trkpt lat="39.4633377995" lon="-8.1491344515">
        <ele>121.74</ele>
        <time>2018-12-20T14:41:36Z</time>
      </trkpt>
      <trkpt lat="39.4633586705" lon="-8.1491866708">
        <ele>121.26</ele>
        <time>2018-12-20T14:41:42Z</time>
      </trkpt>
      <trkpt lat="39.4633417390" lon="-8.1491866708">
        <ele>121.74</ele>
        <time>2018-12-20T14:41:51Z</time>
      </trkpt>
      <trkpt lat="39.4633538090" lon="-8.1492173485">
        <ele>122.22</ele>
        <time>2018-12-20T14:42:01Z</time>
      </trkpt>
      <trkpt lat="39.4633582514" lon="-8.1492108945">
        <ele>121.26</ele>
        <time>2018-12-20T14:42:09Z</time>
      </trkpt>
      <trkpt lat="39.4633509591" lon="-8.1492219586">
        <ele>122.22</ele>
        <time>2018-12-20T14:42:16Z</time>
      </trkpt>
      <trkpt lat="39.4633424096" lon="-8.1492152531">
        <ele>121.74</ele>
        <time>2018-12-20T14:42:19Z</time>
      </trkpt>
      <trkpt lat="39.4633476064" lon="-8.1492058653">
        <ele>121.74</ele>
        <time>2018-12-20T14:42:23Z</time>
      </trkpt>
      <trkpt lat="39.4633544795" lon="-8.1491566636">
        <ele>121.74</ele>
        <time>2018-12-20T14:42:29Z</time>
      </trkpt>
      <trkpt lat="39.4633581676" lon="-8.1491779536">
        <ele>122.22</ele>
        <time>2018-12-20T14:42:32Z</time>
      </trkpt>
      <trkpt lat="39.4633625261" lon="-8.1491740979">
        <ele>121.74</ele>
        <time>2018-12-20T14:42:35Z</time>
      </trkpt>
      <trkpt lat="39.4633782003" lon="-8.1492199469">
        <ele>122.22</ele>
        <time>2018-12-20T14:42:40Z</time>
      </trkpt>
      <trkpt lat="39.4634263124" lon="-8.1492706574">
        <ele>121.74</ele>
        <time>2018-12-20T14:42:46Z</time>
      </trkpt>
      <trkpt lat="39.4634268153" lon="-8.1492753513">
        <ele>122.22</ele>
        <time>2018-12-20T14:42:47Z</time>
      </trkpt>
      <trkpt lat="39.4634771068" lon="-8.1493355334">
        <ele>122.22</ele>
        <time>2018-12-20T14:42:54Z</time>
      </trkpt>
      <trkpt lat="39.4634945411" lon="-8.1493794546">
        <ele>122.22</ele>
        <time>2018-12-20T14:43:01Z</time>
      </trkpt>
      <trkpt lat="39.4635403901" lon="-8.1494731642">
        <ele>121.74</ele>
        <time>2018-12-20T14:43:08Z</time>
      </trkpt>
      <trkpt lat="39.4635393843" lon="-8.1495056022">
        <ele>122.22</ele>
        <time>2018-12-20T14:43:14Z</time>
      </trkpt>
      <trkpt lat="39.4635341037" lon="-8.1495034229">
        <ele>123.19</ele>
        <time>2018-12-20T14:43:20Z</time>
      </trkpt>
      <trkpt lat="39.4635128975" lon="-8.1495357770">
        <ele>122.22</ele>
        <time>2018-12-20T14:43:26Z</time>
      </trkpt>
      <trkpt lat="39.4634952955" lon="-8.1495538820">
        <ele>122.22</ele>
        <time>2018-12-20T14:43:32Z</time>
      </trkpt>
      <trkpt lat="39.4634289108" lon="-8.1496162433">
        <ele>122.71</ele>
        <time>2018-12-20T14:43:36Z</time>
      </trkpt>
      <trkpt lat="39.4633876719" lon="-8.1496551353">
        <ele>122.22</ele>
        <time>2018-12-20T14:43:38Z</time>
      </trkpt>
      <trkpt lat="39.4633693155" lon="-8.1497165747">
        <ele>121.74</ele>
        <time>2018-12-20T14:43:43Z</time>
      </trkpt>
      <trkpt lat="39.4633186050" lon="-8.1497958675">
        <ele>122.22</ele>
        <time>2018-12-20T14:43:50Z</time>
      </trkpt>
      <trkpt lat="39.4632965606" lon="-8.1498165708">
        <ele>120.78</ele>
        <time>2018-12-20T14:43:52Z</time>
      </trkpt>
      <trkpt lat="39.4632657152" lon="-8.1498355139">
        <ele>122.22</ele>
        <time>2018-12-20T14:43:54Z</time>
      </trkpt>
      <trkpt lat="39.4632263202" lon="-8.1498507690">
        <ele>123.19</ele>
        <time>2018-12-20T14:43:59Z</time>
      </trkpt>
      <trkpt lat="39.4632234704" lon="-8.1498565525">
        <ele>122.22</ele>
        <time>2018-12-20T14:44:03Z</time>
      </trkpt>
      <trkpt lat="39.4631132483" lon="-8.1499461550">
        <ele>122.22</ele>
        <time>2018-12-20T14:44:09Z</time>
      </trkpt>
      <trkpt lat="39.4630548265" lon="-8.1500055827">
        <ele>122.71</ele>
        <time>2018-12-20T14:44:16Z</time>
      </trkpt>
      <trkpt lat="39.4630452711" lon="-8.1499926746">
        <ele>122.22</ele>
        <time>2018-12-20T14:44:21Z</time>
      </trkpt>
      <trkpt lat="39.4629425928" lon="-8.1500487495">
        <ele>122.22</ele>
        <time>2018-12-20T14:44:26Z</time>
      </trkpt>
      <trkpt lat="39.4628993422" lon="-8.1500869710">
        <ele>122.22</ele>
        <time>2018-12-20T14:44:28Z</time>
      </trkpt>
      <trkpt lat="39.4627976697" lon="-8.1502013840">
        <ele>122.22</ele>
        <time>2018-12-20T14:44:33Z</time>
      </trkpt>
      <trkpt lat="39.4627695065" lon="-8.1502561178">
        <ele>122.22</ele>
        <time>2018-12-20T14:44:38Z</time>
      </trkpt>
      <trkpt lat="39.4627840910" lon="-8.1502401922">
        <ele>123.19</ele>
        <time>2018-12-20T14:44:42Z</time>
      </trkpt>
      <trkpt lat="39.4626913872" lon="-8.1503263582">
        <ele>123.19</ele>
        <time>2018-12-20T14:44:48Z</time>
      </trkpt>
      <trkpt lat="39.4626490586" lon="-8.1504001189">
        <ele>123.19</ele>
        <time>2018-12-20T14:44:55Z</time>
      </trkpt>
      <trkpt lat="39.4626352284" lon="-8.1504359934">
        <ele>122.71</ele>
        <time>2018-12-20T14:45:01Z</time>
      </trkpt>
      <trkpt lat="39.4625492301" lon="-8.1505641527">
        <ele>123.67</ele>
        <time>2018-12-20T14:45:08Z</time>
      </trkpt>
      <trkpt lat="39.4625265151" lon="-8.1506436970">
        <ele>123.67</ele>
        <time>2018-12-20T14:45:15Z</time>
      </trkpt>
      <trkpt lat="39.4625120144" lon="-8.1506518275">
        <ele>123.67</ele>
        <time>2018-12-20T14:45:20Z</time>
      </trkpt>
      <trkpt lat="39.4624308776" lon="-8.1507486384">
        <ele>123.19</ele>
        <time>2018-12-20T14:45:25Z</time>
      </trkpt>
      <trkpt lat="39.4624240045" lon="-8.1507673301">
        <ele>123.67</ele>
        <time>2018-12-20T14:45:26Z</time>
      </trkpt>
      <trkpt lat="39.4623962604" lon="-8.1508227345">
        <ele>124.15</ele>
        <time>2018-12-20T14:45:32Z</time>
      </trkpt>
      <trkpt lat="39.4623584580" lon="-8.1508975849">
        <ele>123.19</ele>
        <time>2018-12-20T14:45:38Z</time>
      </trkpt>
      <trkpt lat="39.4623238407" lon="-8.1509739440">
        <ele>123.19</ele>
        <time>2018-12-20T14:45:41Z</time>
      </trkpt>
      <trkpt lat="39.4623183925" lon="-8.1510160211">
        <ele>123.67</ele>
        <time>2018-12-20T14:45:48Z</time>
      </trkpt>
      <trkpt lat="39.4624115992" lon="-8.1510824058">
        <ele>124.15</ele>
        <time>2018-12-20T14:45:55Z</time>
      </trkpt>
      <trkpt lat="39.4624482282" lon="-8.1511395704">
        <ele>123.67</ele>
        <time>2018-12-20T14:46:01Z</time>
      </trkpt>
      <trkpt lat="39.4624480605" lon="-8.1511463597">
        <ele>124.15</ele>
        <time>2018-12-20T14:46:05Z</time>
      </trkpt>
      <trkpt lat="39.4625698496" lon="-8.1512285024">
        <ele>123.67</ele>
        <time>2018-12-20T14:46:11Z</time>
      </trkpt>
      <trkpt lat="39.4626429398" lon="-8.1512689032">
        <ele>123.67</ele>
        <time>2018-12-20T14:46:17Z</time>
      </trkpt>
      <trkpt lat="39.4626348093" lon="-8.1512668077">
        <ele>123.67</ele>
        <time>2018-12-20T14:46:19Z</time>
      </trkpt>
      <trkpt lat="39.4627280161" lon="-8.1513503753">
        <ele>123.19</ele>
        <time>2018-12-20T14:46:26Z</time>
      </trkpt>
      <trkpt lat="39.4627894554" lon="-8.1513971463">
        <ele>123.19</ele>
        <time>2018-12-20T14:46:31Z</time>
      </trkpt>
      <trkpt lat="39.4627870247" lon="-8.1514081266">
        <ele>123.19</ele>
        <time>2018-12-20T14:46:37Z</time>
      </trkpt>
      <trkpt lat="39.4629077241" lon="-8.1514561549">
        <ele>122.71</ele>
        <time>2018-12-20T14:46:43Z</time>
      </trkpt>
      <trkpt lat="39.4629840832" lon="-8.1514590885">
        <ele>121.74</ele>
        <time>2018-12-20T14:46:49Z</time>
      </trkpt>
      <trkpt lat="39.4629803114" lon="-8.1514757685">
        <ele>121.74</ele>
        <time>2018-12-20T14:46:55Z</time>
      </trkpt>
      <trkpt lat="39.4630970713" lon="-8.1514931191">
        <ele>121.74</ele>
        <time>2018-12-20T14:47:01Z</time>
      </trkpt>
      <trkpt lat="39.4631938823" lon="-8.1514890958">
        <ele>120.78</ele>
        <time>2018-12-20T14:47:06Z</time>
      </trkpt>
      <trkpt lat="39.4631829858" lon="-8.1514802109">
        <ele>121.26</ele>
        <time>2018-12-20T14:47:10Z</time>
      </trkpt>
      <trkpt lat="39.4632886816" lon="-8.1515485235">
        <ele>120.78</ele>
        <time>2018-12-20T14:47:17Z</time>
      </trkpt>
      <trkpt lat="39.4633450918" lon="-8.1516038440">
        <ele>121.26</ele>
        <time>2018-12-20T14:47:24Z</time>
      </trkpt>
      <trkpt lat="39.4633443374" lon="-8.1516286545">
        <ele>119.82</ele>
        <time>2018-12-20T14:47:28Z</time>
      </trkpt>
      <trkpt lat="39.4634287432" lon="-8.1517703086">
        <ele>119.82</ele>
        <time>2018-12-20T14:47:35Z</time>
      </trkpt>
      <trkpt lat="39.4634543918" lon="-8.1517916825">
        <ele>118.86</ele>
        <time>2018-12-20T14:47:41Z</time>
      </trkpt>
      <trkpt lat="39.4634594209" lon="-8.1518204324">
        <ele>119.34</ele>
        <time>2018-12-20T14:47:45Z</time>
      </trkpt>
      <trkpt lat="39.4635369536" lon="-8.1519191712">
        <ele>118.86</ele>
        <time>2018-12-20T14:47:51Z</time>
      </trkpt>
      <trkpt lat="39.4635552261" lon="-8.1519609131">
        <ele>118.38</ele>
        <time>2018-12-20T14:47:57Z</time>
      </trkpt>
      <trkpt lat="39.4635460898" lon="-8.1519703846">
        <ele>118.38</ele>
        <time>2018-12-20T14:48:00Z</time>
      </trkpt>
      <trkpt lat="39.4634919427" lon="-8.1521246955">
        <ele>118.38</ele>
        <time>2018-12-20T14:48:07Z</time>
      </trkpt>
      <trkpt lat="39.4634781126" lon="-8.1521937624">
        <ele>117.90</ele>
        <time>2018-12-20T14:48:13Z</time>
      </trkpt>
      <trkpt lat="39.4634573255" lon="-8.1522526871">
        <ele>117.90</ele>
        <time>2018-12-20T14:48:17Z</time>
      </trkpt>
      <trkpt lat="39.4634222053" lon="-8.1523696985">
        <ele>117.42</ele>
        <time>2018-12-20T14:48:21Z</time>
      </trkpt>
      <trkpt lat="39.4634209480" lon="-8.1524513382">
        <ele>117.90</ele>
        <time>2018-12-20T14:48:25Z</time>
      </trkpt>
      <trkpt lat="39.4634190202" lon="-8.1524512544">
        <ele>117.42</ele>
        <time>2018-12-20T14:48:27Z</time>
      </trkpt>
      <trkpt lat="39.4634491950" lon="-8.1524686050">
        <ele>117.90</ele>
        <time>2018-12-20T14:48:31Z</time>
      </trkpt>
      <trkpt lat="39.4634348620" lon="-8.1525669247">
        <ele>116.94</ele>
        <time>2018-12-20T14:48:35Z</time>
      </trkpt>
      <trkpt lat="39.4634422380" lon="-8.1527438667">
        <ele>116.94</ele>
        <time>2018-12-20T14:48:42Z</time>
      </trkpt>
      <trkpt lat="39.4634406455" lon="-8.1527360715">
        <ele>116.46</ele>
        <time>2018-12-20T14:48:44Z</time>
      </trkpt>
      <trkpt lat="39.4634508714" lon="-8.1527165417">
        <ele>116.94</ele>
        <time>2018-12-20T14:48:47Z</time>
      </trkpt>
      <trkpt lat="39.4634590019" lon="-8.1528608780">
        <ele>116.94</ele>
        <time>2018-12-20T14:48:53Z</time>
      </trkpt>
      <trkpt lat="39.4634360354" lon="-8.1528885383">
        <ele>116.94</ele>
        <time>2018-12-20T14:48:58Z</time>
      </trkpt>
      <trkpt lat="39.4634165894" lon="-8.1528880354">
        <ele>116.94</ele>
        <time>2018-12-20T14:49:01Z</time>
      </trkpt>
      <trkpt lat="39.4633866660" lon="-8.1530710962">
        <ele>116.46</ele>
        <time>2018-12-20T14:49:08Z</time>
      </trkpt>
      <trkpt lat="39.4633789547" lon="-8.1530895364">
        <ele>115.50</ele>
        <time>2018-12-20T14:49:13Z</time>
      </trkpt>
      <trkpt lat="39.4633730035" lon="-8.1530922186">
        <ele>115.98</ele>
        <time>2018-12-20T14:49:14Z</time>
      </trkpt>
      <trkpt lat="39.4633297529" lon="-8.1532516424">
        <ele>115.50</ele>
        <time>2018-12-20T14:49:19Z</time>
      </trkpt>
      <trkpt lat="39.4633315969" lon="-8.1533104833">
        <ele>115.50</ele>
        <time>2018-12-20T14:49:24Z</time>
      </trkpt>
      <trkpt lat="39.4633114804" lon="-8.1533346232">
        <ele>115.50</ele>
        <time>2018-12-20T14:49:28Z</time>
      </trkpt>
      <trkpt lat="39.4632806350" lon="-8.1534440070">
        <ele>115.01</ele>
        <time>2018-12-20T14:49:33Z</time>
      </trkpt>
      <trkpt lat="39.4632640388" lon="-8.1534414086">
        <ele>115.01</ele>
        <time>2018-12-20T14:49:38Z</time>
      </trkpt>
      <trkpt lat="39.4632669725" lon="-8.1534342840">
        <ele>115.01</ele>
        <time>2018-12-20T14:49:40Z</time>
      </trkpt>
      <trkpt lat="39.4632573333" lon="-8.1535799615">
        <ele>115.01</ele>
        <time>2018-12-20T14:49:46Z</time>
      </trkpt>
      <trkpt lat="39.4632373843" lon="-8.1536186859">
        <ele>115.01</ele>
        <time>2018-12-20T14:49:51Z</time>
      </trkpt>
      <trkpt lat="39.4632207882" lon="-8.1537439954">
        <ele>114.05</ele>
        <time>2018-12-20T14:49:56Z</time>
      </trkpt>
      <trkpt lat="39.4632124063" lon="-8.1537780259">
        <ele>114.05</ele>
        <time>2018-12-20T14:50:00Z</time>
      </trkpt>
      <trkpt lat="39.4632140826" lon="-8.1538005732">
        <ele>115.01</ele>
        <time>2018-12-20T14:50:02Z</time>
      </trkpt>
      <trkpt lat="39.4632189441" lon="-8.1538164150">
        <ele>114.05</ele>
        <time>2018-12-20T14:50:03Z</time>
      </trkpt>
      <trkpt lat="39.4631703291" lon="-8.1539896689">
        <ele>115.01</ele>
        <time>2018-12-20T14:50:10Z</time>
      </trkpt>
      <trkpt lat="39.4631659705" lon="-8.1539539620">
        <ele>114.05</ele>
        <time>2018-12-20T14:50:14Z</time>
      </trkpt>
      <trkpt lat="39.4631487876" lon="-8.1540192571">
        <ele>114.53</ele>
        <time>2018-12-20T14:50:16Z</time>
      </trkpt>
      <trkpt lat="39.4631501287" lon="-8.1541040819">
        <ele>114.53</ele>
        <time>2018-12-20T14:50:22Z</time>
      </trkpt>
      <trkpt lat="39.4631466083" lon="-8.1540942751">
        <ele>114.53</ele>
        <time>2018-12-20T14:50:25Z</time>
      </trkpt>
      <trkpt lat="39.4631626178" lon="-8.1542478316">
        <ele>114.53</ele>
        <time>2018-12-20T14:50:32Z</time>
      </trkpt>
      <trkpt lat="39.4631674793" lon="-8.1542671099">
        <ele>114.05</ele>
        <time>2018-12-20T14:50:33Z</time>
      </trkpt>
      <trkpt lat="39.4632201176" lon="-8.1544262823">
        <ele>114.05</ele>
        <time>2018-12-20T14:50:41Z</time>
      </trkpt>
      <trkpt lat="39.4632216264" lon="-8.1544473208">
        <ele>113.57</ele>
        <time>2018-12-20T14:50:47Z</time>
      </trkpt>
      <trkpt lat="39.4632863346" lon="-8.1545926630">
        <ele>114.05</ele>
        <time>2018-12-20T14:50:53Z</time>
      </trkpt>
      <trkpt lat="39.4632911962" lon="-8.1546249334">
        <ele>114.53</ele>
        <time>2018-12-20T14:50:59Z</time>
      </trkpt>
      <trkpt lat="39.4633153360" lon="-8.1546939164">
        <ele>114.05</ele>
        <time>2018-12-20T14:51:06Z</time>
      </trkpt>
      <trkpt lat="39.4633909408" lon="-8.1548645720">
        <ele>114.05</ele>
        <time>2018-12-20T14:51:14Z</time>
      </trkpt>
      <trkpt lat="39.4633947965" lon="-8.1548991892">
        <ele>114.05</ele>
        <time>2018-12-20T14:51:22Z</time>
      </trkpt>
      <trkpt lat="39.4634216186" lon="-8.1550099980">
        <ele>114.05</ele>
        <time>2018-12-20T14:51:27Z</time>
      </trkpt>
      <trkpt lat="39.4634386338" lon="-8.1551681645">
        <ele>114.53</ele>
        <time>2018-12-20T14:51:34Z</time>
      </trkpt>
      <trkpt lat="39.4634148292" lon="-8.1551854312">
        <ele>114.53</ele>
        <time>2018-12-20T14:51:41Z</time>
      </trkpt>
      <trkpt lat="39.4634107221" lon="-8.1551940646">
        <ele>114.05</ele>
        <time>2018-12-20T14:51:42Z</time>
      </trkpt>
      <trkpt lat="39.4633921981" lon="-8.1552724354">
        <ele>115.01</ele>
        <time>2018-12-20T14:51:46Z</time>
      </trkpt>
      <trkpt lat="39.4633908570" lon="-8.1554778758">
        <ele>114.53</ele>
        <time>2018-12-20T14:51:52Z</time>
      </trkpt>
      <trkpt lat="39.4633868337" lon="-8.1555504631">
        <ele>115.01</ele>
        <time>2018-12-20T14:51:59Z</time>
      </trkpt>
      <trkpt lat="39.4633778650" lon="-8.1556056160">
        <ele>114.53</ele>
        <time>2018-12-20T14:52:06Z</time>
      </trkpt>
      <trkpt lat="39.4633787032" lon="-8.1557118986">
        <ele>114.53</ele>
        <time>2018-12-20T14:52:10Z</time>
      </trkpt>
      <trkpt lat="39.4633839000" lon="-8.1557715777">
        <ele>114.53</ele>
        <time>2018-12-20T14:52:12Z</time>
      </trkpt>
      <trkpt lat="39.4634543918" lon="-8.1559501961">
        <ele>114.05</ele>
        <time>2018-12-20T14:52:19Z</time>
      </trkpt>
      <trkpt lat="39.4634594209" lon="-8.1559588294">
        <ele>113.57</ele>
        <time>2018-12-20T14:52:24Z</time>
      </trkpt>
      <trkpt lat="39.4634442497" lon="-8.1559384614">
        <ele>112.61</ele>
        <time>2018-12-20T14:52:28Z</time>
      </trkpt>
      <trkpt lat="39.4634641148" lon="-8.1561123859">
        <ele>113.09</ele>
        <time>2018-12-20T14:52:35Z</time>
      </trkpt>
      <trkpt lat="39.4634995703" lon="-8.1562004797">
        <ele>111.65</ele>
        <time>2018-12-20T14:52:41Z</time>
      </trkpt>
      <trkpt lat="39.4634882547" lon="-8.1561994739">
        <ele>111.17</ele>
        <time>2018-12-20T14:52:46Z</time>
      </trkpt>
      <trkpt lat="39.4634902664" lon="-8.1562407129">
        <ele>110.21</ele>
        <time>2018-12-20T14:52:48Z</time>
      </trkpt>
      <trkpt lat="39.4635060243" lon="-8.1563182455">
        <ele>110.69</ele>
        <time>2018-12-20T14:52:51Z</time>
      </trkpt>
      <trkpt lat="39.4635543041" lon="-8.1564510148">
        <ele>110.21</ele>
        <time>2018-12-20T14:52:58Z</time>
      </trkpt>
      <trkpt lat="39.4635433238" lon="-8.1564392801">
        <ele>109.25</ele>
        <time>2018-12-20T14:53:02Z</time>
      </trkpt>
      <trkpt lat="39.4635759294" lon="-8.1565572135">
        <ele>108.77</ele>
        <time>2018-12-20T14:53:07Z</time>
      </trkpt>
      <trkpt lat="39.4636232872" lon="-8.1566696148">
        <ele>107.81</ele>
        <time>2018-12-20T14:53:14Z</time>
      </trkpt>
      <trkpt lat="39.4636335131" lon="-8.1566797569">
        <ele>107.32</ele>
        <time>2018-12-20T14:53:19Z</time>
      </trkpt>
      <trkpt lat="39.4636320882" lon="-8.1567538530">
        <ele>107.32</ele>
        <time>2018-12-20T14:53:23Z</time>
      </trkpt>
      <trkpt lat="39.4636669569" lon="-8.1568873767">
        <ele>105.88</ele>
        <time>2018-12-20T14:53:28Z</time>
      </trkpt>
      <trkpt lat="39.4636781886" lon="-8.1569115166">
        <ele>106.36</ele>
        <time>2018-12-20T14:53:29Z</time>
      </trkpt>
      <trkpt lat="39.4636979699" lon="-8.1569680944">
        <ele>105.88</ele>
        <time>2018-12-20T14:53:36Z</time>
      </trkpt>
      <trkpt lat="39.4637092855" lon="-8.1570038013">
        <ele>103.96</ele>
        <time>2018-12-20T14:53:43Z</time>
      </trkpt>
      <trkpt lat="39.4637171645" lon="-8.1570298690">
        <ele>103.96</ele>
        <time>2018-12-20T14:53:44Z</time>
      </trkpt>
      <trkpt lat="39.4637685455" lon="-8.1572176237">
        <ele>103.48</ele>
        <time>2018-12-20T14:53:51Z</time>
      </trkpt>
      <trkpt lat="39.4638350140" lon="-8.1573391613">
        <ele>103.00</ele>
        <time>2018-12-20T14:53:57Z</time>
      </trkpt>
      <trkpt lat="39.4638174120" lon="-8.1573572662">
        <ele>102.04</ele>
        <time>2018-12-20T14:54:04Z</time>
      </trkpt>
      <trkpt lat="39.4638179149" lon="-8.1573719345">
        <ele>101.56</ele>
        <time>2018-12-20T14:54:05Z</time>
      </trkpt>
      <trkpt lat="39.4638016541" lon="-8.1574710086">
        <ele>102.04</ele>
        <time>2018-12-20T14:54:09Z</time>
      </trkpt>
      <trkpt lat="39.4637801964" lon="-8.1575304363">
        <ele>101.56</ele>
        <time>2018-12-20T14:54:12Z</time>
      </trkpt>
      <trkpt lat="39.4638148136" lon="-8.1576750241">
        <ele>101.56</ele>
        <time>2018-12-20T14:54:20Z</time>
      </trkpt>
      <trkpt lat="39.4638224412" lon="-8.1577223819">
        <ele>101.08</ele>
        <time>2018-12-20T14:54:26Z</time>
      </trkpt>
      <trkpt lat="39.4638241176" lon="-8.1577500422">
        <ele>101.08</ele>
        <time>2018-12-20T14:54:28Z</time>
      </trkpt>
      <trkpt lat="39.4637794420" lon="-8.1579087954">
        <ele>101.08</ele>
        <time>2018-12-20T14:54:34Z</time>
      </trkpt>
      <trkpt lat="39.4637713954" lon="-8.1579787843">
        <ele>100.11</ele>
        <time>2018-12-20T14:54:40Z</time>
      </trkpt>
      <trkpt lat="39.4637510274" lon="-8.1579878367">
        <ele>100.60</ele>
        <time>2018-12-20T14:54:44Z</time>
      </trkpt>
      <trkpt lat="39.4637112971" lon="-8.1581268925">
        <ele>100.11</ele>
        <time>2018-12-20T14:54:50Z</time>
      </trkpt>
      <trkpt lat="39.4636967126" lon="-8.1581735797">
        <ele>100.11</ele>
        <time>2018-12-20T14:54:57Z</time>
      </trkpt>
      <trkpt lat="39.4636874925" lon="-8.1582413893">
        <ele>100.11</ele>
        <time>2018-12-20T14:55:03Z</time>
      </trkpt>
      <trkpt lat="39.4636952039" lon="-8.1584117096">
        <ele>99.63</ele>
        <time>2018-12-20T14:55:09Z</time>
      </trkpt>
      <trkpt lat="39.4637278095" lon="-8.1585216802">
        <ele>99.15</ele>
        <time>2018-12-20T14:55:14Z</time>
      </trkpt>
      <trkpt lat="39.4637358561" lon="-8.1585329119">
        <ele>99.15</ele>
        <time>2018-12-20T14:55:20Z</time>
      </trkpt>
      <trkpt lat="39.4637474231" lon="-8.1585612427">
        <ele>97.71</ele>
        <time>2018-12-20T14:55:24Z</time>
      </trkpt>
      <trkpt lat="39.4638114609" lon="-8.1586903241">
        <ele>98.19</ele>
        <time>2018-12-20T14:55:29Z</time>
      </trkpt>
      <trkpt lat="39.4638507720" lon="-8.1587705389">
        <ele>98.19</ele>
        <time>2018-12-20T14:55:35Z</time>
      </trkpt>
      <trkpt lat="39.4638455752" lon="-8.1587655935">
        <ele>97.23</ele>
        <time>2018-12-20T14:55:36Z</time>
      </trkpt>
      <trkpt lat="39.4638382830" lon="-8.1587675214">
        <ele>98.19</ele>
        <time>2018-12-20T14:55:39Z</time>
      </trkpt>
      <trkpt lat="39.4638573099" lon="-8.1588924956">
        <ele>97.23</ele>
        <time>2018-12-20T14:55:46Z</time>
      </trkpt>
      <trkpt lat="39.4638512749" lon="-8.1588960998">
        <ele>97.23</ele>
        <time>2018-12-20T14:55:49Z</time>
      </trkpt>
      <trkpt lat="39.4638491794" lon="-8.1588974409">
        <ele>96.75</ele>
        <time>2018-12-20T14:55:52Z</time>
      </trkpt>
      <trkpt lat="39.4638387859" lon="-8.1589867920">
        <ele>95.79</ele>
        <time>2018-12-20T14:55:56Z</time>
      </trkpt>
      <trkpt lat="39.4638563041" lon="-8.1591394264">
        <ele>95.31</ele>
        <time>2018-12-20T14:56:03Z</time>
      </trkpt>
      <trkpt lat="39.4638532866" lon="-8.1591442879">
        <ele>94.35</ele>
        <time>2018-12-20T14:56:08Z</time>
      </trkpt>
      <trkpt lat="39.4638342597" lon="-8.1592932343">
        <ele>93.87</ele>
        <time>2018-12-20T14:56:15Z</time>
      </trkpt>
      <trkpt lat="39.4638345111" lon="-8.1593411788">
        <ele>93.39</ele>
        <time>2018-12-20T14:56:20Z</time>
      </trkpt>
      <trkpt lat="39.4638455752" lon="-8.1593723595">
        <ele>92.90</ele>
        <time>2018-12-20T14:56:25Z</time>
      </trkpt>
      <trkpt lat="39.4638443179" lon="-8.1594182085">
        <ele>92.90</ele>
        <time>2018-12-20T14:56:28Z</time>
      </trkpt>
      <trkpt lat="39.4638097007" lon="-8.1595762074">
        <ele>91.46</ele>
        <time>2018-12-20T14:56:35Z</time>
      </trkpt>
      <trkpt lat="39.4638118800" lon="-8.1596094836">
        <ele>91.94</ele>
        <time>2018-12-20T14:56:36Z</time>
      </trkpt>
      <trkpt lat="39.4637915958" lon="-8.1596916262">
        <ele>91.46</ele>
        <time>2018-12-20T14:56:43Z</time>
      </trkpt>
      <trkpt lat="39.4637770951" lon="-8.1596889440">
        <ele>90.50</ele>
        <time>2018-12-20T14:56:46Z</time>
      </trkpt>
      <trkpt lat="39.4637601636" lon="-8.1597255729">
        <ele>90.02</ele>
        <time>2018-12-20T14:56:49Z</time>
      </trkpt>
      <trkpt lat="39.4637278095" lon="-8.1599008385">
        <ele>90.50</ele>
        <time>2018-12-20T14:56:57Z</time>
      </trkpt>
      <trkpt lat="39.4637234509" lon="-8.1598948874">
        <ele>89.54</ele>
        <time>2018-12-20T14:57:02Z</time>
      </trkpt>
      <trkpt lat="39.4636968803" lon="-8.1600127369">
        <ele>89.54</ele>
        <time>2018-12-20T14:57:07Z</time>
      </trkpt>
      <trkpt lat="39.4636709802" lon="-8.1601189356">
        <ele>90.02</ele>
        <time>2018-12-20T14:57:10Z</time>
      </trkpt>
      <trkpt lat="39.4636609219" lon="-8.1601905171">
        <ele>89.54</ele>
        <time>2018-12-20T14:57:16Z</time>
      </trkpt>
      <trkpt lat="39.4636539649" lon="-8.1601746753">
        <ele>89.06</ele>
        <time>2018-12-20T14:57:19Z</time>
      </trkpt>
      <trkpt lat="39.4636061043" lon="-8.1602916867">
        <ele>88.10</ele>
        <time>2018-12-20T14:57:25Z</time>
      </trkpt>
      <trkpt lat="39.4636208564" lon="-8.1603857316">
        <ele>87.14</ele>
        <time>2018-12-20T14:57:30Z</time>
      </trkpt>
      <trkpt lat="39.4636094570" lon="-8.1603581551">
        <ele>86.66</ele>
        <time>2018-12-20T14:57:36Z</time>
      </trkpt>
      <trkpt lat="39.4636017457" lon="-8.1603568979">
        <ele>86.66</ele>
        <time>2018-12-20T14:57:37Z</time>
      </trkpt>
      <trkpt lat="39.4635703135" lon="-8.1604656111">
        <ele>85.21</ele>
        <time>2018-12-20T14:57:42Z</time>
      </trkpt>
      <trkpt lat="39.4635683019" lon="-8.1605098676">
        <ele>85.21</ele>
        <time>2018-12-20T14:57:44Z</time>
      </trkpt>
      <trkpt lat="39.4635382108" lon="-8.1605772581">
        <ele>84.73</ele>
        <time>2018-12-20T14:57:49Z</time>
      </trkpt>
      <trkpt lat="39.4635268953" lon="-8.1605745759">
        <ele>83.77</ele>
        <time>2018-12-20T14:57:54Z</time>
      </trkpt>
      <trkpt lat="39.4635158312" lon="-8.1605806109">
        <ele>83.77</ele>
        <time>2018-12-20T14:57:58Z</time>
      </trkpt>
      <trkpt lat="39.4634673838" lon="-8.1607567985">
        <ele>83.29</ele>
        <time>2018-12-20T14:58:05Z</time>
      </trkpt>
      <trkpt lat="39.4634258095" lon="-8.1609266996">
        <ele>81.85</ele>
        <time>2018-12-20T14:58:11Z</time>
      </trkpt>
      <trkpt lat="39.4634007476" lon="-8.1609636638">
        <ele>81.37</ele>
        <time>2018-12-20T14:58:13Z</time>
      </trkpt>
      <trkpt lat="39.4633700699" lon="-8.1610974390">
        <ele>79.45</ele>
        <time>2018-12-20T14:58:20Z</time>
      </trkpt>
      <trkpt lat="39.4633776136" lon="-8.1610827707">
        <ele>79.93</ele>
        <time>2018-12-20T14:58:23Z</time>
      </trkpt>
      <trkpt lat="39.4633766077" lon="-8.1610738859">
        <ele>78.97</ele>
        <time>2018-12-20T14:58:29Z</time>
      </trkpt>
      <trkpt lat="39.4633448403" lon="-8.1612608023">
        <ele>78.00</ele>
        <time>2018-12-20T14:58:36Z</time>
      </trkpt>
      <trkpt lat="39.4633379672" lon="-8.1613539252">
        <ele>78.00</ele>
        <time>2018-12-20T14:58:40Z</time>
      </trkpt>
      <trkpt lat="39.4633405656" lon="-8.1613811664">
        <ele>77.04</ele>
        <time>2018-12-20T14:58:46Z</time>
      </trkpt>
      <trkpt lat="39.4633602630" lon="-8.1614185497">
        <ele>77.04</ele>
        <time>2018-12-20T14:58:49Z</time>
      </trkpt>
      <trkpt lat="39.4633418228" lon="-8.1614746246">
        <ele>76.56</ele>
        <time>2018-12-20T14:58:52Z</time>
      </trkpt>
      <trkpt lat="39.4633159228" lon="-8.1616592780">
        <ele>76.08</ele>
        <time>2018-12-20T14:58:59Z</time>
      </trkpt>
      <trkpt lat="39.4633032661" lon="-8.1616851781">
        <ele>75.60</ele>
        <time>2018-12-20T14:59:05Z</time>
      </trkpt>
      <trkpt lat="39.4632875919" lon="-8.1617511436">
        <ele>75.60</ele>
        <time>2018-12-20T14:59:10Z</time>
      </trkpt>
      <trkpt lat="39.4632601831" lon="-8.1619740184">
        <ele>75.12</ele>
        <time>2018-12-20T14:59:17Z</time>
      </trkpt>
      <trkpt lat="39.4632515498" lon="-8.1619616970">
        <ele>74.64</ele>
        <time>2018-12-20T14:59:22Z</time>
      </trkpt>
      <trkpt lat="39.4631724246" lon="-8.1621008366">
        <ele>74.16</ele>
        <time>2018-12-20T14:59:29Z</time>
      </trkpt>
      <trkpt lat="39.4631460216" lon="-8.1621336099">
        <ele>73.68</ele>
        <time>2018-12-20T14:59:34Z</time>
      </trkpt>
      <trkpt lat="39.4631136674" lon="-8.1621776149">
        <ele>73.20</ele>
        <time>2018-12-20T14:59:39Z</time>
      </trkpt>
      <trkpt lat="39.4630937185" lon="-8.1622916088">
        <ele>72.72</ele>
        <time>2018-12-20T14:59:45Z</time>
      </trkpt>
      <trkpt lat="39.4630798046" lon="-8.1622854900">
        <ele>72.72</ele>
        <time>2018-12-20T14:59:49Z</time>
      </trkpt>
      <trkpt lat="39.4630496297" lon="-8.1622905191">
        <ele>72.72</ele>
        <time>2018-12-20T14:59:52Z</time>
      </trkpt>
      <trkpt lat="39.4630078040" lon="-8.1624028366">
        <ele>72.72</ele>
        <time>2018-12-20T14:59:58Z</time>
      </trkpt>
      <trkpt lat="39.4629743602" lon="-8.1625766773">
        <ele>72.24</ele>
        <time>2018-12-20T15:00:06Z</time>
      </trkpt>
      <trkpt lat="39.4629552495" lon="-8.1626296509">
        <ele>72.72</ele>
        <time>2018-12-20T15:00:13Z</time>
      </trkpt>
      <trkpt lat="39.4629434310" lon="-8.1626679562">
        <ele>72.24</ele>
        <time>2018-12-20T15:00:19Z</time>
      </trkpt>
      <trkpt lat="39.4628369808" lon="-8.1627727300">
        <ele>71.76</ele>
        <time>2018-12-20T15:00:24Z</time>
      </trkpt>
      <trkpt lat="39.4628017768" lon="-8.1628211774">
        <ele>72.72</ele>
        <time>2018-12-20T15:00:29Z</time>
      </trkpt>
      <trkpt lat="39.4628025312" lon="-8.1628308166">
        <ele>72.24</ele>
        <time>2018-12-20T15:00:33Z</time>
      </trkpt>
      <trkpt lat="39.4626819156" lon="-8.1629198324">
        <ele>72.72</ele>
        <time>2018-12-20T15:00:40Z</time>
      </trkpt>
      <trkpt lat="39.4626597036" lon="-8.1629311480">
        <ele>72.24</ele>
        <time>2018-12-20T15:00:45Z</time>
      </trkpt>
      <trkpt lat="39.4626566023" lon="-8.1629352551">
        <ele>72.24</ele>
        <time>2018-12-20T15:00:46Z</time>
      </trkpt>
      <trkpt lat="39.4625939894" lon="-8.1629793439">
        <ele>72.24</ele>
        <time>2018-12-20T15:00:50Z</time>
      </trkpt>
      <trkpt lat="39.4624965917" lon="-8.1630493328">
        <ele>72.24</ele>
        <time>2018-12-20T15:00:56Z</time>
      </trkpt>
      <trkpt lat="39.4624879584" lon="-8.1630525179">
        <ele>72.24</ele>
        <time>2018-12-20T15:01:01Z</time>
      </trkpt>
      <trkpt lat="39.4623913988" lon="-8.1631005462">
        <ele>72.24</ele>
        <time>2018-12-20T15:01:06Z</time>
      </trkpt>
      <trkpt lat="39.4623722043" lon="-8.1630937569">
        <ele>72.24</ele>
        <time>2018-12-20T15:01:11Z</time>
      </trkpt>
      <trkpt lat="39.4623310491" lon="-8.1631340738">
        <ele>71.76</ele>
        <time>2018-12-20T15:01:16Z</time>
      </trkpt>
      <trkpt lat="39.4622422010" lon="-8.1631903164">
        <ele>72.24</ele>
        <time>2018-12-20T15:01:21Z</time>
      </trkpt>
      <trkpt lat="39.4622344896" lon="-8.1632063258">
        <ele>72.24</ele>
        <time>2018-12-20T15:01:26Z</time>
      </trkpt>
      <trkpt lat="39.4622271135" lon="-8.1632024702">
        <ele>72.24</ele>
        <time>2018-12-20T15:01:29Z</time>
      </trkpt>
      <trkpt lat="39.4621251896" lon="-8.1632581260">
        <ele>71.76</ele>
        <time>2018-12-20T15:01:34Z</time>
      </trkpt>
      <trkpt lat="39.4621101860" lon="-8.1632843614">
        <ele>71.76</ele>
        <time>2018-12-20T15:01:40Z</time>
      </trkpt>
      <trkpt lat="39.4621018041" lon="-8.1632867083">
        <ele>71.76</ele>
        <time>2018-12-20T15:01:41Z</time>
      </trkpt>
      <trkpt lat="39.4619531091" lon="-8.1633672584">
        <ele>72.24</ele>
        <time>2018-12-20T15:01:48Z</time>
      </trkpt>
      <trkpt lat="39.4619261194" lon="-8.1634003669">
        <ele>72.24</ele>
        <time>2018-12-20T15:01:52Z</time>
      </trkpt>
      <trkpt lat="39.4619209226" lon="-8.1634248421">
        <ele>71.76</ele>
        <time>2018-12-20T15:01:58Z</time>
      </trkpt>
      <trkpt lat="39.4618617464" lon="-8.1634696014">
        <ele>72.24</ele>
        <time>2018-12-20T15:02:01Z</time>
      </trkpt>
      <trkpt lat="39.4618068449" lon="-8.1635364890">
        <ele>72.24</ele>
        <time>2018-12-20T15:02:08Z</time>
      </trkpt>
      <trkpt lat="39.4618070964" lon="-8.1635381654">
        <ele>72.24</ele>
        <time>2018-12-20T15:02:11Z</time>
      </trkpt>
      <trkpt lat="39.4617168233" lon="-8.1636026222">
        <ele>72.72</ele>
        <time>2018-12-20T15:02:16Z</time>
      </trkpt>
      <trkpt lat="39.4616619218" lon="-8.1636613794">
        <ele>72.72</ele>
        <time>2018-12-20T15:02:20Z</time>
      </trkpt>
      <trkpt lat="39.4616454095" lon="-8.1636918057">
        <ele>72.24</ele>
        <time>2018-12-20T15:02:25Z</time>
      </trkpt>
      <trkpt lat="39.4616425596" lon="-8.1637157779">
        <ele>72.24</ele>
        <time>2018-12-20T15:02:29Z</time>
      </trkpt>
      <trkpt lat="39.4615750853" lon="-8.1637718529">
        <ele>72.24</ele>
        <time>2018-12-20T15:02:33Z</time>
      </trkpt>
      <trkpt lat="39.4614516199" lon="-8.1638907082">
        <ele>72.72</ele>
        <time>2018-12-20T15:02:40Z</time>
      </trkpt>
      <trkpt lat="39.4614488538" lon="-8.1638983358">
        <ele>72.72</ele>
        <time>2018-12-20T15:02:45Z</time>
      </trkpt>
      <trkpt lat="39.4614461716" lon="-8.1639026105">
        <ele>72.72</ele>
        <time>2018-12-20T15:02:46Z</time>
      </trkpt>
      <trkpt lat="39.4614284858" lon="-8.1639202125">
        <ele>72.72</ele>
        <time>2018-12-20T15:02:48Z</time>
      </trkpt>
      <trkpt lat="39.4612975605" lon="-8.1640270818">
        <ele>72.72</ele>
        <time>2018-12-20T15:02:55Z</time>
      </trkpt>
      <trkpt lat="39.4612115622" lon="-8.1641124096">
        <ele>72.72</ele>
        <time>2018-12-20T15:03:02Z</time>
      </trkpt>
      <trkpt lat="39.4612330198" lon="-8.1640984956">
        <ele>72.24</ele>
        <time>2018-12-20T15:03:08Z</time>
      </trkpt>
      <trkpt lat="39.4612326846" lon="-8.1641020160">
        <ele>72.24</ele>
        <time>2018-12-20T15:03:10Z</time>
      </trkpt>
      <trkpt lat="39.4611646235" lon="-8.1641614437">
        <ele>72.24</ele>
        <time>2018-12-20T15:03:14Z</time>
      </trkpt>
      <trkpt lat="39.4610540662" lon="-8.1642450113">
        <ele>71.76</ele>
        <time>2018-12-20T15:03:20Z</time>
      </trkpt>
      <trkpt lat="39.4610521384" lon="-8.1642487831">
        <ele>71.27</ele>
        <time>2018-12-20T15:03:27Z</time>
      </trkpt>
      <trkpt lat="39.4609472807" lon="-8.1643476896">
        <ele>71.27</ele>
        <time>2018-12-20T15:03:33Z</time>
      </trkpt>
      <trkpt lat="39.4609243982" lon="-8.1643639505">
        <ele>70.79</ele>
        <time>2018-12-20T15:03:34Z</time>
      </trkpt>
      <trkpt lat="39.4608714245" lon="-8.1644334365">
        <ele>70.79</ele>
        <time>2018-12-20T15:03:41Z</time>
      </trkpt>
      <trkpt lat="39.4608857576" lon="-8.1644237135">
        <ele>70.79</ele>
        <time>2018-12-20T15:03:45Z</time>
      </trkpt>
      <trkpt lat="39.4607762061" lon="-8.1645464245">
        <ele>69.83</ele>
        <time>2018-12-20T15:03:52Z</time>
      </trkpt>
      <trkpt lat="39.4607389905" lon="-8.1645779405">
        <ele>70.31</ele>
        <time>2018-12-20T15:03:58Z</time>
      </trkpt>
      <trkpt lat="39.4607239868" lon="-8.1645896751">
        <ele>70.79</ele>
        <time>2018-12-20T15:04:02Z</time>
      </trkpt>
      <trkpt lat="39.4606140163" lon="-8.1646997295">
        <ele>70.31</ele>
        <time>2018-12-20T15:04:09Z</time>
      </trkpt>
      <trkpt lat="39.4605957437" lon="-8.1647005677">
        <ele>70.31</ele>
        <time>2018-12-20T15:04:14Z</time>
      </trkpt>
      <trkpt lat="39.4605812430" lon="-8.1647031661">
        <ele>70.79</ele>
        <time>2018-12-20T15:04:16Z</time>
      </trkpt>
      <trkpt lat="39.4605194684" lon="-8.1647954509">
        <ele>70.31</ele>
        <time>2018-12-20T15:04:22Z</time>
      </trkpt>
      <trkpt lat="39.4605240785" lon="-8.1647910085">
        <ele>70.31</ele>
        <time>2018-12-20T15:04:26Z</time>
      </trkpt>
      <trkpt lat="39.4604242500" lon="-8.1648630090">
        <ele>69.83</ele>
        <time>2018-12-20T15:04:31Z</time>
      </trkpt>
      <trkpt lat="39.4603976794" lon="-8.1649292260">
        <ele>70.31</ele>
        <time>2018-12-20T15:04:38Z</time>
      </trkpt>
      <trkpt lat="39.4603061490" lon="-8.1650305633">
        <ele>69.83</ele>
        <time>2018-12-20T15:04:44Z</time>
      </trkpt>
      <trkpt lat="39.4602749683" lon="-8.1650939304">
        <ele>70.31</ele>
        <time>2018-12-20T15:04:49Z</time>
      </trkpt>
      <trkpt lat="39.4602696039" lon="-8.1651047431">
        <ele>69.83</ele>
        <time>2018-12-20T15:04:50Z</time>
      </trkpt>
      <trkpt lat="39.4602628984" lon="-8.1650878116">
        <ele>70.31</ele>
        <time>2018-12-20T15:04:51Z</time>
      </trkpt>
      <trkpt lat="39.4602352381" lon="-8.1651479099">
        <ele>70.31</ele>
        <time>2018-12-20T15:04:55Z</time>
      </trkpt>
      <trkpt lat="39.4601811748" lon="-8.1652734708">
        <ele>70.31</ele>
        <time>2018-12-20T15:05:01Z</time>
      </trkpt>
      <trkpt lat="39.4601780735" lon="-8.1652851216">
        <ele>69.83</ele>
        <time>2018-12-20T15:05:07Z</time>
      </trkpt>
      <trkpt lat="39.4601775706" lon="-8.1652903184">
        <ele>69.83</ele>
        <time>2018-12-20T15:05:08Z</time>
      </trkpt>
      <trkpt lat="39.4600950088" lon="-8.1654038094">
        <ele>69.83</ele>
        <time>2018-12-20T15:05:14Z</time>
      </trkpt>
      <trkpt lat="39.4600470643" lon="-8.1655013748">
        <ele>69.83</ele>
        <time>2018-12-20T15:05:20Z</time>
      </trkpt>
      <trkpt lat="39.4600419514" lon="-8.1655190606">
        <ele>69.83</ele>
        <time>2018-12-20T15:05:26Z</time>
      </trkpt>
      <trkpt lat="39.4599619880" lon="-8.1656234991">
        <ele>69.35</ele>
        <time>2018-12-20T15:05:31Z</time>
      </trkpt>
      <trkpt lat="39.4599458110" lon="-8.1656452920">
        <ele>69.35</ele>
        <time>2018-12-20T15:05:32Z</time>
      </trkpt>
      <trkpt lat="39.4599087629" lon="-8.1657277700">
        <ele>69.35</ele>
        <time>2018-12-20T15:05:39Z</time>
      </trkpt>
      <trkpt lat="39.4598964415" lon="-8.1657452881">
        <ele>69.35</ele>
        <time>2018-12-20T15:05:45Z</time>
      </trkpt>
      <trkpt lat="39.4598298054" lon="-8.1658678316">
        <ele>69.83</ele>
        <time>2018-12-20T15:05:50Z</time>
      </trkpt>
      <trkpt lat="39.4597891532" lon="-8.1659877766">
        <ele>70.31</ele>
        <time>2018-12-20T15:05:56Z</time>
      </trkpt>
      <trkpt lat="39.4597891532" lon="-8.1660017744">
        <ele>69.83</ele>
        <time>2018-12-20T15:06:03Z</time>
      </trkpt>
      <trkpt lat="39.4597143866" lon="-8.1661137566">
        <ele>70.31</ele>
        <time>2018-12-20T15:06:08Z</time>
      </trkpt>
      <trkpt lat="39.4596109539" lon="-8.1662466098">
        <ele>69.35</ele>
        <time>2018-12-20T15:06:16Z</time>
      </trkpt>
      <trkpt lat="39.4596104510" lon="-8.1662590150">
        <ele>69.35</ele>
        <time>2018-12-20T15:06:23Z</time>
      </trkpt>
      <trkpt lat="39.4595457427" lon="-8.1663343683">
        <ele>69.35</ele>
        <time>2018-12-20T15:06:28Z</time>
      </trkpt>
      <trkpt lat="39.4594541285" lon="-8.1664510444">
        <ele>69.83</ele>
        <time>2018-12-20T15:06:36Z</time>
      </trkpt>
      <trkpt lat="39.4594517816" lon="-8.1664675567">
        <ele>69.35</ele>
        <time>2018-12-20T15:06:41Z</time>
      </trkpt>
      <trkpt lat="39.4594277255" lon="-8.1665051915">
        <ele>68.87</ele>
        <time>2018-12-20T15:06:44Z</time>
      </trkpt>
      <trkpt lat="39.4592743367" lon="-8.1666175928">
        <ele>68.87</ele>
        <time>2018-12-20T15:06:51Z</time>
      </trkpt>
      <trkpt lat="39.4591450877" lon="-8.1666707341">
        <ele>69.35</ele>
        <time>2018-12-20T15:06:58Z</time>
      </trkpt>
      <trkpt lat="39.4591590855" lon="-8.1666624360">
        <ele>69.35</ele>
        <time>2018-12-20T15:07:04Z</time>
      </trkpt>
      <trkpt lat="39.4590572454" lon="-8.1666434929">
        <ele>68.39</ele>
        <time>2018-12-20T15:07:11Z</time>
      </trkpt>
      <trkpt lat="39.4589522202" lon="-8.1666225381">
        <ele>68.87</ele>
        <time>2018-12-20T15:07:18Z</time>
      </trkpt>
      <trkpt lat="39.4589146692" lon="-8.1666326802">
        <ele>68.39</ele>
        <time>2018-12-20T15:07:24Z</time>
      </trkpt>
      <trkpt lat="39.4587676506" lon="-8.1666585803">
        <ele>69.35</ele>
        <time>2018-12-20T15:07:31Z</time>
      </trkpt>
      <trkpt lat="39.4587379787" lon="-8.1666570716">
        <ele>68.39</ele>
        <time>2018-12-20T15:07:37Z</time>
      </trkpt>
      <trkpt lat="39.4587223884" lon="-8.1666532159">
        <ele>68.87</ele>
        <time>2018-12-20T15:07:40Z</time>
      </trkpt>
      <trkpt lat="39.4585641380" lon="-8.1667045131">
        <ele>68.87</ele>
        <time>2018-12-20T15:07:47Z</time>
      </trkpt>
      <trkpt lat="39.4585370645" lon="-8.1667303294">
        <ele>67.91</ele>
        <time>2018-12-20T15:07:52Z</time>
      </trkpt>
      <trkpt lat="39.4585374836" lon="-8.1667359453">
        <ele>68.39</ele>
        <time>2018-12-20T15:07:58Z</time>
      </trkpt>
      <trkpt lat="39.4583752099" lon="-8.1668128073">
        <ele>68.39</ele>
        <time>2018-12-20T15:08:06Z</time>
      </trkpt>
      <trkpt lat="39.4583350606" lon="-8.1668484304">
        <ele>67.91</ele>
        <time>2018-12-20T15:08:11Z</time>
      </trkpt>
      <trkpt lat="39.4583267625" lon="-8.1668742467">
        <ele>67.91</ele>
        <time>2018-12-20T15:08:18Z</time>
      </trkpt>
      <trkpt lat="39.4582106732" lon="-8.1669698842">
        <ele>67.91</ele>
        <time>2018-12-20T15:08:24Z</time>
      </trkpt>
      <trkpt lat="39.4581447914" lon="-8.1670218520">
        <ele>67.43</ele>
        <time>2018-12-20T15:08:30Z</time>
      </trkpt>
      <trkpt lat="39.4581218250" lon="-8.1670624204">
        <ele>67.43</ele>
        <time>2018-12-20T15:08:36Z</time>
      </trkpt>
      <trkpt lat="39.4579945877" lon="-8.1670832075">
        <ele>66.95</ele>
        <time>2018-12-20T15:08:42Z</time>
      </trkpt>
      <trkpt lat="39.4579596352" lon="-8.1671101972">
        <ele>67.91</ele>
        <time>2018-12-20T15:08:46Z</time>
      </trkpt>
      <trkpt lat="39.4579613116" lon="-8.1671189144">
        <ele>66.95</ele>
        <time>2018-12-20T15:08:48Z</time>
      </trkpt>
      <trkpt lat="39.4579435419" lon="-8.1671416294">
        <ele>67.43</ele>
        <time>2018-12-20T15:08:54Z</time>
      </trkpt>
      <trkpt lat="39.4578754809" lon="-8.1671799347">
        <ele>66.95</ele>
        <time>2018-12-20T15:08:58Z</time>
      </trkpt>
      <trkpt lat="39.4577098545" lon="-8.1672427990">
        <ele>66.47</ele>
        <time>2018-12-20T15:09:05Z</time>
      </trkpt>
      <trkpt lat="39.4576911628" lon="-8.1672495045">
        <ele>66.47</ele>
        <time>2018-12-20T15:09:10Z</time>
      </trkpt>
      <trkpt lat="39.4576947670" lon="-8.1672540307">
        <ele>66.95</ele>
        <time>2018-12-20T15:09:14Z</time>
      </trkpt>
      <trkpt lat="39.4575760793" lon="-8.1673083454">
        <ele>67.43</ele>
        <time>2018-12-20T15:09:20Z</time>
      </trkpt>
      <trkpt lat="39.4575270452" lon="-8.1673161406">
        <ele>66.95</ele>
        <time>2018-12-20T15:09:22Z</time>
      </trkpt>
      <trkpt lat="39.4575005583" lon="-8.1673388556">
        <ele>66.95</ele>
        <time>2018-12-20T15:09:28Z</time>
      </trkpt>
      <trkpt lat="39.4575019833" lon="-8.1673726346">
        <ele>67.43</ele>
        <time>2018-12-20T15:09:31Z</time>
      </trkpt>
      <trkpt lat="39.4573609158" lon="-8.1673893146">
        <ele>66.47</ele>
        <time>2018-12-20T15:09:38Z</time>
      </trkpt>
      <trkpt lat="39.4573375303" lon="-8.1673959363">
        <ele>66.47</ele>
        <time>2018-12-20T15:09:43Z</time>
      </trkpt>
      <trkpt lat="39.4573339261" lon="-8.1673901528">
        <ele>66.47</ele>
        <time>2018-12-20T15:09:45Z</time>
      </trkpt>
      <trkpt lat="39.4571959600" lon="-8.1673805974">
        <ele>66.47</ele>
        <time>2018-12-20T15:09:53Z</time>
      </trkpt>
      <trkpt lat="39.4571573194" lon="-8.1673767418">
        <ele>66.47</ele>
        <time>2018-12-20T15:09:59Z</time>
      </trkpt>
      <trkpt lat="39.4571216963" lon="-8.1673676893">
        <ele>65.99</ele>
        <time>2018-12-20T15:10:03Z</time>
      </trkpt>
      <trkpt lat="39.4570681360" lon="-8.1673687790">
        <ele>66.47</ele>
        <time>2018-12-20T15:10:10Z</time>
      </trkpt>
      <trkpt lat="39.4569698162" lon="-8.1673540268">
        <ele>66.95</ele>
        <time>2018-12-20T15:10:16Z</time>
      </trkpt>
      <trkpt lat="39.4569556508" lon="-8.1673405319">
        <ele>66.47</ele>
        <time>2018-12-20T15:10:18Z</time>
      </trkpt>
      <trkpt lat="39.4569071196" lon="-8.1673125364">
        <ele>66.47</ele>
        <time>2018-12-20T15:10:23Z</time>
      </trkpt>
      <trkpt lat="39.4568782859" lon="-8.1672864687">
        <ele>65.99</ele>
        <time>2018-12-20T15:10:26Z</time>
      </trkpt>
      <trkpt lat="39.4568458479" lon="-8.1672775839">
        <ele>66.47</ele>
        <time>2018-12-20T15:10:30Z</time>
      </trkpt>
      <trkpt lat="39.4568015914" lon="-8.1672957726">
        <ele>65.99</ele>
        <time>2018-12-20T15:10:37Z</time>
      </trkpt>
      <trkpt lat="39.4567950536" lon="-8.1673364248">
        <ele>65.99</ele>
        <time>2018-12-20T15:10:40Z</time>
      </trkpt>
      <trkpt lat="39.4568260666" lon="-8.1674676854">
        <ele>65.51</ele>
        <time>2018-12-20T15:10:46Z</time>
      </trkpt>
      <trkpt lat="39.4568361249" lon="-8.1674573757">
        <ele>65.03</ele>
        <time>2018-12-20T15:10:53Z</time>
      </trkpt>
      <trkpt lat="39.4568526372" lon="-8.1675011292">
        <ele>65.03</ele>
        <time>2018-12-20T15:10:59Z</time>
      </trkpt>
      <trkpt lat="39.4568704069" lon="-8.1675251015">
        <ele>64.07</ele>
        <time>2018-12-20T15:11:07Z</time>
      </trkpt>
      <trkpt lat="39.4568687305" lon="-8.1675452180">
        <ele>64.55</ele>
        <time>2018-12-20T15:11:11Z</time>
      </trkpt>
      <trkpt lat="39.4568766095" lon="-8.1675675139">
        <ele>65.51</ele>
        <time>2018-12-20T15:11:13Z</time>
      </trkpt>
      <trkpt lat="39.4569514599" lon="-8.1676906440">
        <ele>65.51</ele>
        <time>2018-12-20T15:11:20Z</time>
      </trkpt>
      <trkpt lat="39.4569452573" lon="-8.1676934939">
        <ele>64.55</ele>
        <time>2018-12-20T15:11:22Z</time>
      </trkpt>
      <trkpt lat="39.4569440000" lon="-8.1677084975">
        <ele>64.55</ele>
        <time>2018-12-20T15:11:28Z</time>
      </trkpt>
      <trkpt lat="39.4569431618" lon="-8.1677514967">
        <ele>65.03</ele>
        <time>2018-12-20T15:11:35Z</time>
      </trkpt>
      <trkpt lat="39.4569453411" lon="-8.1677587889">
        <ele>64.07</ele>
        <time>2018-12-20T15:11:38Z</time>
      </trkpt>
      <trkpt lat="39.4570225384" lon="-8.1678974256">
        <ele>64.55</ele>
        <time>2018-12-20T15:11:43Z</time>
      </trkpt>
      <trkpt lat="39.4570429903" lon="-8.1679657381">
        <ele>64.07</ele>
        <time>2018-12-20T15:11:49Z</time>
      </trkpt>
      <trkpt lat="39.4570426550" lon="-8.1679740362">
        <ele>64.07</ele>
        <time>2018-12-20T15:11:51Z</time>
      </trkpt>
      <trkpt lat="39.4571304973" lon="-8.1681616232">
        <ele>63.58</ele>
        <time>2018-12-20T15:11:59Z</time>
      </trkpt>
      <trkpt lat="39.4571543019" lon="-8.1682223082">
        <ele>63.58</ele>
        <time>2018-12-20T15:12:05Z</time>
      </trkpt>
      <trkpt lat="39.4571647793" lon="-8.1682635471">
        <ele>64.07</ele>
        <time>2018-12-20T15:12:11Z</time>
      </trkpt>
      <trkpt lat="39.4572218601" lon="-8.1683901977">
        <ele>63.58</ele>
        <time>2018-12-20T15:12:16Z</time>
      </trkpt>
      <trkpt lat="39.4572182558" lon="-8.1684018485">
        <ele>63.58</ele>
        <time>2018-12-20T15:12:21Z</time>
      </trkpt>
      <trkpt lat="39.4572540466" lon="-8.1685082987">
        <ele>63.10</ele>
        <time>2018-12-20T15:12:26Z</time>
      </trkpt>
      <trkpt lat="39.4573150668" lon="-8.1685999129">
        <ele>63.58</ele>
        <time>2018-12-20T15:12:32Z</time>
      </trkpt>
      <trkpt lat="39.4573056791" lon="-8.1686063670">
        <ele>63.58</ele>
        <time>2018-12-20T15:12:36Z</time>
      </trkpt>
      <trkpt lat="39.4573513605" lon="-8.1687472668">
        <ele>63.10</ele>
        <time>2018-12-20T15:12:43Z</time>
      </trkpt>
      <trkpt lat="39.4573485106" lon="-8.1687598396">
        <ele>63.10</ele>
        <time>2018-12-20T15:12:47Z</time>
      </trkpt>
      <trkpt lat="39.4574203435" lon="-8.1689190120">
        <ele>63.10</ele>
        <time>2018-12-20T15:12:54Z</time>
      </trkpt>
      <trkpt lat="39.4574446511" lon="-8.1689545512">
        <ele>62.62</ele>
        <time>2018-12-20T15:12:59Z</time>
      </trkpt>
      <trkpt lat="39.4574635103" lon="-8.1690129731">
        <ele>62.62</ele>
        <time>2018-12-20T15:13:05Z</time>
      </trkpt>
      <trkpt lat="39.4575189147" lon="-8.1691356003">
        <ele>62.62</ele>
        <time>2018-12-20T15:13:10Z</time>
      </trkpt>
      <trkpt lat="39.4575250335" lon="-8.1691483408">
        <ele>62.14</ele>
        <time>2018-12-20T15:13:15Z</time>
      </trkpt>
      <trkpt lat="39.4575332478" lon="-8.1691837125">
        <ele>62.14</ele>
        <time>2018-12-20T15:13:20Z</time>
      </trkpt>
      <trkpt lat="39.4575992133" lon="-8.1693066750">
        <ele>62.62</ele>
        <time>2018-12-20T15:13:25Z</time>
      </trkpt>
      <trkpt lat="39.4575935137" lon="-8.1693145540">
        <ele>62.14</ele>
        <time>2018-12-20T15:13:29Z</time>
      </trkpt>
      <trkpt lat="39.4575833715" lon="-8.1693065912">
        <ele>62.14</ele>
        <time>2018-12-20T15:13:31Z</time>
      </trkpt>
      <trkpt lat="39.4576538634" lon="-8.1694837008">
        <ele>62.62</ele>
        <time>2018-12-20T15:13:38Z</time>
      </trkpt>
      <trkpt lat="39.4576765783" lon="-8.1695467327">
        <ele>62.62</ele>
        <time>2018-12-20T15:13:43Z</time>
      </trkpt>
      <trkpt lat="39.4576650113" lon="-8.1695445534">
        <ele>62.14</ele>
        <time>2018-12-20T15:13:46Z</time>
      </trkpt>
      <trkpt lat="39.4577341620" lon="-8.1696986966">
        <ele>62.14</ele>
        <time>2018-12-20T15:13:53Z</time>
      </trkpt>
      <trkpt lat="39.4577800110" lon="-8.1697854493">
        <ele>62.14</ele>
        <time>2018-12-20T15:13:59Z</time>
      </trkpt>
      <trkpt lat="39.4577753171" lon="-8.1697920710">
        <ele>62.14</ele>
        <time>2018-12-20T15:14:05Z</time>
      </trkpt>
      <trkpt lat="39.4578433782" lon="-8.1699093338">
        <ele>61.66</ele>
        <time>2018-12-20T15:14:10Z</time>
      </trkpt>
      <trkpt lat="39.4578446355" lon="-8.1699252594">
        <ele>61.18</ele>
        <time>2018-12-20T15:14:15Z</time>
      </trkpt>
      <trkpt lat="39.4578707032" lon="-8.1699852739">
        <ele>62.14</ele>
        <time>2018-12-20T15:14:20Z</time>
      </trkpt>
      <trkpt lat="39.4579621498" lon="-8.1701207254">
        <ele>61.66</ele>
        <time>2018-12-20T15:14:26Z</time>
      </trkpt>
      <trkpt lat="39.4579523429" lon="-8.1701248325">
        <ele>60.70</ele>
        <time>2018-12-20T15:14:30Z</time>
      </trkpt>
      <trkpt lat="39.4579423685" lon="-8.1701315381">
        <ele>61.18</ele>
        <time>2018-12-20T15:14:33Z</time>
      </trkpt>
      <trkpt lat="39.4579605572" lon="-8.1701612938">
        <ele>61.18</ele>
        <time>2018-12-20T15:14:35Z</time>
      </trkpt>
      <trkpt lat="39.4580390118" lon="-8.1702736113">
        <ele>61.66</ele>
        <time>2018-12-20T15:14:40Z</time>
      </trkpt>
      <trkpt lat="39.4580511656" lon="-8.1703130901">
        <ele>60.70</ele>
        <time>2018-12-20T15:14:45Z</time>
      </trkpt>
      <trkpt lat="39.4580461364" lon="-8.1703175325">
        <ele>61.18</ele>
        <time>2018-12-20T15:14:46Z</time>
      </trkpt>
      <trkpt lat="39.4581409357" lon="-8.1704712566">
        <ele>61.18</ele>
        <time>2018-12-20T15:14:53Z</time>
      </trkpt>
      <trkpt lat="39.4581804145" lon="-8.1705488730">
        <ele>61.18</ele>
        <time>2018-12-20T15:14:58Z</time>
      </trkpt>
      <trkpt lat="39.4581982680" lon="-8.1705902796">
        <ele>60.22</ele>
        <time>2018-12-20T15:15:05Z</time>
      </trkpt>
      <trkpt lat="39.4583090767" lon="-8.1707621925">
        <ele>60.22</ele>
        <time>2018-12-20T15:15:12Z</time>
      </trkpt>
      <trkpt lat="39.4583087415" lon="-8.1707927026">
        <ele>59.74</ele>
        <time>2018-12-20T15:15:18Z</time>
      </trkpt>
      <trkpt lat="39.4583012816" lon="-8.1707953010">
        <ele>60.22</ele>
        <time>2018-12-20T15:15:20Z</time>
      </trkpt>
      <trkpt lat="39.4583612122" lon="-8.1709034275">
        <ele>59.26</ele>
        <time>2018-12-20T15:15:26Z</time>
      </trkpt>
      <trkpt lat="39.4584514853" lon="-8.1710288208">
        <ele>60.22</ele>
        <time>2018-12-20T15:15:33Z</time>
      </trkpt>
      <trkpt lat="39.4584297761" lon="-8.1710398849">
        <ele>59.26</ele>
        <time>2018-12-20T15:15:40Z</time>
      </trkpt>
      <trkpt lat="39.4585065544" lon="-8.1711781025">
        <ele>58.78</ele>
        <time>2018-12-20T15:15:47Z</time>
      </trkpt>
      <trkpt lat="39.4584996812" lon="-8.1711939443">
        <ele>58.78</ele>
        <time>2018-12-20T15:15:53Z</time>
      </trkpt>
      <trkpt lat="39.4585361425" lon="-8.1712677050">
        <ele>58.78</ele>
        <time>2018-12-20T15:15:58Z</time>
      </trkpt>
      <trkpt lat="39.4586058799" lon="-8.1713910867">
        <ele>58.78</ele>
        <time>2018-12-20T15:16:04Z</time>
      </trkpt>
      <trkpt lat="39.4586109929" lon="-8.1713891588">
        <ele>58.78</ele>
        <time>2018-12-20T15:16:06Z</time>
      </trkpt>
      <trkpt lat="39.4586663973" lon="-8.1715080980">
        <ele>58.30</ele>
        <time>2018-12-20T15:16:12Z</time>
      </trkpt>
      <trkpt lat="39.4586580154" lon="-8.1715193298">
        <ele>58.78</ele>
        <time>2018-12-20T15:16:18Z</time>
      </trkpt>
      <trkpt lat="39.4587101508" lon="-8.1716295518">
        <ele>58.30</ele>
        <time>2018-12-20T15:16:24Z</time>
      </trkpt>
      <trkpt lat="39.4587554131" lon="-8.1717427913">
        <ele>58.30</ele>
        <time>2018-12-20T15:16:31Z</time>
      </trkpt>
      <trkpt lat="39.4587458577" lon="-8.1717640813">
        <ele>58.30</ele>
        <time>2018-12-20T15:16:35Z</time>
      </trkpt>
      <trkpt lat="39.4586910401" lon="-8.1718793325">
        <ele>57.82</ele>
        <time>2018-12-20T15:16:41Z</time>
      </trkpt>
      <trkpt lat="39.4586443529" lon="-8.1719443761">
        <ele>58.78</ele>
        <time>2018-12-20T15:16:47Z</time>
      </trkpt>
      <trkpt lat="39.4586463645" lon="-8.1719514169">
        <ele>58.30</ele>
        <time>2018-12-20T15:16:51Z</time>
      </trkpt>
      <trkpt lat="39.4584988430" lon="-8.1720038876">
        <ele>57.82</ele>
        <time>2018-12-20T15:17:00Z</time>
      </trkpt>
      <trkpt lat="39.4584706798" lon="-8.1720201485">
        <ele>58.30</ele>
        <time>2018-12-20T15:17:04Z</time>
      </trkpt>
      <trkpt lat="39.4584590290" lon="-8.1720442045">
        <ele>57.82</ele>
        <time>2018-12-20T15:17:11Z</time>
      </trkpt>
      <trkpt lat="39.4583053049" lon="-8.1721470505">
        <ele>57.34</ele>
        <time>2018-12-20T15:17:17Z</time>
      </trkpt>
      <trkpt lat="39.4582779799" lon="-8.1721742079">
        <ele>57.34</ele>
        <time>2018-12-20T15:17:22Z</time>
      </trkpt>
      <trkpt lat="39.4582596235" lon="-8.1721735373">
        <ele>56.86</ele>
        <time>2018-12-20T15:17:26Z</time>
      </trkpt>
      <trkpt lat="39.4582049735" lon="-8.1723033730">
        <ele>56.86</ele>
        <time>2018-12-20T15:17:32Z</time>
      </trkpt>
      <trkpt lat="39.4581819233" lon="-8.1723321229">
        <ele>56.86</ele>
        <time>2018-12-20T15:17:38Z</time>
      </trkpt>
      <trkpt lat="39.4581785705" lon="-8.1723330449">
        <ele>57.34</ele>
        <time>2018-12-20T15:17:40Z</time>
      </trkpt>
      <trkpt lat="39.4581223279" lon="-8.1725060474">
        <ele>56.86</ele>
        <time>2018-12-20T15:17:47Z</time>
      </trkpt>
      <trkpt lat="39.4581124373" lon="-8.1725470349">
        <ele>56.86</ele>
        <time>2018-12-20T15:17:52Z</time>
      </trkpt>
      <trkpt lat="39.4580925722" lon="-8.1726131681">
        <ele>57.34</ele>
        <time>2018-12-20T15:17:58Z</time>
      </trkpt>
      <trkpt lat="39.4580578711" lon="-8.1727894396">
        <ele>56.86</ele>
        <time>2018-12-20T15:18:04Z</time>
      </trkpt>
      <trkpt lat="39.4580470584" lon="-8.1728060357">
        <ele>56.37</ele>
        <time>2018-12-20T15:18:09Z</time>
      </trkpt>
      <trkpt lat="39.4580387603" lon="-8.1728127412">
        <ele>57.34</ele>
        <time>2018-12-20T15:18:12Z</time>
      </trkpt>
      <trkpt lat="39.4580337312" lon="-8.1729341950">
        <ele>56.37</ele>
        <time>2018-12-20T15:18:16Z</time>
      </trkpt>
      <trkpt lat="39.4580395147" lon="-8.1730282400">
        <ele>56.37</ele>
        <time>2018-12-20T15:18:22Z</time>
      </trkpt>
      <trkpt lat="39.4580309652" lon="-8.1730374601">
        <ele>57.34</ele>
        <time>2018-12-20T15:18:27Z</time>
      </trkpt>
      <trkpt lat="39.4579916541" lon="-8.1732305791">
        <ele>56.37</ele>
        <time>2018-12-20T15:18:34Z</time>
      </trkpt>
      <trkpt lat="39.4579771534" lon="-8.1732828822">
        <ele>56.37</ele>
        <time>2018-12-20T15:18:39Z</time>
      </trkpt>
      <trkpt lat="39.4579838589" lon="-8.1732953712">
        <ele>56.86</ele>
        <time>2018-12-20T15:18:43Z</time>
      </trkpt>
      <trkpt lat="39.4578991178" lon="-8.1734219380">
        <ele>56.37</ele>
        <time>2018-12-20T15:18:49Z</time>
      </trkpt>
      <trkpt lat="39.4578899816" lon="-8.1734460779">
        <ele>56.86</ele>
        <time>2018-12-20T15:18:50Z</time>
      </trkpt>
      <trkpt lat="39.4578738883" lon="-8.1734835450">
        <ele>56.86</ele>
        <time>2018-12-20T15:18:57Z</time>
      </trkpt>
      <trkpt lat="39.4577941764" lon="-8.1736308988">
        <ele>56.86</ele>
        <time>2018-12-20T15:19:04Z</time>
      </trkpt>
      <trkpt lat="39.4577821065" lon="-8.1736503448">
        <ele>57.34</ele>
        <time>2018-12-20T15:19:10Z</time>
      </trkpt>
      <trkpt lat="39.4577856269" lon="-8.1736521889">
        <ele>56.86</ele>
        <time>2018-12-20T15:19:12Z</time>
      </trkpt>
      <trkpt lat="39.4577541947" lon="-8.1736842915">
        <ele>56.37</ele>
        <time>2018-12-20T15:19:15Z</time>
      </trkpt>
      <trkpt lat="39.4577238522" lon="-8.1737327389">
        <ele>55.89</ele>
        <time>2018-12-20T15:19:21Z</time>
      </trkpt>
      <trkpt lat="39.4576995447" lon="-8.1737773307">
        <ele>55.41</ele>
        <time>2018-12-20T15:19:27Z</time>
      </trkpt>
      <trkpt lat="39.4576906599" lon="-8.1737804320">
        <ele>54.93</ele>
        <time>2018-12-20T15:19:28Z</time>
      </trkpt>
      <trkpt lat="39.4576643407" lon="-8.1737926695">
        <ele>55.89</ele>
        <time>2018-12-20T15:19:30Z</time>
      </trkpt>
      <trkpt lat="39.4576214254" lon="-8.1738495827">
        <ele>54.93</ele>
        <time>2018-12-20T15:19:37Z</time>
      </trkpt>
      <trkpt lat="39.4576119538" lon="-8.1738752313">
        <ele>55.41</ele>
        <time>2018-12-20T15:19:41Z</time>
      </trkpt>
      <trkpt lat="39.4575751573" lon="-8.1739869621">
        <ele>55.89</ele>
        <time>2018-12-20T15:19:46Z</time>
      </trkpt>
      <trkpt lat="39.4575760793" lon="-8.1740067434">
        <ele>56.37</ele>
        <time>2018-12-20T15:19:49Z</time>
      </trkpt>
      <trkpt lat="39.4575270452" lon="-8.1741235871">
        <ele>55.89</ele>
        <time>2018-12-20T15:19:55Z</time>
      </trkpt>
      <trkpt lat="39.4575070124" lon="-8.1741535105">
        <ele>56.37</ele>
        <time>2018-12-20T15:20:01Z</time>
      </trkpt>
      <trkpt lat="39.4574409630" lon="-8.1742691807">
        <ele>55.89</ele>
        <time>2018-12-20T15:20:06Z</time>
      </trkpt>
      <trkpt lat="39.4574389514" lon="-8.1742903031">
        <ele>55.41</ele>
        <time>2018-12-20T15:20:12Z</time>
      </trkpt>
      <trkpt lat="39.4573857263" lon="-8.1743897963">
        <ele>55.89</ele>
        <time>2018-12-20T15:20:17Z</time>
      </trkpt>
      <trkpt lat="39.4573594909" lon="-8.1744643953">
        <ele>56.37</ele>
        <time>2018-12-20T15:20:22Z</time>
      </trkpt>
      <trkpt lat="39.4573592395" lon="-8.1744630542">
        <ele>55.89</ele>
        <time>2018-12-20T15:20:25Z</time>
      </trkpt>
      <trkpt lat="39.4573210180" lon="-8.1745415088">
        <ele>55.89</ele>
        <time>2018-12-20T15:20:29Z</time>
      </trkpt>
      <trkpt lat="39.4572642725" lon="-8.1746360566">
        <ele>55.89</ele>
        <time>2018-12-20T15:20:35Z</time>
      </trkpt>
      <trkpt lat="39.4572621770" lon="-8.1746520661">
        <ele>56.37</ele>
        <time>2018-12-20T15:20:41Z</time>
      </trkpt>
      <trkpt lat="39.4572124723" lon="-8.1747363042">
        <ele>55.41</ele>
        <time>2018-12-20T15:20:45Z</time>
      </trkpt>
      <trkpt lat="39.4571349397" lon="-8.1748757791">
        <ele>54.93</ele>
        <time>2018-12-20T15:20:50Z</time>
      </trkpt>
      <trkpt lat="39.4571384601" lon="-8.1749041937">
        <ele>55.41</ele>
        <time>2018-12-20T15:20:55Z</time>
      </trkpt>
      <trkpt lat="39.4571431540" lon="-8.1749008410">
        <ele>54.93</ele>
        <time>2018-12-20T15:20:57Z</time>
      </trkpt>
      <trkpt lat="39.4570642803" lon="-8.1750319339">
        <ele>54.93</ele>
        <time>2018-12-20T15:21:04Z</time>
      </trkpt>
      <trkpt lat="39.4570376258" lon="-8.1750813872">
        <ele>54.93</ele>
        <time>2018-12-20T15:21:09Z</time>
      </trkpt>
      <trkpt lat="39.4569986500" lon="-8.1751460116">
        <ele>54.45</ele>
        <time>2018-12-20T15:21:15Z</time>
      </trkpt>
      <trkpt lat="39.4569604285" lon="-8.1752243824">
        <ele>54.45</ele>
        <time>2018-12-20T15:21:20Z</time>
      </trkpt>
      <trkpt lat="39.4569667149" lon="-8.1752170902">
        <ele>54.45</ele>
        <time>2018-12-20T15:21:23Z</time>
      </trkpt>
      <trkpt lat="39.4568990730" lon="-8.1753288209">
        <ele>54.45</ele>
        <time>2018-12-20T15:21:29Z</time>
      </trkpt>
      <trkpt lat="39.4568886794" lon="-8.1753356103">
        <ele>54.93</ele>
        <time>2018-12-20T15:21:33Z</time>
      </trkpt>
      <trkpt lat="39.4568342809" lon="-8.1754541304">
        <ele>53.97</ele>
        <time>2018-12-20T15:21:39Z</time>
      </trkpt>
      <trkpt lat="39.4568246417" lon="-8.1754681282">
        <ele>53.97</ele>
        <time>2018-12-20T15:21:45Z</time>
      </trkpt>
      <trkpt lat="39.4567695726" lon="-8.1756093632">
        <ele>54.45</ele>
        <time>2018-12-20T15:21:51Z</time>
      </trkpt>
      <trkpt lat="39.4567615259" lon="-8.1756262947">
        <ele>55.41</ele>
        <time>2018-12-20T15:21:56Z</time>
      </trkpt>
      <trkpt lat="39.4567098934" lon="-8.1757541187">
        <ele>54.45</ele>
        <time>2018-12-20T15:22:02Z</time>
      </trkpt>
      <trkpt lat="39.4566957280" lon="-8.1758135464">
        <ele>55.41</ele>
        <time>2018-12-20T15:22:08Z</time>
      </trkpt>
      <trkpt lat="39.4566519745" lon="-8.1759241875">
        <ele>54.93</ele>
        <time>2018-12-20T15:22:14Z</time>
      </trkpt>
      <trkpt lat="39.4566316903" lon="-8.1759816874">
        <ele>54.93</ele>
        <time>2018-12-20T15:22:19Z</time>
      </trkpt>
      <trkpt lat="39.4566082209" lon="-8.1760352477">
        <ele>54.93</ele>
        <time>2018-12-20T15:22:25Z</time>
      </trkpt>
      <trkpt lat="39.4565880205" lon="-8.1761257723">
        <ele>55.41</ele>
        <time>2018-12-20T15:22:31Z</time>
      </trkpt>
      <trkpt lat="39.4565596059" lon="-8.1762042269">
        <ele>55.41</ele>
        <time>2018-12-20T15:22:36Z</time>
      </trkpt>
      <trkpt lat="39.4565519784" lon="-8.1762303784">
        <ele>55.89</ele>
        <time>2018-12-20T15:22:37Z</time>
      </trkpt>
      <trkpt lat="39.4565355498" lon="-8.1762540154">
        <ele>55.41</ele>
        <time>2018-12-20T15:22:41Z</time>
      </trkpt>
      <trkpt lat="39.4565270841" lon="-8.1763023790">
        <ele>55.41</ele>
        <time>2018-12-20T15:22:48Z</time>
      </trkpt>
      <trkpt lat="39.4565063808" lon="-8.1763811689">
        <ele>55.89</ele>
        <time>2018-12-20T15:22:54Z</time>
      </trkpt>
      <trkpt lat="39.4564909581" lon="-8.1765039638">
        <ele>55.89</ele>
        <time>2018-12-20T15:23:00Z</time>
      </trkpt>
      <trkpt lat="39.4564762898" lon="-8.1764965877">
        <ele>55.89</ele>
        <time>2018-12-20T15:23:04Z</time>
      </trkpt>
      <trkpt lat="39.4564622082" lon="-8.1765658222">
        <ele>56.37</ele>
        <time>2018-12-20T15:23:09Z</time>
      </trkpt>
      <trkpt lat="39.4564596936" lon="-8.1766072288">
        <ele>56.37</ele>
        <time>2018-12-20T15:23:14Z</time>
      </trkpt>
      <trkpt lat="39.4564104080" lon="-8.1767820753">
        <ele>55.41</ele>
        <time>2018-12-20T15:23:21Z</time>
      </trkpt>
      <trkpt lat="39.4564042892" lon="-8.1768069696">
        <ele>55.89</ele>
        <time>2018-12-20T15:23:26Z</time>
      </trkpt>
      <trkpt lat="39.4563971646" lon="-8.1768166926">
        <ele>55.89</ele>
        <time>2018-12-20T15:23:28Z</time>
      </trkpt>
      <trkpt lat="39.4562845118" lon="-8.1769064628">
        <ele>56.37</ele>
        <time>2018-12-20T15:23:35Z</time>
      </trkpt>
      <trkpt lat="39.4562732801" lon="-8.1769088097">
        <ele>55.89</ele>
        <time>2018-12-20T15:23:40Z</time>
      </trkpt>
      <trkpt lat="39.4561928138" lon="-8.1769564189">
        <ele>55.89</ele>
        <time>2018-12-20T15:23:45Z</time>
      </trkpt>
      <trkpt lat="39.4561309554" lon="-8.1770101469">
        <ele>56.37</ele>
        <time>2018-12-20T15:23:51Z</time>
      </trkpt>
      <trkpt lat="39.4561409298" lon="-8.1770134997">
        <ele>56.37</ele>
        <time>2018-12-20T15:23:53Z</time>
      </trkpt>
      <trkpt lat="39.4560428616" lon="-8.1770656351">
        <ele>55.89</ele>
        <time>2018-12-20T15:23:59Z</time>
      </trkpt>
      <trkpt lat="39.4559763931" lon="-8.1770963967">
        <ele>56.37</ele>
        <time>2018-12-20T15:24:05Z</time>
      </trkpt>
      <trkpt lat="39.4559291191" lon="-8.1771383062">
        <ele>55.89</ele>
        <time>2018-12-20T15:24:11Z</time>
      </trkpt>
      <trkpt lat="39.4558628183" lon="-8.1772168446">
        <ele>56.86</ele>
        <time>2018-12-20T15:24:15Z</time>
      </trkpt>
      <trkpt lat="39.4558479823" lon="-8.1772323512">
        <ele>56.37</ele>
        <time>2018-12-20T15:24:22Z</time>
      </trkpt>
      <trkpt lat="39.4557225890" lon="-8.1773047708">
        <ele>56.37</ele>
        <time>2018-12-20T15:24:29Z</time>
      </trkpt>
      <trkpt lat="39.4557045680" lon="-8.1773058604">
        <ele>55.89</ele>
        <time>2018-12-20T15:24:35Z</time>
      </trkpt>
      <trkpt lat="39.4557013828" lon="-8.1773054413">
        <ele>56.86</ele>
        <time>2018-12-20T15:24:37Z</time>
      </trkpt>
      <trkpt lat="39.4556304719" lon="-8.1773569062">
        <ele>56.37</ele>
        <time>2018-12-20T15:24:41Z</time>
      </trkpt>
      <trkpt lat="39.4555834495" lon="-8.1774018332">
        <ele>56.86</ele>
        <time>2018-12-20T15:24:47Z</time>
      </trkpt>
      <trkpt lat="39.4555443898" lon="-8.1774258893">
        <ele>55.89</ele>
        <time>2018-12-20T15:24:53Z</time>
      </trkpt>
      <trkpt lat="39.4554569665" lon="-8.1775162462">
        <ele>56.37</ele>
        <time>2018-12-20T15:24:59Z</time>
      </trkpt>
      <trkpt lat="39.4554341678" lon="-8.1775242928">
        <ele>55.89</ele>
        <time>2018-12-20T15:25:05Z</time>
      </trkpt>
      <trkpt lat="39.4553159829" lon="-8.1775662024">
        <ele>56.37</ele>
        <time>2018-12-20T15:25:10Z</time>
      </trkpt>
      <trkpt lat="39.4552783482" lon="-8.1775875762">
        <ele>55.89</ele>
        <time>2018-12-20T15:25:17Z</time>
      </trkpt>
      <trkpt lat="39.4552071020" lon="-8.1776390411">
        <ele>56.37</ele>
        <time>2018-12-20T15:25:23Z</time>
      </trkpt>
      <trkpt lat="39.4551392924" lon="-8.1776954513">
        <ele>56.37</ele>
        <time>2018-12-20T15:25:28Z</time>
      </trkpt>
      <trkpt lat="39.4551381189" lon="-8.1777179986">
        <ele>56.86</ele>
        <time>2018-12-20T15:25:34Z</time>
      </trkpt>
      <trkpt lat="39.4550264720" lon="-8.1778087746">
        <ele>56.86</ele>
        <time>2018-12-20T15:25:40Z</time>
      </trkpt>
      <trkpt lat="39.4549953751" lon="-8.1778397039">
        <ele>56.37</ele>
        <time>2018-12-20T15:25:45Z</time>
      </trkpt>
      <trkpt lat="39.4549935311" lon="-8.1778439786">
        <ele>55.89</ele>
        <time>2018-12-20T15:25:46Z</time>
      </trkpt>
      <trkpt lat="39.4549093768" lon="-8.1779000536">
        <ele>56.86</ele>
        <time>2018-12-20T15:25:51Z</time>
      </trkpt>
      <trkpt lat="39.4548895955" lon="-8.1779099442">
        <ele>56.37</ele>
        <time>2018-12-20T15:25:52Z</time>
      </trkpt>
      <trkpt lat="39.4548626896" lon="-8.1779273786">
        <ele>56.86</ele>
        <time>2018-12-20T15:25:58Z</time>
      </trkpt>
      <trkpt lat="39.4547758531" lon="-8.1780067552">
        <ele>57.34</ele>
        <time>2018-12-20T15:26:04Z</time>
      </trkpt>
      <trkpt lat="39.4547757693" lon="-8.1780297216">
        <ele>56.86</ele>
        <time>2018-12-20T15:26:10Z</time>
      </trkpt>
      <trkpt lat="39.4547771104" lon="-8.1780401152">
        <ele>56.37</ele>
        <time>2018-12-20T15:26:11Z</time>
      </trkpt>
      <trkpt lat="39.4546817243" lon="-8.1781366747">
        <ele>56.86</ele>
        <time>2018-12-20T15:26:17Z</time>
      </trkpt>
      <trkpt lat="39.4546761923" lon="-8.1781430449">
        <ele>56.86</ele>
        <time>2018-12-20T15:26:22Z</time>
      </trkpt>
      <trkpt lat="39.4545945525" lon="-8.1782077532">
        <ele>56.86</ele>
        <time>2018-12-20T15:26:27Z</time>
      </trkpt>
      <trkpt lat="39.4545775373" lon="-8.1782286242">
        <ele>56.37</ele>
        <time>2018-12-20T15:26:32Z</time>
      </trkpt>
      <trkpt lat="39.4545771182" lon="-8.1782306358">
        <ele>56.37</ele>
        <time>2018-12-20T15:26:33Z</time>
      </trkpt>
      <trkpt lat="39.4544589333" lon="-8.1782344915">
        <ele>56.37</ele>
        <time>2018-12-20T15:26:40Z</time>
      </trkpt>
      <trkpt lat="39.4544018526" lon="-8.1781995390">
        <ele>56.86</ele>
        <time>2018-12-20T15:26:45Z</time>
      </trkpt>
      <trkpt lat="39.4542920496" lon="-8.1781179830">
        <ele>56.37</ele>
        <time>2018-12-20T15:26:52Z</time>
      </trkpt>
      <trkpt lat="39.4542910438" lon="-8.1781068351">
        <ele>56.86</ele>
        <time>2018-12-20T15:26:58Z</time>
      </trkpt>
      <trkpt lat="39.4542251620" lon="-8.1780695356">
        <ele>57.34</ele>
        <time>2018-12-20T15:27:02Z</time>
      </trkpt>
      <trkpt lat="39.4542011060" lon="-8.1780455634">
        <ele>57.34</ele>
        <time>2018-12-20T15:27:08Z</time>
      </trkpt>
      <trkpt lat="39.4541453663" lon="-8.1779614929">
        <ele>56.86</ele>
        <time>2018-12-20T15:27:16Z</time>
      </trkpt>
      <trkpt lat="39.4541201368" lon="-8.1779298931">
        <ele>56.37</ele>
        <time>2018-12-20T15:27:22Z</time>
      </trkpt>
      <trkpt lat="39.4540123455" lon="-8.1778333336">
        <ele>56.37</ele>
        <time>2018-12-20T15:27:28Z</time>
      </trkpt>
      <trkpt lat="39.4540165365" lon="-8.1778360996">
        <ele>56.86</ele>
        <time>2018-12-20T15:27:32Z</time>
      </trkpt>
      <trkpt lat="39.4538965076" lon="-8.1777286436">
        <ele>55.89</ele>
        <time>2018-12-20T15:27:38Z</time>
      </trkpt>
      <trkpt lat="39.4538416062" lon="-8.1776926853">
        <ele>57.34</ele>
        <time>2018-12-20T15:27:44Z</time>
      </trkpt>
      <trkpt lat="39.4538210705" lon="-8.1776978821">
        <ele>56.86</ele>
        <time>2018-12-20T15:27:50Z</time>
      </trkpt>
      <trkpt lat="39.4537656661" lon="-8.1776511110">
        <ele>56.86</ele>
        <time>2018-12-20T15:27:55Z</time>
      </trkpt>
      <trkpt lat="39.4537410233" lon="-8.1776299048">
        <ele>56.37</ele>
        <time>2018-12-20T15:28:01Z</time>
      </trkpt>
      <trkpt lat="39.4536630716" lon="-8.1775674596">
        <ele>56.37</ele>
        <time>2018-12-20T15:28:07Z</time>
      </trkpt>
      <trkpt lat="39.4536653347" lon="-8.1775537971">
        <ele>55.89</ele>
        <time>2018-12-20T15:28:14Z</time>
      </trkpt>
      <trkpt lat="39.4535503350" lon="-8.1774472632">
        <ele>56.86</ele>
        <time>2018-12-20T15:28:20Z</time>
      </trkpt>
      <trkpt lat="39.4534645882" lon="-8.1773847342">
        <ele>56.37</ele>
        <time>2018-12-20T15:28:25Z</time>
      </trkpt>
      <trkpt lat="39.4534578826" lon="-8.1773859914">
        <ele>55.89</ele>
        <time>2018-12-20T15:28:30Z</time>
      </trkpt>
      <trkpt lat="39.4533899892" lon="-8.1773186848">
        <ele>56.37</ele>
        <time>2018-12-20T15:28:35Z</time>
      </trkpt>
      <trkpt lat="39.4532562140" lon="-8.1772274897">
        <ele>55.89</ele>
        <time>2018-12-20T15:28:43Z</time>
      </trkpt>
      <trkpt lat="39.4532768335" lon="-8.1772467680">
        <ele>55.41</ele>
        <time>2018-12-20T15:28:46Z</time>
      </trkpt>
      <trkpt lat="39.4531708863" lon="-8.1771569978">
        <ele>55.41</ele>
        <time>2018-12-20T15:28:53Z</time>
      </trkpt>
      <trkpt lat="39.4530569762" lon="-8.1770830695">
        <ele>55.41</ele>
        <time>2018-12-20T15:29:00Z</time>
      </trkpt>
      <trkpt lat="39.4530636817" lon="-8.1770865899">
        <ele>56.37</ele>
        <time>2018-12-20T15:29:03Z</time>
      </trkpt>
      <trkpt lat="39.4530073553" lon="-8.1770017650">
        <ele>56.37</ele>
        <time>2018-12-20T15:29:09Z</time>
      </trkpt>
      <trkpt lat="39.4529973809" lon="-8.1770033576">
        <ele>57.34</ele>
        <time>2018-12-20T15:29:14Z</time>
      </trkpt>
      <trkpt lat="39.4530017395" lon="-8.1770162657">
        <ele>55.89</ele>
        <time>2018-12-20T15:29:17Z</time>
      </trkpt>
      <trkpt lat="39.4529083651" lon="-8.1769450195">
        <ele>55.89</ele>
        <time>2018-12-20T15:29:24Z</time>
      </trkpt>
      <trkpt lat="39.4528478477" lon="-8.1768925488">
        <ele>56.37</ele>
        <time>2018-12-20T15:29:30Z</time>
      </trkpt>
      <trkpt lat="39.4528290723" lon="-8.1769049540">
        <ele>55.89</ele>
        <time>2018-12-20T15:29:35Z</time>
      </trkpt>
      <trkpt lat="39.4527289085" lon="-8.1767828297">
        <ele>55.41</ele>
        <time>2018-12-20T15:29:42Z</time>
      </trkpt>
      <trkpt lat="39.4526455924" lon="-8.1766916346">
        <ele>55.89</ele>
        <time>2018-12-20T15:29:48Z</time>
      </trkpt>
      <trkpt lat="39.4526355341" lon="-8.1766990945">
        <ele>54.93</ele>
        <time>2018-12-20T15:29:54Z</time>
      </trkpt>
      <trkpt lat="39.4525222108" lon="-8.1766004395">
        <ele>55.89</ele>
        <time>2018-12-20T15:30:01Z</time>
      </trkpt>
      <trkpt lat="39.4524972327" lon="-8.1765962485">
        <ele>54.93</ele>
        <time>2018-12-20T15:30:06Z</time>
      </trkpt>
      <trkpt lat="39.4524518028" lon="-8.1765721086">
        <ele>55.41</ele>
        <time>2018-12-20T15:30:10Z</time>
      </trkpt>
      <trkpt lat="39.4523709174" lon="-8.1764936540">
        <ele>54.93</ele>
        <time>2018-12-20T15:30:15Z</time>
      </trkpt>
      <trkpt lat="39.4523601886" lon="-8.1764747947">
        <ele>55.41</ele>
        <time>2018-12-20T15:30:21Z</time>
      </trkpt>
      <trkpt lat="39.4523461908" lon="-8.1764571927">
        <ele>54.93</ele>
        <time>2018-12-20T15:30:23Z</time>
      </trkpt>
      <trkpt lat="39.4522948097" lon="-8.1763985194">
        <ele>55.41</ele>
        <time>2018-12-20T15:30:27Z</time>
      </trkpt>
      <trkpt lat="39.4521402474" lon="-8.1762533449">
        <ele>55.89</ele>
        <time>2018-12-20T15:30:35Z</time>
      </trkpt>
      <trkpt lat="39.4521012716" lon="-8.1762363296">
        <ele>55.41</ele>
        <time>2018-12-20T15:30:40Z</time>
      </trkpt>
      <trkpt lat="39.4521028642" lon="-8.1762358267">
        <ele>55.41</ele>
        <time>2018-12-20T15:30:42Z</time>
      </trkpt>
      <trkpt lat="39.4520052988" lon="-8.1760847010">
        <ele>55.41</ele>
        <time>2018-12-20T15:30:49Z</time>
      </trkpt>
      <trkpt lat="39.4519949052" lon="-8.1760589685">
        <ele>55.41</ele>
        <time>2018-12-20T15:30:55Z</time>
      </trkpt>
      <trkpt lat="39.4519982580" lon="-8.1760585494">
        <ele>54.93</ele>
        <time>2018-12-20T15:30:56Z</time>
      </trkpt>
      <trkpt lat="39.4519293588" lon="-8.1760177296">
        <ele>54.93</ele>
        <time>2018-12-20T15:31:01Z</time>
      </trkpt>
      <trkpt lat="39.4518983457" lon="-8.1759953499">
        <ele>55.89</ele>
        <time>2018-12-20T15:31:04Z</time>
      </trkpt>
      <trkpt lat="39.4518983457" lon="-8.1759635825">
        <ele>55.41</ele>
        <time>2018-12-20T15:31:06Z</time>
      </trkpt>
      <trkpt lat="39.4517969247" lon="-8.1758674420">
        <ele>54.93</ele>
        <time>2018-12-20T15:31:12Z</time>
      </trkpt>
      <trkpt lat="39.4518069830" lon="-8.1758598145">
        <ele>55.41</ele>
        <time>2018-12-20T15:31:18Z</time>
      </trkpt>
      <trkpt lat="39.4517751317" lon="-8.1758402009">
        <ele>49.65</ele>
        <time>2018-12-20T15:31:21Z</time>
      </trkpt>
      <trkpt lat="39.4517658278" lon="-8.1758338306">
        <ele>61.66</ele>
        <time>2018-12-20T15:31:22Z</time>
      </trkpt>
      <trkpt lat="39.4517555181" lon="-8.1758262869">
        <ele>55.41</ele>
        <time>2018-12-20T15:31:23Z</time>
      </trkpt>
      <trkpt lat="39.4516696036" lon="-8.1757837068">
        <ele>54.93</ele>
        <time>2018-12-20T15:31:31Z</time>
      </trkpt>
      <trkpt lat="39.4515988603" lon="-8.1757623330">
        <ele>54.45</ele>
        <time>2018-12-20T15:31:38Z</time>
      </trkpt>
      <trkpt lat="39.4515375048" lon="-8.1757559627">
        <ele>54.93</ele>
        <time>2018-12-20T15:31:46Z</time>
      </trkpt>
      <trkpt lat="39.4514909014" lon="-8.1757891551">
        <ele>54.93</ele>
        <time>2018-12-20T15:31:56Z</time>
      </trkpt>
      <trkpt lat="39.4514715392" lon="-8.1757958606">
        <ele>54.45</ele>
        <time>2018-12-20T15:31:58Z</time>
      </trkpt>
      <trkpt lat="39.4514593855" lon="-8.1760534365">
        <ele>53.97</ele>
        <time>2018-12-20T15:32:07Z</time>
      </trkpt>
      <trkpt lat="39.4514339045" lon="-8.1762376707">
        <ele>53.97</ele>
        <time>2018-12-20T15:32:17Z</time>
      </trkpt>
      <trkpt lat="39.4514075015" lon="-8.1763491500">
        <ele>53.97</ele>
        <time>2018-12-20T15:32:25Z</time>
      </trkpt>
      <trkpt lat="39.4513645023" lon="-8.1764708553">
        <ele>53.97</ele>
        <time>2018-12-20T15:32:32Z</time>
      </trkpt>
      <trkpt lat="39.4513235986" lon="-8.1766352244">
        <ele>54.45</ele>
        <time>2018-12-20T15:32:41Z</time>
      </trkpt>
      <trkpt lat="39.4513050746" lon="-8.1767024472">
        <ele>53.49</ele>
        <time>2018-12-20T15:32:48Z</time>
      </trkpt>
      <trkpt lat="39.4512981176" lon="-8.1767148525">
        <ele>53.97</ele>
        <time>2018-12-20T15:32:49Z</time>
      </trkpt>
      <trkpt lat="39.4512429647" lon="-8.1768608652">
        <ele>53.49</ele>
        <time>2018-12-20T15:32:59Z</time>
      </trkpt>
      <trkpt lat="39.4512250274" lon="-8.1769570056">
        <ele>53.49</ele>
        <time>2018-12-20T15:33:06Z</time>
      </trkpt>
      <trkpt lat="39.4511672761" lon="-8.1770870928">
        <ele>53.01</ele>
        <time>2018-12-20T15:33:15Z</time>
      </trkpt>
      <trkpt lat="39.4511525240" lon="-8.1771823950">
        <ele>53.49</ele>
        <time>2018-12-20T15:33:21Z</time>
      </trkpt>
      <trkpt lat="39.4511468243" lon="-8.1772270706">
        <ele>53.01</ele>
        <time>2018-12-20T15:33:24Z</time>
      </trkpt>
      <trkpt lat="39.4510855526" lon="-8.1773975585">
        <ele>53.97</ele>
        <time>2018-12-20T15:33:35Z</time>
      </trkpt>
      <trkpt lat="39.4510857202" lon="-8.1775302440">
        <ele>53.49</ele>
        <time>2018-12-20T15:33:43Z</time>
      </trkpt>
      <trkpt lat="39.4510457385" lon="-8.1776315812">
        <ele>53.01</ele>
        <time>2018-12-20T15:33:50Z</time>
      </trkpt>
      <trkpt lat="39.4510006439" lon="-8.1777507719">
        <ele>53.49</ele>
        <time>2018-12-20T15:33:58Z</time>
      </trkpt>
      <trkpt lat="39.4509687088" lon="-8.1778654363">
        <ele>53.01</ele>
        <time>2018-12-20T15:34:06Z</time>
      </trkpt>
      <trkpt lat="39.4509181660" lon="-8.1779904105">
        <ele>53.49</ele>
        <time>2018-12-20T15:34:15Z</time>
      </trkpt>
      <trkpt lat="39.4508954510" lon="-8.1781096850">
        <ele>53.01</ele>
        <time>2018-12-20T15:34:24Z</time>
      </trkpt>
      <trkpt lat="39.4508898351" lon="-8.1781226769">
        <ele>53.01</ele>
        <time>2018-12-20T15:34:25Z</time>
      </trkpt>
      <trkpt lat="39.4508591574" lon="-8.1782603078">
        <ele>53.49</ele>
        <time>2018-12-20T15:34:34Z</time>
      </trkpt>
      <trkpt lat="39.4508238696" lon="-8.1784078293">
        <ele>53.01</ele>
        <time>2018-12-20T15:34:44Z</time>
      </trkpt>
      <trkpt lat="39.4507943653" lon="-8.1785317976">
        <ele>52.53</ele>
        <time>2018-12-20T15:34:52Z</time>
      </trkpt>
      <trkpt lat="39.4507791940" lon="-8.1786620524">
        <ele>52.53</ele>
        <time>2018-12-20T15:35:01Z</time>
      </trkpt>
      <trkpt lat="39.4507771824" lon="-8.1786693446">
        <ele>52.53</ele>
        <time>2018-12-20T15:35:02Z</time>
      </trkpt>
      <trkpt lat="39.4507438224" lon="-8.1788300257">
        <ele>52.53</ele>
        <time>2018-12-20T15:35:11Z</time>
      </trkpt>
      <trkpt lat="39.4507354405" lon="-8.1789630465">
        <ele>53.01</ele>
        <time>2018-12-20T15:35:19Z</time>
      </trkpt>
      <trkpt lat="39.4507232867" lon="-8.1791184470">
        <ele>53.49</ele>
        <time>2018-12-20T15:35:28Z</time>
      </trkpt>
      <trkpt lat="39.4506963808" lon="-8.1792749371">
        <ele>53.01</ele>
        <time>2018-12-20T15:35:38Z</time>
      </trkpt>
      <trkpt lat="39.4506703969" lon="-8.1794309244">
        <ele>53.01</ele>
        <time>2018-12-20T15:35:49Z</time>
      </trkpt>
      <trkpt lat="39.4506502803" lon="-8.1795471814">
        <ele>53.01</ele>
        <time>2018-12-20T15:35:56Z</time>
      </trkpt>
      <trkpt lat="39.4506325945" lon="-8.1797019113">
        <ele>53.01</ele>
        <time>2018-12-20T15:36:06Z</time>
      </trkpt>
      <trkpt lat="39.4506009109" lon="-8.1798528694">
        <ele>53.49</ele>
        <time>2018-12-20T15:36:16Z</time>
      </trkpt>
      <trkpt lat="39.4505957142" lon="-8.1799989659">
        <ele>52.53</ele>
        <time>2018-12-20T15:36:25Z</time>
      </trkpt>
      <trkpt lat="39.4505773578" lon="-8.1801769976">
        <ele>52.53</ele>
        <time>2018-12-20T15:36:35Z</time>
      </trkpt>
      <trkpt lat="39.4505637791" lon="-8.1803076714">
        <ele>52.05</ele>
        <time>2018-12-20T15:36:44Z</time>
      </trkpt>
      <trkpt lat="39.4505230431" lon="-8.1804752257">
        <ele>52.53</ele>
        <time>2018-12-20T15:36:55Z</time>
      </trkpt>
      <trkpt lat="39.4505216181" lon="-8.1805827655">
        <ele>52.53</ele>
        <time>2018-12-20T15:37:03Z</time>
      </trkpt>
      <trkpt lat="39.4504854083" lon="-8.1807228271">
        <ele>51.57</ele>
        <time>2018-12-20T15:37:12Z</time>
      </trkpt>
      <trkpt lat="39.4504742604" lon="-8.1808618829">
        <ele>52.05</ele>
        <time>2018-12-20T15:37:21Z</time>
      </trkpt>
      <trkpt lat="39.4504704885" lon="-8.1808739528">
        <ele>52.05</ele>
        <time>2018-12-20T15:37:22Z</time>
      </trkpt>
      <trkpt lat="39.4504476897" lon="-8.1809615437">
        <ele>51.09</ele>
        <time>2018-12-20T15:37:28Z</time>
      </trkpt>
      <trkpt lat="39.4504359551" lon="-8.1810770463">
        <ele>52.05</ele>
        <time>2018-12-20T15:37:36Z</time>
      </trkpt>
      <trkpt lat="39.4504138269" lon="-8.1811637152">
        <ele>51.57</ele>
        <time>2018-12-20T15:37:42Z</time>
      </trkpt>
      <trkpt lat="39.4504055288" lon="-8.1813043635">
        <ele>51.09</ele>
        <time>2018-12-20T15:37:51Z</time>
      </trkpt>
      <trkpt lat="39.4503891841" lon="-8.1814869214">
        <ele>51.09</ele>
        <time>2018-12-20T15:38:03Z</time>
      </trkpt>
      <trkpt lat="39.4503684808" lon="-8.1816301681">
        <ele>51.57</ele>
        <time>2018-12-20T15:38:12Z</time>
      </trkpt>
      <trkpt lat="39.4503357913" lon="-8.1818160787">
        <ele>51.57</ele>
        <time>2018-12-20T15:38:24Z</time>
      </trkpt>
      <trkpt lat="39.4503238052" lon="-8.1819651090">
        <ele>51.09</ele>
        <time>2018-12-20T15:38:34Z</time>
      </trkpt>
      <trkpt lat="39.4503112324" lon="-8.1820875686">
        <ele>51.09</ele>
        <time>2018-12-20T15:38:42Z</time>
      </trkpt>
      <trkpt lat="39.4502953906" lon="-8.1822197512">
        <ele>51.09</ele>
        <time>2018-12-20T15:38:53Z</time>
      </trkpt>
      <trkpt lat="39.4502659701" lon="-8.1823510118">
        <ele>50.61</ele>
        <time>2018-12-20T15:39:01Z</time>
      </trkpt>
      <trkpt lat="39.4502496254" lon="-8.1824787520">
        <ele>50.13</ele>
        <time>2018-12-20T15:39:09Z</time>
      </trkpt>
      <trkpt lat="39.4502310175" lon="-8.1825968530">
        <ele>50.61</ele>
        <time>2018-12-20T15:39:17Z</time>
      </trkpt>
      <trkpt lat="39.4502163492" lon="-8.1827532593">
        <ele>50.13</ele>
        <time>2018-12-20T15:39:26Z</time>
      </trkpt>
      <trkpt lat="39.4501848333" lon="-8.1828711927">
        <ele>51.57</ele>
        <time>2018-12-20T15:39:34Z</time>
      </trkpt>
      <trkpt lat="39.4501777086" lon="-8.1830092426">
        <ele>50.61</ele>
        <time>2018-12-20T15:39:43Z</time>
      </trkpt>
      <trkpt lat="39.4501542393" lon="-8.1831663195">
        <ele>50.61</ele>
        <time>2018-12-20T15:39:53Z</time>
      </trkpt>
      <trkpt lat="39.4501243159" lon="-8.1832633819">
        <ele>51.57</ele>
        <time>2018-12-20T15:40:00Z</time>
      </trkpt>
      <trkpt lat="39.4501274172" lon="-8.1833870150">
        <ele>52.05</ele>
        <time>2018-12-20T15:40:09Z</time>
      </trkpt>
      <trkpt lat="39.4500844181" lon="-8.1835342851">
        <ele>51.57</ele>
        <time>2018-12-20T15:40:19Z</time>
      </trkpt>
      <trkpt lat="39.4500399940" lon="-8.1836557388">
        <ele>53.01</ele>
        <time>2018-12-20T15:40:27Z</time>
      </trkpt>
      <trkpt lat="39.4500108249" lon="-8.1837553158">
        <ele>53.01</ele>
        <time>2018-12-20T15:40:35Z</time>
      </trkpt>
      <trkpt lat="39.4500003476" lon="-8.1838667952">
        <ele>53.01</ele>
        <time>2018-12-20T15:40:42Z</time>
      </trkpt>
      <trkpt lat="39.4499619585" lon="-8.1840043422">
        <ele>53.97</ele>
        <time>2018-12-20T15:40:50Z</time>
      </trkpt>
      <trkpt lat="39.4499561749" lon="-8.1840258837">
        <ele>53.97</ele>
        <time>2018-12-20T15:40:51Z</time>
      </trkpt>
      <trkpt lat="39.4499453623" lon="-8.1840916816">
        <ele>54.93</ele>
        <time>2018-12-20T15:40:56Z</time>
      </trkpt>
      <trkpt lat="39.4499161094" lon="-8.1842348445">
        <ele>55.89</ele>
        <time>2018-12-20T15:41:06Z</time>
      </trkpt>
      <trkpt lat="39.4499127567" lon="-8.1842422206">
        <ele>54.93</ele>
        <time>2018-12-20T15:41:07Z</time>
      </trkpt>
      <trkpt lat="39.4498839229" lon="-8.1843624171">
        <ele>55.89</ele>
        <time>2018-12-20T15:41:16Z</time>
      </trkpt>
      <trkpt lat="39.4498601183" lon="-8.1844727229">
        <ele>55.89</ele>
        <time>2018-12-20T15:41:25Z</time>
      </trkpt>
      <trkpt lat="39.4498359784" lon="-8.1846326496">
        <ele>54.45</ele>
        <time>2018-12-20T15:41:35Z</time>
      </trkpt>
      <trkpt lat="39.4498061389" lon="-8.1847282033">
        <ele>53.01</ele>
        <time>2018-12-20T15:41:42Z</time>
      </trkpt>
      <trkpt lat="39.4497899618" lon="-8.1847746391">
        <ele>53.49</ele>
        <time>2018-12-20T15:41:45Z</time>
      </trkpt>
      <trkpt lat="39.4497690909" lon="-8.1849421095">
        <ele>53.01</ele>
        <time>2018-12-20T15:41:57Z</time>
      </trkpt>
      <trkpt lat="39.4497317076" lon="-8.1850814167">
        <ele>51.09</ele>
        <time>2018-12-20T15:42:08Z</time>
      </trkpt>
      <trkpt lat="39.4497230742" lon="-8.1851871964">
        <ele>51.09</ele>
        <time>2018-12-20T15:42:16Z</time>
      </trkpt>
      <trkpt lat="39.4497276843" lon="-8.1853096560">
        <ele>50.61</ele>
        <time>2018-12-20T15:42:25Z</time>
      </trkpt>
      <trkpt lat="39.4497076515" lon="-8.1854062155">
        <ele>49.65</ele>
        <time>2018-12-20T15:42:34Z</time>
      </trkpt>
      <trkpt lat="39.4496718608" lon="-8.1855026074">
        <ele>49.65</ele>
        <time>2018-12-20T15:42:43Z</time>
      </trkpt>
      <trkpt lat="39.4496202283" lon="-8.1855738536">
        <ele>49.16</ele>
        <time>2018-12-20T15:42:51Z</time>
      </trkpt>
      <trkpt lat="39.4495959207" lon="-8.1856124103">
        <ele>49.16</ele>
        <time>2018-12-20T15:42:54Z</time>
      </trkpt>
      <trkpt lat="39.4495636504" lon="-8.1857856642">
        <ele>48.68</ele>
        <time>2018-12-20T15:43:03Z</time>
      </trkpt>
      <trkpt lat="39.4495483115" lon="-8.1858647894">
        <ele>48.68</ele>
        <time>2018-12-20T15:43:06Z</time>
      </trkpt>
      <trkpt lat="39.4495286141" lon="-8.1860242970">
        <ele>48.68</ele>
        <time>2018-12-20T15:43:16Z</time>
      </trkpt>
      <trkpt lat="39.4494821783" lon="-8.1861394644">
        <ele>48.20</ele>
        <time>2018-12-20T15:43:24Z</time>
      </trkpt>
      <trkpt lat="39.4494161289" lon="-8.1863057613">
        <ele>47.72</ele>
        <time>2018-12-20T15:43:35Z</time>
      </trkpt>
      <trkpt lat="39.4493976049" lon="-8.1864112895">
        <ele>48.20</ele>
        <time>2018-12-20T15:43:42Z</time>
      </trkpt>
      <trkpt lat="39.4493529294" lon="-8.1865242776">
        <ele>47.24</ele>
        <time>2018-12-20T15:43:50Z</time>
      </trkpt>
      <trkpt lat="39.4493163843" lon="-8.1865949370">
        <ele>47.72</ele>
        <time>2018-12-20T15:43:56Z</time>
      </trkpt>
      <trkpt lat="39.4492884725" lon="-8.1867610663">
        <ele>47.24</ele>
        <time>2018-12-20T15:44:06Z</time>
      </trkpt>
      <trkpt lat="39.4492649194" lon="-8.1868971884">
        <ele>46.76</ele>
        <time>2018-12-20T15:44:15Z</time>
      </trkpt>
      <trkpt lat="39.4492644165" lon="-8.1869121082">
        <ele>47.24</ele>
        <time>2018-12-20T15:44:16Z</time>
      </trkpt>
      <trkpt lat="39.4492676016" lon="-8.1869583763">
        <ele>47.24</ele>
        <time>2018-12-20T15:44:19Z</time>
      </trkpt>
      <trkpt lat="39.4492648356" lon="-8.1871084124">
        <ele>46.28</ele>
        <time>2018-12-20T15:44:29Z</time>
      </trkpt>
      <trkpt lat="39.4492796715" lon="-8.1872767210">
        <ele>46.76</ele>
        <time>2018-12-20T15:44:39Z</time>
      </trkpt>
      <trkpt lat="39.4492878858" lon="-8.1874607876">
        <ele>46.28</ele>
        <time>2018-12-20T15:44:50Z</time>
      </trkpt>
      <trkpt lat="39.4493318070" lon="-8.1876015197">
        <ele>46.28</ele>
        <time>2018-12-20T15:44:59Z</time>
      </trkpt>
      <trkpt lat="39.4493565336" lon="-8.1877225544">
        <ele>45.80</ele>
        <time>2018-12-20T15:45:07Z</time>
      </trkpt>
      <trkpt lat="39.4494393468" lon="-8.1878513005">
        <ele>45.80</ele>
        <time>2018-12-20T15:45:17Z</time>
      </trkpt>
      <trkpt lat="39.4494851120" lon="-8.1879649591">
        <ele>46.28</ele>
        <time>2018-12-20T15:45:27Z</time>
      </trkpt>
      <trkpt lat="39.4495785702" lon="-8.1880782824">
        <ele>46.28</ele>
        <time>2018-12-20T15:45:37Z</time>
      </trkpt>
      <trkpt lat="39.4496540911" lon="-8.1881727464">
        <ele>46.28</ele>
        <time>2018-12-20T15:45:46Z</time>
      </trkpt>
      <trkpt lat="39.4497106690" lon="-8.1882869080">
        <ele>44.84</ele>
        <time>2018-12-20T15:45:55Z</time>
      </trkpt>
      <trkpt lat="39.4497312047" lon="-8.1883155741">
        <ele>45.80</ele>
        <time>2018-12-20T15:45:58Z</time>
      </trkpt>
      <trkpt lat="39.4498173706" lon="-8.1884123851">
        <ele>44.84</ele>
        <time>2018-12-20T15:46:08Z</time>
      </trkpt>
      <trkpt lat="39.4498298597" lon="-8.1885115430">
        <ele>45.80</ele>
        <time>2018-12-20T15:46:15Z</time>
      </trkpt>
      <trkpt lat="39.4497844297" lon="-8.1886756606">
        <ele>45.32</ele>
        <time>2018-12-20T15:46:26Z</time>
      </trkpt>
      <trkpt lat="39.4497671630" lon="-8.1887157261">
        <ele>44.84</ele>
        <time>2018-12-20T15:46:29Z</time>
      </trkpt>
      <trkpt lat="39.4497452863" lon="-8.1888466515">
        <ele>44.36</ele>
        <time>2018-12-20T15:46:39Z</time>
      </trkpt>
      <trkpt lat="39.4497168716" lon="-8.1889653392">
        <ele>44.84</ele>
        <time>2018-12-20T15:46:47Z</time>
      </trkpt>
      <trkpt lat="39.4496933185" lon="-8.1890909001">
        <ele>44.84</ele>
        <time>2018-12-20T15:46:55Z</time>
      </trkpt>
      <trkpt lat="39.4496468827" lon="-8.1892347336">
        <ele>44.84</ele>
        <time>2018-12-20T15:47:05Z</time>
      </trkpt>
      <trkpt lat="39.4496434461" lon="-8.1892472226">
        <ele>44.36</ele>
        <time>2018-12-20T15:47:06Z</time>
      </trkpt>
      <trkpt lat="39.4496270176" lon="-8.1893751305">
        <ele>44.36</ele>
        <time>2018-12-20T15:47:15Z</time>
      </trkpt>
      <trkpt lat="39.4496296160" lon="-8.1895535812">
        <ele>43.88</ele>
        <time>2018-12-20T15:47:26Z</time>
      </trkpt>
      <trkpt lat="39.4496157859" lon="-8.1897196267">
        <ele>44.36</ele>
        <time>2018-12-20T15:47:37Z</time>
      </trkpt>
      <trkpt lat="39.4496203121" lon="-8.1897477899">
        <ele>44.36</ele>
        <time>2018-12-20T15:47:43Z</time>
      </trkpt>
      <trkpt lat="39.4496353995" lon="-8.1898150966">
        <ele>43.88</ele>
        <time>2018-12-20T15:47:49Z</time>
      </trkpt>
      <trkpt lat="39.4496146962" lon="-8.1898895279">
        <ele>43.88</ele>
        <time>2018-12-20T15:47:54Z</time>
      </trkpt>
      <trkpt lat="39.4495794922" lon="-8.1899823155">
        <ele>43.40</ele>
        <time>2018-12-20T15:48:01Z</time>
      </trkpt>
      <trkpt lat="39.4495640695" lon="-8.1900565792">
        <ele>42.92</ele>
        <time>2018-12-20T15:48:05Z</time>
      </trkpt>
      <trkpt lat="39.4495297037" lon="-8.1901911087">
        <ele>42.92</ele>
        <time>2018-12-20T15:48:15Z</time>
      </trkpt>
      <trkpt lat="39.4495012891" lon="-8.1903174240">
        <ele>43.40</ele>
        <time>2018-12-20T15:48:24Z</time>
      </trkpt>
      <trkpt lat="39.4494809210" lon="-8.1904302444">
        <ele>43.40</ele>
        <time>2018-12-20T15:48:32Z</time>
      </trkpt>
      <trkpt lat="39.4494784903" lon="-8.1904425658">
        <ele>43.40</ele>
        <time>2018-12-20T15:48:33Z</time>
      </trkpt>
      <trkpt lat="39.4494539313" lon="-8.1905625109">
        <ele>42.92</ele>
        <time>2018-12-20T15:48:42Z</time>
      </trkpt>
      <trkpt lat="39.4494137820" lon="-8.1906856410">
        <ele>42.92</ele>
        <time>2018-12-20T15:48:51Z</time>
      </trkpt>
      <trkpt lat="39.4494022988" lon="-8.1907553785">
        <ele>42.92</ele>
        <time>2018-12-20T15:48:56Z</time>
      </trkpt>
      <trkpt lat="39.4493515044" lon="-8.1908817776">
        <ele>41.95</ele>
        <time>2018-12-20T15:49:07Z</time>
      </trkpt>
      <trkpt lat="39.4492981117" lon="-8.1909587234">
        <ele>42.44</ele>
        <time>2018-12-20T15:49:14Z</time>
      </trkpt>
      <trkpt lat="39.4492881373" lon="-8.1910367589">
        <ele>41.95</ele>
        <time>2018-12-20T15:49:20Z</time>
      </trkpt>
      <trkpt lat="39.4492548611" lon="-8.1911439635">
        <ele>41.95</ele>
        <time>2018-12-20T15:49:27Z</time>
      </trkpt>
      <trkpt lat="39.4492456410" lon="-8.1912077498">
        <ele>41.95</ele>
        <time>2018-12-20T15:49:32Z</time>
      </trkpt>
      <trkpt lat="39.4492122810" lon="-8.1913717836">
        <ele>41.95</ele>
        <time>2018-12-20T15:49:42Z</time>
      </trkpt>
      <trkpt lat="39.4492012169" lon="-8.1914237514">
        <ele>41.95</ele>
        <time>2018-12-20T15:49:46Z</time>
      </trkpt>
      <trkpt lat="39.4491924159" lon="-8.1915659923">
        <ele>41.95</ele>
        <time>2018-12-20T15:49:56Z</time>
      </trkpt>
      <trkpt lat="39.4491820224" lon="-8.1915841810">
        <ele>41.47</ele>
        <time>2018-12-20T15:50:04Z</time>
      </trkpt>
      <trkpt lat="39.4491484948" lon="-8.1917390786">
        <ele>41.47</ele>
        <time>2018-12-20T15:50:14Z</time>
      </trkpt>
      <trkpt lat="39.4491383526" lon="-8.1917644758">
        <ele>41.47</ele>
        <time>2018-12-20T15:50:16Z</time>
      </trkpt>
      <trkpt lat="39.4491174817" lon="-8.1918727700">
        <ele>40.99</ele>
        <time>2018-12-20T15:50:25Z</time>
      </trkpt>
      <trkpt lat="39.4490906596" lon="-8.1920211297">
        <ele>40.99</ele>
        <time>2018-12-20T15:50:35Z</time>
      </trkpt>
      <trkpt lat="39.4490597304" lon="-8.1921141688">
        <ele>40.51</ele>
        <time>2018-12-20T15:50:43Z</time>
      </trkpt>
      <trkpt lat="39.4490521867" lon="-8.1921870075">
        <ele>41.95</ele>
        <time>2018-12-20T15:50:48Z</time>
      </trkpt>
      <trkpt lat="39.4490266219" lon="-8.1922877580">
        <ele>40.51</ele>
        <time>2018-12-20T15:50:56Z</time>
      </trkpt>
      <trkpt lat="39.4490020629" lon="-8.1923950464">
        <ele>41.47</ele>
        <time>2018-12-20T15:51:04Z</time>
      </trkpt>
      <trkpt lat="39.4489583094" lon="-8.1925215293">
        <ele>40.99</ele>
        <time>2018-12-20T15:51:13Z</time>
      </trkpt>
      <trkpt lat="39.4489609078" lon="-8.1926197652">
        <ele>40.99</ele>
        <time>2018-12-20T15:51:21Z</time>
      </trkpt>
      <trkpt lat="39.4489563815" lon="-8.1926508620">
        <ele>40.99</ele>
        <time>2018-12-20T15:51:23Z</time>
      </trkpt>
      <trkpt lat="39.4489295594" lon="-8.1927933544">
        <ele>40.99</ele>
        <time>2018-12-20T15:51:33Z</time>
      </trkpt>
      <trkpt lat="39.4489174895" lon="-8.1928553805">
        <ele>40.99</ele>
        <time>2018-12-20T15:51:37Z</time>
      </trkpt>
      <trkpt lat="39.4488766696" lon="-8.1929900777">
        <ele>40.99</ele>
        <time>2018-12-20T15:51:46Z</time>
      </trkpt>
      <trkpt lat="39.4488526136" lon="-8.1931298040">
        <ele>40.51</ele>
        <time>2018-12-20T15:51:56Z</time>
      </trkpt>
      <trkpt lat="39.4488458242" lon="-8.1931682769">
        <ele>40.51</ele>
        <time>2018-12-20T15:51:59Z</time>
      </trkpt>
      <trkpt lat="39.4488342572" lon="-8.1932794210">
        <ele>40.99</ele>
        <time>2018-12-20T15:52:07Z</time>
      </trkpt>
      <trkpt lat="39.4488153979" lon="-8.1934056524">
        <ele>40.99</ele>
        <time>2018-12-20T15:52:16Z</time>
      </trkpt>
      <trkpt lat="39.4488063455" lon="-8.1934535131">
        <ele>40.51</ele>
        <time>2018-12-20T15:52:20Z</time>
      </trkpt>
      <trkpt lat="39.4487869833" lon="-8.1935478933">
        <ele>40.99</ele>
        <time>2018-12-20T15:52:27Z</time>
      </trkpt>
      <trkpt lat="39.4487618376" lon="-8.1936802436">
        <ele>40.99</ele>
        <time>2018-12-20T15:52:37Z</time>
      </trkpt>
      <trkpt lat="39.4487364404" lon="-8.1937881187">
        <ele>40.51</ele>
        <time>2018-12-20T15:52:45Z</time>
      </trkpt>
      <trkpt lat="39.4486858975" lon="-8.1938190479">
        <ele>40.99</ele>
        <time>2018-12-20T15:52:51Z</time>
      </trkpt>
      <trkpt lat="39.4486410543" lon="-8.1938833371">
        <ele>41.47</ele>
        <time>2018-12-20T15:52:59Z</time>
      </trkpt>
      <trkpt lat="39.4486230332" lon="-8.1939195469">
        <ele>41.95</ele>
        <time>2018-12-20T15:53:02Z</time>
      </trkpt>
      <trkpt lat="39.4485788606" lon="-8.1940223090">
        <ele>41.95</ele>
        <time>2018-12-20T15:53:11Z</time>
      </trkpt>
      <trkpt lat="39.4484912697" lon="-8.1940953154">
        <ele>41.95</ele>
        <time>2018-12-20T15:53:22Z</time>
      </trkpt>
      <trkpt lat="39.4484782778" lon="-8.1941032782">
        <ele>42.44</ele>
        <time>2018-12-20T15:53:23Z</time>
      </trkpt>
      <trkpt lat="39.4483536389" lon="-8.1941529829">
        <ele>43.40</ele>
        <time>2018-12-20T15:53:32Z</time>
      </trkpt>
      <trkpt lat="39.4482745975" lon="-8.1941253226">
        <ele>43.40</ele>
        <time>2018-12-20T15:53:39Z</time>
      </trkpt>
      <trkpt lat="39.4481844082" lon="-8.1941461936">
        <ele>43.40</ele>
        <time>2018-12-20T15:53:47Z</time>
      </trkpt>
      <trkpt lat="39.4481592625" lon="-8.1941670645">
        <ele>44.36</ele>
        <time>2018-12-20T15:53:50Z</time>
      </trkpt>
      <trkpt lat="39.4480789639" lon="-8.1942108180">
        <ele>44.84</ele>
        <time>2018-12-20T15:53:59Z</time>
      </trkpt>
      <trkpt lat="39.4479716755" lon="-8.1942347065">
        <ele>44.84</ele>
        <time>2018-12-20T15:54:10Z</time>
      </trkpt>
      <trkpt lat="39.4479057938" lon="-8.1942518055">
        <ele>45.32</ele>
        <time>2018-12-20T15:54:18Z</time>
      </trkpt>
      <trkpt lat="39.4478047080" lon="-8.1943193637">
        <ele>46.28</ele>
        <time>2018-12-20T15:54:27Z</time>
      </trkpt>
      <trkpt lat="39.4477479625" lon="-8.1943168491">
        <ele>46.28</ele>
        <time>2018-12-20T15:54:34Z</time>
      </trkpt>
      <trkpt lat="39.4476991799" lon="-8.1943438388">
        <ele>47.24</ele>
        <time>2018-12-20T15:54:43Z</time>
      </trkpt>
      <trkpt lat="39.4477234874" lon="-8.1944268197">
        <ele>49.16</ele>
        <time>2018-12-20T15:54:52Z</time>
      </trkpt>
      <trkpt lat="39.4477564283" lon="-8.1944392249">
        <ele>48.68</ele>
        <time>2018-12-20T15:54:59Z</time>
      </trkpt>
      <trkpt lat="39.4478051271" lon="-8.1944802962">
        <ele>49.65</ele>
        <time>2018-12-20T15:55:07Z</time>
      </trkpt>
      <trkpt lat="39.4478440192" lon="-8.1945179310">
        <ele>50.13</ele>
        <time>2018-12-20T15:55:12Z</time>
      </trkpt>
      <trkpt lat="39.4479425903" lon="-8.1945622712">
        <ele>50.61</ele>
        <time>2018-12-20T15:55:21Z</time>
      </trkpt>
      <trkpt lat="39.4480117410" lon="-8.1945957989">
        <ele>51.09</ele>
        <time>2018-12-20T15:55:29Z</time>
      </trkpt>
      <trkpt lat="39.4480943028" lon="-8.1946366187">
        <ele>51.57</ele>
        <time>2018-12-20T15:55:38Z</time>
      </trkpt>
      <trkpt lat="39.4481775351" lon="-8.1946760137">
        <ele>51.09</ele>
        <time>2018-12-20T15:55:46Z</time>
      </trkpt>
      <trkpt lat="39.4482752681" lon="-8.1947247125">
        <ele>51.57</ele>
        <time>2018-12-20T15:55:56Z</time>
      </trkpt>
      <trkpt lat="39.4483419042" lon="-8.1947557256">
        <ele>52.53</ele>
        <time>2018-12-20T15:56:04Z</time>
      </trkpt>
      <trkpt lat="39.4483979791" lon="-8.1947888341">
        <ele>52.05</ele>
        <time>2018-12-20T15:56:10Z</time>
      </trkpt>
      <trkpt lat="39.4484963827" lon="-8.1948254630">
        <ele>52.05</ele>
        <time>2018-12-20T15:56:19Z</time>
      </trkpt>
      <trkpt lat="39.4486229494" lon="-8.1948770117">
        <ele>51.57</ele>
        <time>2018-12-20T15:56:32Z</time>
      </trkpt>
      <trkpt lat="39.4487459119" lon="-8.1949420553">
        <ele>51.57</ele>
        <time>2018-12-20T15:56:43Z</time>
      </trkpt>
      <trkpt lat="39.4488361012" lon="-8.1950088590">
        <ele>52.53</ele>
        <time>2018-12-20T15:56:53Z</time>
      </trkpt>
      <trkpt lat="39.4489141367" lon="-8.1950513553">
        <ele>52.05</ele>
        <time>2018-12-20T15:57:02Z</time>
      </trkpt>
      <trkpt lat="39.4490012247" lon="-8.1950920075">
        <ele>52.05</ele>
        <time>2018-12-20T15:57:11Z</time>
      </trkpt>
      <trkpt lat="39.4490830321" lon="-8.1951407902">
        <ele>51.57</ele>
        <time>2018-12-20T15:57:20Z</time>
      </trkpt>
      <trkpt lat="39.4491664320" lon="-8.1951858010">
        <ele>52.05</ele>
        <time>2018-12-20T15:57:29Z</time>
      </trkpt>
      <trkpt lat="39.4492362533" lon="-8.1952216756">
        <ele>51.57</ele>
        <time>2018-12-20T15:57:38Z</time>
      </trkpt>
      <trkpt lat="39.4493396860" lon="-8.1952665187">
        <ele>51.09</ele>
        <time>2018-12-20T15:57:47Z</time>
      </trkpt>
      <trkpt lat="39.4494656660" lon="-8.1953147985">
        <ele>52.05</ele>
        <time>2018-12-20T15:57:57Z</time>
      </trkpt>
      <trkpt lat="39.4495810010" lon="-8.1953541096">
        <ele>51.57</ele>
        <time>2018-12-20T15:58:06Z</time>
      </trkpt>
      <trkpt lat="39.4496923964" lon="-8.1954068318">
        <ele>52.05</ele>
        <time>2018-12-20T15:58:15Z</time>
      </trkpt>
      <trkpt lat="39.4497689232" lon="-8.1954458915">
        <ele>52.05</ele>
        <time>2018-12-20T15:58:23Z</time>
      </trkpt>
      <trkpt lat="39.4498457015" lon="-8.1954793353">
        <ele>51.57</ele>
        <time>2018-12-20T15:58:31Z</time>
      </trkpt>
      <trkpt lat="39.4499392435" lon="-8.1955273636">
        <ele>51.57</ele>
        <time>2018-12-20T15:58:40Z</time>
      </trkpt>
      <trkpt lat="39.4499697536" lon="-8.1955271121">
        <ele>52.53</ele>
        <time>2018-12-20T15:58:48Z</time>
      </trkpt>
      <trkpt lat="39.4499767944" lon="-8.1955262739">
        <ele>51.09</ele>
        <time>2018-12-20T15:59:03Z</time>
      </trkpt>
      <trkpt lat="39.4500376470" lon="-8.1955574546">
        <ele>51.09</ele>
        <time>2018-12-20T15:59:09Z</time>
      </trkpt>
      <trkpt lat="39.4501191191" lon="-8.1955940835">
        <ele>51.57</ele>
        <time>2018-12-20T15:59:17Z</time>
      </trkpt>
      <trkpt lat="39.4502250664" lon="-8.1956452969">
        <ele>51.57</ele>
        <time>2018-12-20T15:59:27Z</time>
      </trkpt>
      <trkpt lat="39.4503246434" lon="-8.1956965942">
        <ele>51.57</ele>
        <time>2018-12-20T15:59:37Z</time>
      </trkpt>
      <trkpt lat="39.4504215382" lon="-8.1957409345">
        <ele>51.09</ele>
        <time>2018-12-20T15:59:47Z</time>
      </trkpt>
      <trkpt lat="39.4505118113" lon="-8.1957897171">
        <ele>51.57</ele>
        <time>2018-12-20T15:59:56Z</time>
      </trkpt>
      <trkpt lat="39.4505893439" lon="-8.1958330516">
        <ele>51.57</ele>
        <time>2018-12-20T16:00:04Z</time>
      </trkpt>
      <trkpt lat="39.4506890047" lon="-8.1958760507">
        <ele>51.57</ele>
        <time>2018-12-20T16:00:13Z</time>
      </trkpt>
      <trkpt lat="39.4507929403" lon="-8.1959273480">
        <ele>51.09</ele>
        <time>2018-12-20T16:00:23Z</time>
      </trkpt>
      <trkpt lat="39.4509164058" lon="-8.1959682517">
        <ele>51.09</ele>
        <time>2018-12-20T16:00:33Z</time>
      </trkpt>
      <trkpt lat="39.4509957824" lon="-8.1960087363">
        <ele>51.09</ele>
        <time>2018-12-20T16:00:41Z</time>
      </trkpt>
      <trkpt lat="39.4510884024" lon="-8.1960445270">
        <ele>51.57</ele>
        <time>2018-12-20T16:00:50Z</time>
      </trkpt>
      <trkpt lat="39.4511664379" lon="-8.1960942317">
        <ele>51.57</ele>
        <time>2018-12-20T16:00:58Z</time>
      </trkpt>
      <trkpt lat="39.4512464013" lon="-8.1961219758">
        <ele>51.09</ele>
        <time>2018-12-20T16:01:06Z</time>
      </trkpt>
      <trkpt lat="39.4513585512" lon="-8.1961597782">
        <ele>51.09</ele>
        <time>2018-12-20T16:01:15Z</time>
      </trkpt>
      <trkpt lat="39.4514433760" lon="-8.1962022744">
        <ele>51.09</ele>
        <time>2018-12-20T16:01:23Z</time>
      </trkpt>
      <trkpt lat="39.4515161309" lon="-8.1962306052">
        <ele>50.61</ele>
        <time>2018-12-20T16:01:31Z</time>
      </trkpt>
      <trkpt lat="39.4515696913" lon="-8.1962477881">
        <ele>50.13</ele>
        <time>2018-12-20T16:01:37Z</time>
      </trkpt>
      <trkpt lat="39.4516566955" lon="-8.1962808128">
        <ele>49.65</ele>
        <time>2018-12-20T16:01:45Z</time>
      </trkpt>
      <trkpt lat="39.4516806677" lon="-8.1962871831">
        <ele>49.16</ele>
        <time>2018-12-20T16:01:48Z</time>
      </trkpt>
      <trkpt lat="39.4518040493" lon="-8.1962896977">
        <ele>48.68</ele>
        <time>2018-12-20T16:01:59Z</time>
      </trkpt>
      <trkpt lat="39.4518685061" lon="-8.1962924637">
        <ele>48.20</ele>
        <time>2018-12-20T16:02:06Z</time>
      </trkpt>
      <trkpt lat="39.4519448653" lon="-8.1962986663">
        <ele>48.20</ele>
        <time>2018-12-20T16:02:14Z</time>
      </trkpt>
      <trkpt lat="39.4520394970" lon="-8.1962984987">
        <ele>47.72</ele>
        <time>2018-12-20T16:02:21Z</time>
      </trkpt>
      <trkpt lat="39.4521823246" lon="-8.1962684076">
        <ele>47.72</ele>
        <time>2018-12-20T16:02:30Z</time>
      </trkpt>
      <trkpt lat="39.4522910379" lon="-8.1962570082">
        <ele>47.72</ele>
        <time>2018-12-20T16:02:37Z</time>
      </trkpt>
      <trkpt lat="39.4523849152" lon="-8.1962212175">
        <ele>47.24</ele>
        <time>2018-12-20T16:02:45Z</time>
      </trkpt>
      <trkpt lat="39.4524026848" lon="-8.1962146796">
        <ele>46.28</ele>
        <time>2018-12-20T16:02:52Z</time>
      </trkpt>
      <trkpt lat="39.4524301775" lon="-8.1962259114">
        <ele>46.28</ele>
        <time>2018-12-20T16:03:06Z</time>
      </trkpt>
      <trkpt lat="39.4524634536" lon="-8.1962414179">
        <ele>45.80</ele>
        <time>2018-12-20T16:03:24Z</time>
      </trkpt>
      <trkpt lat="39.4524776191" lon="-8.1962558348">
        <ele>46.28</ele>
        <time>2018-12-20T16:03:36Z</time>
      </trkpt>
      <trkpt lat="39.4524836540" lon="-8.1962490454">
        <ele>46.28</ele>
        <time>2018-12-20T16:03:50Z</time>
      </trkpt>
      <trkpt lat="39.4524942990" lon="-8.1962349638">
        <ele>46.28</ele>
        <time>2018-12-20T16:03:59Z</time>
      </trkpt>
      <trkpt lat="39.4525533076" lon="-8.1961688306">
        <ele>45.32</ele>
        <time>2018-12-20T16:04:08Z</time>
      </trkpt>
      <trkpt lat="39.4525604323" lon="-8.1960835028">
        <ele>45.32</ele>
        <time>2018-12-20T16:04:14Z</time>
      </trkpt>
      <trkpt lat="39.4525287487" lon="-8.1960063055">
        <ele>44.36</ele>
        <time>2018-12-20T16:04:20Z</time>
      </trkpt>
      <trkpt lat="39.4525026809" lon="-8.1958584487">
        <ele>42.92</ele>
        <time>2018-12-20T16:04:31Z</time>
      </trkpt>
      <trkpt lat="39.4524933770" lon="-8.1957826763">
        <ele>41.95</ele>
        <time>2018-12-20T16:04:38Z</time>
      </trkpt>
      <trkpt lat="39.4525154214" lon="-8.1956600491">
        <ele>41.95</ele>
        <time>2018-12-20T16:04:46Z</time>
      </trkpt>
      <trkpt lat="39.4525587559" lon="-8.1955117732">
        <ele>41.95</ele>
        <time>2018-12-20T16:04:55Z</time>
      </trkpt>
      <trkpt lat="39.4525895175" lon="-8.1954463106">
        <ele>41.47</ele>
        <time>2018-12-20T16:05:00Z</time>
      </trkpt>
      <trkpt lat="39.4526294153" lon="-8.1953251082">
        <ele>41.47</ele>
        <time>2018-12-20T16:05:10Z</time>
      </trkpt>
      <trkpt lat="39.4526663795" lon="-8.1952071749">
        <ele>41.47</ele>
        <time>2018-12-20T16:05:19Z</time>
      </trkpt>
      <trkpt lat="39.4527017511" lon="-8.1951479986">
        <ele>41.95</ele>
        <time>2018-12-20T16:05:26Z</time>
      </trkpt>
      <trkpt lat="39.4527249690" lon="-8.1951513514">
        <ele>41.47</ele>
        <time>2018-12-20T16:05:29Z</time>
      </trkpt>
      <trkpt lat="39.4527477678" lon="-8.1950518582">
        <ele>41.95</ele>
        <time>2018-12-20T16:05:35Z</time>
      </trkpt>
      <trkpt lat="39.4527651183" lon="-8.1949692126">
        <ele>41.95</ele>
        <time>2018-12-20T16:05:41Z</time>
      </trkpt>
      <trkpt lat="39.4528201036" lon="-8.1948382873">
        <ele>42.44</ele>
        <time>2018-12-20T16:05:51Z</time>
      </trkpt>
      <trkpt lat="39.4528319221" lon="-8.1948132254">
        <ele>41.95</ele>
        <time>2018-12-20T16:05:53Z</time>
      </trkpt>
      <trkpt lat="39.4528907631" lon="-8.1946737505">
        <ele>42.44</ele>
        <time>2018-12-20T16:06:02Z</time>
      </trkpt>
      <trkpt lat="39.4529221952" lon="-8.1945636962">
        <ele>41.95</ele>
        <time>2018-12-20T16:06:11Z</time>
      </trkpt>
      <trkpt lat="39.4529682957" lon="-8.1944638677">
        <ele>41.95</ele>
        <time>2018-12-20T16:06:20Z</time>
      </trkpt>
      <trkpt lat="39.4529979676" lon="-8.1943690684">
        <ele>42.44</ele>
        <time>2018-12-20T16:06:27Z</time>
      </trkpt>
      <trkpt lat="39.4530687947" lon="-8.1942917872">
        <ele>42.44</ele>
        <time>2018-12-20T16:06:37Z</time>
      </trkpt>
      <trkpt lat="39.4531164039" lon="-8.1942782085">
        <ele>42.44</ele>
        <time>2018-12-20T16:06:43Z</time>
      </trkpt>
      <trkpt lat="39.4531834591" lon="-8.1942373049">
        <ele>43.40</ele>
        <time>2018-12-20T16:06:49Z</time>
      </trkpt>
      <trkpt lat="39.4532501791" lon="-8.1941362191">
        <ele>42.92</ele>
        <time>2018-12-20T16:06:58Z</time>
      </trkpt>
      <trkpt lat="39.4532837067" lon="-8.1940556690">
        <ele>42.44</ele>
        <time>2018-12-20T16:07:06Z</time>
      </trkpt>
      <trkpt lat="39.4532627519" lon="-8.1939439382">
        <ele>42.92</ele>
        <time>2018-12-20T16:07:15Z</time>
      </trkpt>
      <trkpt lat="39.4532765821" lon="-8.1938984245">
        <ele>42.92</ele>
        <time>2018-12-20T16:07:22Z</time>
      </trkpt>
      <trkpt lat="39.4533072598" lon="-8.1938828342">
        <ele>43.40</ele>
        <time>2018-12-20T16:07:28Z</time>
      </trkpt>
      <trkpt lat="39.4533810206" lon="-8.1938664895">
        <ele>44.84</ele>
        <time>2018-12-20T16:07:37Z</time>
      </trkpt>
      <trkpt lat="39.4534655940" lon="-8.1938410923">
        <ele>45.32</ele>
        <time>2018-12-20T16:07:45Z</time>
      </trkpt>
      <trkpt lat="39.4535103533" lon="-8.1938206404">
        <ele>45.80</ele>
        <time>2018-12-20T16:07:52Z</time>
      </trkpt>
      <trkpt lat="39.4535672665" lon="-8.1938275136">
        <ele>46.28</ele>
        <time>2018-12-20T16:08:01Z</time>
      </trkpt>
      <trkpt lat="39.4536207430" lon="-8.1938195508">
        <ele>47.24</ele>
        <time>2018-12-20T16:08:08Z</time>
      </trkpt>
      <trkpt lat="39.4536468945" lon="-8.1937997695">
        <ele>48.20</ele>
        <time>2018-12-20T16:08:13Z</time>
      </trkpt>
      <trkpt lat="39.4537256006" lon="-8.1938042119">
        <ele>49.65</ele>
        <time>2018-12-20T16:08:18Z</time>
      </trkpt>
      <trkpt lat="39.4537752215" lon="-8.1938044634">
        <ele>49.65</ele>
        <time>2018-12-20T16:08:24Z</time>
      </trkpt>
      <trkpt lat="39.4538081624" lon="-8.1938047986">
        <ele>50.13</ele>
        <time>2018-12-20T16:08:30Z</time>
      </trkpt>
      <trkpt lat="39.4538484793" lon="-8.1938223168">
        <ele>50.13</ele>
        <time>2018-12-20T16:08:40Z</time>
      </trkpt>
      <trkpt lat="39.4538945798" lon="-8.1938115042">
        <ele>52.05</ele>
        <time>2018-12-20T16:08:46Z</time>
      </trkpt>
      <trkpt lat="39.4539638981" lon="-8.1937970035">
        <ele>52.05</ele>
        <time>2018-12-20T16:08:53Z</time>
      </trkpt>
      <trkpt lat="39.4540133514" lon="-8.1937990151">
        <ele>53.49</ele>
        <time>2018-12-20T16:08:59Z</time>
      </trkpt>
      <trkpt lat="39.4540842623" lon="-8.1937949918">
        <ele>53.97</ele>
        <time>2018-12-20T16:09:07Z</time>
      </trkpt>
      <trkpt lat="39.4541699253" lon="-8.1937809940">
        <ele>54.93</ele>
        <time>2018-12-20T16:09:15Z</time>
      </trkpt>
      <trkpt lat="39.4542662334" lon="-8.1937812455">
        <ele>55.89</ele>
        <time>2018-12-20T16:09:23Z</time>
      </trkpt>
      <trkpt lat="39.4543522317" lon="-8.1937521603">
        <ele>56.86</ele>
        <time>2018-12-20T16:09:32Z</time>
      </trkpt>
      <trkpt lat="39.4544087257" lon="-8.1937336363">
        <ele>57.82</ele>
        <time>2018-12-20T16:09:39Z</time>
      </trkpt>
      <trkpt lat="39.4544704165" lon="-8.1936882064">
        <ele>58.78</ele>
        <time>2018-12-20T16:09:48Z</time>
      </trkpt>
      <trkpt lat="39.4545243960" lon="-8.1936529186">
        <ele>59.74</ele>
        <time>2018-12-20T16:09:56Z</time>
      </trkpt>
      <trkpt lat="39.4545983244" lon="-8.1936534215">
        <ele>60.22</ele>
        <time>2018-12-20T16:10:04Z</time>
      </trkpt>
      <trkpt lat="39.4546753541" lon="-8.1936344784">
        <ele>61.66</ele>
        <time>2018-12-20T16:10:13Z</time>
      </trkpt>
      <trkpt lat="39.4547437504" lon="-8.1936081592">
        <ele>62.14</ele>
        <time>2018-12-20T16:10:22Z</time>
      </trkpt>
      <trkpt lat="39.4548195228" lon="-8.1935960054">
        <ele>62.62</ele>
        <time>2018-12-20T16:10:31Z</time>
      </trkpt>
      <trkpt lat="39.4548308384" lon="-8.1935934909">
        <ele>63.10</ele>
        <time>2018-12-20T16:10:33Z</time>
      </trkpt>
      <trkpt lat="39.4548911881" lon="-8.1935737934">
        <ele>63.58</ele>
        <time>2018-12-20T16:10:41Z</time>
      </trkpt>
      <trkpt lat="39.4549446646" lon="-8.1935568620">
        <ele>64.07</ele>
        <time>2018-12-20T16:10:48Z</time>
      </trkpt>
      <trkpt lat="39.4550372008" lon="-8.1935399305">
        <ele>65.03</ele>
        <time>2018-12-20T16:10:56Z</time>
      </trkpt>
      <trkpt lat="39.4551143982" lon="-8.1935214903">
        <ele>65.03</ele>
        <time>2018-12-20T16:11:03Z</time>
      </trkpt>
      <trkpt lat="39.4551524520" lon="-8.1935157906">
        <ele>65.51</ele>
        <time>2018-12-20T16:11:08Z</time>
      </trkpt>
      <trkpt lat="39.4552174956" lon="-8.1934981048">
        <ele>65.99</ele>
        <time>2018-12-20T16:11:16Z</time>
      </trkpt>
      <trkpt lat="39.4552937709" lon="-8.1935138628">
        <ele>66.95</ele>
        <time>2018-12-20T16:11:23Z</time>
      </trkpt>
      <trkpt lat="39.4553613290" lon="-8.1935458817">
        <ele>66.95</ele>
        <time>2018-12-20T16:11:30Z</time>
      </trkpt>
      <trkpt lat="39.4553989638" lon="-8.1935750507">
        <ele>67.43</ele>
        <time>2018-12-20T16:11:37Z</time>
      </trkpt>
      <trkpt lat="39.4554613251" lon="-8.1936171278">
        <ele>68.39</ele>
        <time>2018-12-20T16:11:45Z</time>
      </trkpt>
      <trkpt lat="39.4555407017" lon="-8.1936486438">
        <ele>68.39</ele>
        <time>2018-12-20T16:11:52Z</time>
      </trkpt>
      <trkpt lat="39.4556117803" lon="-8.1936901342">
        <ele>68.87</ele>
        <time>2018-12-20T16:12:00Z</time>
      </trkpt>
      <trkpt lat="39.4556723814" lon="-8.1937232427">
        <ele>70.31</ele>
        <time>2018-12-20T16:12:07Z</time>
      </trkpt>
      <trkpt lat="39.4557278696" lon="-8.1937751267">
        <ele>70.31</ele>
        <time>2018-12-20T16:12:14Z</time>
      </trkpt>
      <trkpt lat="39.4557918236" lon="-8.1938228197">
        <ele>71.27</ele>
        <time>2018-12-20T16:12:22Z</time>
      </trkpt>
      <trkpt lat="39.4558353256" lon="-8.1938507315">
        <ele>70.79</ele>
        <time>2018-12-20T16:12:28Z</time>
      </trkpt>
      <trkpt lat="39.4558948372" lon="-8.1938679144">
        <ele>71.76</ele>
        <time>2018-12-20T16:12:35Z</time>
      </trkpt>
      <trkpt lat="39.4559472241" lon="-8.1938990112">
        <ele>71.27</ele>
        <time>2018-12-20T16:12:42Z</time>
      </trkpt>
      <trkpt lat="39.4559840206" lon="-8.1939245760">
        <ele>71.76</ele>
        <time>2018-12-20T16:12:49Z</time>
      </trkpt>
      <trkpt lat="39.4559930731" lon="-8.1939325389">
        <ele>70.79</ele>
        <time>2018-12-20T16:12:50Z</time>
      </trkpt>
      <trkpt lat="39.4560787361" lon="-8.1939892843">
        <ele>72.72</ele>
        <time>2018-12-20T16:12:57Z</time>
      </trkpt>
      <trkpt lat="39.4561207294" lon="-8.1940306909">
        <ele>73.68</ele>
        <time>2018-12-20T16:13:03Z</time>
      </trkpt>
      <trkpt lat="39.4561726134" lon="-8.1940731872">
        <ele>74.16</ele>
        <time>2018-12-20T16:13:10Z</time>
      </trkpt>
      <trkpt lat="39.4562346395" lon="-8.1941212993">
        <ele>74.64</ele>
        <time>2018-12-20T16:13:18Z</time>
      </trkpt>
      <trkpt lat="39.4563067239" lon="-8.1941882707">
        <ele>75.12</ele>
        <time>2018-12-20T16:13:27Z</time>
      </trkpt>
      <trkpt lat="39.4563717674" lon="-8.1942254864">
        <ele>76.08</ele>
        <time>2018-12-20T16:13:35Z</time>
      </trkpt>
      <trkpt lat="39.4564122520" lon="-8.1942590140">
        <ele>75.60</ele>
        <time>2018-12-20T16:13:43Z</time>
      </trkpt>
      <trkpt lat="39.4564478751" lon="-8.1943109818">
        <ele>76.56</ele>
        <time>2018-12-20T16:13:50Z</time>
      </trkpt>
      <trkpt lat="39.4564863481" lon="-8.1943485327">
        <ele>77.52</ele>
        <time>2018-12-20T16:13:56Z</time>
      </trkpt>
      <trkpt lat="39.4565377291" lon="-8.1943890173">
        <ele>78.97</ele>
        <time>2018-12-20T16:14:04Z</time>
      </trkpt>
      <trkpt lat="39.4565985817" lon="-8.1944378000">
        <ele>78.48</ele>
        <time>2018-12-20T16:14:11Z</time>
      </trkpt>
      <trkpt lat="39.4566309359" lon="-8.1944684777">
        <ele>78.97</ele>
        <time>2018-12-20T16:14:18Z</time>
      </trkpt>
      <trkpt lat="39.4566430897" lon="-8.1944896840">
        <ele>79.45</ele>
        <time>2018-12-20T16:14:25Z</time>
      </trkpt>
      <trkpt lat="39.4566813949" lon="-8.1944823079">
        <ele>78.97</ele>
        <time>2018-12-20T16:14:36Z</time>
      </trkpt>
      <trkpt lat="39.4567243103" lon="-8.1945440825">
        <ele>79.93</ele>
        <time>2018-12-20T16:14:52Z</time>
      </trkpt>
      <trkpt lat="39.4567260705" lon="-8.1945565715">
        <ele>79.45</ele>
        <time>2018-12-20T16:14:53Z</time>
      </trkpt>
      <trkpt lat="39.4567882642" lon="-8.1946330145">
        <ele>80.41</ele>
        <time>2018-12-20T16:15:01Z</time>
      </trkpt>
      <trkpt lat="39.4568337779" lon="-8.1946876645">
        <ele>81.85</ele>
        <time>2018-12-20T16:15:08Z</time>
      </trkpt>
      <trkpt lat="39.4568921998" lon="-8.1947615091">
        <ele>82.33</ele>
        <time>2018-12-20T16:15:17Z</time>
      </trkpt>
      <trkpt lat="39.4569345284" lon="-8.1948247086">
        <ele>84.25</ele>
        <time>2018-12-20T16:15:25Z</time>
      </trkpt>
      <trkpt lat="39.4569812994" lon="-8.1948747486">
        <ele>84.73</ele>
        <time>2018-12-20T16:15:33Z</time>
      </trkpt>
      <trkpt lat="39.4570206944" lon="-8.1949490961">
        <ele>86.18</ele>
        <time>2018-12-20T16:15:42Z</time>
      </trkpt>
      <trkpt lat="39.4570583291" lon="-8.1949853897">
        <ele>86.66</ele>
        <time>2018-12-20T16:15:48Z</time>
      </trkpt>
      <trkpt lat="39.4571153261" lon="-8.1950239465">
        <ele>87.62</ele>
        <time>2018-12-20T16:15:54Z</time>
      </trkpt>
      <trkpt lat="39.4571607560" lon="-8.1950730644">
        <ele>88.58</ele>
        <time>2018-12-20T16:16:01Z</time>
      </trkpt>
      <trkpt lat="39.4571953733" lon="-8.1951238587">
        <ele>89.06</ele>
        <time>2018-12-20T16:16:08Z</time>
      </trkpt>
      <trkpt lat="39.4572209381" lon="-8.1951459870">
        <ele>90.50</ele>
        <time>2018-12-20T16:16:12Z</time>
      </trkpt>
      <trkpt lat="39.4572489336" lon="-8.1951914169">
        <ele>90.98</ele>
        <time>2018-12-20T16:16:20Z</time>
      </trkpt>
      <trkpt lat="39.4572818745" lon="-8.1952407025">
        <ele>92.42</ele>
        <time>2018-12-20T16:16:27Z</time>
      </trkpt>
      <trkpt lat="39.4573083613" lon="-8.1952703744">
        <ele>93.87</ele>
        <time>2018-12-20T16:16:34Z</time>
      </trkpt>
      <trkpt lat="39.4573387038" lon="-8.1952875573">
        <ele>93.87</ele>
        <time>2018-12-20T16:16:41Z</time>
      </trkpt>
      <trkpt lat="39.4573547971" lon="-8.1953090150">
        <ele>93.39</ele>
        <time>2018-12-20T16:16:47Z</time>
      </trkpt>
      <trkpt lat="39.4573931023" lon="-8.1953384355">
        <ele>93.87</ele>
        <time>2018-12-20T16:16:56Z</time>
      </trkpt>
      <trkpt lat="39.4574191701" lon="-8.1953649223">
        <ele>93.87</ele>
        <time>2018-12-20T16:17:04Z</time>
      </trkpt>
      <trkpt lat="39.4574494287" lon="-8.1953735556">
        <ele>95.31</ele>
        <time>2018-12-20T16:17:10Z</time>
      </trkpt>
      <trkpt lat="39.4575008936" lon="-8.1954142079">
        <ele>96.27</ele>
        <time>2018-12-20T16:17:17Z</time>
      </trkpt>
      <trkpt lat="39.4575521071" lon="-8.1954158004">
        <ele>97.23</ele>
        <time>2018-12-20T16:17:24Z</time>
      </trkpt>
      <trkpt lat="39.4576028176" lon="-8.1954288762">
        <ele>98.19</ele>
        <time>2018-12-20T16:17:30Z</time>
      </trkpt>
      <trkpt lat="39.4576733932" lon="-8.1954453886">
        <ele>99.15</ele>
        <time>2018-12-20T16:17:39Z</time>
      </trkpt>
      <trkpt lat="39.4577384368" lon="-8.1954608951">
        <ele>100.60</ele>
        <time>2018-12-20T16:17:48Z</time>
      </trkpt>
      <trkpt lat="39.4578058273" lon="-8.1954652537">
        <ele>101.56</ele>
        <time>2018-12-20T16:17:56Z</time>
      </trkpt>
      <trkpt lat="39.4578507543" lon="-8.1954640802">
        <ele>102.04</ele>
        <time>2018-12-20T16:18:03Z</time>
      </trkpt>
      <trkpt lat="39.4578974415" lon="-8.1954693608">
        <ele>102.52</ele>
        <time>2018-12-20T16:18:10Z</time>
      </trkpt>
      <trkpt lat="39.4579406921" lon="-8.1954768207">
        <ele>103.48</ele>
        <time>2018-12-20T16:18:18Z</time>
      </trkpt>
      <trkpt lat="39.4579621498" lon="-8.1954616494">
        <ele>103.96</ele>
        <time>2018-12-20T16:18:21Z</time>
      </trkpt>
      <trkpt lat="39.4580142014" lon="-8.1954368390">
        <ele>105.40</ele>
        <time>2018-12-20T16:18:28Z</time>
      </trkpt>
      <trkpt lat="39.4580660854" lon="-8.1954147946">
        <ele>106.36</ele>
        <time>2018-12-20T16:18:35Z</time>
      </trkpt>
      <trkpt lat="39.4581162930" lon="-8.1953818537">
        <ele>106.84</ele>
        <time>2018-12-20T16:18:45Z</time>
      </trkpt>
      <trkpt lat="39.4581654947" lon="-8.1953483261">
        <ele>108.29</ele>
        <time>2018-12-20T16:18:53Z</time>
      </trkpt>
      <trkpt lat="39.4582173787" lon="-8.1953289639">
        <ele>109.25</ele>
        <time>2018-12-20T16:19:01Z</time>
      </trkpt>
      <trkpt lat="39.4582433626" lon="-8.1953154691">
        <ele>109.73</ele>
        <time>2018-12-20T16:19:11Z</time>
      </trkpt>
      <trkpt lat="39.4583011139" lon="-8.1952723861">
        <ele>110.21</ele>
        <time>2018-12-20T16:19:21Z</time>
      </trkpt>
      <trkpt lat="39.4583414309" lon="-8.1952608190">
        <ele>110.69</ele>
        <time>2018-12-20T16:19:31Z</time>
      </trkpt>
      <trkpt lat="39.4583758805" lon="-8.1952396128">
        <ele>111.65</ele>
        <time>2018-12-20T16:19:38Z</time>
      </trkpt>
      <trkpt lat="39.4584641419" lon="-8.1952723023">
        <ele>113.57</ele>
        <time>2018-12-20T16:19:46Z</time>
      </trkpt>
      <trkpt lat="39.4585010223" lon="-8.1953129545">
        <ele>114.05</ele>
        <time>2018-12-20T16:19:52Z</time>
      </trkpt>
      <trkpt lat="39.4585900381" lon="-8.1953590550">
        <ele>113.57</ele>
        <time>2018-12-20T16:20:01Z</time>
      </trkpt>
      <trkpt lat="39.4586327858" lon="-8.1953868829">
        <ele>112.61</ele>
        <time>2018-12-20T16:20:08Z</time>
      </trkpt>
      <trkpt lat="39.4586986676" lon="-8.1954371743">
        <ele>112.13</ele>
        <time>2018-12-20T16:20:16Z</time>
      </trkpt>
      <trkpt lat="39.4587475341" lon="-8.1955103483">
        <ele>113.57</ele>
        <time>2018-12-20T16:20:23Z</time>
      </trkpt>
      <trkpt lat="39.4587839954" lon="-8.1956330594">
        <ele>114.05</ele>
        <time>2018-12-20T16:20:33Z</time>
      </trkpt>
      <trkpt lat="39.4587828219" lon="-8.1957528368">
        <ele>115.01</ele>
        <time>2018-12-20T16:20:43Z</time>
      </trkpt>
      <trkpt lat="39.4587995019" lon="-8.1958733685">
        <ele>115.98</ele>
        <time>2018-12-20T16:20:52Z</time>
      </trkpt>
      <trkpt lat="39.4588711672" lon="-8.1959763821">
        <ele>116.94</ele>
        <time>2018-12-20T16:21:03Z</time>
      </trkpt>
      <trkpt lat="39.4589362945" lon="-8.1960610393">
        <ele>116.94</ele>
        <time>2018-12-20T16:21:11Z</time>
      </trkpt>
      <trkpt lat="39.4589430001" lon="-8.1961324532">
        <ele>117.42</ele>
        <time>2018-12-20T16:21:16Z</time>
      </trkpt>
      <trkpt lat="39.4589492865" lon="-8.1962447707">
        <ele>117.90</ele>
        <time>2018-12-20T16:21:24Z</time>
      </trkpt>
      <trkpt lat="39.4589496218" lon="-8.1963463593">
        <ele>118.38</ele>
        <time>2018-12-20T16:21:32Z</time>
      </trkpt>
      <trkpt lat="39.4589951355" lon="-8.1963609438">
        <ele>119.34</ele>
        <time>2018-12-20T16:21:39Z</time>
      </trkpt>
      <trkpt lat="39.4590042718" lon="-8.1963514723">
        <ele>119.34</ele>
        <time>2018-12-20T16:21:40Z</time>
      </trkpt>
      <trkpt lat="39.4590708241" lon="-8.1962897815">
        <ele>119.34</ele>
        <time>2018-12-20T16:21:46Z</time>
      </trkpt>
      <trkpt lat="39.4591225404" lon="-8.1962370593">
        <ele>118.86</ele>
        <time>2018-12-20T16:21:52Z</time>
      </trkpt>
      <trkpt lat="39.4591857400" lon="-8.1961184554">
        <ele>117.90</ele>
        <time>2018-12-20T16:22:02Z</time>
      </trkpt>
      <trkpt lat="39.4592239615" lon="-8.1959783938">
        <ele>117.42</ele>
        <time>2018-12-20T16:22:13Z</time>
      </trkpt>
      <trkpt lat="39.4592556451" lon="-8.1958688423">
        <ele>116.94</ele>
        <time>2018-12-20T16:22:22Z</time>
      </trkpt>
      <trkpt lat="39.4593097921" lon="-8.1957644038">
        <ele>117.42</ele>
        <time>2018-12-20T16:22:31Z</time>
      </trkpt>
      <trkpt lat="39.4593706448" lon="-8.1957302894">
        <ele>116.94</ele>
        <time>2018-12-20T16:22:38Z</time>
      </trkpt>
      <trkpt lat="39.4594479259" lon="-8.1956566963">
        <ele>117.90</ele>
        <time>2018-12-20T16:22:47Z</time>
      </trkpt>
      <trkpt lat="39.4595397916" lon="-8.1955745537">
        <ele>119.34</ele>
        <time>2018-12-20T16:22:57Z</time>
      </trkpt>
      <trkpt lat="39.4595883228" lon="-8.1955284532">
        <ele>120.78</ele>
        <time>2018-12-20T16:23:04Z</time>
      </trkpt>
      <trkpt lat="39.4596272986" lon="-8.1954766531">
        <ele>121.74</ele>
        <time>2018-12-20T16:23:11Z</time>
      </trkpt>
      <trkpt lat="39.4596721418" lon="-8.1954195723">
        <ele>121.74</ele>
        <time>2018-12-20T16:23:19Z</time>
      </trkpt>
      <trkpt lat="39.4597354252" lon="-8.1954189856">
        <ele>123.19</ele>
        <time>2018-12-20T16:23:28Z</time>
      </trkpt>
      <trkpt lat="39.4597922545" lon="-8.1954147946">
        <ele>124.15</ele>
        <time>2018-12-20T16:23:37Z</time>
      </trkpt>
      <trkpt lat="39.4598355051" lon="-8.1954121124">
        <ele>125.11</ele>
        <time>2018-12-20T16:23:46Z</time>
      </trkpt>
      <trkpt lat="39.4598813541" lon="-8.1953974441">
        <ele>126.55</ele>
        <time>2018-12-20T16:23:54Z</time>
      </trkpt>
      <trkpt lat="39.4599424582" lon="-8.1953916606">
        <ele>127.03</ele>
        <time>2018-12-20T16:24:02Z</time>
      </trkpt>
      <trkpt lat="39.4599707890" lon="-8.1954106875">
        <ele>127.51</ele>
        <time>2018-12-20T16:24:11Z</time>
      </trkpt>
      <trkpt lat="39.4600556139" lon="-8.1954217516">
        <ele>129.43</ele>
        <time>2018-12-20T16:24:20Z</time>
      </trkpt>
      <trkpt lat="39.4600813463" lon="-8.1954110228">
        <ele>129.43</ele>
        <time>2018-12-20T16:24:22Z</time>
      </trkpt>
      <trkpt lat="39.4601549394" lon="-8.1953940913">
        <ele>131.36</ele>
        <time>2018-12-20T16:24:30Z</time>
      </trkpt>
      <trkpt lat="39.4602002855" lon="-8.1954292115">
        <ele>131.36</ele>
        <time>2018-12-20T16:24:38Z</time>
      </trkpt>
      <trkpt lat="39.4602341484" lon="-8.1954499148">
        <ele>132.32</ele>
        <time>2018-12-20T16:24:46Z</time>
      </trkpt>
      <trkpt lat="39.4602826796" lon="-8.1953978632">
        <ele>133.76</ele>
        <time>2018-12-20T16:24:54Z</time>
      </trkpt>
      <trkpt lat="39.4603228290" lon="-8.1953179836">
        <ele>133.76</ele>
        <time>2018-12-20T16:25:02Z</time>
      </trkpt>
      <trkpt lat="39.4603549317" lon="-8.1952650938">
        <ele>133.76</ele>
        <time>2018-12-20T16:25:07Z</time>
      </trkpt>
      <trkpt lat="39.4603785686" lon="-8.1951643433">
        <ele>134.72</ele>
        <time>2018-12-20T16:25:15Z</time>
      </trkpt>
      <trkpt lat="39.4603997748" lon="-8.1951340847">
        <ele>134.72</ele>
        <time>2018-12-20T16:25:22Z</time>
      </trkpt>
      <trkpt lat="39.4604602922" lon="-8.1951275468">
        <ele>135.68</ele>
        <time>2018-12-20T16:25:30Z</time>
      </trkpt>
      <trkpt lat="39.4605124276" lon="-8.1951654330">
        <ele>136.64</ele>
        <time>2018-12-20T16:25:38Z</time>
      </trkpt>
      <trkpt lat="39.4605663233" lon="-8.1951805204">
        <ele>137.13</ele>
        <time>2018-12-20T16:25:46Z</time>
      </trkpt>
      <trkpt lat="39.4606056344" lon="-8.1951994635">
        <ele>137.13</ele>
        <time>2018-12-20T16:25:53Z</time>
      </trkpt>
      <trkpt lat="39.4606392458" lon="-8.1952224299">
        <ele>137.13</ele>
        <time>2018-12-20T16:26:00Z</time>
      </trkpt>
      <trkpt lat="39.4606957398" lon="-8.1952683628">
        <ele>139.53</ele>
        <time>2018-12-20T16:26:10Z</time>
      </trkpt>
      <trkpt lat="39.4607477915" lon="-8.1953115296">
        <ele>140.01</ele>
        <time>2018-12-20T16:26:19Z</time>
      </trkpt>
      <trkpt lat="39.4607758708" lon="-8.1953084283">
        <ele>140.49</ele>
        <time>2018-12-20T16:26:28Z</time>
      </trkpt>
      <trkpt lat="39.4607648067" lon="-8.1953032315">
        <ele>140.49</ele>
        <time>2018-12-20T16:26:31Z</time>
      </trkpt>
      <trkpt lat="39.4608137570" lon="-8.1953483261">
        <ele>140.49</ele>
        <time>2018-12-20T16:26:38Z</time>
      </trkpt>
      <trkpt lat="39.4608513080" lon="-8.1953985337">
        <ele>142.41</ele>
        <time>2018-12-20T16:26:46Z</time>
      </trkpt>
      <trkpt lat="39.4608881883" lon="-8.1954079214">
        <ele>143.37</ele>
        <time>2018-12-20T16:26:52Z</time>
      </trkpt>
      <trkpt lat="39.4609292597" lon="-8.1954503339">
        <ele>144.82</ele>
        <time>2018-12-20T16:27:00Z</time>
      </trkpt>
      <trkpt lat="39.4609670620" lon="-8.1954878010">
        <ele>145.30</ele>
        <time>2018-12-20T16:27:08Z</time>
      </trkpt>
      <trkpt lat="39.4609773718" lon="-8.1955064088">
        <ele>146.26</ele>
        <time>2018-12-20T16:27:11Z</time>
      </trkpt>
      <trkpt lat="39.4609937165" lon="-8.1955295429">
        <ele>146.74</ele>
        <time>2018-12-20T16:27:21Z</time>
      </trkpt>
      <trkpt lat="39.4610100612" lon="-8.1955626514">
        <ele>146.74</ele>
        <time>2018-12-20T16:27:38Z</time>
      </trkpt>
      <trkpt lat="39.4610393979" lon="-8.1955897249">
        <ele>147.70</ele>
        <time>2018-12-20T16:27:46Z</time>
      </trkpt>
      <trkpt lat="39.4610902760" lon="-8.1956333108">
        <ele>149.62</ele>
        <time>2018-12-20T16:27:54Z</time>
      </trkpt>
      <trkpt lat="39.4611505419" lon="-8.1956897210">
        <ele>150.58</ele>
        <time>2018-12-20T16:28:06Z</time>
      </trkpt>
      <trkpt lat="39.4612303376" lon="-8.1957123522">
        <ele>151.54</ele>
        <time>2018-12-20T16:28:15Z</time>
      </trkpt>
      <trkpt lat="39.4612824731" lon="-8.1957499869">
        <ele>152.51</ele>
        <time>2018-12-20T16:28:24Z</time>
      </trkpt>
      <trkpt lat="39.4613142405" lon="-8.1957908906">
        <ele>153.95</ele>
        <time>2018-12-20T16:28:31Z</time>
      </trkpt>
      <trkpt lat="39.4613000751" lon="-8.1958978437">
        <ele>153.47</ele>
        <time>2018-12-20T16:28:39Z</time>
      </trkpt>
      <trkpt lat="39.4612797070" lon="-8.1959530804">
        <ele>154.43</ele>
        <time>2018-12-20T16:28:47Z</time>
      </trkpt>
      <trkpt lat="39.4612844847" lon="-8.1960179564">
        <ele>155.39</ele>
        <time>2018-12-20T16:28:54Z</time>
      </trkpt>
      <trkpt lat="39.4613176771" lon="-8.1960818265">
        <ele>155.39</ele>
        <time>2018-12-20T16:29:01Z</time>
      </trkpt>
      <trkpt lat="39.4613383804" lon="-8.1961781345">
        <ele>156.83</ele>
        <time>2018-12-20T16:29:10Z</time>
      </trkpt>
      <trkpt lat="39.4613517914" lon="-8.1962397415">
        <ele>157.31</ele>
        <time>2018-12-20T16:29:17Z</time>
      </trkpt>
      <trkpt lat="39.4613665435" lon="-8.1962757837">
        <ele>157.31</ele>
        <time>2018-12-20T16:29:22Z</time>
      </trkpt>
      <trkpt lat="39.4615128078" lon="-8.1963386480">
        <ele>158.27</ele>
        <time>2018-12-20T16:29:29Z</time>
      </trkpt>
      <trkpt lat="39.4616893306" lon="-8.1964217126">
        <ele>159.24</ele>
        <time>2018-12-20T16:29:40Z</time>
      </trkpt>
      <trkpt lat="39.4616941083" lon="-8.1964878459">
        <ele>160.20</ele>
        <time>2018-12-20T16:29:48Z</time>
      </trkpt>
      <trkpt lat="39.4617330842" lon="-8.1965585053">
        <ele>162.12</ele>
        <time>2018-12-20T16:29:57Z</time>
      </trkpt>
      <trkpt lat="39.4617467467" lon="-8.1966101378">
        <ele>161.64</ele>
        <time>2018-12-20T16:30:03Z</time>
      </trkpt>
      <trkpt lat="39.4617627561" lon="-8.1966693141">
        <ele>162.60</ele>
        <time>2018-12-20T16:30:10Z</time>
      </trkpt>
      <trkpt lat="39.4617654383" lon="-8.1966972258">
        <ele>162.60</ele>
        <time>2018-12-20T16:30:16Z</time>
      </trkpt>
      <trkpt lat="39.4618648477" lon="-8.1967479363">
        <ele>163.08</ele>
        <time>2018-12-20T16:30:25Z</time>
      </trkpt>
      <trkpt lat="39.4619121216" lon="-8.1967866607">
        <ele>162.60</ele>
        <time>2018-12-20T16:30:32Z</time>
      </trkpt>
      <trkpt lat="39.4619292207" lon="-8.1968201045">
        <ele>162.60</ele>
        <time>2018-12-20T16:30:36Z</time>
      </trkpt>
      <trkpt lat="39.4619930908" lon="-8.1968657020">
        <ele>162.12</ele>
        <time>2018-12-20T16:30:42Z</time>
      </trkpt>
      <trkpt lat="39.4620542787" lon="-8.1969182566">
        <ele>162.12</ele>
        <time>2018-12-20T16:30:48Z</time>
      </trkpt>
      <trkpt lat="39.4620919134" lon="-8.1970306579">
        <ele>161.16</ele>
        <time>2018-12-20T16:30:56Z</time>
      </trkpt>
      <trkpt lat="39.4621748105" lon="-8.1971430592">
        <ele>160.68</ele>
        <time>2018-12-20T16:31:08Z</time>
      </trkpt>
      <trkpt lat="39.4622323103" lon="-8.1971687078">
        <ele>159.72</ele>
        <time>2018-12-20T16:31:15Z</time>
      </trkpt>
      <trkpt lat="39.4622830208" lon="-8.1972789299">
        <ele>158.27</ele>
        <time>2018-12-20T16:31:26Z</time>
      </trkpt>
      <trkpt lat="39.4622876309" lon="-8.1972901616">
        <ele>158.27</ele>
        <time>2018-12-20T16:31:27Z</time>
      </trkpt>
      <trkpt lat="39.4623174705" lon="-8.1973229349">
        <ele>157.79</ele>
        <time>2018-12-20T16:31:30Z</time>
      </trkpt>
      <trkpt lat="39.4624047261" lon="-8.1973998807">
        <ele>156.83</ele>
        <time>2018-12-20T16:31:37Z</time>
      </trkpt>
      <trkpt lat="39.4624857791" lon="-8.1974282116">
        <ele>156.35</ele>
        <time>2018-12-20T16:31:45Z</time>
      </trkpt>
      <trkpt lat="39.4624749664" lon="-8.1974235177">
        <ele>156.35</ele>
        <time>2018-12-20T16:31:51Z</time>
      </trkpt>
      <trkpt lat="39.4625456259" lon="-8.1973508466">
        <ele>157.31</ele>
        <time>2018-12-20T16:31:59Z</time>
      </trkpt>
      <trkpt lat="39.4626201410" lon="-8.1973348372">
        <ele>157.79</ele>
        <time>2018-12-20T16:32:09Z</time>
      </trkpt>
      <trkpt lat="39.4626771379" lon="-8.1974145491">
        <ele>157.31</ele>
        <time>2018-12-20T16:32:18Z</time>
      </trkpt>
      <trkpt lat="39.4627045467" lon="-8.1974787544">
        <ele>157.31</ele>
        <time>2018-12-20T16:32:26Z</time>
      </trkpt>
      <trkpt lat="39.4626972545" lon="-8.1975681894">
        <ele>158.27</ele>
        <time>2018-12-20T16:32:37Z</time>
      </trkpt>
      <trkpt lat="39.4627728593" lon="-8.1975360028">
        <ele>158.27</ele>
        <time>2018-12-20T16:32:44Z</time>
      </trkpt>
      <trkpt lat="39.4628476258" lon="-8.1975130364">
        <ele>158.27</ele>
        <time>2018-12-20T16:32:51Z</time>
      </trkpt>
      <trkpt lat="39.4628799800" lon="-8.1974950992">
        <ele>158.75</ele>
        <time>2018-12-20T16:32:54Z</time>
      </trkpt>
      <trkpt lat="39.4629664812" lon="-8.1974617392">
        <ele>159.24</ele>
        <time>2018-12-20T16:33:02Z</time>
      </trkpt>
      <trkpt lat="39.4630275853" lon="-8.1974154711">
        <ele>159.24</ele>
        <time>2018-12-20T16:33:09Z</time>
      </trkpt>
      <trkpt lat="39.4630998373" lon="-8.1973543670">
        <ele>159.24</ele>
        <time>2018-12-20T16:33:17Z</time>
      </trkpt>
      <trkpt lat="39.4632676430" lon="-8.1972756609">
        <ele>159.72</ele>
        <time>2018-12-20T16:33:29Z</time>
      </trkpt>
      <trkpt lat="39.4633156713" lon="-8.1971410476">
        <ele>160.20</ele>
        <time>2018-12-20T16:33:39Z</time>
      </trkpt>
      <trkpt lat="39.4633520488" lon="-8.1970620062">
        <ele>160.68</ele>
        <time>2018-12-20T16:33:48Z</time>
      </trkpt>
      <trkpt lat="39.4634605944" lon="-8.1969280634">
        <ele>161.16</ele>
        <time>2018-12-20T16:33:58Z</time>
      </trkpt>
      <trkpt lat="39.4634489436" lon="-8.1968403049">
        <ele>161.64</ele>
        <time>2018-12-20T16:34:04Z</time>
      </trkpt>
      <trkpt lat="39.4634427410" lon="-8.1967506185">
        <ele>161.64</ele>
        <time>2018-12-20T16:34:12Z</time>
      </trkpt>
      <trkpt lat="39.4634586666" lon="-8.1967522949">
        <ele>162.60</ele>
        <time>2018-12-20T16:34:20Z</time>
      </trkpt>
      <trkpt lat="39.4634630252" lon="-8.1967808772">
        <ele>162.12</ele>
        <time>2018-12-20T16:34:30Z</time>
      </trkpt>
      <trkpt lat="39.4634616002" lon="-8.1967866607">
        <ele>162.60</ele>
        <time>2018-12-20T16:34:42Z</time>
      </trkpt>
      <trkpt lat="39.4634777773" lon="-8.1967805419">
        <ele>162.60</ele>
        <time>2018-12-20T16:34:51Z</time>
      </trkpt>
      <trkpt lat="39.4634648692" lon="-8.1967951264">
        <ele>162.60</ele>
        <time>2018-12-20T16:35:03Z</time>
      </trkpt>
      <trkpt lat="39.4635012466" lon="-8.1967698131">
        <ele>162.60</ele>
        <time>2018-12-20T16:35:18Z</time>
      </trkpt>
      <trkpt lat="39.4634808786" lon="-8.1967880018">
        <ele>162.12</ele>
        <time>2018-12-20T16:35:27Z</time>
      </trkpt>
      <trkpt lat="39.4635128975" lon="-8.1967512891">
        <ele>162.60</ele>
        <time>2018-12-20T16:35:38Z</time>
      </trkpt>
      <trkpt lat="39.4634573255" lon="-8.1968384609">
        <ele>162.12</ele>
        <time>2018-12-20T16:35:49Z</time>
      </trkpt>
      <trkpt lat="39.4633561559" lon="-8.1969950348">
        <ele>161.64</ele>
        <time>2018-12-20T16:36:00Z</time>
      </trkpt>
      <trkpt lat="39.4633015897" lon="-8.1970936060">
        <ele>161.64</ele>
        <time>2018-12-20T16:36:09Z</time>
      </trkpt>
      <trkpt lat="39.4632442575" lon="-8.1971951108">
        <ele>161.16</ele>
        <time>2018-12-20T16:36:21Z</time>
      </trkpt>
      <trkpt lat="39.4632019289" lon="-8.1972113717">
        <ele>161.16</ele>
        <time>2018-12-20T16:36:28Z</time>
      </trkpt>
      <trkpt lat="39.4631783757" lon="-8.1972321589">
        <ele>160.68</ele>
        <time>2018-12-20T16:36:31Z</time>
      </trkpt>
      <trkpt lat="39.4631246477" lon="-8.1973729748">
        <ele>159.72</ele>
        <time>2018-12-20T16:36:43Z</time>
      </trkpt>
      <trkpt lat="39.4631652161" lon="-8.1974739768">
        <ele>160.68</ele>
        <time>2018-12-20T16:36:53Z</time>
      </trkpt>
      <trkpt lat="39.4631641265" lon="-8.1974977814">
        <ele>161.16</ele>
        <time>2018-12-20T16:36:59Z</time>
      </trkpt>
      <trkpt lat="39.4632059522" lon="-8.1974826939">
        <ele>161.64</ele>
        <time>2018-12-20T16:37:06Z</time>
      </trkpt>
      <trkpt lat="39.4632600155" lon="-8.1974395271">
        <ele>163.08</ele>
        <time>2018-12-20T16:37:14Z</time>
      </trkpt>
      <trkpt lat="39.4633262325" lon="-8.1974163931">
        <ele>164.04</ele>
        <time>2018-12-20T16:37:22Z</time>
      </trkpt>
      <trkpt lat="39.4635045994" lon="-8.1973598991">
        <ele>164.52</ele>
        <time>2018-12-20T16:37:34Z</time>
      </trkpt>
      <trkpt lat="39.4636110496" lon="-8.1973818596">
        <ele>165.48</ele>
        <time>2018-12-20T16:37:43Z</time>
      </trkpt>
      <trkpt lat="39.4637058489" lon="-8.1973184086">
        <ele>165.96</ele>
        <time>2018-12-20T16:37:54Z</time>
      </trkpt>
      <trkpt lat="39.4637587387" lon="-8.1973306462">
        <ele>167.41</ele>
        <time>2018-12-20T16:38:02Z</time>
      </trkpt>
      <trkpt lat="39.4638655242" lon="-8.1973082665">
        <ele>167.89</ele>
        <time>2018-12-20T16:38:11Z</time>
      </trkpt>
      <trkpt lat="39.4639925938" lon="-8.1973113678">
        <ele>168.85</ele>
        <time>2018-12-20T16:38:21Z</time>
      </trkpt>
      <trkpt lat="39.4640948530" lon="-8.1973472424">
        <ele>169.81</ele>
        <time>2018-12-20T16:38:30Z</time>
      </trkpt>
      <trkpt lat="39.4642234314" lon="-8.1973453145">
        <ele>170.77</ele>
        <time>2018-12-20T16:38:41Z</time>
      </trkpt>
      <trkpt lat="39.4643166382" lon="-8.1973936781">
        <ele>171.73</ele>
        <time>2018-12-20T16:38:48Z</time>
      </trkpt>
      <trkpt lat="39.4643980265" lon="-8.1973839551">
        <ele>172.21</ele>
        <time>2018-12-20T16:38:57Z</time>
      </trkpt>
      <trkpt lat="39.4644105155" lon="-8.1974826101">
        <ele>173.66</ele>
        <time>2018-12-20T16:39:06Z</time>
      </trkpt>
      <trkpt lat="39.4643826038" lon="-8.1975559518">
        <ele>174.14</ele>
        <time>2018-12-20T16:39:16Z</time>
      </trkpt>
      <trkpt lat="39.4643684383" lon="-8.1976166368">
        <ele>175.58</ele>
        <time>2018-12-20T16:39:25Z</time>
      </trkpt>
      <trkpt lat="39.4643448852" lon="-8.1976941694">
        <ele>176.06</ele>
        <time>2018-12-20T16:39:34Z</time>
      </trkpt>
      <trkpt lat="39.4643044844" lon="-8.1977630686">
        <ele>177.02</ele>
        <time>2018-12-20T16:39:42Z</time>
      </trkpt>
      <trkpt lat="39.4642720465" lon="-8.1978259329">
        <ele>177.98</ele>
        <time>2018-12-20T16:39:49Z</time>
      </trkpt>
      <trkpt lat="39.4642257784" lon="-8.1979241688">
        <ele>177.98</ele>
        <time>2018-12-20T16:39:56Z</time>
      </trkpt>
      <trkpt lat="39.4641967770" lon="-8.1980919745">
        <ele>179.42</ele>
        <time>2018-12-20T16:40:08Z</time>
      </trkpt>
      <trkpt lat="39.4641704578" lon="-8.1981724408">
        <ele>180.87</ele>
        <time>2018-12-20T16:40:15Z</time>
      </trkpt>
      <trkpt lat="39.4641271234" lon="-8.1982180383">
        <ele>180.87</ele>
        <time>2018-12-20T16:40:26Z</time>
      </trkpt>
      <trkpt lat="39.4641294703" lon="-8.1981738657">
        <ele>181.35</ele>
        <time>2018-12-20T16:40:43Z</time>
      </trkpt>
      <trkpt lat="39.4641051628" lon="-8.1982528232">
        <ele>180.87</ele>
        <time>2018-12-20T16:40:58Z</time>
      </trkpt>
      <trkpt lat="39.4641024806" lon="-8.1983287632">
        <ele>181.83</ele>
        <time>2018-12-20T16:41:05Z</time>
      </trkpt>
      <trkpt lat="39.4641221780" lon="-8.1983705889">
        <ele>181.35</ele>
        <time>2018-12-20T16:41:09Z</time>
      </trkpt>
      <trkpt lat="39.4641827792" lon="-8.1984564196">
        <ele>181.35</ele>
        <time>2018-12-20T16:41:16Z</time>
      </trkpt>
      <trkpt lat="39.4642175641" lon="-8.1985357124">
        <ele>180.87</ele>
        <time>2018-12-20T16:41:22Z</time>
      </trkpt>
      <trkpt lat="39.4642467331" lon="-8.1986135803">
        <ele>180.38</ele>
        <time>2018-12-20T16:41:27Z</time>
      </trkpt>
      <trkpt lat="39.4642634969" lon="-8.1986368820">
        <ele>180.38</ele>
        <time>2018-12-20T16:41:29Z</time>
      </trkpt>
      <trkpt lat="39.4643028080" lon="-8.1987693999">
        <ele>180.38</ele>
        <time>2018-12-20T16:41:39Z</time>
      </trkpt>
      <trkpt lat="39.4643055741" lon="-8.1987934560">
        <ele>179.90</ele>
        <time>2018-12-20T16:41:41Z</time>
      </trkpt>
      <trkpt lat="39.4643389340" lon="-8.1989098806">
        <ele>179.42</ele>
        <time>2018-12-20T16:41:51Z</time>
      </trkpt>
      <trkpt lat="39.4643983617" lon="-8.1989805400">
        <ele>178.94</ele>
        <time>2018-12-20T16:41:59Z</time>
      </trkpt>
      <trkpt lat="39.4644743856" lon="-8.1990044285">
        <ele>178.46</ele>
        <time>2018-12-20T16:42:06Z</time>
      </trkpt>
      <trkpt lat="39.4645229168" lon="-8.1990728248">
        <ele>177.50</ele>
        <time>2018-12-20T16:42:13Z</time>
      </trkpt>
      <trkpt lat="39.4645263534" lon="-8.1991325878">
        <ele>178.46</ele>
        <time>2018-12-20T16:42:19Z</time>
      </trkpt>
      <trkpt lat="39.4645061530" lon="-8.1992713083">
        <ele>177.98</ele>
        <time>2018-12-20T16:42:26Z</time>
      </trkpt>
      <trkpt lat="39.4644651655" lon="-8.1994107831">
        <ele>178.46</ele>
        <time>2018-12-20T16:42:33Z</time>
      </trkpt>
      <trkpt lat="39.4644014630" lon="-8.1995984539">
        <ele>178.94</ele>
        <time>2018-12-20T16:42:40Z</time>
      </trkpt>
      <trkpt lat="39.4643533509" lon="-8.1997390185">
        <ele>178.94</ele>
        <time>2018-12-20T16:42:48Z</time>
      </trkpt>
      <trkpt lat="39.4643269479" lon="-8.1997901481">
        <ele>179.42</ele>
        <time>2018-12-20T16:42:55Z</time>
      </trkpt>
      <trkpt lat="39.4643220026" lon="-8.1998197362">
        <ele>179.42</ele>
        <time>2018-12-20T16:43:02Z</time>
      </trkpt>
      <trkpt lat="39.4643070828" lon="-8.1998702791">
        <ele>179.90</ele>
        <time>2018-12-20T16:43:08Z</time>
      </trkpt>
      <trkpt lat="39.4642495830" lon="-8.2000308763">
        <ele>180.38</ele>
        <time>2018-12-20T16:43:17Z</time>
      </trkpt>
      <trkpt lat="39.4641909096" lon="-8.2001461275">
        <ele>180.87</ele>
        <time>2018-12-20T16:43:25Z</time>
      </trkpt>
      <trkpt lat="39.4641003013" lon="-8.2002455369">
        <ele>180.38</ele>
        <time>2018-12-20T16:43:35Z</time>
      </trkpt>
      <trkpt lat="39.4640874770" lon="-8.2003125083">
        <ele>179.90</ele>
        <time>2018-12-20T16:43:44Z</time>
      </trkpt>
      <trkpt lat="39.4640871417" lon="-8.2003446110">
        <ele>180.87</ele>
        <time>2018-12-20T16:43:50Z</time>
      </trkpt>
      <trkpt lat="39.4640733954" lon="-8.2004296873">
        <ele>180.38</ele>
        <time>2018-12-20T16:43:57Z</time>
      </trkpt>
      <trkpt lat="39.4640754070" lon="-8.2005289290">
        <ele>180.87</ele>
        <time>2018-12-20T16:44:07Z</time>
      </trkpt>
      <trkpt lat="39.4640708808" lon="-8.2006541546">
        <ele>180.87</ele>
        <time>2018-12-20T16:44:14Z</time>
      </trkpt>
      <trkpt lat="39.4641130418" lon="-8.2007439248">
        <ele>179.90</ele>
        <time>2018-12-20T16:44:23Z</time>
      </trkpt>
      <trkpt lat="39.4640996307" lon="-8.2008796278">
        <ele>179.42</ele>
        <time>2018-12-20T16:44:32Z</time>
      </trkpt>
      <trkpt lat="39.4641067553" lon="-8.2009246387">
        <ele>179.42</ele>
        <time>2018-12-20T16:44:38Z</time>
      </trkpt>
      <trkpt lat="39.4641433842" lon="-8.2008968946">
        <ele>178.46</ele>
        <time>2018-12-20T16:44:45Z</time>
      </trkpt>
      <trkpt lat="39.4641437195" lon="-8.2009258959">
        <ele>178.94</ele>
        <time>2018-12-20T16:44:52Z</time>
      </trkpt>
      <trkpt lat="39.4641570468" lon="-8.2009705715">
        <ele>178.46</ele>
        <time>2018-12-20T16:44:56Z</time>
      </trkpt>
      <trkpt lat="39.4642199110" lon="-8.2009990700">
        <ele>178.94</ele>
        <time>2018-12-20T16:45:03Z</time>
      </trkpt>
      <trkpt lat="39.4642453920" lon="-8.2010116428">
        <ele>178.94</ele>
        <time>2018-12-20T16:45:12Z</time>
      </trkpt>
      <trkpt lat="39.4642629102" lon="-8.2009269856">
        <ele>178.46</ele>
        <time>2018-12-20T16:45:25Z</time>
      </trkpt>
      <trkpt lat="39.4642003812" lon="-8.2010548096">
        <ele>177.98</ele>
        <time>2018-12-20T16:45:36Z</time>
      </trkpt>
      <trkpt lat="39.4642335735" lon="-8.2011371199">
        <ele>177.50</ele>
        <time>2018-12-20T16:45:43Z</time>
      </trkpt>
      <trkpt lat="39.4642593898" lon="-8.2011527102">
        <ele>176.54</ele>
        <time>2018-12-20T16:45:50Z</time>
      </trkpt>
      <trkpt lat="39.4642603956" lon="-8.2012366131">
        <ele>175.58</ele>
        <time>2018-12-20T16:45:57Z</time>
      </trkpt>
      <trkpt lat="39.4642380998" lon="-8.2013469189">
        <ele>175.10</ele>
        <time>2018-12-20T16:46:06Z</time>
      </trkpt>
      <trkpt lat="39.4642560370" lon="-8.2014297321">
        <ele>174.62</ele>
        <time>2018-12-20T16:46:13Z</time>
      </trkpt>
      <trkpt lat="39.4643091783" lon="-8.2015174907">
        <ele>174.62</ele>
        <time>2018-12-20T16:46:21Z</time>
      </trkpt>
      <trkpt lat="39.4643421192" lon="-8.2016210910">
        <ele>174.62</ele>
        <time>2018-12-20T16:46:29Z</time>
      </trkpt>
      <trkpt lat="39.4643713720" lon="-8.2017467357">
        <ele>174.14</ele>
        <time>2018-12-20T16:46:37Z</time>
      </trkpt>
      <trkpt lat="39.4643623196" lon="-8.2018711232">
        <ele>174.14</ele>
        <time>2018-12-20T16:46:45Z</time>
      </trkpt>
      <trkpt lat="39.4643589668" lon="-8.2019385975">
        <ele>173.66</ele>
        <time>2018-12-20T16:46:49Z</time>
      </trkpt>
      <trkpt lat="39.4643408619" lon="-8.2020607218">
        <ele>173.17</ele>
        <time>2018-12-20T16:46:57Z</time>
      </trkpt>
      <trkpt lat="39.4643358327" lon="-8.2020933274">
        <ele>173.17</ele>
        <time>2018-12-20T16:47:04Z</time>
      </trkpt>
      <trkpt lat="39.4642825238" lon="-8.2021608017">
        <ele>172.69</ele>
        <time>2018-12-20T16:47:14Z</time>
      </trkpt>
      <trkpt lat="39.4642568752" lon="-8.2022498176">
        <ele>172.69</ele>
        <time>2018-12-20T16:47:21Z</time>
      </trkpt>
      <trkpt lat="39.4642416202" lon="-8.2023001090">
        <ele>173.17</ele>
        <time>2018-12-20T16:47:25Z</time>
      </trkpt>
      <trkpt lat="39.4642211683" lon="-8.2023996022">
        <ele>172.21</ele>
        <time>2018-12-20T16:47:36Z</time>
      </trkpt>
      <trkpt lat="39.4642261136" lon="-8.2024713513">
        <ele>172.21</ele>
        <time>2018-12-20T16:47:48Z</time>
      </trkpt>
      <trkpt lat="39.4641879760" lon="-8.2025585230">
        <ele>172.21</ele>
        <time>2018-12-20T16:47:56Z</time>
      </trkpt>
      <trkpt lat="39.4641422946" lon="-8.2027199585">
        <ele>171.73</ele>
        <time>2018-12-20T16:48:06Z</time>
      </trkpt>
      <trkpt lat="39.4641123712" lon="-8.2028546557">
        <ele>171.73</ele>
        <time>2018-12-20T16:48:16Z</time>
      </trkpt>
      <trkpt lat="39.4640911650" lon="-8.2029836532">
        <ele>171.73</ele>
        <time>2018-12-20T16:48:24Z</time>
      </trkpt>
      <trkpt lat="39.4640889019" lon="-8.2031099685">
        <ele>171.73</ele>
        <time>2018-12-20T16:48:33Z</time>
      </trkpt>
      <trkpt lat="39.4640757423" lon="-8.2032179274">
        <ele>171.73</ele>
        <time>2018-12-20T16:48:42Z</time>
      </trkpt>
      <trkpt lat="39.4640798494" lon="-8.2033150736">
        <ele>171.25</ele>
        <time>2018-12-20T16:48:49Z</time>
      </trkpt>
      <trkpt lat="39.4640806038" lon="-8.2034040056">
        <ele>171.25</ele>
        <time>2018-12-20T16:48:54Z</time>
      </trkpt>
      <trkpt lat="39.4640818611" lon="-8.2035024092">
        <ele>172.21</ele>
        <time>2018-12-20T16:49:02Z</time>
      </trkpt>
      <trkpt lat="39.4640864711" lon="-8.2036669459">
        <ele>171.25</ele>
        <time>2018-12-20T16:49:11Z</time>
      </trkpt>
      <trkpt lat="39.4640821964" lon="-8.2038004696">
        <ele>171.25</ele>
        <time>2018-12-20T16:49:20Z</time>
      </trkpt>
      <trkpt lat="39.4640589785" lon="-8.2039514277">
        <ele>170.77</ele>
        <time>2018-12-20T16:49:30Z</time>
      </trkpt>
      <trkpt lat="39.4640768319" lon="-8.2040052395">
        <ele>171.25</ele>
        <time>2018-12-20T16:49:37Z</time>
      </trkpt>
      <trkpt lat="39.4640721381" lon="-8.2040480711">
        <ele>171.73</ele>
        <time>2018-12-20T16:49:46Z</time>
      </trkpt>
      <trkpt lat="39.4640356768" lon="-8.2041582093">
        <ele>171.25</ele>
        <time>2018-12-20T16:49:54Z</time>
      </trkpt>
      <trkpt lat="39.4640044961" lon="-8.2042855304">
        <ele>170.77</ele>
        <time>2018-12-20T16:50:03Z</time>
      </trkpt>
      <trkpt lat="39.4639897440" lon="-8.2043021265">
        <ele>171.25</ele>
        <time>2018-12-20T16:50:05Z</time>
      </trkpt>
      <trkpt lat="39.4638940226" lon="-8.2044154499">
        <ele>170.77</ele>
        <time>2018-12-20T16:50:16Z</time>
      </trkpt>
      <trkpt lat="39.4638130534" lon="-8.2045208942">
        <ele>170.77</ele>
        <time>2018-12-20T16:50:25Z</time>
      </trkpt>
      <trkpt lat="39.4637379516" lon="-8.2046283502">
        <ele>170.77</ele>
        <time>2018-12-20T16:50:34Z</time>
      </trkpt>
      <trkpt lat="39.4636959583" lon="-8.2046906278">
        <ele>170.29</ele>
        <time>2018-12-20T16:50:40Z</time>
      </trkpt>
      <trkpt lat="39.4636311661" lon="-8.2047800627">
        <ele>170.29</ele>
        <time>2018-12-20T16:50:49Z</time>
      </trkpt>
      <trkpt lat="39.4635817129" lon="-8.2048570085">
        <ele>170.29</ele>
        <time>2018-12-20T16:50:58Z</time>
      </trkpt>
      <trkpt lat="39.4635577407" lon="-8.2049284223">
        <ele>170.29</ele>
        <time>2018-12-20T16:51:04Z</time>
      </trkpt>
      <trkpt lat="39.4635002408" lon="-8.2050166000">
        <ele>169.81</ele>
        <time>2018-12-20T16:51:12Z</time>
      </trkpt>
      <trkpt lat="39.4634498656" lon="-8.2050835714">
        <ele>169.33</ele>
        <time>2018-12-20T16:51:21Z</time>
      </trkpt>
      <trkpt lat="39.4634266477" lon="-8.2051449269">
        <ele>168.85</ele>
        <time>2018-12-20T16:51:28Z</time>
      </trkpt>
      <trkpt lat="39.4633766916" lon="-8.2052507903">
        <ele>168.37</ele>
        <time>2018-12-20T16:51:36Z</time>
      </trkpt>
      <trkpt lat="39.4633522164" lon="-8.2053081226">
        <ele>168.37</ele>
        <time>2018-12-20T16:51:40Z</time>
      </trkpt>
      <trkpt lat="39.4633050263" lon="-8.2053926121">
        <ele>166.93</ele>
        <time>2018-12-20T16:51:47Z</time>
      </trkpt>
      <trkpt lat="39.4632873405" lon="-8.2054328453">
        <ele>167.41</ele>
        <time>2018-12-20T16:51:51Z</time>
      </trkpt>
      <trkpt lat="39.4632891845" lon="-8.2054869924">
        <ele>166.93</ele>
        <time>2018-12-20T16:51:57Z</time>
      </trkpt>
      <trkpt lat="39.4632430840" lon="-8.2055524550">
        <ele>166.93</ele>
        <time>2018-12-20T16:52:04Z</time>
      </trkpt>
      <trkpt lat="39.4631980732" lon="-8.2056094520">
        <ele>166.45</ele>
        <time>2018-12-20T16:52:11Z</time>
      </trkpt>
      <trkpt lat="39.4631227199" lon="-8.2056748308">
        <ele>165.96</ele>
        <time>2018-12-20T16:52:19Z</time>
      </trkpt>
      <trkpt lat="39.4630789664" lon="-8.2057472505">
        <ele>165.00</ele>
        <time>2018-12-20T16:52:26Z</time>
      </trkpt>
      <trkpt lat="39.4630461093" lon="-8.2058464084">
        <ele>164.04</ele>
        <time>2018-12-20T16:52:32Z</time>
      </trkpt>
      <trkpt lat="39.4630266633" lon="-8.2059428003">
        <ele>163.56</ele>
        <time>2018-12-20T16:52:39Z</time>
      </trkpt>
      <trkpt lat="39.4629953150" lon="-8.2060964406">
        <ele>163.08</ele>
        <time>2018-12-20T16:52:49Z</time>
      </trkpt>
      <trkpt lat="39.4630128331" lon="-8.2061594725">
        <ele>161.64</ele>
        <time>2018-12-20T16:52:56Z</time>
      </trkpt>
      <trkpt lat="39.4630000927" lon="-8.2062674314">
        <ele>161.16</ele>
        <time>2018-12-20T16:53:04Z</time>
      </trkpt>
      <trkpt lat="39.4630101509" lon="-8.2063805871">
        <ele>160.68</ele>
        <time>2018-12-20T16:53:12Z</time>
      </trkpt>
      <trkpt lat="39.4630244840" lon="-8.2064053975">
        <ele>160.68</ele>
        <time>2018-12-20T16:53:14Z</time>
      </trkpt>
      <trkpt lat="39.4630448520" lon="-8.2065549307">
        <ele>159.72</ele>
        <time>2018-12-20T16:53:23Z</time>
      </trkpt>
      <trkpt lat="39.4630561676" lon="-8.2066878676">
        <ele>158.75</ele>
        <time>2018-12-20T16:53:32Z</time>
      </trkpt>
      <trkpt lat="39.4630559161" lon="-8.2068116684">
        <ele>157.31</ele>
        <time>2018-12-20T16:53:39Z</time>
      </trkpt>
      <trkpt lat="39.4630535692" lon="-8.2068973314">
        <ele>157.31</ele>
        <time>2018-12-20T16:53:44Z</time>
      </trkpt>
      <trkpt lat="39.4630780444" lon="-8.2069741096">
        <ele>156.83</ele>
        <time>2018-12-20T16:53:49Z</time>
      </trkpt>
      <trkpt lat="39.4630907010" lon="-8.2070627064">
        <ele>155.39</ele>
        <time>2018-12-20T16:53:56Z</time>
      </trkpt>
      <trkpt lat="39.4631055370" lon="-8.2071920391">
        <ele>154.91</ele>
        <time>2018-12-20T16:54:04Z</time>
      </trkpt>
      <trkpt lat="39.4631019328" lon="-8.2073274907">
        <ele>154.43</ele>
        <time>2018-12-20T16:54:12Z</time>
      </trkpt>
      <trkpt lat="39.4631106500" lon="-8.2074380480">
        <ele>153.47</ele>
        <time>2018-12-20T16:54:19Z</time>
      </trkpt>
      <trkpt lat="39.4631198701" lon="-8.2075897604">
        <ele>152.51</ele>
        <time>2018-12-20T16:54:29Z</time>
      </trkpt>
      <trkpt lat="39.4631296769" lon="-8.2077211048">
        <ele>151.54</ele>
        <time>2018-12-20T16:54:37Z</time>
      </trkpt>
      <trkpt lat="39.4631361309" lon="-8.2077708934">
        <ele>151.06</ele>
        <time>2018-12-20T16:54:41Z</time>
      </trkpt>
      <trkpt lat="39.4631508831" lon="-8.2079011481">
        <ele>150.10</ele>
        <time>2018-12-20T16:54:49Z</time>
      </trkpt>
      <trkpt lat="39.4631825667" lon="-8.2080420479">
        <ele>149.62</ele>
        <time>2018-12-20T16:54:58Z</time>
      </trkpt>
      <trkpt lat="39.4632057007" lon="-8.2081785891">
        <ele>149.62</ele>
        <time>2018-12-20T16:55:06Z</time>
      </trkpt>
      <trkpt lat="39.4632299244" lon="-8.2083034795">
        <ele>148.18</ele>
        <time>2018-12-20T16:55:15Z</time>
      </trkpt>
      <trkpt lat="39.4632512145" lon="-8.2084301300">
        <ele>147.22</ele>
        <time>2018-12-20T16:55:23Z</time>
      </trkpt>
      <trkpt lat="39.4632474426" lon="-8.2085510809">
        <ele>147.70</ele>
        <time>2018-12-20T16:55:30Z</time>
      </trkpt>
      <trkpt lat="39.4632663857" lon="-8.2086422760">
        <ele>147.70</ele>
        <time>2018-12-20T16:55:37Z</time>
      </trkpt>
      <trkpt lat="39.4633067027" lon="-8.2087151986">
        <ele>146.74</ele>
        <time>2018-12-20T16:55:43Z</time>
      </trkpt>
      <trkpt lat="39.4633233827" lon="-8.2088157814">
        <ele>146.74</ele>
        <time>2018-12-20T16:55:51Z</time>
      </trkpt>
      <trkpt lat="39.4633357879" lon="-8.2088659890">
        <ele>146.26</ele>
        <time>2018-12-20T16:55:58Z</time>
      </trkpt>
      <trkpt lat="39.4633201975" lon="-8.2088812441">
        <ele>146.26</ele>
        <time>2018-12-20T16:56:03Z</time>
      </trkpt>
      <trkpt lat="39.4630717579" lon="-8.2090859301">
        <ele>166.45</ele>
        <time>2018-12-21T07:41:19Z</time>
      </trkpt>
      <trkpt lat="39.4630716741" lon="-8.2090839185">
        <ele>164.52</ele>
        <time>2018-12-21T07:41:20Z</time>
      </trkpt>
      <trkpt lat="39.4630729314" lon="-8.2090763748">
        <ele>167.89</ele>
        <time>2018-12-21T07:41:23Z</time>
      </trkpt>
      <trkpt lat="39.4630731829" lon="-8.2090788893">
        <ele>167.41</ele>
        <time>2018-12-21T07:41:24Z</time>
      </trkpt>
      <trkpt lat="39.4630740210" lon="-8.2090821583">
        <ele>166.45</ele>
        <time>2018-12-21T07:41:25Z</time>
      </trkpt>
      <trkpt lat="39.4630614482" lon="-8.2091927156">
        <ele>165.96</ele>
        <time>2018-12-21T07:41:31Z</time>
      </trkpt>
      <trkpt lat="39.4630765356" lon="-8.2092934661">
        <ele>165.96</ele>
        <time>2018-12-21T07:41:39Z</time>
      </trkpt>
      <trkpt lat="39.4630794693" lon="-8.2093038596">
        <ele>166.45</ele>
        <time>2018-12-21T07:41:40Z</time>
      </trkpt>
      <trkpt lat="39.4631022681" lon="-8.2093625329">
        <ele>165.96</ele>
        <time>2018-12-21T07:41:44Z</time>
      </trkpt>
      <trkpt lat="39.4631364662" lon="-8.2095060311">
        <ele>165.48</ele>
        <time>2018-12-21T07:41:55Z</time>
      </trkpt>
      <trkpt lat="39.4631516375" lon="-8.2096289936">
        <ele>165.96</ele>
        <time>2018-12-21T07:42:04Z</time>
      </trkpt>
      <trkpt lat="39.4631942175" lon="-8.2097441610">
        <ele>165.48</ele>
        <time>2018-12-21T07:42:14Z</time>
      </trkpt>
      <trkpt lat="39.4632378872" lon="-8.2098387089">
        <ele>165.48</ele>
        <time>2018-12-21T07:42:22Z</time>
      </trkpt>
      <trkpt lat="39.4632707443" lon="-8.2100081909">
        <ele>165.00</ele>
        <time>2018-12-21T07:42:33Z</time>
      </trkpt>
      <trkpt lat="39.4632966444" lon="-8.2101160660">
        <ele>164.52</ele>
        <time>2018-12-21T07:42:42Z</time>
      </trkpt>
      <trkpt lat="39.4633429963" lon="-8.2102753222">
        <ele>164.52</ele>
        <time>2018-12-21T07:42:52Z</time>
      </trkpt>
      <trkpt lat="39.4633825589" lon="-8.2104158029">
        <ele>164.04</ele>
        <time>2018-12-21T07:43:02Z</time>
      </trkpt>
      <trkpt lat="39.4633877557" lon="-8.2104386017">
        <ele>164.52</ele>
        <time>2018-12-21T07:43:04Z</time>
      </trkpt>
      <trkpt lat="39.4633865822" lon="-8.2105320599">
        <ele>164.52</ele>
        <time>2018-12-21T07:43:13Z</time>
      </trkpt>
      <trkpt lat="39.4633999094" lon="-8.2105533499">
        <ele>164.52</ele>
        <time>2018-12-21T07:43:15Z</time>
      </trkpt>
      <trkpt lat="39.4634436630" lon="-8.2107011229">
        <ele>163.56</ele>
        <time>2018-12-21T07:43:27Z</time>
      </trkpt>
      <trkpt lat="39.4634465966" lon="-8.2107095886">
        <ele>163.56</ele>
        <time>2018-12-21T07:43:34Z</time>
      </trkpt>
      <trkpt lat="39.4635047670" lon="-8.2107674237">
        <ele>163.08</ele>
        <time>2018-12-21T07:43:43Z</time>
      </trkpt>
      <trkpt lat="39.4636135641" lon="-8.2108426932">
        <ele>161.64</ele>
        <time>2018-12-21T07:43:53Z</time>
      </trkpt>
      <trkpt lat="39.4636203535" lon="-8.2108732034">
        <ele>162.12</ele>
        <time>2018-12-21T07:43:55Z</time>
      </trkpt>
      <trkpt lat="39.4636662025" lon="-8.2110079005">
        <ele>162.12</ele>
        <time>2018-12-21T07:44:04Z</time>
      </trkpt>
      <trkpt lat="39.4637168292" lon="-8.2111094892">
        <ele>161.64</ele>
        <time>2018-12-21T07:44:12Z</time>
      </trkpt>
      <trkpt lat="39.4637469202" lon="-8.2112185378">
        <ele>160.68</ele>
        <time>2018-12-21T07:44:21Z</time>
      </trkpt>
      <trkpt lat="39.4637568109" lon="-8.2112467010">
        <ele>160.68</ele>
        <time>2018-12-21T07:44:23Z</time>
      </trkpt>
      <trkpt lat="39.4637656957" lon="-8.2113192882">
        <ele>160.68</ele>
        <time>2018-12-21T07:44:27Z</time>
      </trkpt>
      <trkpt lat="39.4638179149" lon="-8.2114835735">
        <ele>159.72</ele>
        <time>2018-12-21T07:44:37Z</time>
      </trkpt>
      <trkpt lat="39.4638815336" lon="-8.2116265688">
        <ele>159.24</ele>
        <time>2018-12-21T07:44:47Z</time>
      </trkpt>
      <trkpt lat="39.4639280532" lon="-8.2117704861">
        <ele>157.31</ele>
        <time>2018-12-21T07:44:57Z</time>
      </trkpt>
      <trkpt lat="39.4639754947" lon="-8.2118933648">
        <ele>156.83</ele>
        <time>2018-12-21T07:45:06Z</time>
      </trkpt>
      <trkpt lat="39.4640220981" lon="-8.2120398805">
        <ele>156.83</ele>
        <time>2018-12-21T07:45:15Z</time>
      </trkpt>
      <trkpt lat="39.4640984572" lon="-8.2122014835">
        <ele>155.39</ele>
        <time>2018-12-21T07:45:27Z</time>
      </trkpt>
      <trkpt lat="39.4641494192" lon="-8.2123899087">
        <ele>153.95</ele>
        <time>2018-12-21T07:45:40Z</time>
      </trkpt>
      <trkpt lat="39.4641887303" lon="-8.2125174813">
        <ele>152.51</ele>
        <time>2018-12-21T07:45:49Z</time>
      </trkpt>
      <trkpt lat="39.4642491639" lon="-8.2126717921">
        <ele>152.03</ele>
        <time>2018-12-21T07:46:00Z</time>
      </trkpt>
      <trkpt lat="39.4643090945" lon="-8.2128063217">
        <ele>151.54</ele>
        <time>2018-12-21T07:46:10Z</time>
      </trkpt>
      <trkpt lat="39.4643696118" lon="-8.2129294518">
        <ele>149.62</ele>
        <time>2018-12-21T07:46:20Z</time>
      </trkpt>
      <trkpt lat="39.4644080009" lon="-8.2130846847">
        <ele>149.14</ele>
        <time>2018-12-21T07:46:30Z</time>
      </trkpt>
      <trkpt lat="39.4644577894" lon="-8.2132405881">
        <ele>147.22</ele>
        <time>2018-12-21T07:46:41Z</time>
      </trkpt>
      <trkpt lat="39.4644954242" lon="-8.2133932225">
        <ele>147.70</ele>
        <time>2018-12-21T07:46:52Z</time>
      </trkpt>
      <trkpt lat="39.4645489845" lon="-8.2135373075">
        <ele>146.26</ele>
        <time>2018-12-21T07:47:02Z</time>
      </trkpt>
      <trkpt lat="39.4645911455" lon="-8.2136321906">
        <ele>146.26</ele>
        <time>2018-12-21T07:47:09Z</time>
      </trkpt>
      <trkpt lat="39.4646592904" lon="-8.2138291653">
        <ele>145.78</ele>
        <time>2018-12-21T07:47:23Z</time>
      </trkpt>
      <trkpt lat="39.4647073187" lon="-8.2139780279">
        <ele>145.30</ele>
        <time>2018-12-21T07:47:33Z</time>
      </trkpt>
      <trkpt lat="39.4647309557" lon="-8.2140403055">
        <ele>144.82</ele>
        <time>2018-12-21T07:47:42Z</time>
      </trkpt>
      <trkpt lat="39.4647825882" lon="-8.2140021678">
        <ele>144.34</ele>
        <time>2018-12-21T07:47:50Z</time>
      </trkpt>
      <trkpt lat="39.4648713525" lon="-8.2139510382">
        <ele>142.41</ele>
        <time>2018-12-21T07:48:00Z</time>
      </trkpt>
      <trkpt lat="39.4649419282" lon="-8.2140714861">
        <ele>142.41</ele>
        <time>2018-12-21T07:48:10Z</time>
      </trkpt>
      <trkpt lat="39.4649630506" lon="-8.2140989788">
        <ele>142.41</ele>
        <time>2018-12-21T07:48:13Z</time>
      </trkpt>
      <trkpt lat="39.4650525693" lon="-8.2141413912">
        <ele>141.45</ele>
        <time>2018-12-21T07:48:21Z</time>
      </trkpt>
      <trkpt lat="39.4650820736" lon="-8.2142207678">
        <ele>142.41</ele>
        <time>2018-12-21T07:48:29Z</time>
      </trkpt>
      <trkpt lat="39.4650872704" lon="-8.2142415550">
        <ele>141.93</ele>
        <time>2018-12-21T07:48:31Z</time>
      </trkpt>
      <trkpt lat="39.4651445188" lon="-8.2143941056">
        <ele>142.41</ele>
        <time>2018-12-21T07:48:42Z</time>
      </trkpt>
      <trkpt lat="39.4652631227" lon="-8.2144554611">
        <ele>142.89</ele>
        <time>2018-12-21T07:48:53Z</time>
      </trkpt>
      <trkpt lat="39.4653333630" lon="-8.2145576365">
        <ele>142.41</ele>
        <time>2018-12-21T07:49:03Z</time>
      </trkpt>
      <trkpt lat="39.4653494563" lon="-8.2145675272">
        <ele>141.45</ele>
        <time>2018-12-21T07:49:11Z</time>
      </trkpt>
      <trkpt lat="39.4653442595" lon="-8.2145687845">
        <ele>141.93</ele>
        <time>2018-12-21T07:49:19Z</time>
      </trkpt>
      <trkpt lat="39.4653657172" lon="-8.2145708799">
        <ele>141.93</ele>
        <time>2018-12-21T07:49:28Z</time>
      </trkpt>
      <trkpt lat="39.4653923716" lon="-8.2145736460">
        <ele>141.93</ele>
        <time>2018-12-21T07:49:31Z</time>
      </trkpt>
      <trkpt lat="39.4655119814" lon="-8.2145832852">
        <ele>140.97</ele>
        <time>2018-12-21T07:49:42Z</time>
      </trkpt>
      <trkpt lat="39.4655785337" lon="-8.2146299724">
        <ele>140.49</ele>
        <time>2018-12-21T07:49:50Z</time>
      </trkpt>
      <trkpt lat="39.4657219481" lon="-8.2146888133">
        <ele>140.01</ele>
        <time>2018-12-21T07:50:02Z</time>
      </trkpt>
      <trkpt lat="39.4658192620" lon="-8.2147261966">
        <ele>139.05</ele>
        <time>2018-12-21T07:50:12Z</time>
      </trkpt>
      <trkpt lat="39.4659309089" lon="-8.2147826906">
        <ele>139.05</ele>
        <time>2018-12-21T07:50:23Z</time>
      </trkpt>
      <trkpt lat="39.4660231937" lon="-8.2148245163">
        <ele>139.05</ele>
        <time>2018-12-21T07:50:33Z</time>
      </trkpt>
      <trkpt lat="39.4661334157" lon="-8.2149113528">
        <ele>138.09</ele>
        <time>2018-12-21T07:50:44Z</time>
      </trkpt>
      <trkpt lat="39.4662448112" lon="-8.2149763964">
        <ele>137.13</ele>
        <time>2018-12-21T07:50:55Z</time>
      </trkpt>
      <trkpt lat="39.4663565420" lon="-8.2150321361">
        <ele>136.64</ele>
        <time>2018-12-21T07:51:05Z</time>
      </trkpt>
      <trkpt lat="39.4664583821" lon="-8.2150608860">
        <ele>136.16</ele>
        <time>2018-12-21T07:51:14Z</time>
      </trkpt>
      <trkpt lat="39.4665796682" lon="-8.2151102554">
        <ele>136.16</ele>
        <time>2018-12-21T07:51:25Z</time>
      </trkpt>
      <trkpt lat="39.4666970149" lon="-8.2151338924">
        <ele>135.20</ele>
        <time>2018-12-21T07:51:35Z</time>
      </trkpt>
      <trkpt lat="39.4667954184" lon="-8.2151421066">
        <ele>135.20</ele>
        <time>2018-12-21T07:51:43Z</time>
      </trkpt>
      <trkpt lat="39.4669073168" lon="-8.2151705213">
        <ele>135.20</ele>
        <time>2018-12-21T07:51:53Z</time>
      </trkpt>
      <trkpt lat="39.4670704287" lon="-8.2151747961">
        <ele>134.72</ele>
        <time>2018-12-21T07:52:06Z</time>
      </trkpt>
      <trkpt lat="39.4671837520" lon="-8.2151919790">
        <ele>135.20</ele>
        <time>2018-12-21T07:52:16Z</time>
      </trkpt>
      <trkpt lat="39.4673193712" lon="-8.2151954994">
        <ele>135.68</ele>
        <time>2018-12-21T07:52:27Z</time>
      </trkpt>
      <trkpt lat="39.4674406573" lon="-8.2152043842">
        <ele>135.68</ele>
        <time>2018-12-21T07:52:37Z</time>
      </trkpt>
      <trkpt lat="39.4675639551" lon="-8.2152381632">
        <ele>136.64</ele>
        <time>2018-12-21T07:52:47Z</time>
      </trkpt>
      <trkpt lat="39.4677033462" lon="-8.2152453717">
        <ele>136.64</ele>
        <time>2018-12-21T07:52:58Z</time>
      </trkpt>
      <trkpt lat="39.4677308388" lon="-8.2152454555">
        <ele>136.64</ele>
        <time>2018-12-21T07:53:00Z</time>
      </trkpt>
      <trkpt lat="39.4678460900" lon="-8.2152636442">
        <ele>137.13</ele>
        <time>2018-12-21T07:53:09Z</time>
      </trkpt>
      <trkpt lat="39.4679506123" lon="-8.2152882870">
        <ele>137.61</ele>
        <time>2018-12-21T07:53:18Z</time>
      </trkpt>
      <trkpt lat="39.4680934399" lon="-8.2153125107">
        <ele>138.57</ele>
        <time>2018-12-21T07:53:29Z</time>
      </trkpt>
      <trkpt lat="39.4682843797" lon="-8.2152695116">
        <ele>137.61</ele>
        <time>2018-12-21T07:53:41Z</time>
      </trkpt>
      <trkpt lat="39.4684080128" lon="-8.2152896281">
        <ele>138.09</ele>
        <time>2018-12-21T07:53:52Z</time>
      </trkpt>
      <trkpt lat="39.4685337413" lon="-8.2153196353">
        <ele>137.61</ele>
        <time>2018-12-21T07:54:03Z</time>
      </trkpt>
      <trkpt lat="39.4686694443" lon="-8.2153317891">
        <ele>136.64</ele>
        <time>2018-12-21T07:54:14Z</time>
      </trkpt>
      <trkpt lat="39.4687985256" lon="-8.2153405063">
        <ele>136.64</ele>
        <time>2018-12-21T07:54:24Z</time>
      </trkpt>
      <trkpt lat="39.4689444546" lon="-8.2153532468">
        <ele>136.64</ele>
        <time>2018-12-21T07:54:36Z</time>
      </trkpt>
      <trkpt lat="39.4690722786" lon="-8.2153810747">
        <ele>136.16</ele>
        <time>2018-12-21T07:54:47Z</time>
      </trkpt>
      <trkpt lat="39.4692080654" lon="-8.2154027000">
        <ele>135.68</ele>
        <time>2018-12-21T07:54:59Z</time>
      </trkpt>
      <trkpt lat="39.4693252444" lon="-8.2154119201">
        <ele>135.20</ele>
        <time>2018-12-21T07:55:09Z</time>
      </trkpt>
      <trkpt lat="39.4694470335" lon="-8.2154353894">
        <ele>134.72</ele>
        <time>2018-12-21T07:55:19Z</time>
      </trkpt>
      <trkpt lat="39.4695520587" lon="-8.2155049592">
        <ele>134.72</ele>
        <time>2018-12-21T07:55:29Z</time>
      </trkpt>
      <trkpt lat="39.4696295913" lon="-8.2155793905">
        <ele>134.72</ele>
        <time>2018-12-21T07:55:38Z</time>
      </trkpt>
      <trkpt lat="39.4697327726" lon="-8.2156815659">
        <ele>133.76</ele>
        <time>2018-12-21T07:55:49Z</time>
      </trkpt>
      <trkpt lat="39.4698450062" lon="-8.2158012595">
        <ele>133.28</ele>
        <time>2018-12-21T07:56:01Z</time>
      </trkpt>
      <trkpt lat="39.4699130673" lon="-8.2157927938">
        <ele>132.80</ele>
        <time>2018-12-21T07:56:08Z</time>
      </trkpt>
      <trkpt lat="39.4699342735" lon="-8.2157865074">
        <ele>133.76</ele>
        <time>2018-12-21T07:56:10Z</time>
      </trkpt>
      <trkpt lat="39.4700044300" lon="-8.2158573344">
        <ele>133.76</ele>
        <time>2018-12-21T07:56:19Z</time>
      </trkpt>
      <trkpt lat="39.4700703118" lon="-8.2159269042">
        <ele>133.28</ele>
        <time>2018-12-21T07:56:27Z</time>
      </trkpt>
      <trkpt lat="39.4701852277" lon="-8.2160361204">
        <ele>132.32</ele>
        <time>2018-12-21T07:56:39Z</time>
      </trkpt>
      <trkpt lat="39.4703011494" lon="-8.2161091268">
        <ele>132.32</ele>
        <time>2018-12-21T07:56:50Z</time>
      </trkpt>
      <trkpt lat="39.4704065938" lon="-8.2161475997">
        <ele>132.80</ele>
        <time>2018-12-21T07:56:59Z</time>
      </trkpt>
      <trkpt lat="39.4705160614" lon="-8.2161915209">
        <ele>131.84</ele>
        <time>2018-12-21T07:57:10Z</time>
      </trkpt>
      <trkpt lat="39.4706469029" lon="-8.2161789481">
        <ele>132.32</ele>
        <time>2018-12-21T07:57:21Z</time>
      </trkpt>
      <trkpt lat="39.4707743917" lon="-8.2161470130">
        <ele>132.32</ele>
        <time>2018-12-21T07:57:33Z</time>
      </trkpt>
      <trkpt lat="39.4708715379" lon="-8.2161301654">
        <ele>131.84</ele>
        <time>2018-12-21T07:57:42Z</time>
      </trkpt>
      <trkpt lat="39.4709523395" lon="-8.2161138207">
        <ele>131.84</ele>
        <time>2018-12-21T07:57:49Z</time>
      </trkpt>
      <trkpt lat="39.4710587896" lon="-8.2160932850">
        <ele>132.32</ele>
        <time>2018-12-21T07:57:59Z</time>
      </trkpt>
      <trkpt lat="39.4711503200" lon="-8.2160798740">
        <ele>131.84</ele>
        <time>2018-12-21T07:58:08Z</time>
      </trkpt>
      <trkpt lat="39.4712609611" lon="-8.2160560694">
        <ele>131.84</ele>
        <time>2018-12-21T07:58:18Z</time>
      </trkpt>
      <trkpt lat="39.4713584427" lon="-8.2160376292">
        <ele>131.84</ele>
        <time>2018-12-21T07:58:28Z</time>
      </trkpt>
      <trkpt lat="39.4715271704" lon="-8.2160108909">
        <ele>131.36</ele>
        <time>2018-12-21T07:58:42Z</time>
      </trkpt>
      <trkpt lat="39.4716613647" lon="-8.2159664668">
        <ele>131.84</ele>
        <time>2018-12-21T07:58:52Z</time>
      </trkpt>
      <trkpt lat="39.4717725925" lon="-8.2159304246">
        <ele>131.84</ele>
        <time>2018-12-21T07:59:02Z</time>
      </trkpt>
      <trkpt lat="39.4718770310" lon="-8.2158906944">
        <ele>131.36</ele>
        <time>2018-12-21T07:59:10Z</time>
      </trkpt>
      <trkpt lat="39.4719831459" lon="-8.2158644591">
        <ele>130.88</ele>
        <time>2018-12-21T07:59:20Z</time>
      </trkpt>
      <trkpt lat="39.4720909372" lon="-8.2158607710">
        <ele>131.36</ele>
        <time>2018-12-21T07:59:30Z</time>
      </trkpt>
      <trkpt lat="39.4721930288" lon="-8.2158367150">
        <ele>129.92</ele>
        <time>2018-12-21T07:59:38Z</time>
      </trkpt>
      <trkpt lat="39.4723426457" lon="-8.2158126589">
        <ele>130.40</ele>
        <time>2018-12-21T07:59:49Z</time>
      </trkpt>
      <trkpt lat="39.4724589866" lon="-8.2157860044">
        <ele>129.92</ele>
        <time>2018-12-21T07:59:59Z</time>
      </trkpt>
      <trkpt lat="39.4726001378" lon="-8.2157543208">
        <ele>129.92</ele>
        <time>2018-12-21T08:00:10Z</time>
      </trkpt>
      <trkpt lat="39.4726999663" lon="-8.2157389820">
        <ele>129.43</ele>
        <time>2018-12-21T08:00:19Z</time>
      </trkpt>
      <trkpt lat="39.4728403632" lon="-8.2157049514">
        <ele>128.95</ele>
        <time>2018-12-21T08:00:30Z</time>
      </trkpt>
      <trkpt lat="39.4729573745" lon="-8.2156857569">
        <ele>128.47</ele>
        <time>2018-12-21T08:00:40Z</time>
      </trkpt>
      <trkpt lat="39.4730574545" lon="-8.2156601921">
        <ele>128.47</ele>
        <time>2018-12-21T08:00:49Z</time>
      </trkpt>
      <trkpt lat="39.4731201511" lon="-8.2156508882">
        <ele>127.99</ele>
        <time>2018-12-21T08:00:58Z</time>
      </trkpt>
      <trkpt lat="39.4731924031" lon="-8.2156403270">
        <ele>127.51</ele>
        <time>2018-12-21T08:01:06Z</time>
      </trkpt>
      <trkpt lat="39.4732773956" lon="-8.2156258263">
        <ele>126.55</ele>
        <time>2018-12-21T08:01:14Z</time>
      </trkpt>
      <trkpt lat="39.4734028727" lon="-8.2156145945">
        <ele>127.03</ele>
        <time>2018-12-21T08:01:24Z</time>
      </trkpt>
      <trkpt lat="39.4734897092" lon="-8.2156193722">
        <ele>125.59</ele>
        <time>2018-12-21T08:01:32Z</time>
      </trkpt>
      <trkpt lat="39.4735701755" lon="-8.2156110741">
        <ele>125.11</ele>
        <time>2018-12-21T08:01:39Z</time>
      </trkpt>
      <trkpt lat="39.4737010170" lon="-8.2155969087">
        <ele>124.15</ele>
        <time>2018-12-21T08:01:48Z</time>
      </trkpt>
      <trkpt lat="39.4738057908" lon="-8.2156073023">
        <ele>124.15</ele>
        <time>2018-12-21T08:01:56Z</time>
      </trkpt>
      <trkpt lat="39.4739048649" lon="-8.2156097330">
        <ele>123.67</ele>
        <time>2018-12-21T08:02:05Z</time>
      </trkpt>
      <trkpt lat="39.4739133306" lon="-8.2156203780">
        <ele>123.67</ele>
        <time>2018-12-21T08:02:06Z</time>
      </trkpt>
      <trkpt lat="39.4739563297" lon="-8.2157220505">
        <ele>123.67</ele>
        <time>2018-12-21T08:02:15Z</time>
      </trkpt>
      <trkpt lat="39.4740604330" lon="-8.2157602720">
        <ele>122.22</ele>
        <time>2018-12-21T08:02:24Z</time>
      </trkpt>
      <trkpt lat="39.4741417374" lon="-8.2158552390">
        <ele>121.74</ele>
        <time>2018-12-21T08:02:33Z</time>
      </trkpt>
      <trkpt lat="39.4741714932" lon="-8.2159420755">
        <ele>122.22</ele>
        <time>2018-12-21T08:02:41Z</time>
      </trkpt>
      <trkpt lat="39.4742220361" lon="-8.2160616014">
        <ele>122.22</ele>
        <time>2018-12-21T08:02:50Z</time>
      </trkpt>
      <trkpt lat="39.4742505345" lon="-8.2161176763">
        <ele>121.26</ele>
        <time>2018-12-21T08:02:56Z</time>
      </trkpt>
      <trkpt lat="39.4742756803" lon="-8.2162513677">
        <ele>121.26</ele>
        <time>2018-12-21T08:03:06Z</time>
      </trkpt>
      <trkpt lat="39.4743118063" lon="-8.2163835503">
        <ele>120.30</ele>
        <time>2018-12-21T08:03:16Z</time>
      </trkpt>
      <trkpt lat="39.4743372872" lon="-8.2164958678">
        <ele>119.82</ele>
        <time>2018-12-21T08:03:25Z</time>
      </trkpt>
      <trkpt lat="39.4743693061" lon="-8.2165755797">
        <ele>119.34</ele>
        <time>2018-12-21T08:03:31Z</time>
      </trkpt>
      <trkpt lat="39.4744144008" lon="-8.2166972850">
        <ele>118.86</ele>
        <time>2018-12-21T08:03:40Z</time>
      </trkpt>
      <trkpt lat="39.4744701404" lon="-8.2168422081">
        <ele>118.38</ele>
        <time>2018-12-21T08:03:50Z</time>
      </trkpt>
      <trkpt lat="39.4745029975" lon="-8.2169427071">
        <ele>117.42</ele>
        <time>2018-12-21T08:03:57Z</time>
      </trkpt>
      <trkpt lat="39.4745355193" lon="-8.2170660887">
        <ele>116.46</ele>
        <time>2018-12-21T08:04:06Z</time>
      </trkpt>
      <trkpt lat="39.4745518640" lon="-8.2171382569">
        <ele>116.46</ele>
        <time>2018-12-21T08:04:11Z</time>
      </trkpt>
      <trkpt lat="39.4745758362" lon="-8.2172054797">
        <ele>115.50</ele>
        <time>2018-12-21T08:04:15Z</time>
      </trkpt>
      <trkpt lat="39.4746284746" lon="-8.2173154503">
        <ele>115.50</ele>
        <time>2018-12-21T08:04:23Z</time>
      </trkpt>
      <trkpt lat="39.4746753294" lon="-8.2174560986">
        <ele>115.01</ele>
        <time>2018-12-21T08:04:33Z</time>
      </trkpt>
      <trkpt lat="39.4746932667" lon="-8.2175894547">
        <ele>113.57</ele>
        <time>2018-12-21T08:04:43Z</time>
      </trkpt>
      <trkpt lat="39.4747149758" lon="-8.2177161891">
        <ele>112.61</ele>
        <time>2018-12-21T08:04:53Z</time>
      </trkpt>
      <trkpt lat="39.4747255370" lon="-8.2177521475">
        <ele>112.61</ele>
        <time>2018-12-21T08:04:56Z</time>
      </trkpt>
      <trkpt lat="39.4747873116" lon="-8.2179243956">
        <ele>111.17</ele>
        <time>2018-12-21T08:05:09Z</time>
      </trkpt>
      <trkpt lat="39.4748091046" lon="-8.2180259842">
        <ele>109.73</ele>
        <time>2018-12-21T08:05:16Z</time>
      </trkpt>
      <trkpt lat="39.4748502597" lon="-8.2181373797">
        <ele>109.25</ele>
        <time>2018-12-21T08:05:24Z</time>
      </trkpt>
      <trkpt lat="39.4749001320" lon="-8.2182618510">
        <ele>108.77</ele>
        <time>2018-12-21T08:05:34Z</time>
      </trkpt>
      <trkpt lat="39.4748994615" lon="-8.2182641141">
        <ele>108.29</ele>
        <time>2018-12-21T08:05:41Z</time>
      </trkpt>
      <trkpt lat="39.4749211706" lon="-8.2183159143">
        <ele>106.84</ele>
        <time>2018-12-21T08:05:52Z</time>
      </trkpt>
      <trkpt lat="39.4749915786" lon="-8.2184462529">
        <ele>106.84</ele>
        <time>2018-12-21T08:06:02Z</time>
      </trkpt>
      <trkpt lat="39.4750228431" lon="-8.2185500208">
        <ele>106.36</ele>
        <time>2018-12-21T08:06:10Z</time>
      </trkpt>
      <trkpt lat="39.4750653394" lon="-8.2186905853">
        <ele>105.40</ele>
        <time>2018-12-21T08:06:20Z</time>
      </trkpt>
      <trkpt lat="39.4750843663" lon="-8.2187294774">
        <ele>105.88</ele>
        <time>2018-12-21T08:06:23Z</time>
      </trkpt>
      <trkpt lat="39.4751329813" lon="-8.2188889012">
        <ele>105.40</ele>
        <time>2018-12-21T08:06:34Z</time>
      </trkpt>
      <trkpt lat="39.4751521759" lon="-8.2189149689">
        <ele>105.40</ele>
        <time>2018-12-21T08:06:40Z</time>
      </trkpt>
      <trkpt lat="39.4751247671" lon="-8.2189238537">
        <ele>105.40</ele>
        <time>2018-12-21T08:06:47Z</time>
      </trkpt>
      <trkpt lat="39.4751955941" lon="-8.2190840319">
        <ele>104.92</ele>
        <time>2018-12-21T08:06:59Z</time>
      </trkpt>
      <trkpt lat="39.4752327260" lon="-8.2191650849">
        <ele>104.44</ele>
        <time>2018-12-21T08:07:05Z</time>
      </trkpt>
      <trkpt lat="39.4752846938" lon="-8.2192307152">
        <ele>103.96</ele>
        <time>2018-12-21T08:07:12Z</time>
      </trkpt>
      <trkpt lat="39.4753380027" lon="-8.2193215750">
        <ele>102.04</ele>
        <time>2018-12-21T08:07:20Z</time>
      </trkpt>
      <trkpt lat="39.4753918145" lon="-8.2194416877">
        <ele>100.60</ele>
        <time>2018-12-21T08:07:30Z</time>
      </trkpt>
      <trkpt lat="39.4754175469" lon="-8.2195423543">
        <ele>99.63</ele>
        <time>2018-12-21T08:07:38Z</time>
      </trkpt>
      <trkpt lat="39.4754589535" lon="-8.2196523249">
        <ele>97.23</ele>
        <time>2018-12-21T08:07:47Z</time>
      </trkpt>
      <trkpt lat="39.4755354803" lon="-8.2197598647">
        <ele>95.79</ele>
        <time>2018-12-21T08:07:58Z</time>
      </trkpt>
      <trkpt lat="39.4755793177" lon="-8.2198458631">
        <ele>94.35</ele>
        <time>2018-12-21T08:08:06Z</time>
      </trkpt>
      <trkpt lat="39.4756436069" lon="-8.2199446019">
        <ele>92.42</ele>
        <time>2018-12-21T08:08:16Z</time>
      </trkpt>
      <trkpt lat="39.4756664056" lon="-8.2200272474">
        <ele>91.46</ele>
        <time>2018-12-21T08:08:23Z</time>
      </trkpt>
      <trkpt lat="39.4756938145" lon="-8.2201027684">
        <ele>90.50</ele>
        <time>2018-12-21T08:08:30Z</time>
      </trkpt>
      <trkpt lat="39.4757270068" lon="-8.2202114817">
        <ele>89.06</ele>
        <time>2018-12-21T08:08:39Z</time>
      </trkpt>
      <trkpt lat="39.4757723529" lon="-8.2203127351">
        <ele>88.10</ele>
        <time>2018-12-21T08:08:47Z</time>
      </trkpt>
      <trkpt lat="39.4758403301" lon="-8.2203963026">
        <ele>87.14</ele>
        <time>2018-12-21T08:08:54Z</time>
      </trkpt>
      <trkpt lat="39.4758508075" lon="-8.2204066962">
        <ele>87.14</ele>
        <time>2018-12-21T08:08:55Z</time>
      </trkpt>
      <trkpt lat="39.4759162702" lon="-8.2205004059">
        <ele>85.69</ele>
        <time>2018-12-21T08:09:04Z</time>
      </trkpt>
      <trkpt lat="39.4759601075" lon="-8.2206014078">
        <ele>85.21</ele>
        <time>2018-12-21T08:09:13Z</time>
      </trkpt>
      <trkpt lat="39.4760414120" lon="-8.2206653617">
        <ele>84.25</ele>
        <time>2018-12-21T08:09:21Z</time>
      </trkpt>
      <trkpt lat="39.4761647098" lon="-8.2207291480">
        <ele>82.81</ele>
        <time>2018-12-21T08:09:31Z</time>
      </trkpt>
      <trkpt lat="39.4762054458" lon="-8.2207405474">
        <ele>82.81</ele>
        <time>2018-12-21T08:09:34Z</time>
      </trkpt>
      <trkpt lat="39.4763098005" lon="-8.2207643520">
        <ele>82.33</ele>
        <time>2018-12-21T08:09:44Z</time>
      </trkpt>
      <trkpt lat="39.4764266443" lon="-8.2207811158">
        <ele>80.89</ele>
        <time>2018-12-21T08:09:54Z</time>
      </trkpt>
      <trkpt lat="39.4764565676" lon="-8.2207911741">
        <ele>80.41</ele>
        <time>2018-12-21T08:09:57Z</time>
      </trkpt>
      <trkpt lat="39.4765304960" lon="-8.2208114583">
        <ele>79.45</ele>
        <time>2018-12-21T08:10:04Z</time>
      </trkpt>
      <trkpt lat="39.4766425621" lon="-8.2208283897">
        <ele>78.48</ele>
        <time>2018-12-21T08:10:13Z</time>
      </trkpt>
      <trkpt lat="39.4767428096" lon="-8.2208447345">
        <ele>77.04</ele>
        <time>2018-12-21T08:10:22Z</time>
      </trkpt>
      <trkpt lat="39.4768053386" lon="-8.2208828721">
        <ele>75.60</ele>
        <time>2018-12-21T08:10:29Z</time>
      </trkpt>
      <trkpt lat="39.4768961985" lon="-8.2209317386">
        <ele>75.12</ele>
        <time>2018-12-21T08:10:38Z</time>
      </trkpt>
      <trkpt lat="39.4769676123" lon="-8.2209758274">
        <ele>73.68</ele>
        <time>2018-12-21T08:10:46Z</time>
      </trkpt>
      <trkpt lat="39.4770443067" lon="-8.2210234366">
        <ele>71.76</ele>
        <time>2018-12-21T08:10:54Z</time>
      </trkpt>
      <trkpt lat="39.4771485776" lon="-8.2210702077">
        <ele>71.27</ele>
        <time>2018-12-21T08:11:03Z</time>
      </trkpt>
      <trkpt lat="39.4772636611" lon="-8.2211511768">
        <ele>70.31</ele>
        <time>2018-12-21T08:11:13Z</time>
      </trkpt>
      <trkpt lat="39.4773774035" lon="-8.2212271169">
        <ele>69.35</ele>
        <time>2018-12-21T08:11:23Z</time>
      </trkpt>
      <trkpt lat="39.4774678443" lon="-8.2213043980">
        <ele>68.87</ele>
        <time>2018-12-21T08:11:31Z</time>
      </trkpt>
      <trkpt lat="39.4775560219" lon="-8.2214164641">
        <ele>69.35</ele>
        <time>2018-12-21T08:11:41Z</time>
      </trkpt>
      <trkpt lat="39.4776214845" lon="-8.2215610519">
        <ele>68.87</ele>
        <time>2018-12-21T08:11:51Z</time>
      </trkpt>
      <trkpt lat="39.4776657410" lon="-8.2216501515">
        <ele>68.87</ele>
        <time>2018-12-21T08:11:59Z</time>
      </trkpt>
      <trkpt lat="39.4776677527" lon="-8.2217315398">
        <ele>67.91</ele>
        <time>2018-12-21T08:12:06Z</time>
      </trkpt>
      <trkpt lat="39.4776484743" lon="-8.2217805739">
        <ele>67.91</ele>
        <time>2018-12-21T08:12:15Z</time>
      </trkpt>
      <trkpt lat="39.4776539225" lon="-8.2218482159">
        <ele>67.43</ele>
        <time>2018-12-21T08:12:21Z</time>
      </trkpt>
      <trkpt lat="39.4776886236" lon="-8.2219425961">
        <ele>68.39</ele>
        <time>2018-12-21T08:12:28Z</time>
      </trkpt>
      <trkpt lat="39.4776941556" lon="-8.2219526544">
        <ele>67.43</ele>
        <time>2018-12-21T08:12:29Z</time>
      </trkpt>
      <trkpt lat="39.4777089916" lon="-8.2219716813">
        <ele>67.43</ele>
        <time>2018-12-21T08:12:31Z</time>
      </trkpt>
      <trkpt lat="39.4777864404" lon="-8.2220225595">
        <ele>67.91</ele>
        <time>2018-12-21T08:12:40Z</time>
      </trkpt>
      <trkpt lat="39.4778664038" lon="-8.2221123297">
        <ele>67.43</ele>
        <time>2018-12-21T08:12:50Z</time>
      </trkpt>
      <trkpt lat="39.4779248256" lon="-8.2221778762">
        <ele>67.91</ele>
        <time>2018-12-21T08:12:58Z</time>
      </trkpt>
      <trkpt lat="39.4779447746" lon="-8.2222050335">
        <ele>67.91</ele>
        <time>2018-12-21T08:13:01Z</time>
      </trkpt>
      <trkpt lat="39.4779999275" lon="-8.2223047782">
        <ele>67.43</ele>
        <time>2018-12-21T08:13:09Z</time>
      </trkpt>
      <trkpt lat="39.4780691620" lon="-8.2223518007">
        <ele>67.43</ele>
        <time>2018-12-21T08:13:17Z</time>
      </trkpt>
      <trkpt lat="39.4781249855" lon="-8.2224133238">
        <ele>68.39</ele>
        <time>2018-12-21T08:13:25Z</time>
      </trkpt>
      <trkpt lat="39.4781800546" lon="-8.2224652916">
        <ele>68.87</ele>
        <time>2018-12-21T08:13:32Z</time>
      </trkpt>
      <trkpt lat="39.4782314356" lon="-8.2225502003">
        <ele>68.39</ele>
        <time>2018-12-21T08:13:39Z</time>
      </trkpt>
      <trkpt lat="39.4782567490" lon="-8.2226062752">
        <ele>67.91</ele>
        <time>2018-12-21T08:13:43Z</time>
      </trkpt>
      <trkpt lat="39.4783051964" lon="-8.2226959616">
        <ele>68.39</ele>
        <time>2018-12-21T08:13:49Z</time>
      </trkpt>
      <trkpt lat="39.4783832319" lon="-8.2227752544">
        <ele>69.35</ele>
        <time>2018-12-21T08:13:57Z</time>
      </trkpt>
      <trkpt lat="39.4783942960" lon="-8.2228004001">
        <ele>68.87</ele>
        <time>2018-12-21T08:13:59Z</time>
      </trkpt>
      <trkpt lat="39.4785010815" lon="-8.2228723168">
        <ele>68.87</ele>
        <time>2018-12-21T08:14:08Z</time>
      </trkpt>
      <trkpt lat="39.4785898458" lon="-8.2229932677">
        <ele>69.35</ele>
        <time>2018-12-21T08:14:18Z</time>
      </trkpt>
      <trkpt lat="39.4785968866" lon="-8.2230063435">
        <ele>69.35</ele>
        <time>2018-12-21T08:14:19Z</time>
      </trkpt>
      <trkpt lat="39.4786814600" lon="-8.2230651006">
        <ele>69.35</ele>
        <time>2018-12-21T08:14:27Z</time>
      </trkpt>
      <trkpt lat="39.4787598308" lon="-8.2232023962">
        <ele>68.87</ele>
        <time>2018-12-21T08:14:37Z</time>
      </trkpt>
      <trkpt lat="39.4787692185" lon="-8.2232300565">
        <ele>69.83</ele>
        <time>2018-12-21T08:14:39Z</time>
      </trkpt>
      <trkpt lat="39.4787932746" lon="-8.2232578006">
        <ele>69.35</ele>
        <time>2018-12-21T08:14:42Z</time>
      </trkpt>
      <trkpt lat="39.4788455777" lon="-8.2233568747">
        <ele>69.83</ele>
        <time>2018-12-21T08:14:50Z</time>
      </trkpt>
      <trkpt lat="39.4789081067" lon="-8.2234453037">
        <ele>70.79</ele>
        <time>2018-12-21T08:14:59Z</time>
      </trkpt>
      <trkpt lat="39.4789268821" lon="-8.2234598882">
        <ele>70.79</ele>
        <time>2018-12-21T08:15:01Z</time>
      </trkpt>
      <trkpt lat="39.4789583143" lon="-8.2234798372">
        <ele>70.79</ele>
        <time>2018-12-21T08:15:04Z</time>
      </trkpt>
      <trkpt lat="39.4790195022" lon="-8.2235714514">
        <ele>72.24</ele>
        <time>2018-12-21T08:15:12Z</time>
      </trkpt>
      <trkpt lat="39.4790874794" lon="-8.2236551866">
        <ele>72.72</ele>
        <time>2018-12-21T08:15:20Z</time>
      </trkpt>
      <trkpt lat="39.4791154750" lon="-8.2237272710">
        <ele>73.68</ele>
        <time>2018-12-21T08:15:26Z</time>
      </trkpt>
      <trkpt lat="39.4791471586" lon="-8.2238083240">
        <ele>74.16</ele>
        <time>2018-12-21T08:15:32Z</time>
      </trkpt>
      <trkpt lat="39.4791806024" lon="-8.2238747086">
        <ele>74.64</ele>
        <time>2018-12-21T08:15:40Z</time>
      </trkpt>
      <trkpt lat="39.4792017248" lon="-8.2238958310">
        <ele>75.12</ele>
        <time>2018-12-21T08:15:48Z</time>
      </trkpt>
      <trkpt lat="39.4792052452" lon="-8.2239316218">
        <ele>75.12</ele>
        <time>2018-12-21T08:15:55Z</time>
      </trkpt>
      <trkpt lat="39.4792178180" lon="-8.2239790633">
        <ele>74.64</ele>
        <time>2018-12-21T08:16:03Z</time>
      </trkpt>
      <trkpt lat="39.4792560395" lon="-8.2239845954">
        <ele>75.12</ele>
        <time>2018-12-21T08:16:09Z</time>
      </trkpt>
      <trkpt lat="39.4793111924" lon="-8.2239985932">
        <ele>75.60</ele>
        <time>2018-12-21T08:16:17Z</time>
      </trkpt>
      <trkpt lat="39.4793167245" lon="-8.2240068074">
        <ele>76.08</ele>
        <time>2018-12-21T08:16:25Z</time>
      </trkpt>
      <trkpt lat="39.4793349970" lon="-8.2240321208">
        <ele>75.12</ele>
        <time>2018-12-21T08:16:37Z</time>
      </trkpt>
      <trkpt lat="39.4793570414" lon="-8.2240676600">
        <ele>75.60</ele>
        <time>2018-12-21T08:16:40Z</time>
      </trkpt>
      <trkpt lat="39.4794335682" lon="-8.2242131699">
        <ele>75.60</ele>
        <time>2018-12-21T08:16:52Z</time>
      </trkpt>
      <trkpt lat="39.4794930797" lon="-8.2243184466">
        <ele>75.60</ele>
        <time>2018-12-21T08:17:01Z</time>
      </trkpt>
      <trkpt lat="39.4795441255" lon="-8.2244372182">
        <ele>75.60</ele>
        <time>2018-12-21T08:17:10Z</time>
      </trkpt>
      <trkpt lat="39.4796209037" lon="-8.2245653775">
        <ele>74.64</ele>
        <time>2018-12-21T08:17:20Z</time>
      </trkpt>
      <trkpt lat="39.4796286989" lon="-8.2245914452">
        <ele>75.60</ele>
        <time>2018-12-21T08:17:22Z</time>
      </trkpt>
      <trkpt lat="39.4796706084" lon="-8.2247538865">
        <ele>75.60</ele>
        <time>2018-12-21T08:17:33Z</time>
      </trkpt>
      <trkpt lat="39.4796284474" lon="-8.2249318343">
        <ele>75.60</ele>
        <time>2018-12-21T08:17:44Z</time>
      </trkpt>
      <trkpt lat="39.4795574527" lon="-8.2250388712">
        <ele>75.60</ele>
        <time>2018-12-21T08:17:53Z</time>
      </trkpt>
      <trkpt lat="39.4794660900" lon="-8.2251470815">
        <ele>75.60</ele>
        <time>2018-12-21T08:18:03Z</time>
      </trkpt>
      <trkpt lat="39.4793844502" lon="-8.2252754085">
        <ele>75.12</ele>
        <time>2018-12-21T08:18:13Z</time>
      </trkpt>
      <trkpt lat="39.4793341588" lon="-8.2253709622">
        <ele>75.60</ele>
        <time>2018-12-21T08:18:21Z</time>
      </trkpt>
      <trkpt lat="39.4792660978" lon="-8.2254680246">
        <ele>75.12</ele>
        <time>2018-12-21T08:18:29Z</time>
      </trkpt>
      <trkpt lat="39.4791995455" lon="-8.2255691104">
        <ele>75.60</ele>
        <time>2018-12-21T08:18:37Z</time>
      </trkpt>
      <trkpt lat="39.4791109487" lon="-8.2257062383">
        <ele>75.12</ele>
        <time>2018-12-21T08:18:48Z</time>
      </trkpt>
      <trkpt lat="39.4790545385" lon="-8.2258033846">
        <ele>74.64</ele>
        <time>2018-12-21T08:18:56Z</time>
      </trkpt>
      <trkpt lat="39.4789816160" lon="-8.2259027939">
        <ele>74.64</ele>
        <time>2018-12-21T08:19:05Z</time>
      </trkpt>
      <trkpt lat="39.4789091963" lon="-8.2260003593">
        <ele>74.16</ele>
        <time>2018-12-21T08:19:14Z</time>
      </trkpt>
      <trkpt lat="39.4788233656" lon="-8.2261230703">
        <ele>74.16</ele>
        <time>2018-12-21T08:19:25Z</time>
      </trkpt>
      <trkpt lat="39.4787786063" lon="-8.2262670714">
        <ele>74.64</ele>
        <time>2018-12-21T08:19:34Z</time>
      </trkpt>
      <trkpt lat="39.4787931908" lon="-8.2263618708">
        <ele>74.64</ele>
        <time>2018-12-21T08:19:42Z</time>
      </trkpt>
      <trkpt lat="39.4788313285" lon="-8.2264615316">
        <ele>75.60</ele>
        <time>2018-12-21T08:19:50Z</time>
      </trkpt>
      <trkpt lat="39.4788765907" lon="-8.2265596837">
        <ele>75.12</ele>
        <time>2018-12-21T08:19:58Z</time>
      </trkpt>
      <trkpt lat="39.4789063465" lon="-8.2266824786">
        <ele>76.08</ele>
        <time>2018-12-21T08:20:06Z</time>
      </trkpt>
      <trkpt lat="39.4789254572" lon="-8.2267845701">
        <ele>76.56</ele>
        <time>2018-12-21T08:20:14Z</time>
      </trkpt>
      <trkpt lat="39.4789521955" lon="-8.2268940378">
        <ele>77.52</ele>
        <time>2018-12-21T08:20:22Z</time>
      </trkpt>
      <trkpt lat="39.4789916743" lon="-8.2270086184">
        <ele>79.93</ele>
        <time>2018-12-21T08:20:31Z</time>
      </trkpt>
      <trkpt lat="39.4790046662" lon="-8.2271335088">
        <ele>80.41</ele>
        <time>2018-12-21T08:20:40Z</time>
      </trkpt>
      <trkpt lat="39.4790057559" lon="-8.2272397913">
        <ele>79.93</ele>
        <time>2018-12-21T08:20:50Z</time>
      </trkpt>
      <trkpt lat="39.4789807778" lon="-8.2273020688">
        <ele>79.93</ele>
        <time>2018-12-21T08:20:56Z</time>
      </trkpt>
      <trkpt lat="39.4789718930" lon="-8.2273987960">
        <ele>80.41</ele>
        <time>2018-12-21T08:21:04Z</time>
      </trkpt>
      <trkpt lat="39.4789949432" lon="-8.2274500933">
        <ele>80.41</ele>
        <time>2018-12-21T08:21:17Z</time>
      </trkpt>
      <trkpt lat="39.4789748266" lon="-8.2275007199">
        <ele>79.93</ele>
        <time>2018-12-21T08:21:37Z</time>
      </trkpt>
      <trkpt lat="39.4789619185" lon="-8.2275179867">
        <ele>79.93</ele>
        <time>2018-12-21T08:21:39Z</time>
      </trkpt>
      <trkpt lat="39.4789107051" lon="-8.2276458107">
        <ele>80.41</ele>
        <time>2018-12-21T08:21:49Z</time>
      </trkpt>
      <trkpt lat="39.4788628444" lon="-8.2277354971">
        <ele>80.89</ele>
        <time>2018-12-21T08:21:56Z</time>
      </trkpt>
      <trkpt lat="39.4788160734" lon="-8.2278142031">
        <ele>80.89</ele>
        <time>2018-12-21T08:22:02Z</time>
      </trkpt>
      <trkpt lat="39.4788086135" lon="-8.2278252672">
        <ele>80.41</ele>
        <time>2018-12-21T08:22:03Z</time>
      </trkpt>
      <trkpt lat="39.4787754212" lon="-8.2279353216">
        <ele>80.89</ele>
        <time>2018-12-21T08:22:11Z</time>
      </trkpt>
      <trkpt lat="39.4787417259" lon="-8.2280377485">
        <ele>82.81</ele>
        <time>2018-12-21T08:22:19Z</time>
      </trkpt>
      <trkpt lat="39.4786995649" lon="-8.2281897962">
        <ele>83.29</ele>
        <time>2018-12-21T08:22:29Z</time>
      </trkpt>
      <trkpt lat="39.4786432385" lon="-8.2282992639">
        <ele>83.77</ele>
        <time>2018-12-21T08:22:38Z</time>
      </trkpt>
      <trkpt lat="39.4786113873" lon="-8.2284135930">
        <ele>84.25</ele>
        <time>2018-12-21T08:22:46Z</time>
      </trkpt>
      <trkpt lat="39.4785533007" lon="-8.2285499666">
        <ele>84.73</ele>
        <time>2018-12-21T08:22:55Z</time>
      </trkpt>
      <trkpt lat="39.4785209466" lon="-8.2286337856">
        <ele>85.69</ele>
        <time>2018-12-21T08:23:00Z</time>
      </trkpt>
      <trkpt lat="39.4785091281" lon="-8.2286585961">
        <ele>85.69</ele>
        <time>2018-12-21T08:23:02Z</time>
      </trkpt>
      <trkpt lat="39.4784460962" lon="-8.2287857495">
        <ele>86.66</ele>
        <time>2018-12-21T08:23:11Z</time>
      </trkpt>
      <trkpt lat="39.4784362055" lon="-8.2288141642">
        <ele>87.14</ele>
        <time>2018-12-21T08:23:13Z</time>
      </trkpt>
      <trkpt lat="39.4783850759" lon="-8.2289465144">
        <ele>88.58</ele>
        <time>2018-12-21T08:23:22Z</time>
      </trkpt>
      <trkpt lat="39.4783730898" lon="-8.2289724983">
        <ele>88.10</ele>
        <time>2018-12-21T08:23:24Z</time>
      </trkpt>
      <trkpt lat="39.4783440046" lon="-8.2290790323">
        <ele>89.06</ele>
        <time>2018-12-21T08:23:32Z</time>
      </trkpt>
      <trkpt lat="39.4783345331" lon="-8.2291190978">
        <ele>90.50</ele>
        <time>2018-12-21T08:23:35Z</time>
      </trkpt>
      <trkpt lat="39.4783117343" lon="-8.2292625122">
        <ele>90.98</ele>
        <time>2018-12-21T08:23:45Z</time>
      </trkpt>
      <trkpt lat="39.4783088844" lon="-8.2292900048">
        <ele>91.46</ele>
        <time>2018-12-21T08:23:47Z</time>
      </trkpt>
      <trkpt lat="39.4782942999" lon="-8.2293587364">
        <ele>91.94</ele>
        <time>2018-12-21T08:23:52Z</time>
      </trkpt>
      <trkpt lat="39.4782987423" lon="-8.2294216007">
        <ele>92.90</ele>
        <time>2018-12-21T08:23:57Z</time>
      </trkpt>
      <trkpt lat="39.4783197809" lon="-8.2294936851">
        <ele>92.90</ele>
        <time>2018-12-21T08:24:02Z</time>
      </trkpt>
      <trkpt lat="39.4783783704" lon="-8.2295984589">
        <ele>95.31</ele>
        <time>2018-12-21T08:24:12Z</time>
      </trkpt>
      <trkpt lat="39.4784085453" lon="-8.2296185754">
        <ele>94.83</ele>
        <time>2018-12-21T08:24:21Z</time>
      </trkpt>
      <trkpt lat="39.4784865808" lon="-8.2297079265">
        <ele>96.27</ele>
        <time>2018-12-21T08:24:31Z</time>
      </trkpt>
      <trkpt lat="39.4785383809" lon="-8.2297901530">
        <ele>95.79</ele>
        <time>2018-12-21T08:24:40Z</time>
      </trkpt>
      <trkpt lat="39.4785950426" lon="-8.2298437972">
        <ele>95.31</ele>
        <time>2018-12-21T08:24:47Z</time>
      </trkpt>
      <trkpt lat="39.4786783587" lon="-8.2299420331">
        <ele>94.35</ele>
        <time>2018-12-21T08:24:57Z</time>
      </trkpt>
      <trkpt lat="39.4787568972" lon="-8.2300038915">
        <ele>92.90</ele>
        <time>2018-12-21T08:25:07Z</time>
      </trkpt>
      <trkpt lat="39.4788161572" lon="-8.2300117705">
        <ele>92.42</ele>
        <time>2018-12-21T08:25:14Z</time>
      </trkpt>
      <trkpt lat="39.4789000601" lon="-8.2300355751">
        <ele>90.50</ele>
        <time>2018-12-21T08:25:23Z</time>
      </trkpt>
      <trkpt lat="39.4789527822" lon="-8.2301016245">
        <ele>88.58</ele>
        <time>2018-12-21T08:25:31Z</time>
      </trkpt>
      <trkpt lat="39.4789817836" lon="-8.2301600464">
        <ele>87.62</ele>
        <time>2018-12-21T08:25:39Z</time>
      </trkpt>
      <trkpt lat="39.4789920095" lon="-8.2301730383">
        <ele>87.14</ele>
        <time>2018-12-21T08:25:42Z</time>
      </trkpt>
      <trkpt lat="39.4790520240" lon="-8.2302996051">
        <ele>86.66</ele>
        <time>2018-12-21T08:25:52Z</time>
      </trkpt>
      <trkpt lat="39.4790586457" lon="-8.2303219847">
        <ele>85.69</ele>
        <time>2018-12-21T08:25:54Z</time>
      </trkpt>
      <trkpt lat="39.4791053329" lon="-8.2304286864">
        <ele>84.25</ele>
        <time>2018-12-21T08:26:04Z</time>
      </trkpt>
      <trkpt lat="39.4791420456" lon="-8.2305632159">
        <ele>82.33</ele>
        <time>2018-12-21T08:26:15Z</time>
      </trkpt>
      <trkpt lat="39.4791434705" lon="-8.2305759564">
        <ele>82.81</ele>
        <time>2018-12-21T08:26:16Z</time>
      </trkpt>
      <trkpt lat="39.4791498408" lon="-8.2306337077">
        <ele>82.33</ele>
        <time>2018-12-21T08:26:20Z</time>
      </trkpt>
      <trkpt lat="39.4791596476" lon="-8.2306860946">
        <ele>81.37</ele>
        <time>2018-12-21T08:26:24Z</time>
      </trkpt>
      <trkpt lat="39.4791576359" lon="-8.2307247352">
        <ele>80.41</ele>
        <time>2018-12-21T08:26:27Z</time>
      </trkpt>
      <trkpt lat="39.4791599829" lon="-8.2308353763">
        <ele>79.45</ele>
        <time>2018-12-21T08:26:35Z</time>
      </trkpt>
      <trkpt lat="39.4791648444" lon="-8.2308507990">
        <ele>79.45</ele>
        <time>2018-12-21T08:26:36Z</time>
      </trkpt>
      <trkpt lat="39.4791826140" lon="-8.2309077121">
        <ele>78.97</ele>
        <time>2018-12-21T08:26:41Z</time>
      </trkpt>
      <trkpt lat="39.4792131241" lon="-8.2310247235">
        <ele>77.52</ele>
        <time>2018-12-21T08:26:50Z</time>
      </trkpt>
      <trkpt lat="39.4792509265" lon="-8.2310542278">
        <ele>77.04</ele>
        <time>2018-12-21T08:26:55Z</time>
      </trkpt>
      <trkpt lat="39.4793712068" lon="-8.2310846541">
        <ele>75.12</ele>
        <time>2018-12-21T08:27:05Z</time>
      </trkpt>
      <trkpt lat="39.4794587139" lon="-8.2311086264">
        <ele>74.16</ele>
        <time>2018-12-21T08:27:10Z</time>
      </trkpt>
      <trkpt lat="39.4794987794" lon="-8.2311129849">
        <ele>73.68</ele>
        <time>2018-12-21T08:27:12Z</time>
      </trkpt>
      <trkpt lat="39.4796344824" lon="-8.2311077043">
        <ele>73.20</ele>
        <time>2018-12-21T08:27:21Z</time>
      </trkpt>
      <trkpt lat="39.4797267672" lon="-8.2311279885">
        <ele>73.20</ele>
        <time>2018-12-21T08:27:29Z</time>
      </trkpt>
      <trkpt lat="39.4797721133" lon="-8.2311465964">
        <ele>73.20</ele>
        <time>2018-12-21T08:27:33Z</time>
      </trkpt>
      <trkpt lat="39.4798327144" lon="-8.2311865781">
        <ele>73.68</ele>
        <time>2018-12-21T08:27:40Z</time>
      </trkpt>
      <trkpt lat="39.4798963331" lon="-8.2312554773">
        <ele>71.76</ele>
        <time>2018-12-21T08:27:48Z</time>
      </trkpt>
      <trkpt lat="39.4799312018" lon="-8.2313107979">
        <ele>69.83</ele>
        <time>2018-12-21T08:27:54Z</time>
      </trkpt>
      <trkpt lat="39.4799787272" lon="-8.2313874085">
        <ele>68.87</ele>
        <time>2018-12-21T08:28:02Z</time>
      </trkpt>
      <trkpt lat="39.4800243247" lon="-8.2314578164">
        <ele>66.95</ele>
        <time>2018-12-21T08:28:10Z</time>
      </trkpt>
      <trkpt lat="39.4800279289" lon="-8.2314678747">
        <ele>66.95</ele>
        <time>2018-12-21T08:28:11Z</time>
      </trkpt>
      <trkpt lat="39.4800437707" lon="-8.2315950282">
        <ele>65.03</ele>
        <time>2018-12-21T08:28:19Z</time>
      </trkpt>
      <trkpt lat="39.4799869414" lon="-8.2316625025">
        <ele>64.55</ele>
        <time>2018-12-21T08:28:26Z</time>
      </trkpt>
      <trkpt lat="39.4799483009" lon="-8.2317071781">
        <ele>61.66</ele>
        <time>2018-12-21T08:28:34Z</time>
      </trkpt>
      <trkpt lat="39.4799028710" lon="-8.2317445613">
        <ele>60.22</ele>
        <time>2018-12-21T08:28:41Z</time>
      </trkpt>
      <trkpt lat="39.4798610453" lon="-8.2318023965">
        <ele>58.78</ele>
        <time>2018-12-21T08:28:48Z</time>
      </trkpt>
      <trkpt lat="39.4798364025" lon="-8.2318265364">
        <ele>58.30</ele>
        <time>2018-12-21T08:28:52Z</time>
      </trkpt>
      <trkpt lat="39.4797755498" lon="-8.2318777498">
        <ele>56.37</ele>
        <time>2018-12-21T08:29:00Z</time>
      </trkpt>
      <trkpt lat="39.4796980172" lon="-8.2319217548">
        <ele>55.41</ele>
        <time>2018-12-21T08:29:07Z</time>
      </trkpt>
      <trkpt lat="39.4796447922" lon="-8.2319469843">
        <ele>53.97</ele>
        <time>2018-12-21T08:29:13Z</time>
      </trkpt>
      <trkpt lat="39.4796063192" lon="-8.2319944259">
        <ele>53.49</ele>
        <time>2018-12-21T08:29:18Z</time>
      </trkpt>
      <trkpt lat="39.4795618113" lon="-8.2320836093">
        <ele>53.01</ele>
        <time>2018-12-21T08:29:25Z</time>
      </trkpt>
      <trkpt lat="39.4795558602" lon="-8.2321121078">
        <ele>52.05</ele>
        <time>2018-12-21T08:29:27Z</time>
      </trkpt>
      <trkpt lat="39.4795564469" lon="-8.2322260179">
        <ele>52.05</ele>
        <time>2018-12-21T08:29:34Z</time>
      </trkpt>
      <trkpt lat="39.4795577880" lon="-8.2322635688">
        <ele>51.57</ele>
        <time>2018-12-21T08:29:37Z</time>
      </trkpt>
      <trkpt lat="39.4795800000" lon="-8.2323765568">
        <ele>49.16</ele>
        <time>2018-12-21T08:29:46Z</time>
      </trkpt>
      <trkpt lat="39.4795931596" lon="-8.2324794028">
        <ele>47.72</ele>
        <time>2018-12-21T08:29:54Z</time>
      </trkpt>
      <trkpt lat="39.4796076603" lon="-8.2325690892">
        <ele>47.24</ele>
        <time>2018-12-21T08:30:01Z</time>
      </trkpt>
      <trkpt lat="39.4796105940" lon="-8.2326059695">
        <ele>47.24</ele>
        <time>2018-12-21T08:30:04Z</time>
      </trkpt>
      <trkpt lat="39.4796423614" lon="-8.2327055465">
        <ele>47.24</ele>
        <time>2018-12-21T08:30:12Z</time>
      </trkpt>
      <trkpt lat="39.4796924852" lon="-8.2328015193">
        <ele>46.28</ele>
        <time>2018-12-21T08:30:20Z</time>
      </trkpt>
      <trkpt lat="39.4797317125" lon="-8.2329347916">
        <ele>46.28</ele>
        <time>2018-12-21T08:30:29Z</time>
      </trkpt>
      <trkpt lat="39.4797580317" lon="-8.2330288365">
        <ele>46.28</ele>
        <time>2018-12-21T08:30:36Z</time>
      </trkpt>
      <trkpt lat="39.4797741249" lon="-8.2331096381">
        <ele>46.76</ele>
        <time>2018-12-21T08:30:42Z</time>
      </trkpt>
      <trkpt lat="39.4797770586" lon="-8.2331238035">
        <ele>45.80</ele>
        <time>2018-12-21T08:30:43Z</time>
      </trkpt>
      <trkpt lat="39.4798085745" lon="-8.2332485262">
        <ele>45.80</ele>
        <time>2018-12-21T08:30:52Z</time>
      </trkpt>
      <trkpt lat="39.4798184652" lon="-8.2333706506">
        <ele>46.28</ele>
        <time>2018-12-21T08:30:59Z</time>
      </trkpt>
      <trkpt lat="39.4798364863" lon="-8.2334135659">
        <ele>46.28</ele>
        <time>2018-12-21T08:31:04Z</time>
      </trkpt>
      <trkpt lat="39.4798400905" lon="-8.2334339339">
        <ele>46.28</ele>
        <time>2018-12-21T08:31:05Z</time>
      </trkpt>
      <trkpt lat="39.4798998535" lon="-8.2335705590">
        <ele>45.80</ele>
        <time>2018-12-21T08:31:13Z</time>
      </trkpt>
      <trkpt lat="39.4799613766" lon="-8.2336656097">
        <ele>46.28</ele>
        <time>2018-12-21T08:31:20Z</time>
      </trkpt>
      <trkpt lat="39.4800492190" lon="-8.2337666955">
        <ele>46.28</ele>
        <time>2018-12-21T08:31:28Z</time>
      </trkpt>
      <trkpt lat="39.4800866023" lon="-8.2338366006">
        <ele>45.80</ele>
        <time>2018-12-21T08:31:34Z</time>
      </trkpt>
      <trkpt lat="39.4801270030" lon="-8.2339790091">
        <ele>46.76</ele>
        <time>2018-12-21T08:31:43Z</time>
      </trkpt>
      <trkpt lat="39.4801496342" lon="-8.2340654265">
        <ele>46.28</ele>
        <time>2018-12-21T08:31:50Z</time>
      </trkpt>
      <trkpt lat="39.4801748637" lon="-8.2341354992">
        <ele>46.28</ele>
        <time>2018-12-21T08:31:56Z</time>
      </trkpt>
      <trkpt lat="39.4802051224" lon="-8.2342373393">
        <ele>45.80</ele>
        <time>2018-12-21T08:32:04Z</time>
      </trkpt>
      <trkpt lat="39.4802484568" lon="-8.2343812566">
        <ele>47.24</ele>
        <time>2018-12-21T08:32:13Z</time>
      </trkpt>
      <trkpt lat="39.4802523963" lon="-8.2344722003">
        <ele>48.20</ele>
        <time>2018-12-21T08:32:22Z</time>
      </trkpt>
      <trkpt lat="39.4803010114" lon="-8.2346237451">
        <ele>49.16</ele>
        <time>2018-12-21T08:32:30Z</time>
      </trkpt>
      <trkpt lat="39.4802962337" lon="-8.2346592844">
        <ele>49.16</ele>
        <time>2018-12-21T08:32:36Z</time>
      </trkpt>
      <trkpt lat="39.4802841637" lon="-8.2346726116">
        <ele>49.16</ele>
        <time>2018-12-21T08:32:45Z</time>
      </trkpt>
      <trkpt lat="39.4802912883" lon="-8.2346717734">
        <ele>49.16</ele>
        <time>2018-12-21T08:32:49Z</time>
      </trkpt>
      <trkpt lat="39.4803174399" lon="-8.2347118389">
        <ele>49.16</ele>
        <time>2018-12-21T08:32:55Z</time>
      </trkpt>
      <trkpt lat="39.4803213794" lon="-8.2347272616">
        <ele>49.16</ele>
        <time>2018-12-21T08:32:56Z</time>
      </trkpt>
      <trkpt lat="39.4803144224" lon="-8.2348443568">
        <ele>49.65</ele>
        <time>2018-12-21T08:33:04Z</time>
      </trkpt>
      <trkpt lat="39.4802637957" lon="-8.2348946482">
        <ele>50.13</ele>
        <time>2018-12-21T08:33:12Z</time>
      </trkpt>
      <trkpt lat="39.4802233949" lon="-8.2349327859">
        <ele>49.16</ele>
        <time>2018-12-21T08:33:20Z</time>
      </trkpt>
      <trkpt lat="39.4802078884" lon="-8.2349468675">
        <ele>49.65</ele>
        <time>2018-12-21T08:33:22Z</time>
      </trkpt>
      <trkpt lat="39.4801612850" lon="-8.2349938061">
        <ele>49.16</ele>
        <time>2018-12-21T08:33:28Z</time>
      </trkpt>
      <trkpt lat="39.4800938107" lon="-8.2350640465">
        <ele>50.13</ele>
        <time>2018-12-21T08:33:37Z</time>
      </trkpt>
      <trkpt lat="39.4800669886" lon="-8.2350905333">
        <ele>49.16</ele>
        <time>2018-12-21T08:33:40Z</time>
      </trkpt>
      <trkpt lat="39.4799935631" lon="-8.2351706643">
        <ele>49.65</ele>
        <time>2018-12-21T08:33:49Z</time>
      </trkpt>
      <trkpt lat="39.4799337164" lon="-8.2352082152">
        <ele>49.16</ele>
        <time>2018-12-21T08:33:56Z</time>
      </trkpt>
      <trkpt lat="39.4798572734" lon="-8.2352698222">
        <ele>49.65</ele>
        <time>2018-12-21T08:34:05Z</time>
      </trkpt>
      <trkpt lat="39.4797552656" lon="-8.2353491150">
        <ele>49.16</ele>
        <time>2018-12-21T08:34:14Z</time>
      </trkpt>
      <trkpt lat="39.4796654116" lon="-8.2354234625">
        <ele>49.65</ele>
        <time>2018-12-21T08:34:23Z</time>
      </trkpt>
      <trkpt lat="39.4795474783" lon="-8.2355082035">
        <ele>49.65</ele>
        <time>2018-12-21T08:34:33Z</time>
      </trkpt>
      <trkpt lat="39.4794898946" lon="-8.2355727442">
        <ele>49.16</ele>
        <time>2018-12-21T08:34:40Z</time>
      </trkpt>
      <trkpt lat="39.4793914072" lon="-8.2356917672">
        <ele>49.16</ele>
        <time>2018-12-21T08:34:51Z</time>
      </trkpt>
      <trkpt lat="39.4793334045" lon="-8.2358117960">
        <ele>48.20</ele>
        <time>2018-12-21T08:35:00Z</time>
      </trkpt>
      <trkpt lat="39.4792634994" lon="-8.2359165698">
        <ele>47.72</ele>
        <time>2018-12-21T08:35:09Z</time>
      </trkpt>
      <trkpt lat="39.4792215899" lon="-8.2359989639">
        <ele>47.72</ele>
        <time>2018-12-21T08:35:16Z</time>
      </trkpt>
      <trkpt lat="39.4791713823" lon="-8.2361023128">
        <ele>47.72</ele>
        <time>2018-12-21T08:35:25Z</time>
      </trkpt>
      <trkpt lat="39.4791332446" lon="-8.2362158876">
        <ele>46.76</ele>
        <time>2018-12-21T08:35:33Z</time>
      </trkpt>
      <trkpt lat="39.4791008066" lon="-8.2362547796">
        <ele>45.80</ele>
        <time>2018-12-21T08:35:39Z</time>
      </trkpt>
      <trkpt lat="39.4791001361" lon="-8.2362491637">
        <ele>46.76</ele>
        <time>2018-12-21T08:35:51Z</time>
      </trkpt>
      <trkpt lat="39.4790796004" lon="-8.2362324838">
        <ele>46.28</ele>
        <time>2018-12-21T08:36:02Z</time>
      </trkpt>
      <trkpt lat="39.4790764153" lon="-8.2362334896">
        <ele>46.76</ele>
        <time>2018-12-21T08:36:14Z</time>
      </trkpt>
      <trkpt lat="39.4790837076" lon="-8.2361961063">
        <ele>46.28</ele>
        <time>2018-12-21T08:36:24Z</time>
      </trkpt>
      <trkpt lat="39.4790967833" lon="-8.2362044882">
        <ele>46.28</ele>
        <time>2018-12-21T08:36:31Z</time>
      </trkpt>
      <trkpt lat="39.4790868927" lon="-8.2362712920">
        <ele>46.76</ele>
        <time>2018-12-21T08:36:39Z</time>
      </trkpt>
      <trkpt lat="39.4790573884" lon="-8.2363535184">
        <ele>46.28</ele>
        <time>2018-12-21T08:36:45Z</time>
      </trkpt>
      <trkpt lat="39.4790179096" lon="-8.2364348229">
        <ele>45.80</ele>
        <time>2018-12-21T08:36:52Z</time>
      </trkpt>
      <trkpt lat="39.4789534528" lon="-8.2365609705">
        <ele>45.80</ele>
        <time>2018-12-21T08:37:02Z</time>
      </trkpt>
      <trkpt lat="39.4788957015" lon="-8.2366937399">
        <ele>45.80</ele>
        <time>2018-12-21T08:37:11Z</time>
      </trkpt>
      <trkpt lat="39.4788885769" lon="-8.2367082406">
        <ele>45.80</ele>
        <time>2018-12-21T08:37:12Z</time>
      </trkpt>
      <trkpt lat="39.4788708072" lon="-8.2367763855">
        <ele>45.32</ele>
        <time>2018-12-21T08:37:17Z</time>
      </trkpt>
      <trkpt lat="39.4787972141" lon="-8.2369227335">
        <ele>44.36</ele>
        <time>2018-12-21T08:37:28Z</time>
      </trkpt>
      <trkpt lat="39.4787371159" lon="-8.2370502222">
        <ele>45.32</ele>
        <time>2018-12-21T08:37:37Z</time>
      </trkpt>
      <trkpt lat="39.4786524586" lon="-8.2372105680">
        <ele>44.36</ele>
        <time>2018-12-21T08:37:49Z</time>
      </trkpt>
      <trkpt lat="39.4785745069" lon="-8.2372897770">
        <ele>44.36</ele>
        <time>2018-12-21T08:37:57Z</time>
      </trkpt>
      <trkpt lat="39.4785424881" lon="-8.2373647951">
        <ele>43.88</ele>
        <time>2018-12-21T08:38:02Z</time>
      </trkpt>
      <trkpt lat="39.4785040151" lon="-8.2374441717">
        <ele>43.88</ele>
        <time>2018-12-21T08:38:08Z</time>
      </trkpt>
      <trkpt lat="39.4784274045" lon="-8.2375429943">
        <ele>43.88</ele>
        <time>2018-12-21T08:38:17Z</time>
      </trkpt>
      <trkpt lat="39.4783351198" lon="-8.2376223709">
        <ele>43.40</ele>
        <time>2018-12-21T08:38:26Z</time>
      </trkpt>
      <trkpt lat="39.4783269893" lon="-8.2376328483">
        <ele>42.92</ele>
        <time>2018-12-21T08:38:27Z</time>
      </trkpt>
      <trkpt lat="39.4782538991" lon="-8.2377686352">
        <ele>42.92</ele>
        <time>2018-12-21T08:38:36Z</time>
      </trkpt>
      <trkpt lat="39.4782409910" lon="-8.2377981395">
        <ele>43.40</ele>
        <time>2018-12-21T08:38:38Z</time>
      </trkpt>
      <trkpt lat="39.4781827368" lon="-8.2379483432">
        <ele>42.92</ele>
        <time>2018-12-21T08:38:48Z</time>
      </trkpt>
      <trkpt lat="39.4781462755" lon="-8.2380761672">
        <ele>43.40</ele>
        <time>2018-12-21T08:38:57Z</time>
      </trkpt>
      <trkpt lat="39.4781245664" lon="-8.2382091880">
        <ele>42.92</ele>
        <time>2018-12-21T08:39:06Z</time>
      </trkpt>
      <trkpt lat="39.4781279191" lon="-8.2383566257">
        <ele>42.92</ele>
        <time>2018-12-21T08:39:16Z</time>
      </trkpt>
      <trkpt lat="39.4781009294" lon="-8.2385114394">
        <ele>43.40</ele>
        <time>2018-12-21T08:39:25Z</time>
      </trkpt>
      <trkpt lat="39.4780969899" lon="-8.2386370841">
        <ele>44.36</ele>
        <time>2018-12-21T08:39:33Z</time>
      </trkpt>
      <trkpt lat="39.4781052880" lon="-8.2387748826">
        <ele>44.84</ele>
        <time>2018-12-21T08:39:41Z</time>
      </trkpt>
      <trkpt lat="39.4781240635" lon="-8.2388971746">
        <ele>45.32</ele>
        <time>2018-12-21T08:39:49Z</time>
      </trkpt>
      <trkpt lat="39.4781530648" lon="-8.2390321232">
        <ele>45.80</ele>
        <time>2018-12-21T08:39:58Z</time>
      </trkpt>
      <trkpt lat="39.4781619497" lon="-8.2391013578">
        <ele>46.28</ele>
        <time>2018-12-21T08:40:02Z</time>
      </trkpt>
      <trkpt lat="39.4781668950" lon="-8.2392564230">
        <ele>47.24</ele>
        <time>2018-12-21T08:40:11Z</time>
      </trkpt>
      <trkpt lat="39.4781636260" lon="-8.2393995021">
        <ele>48.20</ele>
        <time>2018-12-21T08:40:20Z</time>
      </trkpt>
      <trkpt lat="39.4781355467" lon="-8.2395034377">
        <ele>48.68</ele>
        <time>2018-12-21T08:40:27Z</time>
      </trkpt>
      <trkpt lat="39.4781150948" lon="-8.2396149170">
        <ele>49.65</ele>
        <time>2018-12-21T08:40:35Z</time>
      </trkpt>
      <trkpt lat="39.4781105686" lon="-8.2397283241">
        <ele>50.61</ele>
        <time>2018-12-21T08:40:42Z</time>
      </trkpt>
      <trkpt lat="39.4780782983" lon="-8.2398764323">
        <ele>51.57</ele>
        <time>2018-12-21T08:40:51Z</time>
      </trkpt>
      <trkpt lat="39.4780619536" lon="-8.2400110457">
        <ele>52.53</ele>
        <time>2018-12-21T08:40:59Z</time>
      </trkpt>
      <trkpt lat="39.4780549128" lon="-8.2401233632">
        <ele>52.05</ele>
        <time>2018-12-21T08:41:06Z</time>
      </trkpt>
      <trkpt lat="39.4780166075" lon="-8.2402517740">
        <ele>51.57</ele>
        <time>2018-12-21T08:41:14Z</time>
      </trkpt>
      <trkpt lat="39.4779809844" lon="-8.2403624989">
        <ele>51.09</ele>
        <time>2018-12-21T08:41:22Z</time>
      </trkpt>
      <trkpt lat="39.4779477082" lon="-8.2404972799">
        <ele>51.57</ele>
        <time>2018-12-21T08:41:30Z</time>
      </trkpt>
      <trkpt lat="39.4779014401" lon="-8.2406183146">
        <ele>51.57</ele>
        <time>2018-12-21T08:41:38Z</time>
      </trkpt>
      <trkpt lat="39.4778603688" lon="-8.2407540176">
        <ele>50.61</ele>
        <time>2018-12-21T08:41:47Z</time>
      </trkpt>
      <trkpt lat="39.4778171182" lon="-8.2408962585">
        <ele>50.13</ele>
        <time>2018-12-21T08:41:56Z</time>
      </trkpt>
      <trkpt lat="39.4777536672" lon="-8.2410598733">
        <ele>50.61</ele>
        <time>2018-12-21T08:42:07Z</time>
      </trkpt>
      <trkpt lat="39.4777027890" lon="-8.2411756273">
        <ele>50.13</ele>
        <time>2018-12-21T08:42:15Z</time>
      </trkpt>
      <trkpt lat="39.4776659086" lon="-8.2413054630">
        <ele>49.16</ele>
        <time>2018-12-21T08:42:23Z</time>
      </trkpt>
      <trkpt lat="39.4776580296" lon="-8.2413740270">
        <ele>50.13</ele>
        <time>2018-12-21T08:42:27Z</time>
      </trkpt>
      <trkpt lat="39.4776232447" lon="-8.2415547408">
        <ele>49.65</ele>
        <time>2018-12-21T08:42:38Z</time>
      </trkpt>
      <trkpt lat="39.4775953330" lon="-8.2416888513">
        <ele>48.68</ele>
        <time>2018-12-21T08:42:47Z</time>
      </trkpt>
      <trkpt lat="39.4775676727" lon="-8.2418121491">
        <ele>48.20</ele>
        <time>2018-12-21T08:42:55Z</time>
      </trkpt>
      <trkpt lat="39.4775149506" lon="-8.2419458404">
        <ele>48.68</ele>
        <time>2018-12-21T08:43:04Z</time>
      </trkpt>
      <trkpt lat="39.4774310477" lon="-8.2420697249">
        <ele>48.20</ele>
        <time>2018-12-21T08:43:13Z</time>
      </trkpt>
      <trkpt lat="39.4773618132" lon="-8.2421427313">
        <ele>47.72</ele>
        <time>2018-12-21T08:43:21Z</time>
      </trkpt>
      <trkpt lat="39.4772593863" lon="-8.2422394585">
        <ele>46.76</ele>
        <time>2018-12-21T08:43:31Z</time>
      </trkpt>
      <trkpt lat="39.4772335701" lon="-8.2422698010">
        <ele>47.24</ele>
        <time>2018-12-21T08:43:39Z</time>
      </trkpt>
      <trkpt lat="39.4771474879" lon="-8.2423459087">
        <ele>46.76</ele>
        <time>2018-12-21T08:43:48Z</time>
      </trkpt>
      <trkpt lat="39.4770588912" lon="-8.2424500119">
        <ele>46.28</ele>
        <time>2018-12-21T08:43:57Z</time>
      </trkpt>
      <trkpt lat="39.4769984577" lon="-8.2425320707">
        <ele>46.76</ele>
        <time>2018-12-21T08:44:03Z</time>
      </trkpt>
      <trkpt lat="39.4768959470" lon="-8.2426361740">
        <ele>46.76</ele>
        <time>2018-12-21T08:44:12Z</time>
      </trkpt>
      <trkpt lat="39.4767723978" lon="-8.2427371759">
        <ele>45.80</ele>
        <time>2018-12-21T08:44:24Z</time>
      </trkpt>
      <trkpt lat="39.4767015707" lon="-8.2427850366">
        <ele>46.28</ele>
        <time>2018-12-21T08:44:31Z</time>
      </trkpt>
      <trkpt lat="39.4765825476" lon="-8.2429143693">
        <ele>45.80</ele>
        <time>2018-12-21T08:44:43Z</time>
      </trkpt>
      <trkpt lat="39.4765012432" lon="-8.2430265192">
        <ele>46.28</ele>
        <time>2018-12-21T08:44:51Z</time>
      </trkpt>
      <trkpt lat="39.4764837250" lon="-8.2430555206">
        <ele>45.80</ele>
        <time>2018-12-21T08:44:53Z</time>
      </trkpt>
      <trkpt lat="39.4764568191" lon="-8.2431622222">
        <ele>45.32</ele>
        <time>2018-12-21T08:45:00Z</time>
      </trkpt>
      <trkpt lat="39.4764415640" lon="-8.2432792336">
        <ele>45.80</ele>
        <time>2018-12-21T08:45:08Z</time>
      </trkpt>
      <trkpt lat="39.4763673842" lon="-8.2433849294">
        <ele>44.84</ele>
        <time>2018-12-21T08:45:17Z</time>
      </trkpt>
      <trkpt lat="39.4763092976" lon="-8.2434879430">
        <ele>45.32</ele>
        <time>2018-12-21T08:45:25Z</time>
      </trkpt>
      <trkpt lat="39.4763104711" lon="-8.2435166929">
        <ele>45.32</ele>
        <time>2018-12-21T08:45:27Z</time>
      </trkpt>
      <trkpt lat="39.4763092138" lon="-8.2436026074">
        <ele>44.84</ele>
        <time>2018-12-21T08:45:33Z</time>
      </trkpt>
      <trkpt lat="39.4763080403" lon="-8.2436985802">
        <ele>44.36</ele>
        <time>2018-12-21T08:45:39Z</time>
      </trkpt>
      <trkpt lat="39.4763030112" lon="-8.2437795494">
        <ele>44.36</ele>
        <time>2018-12-21T08:45:44Z</time>
      </trkpt>
      <trkpt lat="39.4762800448" lon="-8.2439161744">
        <ele>44.84</ele>
        <time>2018-12-21T08:45:53Z</time>
      </trkpt>
      <trkpt lat="39.4762748480" lon="-8.2440579124">
        <ele>43.88</ele>
        <time>2018-12-21T08:46:03Z</time>
      </trkpt>
      <trkpt lat="39.4762823917" lon="-8.2441065274">
        <ele>43.40</ele>
        <time>2018-12-21T08:46:16Z</time>
      </trkpt>
      <trkpt lat="39.4763120636" lon="-8.2441370375">
        <ele>43.40</ele>
        <time>2018-12-21T08:46:22Z</time>
      </trkpt>
      <trkpt lat="39.4763571583" lon="-8.2441900112">
        <ele>43.40</ele>
        <time>2018-12-21T08:46:29Z</time>
      </trkpt>
      <trkpt lat="39.4764255546" lon="-8.2442482654">
        <ele>43.88</ele>
        <time>2018-12-21T08:46:38Z</time>
      </trkpt>
      <trkpt lat="39.4764067791" lon="-8.2442725729">
        <ele>43.40</ele>
        <time>2018-12-21T08:46:45Z</time>
      </trkpt>
      <trkpt lat="39.4764044322" lon="-8.2442698069">
        <ele>43.88</ele>
        <time>2018-12-21T08:46:55Z</time>
      </trkpt>
      <trkpt lat="39.4764166698" lon="-8.2442727406">
        <ele>43.40</ele>
        <time>2018-12-21T08:46:57Z</time>
      </trkpt>
      <trkpt lat="39.4764763489" lon="-8.2442942820">
        <ele>43.40</ele>
        <time>2018-12-21T08:47:05Z</time>
      </trkpt>
      <trkpt lat="39.4765727408" lon="-8.2443900034">
        <ele>43.88</ele>
        <time>2018-12-21T08:47:14Z</time>
      </trkpt>
      <trkpt lat="39.4766858127" lon="-8.2444601599">
        <ele>43.88</ele>
        <time>2018-12-21T08:47:24Z</time>
      </trkpt>
      <trkpt lat="39.4767599087" lon="-8.2445236947">
        <ele>43.88</ele>
        <time>2018-12-21T08:47:32Z</time>
      </trkpt>
      <trkpt lat="39.4768344238" lon="-8.2445956953">
        <ele>43.88</ele>
        <time>2018-12-21T08:47:39Z</time>
      </trkpt>
      <trkpt lat="39.4769122917" lon="-8.2446650136">
        <ele>44.36</ele>
        <time>2018-12-21T08:47:47Z</time>
      </trkpt>
      <trkpt lat="39.4769996312" lon="-8.2447561249">
        <ele>44.36</ele>
        <time>2018-12-21T08:47:56Z</time>
      </trkpt>
      <trkpt lat="39.4771173969" lon="-8.2448517624">
        <ele>44.84</ele>
        <time>2018-12-21T08:48:07Z</time>
      </trkpt>
      <trkpt lat="39.4772137888" lon="-8.2449248526">
        <ele>45.32</ele>
        <time>2018-12-21T08:48:16Z</time>
      </trkpt>
      <trkpt lat="39.4772693608" lon="-8.2449631579">
        <ele>44.84</ele>
        <time>2018-12-21T08:48:21Z</time>
      </trkpt>
      <trkpt lat="39.4773651659" lon="-8.2450582087">
        <ele>44.84</ele>
        <time>2018-12-21T08:48:30Z</time>
      </trkpt>
      <trkpt lat="39.4774530921" lon="-8.2451254316">
        <ele>45.32</ele>
        <time>2018-12-21T08:48:38Z</time>
      </trkpt>
      <trkpt lat="39.4775534235" lon="-8.2451887149">
        <ele>45.80</ele>
        <time>2018-12-21T08:48:48Z</time>
      </trkpt>
      <trkpt lat="39.4776603766" lon="-8.2452348154">
        <ele>45.32</ele>
        <time>2018-12-21T08:48:56Z</time>
      </trkpt>
      <trkpt lat="39.4777485542" lon="-8.2452786528">
        <ele>45.80</ele>
        <time>2018-12-21T08:49:04Z</time>
      </trkpt>
      <trkpt lat="39.4778427668" lon="-8.2453579456">
        <ele>45.32</ele>
        <time>2018-12-21T08:49:14Z</time>
      </trkpt>
      <trkpt lat="39.4779307768" lon="-8.2454015315">
        <ele>46.28</ele>
        <time>2018-12-21T08:49:21Z</time>
      </trkpt>
      <trkpt lat="39.4780376460" lon="-8.2454868592">
        <ele>46.28</ele>
        <time>2018-12-21T08:49:31Z</time>
      </trkpt>
      <trkpt lat="39.4781511370" lon="-8.2455539145">
        <ele>45.80</ele>
        <time>2018-12-21T08:49:40Z</time>
      </trkpt>
      <trkpt lat="39.4782687351" lon="-8.2456226461">
        <ele>45.80</ele>
        <time>2018-12-21T08:49:49Z</time>
      </trkpt>
      <trkpt lat="39.4783595111" lon="-8.2456733566">
        <ele>45.32</ele>
        <time>2018-12-21T08:49:57Z</time>
      </trkpt>
      <trkpt lat="39.4784601778" lon="-8.2457358018">
        <ele>45.80</ele>
        <time>2018-12-21T08:50:05Z</time>
      </trkpt>
      <trkpt lat="39.4785096310" lon="-8.2457699161">
        <ele>44.84</ele>
        <time>2018-12-21T08:50:09Z</time>
      </trkpt>
      <trkpt lat="39.4786440767" lon="-8.2458342053">
        <ele>44.84</ele>
        <time>2018-12-21T08:50:20Z</time>
      </trkpt>
      <trkpt lat="39.4787376188" lon="-8.2458961476">
        <ele>45.80</ele>
        <time>2018-12-21T08:50:28Z</time>
      </trkpt>
      <trkpt lat="39.4788667001" lon="-8.2459747698">
        <ele>44.84</ele>
        <time>2018-12-21T08:50:39Z</time>
      </trkpt>
      <trkpt lat="39.4789316598" lon="-8.2460168470">
        <ele>45.32</ele>
        <time>2018-12-21T08:50:45Z</time>
      </trkpt>
      <trkpt lat="39.4790395349" lon="-8.2460932899">
        <ele>44.84</ele>
        <time>2018-12-21T08:50:54Z</time>
      </trkpt>
      <trkpt lat="39.4791263714" lon="-8.2461942080">
        <ele>44.36</ele>
        <time>2018-12-21T08:51:03Z</time>
      </trkpt>
      <trkpt lat="39.4791926723" lon="-8.2463115547">
        <ele>41.95</ele>
        <time>2018-12-21T08:51:13Z</time>
      </trkpt>
      <trkpt lat="39.4792276248" lon="-8.2464585733">
        <ele>42.44</ele>
        <time>2018-12-21T08:51:22Z</time>
      </trkpt>
      <trkpt lat="39.4792514294" lon="-8.2465906721">
        <ele>41.47</ele>
        <time>2018-12-21T08:51:30Z</time>
      </trkpt>
      <trkpt lat="39.4792552013" lon="-8.2467283029">
        <ele>40.03</ele>
        <time>2018-12-21T08:51:38Z</time>
      </trkpt>
      <trkpt lat="39.4792189915" lon="-8.2469120342">
        <ele>38.59</ele>
        <time>2018-12-21T08:51:49Z</time>
      </trkpt>
      <trkpt lat="39.4791705441" lon="-8.2470340747">
        <ele>38.11</ele>
        <time>2018-12-21T08:51:57Z</time>
      </trkpt>
      <trkpt lat="39.4790981244" lon="-8.2471909840">
        <ele>36.67</ele>
        <time>2018-12-21T08:52:08Z</time>
      </trkpt>
      <trkpt lat="39.4790636748" lon="-8.2473035529">
        <ele>36.67</ele>
        <time>2018-12-21T08:52:16Z</time>
      </trkpt>
      <trkpt lat="39.4790262915" lon="-8.2473957539">
        <ele>35.71</ele>
        <time>2018-12-21T08:52:22Z</time>
      </trkpt>
      <trkpt lat="39.4789880700" lon="-8.2474334724">
        <ele>36.67</ele>
        <time>2018-12-21T08:52:26Z</time>
      </trkpt>
      <trkpt lat="39.4789500162" lon="-8.2474695146">
        <ele>35.71</ele>
        <time>2018-12-21T08:52:34Z</time>
      </trkpt>
      <trkpt lat="39.4789510220" lon="-8.2475021202">
        <ele>35.71</ele>
        <time>2018-12-21T08:52:39Z</time>
      </trkpt>
      <trkpt lat="39.4789560512" lon="-8.2475737017">
        <ele>35.71</ele>
        <time>2018-12-21T08:52:44Z</time>
      </trkpt>
      <trkpt lat="39.4790104497" lon="-8.2476472110">
        <ele>36.19</ele>
        <time>2018-12-21T08:52:51Z</time>
      </trkpt>
      <trkpt lat="39.4790587295" lon="-8.2476928923">
        <ele>35.71</ele>
        <time>2018-12-21T08:52:57Z</time>
      </trkpt>
      <trkpt lat="39.4791364297" lon="-8.2477723528">
        <ele>35.71</ele>
        <time>2018-12-21T08:53:06Z</time>
      </trkpt>
      <trkpt lat="39.4791715499" lon="-8.2477936428">
        <ele>36.67</ele>
        <time>2018-12-21T08:53:09Z</time>
      </trkpt>
      <trkpt lat="39.4792658463" lon="-8.2478929684">
        <ele>36.19</ele>
        <time>2018-12-21T08:53:19Z</time>
      </trkpt>
      <trkpt lat="39.4793480728" lon="-8.2479544915">
        <ele>37.15</ele>
        <time>2018-12-21T08:53:27Z</time>
      </trkpt>
      <trkpt lat="39.4794214144" lon="-8.2479824033">
        <ele>36.67</ele>
        <time>2018-12-21T08:53:33Z</time>
      </trkpt>
      <trkpt lat="39.4795005396" lon="-8.2480666414">
        <ele>36.67</ele>
        <time>2018-12-21T08:53:42Z</time>
      </trkpt>
      <trkpt lat="39.4795114361" lon="-8.2480696589">
        <ele>37.15</ele>
        <time>2018-12-21T08:53:49Z</time>
      </trkpt>
      <trkpt lat="39.4795360789" lon="-8.2480845787">
        <ele>37.15</ele>
        <time>2018-12-21T08:53:51Z</time>
      </trkpt>
      <trkpt lat="39.4795799162" lon="-8.2481353730">
        <ele>37.15</ele>
        <time>2018-12-21T08:53:59Z</time>
      </trkpt>
      <trkpt lat="39.4796412718" lon="-8.2481901906">
        <ele>37.15</ele>
        <time>2018-12-21T08:54:06Z</time>
      </trkpt>
      <trkpt lat="39.4796825945" lon="-8.2482265681">
        <ele>38.11</ele>
        <time>2018-12-21T08:54:10Z</time>
      </trkpt>
      <trkpt lat="39.4797378313" lon="-8.2482595090">
        <ele>37.15</ele>
        <time>2018-12-21T08:54:16Z</time>
      </trkpt>
      <trkpt lat="39.4798361510" lon="-8.2483438309">
        <ele>37.63</ele>
        <time>2018-12-21T08:54:26Z</time>
      </trkpt>
      <trkpt lat="39.4798995182" lon="-8.2483771071">
        <ele>38.59</ele>
        <time>2018-12-21T08:54:33Z</time>
      </trkpt>
      <trkpt lat="39.4799819123" lon="-8.2484462578">
        <ele>39.07</ele>
        <time>2018-12-21T08:54:42Z</time>
      </trkpt>
      <trkpt lat="39.4800741132" lon="-8.2485417277">
        <ele>38.59</ele>
        <time>2018-12-21T08:54:52Z</time>
      </trkpt>
      <trkpt lat="39.4801726006" lon="-8.2486232836">
        <ele>39.55</ele>
        <time>2018-12-21T08:55:02Z</time>
      </trkpt>
      <trkpt lat="39.4802625384" lon="-8.2486702222">
        <ele>39.55</ele>
        <time>2018-12-21T08:55:10Z</time>
      </trkpt>
      <trkpt lat="39.4803647138" lon="-8.2487630937">
        <ele>39.55</ele>
        <time>2018-12-21T08:55:20Z</time>
      </trkpt>
      <trkpt lat="39.4804730080" lon="-8.2488579769">
        <ele>40.51</ele>
        <time>2018-12-21T08:55:30Z</time>
      </trkpt>
      <trkpt lat="39.4805508759" lon="-8.2489295583">
        <ele>39.55</ele>
        <time>2018-12-21T08:55:37Z</time>
      </trkpt>
      <trkpt lat="39.4806707371" lon="-8.2490332425">
        <ele>40.03</ele>
        <time>2018-12-21T08:55:48Z</time>
      </trkpt>
      <trkpt lat="39.4807379600" lon="-8.2491313107">
        <ele>40.51</ele>
        <time>2018-12-21T08:55:56Z</time>
      </trkpt>
      <trkpt lat="39.4808320049" lon="-8.2492380962">
        <ele>40.03</ele>
        <time>2018-12-21T08:56:05Z</time>
      </trkpt>
      <trkpt lat="39.4809118006" lon="-8.2493766490">
        <ele>40.03</ele>
        <time>2018-12-21T08:56:16Z</time>
      </trkpt>
      <trkpt lat="39.4810019899" lon="-8.2494637370">
        <ele>40.51</ele>
        <time>2018-12-21T08:56:25Z</time>
      </trkpt>
      <trkpt lat="39.4810609147" lon="-8.2495312113">
        <ele>40.99</ele>
        <time>2018-12-21T08:56:31Z</time>
      </trkpt>
      <trkpt lat="39.4811408781" lon="-8.2496726140">
        <ele>40.51</ele>
        <time>2018-12-21T08:56:42Z</time>
      </trkpt>
      <trkpt lat="39.4812257029" lon="-8.2497970015">
        <ele>40.03</ele>
        <time>2018-12-21T08:56:52Z</time>
      </trkpt>
      <trkpt lat="39.4813111983" lon="-8.2499192096">
        <ele>40.51</ele>
        <time>2018-12-21T08:57:02Z</time>
      </trkpt>
      <trkpt lat="39.4813800976" lon="-8.2500157692">
        <ele>40.51</ele>
        <time>2018-12-21T08:57:10Z</time>
      </trkpt>
      <trkpt lat="39.4814930018" lon="-8.2501277514">
        <ele>40.03</ele>
        <time>2018-12-21T08:57:21Z</time>
      </trkpt>
      <trkpt lat="39.4815568719" lon="-8.2502285857">
        <ele>40.51</ele>
        <time>2018-12-21T08:57:29Z</time>
      </trkpt>
      <trkpt lat="39.4816332310" lon="-8.2503295038">
        <ele>40.03</ele>
        <time>2018-12-21T08:57:38Z</time>
      </trkpt>
      <trkpt lat="39.4817426987" lon="-8.2504339423">
        <ele>40.03</ele>
        <time>2018-12-21T08:57:48Z</time>
      </trkpt>
      <trkpt lat="39.4818229135" lon="-8.2505553123">
        <ele>39.55</ele>
        <time>2018-12-21T08:57:58Z</time>
      </trkpt>
      <trkpt lat="39.4818859454" lon="-8.2506666239">
        <ele>39.07</ele>
        <time>2018-12-21T08:58:07Z</time>
      </trkpt>
      <trkpt lat="39.4819558505" lon="-8.2507614233">
        <ele>39.55</ele>
        <time>2018-12-21T08:58:15Z</time>
      </trkpt>
      <trkpt lat="39.4820783101" lon="-8.2508520316">
        <ele>39.07</ele>
        <time>2018-12-21T08:58:24Z</time>
      </trkpt>
      <trkpt lat="39.4821874425" lon="-8.2509442326">
        <ele>39.07</ele>
        <time>2018-12-21T08:58:34Z</time>
      </trkpt>
      <trkpt lat="39.4822573476" lon="-8.2510710508">
        <ele>39.55</ele>
        <time>2018-12-21T08:58:44Z</time>
      </trkpt>
      <trkpt lat="39.4823413342" lon="-8.2512154710">
        <ele>38.59</ele>
        <time>2018-12-21T08:58:55Z</time>
      </trkpt>
      <trkpt lat="39.4824078865" lon="-8.2512942608">
        <ele>38.59</ele>
        <time>2018-12-21T08:59:02Z</time>
      </trkpt>
      <trkpt lat="39.4825059548" lon="-8.2513969392">
        <ele>38.59</ele>
        <time>2018-12-21T08:59:11Z</time>
      </trkpt>
      <trkpt lat="39.4825872593" lon="-8.2514817640">
        <ele>39.07</ele>
        <time>2018-12-21T08:59:19Z</time>
      </trkpt>
      <trkpt lat="39.4826814719" lon="-8.2515989430">
        <ele>38.59</ele>
        <time>2018-12-21T08:59:30Z</time>
      </trkpt>
      <trkpt lat="39.4827449229" lon="-8.2517372444">
        <ele>37.63</ele>
        <time>2018-12-21T08:59:40Z</time>
      </trkpt>
      <trkpt lat="39.4827918615" lon="-8.2518813293">
        <ele>38.11</ele>
        <time>2018-12-21T08:59:49Z</time>
      </trkpt>
      <trkpt lat="39.4828281552" lon="-8.2519644778">
        <ele>38.11</ele>
        <time>2018-12-21T08:59:54Z</time>
      </trkpt>
      <trkpt lat="39.4828420691" lon="-8.2520376518">
        <ele>38.11</ele>
        <time>2018-12-21T08:59:58Z</time>
      </trkpt>
      <trkpt lat="39.4828982279" lon="-8.2522209641">
        <ele>38.59</ele>
        <time>2018-12-21T09:00:09Z</time>
      </trkpt>
      <trkpt lat="39.4829424005" lon="-8.2523913682">
        <ele>37.15</ele>
        <time>2018-12-21T09:00:19Z</time>
      </trkpt>
      <trkpt lat="39.4829376228" lon="-8.2525318488">
        <ele>37.63</ele>
        <time>2018-12-21T09:00:28Z</time>
      </trkpt>
      <trkpt lat="39.4829512853" lon="-8.2526822202">
        <ele>38.11</ele>
        <time>2018-12-21T09:00:37Z</time>
      </trkpt>
      <trkpt lat="39.4829798676" lon="-8.2528457511">
        <ele>38.11</ele>
        <time>2018-12-21T09:00:47Z</time>
      </trkpt>
      <trkpt lat="39.4830165803" lon="-8.2530271355">
        <ele>37.63</ele>
        <time>2018-12-21T09:00:58Z</time>
      </trkpt>
      <trkpt lat="39.4830101263" lon="-8.2531697955">
        <ele>37.15</ele>
        <time>2018-12-21T09:01:07Z</time>
      </trkpt>
      <trkpt lat="39.4830503594" lon="-8.2533263694">
        <ele>37.15</ele>
        <time>2018-12-21T09:01:17Z</time>
      </trkpt>
      <trkpt lat="39.4830808695" lon="-8.2534904033">
        <ele>37.15</ele>
        <time>2018-12-21T09:01:27Z</time>
      </trkpt>
      <trkpt lat="39.4831151515" lon="-8.2536270283">
        <ele>37.63</ele>
        <time>2018-12-21T09:01:36Z</time>
      </trkpt>
      <trkpt lat="39.4831329212" lon="-8.2537796628">
        <ele>37.63</ele>
        <time>2018-12-21T09:01:46Z</time>
      </trkpt>
      <trkpt lat="39.4831357710" lon="-8.2539293636">
        <ele>38.59</ele>
        <time>2018-12-21T09:01:55Z</time>
      </trkpt>
      <trkpt lat="39.4831468351" lon="-8.2539772242">
        <ele>37.63</ele>
        <time>2018-12-21T09:01:58Z</time>
      </trkpt>
      <trkpt lat="39.4831806142" lon="-8.2541276794">
        <ele>38.59</ele>
        <time>2018-12-21T09:02:08Z</time>
      </trkpt>
      <trkpt lat="39.4832000602" lon="-8.2542723510">
        <ele>38.11</ele>
        <time>2018-12-21T09:02:17Z</time>
      </trkpt>
      <trkpt lat="39.4832243677" lon="-8.2544315234">
        <ele>38.11</ele>
        <time>2018-12-21T09:02:27Z</time>
      </trkpt>
      <trkpt lat="39.4832770061" lon="-8.2545774523">
        <ele>38.59</ele>
        <time>2018-12-21T09:02:37Z</time>
      </trkpt>
      <trkpt lat="39.4832781795" lon="-8.2546801306">
        <ele>38.11</ele>
        <time>2018-12-21T09:02:44Z</time>
      </trkpt>
      <trkpt lat="39.4832787663" lon="-8.2547163405">
        <ele>38.11</ele>
        <time>2018-12-21T09:02:46Z</time>
      </trkpt>
      <trkpt lat="39.4833351765" lon="-8.2548506185">
        <ele>37.63</ele>
        <time>2018-12-21T09:02:55Z</time>
      </trkpt>
      <trkpt lat="39.4833574723" lon="-8.2549218647">
        <ele>36.67</ele>
        <time>2018-12-21T09:03:00Z</time>
      </trkpt>
      <trkpt lat="39.4834261201" lon="-8.2551028300">
        <ele>38.11</ele>
        <time>2018-12-21T09:03:12Z</time>
      </trkpt>
      <trkpt lat="39.4834723044" lon="-8.2552262954">
        <ele>36.67</ele>
        <time>2018-12-21T09:03:21Z</time>
      </trkpt>
      <trkpt lat="39.4835181534" lon="-8.2553594001">
        <ele>37.15</ele>
        <time>2018-12-21T09:03:30Z</time>
      </trkpt>
      <trkpt lat="39.4835851248" lon="-8.2555163093">
        <ele>37.15</ele>
        <time>2018-12-21T09:03:41Z</time>
      </trkpt>
      <trkpt lat="39.4836339075" lon="-8.2556014694">
        <ele>36.67</ele>
        <time>2018-12-21T09:03:48Z</time>
      </trkpt>
      <trkpt lat="39.4836913235" lon="-8.2557701971">
        <ele>37.15</ele>
        <time>2018-12-21T09:03:59Z</time>
      </trkpt>
      <trkpt lat="39.4837559480" lon="-8.2559329737">
        <ele>37.63</ele>
        <time>2018-12-21T09:04:10Z</time>
      </trkpt>
      <trkpt lat="39.4838159624" lon="-8.2560960855">
        <ele>36.19</ele>
        <time>2018-12-21T09:04:21Z</time>
      </trkpt>
      <trkpt lat="39.4838454667" lon="-8.2561953273">
        <ele>37.63</ele>
        <time>2018-12-21T09:04:31Z</time>
      </trkpt>
      <trkpt lat="39.4838564470" lon="-8.2562699262">
        <ele>35.71</ele>
        <time>2018-12-21T09:04:37Z</time>
      </trkpt>
      <trkpt lat="39.4838855322" lon="-8.2564300206">
        <ele>36.67</ele>
        <time>2018-12-21T09:04:47Z</time>
      </trkpt>
      <trkpt lat="39.4838861190" lon="-8.2565943897">
        <ele>36.19</ele>
        <time>2018-12-21T09:04:57Z</time>
      </trkpt>
      <trkpt lat="39.4838945009" lon="-8.2567408215">
        <ele>36.67</ele>
        <time>2018-12-21T09:05:05Z</time>
      </trkpt>
      <trkpt lat="39.4838900585" lon="-8.2569086272">
        <ele>37.15</ele>
        <time>2018-12-21T09:05:16Z</time>
      </trkpt>
      <trkpt lat="39.4838903099" lon="-8.2570804562">
        <ele>37.15</ele>
        <time>2018-12-21T09:05:26Z</time>
      </trkpt>
      <trkpt lat="39.4839122705" lon="-8.2572377846">
        <ele>36.67</ele>
        <time>2018-12-21T09:05:35Z</time>
      </trkpt>
      <trkpt lat="39.4838852808" lon="-8.2574037462">
        <ele>37.15</ele>
        <time>2018-12-21T09:05:45Z</time>
      </trkpt>
      <trkpt lat="39.4838996977" lon="-8.2575959433">
        <ele>36.67</ele>
        <time>2018-12-21T09:05:56Z</time>
      </trkpt>
      <trkpt lat="39.4839022122" lon="-8.2577562891">
        <ele>37.15</ele>
        <time>2018-12-21T09:06:05Z</time>
      </trkpt>
      <trkpt lat="39.4838908128" lon="-8.2579563651">
        <ele>36.67</ele>
        <time>2018-12-21T09:06:17Z</time>
      </trkpt>
      <trkpt lat="39.4839229155" lon="-8.2581292838">
        <ele>36.67</ele>
        <time>2018-12-21T09:06:27Z</time>
      </trkpt>
      <trkpt lat="39.4839361589" lon="-8.2583184633">
        <ele>37.15</ele>
        <time>2018-12-21T09:06:38Z</time>
      </trkpt>
      <trkpt lat="39.4839351531" lon="-8.2584469579">
        <ele>36.67</ele>
        <time>2018-12-21T09:06:46Z</time>
      </trkpt>
      <trkpt lat="39.4839520846" lon="-8.2586173620">
        <ele>37.15</ele>
        <time>2018-12-21T09:06:56Z</time>
      </trkpt>
      <trkpt lat="39.4840154517" lon="-8.2588311005">
        <ele>36.67</ele>
        <time>2018-12-21T09:07:09Z</time>
      </trkpt>
      <trkpt lat="39.4840478059" lon="-8.2589771971">
        <ele>36.67</ele>
        <time>2018-12-21T09:07:18Z</time>
      </trkpt>
      <trkpt lat="39.4840957504" lon="-8.2591263112">
        <ele>36.67</ele>
        <time>2018-12-21T09:07:27Z</time>
      </trkpt>
      <trkpt lat="39.4841317926" lon="-8.2592965476">
        <ele>37.63</ele>
        <time>2018-12-21T09:07:37Z</time>
      </trkpt>
      <trkpt lat="39.4841664936" lon="-8.2594594080">
        <ele>37.63</ele>
        <time>2018-12-21T09:07:47Z</time>
      </trkpt>
      <trkpt lat="39.4842127617" lon="-8.2596262917">
        <ele>36.19</ele>
        <time>2018-12-21T09:07:57Z</time>
      </trkpt>
      <trkpt lat="39.4842634723" lon="-8.2597773336">
        <ele>37.63</ele>
        <time>2018-12-21T09:08:07Z</time>
      </trkpt>
      <trkpt lat="39.4842946529" lon="-8.2599346619">
        <ele>37.63</ele>
        <time>2018-12-21T09:08:16Z</time>
      </trkpt>
      <trkpt lat="39.4842947368" lon="-8.2599702850">
        <ele>38.11</ele>
        <time>2018-12-21T09:08:18Z</time>
      </trkpt>
      <trkpt lat="39.4842928089" lon="-8.2601093408">
        <ele>38.59</ele>
        <time>2018-12-21T09:08:26Z</time>
      </trkpt>
      <trkpt lat="39.4843461178" lon="-8.2602701895">
        <ele>38.59</ele>
        <time>2018-12-21T09:08:36Z</time>
      </trkpt>
      <trkpt lat="39.4843663182" lon="-8.2603953313">
        <ele>39.07</ele>
        <time>2018-12-21T09:08:44Z</time>
      </trkpt>
      <trkpt lat="39.4844130054" lon="-8.2605693396">
        <ele>40.51</ele>
        <time>2018-12-21T09:08:55Z</time>
      </trkpt>
      <trkpt lat="39.4844771270" lon="-8.2607091498">
        <ele>39.55</ele>
        <time>2018-12-21T09:09:05Z</time>
      </trkpt>
      <trkpt lat="39.4845347945" lon="-8.2608653046">
        <ele>40.51</ele>
        <time>2018-12-21T09:09:15Z</time>
      </trkpt>
      <trkpt lat="39.4845950603" lon="-8.2610045280">
        <ele>40.51</ele>
        <time>2018-12-21T09:09:24Z</time>
      </trkpt>
      <trkpt lat="39.4846202061" lon="-8.2611339446">
        <ele>40.99</ele>
        <time>2018-12-21T09:09:32Z</time>
      </trkpt>
      <trkpt lat="39.4846872613" lon="-8.2613056898">
        <ele>41.95</ele>
        <time>2018-12-21T09:09:43Z</time>
      </trkpt>
      <trkpt lat="39.4847224653" lon="-8.2614401355">
        <ele>40.99</ele>
        <time>2018-12-21T09:09:51Z</time>
      </trkpt>
      <trkpt lat="39.4848031830" lon="-8.2615939435">
        <ele>41.95</ele>
        <time>2018-12-21T09:10:01Z</time>
      </trkpt>
      <trkpt lat="39.4848596770" lon="-8.2617222704">
        <ele>42.44</ele>
        <time>2018-12-21T09:10:09Z</time>
      </trkpt>
      <trkpt lat="39.4849035982" lon="-8.2618406229">
        <ele>42.92</ele>
        <time>2018-12-21T09:10:17Z</time>
      </trkpt>
      <trkpt lat="39.4849258102" lon="-8.2619862165">
        <ele>42.92</ele>
        <time>2018-12-21T09:10:26Z</time>
      </trkpt>
      <trkpt lat="39.4849367905" lon="-8.2621369231">
        <ele>42.92</ele>
        <time>2018-12-21T09:10:35Z</time>
      </trkpt>
      <trkpt lat="39.4849989004" lon="-8.2623536792">
        <ele>42.92</ele>
        <time>2018-12-21T09:10:48Z</time>
      </trkpt>
      <trkpt lat="39.4850368705" lon="-8.2625925634">
        <ele>43.88</ele>
        <time>2018-12-21T09:11:02Z</time>
      </trkpt>
      <trkpt lat="39.4850703143" lon="-8.2628169470">
        <ele>43.40</ele>
        <time>2018-12-21T09:11:15Z</time>
      </trkpt>
      <trkpt lat="39.4851086196" lon="-8.2630339544">
        <ele>42.92</ele>
        <time>2018-12-21T09:11:28Z</time>
      </trkpt>
      <trkpt lat="39.4851520378" lon="-8.2632241398">
        <ele>42.92</ele>
        <time>2018-12-21T09:11:39Z</time>
      </trkpt>
      <trkpt lat="39.4852102920" lon="-8.2634007465">
        <ele>42.92</ele>
        <time>2018-12-21T09:11:50Z</time>
      </trkpt>
      <trkpt lat="39.4852407183" lon="-8.2635545544">
        <ele>43.40</ele>
        <time>2018-12-21T09:12:00Z</time>
      </trkpt>
      <trkpt lat="39.4852591585" lon="-8.2637238689">
        <ele>43.88</ele>
        <time>2018-12-21T09:12:10Z</time>
      </trkpt>
      <trkpt lat="39.4853015710" lon="-8.2639091089">
        <ele>42.44</ele>
        <time>2018-12-21T09:12:20Z</time>
      </trkpt>
      <trkpt lat="39.4853486773" lon="-8.2641145494">
        <ele>42.92</ele>
        <time>2018-12-21T09:12:32Z</time>
      </trkpt>
      <trkpt lat="39.4853513595" lon="-8.2643109374">
        <ele>42.92</ele>
        <time>2018-12-21T09:12:44Z</time>
      </trkpt>
      <trkpt lat="39.4853959512" lon="-8.2645116840">
        <ele>42.44</ele>
        <time>2018-12-21T09:12:56Z</time>
      </trkpt>
      <trkpt lat="39.4854435604" lon="-8.2646888774">
        <ele>42.44</ele>
        <time>2018-12-21T09:13:07Z</time>
      </trkpt>
      <trkpt lat="39.4854687899" lon="-8.2648507319">
        <ele>42.92</ele>
        <time>2018-12-21T09:13:17Z</time>
      </trkpt>
      <trkpt lat="39.4855402038" lon="-8.2650173642">
        <ele>42.92</ele>
        <time>2018-12-21T09:13:29Z</time>
      </trkpt>
      <trkpt lat="39.4856070075" lon="-8.2651307713">
        <ele>42.44</ele>
        <time>2018-12-21T09:13:39Z</time>
      </trkpt>
      <trkpt lat="39.4856113661" lon="-8.2651425898">
        <ele>42.44</ele>
        <time>2018-12-21T09:13:40Z</time>
      </trkpt>
      <trkpt lat="39.4856859650" lon="-8.2652610261">
        <ele>42.44</ele>
        <time>2018-12-21T09:13:50Z</time>
      </trkpt>
      <trkpt lat="39.4857728854" lon="-8.2653484493">
        <ele>43.40</ele>
        <time>2018-12-21T09:13:59Z</time>
      </trkpt>
      <trkpt lat="39.4857864641" lon="-8.2653952204">
        <ele>42.44</ele>
        <time>2018-12-21T09:14:06Z</time>
      </trkpt>
      <trkpt lat="39.4858207460" lon="-8.2654339448">
        <ele>42.92</ele>
        <time>2018-12-21T09:14:12Z</time>
      </trkpt>
      <trkpt lat="39.4858850352" lon="-8.2655594219">
        <ele>42.92</ele>
        <time>2018-12-21T09:14:21Z</time>
      </trkpt>
      <trkpt lat="39.4858905673" lon="-8.2655744255">
        <ele>42.92</ele>
        <time>2018-12-21T09:14:22Z</time>
      </trkpt>
      <trkpt lat="39.4859489892" lon="-8.2657266408">
        <ele>42.92</ele>
        <time>2018-12-21T09:14:33Z</time>
      </trkpt>
      <trkpt lat="39.4859445468" lon="-8.2658372819">
        <ele>42.44</ele>
        <time>2018-12-21T09:14:40Z</time>
      </trkpt>
      <trkpt lat="39.4859395176" lon="-8.2658828795">
        <ele>42.92</ele>
        <time>2018-12-21T09:14:48Z</time>
      </trkpt>
      <trkpt lat="39.4859489053" lon="-8.2659403794">
        <ele>42.92</ele>
        <time>2018-12-21T09:14:56Z</time>
      </trkpt>
      <trkpt lat="39.4859625679" lon="-8.2661032397">
        <ele>42.92</ele>
        <time>2018-12-21T09:15:06Z</time>
      </trkpt>
      <trkpt lat="39.4859709498" lon="-8.2662626635">
        <ele>43.88</ele>
        <time>2018-12-21T09:15:16Z</time>
      </trkpt>
      <trkpt lat="39.4859708659" lon="-8.2663734723">
        <ele>43.88</ele>
        <time>2018-12-21T09:15:23Z</time>
      </trkpt>
      <trkpt lat="39.4859588798" lon="-8.2664873824">
        <ele>44.36</ele>
        <time>2018-12-21T09:15:32Z</time>
      </trkpt>
      <trkpt lat="39.4859492406" lon="-8.2665003743">
        <ele>42.92</ele>
        <time>2018-12-21T09:15:40Z</time>
      </trkpt>
      <trkpt lat="39.4859365001" lon="-8.2666458003">
        <ele>43.40</ele>
        <time>2018-12-21T09:15:50Z</time>
      </trkpt>
      <trkpt lat="39.4859367516" lon="-8.2666600496">
        <ele>43.88</ele>
        <time>2018-12-21T09:15:51Z</time>
      </trkpt>
      <trkpt lat="39.4859376736" lon="-8.2667144481">
        <ele>43.88</ele>
        <time>2018-12-21T09:15:55Z</time>
      </trkpt>
      <trkpt lat="39.4859214965" lon="-8.2668654900">
        <ele>44.36</ele>
        <time>2018-12-21T09:16:05Z</time>
      </trkpt>
      <trkpt lat="39.4859238435" lon="-8.2668814156">
        <ele>44.84</ele>
        <time>2018-12-21T09:16:06Z</time>
      </trkpt>
      <trkpt lat="39.4859010447" lon="-8.2669863570">
        <ele>44.84</ele>
        <time>2018-12-21T09:16:13Z</time>
      </trkpt>
      <trkpt lat="39.4858981948" lon="-8.2671438530">
        <ele>44.36</ele>
        <time>2018-12-21T09:16:23Z</time>
      </trkpt>
      <trkpt lat="39.4858833589" lon="-8.2672734372">
        <ele>45.32</ele>
        <time>2018-12-21T09:16:32Z</time>
      </trkpt>
      <trkpt lat="39.4858647510" lon="-8.2674056198">
        <ele>45.32</ele>
        <time>2018-12-21T09:16:40Z</time>
      </trkpt>
      <trkpt lat="39.4857849553" lon="-8.2675086334">
        <ele>44.84</ele>
        <time>2018-12-21T09:16:48Z</time>
      </trkpt>
      <trkpt lat="39.4857183192" lon="-8.2675436698">
        <ele>44.84</ele>
        <time>2018-12-21T09:16:53Z</time>
      </trkpt>
      <trkpt lat="39.4855935965" lon="-8.2675824780">
        <ele>45.32</ele>
        <time>2018-12-21T09:17:03Z</time>
      </trkpt>
      <trkpt lat="39.4854807761" lon="-8.2675910275">
        <ele>45.32</ele>
        <time>2018-12-21T09:17:12Z</time>
      </trkpt>
      <trkpt lat="39.4854191691" lon="-8.2675876748">
        <ele>44.36</ele>
        <time>2018-12-21T09:17:17Z</time>
      </trkpt>
      <trkpt lat="39.4853279740" lon="-8.2676251419">
        <ele>44.84</ele>
        <time>2018-12-21T09:17:25Z</time>
      </trkpt>
      <trkpt lat="39.4852244575" lon="-8.2676702365">
        <ele>43.88</ele>
        <time>2018-12-21T09:17:34Z</time>
      </trkpt>
      <trkpt lat="39.4850999862" lon="-8.2677536365">
        <ele>43.40</ele>
        <time>2018-12-21T09:17:45Z</time>
      </trkpt>
      <trkpt lat="39.4850184303" lon="-8.2677764352">
        <ele>43.40</ele>
        <time>2018-12-21T09:17:53Z</time>
      </trkpt>
      <trkpt lat="39.4848953001" lon="-8.2677949592">
        <ele>42.44</ele>
        <time>2018-12-21T09:18:03Z</time>
      </trkpt>
      <trkpt lat="39.4847822282" lon="-8.2678479329">
        <ele>43.40</ele>
        <time>2018-12-21T09:18:12Z</time>
      </trkpt>
      <trkpt lat="39.4846697431" lon="-8.2678934466">
        <ele>42.44</ele>
        <time>2018-12-21T09:18:21Z</time>
      </trkpt>
      <trkpt lat="39.4845440146" lon="-8.2678933628">
        <ele>42.44</ele>
        <time>2018-12-21T09:18:31Z</time>
      </trkpt>
      <trkpt lat="39.4844026957" lon="-8.2679305784">
        <ele>41.95</ele>
        <time>2018-12-21T09:18:42Z</time>
      </trkpt>
      <trkpt lat="39.4843949005" lon="-8.2679374516">
        <ele>42.44</ele>
        <time>2018-12-21T09:18:43Z</time>
      </trkpt>
      <trkpt lat="39.4843408372" lon="-8.2680364419">
        <ele>42.44</ele>
        <time>2018-12-21T09:18:52Z</time>
      </trkpt>
      <trkpt lat="39.4842811581" lon="-8.2681229431">
        <ele>42.44</ele>
        <time>2018-12-21T09:18:59Z</time>
      </trkpt>
      <trkpt lat="39.4842054695" lon="-8.2682190835">
        <ele>42.44</ele>
        <time>2018-12-21T09:19:08Z</time>
      </trkpt>
      <trkpt lat="39.4841757137" lon="-8.2683483325">
        <ele>42.44</ele>
        <time>2018-12-21T09:19:16Z</time>
      </trkpt>
      <trkpt lat="39.4841991831" lon="-8.2684329897">
        <ele>42.44</ele>
        <time>2018-12-21T09:19:25Z</time>
      </trkpt>
      <trkpt lat="39.4842178747" lon="-8.2684288826">
        <ele>42.92</ele>
        <time>2018-12-21T09:19:34Z</time>
      </trkpt>
      <trkpt lat="39.4842316210" lon="-8.2684304751">
        <ele>42.44</ele>
        <time>2018-12-21T09:19:54Z</time>
      </trkpt>
      <trkpt lat="39.4842232391" lon="-8.2684412040">
        <ele>43.40</ele>
        <time>2018-12-21T09:19:55Z</time>
      </trkpt>
      <trkpt lat="39.4842071459" lon="-8.2686088420">
        <ele>43.40</ele>
        <time>2018-12-21T09:20:05Z</time>
      </trkpt>
      <trkpt lat="39.4842057209" lon="-8.2687793300">
        <ele>43.88</ele>
        <time>2018-12-21T09:20:16Z</time>
      </trkpt>
      <trkpt lat="39.4842370693" lon="-8.2689357363">
        <ele>43.88</ele>
        <time>2018-12-21T09:20:26Z</time>
      </trkpt>
      <trkpt lat="39.4842350576" lon="-8.2690664940">
        <ele>43.40</ele>
        <time>2018-12-21T09:20:34Z</time>
      </trkpt>
      <trkpt lat="39.4842332136" lon="-8.2691123430">
        <ele>41.95</ele>
        <time>2018-12-21T09:20:37Z</time>
      </trkpt>
      <trkpt lat="39.4842236582" lon="-8.2691892888">
        <ele>41.95</ele>
        <time>2018-12-21T09:20:44Z</time>
      </trkpt>
      <trkpt lat="39.4842156954" lon="-8.2692000177">
        <ele>40.99</ele>
        <time>2018-12-21T09:20:53Z</time>
      </trkpt>
      <trkpt lat="39.4842173718" lon="-8.2692010235">
        <ele>40.99</ele>
        <time>2018-12-21T09:21:01Z</time>
      </trkpt>
      <trkpt lat="39.4842163660" lon="-8.2691990118">
        <ele>40.51</ele>
        <time>2018-12-21T09:21:08Z</time>
      </trkpt>
      <trkpt lat="39.4842146058" lon="-8.2692034543">
        <ele>41.47</ele>
        <time>2018-12-21T09:21:10Z</time>
      </trkpt>
      <trkpt lat="39.4841947407" lon="-8.2693182025">
        <ele>41.95</ele>
        <time>2018-12-21T09:21:16Z</time>
      </trkpt>
      <trkpt lat="39.4841354806" lon="-8.2693736907">
        <ele>43.40</ele>
        <time>2018-12-21T09:21:24Z</time>
      </trkpt>
      <trkpt lat="39.4840702694" lon="-8.2693886943">
        <ele>43.88</ele>
        <time>2018-12-21T09:21:33Z</time>
      </trkpt>
      <trkpt lat="39.4840675034" lon="-8.2693940587">
        <ele>44.36</ele>
        <time>2018-12-21T09:21:47Z</time>
      </trkpt>
      <trkpt lat="39.4840545114" lon="-8.2693897840">
        <ele>42.92</ele>
        <time>2018-12-21T09:21:56Z</time>
      </trkpt>
      <trkpt lat="39.4840261806" lon="-8.2693757862">
        <ele>43.40</ele>
        <time>2018-12-21T09:22:08Z</time>
      </trkpt>
      <trkpt lat="39.4839774817" lon="-8.2693797257">
        <ele>43.88</ele>
        <time>2018-12-21T09:22:14Z</time>
      </trkpt>
      <trkpt lat="39.4839437027" lon="-8.2693803124">
        <ele>43.40</ele>
        <time>2018-12-21T09:22:19Z</time>
      </trkpt>
      <trkpt lat="39.4838182256" lon="-8.2693894487">
        <ele>42.92</ele>
        <time>2018-12-21T09:22:31Z</time>
      </trkpt>
      <trkpt lat="39.4837165531" lon="-8.2694069669">
        <ele>42.44</ele>
        <time>2018-12-21T09:22:40Z</time>
      </trkpt>
      <trkpt lat="39.4836096000" lon="-8.2694576774">
        <ele>42.44</ele>
        <time>2018-12-21T09:22:49Z</time>
      </trkpt>
      <trkpt lat="39.4834702089" lon="-8.2695292588">
        <ele>41.95</ele>
        <time>2018-12-21T09:23:01Z</time>
      </trkpt>
      <trkpt lat="39.4833519403" lon="-8.2696503773">
        <ele>40.99</ele>
        <time>2018-12-21T09:23:12Z</time>
      </trkpt>
      <trkpt lat="39.4832967874" lon="-8.2697499543">
        <ele>40.99</ele>
        <time>2018-12-21T09:23:19Z</time>
      </trkpt>
      <trkpt lat="39.4832347613" lon="-8.2698592544">
        <ele>40.99</ele>
        <time>2018-12-21T09:23:28Z</time>
      </trkpt>
      <trkpt lat="39.4832211826" lon="-8.2698856574">
        <ele>40.99</ele>
        <time>2018-12-21T09:23:30Z</time>
      </trkpt>
      <trkpt lat="39.4831993897" lon="-8.2699287403">
        <ele>40.99</ele>
        <time>2018-12-21T09:23:33Z</time>
      </trkpt>
      <trkpt lat="39.4831997249" lon="-8.2699765172">
        <ele>40.99</ele>
        <time>2018-12-21T09:23:36Z</time>
      </trkpt>
      <trkpt lat="39.4831392914" lon="-8.2701419760">
        <ele>40.51</ele>
        <time>2018-12-21T09:23:47Z</time>
      </trkpt>
      <trkpt lat="39.4830976333" lon="-8.2702734880">
        <ele>40.51</ele>
        <time>2018-12-21T09:23:56Z</time>
      </trkpt>
      <trkpt lat="39.4830394629" lon="-8.2703860570">
        <ele>40.03</ele>
        <time>2018-12-21T09:24:04Z</time>
      </trkpt>
      <trkpt lat="39.4829714857" lon="-8.2705077622">
        <ele>40.51</ele>
        <time>2018-12-21T09:24:13Z</time>
      </trkpt>
      <trkpt lat="39.4829190150" lon="-8.2706419565">
        <ele>40.03</ele>
        <time>2018-12-21T09:24:22Z</time>
      </trkpt>
      <trkpt lat="39.4829083700" lon="-8.2707683556">
        <ele>39.55</ele>
        <time>2018-12-21T09:24:30Z</time>
      </trkpt>
      <trkpt lat="39.4828515407" lon="-8.2709078304">
        <ele>39.55</ele>
        <time>2018-12-21T09:24:40Z</time>
      </trkpt>
      <trkpt lat="39.4828036800" lon="-8.2710467186">
        <ele>40.99</ele>
        <time>2018-12-21T09:24:49Z</time>
      </trkpt>
      <trkpt lat="39.4827279914" lon="-8.2711837627">
        <ele>40.03</ele>
        <time>2018-12-21T09:24:59Z</time>
      </trkpt>
      <trkpt lat="39.4826344494" lon="-8.2713200524">
        <ele>40.51</ele>
        <time>2018-12-21T09:25:09Z</time>
      </trkpt>
      <trkpt lat="39.4825481158" lon="-8.2714364771">
        <ele>39.55</ele>
        <time>2018-12-21T09:25:18Z</time>
      </trkpt>
      <trkpt lat="39.4824634586" lon="-8.2715702523">
        <ele>39.55</ele>
        <time>2018-12-21T09:25:27Z</time>
      </trkpt>
      <trkpt lat="39.4823447708" lon="-8.2716952264">
        <ele>39.55</ele>
        <time>2018-12-21T09:25:38Z</time>
      </trkpt>
      <trkpt lat="39.4822704233" lon="-8.2717733458">
        <ele>39.55</ele>
        <time>2018-12-21T09:25:45Z</time>
      </trkpt>
      <trkpt lat="39.4821533281" lon="-8.2718575839">
        <ele>39.07</ele>
        <time>2018-12-21T09:25:56Z</time>
      </trkpt>
      <trkpt lat="39.4820324611" lon="-8.2719288301">
        <ele>39.07</ele>
        <time>2018-12-21T09:26:07Z</time>
      </trkpt>
      <trkpt lat="39.4819095824" lon="-8.2720268983">
        <ele>39.07</ele>
        <time>2018-12-21T09:26:18Z</time>
      </trkpt>
      <trkpt lat="39.4818007015" lon="-8.2721101306">
        <ele>38.11</ele>
        <time>2018-12-21T09:26:28Z</time>
      </trkpt>
      <trkpt lat="39.4816779904" lon="-8.2721931115">
        <ele>38.11</ele>
        <time>2018-12-21T09:26:38Z</time>
      </trkpt>
      <trkpt lat="39.4815448020" lon="-8.2722737454">
        <ele>38.11</ele>
        <time>2018-12-21T09:26:49Z</time>
      </trkpt>
      <trkpt lat="39.4814116135" lon="-8.2723282278">
        <ele>37.15</ele>
        <time>2018-12-21T09:27:00Z</time>
      </trkpt>
      <trkpt lat="39.4812969491" lon="-8.2723725680">
        <ele>37.15</ele>
        <time>2018-12-21T09:27:10Z</time>
      </trkpt>
      <trkpt lat="39.4811822847" lon="-8.2724384498">
        <ele>36.67</ele>
        <time>2018-12-21T09:27:20Z</time>
      </trkpt>
      <trkpt lat="39.4810588192" lon="-8.2725218497">
        <ele>36.67</ele>
        <time>2018-12-21T09:27:30Z</time>
      </trkpt>
      <trkpt lat="39.4809264690" lon="-8.2726362627">
        <ele>36.19</ele>
        <time>2018-12-21T09:27:42Z</time>
      </trkpt>
      <trkpt lat="39.4808440749" lon="-8.2727570459">
        <ele>36.19</ele>
        <time>2018-12-21T09:27:52Z</time>
      </trkpt>
      <trkpt lat="39.4808304962" lon="-8.2729029749">
        <ele>36.19</ele>
        <time>2018-12-21T09:28:01Z</time>
      </trkpt>
      <trkpt lat="39.4808486849" lon="-8.2730479818">
        <ele>36.19</ele>
        <time>2018-12-21T09:28:10Z</time>
      </trkpt>
      <trkpt lat="39.4808383752" lon="-8.2732136920">
        <ele>36.19</ele>
        <time>2018-12-21T09:28:20Z</time>
      </trkpt>
      <trkpt lat="39.4807871617" lon="-8.2733724453">
        <ele>36.67</ele>
        <time>2018-12-21T09:28:29Z</time>
      </trkpt>
      <trkpt lat="39.4807715714" lon="-8.2735205535">
        <ele>36.19</ele>
        <time>2018-12-21T09:28:38Z</time>
      </trkpt>
      <trkpt lat="39.4807382952" lon="-8.2736471202">
        <ele>36.67</ele>
        <time>2018-12-21T09:28:46Z</time>
      </trkpt>
      <trkpt lat="39.4807368703" lon="-8.2737104874">
        <ele>36.67</ele>
        <time>2018-12-21T09:28:50Z</time>
      </trkpt>
      <trkpt lat="39.4807233755" lon="-8.2738873456">
        <ele>36.19</ele>
        <time>2018-12-21T09:29:00Z</time>
      </trkpt>
      <trkpt lat="39.4807242136" lon="-8.2740134932">
        <ele>35.71</ele>
        <time>2018-12-21T09:29:07Z</time>
      </trkpt>
      <trkpt lat="39.4807028398" lon="-8.2741817180">
        <ele>35.71</ele>
        <time>2018-12-21T09:29:17Z</time>
      </trkpt>
      <trkpt lat="39.4806892611" lon="-8.2743445784">
        <ele>35.23</ele>
        <time>2018-12-21T09:29:27Z</time>
      </trkpt>
      <trkpt lat="39.4806907699" lon="-8.2743624318">
        <ele>35.23</ele>
        <time>2018-12-21T09:29:28Z</time>
      </trkpt>
      <trkpt lat="39.4806628581" lon="-8.2744501065">
        <ele>35.71</ele>
        <time>2018-12-21T09:29:34Z</time>
      </trkpt>
      <trkpt lat="39.4805931207" lon="-8.2746005617">
        <ele>35.23</ele>
        <time>2018-12-21T09:29:44Z</time>
      </trkpt>
      <trkpt lat="39.4805736747" lon="-8.2747338340">
        <ele>35.23</ele>
        <time>2018-12-21T09:29:53Z</time>
      </trkpt>
      <trkpt lat="39.4805440027" lon="-8.2748784218">
        <ele>34.74</ele>
        <time>2018-12-21T09:30:03Z</time>
      </trkpt>
      <trkpt lat="39.4805367943" lon="-8.2749860454">
        <ele>34.74</ele>
        <time>2018-12-21T09:30:10Z</time>
      </trkpt>
      <trkpt lat="39.4805487804" lon="-8.2750964351">
        <ele>35.23</ele>
        <time>2018-12-21T09:30:19Z</time>
      </trkpt>
      <trkpt lat="39.4805264845" lon="-8.2751455531">
        <ele>34.26</ele>
        <time>2018-12-21T09:30:30Z</time>
      </trkpt>
      <trkpt lat="39.4805288315" lon="-8.2751513366">
        <ele>34.26</ele>
        <time>2018-12-21T09:30:39Z</time>
      </trkpt>
      <trkpt lat="39.4805212878" lon="-8.2751710340">
        <ele>33.78</ele>
        <time>2018-12-21T09:30:45Z</time>
      </trkpt>
      <trkpt lat="39.4805332739" lon="-8.2751836069">
        <ele>34.74</ele>
        <time>2018-12-21T09:30:53Z</time>
      </trkpt>
      <trkpt lat="39.4805144984" lon="-8.2751535997">
        <ele>34.26</ele>
        <time>2018-12-21T09:31:02Z</time>
      </trkpt>
      <trkpt lat="39.4804896042" lon="-8.2751961797">
        <ele>33.78</ele>
        <time>2018-12-21T09:31:13Z</time>
      </trkpt>
      <trkpt lat="39.4805020094" lon="-8.2752579544">
        <ele>35.23</ele>
        <time>2018-12-21T09:31:17Z</time>
      </trkpt>
      <trkpt lat="39.4804908615" lon="-8.2753050607">
        <ele>34.74</ele>
        <time>2018-12-21T09:31:20Z</time>
      </trkpt>
      <trkpt lat="39.4804875925" lon="-8.2753492333">
        <ele>34.26</ele>
        <time>2018-12-21T09:31:23Z</time>
      </trkpt>
      <trkpt lat="39.4804740138" lon="-8.2754229102">
        <ele>34.26</ele>
        <time>2018-12-21T09:31:27Z</time>
      </trkpt>
      <trkpt lat="39.4803689048" lon="-8.2755345572">
        <ele>33.78</ele>
        <time>2018-12-21T09:31:38Z</time>
      </trkpt>
      <trkpt lat="39.4802288432" lon="-8.2756629679">
        <ele>33.78</ele>
        <time>2018-12-21T09:31:51Z</time>
      </trkpt>
      <trkpt lat="39.4801223092" lon="-8.2757612038">
        <ele>33.78</ele>
        <time>2018-12-21T09:32:01Z</time>
      </trkpt>
      <trkpt lat="39.4799907133" lon="-8.2758938894">
        <ele>33.78</ele>
        <time>2018-12-21T09:32:13Z</time>
      </trkpt>
      <trkpt lat="39.4798581116" lon="-8.2760160137">
        <ele>32.34</ele>
        <time>2018-12-21T09:32:26Z</time>
      </trkpt>
      <trkpt lat="39.4797287788" lon="-8.2761088014">
        <ele>32.34</ele>
        <time>2018-12-21T09:32:38Z</time>
      </trkpt>
      <trkpt lat="39.4795847777" lon="-8.2761837356">
        <ele>31.86</ele>
        <time>2018-12-21T09:32:50Z</time>
      </trkpt>
      <trkpt lat="39.4794394355" lon="-8.2762450911">
        <ele>31.86</ele>
        <time>2018-12-21T09:33:02Z</time>
      </trkpt>
      <trkpt lat="39.4793070015" lon="-8.2762611005">
        <ele>30.90</ele>
        <time>2018-12-21T09:33:12Z</time>
      </trkpt>
      <trkpt lat="39.4791533612" lon="-8.2762455940">
        <ele>30.42</ele>
        <time>2018-12-21T09:33:24Z</time>
      </trkpt>
      <trkpt lat="39.4789920934" lon="-8.2762121502">
        <ele>31.38</ele>
        <time>2018-12-21T09:33:37Z</time>
      </trkpt>
      <trkpt lat="39.4788542949" lon="-8.2762202807">
        <ele>30.90</ele>
        <time>2018-12-21T09:33:47Z</time>
      </trkpt>
      <trkpt lat="39.4786871597" lon="-8.2762532216">
        <ele>30.90</ele>
        <time>2018-12-21T09:34:00Z</time>
      </trkpt>
      <trkpt lat="39.4785406440" lon="-8.2762975618">
        <ele>30.90</ele>
        <time>2018-12-21T09:34:11Z</time>
      </trkpt>
      <trkpt lat="39.4783901051" lon="-8.2763179298">
        <ele>30.42</ele>
        <time>2018-12-21T09:34:23Z</time>
      </trkpt>
      <trkpt lat="39.4782562461" lon="-8.2763424888">
        <ele>30.42</ele>
        <time>2018-12-21T09:34:33Z</time>
      </trkpt>
      <trkpt lat="39.4781186152" lon="-8.2763734180">
        <ele>30.90</ele>
        <time>2018-12-21T09:34:44Z</time>
      </trkpt>
      <trkpt lat="39.4779899530" lon="-8.2764110528">
        <ele>31.38</ele>
        <time>2018-12-21T09:34:54Z</time>
      </trkpt>
      <trkpt lat="39.4778845087" lon="-8.2764807064">
        <ele>31.38</ele>
        <time>2018-12-21T09:35:04Z</time>
      </trkpt>
      <trkpt lat="39.4777920563" lon="-8.2766439859">
        <ele>31.38</ele>
        <time>2018-12-21T09:35:15Z</time>
      </trkpt>
      <trkpt lat="39.4777306169" lon="-8.2768119592">
        <ele>31.38</ele>
        <time>2018-12-21T09:35:26Z</time>
      </trkpt>
      <trkpt lat="39.4776575267" lon="-8.2770002168">
        <ele>30.90</ele>
        <time>2018-12-21T09:35:38Z</time>
      </trkpt>
      <trkpt lat="39.4775783177" lon="-8.2771491632">
        <ele>31.38</ele>
        <time>2018-12-21T09:35:49Z</time>
      </trkpt>
      <trkpt lat="39.4775196444" lon="-8.2772582956">
        <ele>30.42</ele>
        <time>2018-12-21T09:35:57Z</time>
      </trkpt>
      <trkpt lat="39.4774411060" lon="-8.2773739658">
        <ele>30.90</ele>
        <time>2018-12-21T09:36:06Z</time>
      </trkpt>
      <trkpt lat="39.4773726258" lon="-8.2775063161">
        <ele>30.90</ele>
        <time>2018-12-21T09:36:15Z</time>
      </trkpt>
      <trkpt lat="39.4773462228" lon="-8.2776943222">
        <ele>30.90</ele>
        <time>2018-12-21T09:36:26Z</time>
      </trkpt>
      <trkpt lat="39.4773359131" lon="-8.2778258342">
        <ele>31.38</ele>
        <time>2018-12-21T09:36:34Z</time>
      </trkpt>
      <trkpt lat="39.4773068279" lon="-8.2779700868">
        <ele>30.90</ele>
        <time>2018-12-21T09:36:43Z</time>
      </trkpt>
      <trkpt lat="39.4772641640" lon="-8.2780833263">
        <ele>30.90</ele>
        <time>2018-12-21T09:36:51Z</time>
      </trkpt>
      <trkpt lat="39.4771987014" lon="-8.2781871781">
        <ele>31.38</ele>
        <time>2018-12-21T09:36:59Z</time>
      </trkpt>
      <trkpt lat="39.4771184027" lon="-8.2783186063">
        <ele>30.42</ele>
        <time>2018-12-21T09:37:09Z</time>
      </trkpt>
      <trkpt lat="39.4770370144" lon="-8.2784476876">
        <ele>30.90</ele>
        <time>2018-12-21T09:37:19Z</time>
      </trkpt>
      <trkpt lat="39.4769513514" lon="-8.2785517070">
        <ele>31.38</ele>
        <time>2018-12-21T09:37:29Z</time>
      </trkpt>
      <trkpt lat="39.4768671971" lon="-8.2786611747">
        <ele>30.90</ele>
        <time>2018-12-21T09:37:38Z</time>
      </trkpt>
      <trkpt lat="39.4767803606" lon="-8.2788036671">
        <ele>30.90</ele>
        <time>2018-12-21T09:37:49Z</time>
      </trkpt>
      <trkpt lat="39.4766809512" lon="-8.2789303176">
        <ele>32.34</ele>
        <time>2018-12-21T09:38:00Z</time>
      </trkpt>
      <trkpt lat="39.4766174164" lon="-8.2790371031">
        <ele>31.38</ele>
        <time>2018-12-21T09:38:09Z</time>
      </trkpt>
      <trkpt lat="39.4765420631" lon="-8.2791648433">
        <ele>30.90</ele>
        <time>2018-12-21T09:38:19Z</time>
      </trkpt>
      <trkpt lat="39.4764203578" lon="-8.2793511730">
        <ele>30.42</ele>
        <time>2018-12-21T09:38:33Z</time>
      </trkpt>
      <trkpt lat="39.4763315096" lon="-8.2794747222">
        <ele>31.86</ele>
        <time>2018-12-21T09:38:44Z</time>
      </trkpt>
      <trkpt lat="39.4762311783" lon="-8.2795715332">
        <ele>31.38</ele>
        <time>2018-12-21T09:38:53Z</time>
      </trkpt>
      <trkpt lat="39.4761363789" lon="-8.2796647400">
        <ele>31.38</ele>
        <time>2018-12-21T09:39:03Z</time>
      </trkpt>
      <trkpt lat="39.4760276657" lon="-8.2797825895">
        <ele>30.90</ele>
        <time>2018-12-21T09:39:13Z</time>
      </trkpt>
      <trkpt lat="39.4759419188" lon="-8.2799268421">
        <ele>31.86</ele>
        <time>2018-12-21T09:39:24Z</time>
      </trkpt>
      <trkpt lat="39.4758410845" lon="-8.2800702564">
        <ele>30.90</ele>
        <time>2018-12-21T09:39:35Z</time>
      </trkpt>
      <trkpt lat="39.4757416751" lon="-8.2801890280">
        <ele>31.38</ele>
        <time>2018-12-21T09:39:46Z</time>
      </trkpt>
      <trkpt lat="39.4756496418" lon="-8.2803212944">
        <ele>31.86</ele>
        <time>2018-12-21T09:39:56Z</time>
      </trkpt>
      <trkpt lat="39.4755415991" lon="-8.2804919500">
        <ele>31.38</ele>
        <time>2018-12-21T09:40:10Z</time>
      </trkpt>
      <trkpt lat="39.4754659943" lon="-8.2806144096">
        <ele>32.34</ele>
        <time>2018-12-21T09:40:19Z</time>
      </trkpt>
      <trkpt lat="39.4753711112" lon="-8.2807222847">
        <ele>32.34</ele>
        <time>2018-12-21T09:40:29Z</time>
      </trkpt>
      <trkpt lat="39.4752918184" lon="-8.2808561437">
        <ele>32.82</ele>
        <time>2018-12-21T09:40:39Z</time>
      </trkpt>
      <trkpt lat="39.4752603024" lon="-8.2809257973">
        <ele>27.53</ele>
        <time>2018-12-21T09:40:44Z</time>
      </trkpt>
      <trkpt lat="39.4752530940" lon="-8.2809394598">
        <ele>34.74</ele>
        <time>2018-12-21T09:40:45Z</time>
      </trkpt>
      <trkpt lat="39.4752435386" lon="-8.2809527032">
        <ele>29.46</ele>
        <time>2018-12-21T09:40:46Z</time>
      </trkpt>
      <trkpt lat="39.4752135314" lon="-8.2810058445">
        <ele>34.26</ele>
        <time>2018-12-21T09:40:50Z</time>
      </trkpt>
      <trkpt lat="39.4751813449" lon="-8.2810489275">
        <ele>29.46</ele>
        <time>2018-12-21T09:40:54Z</time>
      </trkpt>
      <trkpt lat="39.4751725439" lon="-8.2810591534">
        <ele>23.69</ele>
        <time>2018-12-21T09:40:55Z</time>
      </trkpt>
      <trkpt lat="39.4751650002" lon="-8.2810697146">
        <ele>39.55</ele>
        <time>2018-12-21T09:40:56Z</time>
      </trkpt>
      <trkpt lat="39.4751572888" lon="-8.2810807787">
        <ele>22.73</ele>
        <time>2018-12-21T09:40:57Z</time>
      </trkpt>
      <trkpt lat="39.4751510024" lon="-8.2810940221">
        <ele>36.67</ele>
        <time>2018-12-21T09:40:58Z</time>
      </trkpt>
      <trkpt lat="39.4751416985" lon="-8.2811073493">
        <ele>31.38</ele>
        <time>2018-12-21T09:40:59Z</time>
      </trkpt>
      <trkpt lat="39.4751328137" lon="-8.2811190002">
        <ele>26.09</ele>
        <time>2018-12-21T09:41:00Z</time>
      </trkpt>
      <trkpt lat="39.4751249347" lon="-8.2811304834">
        <ele>34.26</ele>
        <time>2018-12-21T09:41:01Z</time>
      </trkpt>
      <trkpt lat="39.4750983641" lon="-8.2811745722">
        <ele>31.38</ele>
        <time>2018-12-21T09:41:04Z</time>
      </trkpt>
      <trkpt lat="39.4750888087" lon="-8.2811884023">
        <ele>26.57</ele>
        <time>2018-12-21T09:41:05Z</time>
      </trkpt>
      <trkpt lat="39.4750811812" lon="-8.2812019810">
        <ele>35.23</ele>
        <time>2018-12-21T09:41:06Z</time>
      </trkpt>
      <trkpt lat="39.4750533532" lon="-8.2812526915">
        <ele>32.34</ele>
        <time>2018-12-21T09:41:10Z</time>
      </trkpt>
      <trkpt lat="39.4750283752" lon="-8.2813107781">
        <ele>31.38</ele>
        <time>2018-12-21T09:41:16Z</time>
      </trkpt>
      <trkpt lat="39.4749495015" lon="-8.2814411167">
        <ele>31.86</ele>
        <time>2018-12-21T09:41:25Z</time>
      </trkpt>
      <trkpt lat="39.4748532772" lon="-8.2815892249">
        <ele>32.34</ele>
        <time>2018-12-21T09:41:36Z</time>
      </trkpt>
      <trkpt lat="39.4747993816" lon="-8.2816908136">
        <ele>31.38</ele>
        <time>2018-12-21T09:41:44Z</time>
      </trkpt>
      <trkpt lat="39.4747217651" lon="-8.2818483096">
        <ele>32.34</ele>
        <time>2018-12-21T09:41:54Z</time>
      </trkpt>
      <trkpt lat="39.4746301509" lon="-8.2820116729">
        <ele>32.34</ele>
        <time>2018-12-21T09:42:05Z</time>
      </trkpt>
      <trkpt lat="39.4745609164" lon="-8.2821495552">
        <ele>31.86</ele>
        <time>2018-12-21T09:42:15Z</time>
      </trkpt>
      <trkpt lat="39.4744872395" lon="-8.2822909579">
        <ele>31.86</ele>
        <time>2018-12-21T09:42:25Z</time>
      </trkpt>
      <trkpt lat="39.4744074438" lon="-8.2824093103">
        <ele>31.38</ele>
        <time>2018-12-21T09:42:34Z</time>
      </trkpt>
      <trkpt lat="39.4743443280" lon="-8.2825104799">
        <ele>31.86</ele>
        <time>2018-12-21T09:42:42Z</time>
      </trkpt>
      <trkpt lat="39.4743266422" lon="-8.2825300097">
        <ele>30.90</ele>
        <time>2018-12-21T09:42:44Z</time>
      </trkpt>
      <trkpt lat="39.4742360339" lon="-8.2826777827">
        <ele>31.38</ele>
        <time>2018-12-21T09:42:55Z</time>
      </trkpt>
      <trkpt lat="39.4741720799" lon="-8.2827963028">
        <ele>31.38</ele>
        <time>2018-12-21T09:43:04Z</time>
      </trkpt>
      <trkpt lat="39.4741104729" lon="-8.2829097938">
        <ele>31.38</ele>
        <time>2018-12-21T09:43:12Z</time>
      </trkpt>
      <trkpt lat="39.4740198646" lon="-8.2830228657">
        <ele>31.86</ele>
        <time>2018-12-21T09:43:22Z</time>
      </trkpt>
      <trkpt lat="39.4739438407" lon="-8.2831415534">
        <ele>31.86</ele>
        <time>2018-12-21T09:43:31Z</time>
      </trkpt>
      <trkpt lat="39.4738754444" lon="-8.2832600735">
        <ele>32.34</ele>
        <time>2018-12-21T09:43:40Z</time>
      </trkpt>
      <trkpt lat="39.4737964869" lon="-8.2833725587">
        <ele>32.82</ele>
        <time>2018-12-21T09:43:49Z</time>
      </trkpt>
      <trkpt lat="39.4737361372" lon="-8.2834692020">
        <ele>34.26</ele>
        <time>2018-12-21T09:43:57Z</time>
      </trkpt>
      <trkpt lat="39.4736681599" lon="-8.2835875545">
        <ele>35.23</ele>
        <time>2018-12-21T09:44:06Z</time>
      </trkpt>
      <trkpt lat="39.4736053795" lon="-8.2836907357">
        <ele>34.74</ele>
        <time>2018-12-21T09:44:14Z</time>
      </trkpt>
      <trkpt lat="39.4735401683" lon="-8.2837828528">
        <ele>35.23</ele>
        <time>2018-12-21T09:44:22Z</time>
      </trkpt>
      <trkpt lat="39.4734743703" lon="-8.2838869561">
        <ele>35.71</ele>
        <time>2018-12-21T09:44:31Z</time>
      </trkpt>
      <trkpt lat="39.4734094106" lon="-8.2839863654">
        <ele>36.19</ele>
        <time>2018-12-21T09:44:39Z</time>
      </trkpt>
      <trkpt lat="39.4733177125" lon="-8.2841251697">
        <ele>37.63</ele>
        <time>2018-12-21T09:44:50Z</time>
      </trkpt>
      <trkpt lat="39.4732449576" lon="-8.2842436060">
        <ele>38.11</ele>
        <time>2018-12-21T09:44:59Z</time>
      </trkpt>
      <trkpt lat="39.4731546845" lon="-8.2843728550">
        <ele>38.59</ele>
        <time>2018-12-21T09:45:09Z</time>
      </trkpt>
      <trkpt lat="39.4730804209" lon="-8.2844912075">
        <ele>39.55</ele>
        <time>2018-12-21T09:45:18Z</time>
      </trkpt>
      <trkpt lat="39.4730199035" lon="-8.2845835760">
        <ele>39.07</ele>
        <time>2018-12-21T09:45:27Z</time>
      </trkpt>
      <trkpt lat="39.4729380123" lon="-8.2847218774">
        <ele>38.59</ele>
        <time>2018-12-21T09:45:38Z</time>
      </trkpt>
      <trkpt lat="39.4728519302" lon="-8.2848380506">
        <ele>39.07</ele>
        <time>2018-12-21T09:45:48Z</time>
      </trkpt>
      <trkpt lat="39.4727792591" lon="-8.2849798724">
        <ele>38.59</ele>
        <time>2018-12-21T09:45:58Z</time>
      </trkpt>
      <trkpt lat="39.4726902433" lon="-8.2851045951">
        <ele>38.59</ele>
        <time>2018-12-21T09:46:09Z</time>
      </trkpt>
      <trkpt lat="39.4726283010" lon="-8.2852179185">
        <ele>37.63</ele>
        <time>2018-12-21T09:46:17Z</time>
      </trkpt>
      <trkpt lat="39.4725454040" lon="-8.2853738219">
        <ele>37.15</ele>
        <time>2018-12-21T09:46:28Z</time>
      </trkpt>
      <trkpt lat="39.4724516105" lon="-8.2855274621">
        <ele>37.15</ele>
        <time>2018-12-21T09:46:40Z</time>
      </trkpt>
      <trkpt lat="39.4724257104" lon="-8.2855738979">
        <ele>37.15</ele>
        <time>2018-12-21T09:46:43Z</time>
      </trkpt>
      <trkpt lat="39.4723397959" lon="-8.2857542764">
        <ele>37.15</ele>
        <time>2018-12-21T09:46:55Z</time>
      </trkpt>
      <trkpt lat="39.4722849783" lon="-8.2858568709">
        <ele>37.63</ele>
        <time>2018-12-21T09:47:03Z</time>
      </trkpt>
      <trkpt lat="39.4722237904" lon="-8.2859709486">
        <ele>37.15</ele>
        <time>2018-12-21T09:47:13Z</time>
      </trkpt>
      <trkpt lat="39.4721973035" lon="-8.2860375009">
        <ele>36.67</ele>
        <time>2018-12-21T09:47:19Z</time>
      </trkpt>
      <trkpt lat="39.4721195195" lon="-8.2861938234">
        <ele>37.15</ele>
        <time>2018-12-21T09:47:29Z</time>
      </trkpt>
      <trkpt lat="39.4720348623" lon="-8.2862866111">
        <ele>37.63</ele>
        <time>2018-12-21T09:47:38Z</time>
      </trkpt>
      <trkpt lat="39.4719775300" lon="-8.2864065561">
        <ele>37.15</ele>
        <time>2018-12-21T09:47:48Z</time>
      </trkpt>
      <trkpt lat="39.4719190244" lon="-8.2865247410">
        <ele>37.63</ele>
        <time>2018-12-21T09:47:58Z</time>
      </trkpt>
      <trkpt lat="39.4718569983" lon="-8.2866368070">
        <ele>37.63</ele>
        <time>2018-12-21T09:48:07Z</time>
      </trkpt>
      <trkpt lat="39.4718062878" lon="-8.2867650501">
        <ele>37.15</ele>
        <time>2018-12-21T09:48:16Z</time>
      </trkpt>
      <trkpt lat="39.4717484526" lon="-8.2868677285">
        <ele>38.11</ele>
        <time>2018-12-21T09:48:25Z</time>
      </trkpt>
      <trkpt lat="39.4717415795" lon="-8.2868669741">
        <ele>38.11</ele>
        <time>2018-12-21T09:48:34Z</time>
      </trkpt>
      <trkpt lat="39.4717133325" lon="-8.2869481109">
        <ele>38.11</ele>
        <time>2018-12-21T09:48:42Z</time>
      </trkpt>
      <trkpt lat="39.4716739375" lon="-8.2870999072">
        <ele>38.11</ele>
        <time>2018-12-21T09:48:52Z</time>
      </trkpt>
      <trkpt lat="39.4716122467" lon="-8.2872754242">
        <ele>37.63</ele>
        <time>2018-12-21T09:49:03Z</time>
      </trkpt>
      <trkpt lat="39.4715481251" lon="-8.2874602452">
        <ele>38.59</ele>
        <time>2018-12-21T09:49:14Z</time>
      </trkpt>
      <trkpt lat="39.4715013541" lon="-8.2876186632">
        <ele>38.59</ele>
        <time>2018-12-21T09:49:24Z</time>
      </trkpt>
      <trkpt lat="39.4714585226" lon="-8.2877648436">
        <ele>38.11</ele>
        <time>2018-12-21T09:49:34Z</time>
      </trkpt>
      <trkpt lat="39.4714054652" lon="-8.2879320625">
        <ele>38.59</ele>
        <time>2018-12-21T09:49:44Z</time>
      </trkpt>
      <trkpt lat="39.4713654835" lon="-8.2880786620">
        <ele>38.59</ele>
        <time>2018-12-21T09:49:54Z</time>
      </trkpt>
      <trkpt lat="39.4713461213" lon="-8.2881910633">
        <ele>38.59</ele>
        <time>2018-12-21T09:50:02Z</time>
      </trkpt>
      <trkpt lat="39.4713146891" lon="-8.2883345615">
        <ele>39.07</ele>
        <time>2018-12-21T09:50:12Z</time>
      </trkpt>
      <trkpt lat="39.4712882023" lon="-8.2885003556">
        <ele>38.59</ele>
        <time>2018-12-21T09:50:21Z</time>
      </trkpt>
      <trkpt lat="39.4712412637" lon="-8.2886564266">
        <ele>39.55</ele>
        <time>2018-12-21T09:50:31Z</time>
      </trkpt>
      <trkpt lat="39.4711832609" lon="-8.2888532337">
        <ele>39.55</ele>
        <time>2018-12-21T09:50:43Z</time>
      </trkpt>
      <trkpt lat="39.4711764716" lon="-8.2889981568">
        <ele>39.55</ele>
        <time>2018-12-21T09:50:52Z</time>
      </trkpt>
      <trkpt lat="39.4711683411" lon="-8.2891543116">
        <ele>40.03</ele>
        <time>2018-12-21T09:51:01Z</time>
      </trkpt>
      <trkpt lat="39.4711390045" lon="-8.2893283200">
        <ele>40.99</ele>
        <time>2018-12-21T09:51:12Z</time>
      </trkpt>
      <trkpt lat="39.4710974302" lon="-8.2895102073">
        <ele>40.51</ele>
        <time>2018-12-21T09:51:22Z</time>
      </trkpt>
      <trkpt lat="39.4710992742" lon="-8.2896744087">
        <ele>40.99</ele>
        <time>2018-12-21T09:51:31Z</time>
      </trkpt>
      <trkpt lat="39.4711090811" lon="-8.2896881551">
        <ele>40.99</ele>
        <time>2018-12-21T09:51:36Z</time>
      </trkpt>
      <trkpt lat="39.4711164571" lon="-8.2897165697">
        <ele>40.99</ele>
        <time>2018-12-21T09:51:42Z</time>
      </trkpt>
      <trkpt lat="39.4711204804" lon="-8.2897127140">
        <ele>40.99</ele>
        <time>2018-12-21T09:51:50Z</time>
      </trkpt>
      <trkpt lat="39.4711203128" lon="-8.2897060923">
        <ele>40.99</ele>
        <time>2018-12-21T09:52:04Z</time>
      </trkpt>
      <trkpt lat="39.4711363222" lon="-8.2896708045">
        <ele>41.47</ele>
        <time>2018-12-21T09:52:13Z</time>
      </trkpt>
      <trkpt lat="39.4711400103" lon="-8.2896997221">
        <ele>40.99</ele>
        <time>2018-12-21T09:52:26Z</time>
      </trkpt>
      <trkpt lat="39.4711027108" lon="-8.2898127940">
        <ele>40.99</ele>
        <time>2018-12-21T09:52:36Z</time>
      </trkpt>
      <trkpt lat="39.4710968435" lon="-8.2899562083">
        <ele>41.47</ele>
        <time>2018-12-21T09:52:45Z</time>
      </trkpt>
      <trkpt lat="39.4710954186" lon="-8.2901125308">
        <ele>41.47</ele>
        <time>2018-12-21T09:52:54Z</time>
      </trkpt>
      <trkpt lat="39.4710748829" lon="-8.2902978547">
        <ele>41.47</ele>
        <time>2018-12-21T09:53:05Z</time>
      </trkpt>
      <trkpt lat="39.4710471388" lon="-8.2904576138">
        <ele>41.95</ele>
        <time>2018-12-21T09:53:15Z</time>
      </trkpt>
      <trkpt lat="39.4710459653" lon="-8.2906389982">
        <ele>41.95</ele>
        <time>2018-12-21T09:53:26Z</time>
      </trkpt>
      <trkpt lat="39.4710167963" lon="-8.2907946501">
        <ele>40.51</ele>
        <time>2018-12-21T09:53:36Z</time>
      </trkpt>
      <trkpt lat="39.4710055646" lon="-8.2909754477">
        <ele>40.99</ele>
        <time>2018-12-21T09:53:47Z</time>
      </trkpt>
      <trkpt lat="39.4709700253" lon="-8.2911384758">
        <ele>41.95</ele>
        <time>2018-12-21T09:53:58Z</time>
      </trkpt>
      <trkpt lat="39.4709556084" lon="-8.2912870031">
        <ele>41.47</ele>
        <time>2018-12-21T09:54:08Z</time>
      </trkpt>
      <trkpt lat="39.4709200691" lon="-8.2914345246">
        <ele>41.47</ele>
        <time>2018-12-21T09:54:18Z</time>
      </trkpt>
      <trkpt lat="39.4709062390" lon="-8.2916146517">
        <ele>41.95</ele>
        <time>2018-12-21T09:54:29Z</time>
      </trkpt>
      <trkpt lat="39.4708950911" lon="-8.2917888276">
        <ele>41.47</ele>
        <time>2018-12-21T09:54:39Z</time>
      </trkpt>
      <trkpt lat="39.4708577078" lon="-8.2919775881">
        <ele>41.47</ele>
        <time>2018-12-21T09:54:51Z</time>
      </trkpt>
      <trkpt lat="39.4708413631" lon="-8.2921917457">
        <ele>41.47</ele>
        <time>2018-12-21T09:55:04Z</time>
      </trkpt>
      <trkpt lat="39.4708122779" lon="-8.2923639100">
        <ele>40.51</ele>
        <time>2018-12-21T09:55:15Z</time>
      </trkpt>
      <trkpt lat="39.4707904011" lon="-8.2925212383">
        <ele>40.51</ele>
        <time>2018-12-21T09:55:25Z</time>
      </trkpt>
      <trkpt lat="39.4707716256" lon="-8.2927127648">
        <ele>40.03</ele>
        <time>2018-12-21T09:55:36Z</time>
      </trkpt>
      <trkpt lat="39.4707314763" lon="-8.2929125056">
        <ele>39.55</ele>
        <time>2018-12-21T09:55:49Z</time>
      </trkpt>
      <trkpt lat="39.4707150478" lon="-8.2930534892">
        <ele>40.03</ele>
        <time>2018-12-21T09:55:58Z</time>
      </trkpt>
      <trkpt lat="39.4707047381" lon="-8.2932187803">
        <ele>39.55</ele>
        <time>2018-12-21T09:56:08Z</time>
      </trkpt>
      <trkpt lat="39.4707071688" lon="-8.2932367176">
        <ele>40.51</ele>
        <time>2018-12-21T09:56:09Z</time>
      </trkpt>
      <trkpt lat="39.4706686120" lon="-8.2933380548">
        <ele>39.07</ele>
        <time>2018-12-21T09:56:16Z</time>
      </trkpt>
      <trkpt lat="39.4706646726" lon="-8.2934688125">
        <ele>39.07</ele>
        <time>2018-12-21T09:56:25Z</time>
      </trkpt>
      <trkpt lat="39.4706614874" lon="-8.2934928685">
        <ele>39.07</ele>
        <time>2018-12-21T09:56:27Z</time>
      </trkpt>
      <trkpt lat="39.4706567097" lon="-8.2936817128">
        <ele>39.55</ele>
        <time>2018-12-21T09:56:39Z</time>
      </trkpt>
      <trkpt lat="39.4706462324" lon="-8.2938119676">
        <ele>39.07</ele>
        <time>2018-12-21T09:56:48Z</time>
      </trkpt>
      <trkpt lat="39.4706391916" lon="-8.2939603273">
        <ele>39.07</ele>
        <time>2018-12-21T09:56:58Z</time>
      </trkpt>
      <trkpt lat="39.4706277084" lon="-8.2941350061">
        <ele>38.59</ele>
        <time>2018-12-21T09:57:09Z</time>
      </trkpt>
      <trkpt lat="39.4705993775" lon="-8.2942955196">
        <ele>38.59</ele>
        <time>2018-12-21T09:57:19Z</time>
      </trkpt>
      <trkpt lat="39.4705925044" lon="-8.2944676839">
        <ele>37.63</ele>
        <time>2018-12-21T09:57:30Z</time>
      </trkpt>
      <trkpt lat="39.4705868047" lon="-8.2946444582">
        <ele>38.59</ele>
        <time>2018-12-21T09:57:41Z</time>
      </trkpt>
      <trkpt lat="39.4706283789" lon="-8.2948378287">
        <ele>38.11</ele>
        <time>2018-12-21T09:57:53Z</time>
      </trkpt>
      <trkpt lat="39.4707045704" lon="-8.2949996833">
        <ele>39.07</ele>
        <time>2018-12-21T09:58:04Z</time>
      </trkpt>
      <trkpt lat="39.4707668480" lon="-8.2951741945">
        <ele>38.59</ele>
        <time>2018-12-21T09:58:16Z</time>
      </trkpt>
      <trkpt lat="39.4708515052" lon="-8.2953381445">
        <ele>38.59</ele>
        <time>2018-12-21T09:58:28Z</time>
      </trkpt>
      <trkpt lat="39.4709262718" lon="-8.2954952214">
        <ele>39.07</ele>
        <time>2018-12-21T09:58:39Z</time>
      </trkpt>
      <trkpt lat="39.4709626492" lon="-8.2956307568">
        <ele>39.07</ele>
        <time>2018-12-21T09:58:48Z</time>
      </trkpt>
      <trkpt lat="39.4710172154" lon="-8.2957992330">
        <ele>38.59</ele>
        <time>2018-12-21T09:59:00Z</time>
      </trkpt>
      <trkpt lat="39.4710664172" lon="-8.2959910948">
        <ele>39.07</ele>
        <time>2018-12-21T09:59:12Z</time>
      </trkpt>
      <trkpt lat="39.4710908085" lon="-8.2961986307">
        <ele>38.59</ele>
        <time>2018-12-21T09:59:25Z</time>
      </trkpt>
      <trkpt lat="39.4711416028" lon="-8.2963812724">
        <ele>38.59</ele>
        <time>2018-12-21T09:59:37Z</time>
      </trkpt>
      <trkpt lat="39.4711647369" lon="-8.2965478208">
        <ele>38.11</ele>
        <time>2018-12-21T09:59:48Z</time>
      </trkpt>
      <trkpt lat="39.4711784832" lon="-8.2967246789">
        <ele>37.63</ele>
        <time>2018-12-21T09:59:59Z</time>
      </trkpt>
      <trkpt lat="39.4712074846" lon="-8.2968981843">
        <ele>38.11</ele>
        <time>2018-12-21T10:00:11Z</time>
      </trkpt>
      <trkpt lat="39.4712160341" lon="-8.2970571052">
        <ele>38.11</ele>
        <time>2018-12-21T10:00:20Z</time>
      </trkpt>
      <trkpt lat="39.4712132681" lon="-8.2972395793">
        <ele>38.11</ele>
        <time>2018-12-21T10:00:31Z</time>
      </trkpt>
      <trkpt lat="39.4712444488" lon="-8.2973878551">
        <ele>37.63</ele>
        <time>2018-12-21T10:00:40Z</time>
      </trkpt>
      <trkpt lat="39.4712671638" lon="-8.2975585945">
        <ele>37.15</ele>
        <time>2018-12-21T10:00:51Z</time>
      </trkpt>
      <trkpt lat="39.4712808263" lon="-8.2976400666">
        <ele>37.15</ele>
        <time>2018-12-21T10:00:56Z</time>
      </trkpt>
      <trkpt lat="39.4713024516" lon="-8.2977025118">
        <ele>37.15</ele>
        <time>2018-12-21T10:01:00Z</time>
      </trkpt>
      <trkpt lat="39.4713447802" lon="-8.2979144063">
        <ele>37.15</ele>
        <time>2018-12-21T10:01:13Z</time>
      </trkpt>
      <trkpt lat="39.4713690039" lon="-8.2981121354">
        <ele>36.67</ele>
        <time>2018-12-21T10:01:25Z</time>
      </trkpt>
      <trkpt lat="39.4713995978" lon="-8.2982691284">
        <ele>37.15</ele>
        <time>2018-12-21T10:01:35Z</time>
      </trkpt>
      <trkpt lat="39.4714324549" lon="-8.2984617446">
        <ele>37.15</ele>
        <time>2018-12-21T10:01:47Z</time>
      </trkpt>
      <trkpt lat="39.4714563433" lon="-8.2986405306">
        <ele>37.63</ele>
        <time>2018-12-21T10:01:58Z</time>
      </trkpt>
      <trkpt lat="39.4714799803" lon="-8.2988101803">
        <ele>37.15</ele>
        <time>2018-12-21T10:02:09Z</time>
      </trkpt>
      <trkpt lat="39.4714992587" lon="-8.2989793271">
        <ele>36.67</ele>
        <time>2018-12-21T10:02:19Z</time>
      </trkpt>
      <trkpt lat="39.4715473708" lon="-8.2992082369">
        <ele>37.15</ele>
        <time>2018-12-21T10:02:33Z</time>
      </trkpt>
      <trkpt lat="39.4715637993" lon="-8.2993434370">
        <ele>37.63</ele>
        <time>2018-12-21T10:02:42Z</time>
      </trkpt>
      <trkpt lat="39.4716096483" lon="-8.2995493803">
        <ele>36.67</ele>
        <time>2018-12-21T10:02:54Z</time>
      </trkpt>
      <trkpt lat="39.4716335367" lon="-8.2997346204">
        <ele>36.67</ele>
        <time>2018-12-21T10:03:05Z</time>
      </trkpt>
      <trkpt lat="39.4716342073" lon="-8.2999151666">
        <ele>37.15</ele>
        <time>2018-12-21T10:03:16Z</time>
      </trkpt>
      <trkpt lat="39.4716281723" lon="-8.3000688907">
        <ele>37.15</ele>
        <time>2018-12-21T10:03:25Z</time>
      </trkpt>
      <trkpt lat="39.4716141745" lon="-8.3002191782">
        <ele>36.67</ele>
        <time>2018-12-21T10:03:34Z</time>
      </trkpt>
      <trkpt lat="39.4716027752" lon="-8.3003554679">
        <ele>36.67</ele>
        <time>2018-12-21T10:03:42Z</time>
      </trkpt>
      <trkpt lat="39.4715865143" lon="-8.3005395345">
        <ele>36.19</ele>
        <time>2018-12-21T10:03:53Z</time>
      </trkpt>
      <trkpt lat="39.4715698343" lon="-8.3007059991">
        <ele>36.67</ele>
        <time>2018-12-21T10:04:03Z</time>
      </trkpt>
      <trkpt lat="39.4715473708" lon="-8.3008621540">
        <ele>36.19</ele>
        <time>2018-12-21T10:04:12Z</time>
      </trkpt>
      <trkpt lat="39.4715155195" lon="-8.3010632358">
        <ele>36.19</ele>
        <time>2018-12-21T10:04:24Z</time>
      </trkpt>
      <trkpt lat="39.4715033658" lon="-8.3012417704">
        <ele>36.67</ele>
        <time>2018-12-21T10:04:35Z</time>
      </trkpt>
      <trkpt lat="39.4714830816" lon="-8.3013756294">
        <ele>36.67</ele>
        <time>2018-12-21T10:04:43Z</time>
      </trkpt>
      <trkpt lat="39.4714519847" lon="-8.3015374839">
        <ele>36.67</ele>
        <time>2018-12-21T10:04:54Z</time>
      </trkpt>
      <trkpt lat="39.4714319520" lon="-8.3016896155">
        <ele>36.67</ele>
        <time>2018-12-21T10:05:04Z</time>
      </trkpt>
      <trkpt lat="39.4714146852" lon="-8.3018264081">
        <ele>36.19</ele>
        <time>2018-12-21T10:05:12Z</time>
      </trkpt>
      <trkpt lat="39.4713871926" lon="-8.3019804675">
        <ele>36.19</ele>
        <time>2018-12-21T10:05:22Z</time>
      </trkpt>
      <trkpt lat="39.4713583589" lon="-8.3021499496">
        <ele>36.67</ele>
        <time>2018-12-21T10:05:33Z</time>
      </trkpt>
      <trkpt lat="39.4713318720" lon="-8.3023412246">
        <ele>36.19</ele>
        <time>2018-12-21T10:05:44Z</time>
      </trkpt>
      <trkpt lat="39.4713269267" lon="-8.3025013190">
        <ele>34.74</ele>
        <time>2018-12-21T10:05:54Z</time>
      </trkpt>
      <trkpt lat="39.4713223167" lon="-8.3026777580">
        <ele>34.26</ele>
        <time>2018-12-21T10:06:05Z</time>
      </trkpt>
      <trkpt lat="39.4713151082" lon="-8.3028376009">
        <ele>34.74</ele>
        <time>2018-12-21T10:06:15Z</time>
      </trkpt>
      <trkpt lat="39.4713060558" lon="-8.3029842842">
        <ele>35.23</ele>
        <time>2018-12-21T10:06:24Z</time>
      </trkpt>
      <trkpt lat="39.4713111687" lon="-8.3031147905">
        <ele>34.74</ele>
        <time>2018-12-21T10:06:32Z</time>
      </trkpt>
      <trkpt lat="39.4712915551" lon="-8.3033157885">
        <ele>34.26</ele>
        <time>2018-12-21T10:06:44Z</time>
      </trkpt>
      <trkpt lat="39.4712714385" lon="-8.3034960832">
        <ele>35.23</ele>
        <time>2018-12-21T10:06:55Z</time>
      </trkpt>
      <trkpt lat="39.4712575246" lon="-8.3036532439">
        <ele>35.23</ele>
        <time>2018-12-21T10:07:04Z</time>
      </trkpt>
      <trkpt lat="39.4712736178" lon="-8.3038539067">
        <ele>34.74</ele>
        <time>2018-12-21T10:07:16Z</time>
      </trkpt>
      <trkpt lat="39.4713044632" lon="-8.3040431701">
        <ele>35.71</ele>
        <time>2018-12-21T10:07:27Z</time>
      </trkpt>
      <trkpt lat="39.4713184610" lon="-8.3042301703">
        <ele>35.23</ele>
        <time>2018-12-21T10:07:38Z</time>
      </trkpt>
      <trkpt lat="39.4713492226" lon="-8.3044451661">
        <ele>35.23</ele>
        <time>2018-12-21T10:07:51Z</time>
      </trkpt>
      <trkpt lat="39.4713593647" lon="-8.3046024945">
        <ele>35.23</ele>
        <time>2018-12-21T10:08:01Z</time>
      </trkpt>
      <trkpt lat="39.4713737816" lon="-8.3047214337">
        <ele>39.55</ele>
        <time>2018-12-21T10:08:08Z</time>
      </trkpt>
      <trkpt lat="39.4713769667" lon="-8.3047382813">
        <ele>34.26</ele>
        <time>2018-12-21T10:08:09Z</time>
      </trkpt>
      <trkpt lat="39.4713914674" lon="-8.3048244473">
        <ele>37.63</ele>
        <time>2018-12-21T10:08:14Z</time>
      </trkpt>
      <trkpt lat="39.4713969994" lon="-8.3048542868">
        <ele>35.71</ele>
        <time>2018-12-21T10:08:16Z</time>
      </trkpt>
      <trkpt lat="39.4714310300" lon="-8.3050546143">
        <ele>37.15</ele>
        <time>2018-12-21T10:08:29Z</time>
      </trkpt>
      <trkpt lat="39.4714446086" lon="-8.3052147087">
        <ele>36.19</ele>
        <time>2018-12-21T10:08:39Z</time>
      </trkpt>
      <trkpt lat="39.4714626297" lon="-8.3053859510">
        <ele>36.67</ele>
        <time>2018-12-21T10:08:50Z</time>
      </trkpt>
      <trkpt lat="39.4714951515" lon="-8.3056048024">
        <ele>36.19</ele>
        <time>2018-12-21T10:09:03Z</time>
      </trkpt>
      <trkpt lat="39.4715271704" lon="-8.3058190439">
        <ele>37.15</ele>
        <time>2018-12-21T10:09:16Z</time>
      </trkpt>
      <trkpt lat="39.4715617876" lon="-8.3060233109">
        <ele>36.67</ele>
        <time>2018-12-21T10:09:28Z</time>
      </trkpt>
      <trkpt lat="39.4715719298" lon="-8.3061865065">
        <ele>37.15</ele>
        <time>2018-12-21T10:09:38Z</time>
      </trkpt>
      <trkpt lat="39.4715698343" lon="-8.3063706569">
        <ele>37.63</ele>
        <time>2018-12-21T10:09:49Z</time>
      </trkpt>
      <trkpt lat="39.4715584349" lon="-8.3065600879">
        <ele>38.11</ele>
        <time>2018-12-21T10:10:00Z</time>
      </trkpt>
      <trkpt lat="39.4715371449" lon="-8.3067423943">
        <ele>38.11</ele>
        <time>2018-12-21T10:10:11Z</time>
      </trkpt>
      <trkpt lat="39.4715368096" lon="-8.3067607507">
        <ele>38.11</ele>
        <time>2018-12-21T10:10:12Z</time>
      </trkpt>
      <trkpt lat="39.4715080597" lon="-8.3069187496">
        <ele>38.59</ele>
        <time>2018-12-21T10:10:23Z</time>
      </trkpt>
      <trkpt lat="39.4715056289" lon="-8.3070702944">
        <ele>39.07</ele>
        <time>2018-12-21T10:10:32Z</time>
      </trkpt>
      <trkpt lat="39.4714945648" lon="-8.3072053269">
        <ele>38.11</ele>
        <time>2018-12-21T10:10:41Z</time>
      </trkpt>
      <trkpt lat="39.4715180341" lon="-8.3073954284">
        <ele>39.07</ele>
        <time>2018-12-21T10:10:52Z</time>
      </trkpt>
      <trkpt lat="39.4715215545" lon="-8.3075777348">
        <ele>38.59</ele>
        <time>2018-12-21T10:11:03Z</time>
      </trkpt>
      <trkpt lat="39.4715345465" lon="-8.3077612147">
        <ele>38.59</ele>
        <time>2018-12-21T10:11:14Z</time>
      </trkpt>
      <trkpt lat="39.4715326186" lon="-8.3079270925">
        <ele>38.59</ele>
        <time>2018-12-21T10:11:25Z</time>
      </trkpt>
      <trkpt lat="39.4715511426" lon="-8.3081060462">
        <ele>38.59</ele>
        <time>2018-12-21T10:11:36Z</time>
      </trkpt>
      <trkpt lat="39.4715885259" lon="-8.3083542343">
        <ele>39.07</ele>
        <time>2018-12-21T10:11:50Z</time>
      </trkpt>
      <trkpt lat="39.4716193713" lon="-8.3084883448">
        <ele>38.59</ele>
        <time>2018-12-21T10:11:59Z</time>
      </trkpt>
      <trkpt lat="39.4716795534" lon="-8.3086326811">
        <ele>38.59</ele>
        <time>2018-12-21T10:12:09Z</time>
      </trkpt>
      <trkpt lat="39.4717648812" lon="-8.3087822143">
        <ele>38.11</ele>
        <time>2018-12-21T10:12:20Z</time>
      </trkpt>
      <trkpt lat="39.4718279969" lon="-8.3089371957">
        <ele>38.11</ele>
        <time>2018-12-21T10:12:31Z</time>
      </trkpt>
      <trkpt lat="39.4719134085" lon="-8.3091279678">
        <ele>38.11</ele>
        <time>2018-12-21T10:12:44Z</time>
      </trkpt>
      <trkpt lat="39.4719541445" lon="-8.3092391957">
        <ele>37.15</ele>
        <time>2018-12-21T10:12:52Z</time>
      </trkpt>
      <trkpt lat="39.4720106386" lon="-8.3093992900">
        <ele>36.67</ele>
        <time>2018-12-21T10:13:03Z</time>
      </trkpt>
      <trkpt lat="39.4720519613" lon="-8.3095152956">
        <ele>36.67</ele>
        <time>2018-12-21T10:13:11Z</time>
      </trkpt>
      <trkpt lat="39.4720996544" lon="-8.3096901421">
        <ele>36.67</ele>
        <time>2018-12-21T10:13:22Z</time>
      </trkpt>
      <trkpt lat="39.4721525442" lon="-8.3098665811">
        <ele>36.19</ele>
        <time>2018-12-21T10:13:34Z</time>
      </trkpt>
      <trkpt lat="39.4722242095" lon="-8.3100231551">
        <ele>35.71</ele>
        <time>2018-12-21T10:13:45Z</time>
      </trkpt>
      <trkpt lat="39.4722822960" lon="-8.3101427648">
        <ele>34.74</ele>
        <time>2018-12-21T10:13:55Z</time>
      </trkpt>
      <trkpt lat="39.4723708089" lon="-8.3102924656">
        <ele>34.26</ele>
        <time>2018-12-21T10:14:07Z</time>
      </trkpt>
      <trkpt lat="39.4724340923" lon="-8.3104269952">
        <ele>34.26</ele>
        <time>2018-12-21T10:14:17Z</time>
      </trkpt>
      <trkpt lat="39.4725003093" lon="-8.3106084634">
        <ele>32.82</ele>
        <time>2018-12-21T10:14:29Z</time>
      </trkpt>
      <trkpt lat="39.4725280534" lon="-8.3107522968">
        <ele>32.82</ele>
        <time>2018-12-21T10:14:38Z</time>
      </trkpt>
      <trkpt lat="39.4725512713" lon="-8.3108554780">
        <ele>31.86</ele>
        <time>2018-12-21T10:14:46Z</time>
      </trkpt>
      <trkpt lat="39.4725603238" lon="-8.3110260498">
        <ele>31.86</ele>
        <time>2018-12-21T10:14:57Z</time>
      </trkpt>
      <trkpt lat="39.4725295622" lon="-8.3112226054">
        <ele>30.90</ele>
        <time>2018-12-21T10:15:09Z</time>
      </trkpt>
      <trkpt lat="39.4725386985" lon="-8.3113915008">
        <ele>31.38</ele>
        <time>2018-12-21T10:15:19Z</time>
      </trkpt>
      <trkpt lat="39.4725283887" lon="-8.3115966059">
        <ele>31.38</ele>
        <time>2018-12-21T10:15:31Z</time>
      </trkpt>
      <trkpt lat="39.4725570548" lon="-8.3118121047">
        <ele>30.42</ele>
        <time>2018-12-21T10:15:44Z</time>
      </trkpt>
      <trkpt lat="39.4726288039" lon="-8.3119959198">
        <ele>30.42</ele>
        <time>2018-12-21T10:15:55Z</time>
      </trkpt>
      <trkpt lat="39.4726851303" lon="-8.3121360652">
        <ele>29.94</ele>
        <time>2018-12-21T10:16:05Z</time>
      </trkpt>
      <trkpt lat="39.4727769122" lon="-8.3122731093">
        <ele>30.90</ele>
        <time>2018-12-21T10:16:16Z</time>
      </trkpt>
      <trkpt lat="39.4728603121" lon="-8.3123989217">
        <ele>30.42</ele>
        <time>2018-12-21T10:16:27Z</time>
      </trkpt>
      <trkpt lat="39.4729029760" lon="-8.3125239797">
        <ele>30.42</ele>
        <time>2018-12-21T10:16:36Z</time>
      </trkpt>
      <trkpt lat="39.4729654212" lon="-8.3126681484">
        <ele>30.42</ele>
        <time>2018-12-21T10:16:46Z</time>
      </trkpt>
      <trkpt lat="39.4730401039" lon="-8.3128331043">
        <ele>30.42</ele>
        <time>2018-12-21T10:16:57Z</time>
      </trkpt>
      <trkpt lat="39.4731018785" lon="-8.3130403887">
        <ele>30.42</ele>
        <time>2018-12-21T10:17:10Z</time>
      </trkpt>
      <trkpt lat="39.4731930736" lon="-8.3132305741">
        <ele>30.90</ele>
        <time>2018-12-21T10:17:23Z</time>
      </trkpt>
      <trkpt lat="39.4732607994" lon="-8.3134180773">
        <ele>30.42</ele>
        <time>2018-12-21T10:17:36Z</time>
      </trkpt>
      <trkpt lat="39.4733374938" lon="-8.3135907445">
        <ele>30.90</ele>
        <time>2018-12-21T10:17:48Z</time>
      </trkpt>
      <trkpt lat="39.4733957481" lon="-8.3137859590">
        <ele>30.42</ele>
        <time>2018-12-21T10:18:01Z</time>
      </trkpt>
      <trkpt lat="39.4734416809" lon="-8.3139589615">
        <ele>30.42</ele>
        <time>2018-12-21T10:18:12Z</time>
      </trkpt>
      <trkpt lat="39.4735245779" lon="-8.3141565230">
        <ele>30.42</ele>
        <time>2018-12-21T10:18:25Z</time>
      </trkpt>
      <trkpt lat="39.4735928066" lon="-8.3143944014">
        <ele>29.94</ele>
        <time>2018-12-21T10:18:40Z</time>
      </trkpt>
      <trkpt lat="39.4736698363" lon="-8.3146156836">
        <ele>30.42</ele>
        <time>2018-12-21T10:18:54Z</time>
      </trkpt>
      <trkpt lat="39.4737012684" lon="-8.3147889376">
        <ele>30.42</ele>
        <time>2018-12-21T10:19:05Z</time>
      </trkpt>
      <trkpt lat="39.4737508893" lon="-8.3149610180">
        <ele>29.94</ele>
        <time>2018-12-21T10:19:17Z</time>
      </trkpt>
      <trkpt lat="39.4738049526" lon="-8.3151381277">
        <ele>30.42</ele>
        <time>2018-12-21T10:19:29Z</time>
      </trkpt>
      <trkpt lat="39.4738354627" lon="-8.3152636047">
        <ele>29.94</ele>
        <time>2018-12-21T10:19:38Z</time>
      </trkpt>
      <trkpt lat="39.4738833234" lon="-8.3154201787">
        <ele>30.42</ele>
        <time>2018-12-21T10:19:49Z</time>
      </trkpt>
      <trkpt lat="39.4739171024" lon="-8.3155511040">
        <ele>29.94</ele>
        <time>2018-12-21T10:19:58Z</time>
      </trkpt>
      <trkpt lat="39.4739723392" lon="-8.3157253638">
        <ele>30.42</ele>
        <time>2018-12-21T10:20:09Z</time>
      </trkpt>
      <trkpt lat="39.4740291685" lon="-8.3158877213">
        <ele>29.94</ele>
        <time>2018-12-21T10:20:20Z</time>
      </trkpt>
      <trkpt lat="39.4740828127" lon="-8.3160396013">
        <ele>29.46</ele>
        <time>2018-12-21T10:20:30Z</time>
      </trkpt>
      <trkpt lat="39.4741441682" lon="-8.3162146993">
        <ele>29.46</ele>
        <time>2018-12-21T10:20:41Z</time>
      </trkpt>
      <trkpt lat="39.4741902687" lon="-8.3163866121">
        <ele>29.46</ele>
        <time>2018-12-21T10:20:52Z</time>
      </trkpt>
      <trkpt lat="39.4742609281" lon="-8.3165729418">
        <ele>29.46</ele>
        <time>2018-12-21T10:21:04Z</time>
      </trkpt>
      <trkpt lat="39.4743172545" lon="-8.3167392388">
        <ele>29.46</ele>
        <time>2018-12-21T10:21:15Z</time>
      </trkpt>
      <trkpt lat="39.4743894227" lon="-8.3168783784">
        <ele>29.46</ele>
        <time>2018-12-21T10:21:26Z</time>
      </trkpt>
      <trkpt lat="39.4744372834" lon="-8.3169952221">
        <ele>29.46</ele>
        <time>2018-12-21T10:21:35Z</time>
      </trkpt>
      <trkpt lat="39.4745353516" lon="-8.3171807975">
        <ele>29.94</ele>
        <time>2018-12-21T10:21:48Z</time>
      </trkpt>
      <trkpt lat="39.4746029936" lon="-8.3173427358">
        <ele>29.94</ele>
        <time>2018-12-21T10:21:59Z</time>
      </trkpt>
      <trkpt lat="39.4746870641" lon="-8.3175212704">
        <ele>29.94</ele>
        <time>2018-12-21T10:22:11Z</time>
      </trkpt>
      <trkpt lat="39.4747668598" lon="-8.3176629245">
        <ele>29.46</ele>
        <time>2018-12-21T10:22:22Z</time>
      </trkpt>
      <trkpt lat="39.4748453144" lon="-8.3177991305">
        <ele>29.94</ele>
        <time>2018-12-21T10:22:32Z</time>
      </trkpt>
      <trkpt lat="39.4749143813" lon="-8.3179396112">
        <ele>29.94</ele>
        <time>2018-12-21T10:22:43Z</time>
      </trkpt>
      <trkpt lat="39.4749873038" lon="-8.3181010466">
        <ele>29.94</ele>
        <time>2018-12-21T10:22:54Z</time>
      </trkpt>
      <trkpt lat="39.4750557002" lon="-8.3182985242">
        <ele>29.94</ele>
        <time>2018-12-21T10:23:06Z</time>
      </trkpt>
      <trkpt lat="39.4751297962" lon="-8.3184436150">
        <ele>29.94</ele>
        <time>2018-12-21T10:23:17Z</time>
      </trkpt>
      <trkpt lat="39.4751902297" lon="-8.3185851015">
        <ele>29.94</ele>
        <time>2018-12-21T10:23:26Z</time>
      </trkpt>
      <trkpt lat="39.4752481487" lon="-8.3187078964">
        <ele>29.94</ele>
        <time>2018-12-21T10:23:35Z</time>
      </trkpt>
      <trkpt lat="39.4753001165" lon="-8.3188242372">
        <ele>29.94</ele>
        <time>2018-12-21T10:23:44Z</time>
      </trkpt>
      <trkpt lat="39.4753463008" lon="-8.3188843355">
        <ele>30.42</ele>
        <time>2018-12-21T10:23:49Z</time>
      </trkpt>
      <trkpt lat="39.4754497334" lon="-8.3189983293">
        <ele>29.94</ele>
        <time>2018-12-21T10:24:00Z</time>
      </trkpt>
      <trkpt lat="39.4755395036" lon="-8.3190980740">
        <ele>30.42</ele>
        <time>2018-12-21T10:24:09Z</time>
      </trkpt>
      <trkpt lat="39.4756490551" lon="-8.3191778697">
        <ele>30.90</ele>
        <time>2018-12-21T10:24:20Z</time>
      </trkpt>
      <trkpt lat="39.4757543318" lon="-8.3192681428">
        <ele>31.38</ele>
        <time>2018-12-21T10:24:30Z</time>
      </trkpt>
      <trkpt lat="39.4758453593" lon="-8.3193471003">
        <ele>31.38</ele>
        <time>2018-12-21T10:24:39Z</time>
      </trkpt>
      <trkpt lat="39.4759315252" lon="-8.3194293268">
        <ele>31.86</ele>
        <time>2018-12-21T10:24:47Z</time>
      </trkpt>
      <trkpt lat="39.4760466926" lon="-8.3195370343">
        <ele>31.86</ele>
        <time>2018-12-21T10:24:58Z</time>
      </trkpt>
      <trkpt lat="39.4761372171" lon="-8.3196273074">
        <ele>31.86</ele>
        <time>2018-12-21T10:25:07Z</time>
      </trkpt>
      <trkpt lat="39.4762037694" lon="-8.3196966257">
        <ele>31.86</ele>
        <time>2018-12-21T10:25:15Z</time>
      </trkpt>
      <trkpt lat="39.4763291627" lon="-8.3197956160">
        <ele>31.38</ele>
        <time>2018-12-21T10:25:27Z</time>
      </trkpt>
      <trkpt lat="39.4764069468" lon="-8.3198646829">
        <ele>31.38</ele>
        <time>2018-12-21T10:25:35Z</time>
      </trkpt>
      <trkpt lat="39.4764989801" lon="-8.3199391980">
        <ele>31.38</ele>
        <time>2018-12-21T10:25:44Z</time>
      </trkpt>
      <trkpt lat="39.4766154885" lon="-8.3200401161">
        <ele>31.38</ele>
        <time>2018-12-21T10:25:54Z</time>
      </trkpt>
      <trkpt lat="39.4767125510" lon="-8.3201321494">
        <ele>30.90</ele>
        <time>2018-12-21T10:26:03Z</time>
      </trkpt>
      <trkpt lat="39.4767894130" lon="-8.3202255238">
        <ele>30.90</ele>
        <time>2018-12-21T10:26:12Z</time>
      </trkpt>
      <trkpt lat="39.4768614136" lon="-8.3203489054">
        <ele>30.90</ele>
        <time>2018-12-21T10:26:22Z</time>
      </trkpt>
      <trkpt lat="39.4769253675" lon="-8.3204583731">
        <ele>31.38</ele>
        <time>2018-12-21T10:26:31Z</time>
      </trkpt>
      <trkpt lat="39.4770162273" lon="-8.3205576148">
        <ele>31.38</ele>
        <time>2018-12-21T10:26:41Z</time>
      </trkpt>
      <trkpt lat="39.4770868868" lon="-8.3206747100">
        <ele>30.90</ele>
        <time>2018-12-21T10:26:51Z</time>
      </trkpt>
      <trkpt lat="39.4771674369" lon="-8.3207832556">
        <ele>31.86</ele>
        <time>2018-12-21T10:27:00Z</time>
      </trkpt>
      <trkpt lat="39.4772613980" lon="-8.3209026139">
        <ele>30.90</ele>
        <time>2018-12-21T10:27:11Z</time>
      </trkpt>
      <trkpt lat="39.4772819337" lon="-8.3209153544">
        <ele>30.90</ele>
        <time>2018-12-21T10:27:13Z</time>
      </trkpt>
      <trkpt lat="39.4774012920" lon="-8.3210415859">
        <ele>30.90</ele>
        <time>2018-12-21T10:27:25Z</time>
      </trkpt>
      <trkpt lat="39.4775260985" lon="-8.3211622853">
        <ele>30.90</ele>
        <time>2018-12-21T10:27:36Z</time>
      </trkpt>
      <trkpt lat="39.4775897171" lon="-8.3212434221">
        <ele>31.38</ele>
        <time>2018-12-21T10:27:43Z</time>
      </trkpt>
      <trkpt lat="39.4776789006" lon="-8.3213811368">
        <ele>29.94</ele>
        <time>2018-12-21T10:27:54Z</time>
      </trkpt>
      <trkpt lat="39.4776861090" lon="-8.3213986550">
        <ele>29.94</ele>
        <time>2018-12-21T10:27:55Z</time>
      </trkpt>
      <trkpt lat="39.4777742028" lon="-8.3215369564">
        <ele>29.94</ele>
        <time>2018-12-21T10:28:05Z</time>
      </trkpt>
      <trkpt lat="39.4778481312" lon="-8.3216655347">
        <ele>29.94</ele>
        <time>2018-12-21T10:28:15Z</time>
      </trkpt>
      <trkpt lat="39.4779141806" lon="-8.3217822947">
        <ele>29.46</ele>
        <time>2018-12-21T10:28:24Z</time>
      </trkpt>
      <trkpt lat="39.4779825769" lon="-8.3218938578">
        <ele>29.46</ele>
        <time>2018-12-21T10:28:32Z</time>
      </trkpt>
      <trkpt lat="39.4780828245" lon="-8.3219909202">
        <ele>29.46</ele>
        <time>2018-12-21T10:28:42Z</time>
      </trkpt>
      <trkpt lat="39.4781656377" lon="-8.3221148048">
        <ele>29.46</ele>
        <time>2018-12-21T10:28:52Z</time>
      </trkpt>
      <trkpt lat="39.4782333635" lon="-8.3222123701">
        <ele>29.46</ele>
        <time>2018-12-21T10:28:59Z</time>
      </trkpt>
      <trkpt lat="39.4783429150" lon="-8.3223464806">
        <ele>29.94</ele>
        <time>2018-12-21T10:29:11Z</time>
      </trkpt>
      <trkpt lat="39.4783628639" lon="-8.3223857079">
        <ele>29.46</ele>
        <time>2018-12-21T10:29:14Z</time>
      </trkpt>
      <trkpt lat="39.4784364570" lon="-8.3225384261">
        <ele>29.94</ele>
        <time>2018-12-21T10:29:25Z</time>
      </trkpt>
      <trkpt lat="39.4784623571" lon="-8.3226956706">
        <ele>28.98</ele>
        <time>2018-12-21T10:29:34Z</time>
      </trkpt>
      <trkpt lat="39.4785020873" lon="-8.3229167014">
        <ele>29.46</ele>
        <time>2018-12-21T10:29:47Z</time>
      </trkpt>
      <trkpt lat="39.4785289932" lon="-8.3231290989">
        <ele>28.98</ele>
        <time>2018-12-21T10:30:00Z</time>
      </trkpt>
      <trkpt lat="39.4785733335" lon="-8.3232751954">
        <ele>29.46</ele>
        <time>2018-12-21T10:30:10Z</time>
      </trkpt>
      <trkpt lat="39.4786123093" lon="-8.3234348707">
        <ele>28.50</ele>
        <time>2018-12-21T10:30:20Z</time>
      </trkpt>
      <trkpt lat="39.4786701445" lon="-8.3236082923">
        <ele>28.98</ele>
        <time>2018-12-21T10:30:31Z</time>
      </trkpt>
      <trkpt lat="39.4787298236" lon="-8.3237779420">
        <ele>29.46</ele>
        <time>2018-12-21T10:30:42Z</time>
      </trkpt>
      <trkpt lat="39.4787812047" lon="-8.3239382040">
        <ele>29.46</ele>
        <time>2018-12-21T10:30:53Z</time>
      </trkpt>
      <trkpt lat="39.4788518641" lon="-8.3240929339">
        <ele>29.46</ele>
        <time>2018-12-21T10:31:04Z</time>
      </trkpt>
      <trkpt lat="39.4789198413" lon="-8.3242490888">
        <ele>28.98</ele>
        <time>2018-12-21T10:31:16Z</time>
      </trkpt>
      <trkpt lat="39.4789998885" lon="-8.3244049083">
        <ele>29.46</ele>
        <time>2018-12-21T10:31:27Z</time>
      </trkpt>
      <trkpt lat="39.4790412951" lon="-8.3244969416">
        <ele>29.94</ele>
        <time>2018-12-21T10:31:35Z</time>
      </trkpt>
      <trkpt lat="39.4790675305" lon="-8.3245468978">
        <ele>29.46</ele>
        <time>2018-12-21T10:31:40Z</time>
      </trkpt>
      <trkpt lat="39.4791453145" lon="-8.3246812597">
        <ele>29.46</ele>
        <time>2018-12-21T10:31:51Z</time>
      </trkpt>
      <trkpt lat="39.4792382699" lon="-8.3248466346">
        <ele>29.94</ele>
        <time>2018-12-21T10:32:04Z</time>
      </trkpt>
      <trkpt lat="39.4792962726" lon="-8.3250006940">
        <ele>29.94</ele>
        <time>2018-12-21T10:32:15Z</time>
      </trkpt>
      <trkpt lat="39.4793810975" lon="-8.3251713496">
        <ele>29.94</ele>
        <time>2018-12-21T10:32:27Z</time>
      </trkpt>
      <trkpt lat="39.4794354960" lon="-8.3253145963">
        <ele>29.94</ele>
        <time>2018-12-21T10:32:38Z</time>
      </trkpt>
      <trkpt lat="39.4795263559" lon="-8.3255264908">
        <ele>29.94</ele>
        <time>2018-12-21T10:32:52Z</time>
      </trkpt>
      <trkpt lat="39.4796048943" lon="-8.3257400617">
        <ele>29.94</ele>
        <time>2018-12-21T10:33:06Z</time>
      </trkpt>
      <trkpt lat="39.4796784036" lon="-8.3259076998">
        <ele>29.94</ele>
        <time>2018-12-21T10:33:17Z</time>
      </trkpt>
      <trkpt lat="39.4797488954" lon="-8.3261277247">
        <ele>29.94</ele>
        <time>2018-12-21T10:33:31Z</time>
      </trkpt>
      <trkpt lat="39.4798338879" lon="-8.3263491746">
        <ele>29.46</ele>
        <time>2018-12-21T10:33:46Z</time>
      </trkpt>
      <trkpt lat="39.4798752107" lon="-8.3265308943">
        <ele>30.42</ele>
        <time>2018-12-21T10:33:58Z</time>
      </trkpt>
      <trkpt lat="39.4799346384" lon="-8.3267043158">
        <ele>29.94</ele>
        <time>2018-12-21T10:34:09Z</time>
      </trkpt>
      <trkpt lat="39.4799849298" lon="-8.3268763963">
        <ele>29.94</ele>
        <time>2018-12-21T10:34:20Z</time>
      </trkpt>
      <trkpt lat="39.4800379034" lon="-8.3270242531">
        <ele>29.94</ele>
        <time>2018-12-21T10:34:30Z</time>
      </trkpt>
      <trkpt lat="39.4801066350" lon="-8.3271841798">
        <ele>30.42</ele>
        <time>2018-12-21T10:34:41Z</time>
      </trkpt>
      <trkpt lat="39.4801514782" lon="-8.3273394965">
        <ele>30.90</ele>
        <time>2018-12-21T10:34:51Z</time>
      </trkpt>
      <trkpt lat="39.4801751152" lon="-8.3275062963">
        <ele>30.42</ele>
        <time>2018-12-21T10:35:01Z</time>
      </trkpt>
      <trkpt lat="39.4802068826" lon="-8.3277006727">
        <ele>29.94</ele>
        <time>2018-12-21T10:35:13Z</time>
      </trkpt>
      <trkpt lat="39.4802140072" lon="-8.3278614376">
        <ele>29.46</ele>
        <time>2018-12-21T10:35:23Z</time>
      </trkpt>
      <trkpt lat="39.4801938068" lon="-8.3280009963">
        <ele>29.94</ele>
        <time>2018-12-21T10:35:32Z</time>
      </trkpt>
      <trkpt lat="39.4801821560" lon="-8.3281403873">
        <ele>30.42</ele>
        <time>2018-12-21T10:35:41Z</time>
      </trkpt>
      <trkpt lat="39.4801925495" lon="-8.3283294830">
        <ele>30.42</ele>
        <time>2018-12-21T10:35:52Z</time>
      </trkpt>
      <trkpt lat="39.4801865146" lon="-8.3284779266">
        <ele>30.42</ele>
        <time>2018-12-21T10:36:01Z</time>
      </trkpt>
      <trkpt lat="39.4801734388" lon="-8.3286354225">
        <ele>29.94</ele>
        <time>2018-12-21T10:36:10Z</time>
      </trkpt>
      <trkpt lat="39.4801821560" lon="-8.3287930861">
        <ele>29.94</ele>
        <time>2018-12-21T10:36:19Z</time>
      </trkpt>
      <trkpt lat="39.4801762048" lon="-8.3289105166">
        <ele>29.94</ele>
        <time>2018-12-21T10:36:27Z</time>
      </trkpt>
      <trkpt lat="39.4801749475" lon="-8.3290500753">
        <ele>30.42</ele>
        <time>2018-12-21T10:36:35Z</time>
      </trkpt>
      <trkpt lat="39.4801997580" lon="-8.3292049728">
        <ele>29.94</ele>
        <time>2018-12-21T10:36:45Z</time>
      </trkpt>
      <trkpt lat="39.4801920466" lon="-8.3293348923">
        <ele>29.94</ele>
        <time>2018-12-21T10:36:53Z</time>
      </trkpt>
      <trkpt lat="39.4801581837" lon="-8.3294887003">
        <ele>29.94</ele>
        <time>2018-12-21T10:37:02Z</time>
      </trkpt>
      <trkpt lat="39.4801328704" lon="-8.3296311926">
        <ele>30.90</ele>
        <time>2018-12-21T10:37:11Z</time>
      </trkpt>
      <trkpt lat="39.4800958224" lon="-8.3298373874">
        <ele>30.42</ele>
        <time>2018-12-21T10:37:23Z</time>
      </trkpt>
      <trkpt lat="39.4800736941" lon="-8.3299885131">
        <ele>31.38</ele>
        <time>2018-12-21T10:37:32Z</time>
      </trkpt>
      <trkpt lat="39.4800560921" lon="-8.3300728351">
        <ele>30.90</ele>
        <time>2018-12-21T10:37:39Z</time>
      </trkpt>
      <trkpt lat="39.4800476264" lon="-8.3301610127">
        <ele>31.38</ele>
        <time>2018-12-21T10:37:43Z</time>
      </trkpt>
      <trkpt lat="39.4800027832" lon="-8.3303135633">
        <ele>30.90</ele>
        <time>2018-12-21T10:37:48Z</time>
      </trkpt>
      <trkpt lat="39.4799922220" lon="-8.3303761762">
        <ele>30.90</ele>
        <time>2018-12-21T10:37:53Z</time>
      </trkpt>
      <trkpt lat="39.4799719378" lon="-8.3303475939">
        <ele>30.90</ele>
        <time>2018-12-21T10:37:59Z</time>
      </trkpt>
      <trkpt lat="39.4799728598" lon="-8.3303524554">
        <ele>31.38</ele>
        <time>2018-12-21T10:38:01Z</time>
      </trkpt>
      <trkpt lat="39.4799205568" lon="-8.3305387013">
        <ele>31.38</ele>
        <time>2018-12-21T10:38:08Z</time>
      </trkpt>
      <trkpt lat="39.4798395038" lon="-8.3307022322">
        <ele>30.90</ele>
        <time>2018-12-21T10:38:13Z</time>
      </trkpt>
      <trkpt lat="39.4797881227" lon="-8.3308189921">
        <ele>31.86</ele>
        <time>2018-12-21T10:38:19Z</time>
      </trkpt>
      <trkpt lat="39.4797855243" lon="-8.3308468200">
        <ele>30.90</ele>
        <time>2018-12-21T10:38:26Z</time>
      </trkpt>
      <trkpt lat="39.4797825906" lon="-8.3309078403">
        <ele>31.86</ele>
        <time>2018-12-21T10:38:32Z</time>
      </trkpt>
      <trkpt lat="39.4797607977" lon="-8.3310645819">
        <ele>31.38</ele>
        <time>2018-12-21T10:38:38Z</time>
      </trkpt>
      <trkpt lat="39.4797536731" lon="-8.3311725408">
        <ele>31.86</ele>
        <time>2018-12-21T10:38:43Z</time>
      </trkpt>
      <trkpt lat="39.4797325507" lon="-8.3311848622">
        <ele>32.34</ele>
        <time>2018-12-21T10:38:51Z</time>
      </trkpt>
      <trkpt lat="39.4797391724" lon="-8.3312468883">
        <ele>32.82</ele>
        <time>2018-12-21T10:38:56Z</time>
      </trkpt>
      <trkpt lat="39.4797492307" lon="-8.3313114289">
        <ele>30.42</ele>
        <time>2018-12-21T10:39:00Z</time>
      </trkpt>
      <trkpt lat="39.4797550142" lon="-8.3313255943">
        <ele>34.26</ele>
        <time>2018-12-21T10:39:01Z</time>
      </trkpt>
      <trkpt lat="39.4797563553" lon="-8.3313389216">
        <ele>32.82</ele>
        <time>2018-12-21T10:39:02Z</time>
      </trkpt>
      <trkpt lat="39.4797439501" lon="-8.3314730320">
        <ele>32.82</ele>
        <time>2018-12-21T10:39:11Z</time>
      </trkpt>
      <trkpt lat="39.4797286112" lon="-8.3315659873">
        <ele>33.30</ele>
        <time>2018-12-21T10:39:16Z</time>
      </trkpt>
      <trkpt lat="39.4796987716" lon="-8.3317307755">
        <ele>32.82</ele>
        <time>2018-12-21T10:39:22Z</time>
      </trkpt>
      <trkpt lat="39.4796880428" lon="-8.3317529876">
        <ele>32.82</ele>
        <time>2018-12-21T10:39:23Z</time>
      </trkpt>
      <trkpt lat="39.4796461333" lon="-8.3319436759">
        <ele>32.82</ele>
        <time>2018-12-21T10:39:30Z</time>
      </trkpt>
      <trkpt lat="39.4796151202" lon="-8.3319798019">
        <ele>31.86</ele>
        <time>2018-12-21T10:39:33Z</time>
      </trkpt>
      <trkpt lat="39.4795992784" lon="-8.3320006728">
        <ele>32.34</ele>
        <time>2018-12-21T10:39:38Z</time>
      </trkpt>
      <trkpt lat="39.4795962609" lon="-8.3320099767">
        <ele>32.82</ele>
        <time>2018-12-21T10:39:43Z</time>
      </trkpt>
      <trkpt lat="39.4795541000" lon="-8.3321946301">
        <ele>32.82</ele>
        <time>2018-12-21T10:39:49Z</time>
      </trkpt>
      <trkpt lat="39.4795329776" lon="-8.3322631102">
        <ele>33.30</ele>
        <time>2018-12-21T10:39:54Z</time>
      </trkpt>
      <trkpt lat="39.4795292057" lon="-8.3322818857">
        <ele>32.82</ele>
        <time>2018-12-21T10:39:58Z</time>
      </trkpt>
      <trkpt lat="39.4795350730" lon="-8.3322825562">
        <ele>32.82</ele>
        <time>2018-12-21T10:40:00Z</time>
      </trkpt>
      <trkpt lat="39.4794882182" lon="-8.3324721549">
        <ele>32.82</ele>
        <time>2018-12-21T10:40:07Z</time>
      </trkpt>
      <trkpt lat="39.4794556126" lon="-8.3326085284">
        <ele>32.82</ele>
        <time>2018-12-21T10:40:13Z</time>
      </trkpt>
      <trkpt lat="39.4794409443" lon="-8.3325776830">
        <ele>33.30</ele>
        <time>2018-12-21T10:40:19Z</time>
      </trkpt>
      <trkpt lat="39.4794422016" lon="-8.3325640205">
        <ele>33.78</ele>
        <time>2018-12-21T10:40:20Z</time>
      </trkpt>
      <trkpt lat="39.4794148766" lon="-8.3325552195">
        <ele>33.78</ele>
        <time>2018-12-21T10:40:23Z</time>
      </trkpt>
      <trkpt lat="39.4793636631" lon="-8.3327274676">
        <ele>33.30</ele>
        <time>2018-12-21T10:40:30Z</time>
      </trkpt>
      <trkpt lat="39.4793433789" lon="-8.3327701315">
        <ele>33.78</ele>
        <time>2018-12-21T10:40:31Z</time>
      </trkpt>
      <trkpt lat="39.4793052413" lon="-8.3329609036">
        <ele>33.30</ele>
        <time>2018-12-21T10:40:39Z</time>
      </trkpt>
      <trkpt lat="39.4793001283" lon="-8.3329624962">
        <ele>33.30</ele>
        <time>2018-12-21T10:40:44Z</time>
      </trkpt>
      <trkpt lat="39.4793235138" lon="-8.3329563774">
        <ele>32.82</ele>
        <time>2018-12-21T10:40:50Z</time>
      </trkpt>
      <trkpt lat="39.4792979490" lon="-8.3330172300">
        <ele>33.30</ele>
        <time>2018-12-21T10:40:53Z</time>
      </trkpt>
      <trkpt lat="39.4792357553" lon="-8.3331705350">
        <ele>32.82</ele>
        <time>2018-12-21T10:40:58Z</time>
      </trkpt>
      <trkpt lat="39.4791923370" lon="-8.3333173860">
        <ele>33.30</ele>
        <time>2018-12-21T10:41:03Z</time>
      </trkpt>
      <trkpt lat="39.4791890681" lon="-8.3333550207">
        <ele>33.30</ele>
        <time>2018-12-21T10:41:08Z</time>
      </trkpt>
      <trkpt lat="39.4791929238" lon="-8.3333234210">
        <ele>32.82</ele>
        <time>2018-12-21T10:41:13Z</time>
      </trkpt>
      <trkpt lat="39.4791122898" lon="-8.3334965911">
        <ele>33.30</ele>
        <time>2018-12-21T10:41:20Z</time>
      </trkpt>
      <trkpt lat="39.4790550414" lon="-8.3335944079">
        <ele>33.30</ele>
        <time>2018-12-21T10:41:27Z</time>
      </trkpt>
      <trkpt lat="39.4790534489" lon="-8.3335940726">
        <ele>33.78</ele>
        <time>2018-12-21T10:41:33Z</time>
      </trkpt>
      <trkpt lat="39.4789900817" lon="-8.3337410912">
        <ele>33.30</ele>
        <time>2018-12-21T10:41:39Z</time>
      </trkpt>
      <trkpt lat="39.4789510220" lon="-8.3338251617">
        <ele>33.78</ele>
        <time>2018-12-21T10:41:44Z</time>
      </trkpt>
      <trkpt lat="39.4789424725" lon="-8.3338532411">
        <ele>34.74</ele>
        <time>2018-12-21T10:41:51Z</time>
      </trkpt>
      <trkpt lat="39.4788790215" lon="-8.3340047859">
        <ele>34.74</ele>
        <time>2018-12-21T10:41:57Z</time>
      </trkpt>
      <trkpt lat="39.4788413867" lon="-8.3340438455">
        <ele>35.23</ele>
        <time>2018-12-21T10:42:03Z</time>
      </trkpt>
      <trkpt lat="39.4788474217" lon="-8.3340423368">
        <ele>34.74</ele>
        <time>2018-12-21T10:42:07Z</time>
      </trkpt>
      <trkpt lat="39.4787393790" lon="-8.3342010900">
        <ele>35.23</ele>
        <time>2018-12-21T10:42:14Z</time>
      </trkpt>
      <trkpt lat="39.4787265547" lon="-8.3342356235">
        <ele>34.74</ele>
        <time>2018-12-21T10:42:18Z</time>
      </trkpt>
      <trkpt lat="39.4787296560" lon="-8.3342683967">
        <ele>35.23</ele>
        <time>2018-12-21T10:42:25Z</time>
      </trkpt>
      <trkpt lat="39.4786084536" lon="-8.3343907725">
        <ele>34.74</ele>
        <time>2018-12-21T10:42:32Z</time>
      </trkpt>
      <trkpt lat="39.4785047695" lon="-8.3344856557">
        <ele>34.74</ele>
        <time>2018-12-21T10:42:38Z</time>
      </trkpt>
      <trkpt lat="39.4785057753" lon="-8.3344993182">
        <ele>34.74</ele>
        <time>2018-12-21T10:42:44Z</time>
      </trkpt>
      <trkpt lat="39.4784597587" lon="-8.3345020842">
        <ele>33.78</ele>
        <time>2018-12-21T10:42:49Z</time>
      </trkpt>
      <trkpt lat="39.4783409033" lon="-8.3345507830">
        <ele>33.30</ele>
        <time>2018-12-21T10:42:54Z</time>
      </trkpt>
      <trkpt lat="39.4782643765" lon="-8.3345787786">
        <ele>33.30</ele>
        <time>2018-12-21T10:42:58Z</time>
      </trkpt>
      <trkpt lat="39.4782504626" lon="-8.3346133959">
        <ele>31.86</ele>
        <time>2018-12-21T10:43:05Z</time>
      </trkpt>
      <trkpt lat="39.4782445952" lon="-8.3346171677">
        <ele>32.34</ele>
        <time>2018-12-21T10:43:08Z</time>
      </trkpt>
      <trkpt lat="39.4780733529" lon="-8.3346686326">
        <ele>32.34</ele>
        <time>2018-12-21T10:43:16Z</time>
      </trkpt>
      <trkpt lat="39.4780284259" lon="-8.3346622624">
        <ele>31.86</ele>
        <time>2018-12-21T10:43:21Z</time>
      </trkpt>
      <trkpt lat="39.4780229777" lon="-8.3346616756">
        <ele>31.86</ele>
        <time>2018-12-21T10:43:24Z</time>
      </trkpt>
      <trkpt lat="39.4779420923" lon="-8.3347123023">
        <ele>31.86</ele>
        <time>2018-12-21T10:43:31Z</time>
      </trkpt>
      <trkpt lat="39.4778113347" lon="-8.3347845543">
        <ele>30.90</ele>
        <time>2018-12-21T10:43:37Z</time>
      </trkpt>
      <trkpt lat="39.4777862728" lon="-8.3347880747">
        <ele>31.86</ele>
        <time>2018-12-21T10:43:43Z</time>
      </trkpt>
      <trkpt lat="39.4777949899" lon="-8.3347923495">
        <ele>31.86</ele>
        <time>2018-12-21T10:43:46Z</time>
      </trkpt>
      <trkpt lat="39.4776308723" lon="-8.3349107020">
        <ele>31.86</ele>
        <time>2018-12-21T10:43:54Z</time>
      </trkpt>
      <trkpt lat="39.4775675051" lon="-8.3349879831">
        <ele>30.90</ele>
        <time>2018-12-21T10:44:00Z</time>
      </trkpt>
      <trkpt lat="39.4775804132" lon="-8.3349797688">
        <ele>31.86</ele>
        <time>2018-12-21T10:44:03Z</time>
      </trkpt>
      <trkpt lat="39.4775782339" lon="-8.3349646814">
        <ele>31.38</ele>
        <time>2018-12-21T10:44:07Z</time>
      </trkpt>
      <trkpt lat="39.4775178004" lon="-8.3350215107">
        <ele>31.86</ele>
        <time>2018-12-21T10:44:11Z</time>
      </trkpt>
      <trkpt lat="39.4774250127" lon="-8.3351666853">
        <ele>31.86</ele>
        <time>2018-12-21T10:44:18Z</time>
      </trkpt>
      <trkpt lat="39.4773887191" lon="-8.3352180663">
        <ele>32.34</ele>
        <time>2018-12-21T10:44:25Z</time>
      </trkpt>
      <trkpt lat="39.4772371743" lon="-8.3353675995">
        <ele>33.30</ele>
        <time>2018-12-21T10:44:33Z</time>
      </trkpt>
      <trkpt lat="39.4771936722" lon="-8.3353900630">
        <ele>33.30</ele>
        <time>2018-12-21T10:44:39Z</time>
      </trkpt>
      <trkpt lat="39.4771621563" lon="-8.3353929967">
        <ele>34.26</ele>
        <time>2018-12-21T10:44:45Z</time>
      </trkpt>
      <trkpt lat="39.4770444743" lon="-8.3354801685">
        <ele>33.30</ele>
        <time>2018-12-21T10:44:51Z</time>
      </trkpt>
      <trkpt lat="39.4769536983" lon="-8.3355460502">
        <ele>33.78</ele>
        <time>2018-12-21T10:44:57Z</time>
      </trkpt>
      <trkpt lat="39.4769418798" lon="-8.3355723694">
        <ele>32.34</ele>
        <time>2018-12-21T10:45:01Z</time>
      </trkpt>
      <trkpt lat="39.4769422151" lon="-8.3355725370">
        <ele>31.86</ele>
        <time>2018-12-21T10:45:06Z</time>
      </trkpt>
      <trkpt lat="39.4768686220" lon="-8.3356075734">
        <ele>31.38</ele>
        <time>2018-12-21T10:45:12Z</time>
      </trkpt>
      <trkpt lat="39.4767725654" lon="-8.3356841840">
        <ele>30.90</ele>
        <time>2018-12-21T10:45:17Z</time>
      </trkpt>
      <trkpt lat="39.4767071027" lon="-8.3357100841">
        <ele>30.42</ele>
        <time>2018-12-21T10:45:23Z</time>
      </trkpt>
      <trkpt lat="39.4766852260" lon="-8.3356918953">
        <ele>29.46</ele>
        <time>2018-12-21T10:45:29Z</time>
      </trkpt>
      <trkpt lat="39.4765791949" lon="-8.3357761335">
        <ele>28.98</ele>
        <time>2018-12-21T10:45:35Z</time>
      </trkpt>
      <trkpt lat="39.4765252154" lon="-8.3357894607">
        <ele>29.46</ele>
        <time>2018-12-21T10:45:42Z</time>
      </trkpt>
      <trkpt lat="39.4764954597" lon="-8.3358157799">
        <ele>29.46</ele>
        <time>2018-12-21T10:45:47Z</time>
      </trkpt>
      <trkpt lat="39.4763694797" lon="-8.3358460385">
        <ele>29.46</ele>
        <time>2018-12-21T10:45:52Z</time>
      </trkpt>
      <trkpt lat="39.4762868341" lon="-8.3358294424">
        <ele>29.46</ele>
        <time>2018-12-21T10:45:58Z</time>
      </trkpt>
      <trkpt lat="39.4762891810" lon="-8.3358282689">
        <ele>28.98</ele>
        <time>2018-12-21T10:46:02Z</time>
      </trkpt>
      <trkpt lat="39.4762730878" lon="-8.3357875329">
        <ele>29.46</ele>
        <time>2018-12-21T10:46:08Z</time>
      </trkpt>
      <trkpt lat="39.4762867503" lon="-8.3358115889">
        <ele>29.94</ele>
        <time>2018-12-21T10:46:15Z</time>
      </trkpt>
      <trkpt lat="39.4762839004" lon="-8.3358078171">
        <ele>29.46</ele>
        <time>2018-12-21T10:46:23Z</time>
      </trkpt>
      <trkpt lat="39.4762935396" lon="-8.3358296100">
        <ele>29.46</ele>
        <time>2018-12-21T10:46:32Z</time>
      </trkpt>
      <trkpt lat="39.4763019215" lon="-8.3358263411">
        <ele>29.94</ele>
        <time>2018-12-21T10:46:45Z</time>
      </trkpt>
      <trkpt lat="39.4762944616" lon="-8.3358340524">
        <ele>29.94</ele>
        <time>2018-12-21T10:46:54Z</time>
      </trkpt>
      <trkpt lat="39.4763006642" lon="-8.3358389977">
        <ele>29.94</ele>
        <time>2018-12-21T10:47:09Z</time>
      </trkpt>
      <trkpt lat="39.4763263967" lon="-8.3358778059">
        <ele>29.94</ele>
        <time>2018-12-21T10:47:16Z</time>
      </trkpt>
      <trkpt lat="39.4763264805" lon="-8.3358864393">
        <ele>29.94</ele>
        <time>2018-12-21T10:47:19Z</time>
      </trkpt>
      <trkpt lat="39.4763092138" lon="-8.3359579369">
        <ele>29.46</ele>
        <time>2018-12-21T10:47:24Z</time>
      </trkpt>
      <trkpt lat="39.4762881752" lon="-8.3359624632">
        <ele>29.94</ele>
        <time>2018-12-21T10:47:28Z</time>
      </trkpt>
      <trkpt lat="39.4762329385" lon="-8.3360079769">
        <ele>30.42</ele>
        <time>2018-12-21T10:47:34Z</time>
      </trkpt>
      <trkpt lat="39.4762390573" lon="-8.3360122517">
        <ele>29.46</ele>
        <time>2018-12-21T10:47:36Z</time>
      </trkpt>
      <trkpt lat="39.4761498738" lon="-8.3361042012">
        <ele>29.94</ele>
        <time>2018-12-21T10:47:43Z</time>
      </trkpt>
      <trkpt lat="39.4761196990" lon="-8.3361145947">
        <ele>29.94</ele>
        <time>2018-12-21T10:47:49Z</time>
      </trkpt>
      <trkpt lat="39.4761198666" lon="-8.3361164387">
        <ele>29.94</ele>
        <time>2018-12-21T10:47:50Z</time>
      </trkpt>
      <trkpt lat="39.4760932960" lon="-8.3362107351">
        <ele>30.90</ele>
        <time>2018-12-21T10:47:54Z</time>
      </trkpt>
      <trkpt lat="39.4760719221" lon="-8.3362732641">
        <ele>30.90</ele>
        <time>2018-12-21T10:48:01Z</time>
      </trkpt>
      <trkpt lat="39.4760250673" lon="-8.3363638725">
        <ele>31.38</ele>
        <time>2018-12-21T10:48:06Z</time>
      </trkpt>
      <trkpt lat="39.4759837445" lon="-8.3364393935">
        <ele>31.38</ele>
        <time>2018-12-21T10:48:12Z</time>
      </trkpt>
      <trkpt lat="39.4759632088" lon="-8.3364782855">
        <ele>31.38</ele>
        <time>2018-12-21T10:48:18Z</time>
      </trkpt>
      <trkpt lat="39.4758653920" lon="-8.3366017509">
        <ele>31.38</ele>
        <time>2018-12-21T10:48:24Z</time>
      </trkpt>
      <trkpt lat="39.4758772105" lon="-8.3365991525">
        <ele>31.86</ele>
        <time>2018-12-21T10:48:30Z</time>
      </trkpt>
      <trkpt lat="39.4758151006" lon="-8.3367145713">
        <ele>31.38</ele>
        <time>2018-12-21T10:48:35Z</time>
      </trkpt>
      <trkpt lat="39.4757605344" lon="-8.3368133940">
        <ele>31.86</ele>
        <time>2018-12-21T10:48:41Z</time>
      </trkpt>
      <trkpt lat="39.4757465366" lon="-8.3368000668">
        <ele>31.38</ele>
        <time>2018-12-21T10:48:47Z</time>
      </trkpt>
      <trkpt lat="39.4756774697" lon="-8.3368924353">
        <ele>31.86</ele>
        <time>2018-12-21T10:48:52Z</time>
      </trkpt>
      <trkpt lat="39.4756603707" lon="-8.3369107079">
        <ele>31.38</ele>
        <time>2018-12-21T10:48:57Z</time>
      </trkpt>
      <trkpt lat="39.4756669924" lon="-8.3369027451">
        <ele>31.86</ele>
        <time>2018-12-21T10:49:01Z</time>
      </trkpt>
      <trkpt lat="39.4756546710" lon="-8.3368996438">
        <ele>32.34</ele>
        <time>2018-12-21T10:49:03Z</time>
      </trkpt>
      <trkpt lat="39.4756590296" lon="-8.3368816227">
        <ele>31.86</ele>
        <time>2018-12-21T10:49:06Z</time>
      </trkpt>
      <trkpt lat="39.4756047148" lon="-8.3368770126">
        <ele>32.34</ele>
        <time>2018-12-21T10:49:11Z</time>
      </trkpt>
      <trkpt lat="39.4754799921" lon="-8.3369361889">
        <ele>32.82</ele>
        <time>2018-12-21T10:49:16Z</time>
      </trkpt>
      <trkpt lat="39.4753773976" lon="-8.3369999751">
        <ele>31.86</ele>
        <time>2018-12-21T10:49:22Z</time>
      </trkpt>
      <trkpt lat="39.4753753860" lon="-8.3370076865">
        <ele>31.86</ele>
        <time>2018-12-21T10:49:23Z</time>
      </trkpt>
      <trkpt lat="39.4753585383" lon="-8.3370138053">
        <ele>32.82</ele>
        <time>2018-12-21T10:49:30Z</time>
      </trkpt>
      <trkpt lat="39.4753690995" lon="-8.3370019868">
        <ele>32.34</ele>
        <time>2018-12-21T10:49:39Z</time>
      </trkpt>
      <trkpt lat="39.4753691833" lon="-8.3370039985">
        <ele>32.34</ele>
        <time>2018-12-21T10:49:46Z</time>
      </trkpt>
      <trkpt lat="39.4753613044" lon="-8.3370222710">
        <ele>32.34</ele>
        <time>2018-12-21T10:49:54Z</time>
      </trkpt>
      <trkpt lat="39.4753470551" lon="-8.3370537870">
        <ele>31.38</ele>
        <time>2018-12-21T10:49:59Z</time>
      </trkpt>
      <trkpt lat="39.4753395952" lon="-8.3370649349">
        <ele>31.86</ele>
        <time>2018-12-21T10:50:04Z</time>
      </trkpt>
      <trkpt lat="39.4753380865" lon="-8.3370625880">
        <ele>31.86</ele>
        <time>2018-12-21T10:50:05Z</time>
      </trkpt>
      <trkpt lat="39.4752207398" lon="-8.3371441439">
        <ele>31.38</ele>
        <time>2018-12-21T10:50:12Z</time>
      </trkpt>
      <trkpt lat="39.4751233421" lon="-8.3372049127">
        <ele>30.90</ele>
        <time>2018-12-21T10:50:18Z</time>
      </trkpt>
      <trkpt lat="39.4751225878" lon="-8.3372060023">
        <ele>30.90</ele>
        <time>2018-12-21T10:50:24Z</time>
      </trkpt>
      <trkpt lat="39.4750379305" lon="-8.3373303898">
        <ele>31.86</ele>
        <time>2018-12-21T10:50:31Z</time>
      </trkpt>
      <trkpt lat="39.4750121143" lon="-8.3373688627">
        <ele>31.86</ele>
        <time>2018-12-21T10:50:34Z</time>
      </trkpt>
      <trkpt lat="39.4749883935" lon="-8.3374194056">
        <ele>30.90</ele>
        <time>2018-12-21T10:50:40Z</time>
      </trkpt>
      <trkpt lat="39.4749583863" lon="-8.3374413662">
        <ele>31.38</ele>
        <time>2018-12-21T10:50:46Z</time>
      </trkpt>
      <trkpt lat="39.4749055803" lon="-8.3375449665">
        <ele>31.86</ele>
        <time>2018-12-21T10:50:52Z</time>
      </trkpt>
      <trkpt lat="39.4749067537" lon="-8.3375440445">
        <ele>31.86</ele>
        <time>2018-12-21T10:50:58Z</time>
      </trkpt>
      <trkpt lat="39.4748767465" lon="-8.3375878818">
        <ele>31.38</ele>
        <time>2018-12-21T10:51:07Z</time>
      </trkpt>
      <trkpt lat="39.4748596475" lon="-8.3376214094">
        <ele>31.38</ele>
        <time>2018-12-21T10:51:10Z</time>
      </trkpt>
      <trkpt lat="39.4748541992" lon="-8.3376358263">
        <ele>31.86</ele>
        <time>2018-12-21T10:51:14Z</time>
      </trkpt>
      <trkpt lat="39.4748401176" lon="-8.3377938252">
        <ele>32.34</ele>
        <time>2018-12-21T10:51:20Z</time>
      </trkpt>
      <trkpt lat="39.4748347532" lon="-8.3378487267">
        <ele>31.38</ele>
        <time>2018-12-21T10:51:26Z</time>
      </trkpt>
      <trkpt lat="39.4748263713" lon="-8.3378679212">
        <ele>31.86</ele>
        <time>2018-12-21T10:51:29Z</time>
      </trkpt>
      <trkpt lat="39.4747608248" lon="-8.3380441088">
        <ele>31.38</ele>
        <time>2018-12-21T10:51:36Z</time>
      </trkpt>
      <trkpt lat="39.4747508503" lon="-8.3380850963">
        <ele>31.86</ele>
        <time>2018-12-21T10:51:41Z</time>
      </trkpt>
      <trkpt lat="39.4747480843" lon="-8.3380899578">
        <ele>31.38</ele>
        <time>2018-12-21T10:51:43Z</time>
      </trkpt>
      <trkpt lat="39.4747126289" lon="-8.3382025268">
        <ele>32.34</ele>
        <time>2018-12-21T10:51:50Z</time>
      </trkpt>
      <trkpt lat="39.4747221842" lon="-8.3382410835">
        <ele>31.86</ele>
        <time>2018-12-21T10:51:57Z</time>
      </trkpt>
      <trkpt lat="39.4746973738" lon="-8.3382583503">
        <ele>32.34</ele>
        <time>2018-12-21T10:52:06Z</time>
      </trkpt>
      <trkpt lat="39.4746728987" lon="-8.3382650558">
        <ele>32.34</ele>
        <time>2018-12-21T10:52:12Z</time>
      </trkpt>
      <trkpt lat="39.4746770058" lon="-8.3382827416">
        <ele>32.82</ele>
        <time>2018-12-21T10:52:17Z</time>
      </trkpt>
      <trkpt lat="39.4746898301" lon="-8.3382786345">
        <ele>31.86</ele>
        <time>2018-12-21T10:52:25Z</time>
      </trkpt>
      <trkpt lat="39.4746837113" lon="-8.3382967394">
        <ele>32.34</ele>
        <time>2018-12-21T10:52:27Z</time>
      </trkpt>
      <trkpt lat="39.4746534526" lon="-8.3383905329">
        <ele>33.30</ele>
        <time>2018-12-21T10:52:34Z</time>
      </trkpt>
      <trkpt lat="39.4746069331" lon="-8.3384904452">
        <ele>32.82</ele>
        <time>2018-12-21T10:52:39Z</time>
      </trkpt>
      <trkpt lat="39.4746052567" lon="-8.3385596797">
        <ele>33.30</ele>
        <time>2018-12-21T10:52:45Z</time>
      </trkpt>
      <trkpt lat="39.4746069331" lon="-8.3385696542">
        <ele>32.82</ele>
        <time>2018-12-21T10:52:46Z</time>
      </trkpt>
      <trkpt lat="39.4746712223" lon="-8.3386756014">
        <ele>34.26</ele>
        <time>2018-12-21T10:52:53Z</time>
      </trkpt>
      <trkpt lat="39.4746801071" lon="-8.3386733383">
        <ele>33.78</ele>
        <time>2018-12-21T10:52:56Z</time>
      </trkpt>
      <trkpt lat="39.4747429714" lon="-8.3387704007">
        <ele>34.74</ele>
        <time>2018-12-21T10:53:01Z</time>
      </trkpt>
      <trkpt lat="39.4747838750" lon="-8.3388343547">
        <ele>35.71</ele>
        <time>2018-12-21T10:53:07Z</time>
      </trkpt>
      <trkpt lat="39.4747920893" lon="-8.3388420660">
        <ele>35.71</ele>
        <time>2018-12-21T10:53:11Z</time>
      </trkpt>
      <trkpt lat="39.4748022314" lon="-8.3388391323">
        <ele>36.67</ele>
        <time>2018-12-21T10:53:17Z</time>
      </trkpt>
      <trkpt lat="39.4748012256" lon="-8.3388194349">
        <ele>36.19</ele>
        <time>2018-12-21T10:53:23Z</time>
      </trkpt>
      <trkpt lat="39.4747930113" lon="-8.3388315048">
        <ele>35.71</ele>
        <time>2018-12-21T10:53:30Z</time>
      </trkpt>
      <trkpt lat="39.4747916702" lon="-8.3388510346">
        <ele>35.71</ele>
        <time>2018-12-21T10:53:34Z</time>
      </trkpt>
      <trkpt lat="39.4747971185" lon="-8.3388591651">
        <ele>35.71</ele>
        <time>2018-12-21T10:53:36Z</time>
      </trkpt>
      <trkpt lat="39.4747935981" lon="-8.3388739172">
        <ele>36.19</ele>
        <time>2018-12-21T10:53:41Z</time>
      </trkpt>
      <trkpt lat="39.4747941848" lon="-8.3388714865">
        <ele>35.71</ele>
        <time>2018-12-21T10:53:47Z</time>
      </trkpt>
      <trkpt lat="39.4748131279" lon="-8.3388891723">
        <ele>35.71</ele>
        <time>2018-12-21T10:53:55Z</time>
      </trkpt>
      <trkpt lat="39.4748184923" lon="-8.3389161620">
        <ele>35.71</ele>
        <time>2018-12-21T10:54:04Z</time>
      </trkpt>
      <trkpt lat="39.4748303108" lon="-8.3389040921">
        <ele>36.19</ele>
        <time>2018-12-21T10:54:08Z</time>
      </trkpt>
      <trkpt lat="39.4748284668" lon="-8.3389927726">
        <ele>36.19</ele>
        <time>2018-12-21T10:54:14Z</time>
      </trkpt>
      <trkpt lat="39.4748279639" lon="-8.3389843069">
        <ele>36.19</ele>
        <time>2018-12-21T10:54:20Z</time>
      </trkpt>
      <trkpt lat="39.4748175703" lon="-8.3390960377">
        <ele>35.71</ele>
        <time>2018-12-21T10:54:24Z</time>
      </trkpt>
      <trkpt lat="39.4748127926" lon="-8.3392138034">
        <ele>36.67</ele>
        <time>2018-12-21T10:54:30Z</time>
      </trkpt>
      <trkpt lat="39.4748100266" lon="-8.3392196707">
        <ele>35.71</ele>
        <time>2018-12-21T10:54:34Z</time>
      </trkpt>
      <trkpt lat="39.4748059195" lon="-8.3392269630">
        <ele>35.71</ele>
        <time>2018-12-21T10:54:35Z</time>
      </trkpt>
      <trkpt lat="39.4747526944" lon="-8.3393665217">
        <ele>35.71</ele>
        <time>2018-12-21T10:54:41Z</time>
      </trkpt>
      <trkpt lat="39.4747443963" lon="-8.3393609896">
        <ele>35.23</ele>
        <time>2018-12-21T10:54:46Z</time>
      </trkpt>
      <trkpt lat="39.4746816158" lon="-8.3394905739">
        <ele>35.23</ele>
        <time>2018-12-21T10:54:51Z</time>
      </trkpt>
      <trkpt lat="39.4746641815" lon="-8.3395360038">
        <ele>35.23</ele>
        <time>2018-12-21T10:54:56Z</time>
      </trkpt>
      <trkpt lat="39.4746618345" lon="-8.3395209163">
        <ele>35.71</ele>
        <time>2018-12-21T10:54:59Z</time>
      </trkpt>
      <trkpt lat="39.4746153150" lon="-8.3396592177">
        <ele>35.71</ele>
        <time>2018-12-21T10:55:05Z</time>
      </trkpt>
      <trkpt lat="39.4746163208" lon="-8.3396878839">
        <ele>35.71</ele>
        <time>2018-12-21T10:55:10Z</time>
      </trkpt>
      <trkpt lat="39.4746046700" lon="-8.3397992793">
        <ele>35.71</ele>
        <time>2018-12-21T10:55:15Z</time>
      </trkpt>
      <trkpt lat="39.4746137224" lon="-8.3398781531">
        <ele>36.19</ele>
        <time>2018-12-21T10:55:20Z</time>
      </trkpt>
      <trkpt lat="39.4746050891" lon="-8.3399450406">
        <ele>36.19</ele>
        <time>2018-12-21T10:55:25Z</time>
      </trkpt>
      <trkpt lat="39.4745888282" lon="-8.3399803285">
        <ele>35.71</ele>
        <time>2018-12-21T10:55:31Z</time>
      </trkpt>
      <trkpt lat="39.4745629281" lon="-8.3399965893">
        <ele>35.23</ele>
        <time>2018-12-21T10:55:37Z</time>
      </trkpt>
      <trkpt lat="39.4745651912" lon="-8.3399965893">
        <ele>35.23</ele>
        <time>2018-12-21T10:55:38Z</time>
      </trkpt>
      <trkpt lat="39.4745684601" lon="-8.3400151134">
        <ele>35.71</ele>
        <time>2018-12-21T10:55:50Z</time>
      </trkpt>
      <trkpt lat="39.4745504390" lon="-8.3400423545">
        <ele>35.23</ele>
        <time>2018-12-21T10:56:04Z</time>
      </trkpt>
      <trkpt lat="39.4745288137" lon="-8.3400887903">
        <ele>35.23</ele>
        <time>2018-12-21T10:56:16Z</time>
      </trkpt>
      <trkpt lat="39.4745578989" lon="-8.3400595374">
        <ele>36.19</ele>
        <time>2018-12-21T10:56:23Z</time>
      </trkpt>
      <trkpt lat="39.4745920133" lon="-8.3400336374">
        <ele>36.19</ele>
        <time>2018-12-21T10:56:27Z</time>
      </trkpt>
      <trkpt lat="39.4746163208" lon="-8.3400326315">
        <ele>35.71</ele>
        <time>2018-12-21T10:56:30Z</time>
      </trkpt>
      <trkpt lat="39.4746682886" lon="-8.3400250878">
        <ele>35.71</ele>
        <time>2018-12-21T10:56:35Z</time>
      </trkpt>
      <trkpt lat="39.4747109525" lon="-8.3400316257">
        <ele>36.19</ele>
        <time>2018-12-21T10:56:42Z</time>
      </trkpt>
      <trkpt lat="39.4747164007" lon="-8.3400430251">
        <ele>37.15</ele>
        <time>2018-12-21T10:56:48Z</time>
      </trkpt>
      <trkpt lat="39.4747094437" lon="-8.3400491439">
        <ele>33.78</ele>
        <time>2018-12-21T10:56:52Z</time>
      </trkpt>
      <trkpt lat="39.4747235253" lon="-8.3400404267">
        <ele>21.77</ele>
        <time>2018-12-21T11:00:01Z</time>
      </trkpt>
      <trkpt lat="39.4746619184" lon="-8.3401643950">
        <ele>21.77</ele>
        <time>2018-12-21T11:00:02Z</time>
      </trkpt>
      <trkpt lat="39.4746691268" lon="-8.3401634730">
        <ele>23.21</ele>
        <time>2018-12-21T11:00:09Z</time>
      </trkpt>
      <trkpt lat="39.4746735692" lon="-8.3401684184">
        <ele>24.17</ele>
        <time>2018-12-21T11:00:10Z</time>
      </trkpt>
      <trkpt lat="39.4747180771" lon="-8.3401318733">
        <ele>26.09</ele>
        <time>2018-12-21T11:00:16Z</time>
      </trkpt>
      <trkpt lat="39.4747260399" lon="-8.3401209768">
        <ele>27.53</ele>
        <time>2018-12-21T11:00:22Z</time>
      </trkpt>
      <trkpt lat="39.4747346733" lon="-8.3401152771">
        <ele>29.94</ele>
        <time>2018-12-21T11:00:32Z</time>
      </trkpt>
      <trkpt lat="39.4747124612" lon="-8.3400955796">
        <ele>30.42</ele>
        <time>2018-12-21T11:00:36Z</time>
      </trkpt>
      <trkpt lat="39.4746792689" lon="-8.3400802407">
        <ele>31.38</ele>
        <time>2018-12-21T11:00:42Z</time>
      </trkpt>
      <trkpt lat="39.4746304862" lon="-8.3400370739">
        <ele>31.86</ele>
        <time>2018-12-21T11:00:48Z</time>
      </trkpt>
      <trkpt lat="39.4745689631" lon="-8.3400218189">
        <ele>31.86</ele>
        <time>2018-12-21T11:00:54Z</time>
      </trkpt>
      <trkpt lat="39.4745507743" lon="-8.3400250040">
        <ele>32.34</ele>
        <time>2018-12-21T11:00:59Z</time>
      </trkpt>
      <trkpt lat="39.4744982198" lon="-8.3401080687">
        <ele>31.38</ele>
        <time>2018-12-21T11:01:04Z</time>
      </trkpt>
      <trkpt lat="39.4744755886" lon="-8.3402065560">
        <ele>32.34</ele>
        <time>2018-12-21T11:01:11Z</time>
      </trkpt>
      <trkpt lat="39.4744805340" lon="-8.3402194642">
        <ele>32.34</ele>
        <time>2018-12-21T11:01:13Z</time>
      </trkpt>
      <trkpt lat="39.4745461643" lon="-8.3402834181">
        <ele>34.26</ele>
        <time>2018-12-21T11:01:19Z</time>
      </trkpt>
      <trkpt lat="39.4745683763" lon="-8.3403104916">
        <ele>33.78</ele>
        <time>2018-12-21T11:01:24Z</time>
      </trkpt>
      <trkpt lat="39.4745461643" lon="-8.3402834181">
        <ele>23.21</ele>
        <time>2018-12-21T11:54:23Z</time>
      </trkpt>
      <trkpt lat="39.4747145567" lon="-8.3400283568">
        <ele>23.21</ele>
        <time>2018-12-21T11:54:24Z</time>
      </trkpt>
      <trkpt lat="39.4746630918" lon="-8.3400379959">
        <ele>22.73</ele>
        <time>2018-12-21T11:54:34Z</time>
      </trkpt>
      <trkpt lat="39.4747018162" lon="-8.3400486410">
        <ele>23.21</ele>
        <time>2018-12-21T11:54:40Z</time>
      </trkpt>
      <trkpt lat="39.4747295603" lon="-8.3400771394">
        <ele>23.21</ele>
        <time>2018-12-21T11:54:44Z</time>
      </trkpt>
      <trkpt lat="39.4747625850" lon="-8.3401106670">
        <ele>25.13</ele>
        <time>2018-12-21T11:54:48Z</time>
      </trkpt>
      <trkpt lat="39.4748162292" lon="-8.3401712682">
        <ele>27.05</ele>
        <time>2018-12-21T11:54:53Z</time>
      </trkpt>
      <trkpt lat="39.4748600665" lon="-8.3402046282">
        <ele>30.42</ele>
        <time>2018-12-21T11:54:59Z</time>
      </trkpt>
      <trkpt lat="39.4748672750" lon="-8.3401925582">
        <ele>31.38</ele>
        <time>2018-12-21T11:55:05Z</time>
      </trkpt>
      <trkpt lat="39.4748828653" lon="-8.3402147703">
        <ele>32.34</ele>
        <time>2018-12-21T11:55:11Z</time>
      </trkpt>
      <trkpt lat="39.4749077596" lon="-8.3402249124">
        <ele>32.82</ele>
        <time>2018-12-21T11:55:17Z</time>
      </trkpt>
      <trkpt lat="39.4749315642" lon="-8.3402287681">
        <ele>33.30</ele>
        <time>2018-12-21T11:55:22Z</time>
      </trkpt>
      <trkpt lat="39.4750126172" lon="-8.3403016068">
        <ele>32.82</ele>
        <time>2018-12-21T11:55:28Z</time>
      </trkpt>
      <trkpt lat="39.4750683568" lon="-8.3403440192">
        <ele>33.30</ele>
        <time>2018-12-21T11:55:33Z</time>
      </trkpt>
      <trkpt lat="39.4751032256" lon="-8.3403679077">
        <ele>32.82</ele>
        <time>2018-12-21T11:55:38Z</time>
      </trkpt>
      <trkpt lat="39.4751510862" lon="-8.3403989207">
        <ele>32.82</ele>
        <time>2018-12-21T11:55:44Z</time>
      </trkpt>
      <trkpt lat="39.4751895592" lon="-8.3404166065">
        <ele>32.82</ele>
        <time>2018-12-21T11:55:50Z</time>
      </trkpt>
      <trkpt lat="39.4752255175" lon="-8.3404489607">
        <ele>33.78</ele>
        <time>2018-12-21T11:55:56Z</time>
      </trkpt>
      <trkpt lat="39.4752896391" lon="-8.3404806443">
        <ele>33.30</ele>
        <time>2018-12-21T11:56:02Z</time>
      </trkpt>
      <trkpt lat="39.4753328059" lon="-8.3404957317">
        <ele>33.30</ele>
        <time>2018-12-21T11:56:08Z</time>
      </trkpt>
      <trkpt lat="39.4753513299" lon="-8.3405100647">
        <ele>33.30</ele>
        <time>2018-12-21T11:56:12Z</time>
      </trkpt>
      <trkpt lat="39.4754319638" lon="-8.3405678160">
        <ele>32.82</ele>
        <time>2018-12-21T11:56:18Z</time>
      </trkpt>
      <trkpt lat="39.4754245039" lon="-8.3405613620">
        <ele>33.78</ele>
        <time>2018-12-21T11:56:21Z</time>
      </trkpt>
      <trkpt lat="39.4754823390" lon="-8.3406027686">
        <ele>33.78</ele>
        <time>2018-12-21T11:56:24Z</time>
      </trkpt>
      <trkpt lat="39.4755672477" lon="-8.3406477794">
        <ele>32.82</ele>
        <time>2018-12-21T11:56:29Z</time>
      </trkpt>
      <trkpt lat="39.4756398350" lon="-8.3407005016">
        <ele>33.30</ele>
        <time>2018-12-21T11:56:36Z</time>
      </trkpt>
      <trkpt lat="39.4757006038" lon="-8.3407396451">
        <ele>33.30</ele>
        <time>2018-12-21T11:56:44Z</time>
      </trkpt>
      <trkpt lat="39.4757500570" lon="-8.3407616895">
        <ele>33.78</ele>
        <time>2018-12-21T11:56:51Z</time>
      </trkpt>
      <trkpt lat="39.4757628813" lon="-8.3407727536">
        <ele>33.78</ele>
        <time>2018-12-21T11:56:52Z</time>
      </trkpt>
      <trkpt lat="39.4758032821" lon="-8.3408049401">
        <ele>33.78</ele>
        <time>2018-12-21T11:57:00Z</time>
      </trkpt>
      <trkpt lat="39.4758275058" lon="-8.3408093825">
        <ele>33.78</ele>
        <time>2018-12-21T11:57:13Z</time>
      </trkpt>
      <trkpt lat="39.4758719299" lon="-8.3408216201">
        <ele>33.78</ele>
        <time>2018-12-21T11:57:21Z</time>
      </trkpt>
      <trkpt lat="39.4759510551" lon="-8.3408523817">
        <ele>33.78</ele>
        <time>2018-12-21T11:57:28Z</time>
      </trkpt>
      <trkpt lat="39.4759977423" lon="-8.3408842329">
        <ele>34.26</ele>
        <time>2018-12-21T11:57:35Z</time>
      </trkpt>
      <trkpt lat="39.4760067109" lon="-8.3408913575">
        <ele>34.26</ele>
        <time>2018-12-21T11:57:36Z</time>
      </trkpt>
      <trkpt lat="39.4761160109" lon="-8.3409467619">
        <ele>33.30</ele>
        <time>2018-12-21T11:57:43Z</time>
      </trkpt>
      <trkpt lat="39.4761250634" lon="-8.3409426548">
        <ele>34.26</ele>
        <time>2018-12-21T11:57:48Z</time>
      </trkpt>
      <trkpt lat="39.4761875924" lon="-8.3409643639">
        <ele>34.26</ele>
        <time>2018-12-21T11:57:53Z</time>
      </trkpt>
      <trkpt lat="39.4761852454" lon="-8.3409644477">
        <ele>34.26</ele>
        <time>2018-12-21T11:57:55Z</time>
      </trkpt>
      <trkpt lat="39.4762574974" lon="-8.3409802895">
        <ele>34.74</ele>
        <time>2018-12-21T11:58:02Z</time>
      </trkpt>
      <trkpt lat="39.4763180986" lon="-8.3409900963">
        <ele>34.74</ele>
        <time>2018-12-21T11:58:08Z</time>
      </trkpt>
      <trkpt lat="39.4763922784" lon="-8.3409898449">
        <ele>35.23</ele>
        <time>2018-12-21T11:58:13Z</time>
      </trkpt>
      <trkpt lat="39.4763970561" lon="-8.3409861568">
        <ele>35.23</ele>
        <time>2018-12-21T11:58:15Z</time>
      </trkpt>
      <trkpt lat="39.4765037578" lon="-8.3410141524">
        <ele>35.23</ele>
        <time>2018-12-21T11:58:21Z</time>
      </trkpt>
      <trkpt lat="39.4765194319" lon="-8.3410027530">
        <ele>35.23</ele>
        <time>2018-12-21T11:58:26Z</time>
      </trkpt>
      <trkpt lat="39.4765281491" lon="-8.3410022501">
        <ele>35.23</ele>
        <time>2018-12-21T11:58:27Z</time>
      </trkpt>
      <trkpt lat="39.4766277261" lon="-8.3410027530">
        <ele>37.15</ele>
        <time>2018-12-21T11:58:33Z</time>
      </trkpt>
      <trkpt lat="39.4766525365" lon="-8.3409975562">
        <ele>36.67</ele>
        <time>2018-12-21T11:58:38Z</time>
      </trkpt>
      <trkpt lat="39.4767216034" lon="-8.3409985621">
        <ele>37.15</ele>
        <time>2018-12-21T11:58:43Z</time>
      </trkpt>
      <trkpt lat="39.4767686259" lon="-8.3410050161">
        <ele>37.15</ele>
        <time>2018-12-21T11:58:49Z</time>
      </trkpt>
      <trkpt lat="39.4768066797" lon="-8.3410190139">
        <ele>38.11</ele>
        <time>2018-12-21T11:58:54Z</time>
      </trkpt>
      <trkpt lat="39.4768550433" lon="-8.3410328440">
        <ele>38.11</ele>
        <time>2018-12-21T11:58:59Z</time>
      </trkpt>
      <trkpt lat="39.4768569712" lon="-8.3410303295">
        <ele>38.59</ele>
        <time>2018-12-21T11:59:00Z</time>
      </trkpt>
      <trkpt lat="39.4769112859" lon="-8.3410076983">
        <ele>39.55</ele>
        <time>2018-12-21T11:59:06Z</time>
      </trkpt>
      <trkpt lat="39.4769741502" lon="-8.3410202712">
        <ele>39.07</ele>
        <time>2018-12-21T11:59:11Z</time>
      </trkpt>
      <trkpt lat="39.4769784249" lon="-8.3410164993">
        <ele>39.55</ele>
        <time>2018-12-21T11:59:12Z</time>
      </trkpt>
      <trkpt lat="39.4770401157" lon="-8.3410334308">
        <ele>40.51</ele>
        <time>2018-12-21T11:59:18Z</time>
      </trkpt>
      <trkpt lat="39.4771009684" lon="-8.3410403877">
        <ele>41.47</ele>
        <time>2018-12-21T11:59:22Z</time>
      </trkpt>
      <trkpt lat="39.4771346636" lon="-8.3410283178">
        <ele>41.47</ele>
        <time>2018-12-21T11:59:27Z</time>
      </trkpt>
      <trkpt lat="39.4772027247" lon="-8.3410277311">
        <ele>42.44</ele>
        <time>2018-12-21T11:59:32Z</time>
      </trkpt>
      <trkpt lat="39.4772637449" lon="-8.3410119731">
        <ele>42.44</ele>
        <time>2018-12-21T11:59:37Z</time>
      </trkpt>
      <trkpt lat="39.4772972725" lon="-8.3410138171">
        <ele>42.92</ele>
        <time>2018-12-21T11:59:41Z</time>
      </trkpt>
      <trkpt lat="39.4773742184" lon="-8.3410043456">
        <ele>43.88</ele>
        <time>2018-12-21T11:59:46Z</time>
      </trkpt>
      <trkpt lat="39.4774271920" lon="-8.3409969695">
        <ele>44.36</ele>
        <time>2018-12-21T11:59:51Z</time>
      </trkpt>
      <trkpt lat="39.4774461351" lon="-8.3410013281">
        <ele>45.32</ele>
        <time>2018-12-21T11:59:54Z</time>
      </trkpt>
      <trkpt lat="39.4774654973" lon="-8.3409845643">
        <ele>45.80</ele>
        <time>2018-12-21T11:59:58Z</time>
      </trkpt>
      <trkpt lat="39.4775107596" lon="-8.3409746736">
        <ele>46.28</ele>
        <time>2018-12-21T12:00:03Z</time>
      </trkpt>
      <trkpt lat="39.4775157049" lon="-8.3409753442">
        <ele>45.80</ele>
        <time>2018-12-21T12:00:04Z</time>
      </trkpt>
      <trkpt lat="39.4775908906" lon="-8.3409621846">
        <ele>46.76</ele>
        <time>2018-12-21T12:00:09Z</time>
      </trkpt>
      <trkpt lat="39.4775941595" lon="-8.3409594186">
        <ele>46.76</ele>
        <time>2018-12-21T12:00:11Z</time>
      </trkpt>
      <trkpt lat="39.4776566885" lon="-8.3409471810">
        <ele>47.72</ele>
        <time>2018-12-21T12:00:17Z</time>
      </trkpt>
      <trkpt lat="39.4776699319" lon="-8.3409456722">
        <ele>47.24</ele>
        <time>2018-12-21T12:00:18Z</time>
      </trkpt>
      <trkpt lat="39.4777044654" lon="-8.3410103805">
        <ele>47.72</ele>
        <time>2018-12-21T12:00:24Z</time>
      </trkpt>
      <trkpt lat="39.4777218159" lon="-8.3411393780">
        <ele>48.20</ele>
        <time>2018-12-21T12:00:30Z</time>
      </trkpt>
      <trkpt lat="39.4777333830" lon="-8.3411543816">
        <ele>47.72</ele>
        <time>2018-12-21T12:00:35Z</time>
      </trkpt>
      <trkpt lat="39.4777394179" lon="-8.3412687108">
        <ele>48.20</ele>
        <time>2018-12-21T12:00:40Z</time>
      </trkpt>
      <trkpt lat="39.4777367357" lon="-8.3412929345">
        <ele>47.72</ele>
        <time>2018-12-21T12:00:45Z</time>
      </trkpt>
      <trkpt lat="39.4777613785" lon="-8.3413951937">
        <ele>47.72</ele>
        <time>2018-12-21T12:00:50Z</time>
      </trkpt>
      <trkpt lat="39.4777700957" lon="-8.3414495923">
        <ele>48.20</ele>
        <time>2018-12-21T12:00:57Z</time>
      </trkpt>
      <trkpt lat="39.4777716883" lon="-8.3414588124">
        <ele>47.72</ele>
        <time>2018-12-21T12:00:58Z</time>
      </trkpt>
      <trkpt lat="39.4777776394" lon="-8.3415650111">
        <ele>47.72</ele>
        <time>2018-12-21T12:01:02Z</time>
      </trkpt>
      <trkpt lat="39.4777753763" lon="-8.3416033164">
        <ele>48.20</ele>
        <time>2018-12-21T12:01:07Z</time>
      </trkpt>
      <trkpt lat="39.4777758792" lon="-8.3416069206">
        <ele>48.20</ele>
        <time>2018-12-21T12:01:08Z</time>
      </trkpt>
      <trkpt lat="39.4777819142" lon="-8.3417456411">
        <ele>47.72</ele>
        <time>2018-12-21T12:01:14Z</time>
      </trkpt>
      <trkpt lat="39.4777805731" lon="-8.3417755645">
        <ele>48.68</ele>
        <time>2018-12-21T12:01:20Z</time>
      </trkpt>
      <trkpt lat="39.4777802378" lon="-8.3418998681">
        <ele>47.72</ele>
        <time>2018-12-21T12:01:25Z</time>
      </trkpt>
      <trkpt lat="39.4777824171" lon="-8.3419257682">
        <ele>47.72</ele>
        <time>2018-12-21T12:01:29Z</time>
      </trkpt>
      <trkpt lat="39.4777791481" lon="-8.3419986907">
        <ele>48.20</ele>
        <time>2018-12-21T12:01:35Z</time>
      </trkpt>
      <trkpt lat="39.4778019469" lon="-8.3420090005">
        <ele>48.68</ele>
        <time>2018-12-21T12:01:43Z</time>
      </trkpt>
      <trkpt lat="39.4778087363" lon="-8.3420090843">
        <ele>48.68</ele>
        <time>2018-12-21T12:01:48Z</time>
      </trkpt>
      <trkpt lat="39.4778030366" lon="-8.3420376666">
        <ele>49.16</ele>
        <time>2018-12-21T12:01:54Z</time>
      </trkpt>
      <trkpt lat="39.4778141845" lon="-8.3420426957">
        <ele>48.68</ele>
        <time>2018-12-21T12:02:01Z</time>
      </trkpt>
      <trkpt lat="39.4778426830" lon="-8.3420787379">
        <ele>48.20</ele>
        <time>2018-12-21T12:02:09Z</time>
      </trkpt>
      <trkpt lat="39.4778462872" lon="-8.3421096671">
        <ele>48.68</ele>
        <time>2018-12-21T12:02:18Z</time>
      </trkpt>
      <trkpt lat="39.4778579380" lon="-8.3421389200">
        <ele>48.68</ele>
        <time>2018-12-21T12:02:26Z</time>
      </trkpt>
      <trkpt lat="39.4778739475" lon="-8.3421878703">
        <ele>49.16</ele>
        <time>2018-12-21T12:02:30Z</time>
      </trkpt>
      <trkpt lat="39.4778861012" lon="-8.3422382455">
        <ele>48.20</ele>
        <time>2018-12-21T12:02:33Z</time>
      </trkpt>
      <trkpt lat="39.4778897054" lon="-8.3422926441">
        <ele>48.68</ele>
        <time>2018-12-21T12:02:35Z</time>
      </trkpt>
      <trkpt lat="39.4778851792" lon="-8.3423432708">
        <ele>49.16</ele>
        <time>2018-12-21T12:02:40Z</time>
      </trkpt>
      <trkpt lat="39.4778942317" lon="-8.3423561789">
        <ele>48.20</ele>
        <time>2018-12-21T12:02:46Z</time>
      </trkpt>
      <trkpt lat="39.4778882805" lon="-8.3423786424">
        <ele>48.68</ele>
        <time>2018-12-21T12:02:52Z</time>
      </trkpt>
      <trkpt lat="39.4778740313" lon="-8.3423907962">
        <ele>48.68</ele>
        <time>2018-12-21T12:02:59Z</time>
      </trkpt>
      <trkpt lat="39.4778478798" lon="-8.3423843421">
        <ele>48.68</ele>
        <time>2018-12-21T12:03:05Z</time>
      </trkpt>
      <trkpt lat="39.4778162800" lon="-8.3423928078">
        <ele>48.68</ele>
        <time>2018-12-21T12:03:16Z</time>
      </trkpt>
      <trkpt lat="39.4778200518" lon="-8.3424567617">
        <ele>48.68</ele>
        <time>2018-12-21T12:03:20Z</time>
      </trkpt>
      <trkpt lat="39.4778230693" lon="-8.3426087257">
        <ele>48.20</ele>
        <time>2018-12-21T12:03:27Z</time>
      </trkpt>
      <trkpt lat="39.4778410066" lon="-8.3425903693">
        <ele>49.16</ele>
        <time>2018-12-21T12:03:33Z</time>
      </trkpt>
      <trkpt lat="39.4778343011" lon="-8.3427171875">
        <ele>49.16</ele>
        <time>2018-12-21T12:03:38Z</time>
      </trkpt>
      <trkpt lat="39.4778372347" lon="-8.3427661378">
        <ele>48.20</ele>
        <time>2018-12-21T12:03:43Z</time>
      </trkpt>
      <trkpt lat="39.4778524898" lon="-8.3427628689">
        <ele>48.68</ele>
        <time>2018-12-21T12:03:50Z</time>
      </trkpt>
      <trkpt lat="39.4778546691" lon="-8.3427633718">
        <ele>48.68</ele>
        <time>2018-12-21T12:03:51Z</time>
      </trkpt>
      <trkpt lat="39.4778346363" lon="-8.3429481927">
        <ele>49.16</ele>
        <time>2018-12-21T12:03:58Z</time>
      </trkpt>
      <trkpt lat="39.4778429344" lon="-8.3429944608">
        <ele>48.68</ele>
        <time>2018-12-21T12:04:03Z</time>
      </trkpt>
      <trkpt lat="39.4778420124" lon="-8.3429906890">
        <ele>48.68</ele>
        <time>2018-12-21T12:04:04Z</time>
      </trkpt>
      <trkpt lat="39.4778515678" lon="-8.3429951314">
        <ele>49.16</ele>
        <time>2018-12-21T12:04:06Z</time>
      </trkpt>
      <trkpt lat="39.4778371509" lon="-8.3431175072">
        <ele>49.16</ele>
        <time>2018-12-21T12:04:11Z</time>
      </trkpt>
      <trkpt lat="39.4778420124" lon="-8.3431673795">
        <ele>49.16</ele>
        <time>2018-12-21T12:04:17Z</time>
      </trkpt>
      <trkpt lat="39.4778433535" lon="-8.3431711514">
        <ele>49.16</ele>
        <time>2018-12-21T12:04:18Z</time>
      </trkpt>
      <trkpt lat="39.4778366480" lon="-8.3433083631">
        <ele>49.65</ele>
        <time>2018-12-21T12:04:24Z</time>
      </trkpt>
      <trkpt lat="39.4778420962" lon="-8.3432959579">
        <ele>48.20</ele>
        <time>2018-12-21T12:04:28Z</time>
      </trkpt>
      <trkpt lat="39.4778261706" lon="-8.3433093689">
        <ele>48.20</ele>
        <time>2018-12-21T12:04:34Z</time>
      </trkpt>
      <trkpt lat="39.4778229017" lon="-8.3433083631">
        <ele>52.05</ele>
        <time>2018-12-21T12:04:35Z</time>
      </trkpt>
      <trkpt lat="39.4778299425" lon="-8.3433086146">
        <ele>50.13</ele>
        <time>2018-12-21T12:04:36Z</time>
      </trkpt>
      <trkpt lat="39.4778383244" lon="-8.3433684614">
        <ele>49.16</ele>
        <time>2018-12-21T12:04:41Z</time>
      </trkpt>
      <trkpt lat="39.4778494723" lon="-8.3434161544">
        <ele>49.65</ele>
        <time>2018-12-21T12:04:45Z</time>
      </trkpt>
      <trkpt lat="39.4778617099" lon="-8.3434196748">
        <ele>49.65</ele>
        <time>2018-12-21T12:04:47Z</time>
      </trkpt>
      <trkpt lat="39.4778081495" lon="-8.3435205929">
        <ele>48.68</ele>
        <time>2018-12-21T12:04:52Z</time>
      </trkpt>
      <trkpt lat="39.4778018631" lon="-8.3435384464">
        <ele>49.65</ele>
        <time>2018-12-21T12:04:57Z</time>
      </trkpt>
      <trkpt lat="39.4777993485" lon="-8.3435526118">
        <ele>49.65</ele>
        <time>2018-12-21T12:04:58Z</time>
      </trkpt>
      <trkpt lat="39.4776989333" lon="-8.3436528593">
        <ele>49.16</ele>
        <time>2018-12-21T12:05:05Z</time>
      </trkpt>
      <trkpt lat="39.4777046330" lon="-8.3436469920">
        <ele>49.65</ele>
        <time>2018-12-21T12:05:08Z</time>
      </trkpt>
      <trkpt lat="39.4776080735" lon="-8.3437163942">
        <ele>49.65</ele>
        <time>2018-12-21T12:05:14Z</time>
      </trkpt>
      <trkpt lat="39.4775918964" lon="-8.3437151369">
        <ele>49.65</ele>
        <time>2018-12-21T12:05:19Z</time>
      </trkpt>
      <trkpt lat="39.4774955884" lon="-8.3437521849">
        <ele>50.13</ele>
        <time>2018-12-21T12:05:25Z</time>
      </trkpt>
      <trkpt lat="39.4775054790" lon="-8.3437434677">
        <ele>49.65</ele>
        <time>2018-12-21T12:05:29Z</time>
      </trkpt>
      <trkpt lat="39.4773798343" lon="-8.3437799290">
        <ele>50.13</ele>
        <time>2018-12-21T12:05:35Z</time>
      </trkpt>
      <trkpt lat="39.4773698598" lon="-8.3437856287">
        <ele>50.13</ele>
        <time>2018-12-21T12:05:40Z</time>
      </trkpt>
      <trkpt lat="39.4772917405" lon="-8.3438162226">
        <ele>50.61</ele>
        <time>2018-12-21T12:05:45Z</time>
      </trkpt>
      <trkpt lat="39.4772069156" lon="-8.3438421227">
        <ele>51.57</ele>
        <time>2018-12-21T12:05:50Z</time>
      </trkpt>
      <trkpt lat="39.4772090111" lon="-8.3438417036">
        <ele>51.09</ele>
        <time>2018-12-21T12:05:54Z</time>
      </trkpt>
      <trkpt lat="39.4771027286" lon="-8.3438731357">
        <ele>50.61</ele>
        <time>2018-12-21T12:05:59Z</time>
      </trkpt>
      <trkpt lat="39.4770853780" lon="-8.3438847866">
        <ele>51.09</ele>
        <time>2018-12-21T12:06:03Z</time>
      </trkpt>
      <trkpt lat="39.4770262856" lon="-8.3439028077">
        <ele>51.57</ele>
        <time>2018-12-21T12:06:08Z</time>
      </trkpt>
      <trkpt lat="39.4770206697" lon="-8.3439069986">
        <ele>52.53</ele>
        <time>2018-12-21T12:06:09Z</time>
      </trkpt>
      <trkpt lat="39.4769491721" lon="-8.3439284563">
        <ele>52.05</ele>
        <time>2018-12-21T12:06:15Z</time>
      </trkpt>
      <trkpt lat="39.4769242778" lon="-8.3439448010">
        <ele>52.05</ele>
        <time>2018-12-21T12:06:20Z</time>
      </trkpt>
      <trkpt lat="39.4768847153" lon="-8.3439579606">
        <ele>52.53</ele>
        <time>2018-12-21T12:06:24Z</time>
      </trkpt>
      <trkpt lat="39.4767860603" lon="-8.3439939190">
        <ele>52.53</ele>
        <time>2018-12-21T12:06:29Z</time>
      </trkpt>
      <trkpt lat="39.4767726492" lon="-8.3439827710">
        <ele>53.49</ele>
        <time>2018-12-21T12:06:34Z</time>
      </trkpt>
      <trkpt lat="39.4766693003" lon="-8.3440028876">
        <ele>53.01</ele>
        <time>2018-12-21T12:06:39Z</time>
      </trkpt>
      <trkpt lat="39.4766454119" lon="-8.3440178074">
        <ele>53.01</ele>
        <time>2018-12-21T12:06:45Z</time>
      </trkpt>
      <trkpt lat="39.4765569828" lon="-8.3440437075">
        <ele>53.01</ele>
        <time>2018-12-21T12:06:49Z</time>
      </trkpt>
      <trkpt lat="39.4765502773" lon="-8.3440552745">
        <ele>53.49</ele>
        <time>2018-12-21T12:06:52Z</time>
      </trkpt>
      <trkpt lat="39.4765688851" lon="-8.3440875448">
        <ele>53.01</ele>
        <time>2018-12-21T12:06:58Z</time>
      </trkpt>
      <trkpt lat="39.4765724055" lon="-8.3440857008">
        <ele>53.49</ele>
        <time>2018-12-21T12:07:00Z</time>
      </trkpt>
      <trkpt lat="39.4764946215" lon="-8.3441962581">
        <ele>53.49</ele>
        <time>2018-12-21T12:07:04Z</time>
      </trkpt>
      <trkpt lat="39.4764986448" lon="-8.3442201465">
        <ele>53.49</ele>
        <time>2018-12-21T12:07:09Z</time>
      </trkpt>
      <trkpt lat="39.4764656201" lon="-8.3443173766">
        <ele>54.45</ele>
        <time>2018-12-21T12:07:16Z</time>
      </trkpt>
      <trkpt lat="39.4764613453" lon="-8.3443200588">
        <ele>54.45</ele>
        <time>2018-12-21T12:07:17Z</time>
      </trkpt>
      <trkpt lat="39.4764329307" lon="-8.3444094937">
        <ele>53.97</ele>
        <time>2018-12-21T12:07:22Z</time>
      </trkpt>
      <trkpt lat="39.4764370378" lon="-8.3443991840">
        <ele>54.45</ele>
        <time>2018-12-21T12:07:26Z</time>
      </trkpt>
      <trkpt lat="39.4764320087" lon="-8.3444480505">
        <ele>55.41</ele>
        <time>2018-12-21T12:07:30Z</time>
      </trkpt>
      <trkpt lat="39.4764190167" lon="-8.3444910496">
        <ele>55.41</ele>
        <time>2018-12-21T12:07:35Z</time>
      </trkpt>
      <trkpt lat="39.4764341880" lon="-8.3445811551">
        <ele>56.37</ele>
        <time>2018-12-21T12:07:42Z</time>
      </trkpt>
      <trkpt lat="39.4764371216" lon="-8.3446568437">
        <ele>57.82</ele>
        <time>2018-12-21T12:07:48Z</time>
      </trkpt>
      <trkpt lat="39.4764493592" lon="-8.3447394054">
        <ele>58.30</ele>
        <time>2018-12-21T12:07:53Z</time>
      </trkpt>
      <trkpt lat="39.4764567353" lon="-8.3447762858">
        <ele>58.78</ele>
        <time>2018-12-21T12:07:56Z</time>
      </trkpt>
      <trkpt lat="39.4764648657" lon="-8.3447988331">
        <ele>59.26</ele>
        <time>2018-12-21T12:08:00Z</time>
      </trkpt>
      <trkpt lat="39.4764985610" lon="-8.3448570035">
        <ele>60.70</ele>
        <time>2018-12-21T12:08:05Z</time>
      </trkpt>
      <trkpt lat="39.4765077811" lon="-8.3448787127">
        <ele>60.70</ele>
        <time>2018-12-21T12:08:07Z</time>
      </trkpt>
      <trkpt lat="39.4765276462" lon="-8.3449078817">
        <ele>61.66</ele>
        <time>2018-12-21T12:08:11Z</time>
      </trkpt>
      <trkpt lat="39.4765471760" lon="-8.3449461870">
        <ele>61.66</ele>
        <time>2018-12-21T12:08:15Z</time>
      </trkpt>
      <trkpt lat="39.4765572343" lon="-8.3449470252">
        <ele>63.10</ele>
        <time>2018-12-21T12:08:17Z</time>
      </trkpt>
      <trkpt lat="39.4766040891" lon="-8.3450073749">
        <ele>63.10</ele>
        <time>2018-12-21T12:08:22Z</time>
      </trkpt>
      <trkpt lat="39.4766157400" lon="-8.3450250607">
        <ele>63.58</ele>
        <time>2018-12-21T12:08:24Z</time>
      </trkpt>
      <trkpt lat="39.4766481780" lon="-8.3450494520">
        <ele>64.55</ele>
        <time>2018-12-21T12:08:29Z</time>
      </trkpt>
      <trkpt lat="39.4767018221" lon="-8.3450975642">
        <ele>65.51</ele>
        <time>2018-12-21T12:08:33Z</time>
      </trkpt>
      <trkpt lat="39.4766954519" lon="-8.3450914454">
        <ele>65.51</ele>
        <time>2018-12-21T12:08:35Z</time>
      </trkpt>
      <trkpt lat="39.4767613336" lon="-8.3451750129">
        <ele>65.51</ele>
        <time>2018-12-21T12:08:41Z</time>
      </trkpt>
      <trkpt lat="39.4767972082" lon="-8.3452251367">
        <ele>65.99</ele>
        <time>2018-12-21T12:08:46Z</time>
      </trkpt>
      <trkpt lat="39.4768552948" lon="-8.3452768531">
        <ele>68.87</ele>
        <time>2018-12-21T12:08:51Z</time>
      </trkpt>
      <trkpt lat="39.4768629223" lon="-8.3452854026">
        <ele>65.51</ele>
        <time>2018-12-21T12:08:52Z</time>
      </trkpt>
      <trkpt lat="39.4769062568" lon="-8.3453472611">
        <ele>65.51</ele>
        <time>2018-12-21T12:08:57Z</time>
      </trkpt>
      <trkpt lat="39.4769759942" lon="-8.3454226144">
        <ele>66.47</ele>
        <time>2018-12-21T12:09:06Z</time>
      </trkpt>
      <trkpt lat="39.4770111144" lon="-8.3455008175">
        <ele>66.47</ele>
        <time>2018-12-21T12:09:14Z</time>
      </trkpt>
      <trkpt lat="39.4770645071" lon="-8.3456065133">
        <ele>65.99</ele>
        <time>2018-12-21T12:09:23Z</time>
      </trkpt>
      <trkpt lat="39.4770996273" lon="-8.3457231056">
        <ele>65.99</ele>
        <time>2018-12-21T12:09:32Z</time>
      </trkpt>
      <trkpt lat="39.4771362562" lon="-8.3458484989">
        <ele>65.51</ele>
        <time>2018-12-21T12:09:41Z</time>
      </trkpt>
      <trkpt lat="39.4771873858" lon="-8.3459774125">
        <ele>65.03</ele>
        <time>2018-12-21T12:09:50Z</time>
      </trkpt>
      <trkpt lat="39.4772022218" lon="-8.3460314758">
        <ele>65.03</ele>
        <time>2018-12-21T12:09:54Z</time>
      </trkpt>
      <trkpt lat="39.4772393536" lon="-8.3461670112">
        <ele>64.55</ele>
        <time>2018-12-21T12:10:03Z</time>
      </trkpt>
      <trkpt lat="39.4772714563" lon="-8.3462978527">
        <ele>64.07</ele>
        <time>2018-12-21T12:10:13Z</time>
      </trkpt>
      <trkpt lat="39.4772630744" lon="-8.3463829290">
        <ele>64.07</ele>
        <time>2018-12-21T12:10:19Z</time>
      </trkpt>
      <trkpt lat="39.4772691932" lon="-8.3464801591">
        <ele>63.10</ele>
        <time>2018-12-21T12:10:26Z</time>
      </trkpt>
      <trkpt lat="39.4772670139" lon="-8.3465577755">
        <ele>63.10</ele>
        <time>2018-12-21T12:10:32Z</time>
      </trkpt>
      <trkpt lat="39.4772617333" lon="-8.3465824183">
        <ele>63.10</ele>
        <time>2018-12-21T12:10:34Z</time>
      </trkpt>
      <trkpt lat="39.4772673491" lon="-8.3467012737">
        <ele>63.58</ele>
        <time>2018-12-21T12:10:42Z</time>
      </trkpt>
      <trkpt lat="39.4771970250" lon="-8.3468192909">
        <ele>63.58</ele>
        <time>2018-12-21T12:10:51Z</time>
      </trkpt>
      <trkpt lat="39.4771425426" lon="-8.3469033614">
        <ele>64.55</ele>
        <time>2018-12-21T12:10:59Z</time>
      </trkpt>
      <trkpt lat="39.4771339092" lon="-8.3469245676">
        <ele>64.55</ele>
        <time>2018-12-21T12:11:01Z</time>
      </trkpt>
      <trkpt lat="39.4770797621" lon="-8.3470186964">
        <ele>65.51</ele>
        <time>2018-12-21T12:11:10Z</time>
      </trkpt>
      <trkpt lat="39.4770161435" lon="-8.3471063711">
        <ele>65.99</ele>
        <time>2018-12-21T12:11:19Z</time>
      </trkpt>
      <trkpt lat="39.4769880641" lon="-8.3471423294">
        <ele>66.47</ele>
        <time>2018-12-21T12:11:23Z</time>
      </trkpt>
      <trkpt lat="39.4769440591" lon="-8.3472256456">
        <ele>67.43</ele>
        <time>2018-12-21T12:11:31Z</time>
      </trkpt>
      <trkpt lat="39.4769002218" lon="-8.3473069500">
        <ele>68.39</ele>
        <time>2018-12-21T12:11:38Z</time>
      </trkpt>
      <trkpt lat="39.4768483378" lon="-8.3473884221">
        <ele>69.35</ele>
        <time>2018-12-21T12:11:46Z</time>
      </trkpt>
      <trkpt lat="39.4767973758" lon="-8.3474978898">
        <ele>70.31</ele>
        <time>2018-12-21T12:11:56Z</time>
      </trkpt>
      <trkpt lat="39.4767638482" lon="-8.3475656994">
        <ele>71.27</ele>
        <time>2018-12-21T12:12:03Z</time>
      </trkpt>
      <trkpt lat="39.4767350145" lon="-8.3476261329">
        <ele>71.76</ele>
        <time>2018-12-21T12:12:09Z</time>
      </trkpt>
      <trkpt lat="39.4766922668" lon="-8.3477381151">
        <ele>72.24</ele>
        <time>2018-12-21T12:12:18Z</time>
      </trkpt>
      <trkpt lat="39.4766480941" lon="-8.3478328306">
        <ele>73.68</ele>
        <time>2018-12-21T12:12:27Z</time>
      </trkpt>
      <trkpt lat="39.4766199309" lon="-8.3479015622">
        <ele>74.64</ele>
        <time>2018-12-21T12:12:34Z</time>
      </trkpt>
      <trkpt lat="39.4765999820" lon="-8.3479964454">
        <ele>75.12</ele>
        <time>2018-12-21T12:12:42Z</time>
      </trkpt>
      <trkpt lat="39.4765846431" lon="-8.3480851259">
        <ele>76.56</ele>
        <time>2018-12-21T12:12:50Z</time>
      </trkpt>
      <trkpt lat="39.4765695557" lon="-8.3481722977">
        <ele>78.00</ele>
        <time>2018-12-21T12:12:58Z</time>
      </trkpt>
      <trkpt lat="39.4765632693" lon="-8.3481824398">
        <ele>78.00</ele>
        <time>2018-12-21T12:12:59Z</time>
      </trkpt>
      <trkpt lat="39.4765443262" lon="-8.3483137842">
        <ele>78.97</ele>
        <time>2018-12-21T12:13:09Z</time>
      </trkpt>
      <trkpt lat="39.4765352737" lon="-8.3484180551">
        <ele>79.93</ele>
        <time>2018-12-21T12:13:17Z</time>
      </trkpt>
      <trkpt lat="39.4765267242" lon="-8.3484967612">
        <ele>80.41</ele>
        <time>2018-12-21T12:13:23Z</time>
      </trkpt>
      <trkpt lat="39.4765193481" lon="-8.3486014511">
        <ele>81.37</ele>
        <time>2018-12-21T12:13:31Z</time>
      </trkpt>
      <trkpt lat="39.4765183423" lon="-8.3486137725">
        <ele>80.89</ele>
        <time>2018-12-21T12:13:32Z</time>
      </trkpt>
      <trkpt lat="39.4765479304" lon="-8.3487242460">
        <ele>82.33</ele>
        <time>2018-12-21T12:13:40Z</time>
      </trkpt>
      <trkpt lat="39.4765961263" lon="-8.3487918042">
        <ele>82.81</ele>
        <time>2018-12-21T12:13:49Z</time>
      </trkpt>
      <trkpt lat="39.4766192604" lon="-8.3488063049">
        <ele>82.81</ele>
        <time>2018-12-21T12:13:57Z</time>
      </trkpt>
      <trkpt lat="39.4766504411" lon="-8.3488246612">
        <ele>83.29</ele>
        <time>2018-12-21T12:14:05Z</time>
      </trkpt>
      <trkpt lat="39.4767736550" lon="-8.3489200473">
        <ele>83.29</ele>
        <time>2018-12-21T12:14:18Z</time>
      </trkpt>
      <trkpt lat="39.4768570550" lon="-8.3490264136">
        <ele>83.77</ele>
        <time>2018-12-21T12:14:29Z</time>
      </trkpt>
      <trkpt lat="39.4768658560" lon="-8.3490324486">
        <ele>83.29</ele>
        <time>2018-12-21T12:14:30Z</time>
      </trkpt>
      <trkpt lat="39.4769479148" lon="-8.3491483703">
        <ele>83.29</ele>
        <time>2018-12-21T12:14:41Z</time>
      </trkpt>
      <trkpt lat="39.4769557938" lon="-8.3491691574">
        <ele>83.29</ele>
        <time>2018-12-21T12:14:43Z</time>
      </trkpt>
      <trkpt lat="39.4770329911" lon="-8.3492932096">
        <ele>83.29</ele>
        <time>2018-12-21T12:14:53Z</time>
      </trkpt>
      <trkpt lat="39.4770759065" lon="-8.3494328521">
        <ele>82.81</ele>
        <time>2018-12-21T12:15:03Z</time>
      </trkpt>
      <trkpt lat="39.4771023095" lon="-8.3495621011">
        <ele>82.33</ele>
        <time>2018-12-21T12:15:12Z</time>
      </trkpt>
      <trkpt lat="39.4771106075" lon="-8.3496158291">
        <ele>82.33</ele>
        <time>2018-12-21T12:15:15Z</time>
      </trkpt>
      <trkpt lat="39.4770932570" lon="-8.3496665396">
        <ele>82.81</ele>
        <time>2018-12-21T12:15:21Z</time>
      </trkpt>
      <trkpt lat="39.4771093503" lon="-8.3497154899">
        <ele>81.85</ele>
        <time>2018-12-21T12:15:25Z</time>
      </trkpt>
      <trkpt lat="39.4771269523" lon="-8.3498521987">
        <ele>82.33</ele>
        <time>2018-12-21T12:15:34Z</time>
      </trkpt>
      <trkpt lat="39.4771503378" lon="-8.3500089403">
        <ele>82.33</ele>
        <time>2018-12-21T12:15:44Z</time>
      </trkpt>
      <trkpt lat="39.4771628268" lon="-8.3501448948">
        <ele>82.33</ele>
        <time>2018-12-21T12:15:53Z</time>
      </trkpt>
      <trkpt lat="39.4771655928" lon="-8.3503395226">
        <ele>81.85</ele>
        <time>2018-12-21T12:16:06Z</time>
      </trkpt>
      <trkpt lat="39.4771645870" lon="-8.3503570408">
        <ele>81.85</ele>
        <time>2018-12-21T12:16:07Z</time>
      </trkpt>
      <trkpt lat="39.4771976955" lon="-8.3504958451">
        <ele>82.33</ele>
        <time>2018-12-21T12:16:16Z</time>
      </trkpt>
      <trkpt lat="39.4772006292" lon="-8.3506550174">
        <ele>81.85</ele>
        <time>2018-12-21T12:16:26Z</time>
      </trkpt>
      <trkpt lat="39.4772093464" lon="-8.3508104179">
        <ele>82.33</ele>
        <time>2018-12-21T12:16:36Z</time>
      </trkpt>
      <trkpt lat="39.4772185665" lon="-8.3508949913">
        <ele>81.85</ele>
        <time>2018-12-21T12:16:42Z</time>
      </trkpt>
      <trkpt lat="39.4772313908" lon="-8.3510612883">
        <ele>81.37</ele>
        <time>2018-12-21T12:16:53Z</time>
      </trkpt>
      <trkpt lat="39.4772305526" lon="-8.3512215503">
        <ele>81.37</ele>
        <time>2018-12-21T12:17:03Z</time>
      </trkpt>
      <trkpt lat="39.4772481546" lon="-8.3513340354">
        <ele>81.85</ele>
        <time>2018-12-21T12:17:11Z</time>
      </trkpt>
      <trkpt lat="39.4772381801" lon="-8.3515100554">
        <ele>81.37</ele>
        <time>2018-12-21T12:17:22Z</time>
      </trkpt>
      <trkpt lat="39.4772388507" lon="-8.3516832255">
        <ele>79.93</ele>
        <time>2018-12-21T12:17:33Z</time>
      </trkpt>
      <trkpt lat="39.4772459753" lon="-8.3518629335">
        <ele>79.93</ele>
        <time>2018-12-21T12:17:44Z</time>
      </trkpt>
      <trkpt lat="39.4772168901" lon="-8.3520114608">
        <ele>79.45</ele>
        <time>2018-12-21T12:17:54Z</time>
      </trkpt>
      <trkpt lat="39.4772185665" lon="-8.3521488402">
        <ele>79.45</ele>
        <time>2018-12-21T12:18:03Z</time>
      </trkpt>
      <trkpt lat="39.4772042334" lon="-8.3523154724">
        <ele>79.45</ele>
        <time>2018-12-21T12:18:13Z</time>
      </trkpt>
      <trkpt lat="39.4771882240" lon="-8.3524713758">
        <ele>78.97</ele>
        <time>2018-12-21T12:18:23Z</time>
      </trkpt>
      <trkpt lat="39.4771858770" lon="-8.3526185621">
        <ele>79.45</ele>
        <time>2018-12-21T12:18:33Z</time>
      </trkpt>
      <trkpt lat="39.4771849550" lon="-8.3527476434">
        <ele>79.45</ele>
        <time>2018-12-21T12:18:42Z</time>
      </trkpt>
      <trkpt lat="39.4771817699" lon="-8.3527725376">
        <ele>79.93</ele>
        <time>2018-12-21T12:18:44Z</time>
      </trkpt>
      <trkpt lat="39.4771724660" lon="-8.3528099209">
        <ele>79.93</ele>
        <time>2018-12-21T12:18:47Z</time>
      </trkpt>
      <trkpt lat="39.4771532714" lon="-8.3529716916">
        <ele>79.45</ele>
        <time>2018-12-21T12:18:59Z</time>
      </trkpt>
      <trkpt lat="39.4771381840" lon="-8.3531322889">
        <ele>78.97</ele>
        <time>2018-12-21T12:19:09Z</time>
      </trkpt>
      <trkpt lat="39.4771396089" lon="-8.3532844204">
        <ele>78.97</ele>
        <time>2018-12-21T12:19:19Z</time>
      </trkpt>
      <trkpt lat="39.4771318138" lon="-8.3534067124">
        <ele>78.48</ele>
        <time>2018-12-21T12:19:27Z</time>
      </trkpt>
      <trkpt lat="39.4771279581" lon="-8.3534319419">
        <ele>78.97</ele>
        <time>2018-12-21T12:19:29Z</time>
      </trkpt>
      <trkpt lat="39.4771180674" lon="-8.3536056988">
        <ele>78.97</ele>
        <time>2018-12-21T12:19:40Z</time>
      </trkpt>
      <trkpt lat="39.4771007169" lon="-8.3537307568">
        <ele>78.48</ele>
        <time>2018-12-21T12:19:49Z</time>
      </trkpt>
      <trkpt lat="39.4771079253" lon="-8.3537697326">
        <ele>78.48</ele>
        <time>2018-12-21T12:19:52Z</time>
      </trkpt>
      <trkpt lat="39.4770905748" lon="-8.3538934495">
        <ele>78.97</ele>
        <time>2018-12-21T12:20:01Z</time>
      </trkpt>
      <trkpt lat="39.4770847913" lon="-8.3539297432">
        <ele>78.48</ele>
        <time>2018-12-21T12:20:04Z</time>
      </trkpt>
      <trkpt lat="39.4770831149" lon="-8.3540667035">
        <ele>78.48</ele>
        <time>2018-12-21T12:20:14Z</time>
      </trkpt>
      <trkpt lat="39.4770927541" lon="-8.3541784342">
        <ele>78.97</ele>
        <time>2018-12-21T12:20:22Z</time>
      </trkpt>
      <trkpt lat="39.4770808518" lon="-8.3542879857">
        <ele>78.97</ele>
        <time>2018-12-21T12:20:30Z</time>
      </trkpt>
      <trkpt lat="39.4771017227" lon="-8.3544298075">
        <ele>78.48</ele>
        <time>2018-12-21T12:20:40Z</time>
      </trkpt>
      <trkpt lat="39.4771380164" lon="-8.3545767423">
        <ele>78.48</ele>
        <time>2018-12-21T12:20:50Z</time>
      </trkpt>
      <trkpt lat="39.4771559536" lon="-8.3546804264">
        <ele>78.97</ele>
        <time>2018-12-21T12:20:58Z</time>
      </trkpt>
      <trkpt lat="39.4771858770" lon="-8.3548071608">
        <ele>78.48</ele>
        <time>2018-12-21T12:21:07Z</time>
      </trkpt>
      <trkpt lat="39.4772134535" lon="-8.3549571130">
        <ele>79.45</ele>
        <time>2018-12-21T12:21:17Z</time>
      </trkpt>
      <trkpt lat="39.4772235956" lon="-8.3550037164">
        <ele>78.48</ele>
        <time>2018-12-21T12:21:21Z</time>
      </trkpt>
      <trkpt lat="39.4772445504" lon="-8.3551364858">
        <ele>78.97</ele>
        <time>2018-12-21T12:21:30Z</time>
      </trkpt>
      <trkpt lat="39.4772574585" lon="-8.3551918063">
        <ele>78.97</ele>
        <time>2018-12-21T12:21:34Z</time>
      </trkpt>
      <trkpt lat="39.4772314746" lon="-8.3553360589">
        <ele>78.48</ele>
        <time>2018-12-21T12:21:44Z</time>
      </trkpt>
      <trkpt lat="39.4772159681" lon="-8.3554506395">
        <ele>77.52</ele>
        <time>2018-12-21T12:21:52Z</time>
      </trkpt>
      <trkpt lat="39.4772183150" lon="-8.3556179423">
        <ele>77.52</ele>
        <time>2018-12-21T12:22:02Z</time>
      </trkpt>
      <trkpt lat="39.4772404432" lon="-8.3557476103">
        <ele>77.04</ele>
        <time>2018-12-21T12:22:11Z</time>
      </trkpt>
      <trkpt lat="39.4772769883" lon="-8.3558940422">
        <ele>77.04</ele>
        <time>2018-12-21T12:22:22Z</time>
      </trkpt>
      <trkpt lat="39.4773382600" lon="-8.3560567349">
        <ele>75.60</ele>
        <time>2018-12-21T12:22:34Z</time>
      </trkpt>
      <trkpt lat="39.4774232525" lon="-8.3561542165">
        <ele>75.12</ele>
        <time>2018-12-21T12:22:44Z</time>
      </trkpt>
      <trkpt lat="39.4774967618" lon="-8.3562273066">
        <ele>74.64</ele>
        <time>2018-12-21T12:22:52Z</time>
      </trkpt>
      <trkpt lat="39.4775742944" lon="-8.3563263807">
        <ele>73.20</ele>
        <time>2018-12-21T12:23:01Z</time>
      </trkpt>
      <trkpt lat="39.4776254240" lon="-8.3564430568">
        <ele>72.72</ele>
        <time>2018-12-21T12:23:10Z</time>
      </trkpt>
      <trkpt lat="39.4776865281" lon="-8.3565466572">
        <ele>72.72</ele>
        <time>2018-12-21T12:23:19Z</time>
      </trkpt>
      <trkpt lat="39.4777847640" lon="-8.3566094376">
        <ele>72.72</ele>
        <time>2018-12-21T12:23:28Z</time>
      </trkpt>
      <trkpt lat="39.4778426830" lon="-8.3566479106">
        <ele>73.20</ele>
        <time>2018-12-21T12:23:34Z</time>
      </trkpt>
      <trkpt lat="39.4779163599" lon="-8.3567350823">
        <ele>74.16</ele>
        <time>2018-12-21T12:23:43Z</time>
      </trkpt>
      <trkpt lat="39.4779241551" lon="-8.3567704540">
        <ele>74.64</ele>
        <time>2018-12-21T12:23:46Z</time>
      </trkpt>
      <trkpt lat="39.4779394101" lon="-8.3568860404">
        <ele>75.12</ele>
        <time>2018-12-21T12:23:56Z</time>
      </trkpt>
      <trkpt lat="39.4779227301" lon="-8.3570093382">
        <ele>77.04</ele>
        <time>2018-12-21T12:24:06Z</time>
      </trkpt>
      <trkpt lat="39.4779025298" lon="-8.3570646588">
        <ele>77.52</ele>
        <time>2018-12-21T12:24:10Z</time>
      </trkpt>
      <trkpt lat="39.4778830837" lon="-8.3571691811">
        <ele>78.97</ele>
        <time>2018-12-21T12:24:18Z</time>
      </trkpt>
      <trkpt lat="39.4778769650" lon="-8.3572571911">
        <ele>79.93</ele>
        <time>2018-12-21T12:24:25Z</time>
      </trkpt>
      <trkpt lat="39.4778767135" lon="-8.3572664950">
        <ele>80.41</ele>
        <time>2018-12-21T12:24:26Z</time>
      </trkpt>
      <trkpt lat="39.4778711814" lon="-8.3573069796">
        <ele>79.93</ele>
        <time>2018-12-21T12:24:29Z</time>
      </trkpt>
      <trkpt lat="39.4778730255" lon="-8.3573640604">
        <ele>80.89</ele>
        <time>2018-12-21T12:24:33Z</time>
      </trkpt>
      <trkpt lat="39.4778829999" lon="-8.3574981708">
        <ele>81.85</ele>
        <time>2018-12-21T12:24:42Z</time>
      </trkpt>
      <trkpt lat="39.4778904598" lon="-8.3575513959">
        <ele>82.33</ele>
        <time>2018-12-21T12:24:46Z</time>
      </trkpt>
      <trkpt lat="39.4778994285" lon="-8.3575926349">
        <ele>82.33</ele>
        <time>2018-12-21T12:24:49Z</time>
      </trkpt>
      <trkpt lat="39.4779259153" lon="-8.3577343728">
        <ele>82.81</ele>
        <time>2018-12-21T12:24:59Z</time>
      </trkpt>
      <trkpt lat="39.4779654779" lon="-8.3578399010">
        <ele>83.29</ele>
        <time>2018-12-21T12:25:08Z</time>
      </trkpt>
      <trkpt lat="39.4780207146" lon="-8.3579521347">
        <ele>84.25</ele>
        <time>2018-12-21T12:25:17Z</time>
      </trkpt>
      <trkpt lat="39.4781022705" lon="-8.3580804616">
        <ele>84.73</ele>
        <time>2018-12-21T12:25:28Z</time>
      </trkpt>
      <trkpt lat="39.4781648833" lon="-8.3581767697">
        <ele>85.21</ele>
        <time>2018-12-21T12:25:37Z</time>
      </trkpt>
      <trkpt lat="39.4782254845" lon="-8.3582716528">
        <ele>85.69</ele>
        <time>2018-12-21T12:25:46Z</time>
      </trkpt>
      <trkpt lat="39.4782841578" lon="-8.3583836351">
        <ele>85.69</ele>
        <time>2018-12-21T12:25:55Z</time>
      </trkpt>
      <trkpt lat="39.4783472735" lon="-8.3585330844">
        <ele>86.66</ele>
        <time>2018-12-21T12:26:06Z</time>
      </trkpt>
      <trkpt lat="39.4784024265" lon="-8.3586314879">
        <ele>86.66</ele>
        <time>2018-12-21T12:26:14Z</time>
      </trkpt>
      <trkpt lat="39.4784544781" lon="-8.3587401174">
        <ele>87.14</ele>
        <time>2018-12-21T12:26:23Z</time>
      </trkpt>
      <trkpt lat="39.4785268139" lon="-8.3588385209">
        <ele>87.62</ele>
        <time>2018-12-21T12:26:31Z</time>
      </trkpt>
      <trkpt lat="39.4786028378" lon="-8.3589551970">
        <ele>88.10</ele>
        <time>2018-12-21T12:26:41Z</time>
      </trkpt>
      <trkpt lat="39.4786929432" lon="-8.3590779919">
        <ele>87.62</ele>
        <time>2018-12-21T12:26:51Z</time>
      </trkpt>
      <trkpt lat="39.4788058475" lon="-8.3592127729">
        <ele>87.62</ele>
        <time>2018-12-21T12:27:01Z</time>
      </trkpt>
      <trkpt lat="39.4788939413" lon="-8.3593208157">
        <ele>87.62</ele>
        <time>2018-12-21T12:27:10Z</time>
      </trkpt>
      <trkpt lat="39.4789640140" lon="-8.3594309539">
        <ele>87.62</ele>
        <time>2018-12-21T12:27:19Z</time>
      </trkpt>
      <trkpt lat="39.4790492579" lon="-8.3595419303">
        <ele>86.66</ele>
        <time>2018-12-21T12:27:28Z</time>
      </trkpt>
      <trkpt lat="39.4791516010" lon="-8.3596578520">
        <ele>86.18</ele>
        <time>2018-12-21T12:27:38Z</time>
      </trkpt>
      <trkpt lat="39.4792184047" lon="-8.3597700857">
        <ele>86.66</ele>
        <time>2018-12-21T12:27:47Z</time>
      </trkpt>
      <trkpt lat="39.4792791735" lon="-8.3598753624">
        <ele>86.18</ele>
        <time>2018-12-21T12:27:55Z</time>
      </trkpt>
      <trkpt lat="39.4793239329" lon="-8.3599753585">
        <ele>86.66</ele>
        <time>2018-12-21T12:28:03Z</time>
      </trkpt>
      <trkpt lat="39.4793656748" lon="-8.3600837365">
        <ele>86.66</ele>
        <time>2018-12-21T12:28:11Z</time>
      </trkpt>
      <trkpt lat="39.4794142060" lon="-8.3602095488">
        <ele>86.66</ele>
        <time>2018-12-21T12:28:20Z</time>
      </trkpt>
      <trkpt lat="39.4794595521" lon="-8.3603544720">
        <ele>86.66</ele>
        <time>2018-12-21T12:28:29Z</time>
      </trkpt>
      <trkpt lat="39.4794972707" lon="-8.3604833018">
        <ele>87.62</ele>
        <time>2018-12-21T12:28:37Z</time>
      </trkpt>
      <trkpt lat="39.4795392640" lon="-8.3606419712">
        <ele>87.14</ele>
        <time>2018-12-21T12:28:47Z</time>
      </trkpt>
      <trkpt lat="39.4795969315" lon="-8.3608182427">
        <ele>87.14</ele>
        <time>2018-12-21T12:28:57Z</time>
      </trkpt>
      <trkpt lat="39.4796341471" lon="-8.3609615732">
        <ele>88.10</ele>
        <time>2018-12-21T12:29:06Z</time>
      </trkpt>
      <trkpt lat="39.4796716981" lon="-8.3610777464">
        <ele>87.62</ele>
        <time>2018-12-21T12:29:14Z</time>
      </trkpt>
      <trkpt lat="39.4797111768" lon="-8.3612108510">
        <ele>88.10</ele>
        <time>2018-12-21T12:29:23Z</time>
      </trkpt>
      <trkpt lat="39.4797543436" lon="-8.3613447100">
        <ele>88.58</ele>
        <time>2018-12-21T12:29:32Z</time>
      </trkpt>
      <trkpt lat="39.4797680061" lon="-8.3614616375">
        <ele>89.06</ele>
        <time>2018-12-21T12:29:40Z</time>
      </trkpt>
      <trkpt lat="39.4797748793" lon="-8.3615032956">
        <ele>89.54</ele>
        <time>2018-12-21T12:29:43Z</time>
      </trkpt>
      <trkpt lat="39.4797707722" lon="-8.3616708498">
        <ele>90.02</ele>
        <time>2018-12-21T12:29:54Z</time>
      </trkpt>
      <trkpt lat="39.4797580317" lon="-8.3618316147">
        <ele>90.50</ele>
        <time>2018-12-21T12:30:04Z</time>
      </trkpt>
      <trkpt lat="39.4797558524" lon="-8.3619381487">
        <ele>90.98</ele>
        <time>2018-12-21T12:30:10Z</time>
      </trkpt>
      <trkpt lat="39.4797745440" lon="-8.3621038590">
        <ele>90.98</ele>
        <time>2018-12-21T12:30:20Z</time>
      </trkpt>
      <trkpt lat="39.4798289426" lon="-8.3622264024">
        <ele>90.98</ele>
        <time>2018-12-21T12:30:29Z</time>
      </trkpt>
      <trkpt lat="39.4798887055" lon="-8.3623473532">
        <ele>91.94</ele>
        <time>2018-12-21T12:30:39Z</time>
      </trkpt>
      <trkpt lat="39.4799700100" lon="-8.3624648675">
        <ele>91.94</ele>
        <time>2018-12-21T12:30:49Z</time>
      </trkpt>
      <trkpt lat="39.4799964130" lon="-8.3625708148">
        <ele>92.90</ele>
        <time>2018-12-21T12:30:56Z</time>
      </trkpt>
      <trkpt lat="39.4799995143" lon="-8.3626190107">
        <ele>91.94</ele>
        <time>2018-12-21T12:30:59Z</time>
      </trkpt>
      <trkpt lat="39.4799955748" lon="-8.3626470063">
        <ele>91.94</ele>
        <time>2018-12-21T12:31:01Z</time>
      </trkpt>
      <trkpt lat="39.4800767116" lon="-8.3627414703">
        <ele>91.94</ele>
        <time>2018-12-21T12:31:11Z</time>
      </trkpt>
      <trkpt lat="39.4801499695" lon="-8.3627695497">
        <ele>92.42</ele>
        <time>2018-12-21T12:31:18Z</time>
      </trkpt>
      <trkpt lat="39.4802326150" lon="-8.3627803624">
        <ele>92.42</ele>
        <time>2018-12-21T12:31:26Z</time>
      </trkpt>
      <trkpt lat="39.4803451840" lon="-8.3627676219">
        <ele>93.39</ele>
        <time>2018-12-21T12:31:35Z</time>
      </trkpt>
      <trkpt lat="39.4804300927" lon="-8.3627745789">
        <ele>94.35</ele>
        <time>2018-12-21T12:31:43Z</time>
      </trkpt>
      <trkpt lat="39.4804932922" lon="-8.3627627604">
        <ele>94.35</ele>
        <time>2018-12-21T12:31:49Z</time>
      </trkpt>
      <trkpt lat="39.4805953838" lon="-8.3627764229">
        <ele>94.35</ele>
        <time>2018-12-21T12:31:56Z</time>
      </trkpt>
      <trkpt lat="39.4806781132" lon="-8.3627700526">
        <ele>95.31</ele>
        <time>2018-12-21T12:32:04Z</time>
      </trkpt>
      <trkpt lat="39.4807736669" lon="-8.3627438173">
        <ele>95.31</ele>
        <time>2018-12-21T12:32:12Z</time>
      </trkpt>
      <trkpt lat="39.4808781892" lon="-8.3627803624">
        <ele>95.31</ele>
        <time>2018-12-21T12:32:20Z</time>
      </trkpt>
      <trkpt lat="39.4809954520" lon="-8.3627861459">
        <ele>96.27</ele>
        <time>2018-12-21T12:32:29Z</time>
      </trkpt>
      <trkpt lat="39.4810550474" lon="-8.3627901692">
        <ele>96.27</ele>
        <time>2018-12-21T12:32:37Z</time>
      </trkpt>
      <trkpt lat="39.4810490124" lon="-8.3628050890">
        <ele>96.27</ele>
        <time>2018-12-21T12:32:45Z</time>
      </trkpt>
      <trkpt lat="39.4810953643" lon="-8.3628049213">
        <ele>96.27</ele>
        <time>2018-12-21T12:32:52Z</time>
      </trkpt>
      <trkpt lat="39.4812046643" lon="-8.3627791051">
        <ele>97.23</ele>
        <time>2018-12-21T12:33:00Z</time>
      </trkpt>
      <trkpt lat="39.4812955242" lon="-8.3627797756">
        <ele>96.75</ele>
        <time>2018-12-21T12:33:08Z</time>
      </trkpt>
      <trkpt lat="39.4813911617" lon="-8.3627744112">
        <ele>97.23</ele>
        <time>2018-12-21T12:33:15Z</time>
      </trkpt>
      <trkpt lat="39.4815312233" lon="-8.3627959527">
        <ele>97.71</ele>
        <time>2018-12-21T12:33:25Z</time>
      </trkpt>
      <trkpt lat="39.4816214126" lon="-8.3628065977">
        <ele>98.19</ele>
        <time>2018-12-21T12:33:32Z</time>
      </trkpt>
      <trkpt lat="39.4817007892" lon="-8.3628444839">
        <ele>98.19</ele>
        <time>2018-12-21T12:33:40Z</time>
      </trkpt>
      <trkpt lat="39.4818001986" lon="-8.3629231062">
        <ele>98.67</ele>
        <time>2018-12-21T12:33:50Z</time>
      </trkpt>
      <trkpt lat="39.4818920642" lon="-8.3630163129">
        <ele>99.63</ele>
        <time>2018-12-21T12:33:58Z</time>
      </trkpt>
      <trkpt lat="39.4819716923" lon="-8.3630701248">
        <ele>100.11</ele>
        <time>2018-12-21T12:34:06Z</time>
      </trkpt>
      <trkpt lat="39.4820120931" lon="-8.3631066699">
        <ele>100.60</ele>
        <time>2018-12-21T12:34:10Z</time>
      </trkpt>
      <trkpt lat="39.4821069762" lon="-8.3631785866">
        <ele>101.56</ele>
        <time>2018-12-21T12:34:19Z</time>
      </trkpt>
      <trkpt lat="39.4821156096" lon="-8.3631918300">
        <ele>101.08</ele>
        <time>2018-12-21T12:34:20Z</time>
      </trkpt>
      <trkpt lat="39.4821734447" lon="-8.3632459771">
        <ele>102.52</ele>
        <time>2018-12-21T12:34:26Z</time>
      </trkpt>
      <trkpt lat="39.4822761230" lon="-8.3633372560">
        <ele>102.52</ele>
        <time>2018-12-21T12:34:37Z</time>
      </trkpt>
      <trkpt lat="39.4822987542" lon="-8.3633572888">
        <ele>103.00</ele>
        <time>2018-12-21T12:34:40Z</time>
      </trkpt>
      <trkpt lat="39.4823401608" lon="-8.3633983601">
        <ele>103.00</ele>
        <time>2018-12-21T12:34:45Z</time>
      </trkpt>
      <trkpt lat="39.4824469462" lon="-8.3634799160">
        <ele>103.48</ele>
        <time>2018-12-21T12:34:55Z</time>
      </trkpt>
      <trkpt lat="39.4825377222" lon="-8.3635613043">
        <ele>104.44</ele>
        <time>2018-12-21T12:35:04Z</time>
      </trkpt>
      <trkpt lat="39.4825973175" lon="-8.3636044711">
        <ele>104.44</ele>
        <time>2018-12-21T12:35:11Z</time>
      </trkpt>
      <trkpt lat="39.4826721679" lon="-8.3636680897">
        <ele>105.40</ele>
        <time>2018-12-21T12:35:18Z</time>
      </trkpt>
      <trkpt lat="39.4827615190" lon="-8.3637456223">
        <ele>105.88</ele>
        <time>2018-12-21T12:35:25Z</time>
      </trkpt>
      <trkpt lat="39.4828408957" lon="-8.3638157789">
        <ele>105.88</ele>
        <time>2018-12-21T12:35:34Z</time>
      </trkpt>
      <trkpt lat="39.4829430711" lon="-8.3638823312">
        <ele>106.84</ele>
        <time>2018-12-21T12:35:44Z</time>
      </trkpt>
      <trkpt lat="39.4830562267" lon="-8.3639824111">
        <ele>107.81</ele>
        <time>2018-12-21T12:35:54Z</time>
      </trkpt>
      <trkpt lat="39.4831723999" lon="-8.3640342951">
        <ele>108.29</ele>
        <time>2018-12-21T12:36:03Z</time>
      </trkpt>
      <trkpt lat="39.4832449872" lon="-8.3640481252">
        <ele>108.77</ele>
        <time>2018-12-21T12:36:10Z</time>
      </trkpt>
      <trkpt lat="39.4833350927" lon="-8.3640717622">
        <ele>109.25</ele>
        <time>2018-12-21T12:36:18Z</time>
      </trkpt>
      <trkpt lat="39.4834203366" lon="-8.3641059604">
        <ele>109.25</ele>
        <time>2018-12-21T12:36:26Z</time>
      </trkpt>
      <trkpt lat="39.4835224282" lon="-8.3641418349">
        <ele>110.69</ele>
        <time>2018-12-21T12:36:35Z</time>
      </trkpt>
      <trkpt lat="39.4836464804" lon="-8.3641916234">
        <ele>110.69</ele>
        <time>2018-12-21T12:36:45Z</time>
      </trkpt>
      <trkpt lat="39.4837152120" lon="-8.3642155956">
        <ele>111.17</ele>
        <time>2018-12-21T12:36:50Z</time>
      </trkpt>
      <trkpt lat="39.4838031381" lon="-8.3642950561">
        <ele>111.65</ele>
        <time>2018-12-21T12:36:58Z</time>
      </trkpt>
      <trkpt lat="39.4839126058" lon="-8.3643536456">
        <ele>111.17</ele>
        <time>2018-12-21T12:37:08Z</time>
      </trkpt>
      <trkpt lat="39.4839323871" lon="-8.3643663861">
        <ele>112.13</ele>
        <time>2018-12-21T12:37:10Z</time>
      </trkpt>
      <trkpt lat="39.4839796610" lon="-8.3644009195">
        <ele>112.61</ele>
        <time>2018-12-21T12:37:15Z</time>
      </trkpt>
      <trkpt lat="39.4840338919" lon="-8.3644562401">
        <ele>113.09</ele>
        <time>2018-12-21T12:37:21Z</time>
      </trkpt>
      <trkpt lat="39.4840825070" lon="-8.3645014185">
        <ele>113.09</ele>
        <time>2018-12-21T12:37:26Z</time>
      </trkpt>
      <trkpt lat="39.4841817487" lon="-8.3646162506">
        <ele>114.05</ele>
        <time>2018-12-21T12:37:36Z</time>
      </trkpt>
      <trkpt lat="39.4842725247" lon="-8.3647278976">
        <ele>114.53</ele>
        <time>2018-12-21T12:37:45Z</time>
      </trkpt>
      <trkpt lat="39.4843578525" lon="-8.3648568951">
        <ele>114.05</ele>
        <time>2018-12-21T12:37:56Z</time>
      </trkpt>
      <trkpt lat="39.4844413362" lon="-8.3649868984">
        <ele>115.01</ele>
        <time>2018-12-21T12:38:06Z</time>
      </trkpt>
      <trkpt lat="39.4845381472" lon="-8.3651226014">
        <ele>115.01</ele>
        <time>2018-12-21T12:38:16Z</time>
      </trkpt>
      <trkpt lat="39.4845968205" lon="-8.3652254473">
        <ele>115.50</ele>
        <time>2018-12-21T12:38:25Z</time>
      </trkpt>
      <trkpt lat="39.4846890215" lon="-8.3653437160">
        <ele>115.50</ele>
        <time>2018-12-21T12:38:35Z</time>
      </trkpt>
      <trkpt lat="39.4847800490" lon="-8.3654348273">
        <ele>115.50</ele>
        <time>2018-12-21T12:38:43Z</time>
      </trkpt>
      <trkpt lat="39.4848309271" lon="-8.3655915689">
        <ele>115.98</ele>
        <time>2018-12-21T12:38:53Z</time>
      </trkpt>
      <trkpt lat="39.4848917797" lon="-8.3657555189">
        <ele>116.94</ele>
        <time>2018-12-21T12:39:04Z</time>
      </trkpt>
      <trkpt lat="39.4849680550" lon="-8.3658980951">
        <ele>117.42</ele>
        <time>2018-12-21T12:39:14Z</time>
      </trkpt>
      <trkpt lat="39.4850439951" lon="-8.3660279308">
        <ele>117.42</ele>
        <time>2018-12-21T12:39:23Z</time>
      </trkpt>
      <trkpt lat="39.4850973878" lon="-8.3660995122">
        <ele>117.90</ele>
        <time>2018-12-21T12:39:30Z</time>
      </trkpt>
      <trkpt lat="39.4851600006" lon="-8.3662009332">
        <ele>118.38</ele>
        <time>2018-12-21T12:39:39Z</time>
      </trkpt>
      <trkpt lat="39.4852466695" lon="-8.3662959840">
        <ele>119.34</ele>
        <time>2018-12-21T12:39:48Z</time>
      </trkpt>
      <trkpt lat="39.4853231963" lon="-8.3663624525">
        <ele>119.34</ele>
        <time>2018-12-21T12:39:56Z</time>
      </trkpt>
      <trkpt lat="39.4853961188" lon="-8.3664421644">
        <ele>119.34</ele>
        <time>2018-12-21T12:40:03Z</time>
      </trkpt>
      <trkpt lat="39.4854671974" lon="-8.3664832357">
        <ele>118.86</ele>
        <time>2018-12-21T12:40:10Z</time>
      </trkpt>
      <trkpt lat="39.4855243620" lon="-8.3665382210">
        <ele>117.90</ele>
        <time>2018-12-21T12:40:18Z</time>
      </trkpt>
      <trkpt lat="39.4856291357" lon="-8.3666660450">
        <ele>116.94</ele>
        <time>2018-12-21T12:40:28Z</time>
      </trkpt>
      <trkpt lat="39.4857178163" lon="-8.3668081183">
        <ele>116.46</ele>
        <time>2018-12-21T12:40:37Z</time>
      </trkpt>
      <trkpt lat="39.4857280422" lon="-8.3668237925">
        <ele>116.46</ele>
        <time>2018-12-21T12:40:38Z</time>
      </trkpt>
      <trkpt lat="39.4858111069" lon="-8.3669641055">
        <ele>115.98</ele>
        <time>2018-12-21T12:40:49Z</time>
      </trkpt>
      <trkpt lat="39.4858583808" lon="-8.3670381177">
        <ele>114.53</ele>
        <time>2018-12-21T12:40:55Z</time>
      </trkpt>
      <trkpt lat="39.4858831074" lon="-8.3671097830">
        <ele>115.01</ele>
        <time>2018-12-21T12:41:00Z</time>
      </trkpt>
      <trkpt lat="39.4858903158" lon="-8.3671449870">
        <ele>115.98</ele>
        <time>2018-12-21T12:41:02Z</time>
      </trkpt>
      <trkpt lat="39.4858945068" lon="-8.3671634272">
        <ele>110.69</ele>
        <time>2018-12-21T12:41:03Z</time>
      </trkpt>
      <trkpt lat="39.4858981948" lon="-8.3671812806">
        <ele>117.90</ele>
        <time>2018-12-21T12:41:04Z</time>
      </trkpt>
      <trkpt lat="39.4859026372" lon="-8.3672004752">
        <ele>114.53</ele>
        <time>2018-12-21T12:41:05Z</time>
      </trkpt>
      <trkpt lat="39.4859182276" lon="-8.3672509342">
        <ele>111.17</ele>
        <time>2018-12-21T12:41:08Z</time>
      </trkpt>
      <trkpt lat="39.4859245978" lon="-8.3672678657">
        <ele>116.46</ele>
        <time>2018-12-21T12:41:09Z</time>
      </trkpt>
      <trkpt lat="39.4859292079" lon="-8.3672842104">
        <ele>110.69</ele>
        <time>2018-12-21T12:41:10Z</time>
      </trkpt>
      <trkpt lat="39.4859336503" lon="-8.3672982082">
        <ele>115.50</ele>
        <time>2018-12-21T12:41:11Z</time>
      </trkpt>
      <trkpt lat="39.4859383442" lon="-8.3673127089">
        <ele>112.61</ele>
        <time>2018-12-21T12:41:12Z</time>
      </trkpt>
      <trkpt lat="39.4859416969" lon="-8.3673282154">
        <ele>115.98</ele>
        <time>2018-12-21T12:41:13Z</time>
      </trkpt>
      <trkpt lat="39.4859447144" lon="-8.3673448954">
        <ele>108.77</ele>
        <time>2018-12-21T12:41:14Z</time>
      </trkpt>
      <trkpt lat="39.4859457202" lon="-8.3673601504">
        <ele>117.42</ele>
        <time>2018-12-21T12:41:15Z</time>
      </trkpt>
      <trkpt lat="39.4859494921" lon="-8.3673756570">
        <ele>113.09</ele>
        <time>2018-12-21T12:41:16Z</time>
      </trkpt>
      <trkpt lat="39.4859827682" lon="-8.3674386889">
        <ele>118.86</ele>
        <time>2018-12-21T12:41:21Z</time>
      </trkpt>
      <trkpt lat="39.4859885518" lon="-8.3674515970">
        <ele>114.53</ele>
        <time>2018-12-21T12:41:22Z</time>
      </trkpt>
      <trkpt lat="39.4859954249" lon="-8.3674550336">
        <ele>114.05</ele>
        <time>2018-12-21T12:41:24Z</time>
      </trkpt>
      <trkpt lat="39.4860144518" lon="-8.3675043192">
        <ele>113.09</ele>
        <time>2018-12-21T12:41:30Z</time>
      </trkpt>
      <trkpt lat="39.4860958401" lon="-8.3676793333">
        <ele>112.61</ele>
        <time>2018-12-21T12:41:37Z</time>
      </trkpt>
      <trkpt lat="39.4860958401" lon="-8.3677051496">
        <ele>105.40</ele>
        <time>2018-12-21T12:41:39Z</time>
      </trkpt>
      <trkpt lat="39.4860971812" lon="-8.3677174710">
        <ele>119.82</ele>
        <time>2018-12-21T12:41:40Z</time>
      </trkpt>
      <trkpt lat="39.4860973489" lon="-8.3677297086">
        <ele>113.09</ele>
        <time>2018-12-21T12:41:41Z</time>
      </trkpt>
      <trkpt lat="39.4860979356" lon="-8.3677390963">
        <ele>109.25</ele>
        <time>2018-12-21T12:41:42Z</time>
      </trkpt>
      <trkpt lat="39.4860982709" lon="-8.3677487355">
        <ele>110.69</ele>
        <time>2018-12-21T12:41:43Z</time>
      </trkpt>
      <trkpt lat="39.4861010369" lon="-8.3677594643">
        <ele>115.50</ele>
        <time>2018-12-21T12:41:44Z</time>
      </trkpt>
      <trkpt lat="39.4861039706" lon="-8.3677739650">
        <ele>111.17</ele>
        <time>2018-12-21T12:41:45Z</time>
      </trkpt>
      <trkpt lat="39.4861062337" lon="-8.3677866217">
        <ele>107.32</ele>
        <time>2018-12-21T12:41:46Z</time>
      </trkpt>
      <trkpt lat="39.4861087482" lon="-8.3677996974">
        <ele>121.74</ele>
        <time>2018-12-21T12:41:47Z</time>
      </trkpt>
      <trkpt lat="39.4861120172" lon="-8.3678140305">
        <ele>107.81</ele>
        <time>2018-12-21T12:41:48Z</time>
      </trkpt>
      <trkpt lat="39.4861151185" lon="-8.3678273577">
        <ele>116.46</ele>
        <time>2018-12-21T12:41:49Z</time>
      </trkpt>
      <trkpt lat="39.4861210696" lon="-8.3678571135">
        <ele>112.13</ele>
        <time>2018-12-21T12:41:51Z</time>
      </trkpt>
      <trkpt lat="39.4861582015" lon="-8.3679586183">
        <ele>108.77</ele>
        <time>2018-12-21T12:41:59Z</time>
      </trkpt>
      <trkpt lat="39.4861626439" lon="-8.3679749630">
        <ele>111.17</ele>
        <time>2018-12-21T12:42:00Z</time>
      </trkpt>
      <trkpt lat="39.4861824252" lon="-8.3680463769">
        <ele>105.88</ele>
        <time>2018-12-21T12:42:05Z</time>
      </trkpt>
      <trkpt lat="39.4861856103" lon="-8.3680616319">
        <ele>115.01</ele>
        <time>2018-12-21T12:42:06Z</time>
      </trkpt>
      <trkpt lat="39.4861965906" lon="-8.3681051340">
        <ele>111.17</ele>
        <time>2018-12-21T12:42:09Z</time>
      </trkpt>
      <trkpt lat="39.4861997757" lon="-8.3681193832">
        <ele>111.65</ele>
        <time>2018-12-21T12:42:10Z</time>
      </trkpt>
      <trkpt lat="39.4862311240" lon="-8.3682213072">
        <ele>108.77</ele>
        <time>2018-12-21T12:42:18Z</time>
      </trkpt>
      <trkpt lat="39.4862426911" lon="-8.3682638872">
        <ele>114.05</ele>
        <time>2018-12-21T12:42:21Z</time>
      </trkpt>
      <trkpt lat="39.4862649031" lon="-8.3683228958">
        <ele>109.73</ele>
        <time>2018-12-21T12:42:25Z</time>
      </trkpt>
      <trkpt lat="39.4863250852" lon="-8.3684528153">
        <ele>111.17</ele>
        <time>2018-12-21T12:42:34Z</time>
      </trkpt>
      <trkpt lat="39.4863630552" lon="-8.3685008436">
        <ele>107.32</ele>
        <time>2018-12-21T12:42:39Z</time>
      </trkpt>
      <trkpt lat="39.4863716047" lon="-8.3685101476">
        <ele>112.61</ele>
        <time>2018-12-21T12:42:40Z</time>
      </trkpt>
      <trkpt lat="39.4864102453" lon="-8.3685500454">
        <ele>109.73</ele>
        <time>2018-12-21T12:42:44Z</time>
      </trkpt>
      <trkpt lat="39.4865148515" lon="-8.3686189447">
        <ele>108.29</ele>
        <time>2018-12-21T12:42:52Z</time>
      </trkpt>
      <trkpt lat="39.4865253288" lon="-8.3686263207">
        <ele>113.09</ele>
        <time>2018-12-21T12:42:53Z</time>
      </trkpt>
      <trkpt lat="39.4866078906" lon="-8.3686668053">
        <ele>105.40</ele>
        <time>2018-12-21T12:43:00Z</time>
      </trkpt>
      <trkpt lat="39.4866179489" lon="-8.3686745167">
        <ele>113.57</ele>
        <time>2018-12-21T12:43:01Z</time>
      </trkpt>
      <trkpt lat="39.4866490457" lon="-8.3687005006">
        <ele>104.44</ele>
        <time>2018-12-21T12:43:04Z</time>
      </trkpt>
      <trkpt lat="39.4866602775" lon="-8.3687083796">
        <ele>112.61</ele>
        <time>2018-12-21T12:43:05Z</time>
      </trkpt>
      <trkpt lat="39.4866850879" lon="-8.3687270712">
        <ele>108.29</ele>
        <time>2018-12-21T12:43:07Z</time>
      </trkpt>
      <trkpt lat="39.4866977446" lon="-8.3687354531">
        <ele>112.61</ele>
        <time>2018-12-21T12:43:08Z</time>
      </trkpt>
      <trkpt lat="39.4867915381" lon="-8.3687901031">
        <ele>110.21</ele>
        <time>2018-12-21T12:43:15Z</time>
      </trkpt>
      <trkpt lat="39.4868179411" lon="-8.3687866665">
        <ele>110.21</ele>
        <time>2018-12-21T12:43:22Z</time>
      </trkpt>
      <trkpt lat="39.4868618622" lon="-8.3688181825">
        <ele>109.25</ele>
        <time>2018-12-21T12:43:28Z</time>
      </trkpt>
      <trkpt lat="39.4869291689" lon="-8.3688509557">
        <ele>108.77</ele>
        <time>2018-12-21T12:43:34Z</time>
      </trkpt>
      <trkpt lat="39.4870378822" lon="-8.3689212799">
        <ele>109.25</ele>
        <time>2018-12-21T12:43:40Z</time>
      </trkpt>
      <trkpt lat="39.4871564861" lon="-8.3689996507">
        <ele>107.81</ele>
        <time>2018-12-21T12:43:49Z</time>
      </trkpt>
      <trkpt lat="39.4871967193" lon="-8.3690077811">
        <ele>107.81</ele>
        <time>2018-12-21T12:43:56Z</time>
      </trkpt>
      <trkpt lat="39.4873202685" lon="-8.3690762613">
        <ele>106.84</ele>
        <time>2018-12-21T12:44:06Z</time>
      </trkpt>
      <trkpt lat="39.4873517007" lon="-8.3690916840">
        <ele>110.69</ele>
        <time>2018-12-21T12:44:09Z</time>
      </trkpt>
      <trkpt lat="39.4873653632" lon="-8.3690996468">
        <ele>107.32</ele>
        <time>2018-12-21T12:44:10Z</time>
      </trkpt>
      <trkpt lat="39.4874027465" lon="-8.3691119682">
        <ele>106.36</ele>
        <time>2018-12-21T12:44:12Z</time>
      </trkpt>
      <trkpt lat="39.4874759205" lon="-8.3691292349">
        <ele>106.36</ele>
        <time>2018-12-21T12:44:17Z</time>
      </trkpt>
      <trkpt lat="39.4875806104" lon="-8.3691756707">
        <ele>105.88</ele>
        <time>2018-12-21T12:44:26Z</time>
      </trkpt>
      <trkpt lat="39.4876711350" lon="-8.3692335058">
        <ele>104.92</ele>
        <time>2018-12-21T12:44:35Z</time>
      </trkpt>
      <trkpt lat="39.4877718855" lon="-8.3692822885">
        <ele>104.92</ele>
        <time>2018-12-21T12:44:44Z</time>
      </trkpt>
      <trkpt lat="39.4878904894" lon="-8.3693487570">
        <ele>103.96</ele>
        <time>2018-12-21T12:44:54Z</time>
      </trkpt>
      <trkpt lat="39.4879919104" lon="-8.3694029879">
        <ele>104.44</ele>
        <time>2018-12-21T12:45:02Z</time>
      </trkpt>
      <trkpt lat="39.4880688563" lon="-8.3694090229">
        <ele>103.96</ele>
        <time>2018-12-21T12:45:08Z</time>
      </trkpt>
      <trkpt lat="39.4880917389" lon="-8.3694087714">
        <ele>103.96</ele>
        <time>2018-12-21T12:45:10Z</time>
      </trkpt>
      <trkpt lat="39.4881751388" lon="-8.3694909140">
        <ele>103.00</ele>
        <time>2018-12-21T12:45:19Z</time>
      </trkpt>
      <trkpt lat="39.4882095885" lon="-8.3695438877">
        <ele>102.52</ele>
        <time>2018-12-21T12:45:23Z</time>
      </trkpt>
      <trkpt lat="39.4882247597" lon="-8.3697282057">
        <ele>102.04</ele>
        <time>2018-12-21T12:45:35Z</time>
      </trkpt>
      <trkpt lat="39.4882140309" lon="-8.3698572870">
        <ele>102.04</ele>
        <time>2018-12-21T12:45:44Z</time>
      </trkpt>
      <trkpt lat="39.4882411882" lon="-8.3700236678">
        <ele>101.08</ele>
        <time>2018-12-21T12:45:54Z</time>
      </trkpt>
      <trkpt lat="39.4882467203" lon="-8.3701728657">
        <ele>102.52</ele>
        <time>2018-12-21T12:46:03Z</time>
      </trkpt>
      <trkpt lat="39.4882404339" lon="-8.3701918926">
        <ele>102.04</ele>
        <time>2018-12-21T12:46:04Z</time>
      </trkpt>
      <trkpt lat="39.4881417789" lon="-8.3702969179">
        <ele>102.04</ele>
        <time>2018-12-21T12:46:13Z</time>
      </trkpt>
      <trkpt lat="39.4880725443" lon="-8.3703089040">
        <ele>102.04</ele>
        <time>2018-12-21T12:46:18Z</time>
      </trkpt>
      <trkpt lat="39.4879513420" lon="-8.3703202195">
        <ele>103.00</ele>
        <time>2018-12-21T12:46:28Z</time>
      </trkpt>
      <trkpt lat="39.4879431278" lon="-8.3703295235">
        <ele>103.00</ele>
        <time>2018-12-21T12:46:29Z</time>
      </trkpt>
      <trkpt lat="39.4878847897" lon="-8.3704129234">
        <ele>103.96</ele>
        <time>2018-12-21T12:46:38Z</time>
      </trkpt>
      <trkpt lat="39.4878650922" lon="-8.3704420924">
        <ele>104.44</ele>
        <time>2018-12-21T12:46:41Z</time>
      </trkpt>
      <trkpt lat="39.4877811056" lon="-8.3705611993">
        <ele>105.40</ele>
        <time>2018-12-21T12:46:50Z</time>
      </trkpt>
      <trkpt lat="39.4877576362" lon="-8.3706882689">
        <ele>106.36</ele>
        <time>2018-12-21T12:46:59Z</time>
      </trkpt>
      <trkpt lat="39.4877368491" lon="-8.3707749378">
        <ele>107.32</ele>
        <time>2018-12-21T12:47:06Z</time>
      </trkpt>
      <trkpt lat="39.4877355080" lon="-8.3707896061">
        <ele>107.32</ele>
        <time>2018-12-21T12:47:07Z</time>
      </trkpt>
      <trkpt lat="39.4877320714" lon="-8.3708678093">
        <ele>108.29</ele>
        <time>2018-12-21T12:47:14Z</time>
      </trkpt>
      <trkpt lat="39.4877143856" lon="-8.3709470183">
        <ele>108.77</ele>
        <time>2018-12-21T12:47:21Z</time>
      </trkpt>
      <trkpt lat="39.4877104461" lon="-8.3710565697">
        <ele>110.21</ele>
        <time>2018-12-21T12:47:28Z</time>
      </trkpt>
      <trkpt lat="39.4877135474" lon="-8.3711838070">
        <ele>110.69</ele>
        <time>2018-12-21T12:47:36Z</time>
      </trkpt>
      <trkpt lat="39.4877083506" lon="-8.3712895028">
        <ele>112.61</ele>
        <time>2018-12-21T12:47:44Z</time>
      </trkpt>
      <trkpt lat="39.4877039921" lon="-8.3713847212">
        <ele>113.57</ele>
        <time>2018-12-21T12:47:52Z</time>
      </trkpt>
      <trkpt lat="39.4877158105" lon="-8.3715571370">
        <ele>114.05</ele>
        <time>2018-12-21T12:48:02Z</time>
      </trkpt>
      <trkpt lat="39.4877133798" lon="-8.3716797642">
        <ele>114.05</ele>
        <time>2018-12-21T12:48:10Z</time>
      </trkpt>
      <trkpt lat="39.4877498411" lon="-8.3718088455">
        <ele>113.57</ele>
        <time>2018-12-21T12:48:20Z</time>
      </trkpt>
      <trkpt lat="39.4878152199" lon="-8.3719250187">
        <ele>114.05</ele>
        <time>2018-12-21T12:48:30Z</time>
      </trkpt>
      <trkpt lat="39.4878927525" lon="-8.3720394317">
        <ele>114.53</ele>
        <time>2018-12-21T12:48:39Z</time>
      </trkpt>
      <trkpt lat="39.4880194031" lon="-8.3720852807">
        <ele>115.01</ele>
        <time>2018-12-21T12:48:50Z</time>
      </trkpt>
      <trkpt lat="39.4881197345" lon="-8.3720924053">
        <ele>115.50</ele>
        <time>2018-12-21T12:48:57Z</time>
      </trkpt>
      <trkpt lat="39.4881731272" lon="-8.3721268550">
        <ele>115.01</ele>
        <time>2018-12-21T12:49:03Z</time>
      </trkpt>
      <trkpt lat="39.4881987758" lon="-8.3722159546">
        <ele>114.53</ele>
        <time>2018-12-21T12:49:10Z</time>
      </trkpt>
      <trkpt lat="39.4881674275" lon="-8.3723725285">
        <ele>113.57</ele>
        <time>2018-12-21T12:49:20Z</time>
      </trkpt>
      <trkpt lat="39.4881615601" lon="-8.3725109138">
        <ele>112.13</ele>
        <time>2018-12-21T12:49:30Z</time>
      </trkpt>
      <trkpt lat="39.4881288707" lon="-8.3726573456">
        <ele>111.17</ele>
        <time>2018-12-21T12:49:39Z</time>
      </trkpt>
      <trkpt lat="39.4880826026" lon="-8.3727896120">
        <ele>110.21</ele>
        <time>2018-12-21T12:49:48Z</time>
      </trkpt>
      <trkpt lat="39.4880349096" lon="-8.3729196154">
        <ele>109.25</ele>
        <time>2018-12-21T12:49:57Z</time>
      </trkpt>
      <trkpt lat="39.4879883900" lon="-8.3730439190">
        <ele>109.25</ele>
        <time>2018-12-21T12:50:06Z</time>
      </trkpt>
      <trkpt lat="39.4879367575" lon="-8.3731709048">
        <ele>108.77</ele>
        <time>2018-12-21T12:50:16Z</time>
      </trkpt>
      <trkpt lat="39.4878967758" lon="-8.3733216953">
        <ele>108.77</ele>
        <time>2018-12-21T12:50:26Z</time>
      </trkpt>
      <trkpt lat="39.4878358394" lon="-8.3734941110">
        <ele>107.32</ele>
        <time>2018-12-21T12:50:37Z</time>
      </trkpt>
      <trkpt lat="39.4878011383" lon="-8.3736135531">
        <ele>108.29</ele>
        <time>2018-12-21T12:50:46Z</time>
      </trkpt>
      <trkpt lat="39.4877868053" lon="-8.3736016508">
        <ele>107.81</ele>
        <time>2018-12-21T12:50:55Z</time>
      </trkpt>
      <trkpt lat="39.4877574686" lon="-8.3736148942">
        <ele>107.32</ele>
        <time>2018-12-21T12:51:14Z</time>
      </trkpt>
      <trkpt lat="39.4877516013" lon="-8.3736349270">
        <ele>107.32</ele>
        <time>2018-12-21T12:51:34Z</time>
      </trkpt>
      <trkpt lat="39.4877808541" lon="-8.3736030757">
        <ele>106.84</ele>
        <time>2018-12-21T12:51:55Z</time>
      </trkpt>
      <trkpt lat="39.4877758250" lon="-8.3736041654">
        <ele>107.32</ele>
        <time>2018-12-21T12:52:13Z</time>
      </trkpt>
      <trkpt lat="39.4878013059" lon="-8.3736261260">
        <ele>107.32</ele>
        <time>2018-12-21T12:52:29Z</time>
      </trkpt>
      <trkpt lat="39.4878039882" lon="-8.3736376092">
        <ele>107.32</ele>
        <time>2018-12-21T12:52:35Z</time>
      </trkpt>
      <trkpt lat="39.4877914991" lon="-8.3736556303">
        <ele>107.32</ele>
        <time>2018-12-21T12:52:43Z</time>
      </trkpt>
      <trkpt lat="39.4877660181" lon="-8.3737062570">
        <ele>107.81</ele>
        <time>2018-12-21T12:52:52Z</time>
      </trkpt>
      <trkpt lat="39.4877263717" lon="-8.3737675287">
        <ele>108.77</ele>
        <time>2018-12-21T12:52:59Z</time>
      </trkpt>
      <trkpt lat="39.4877321552" lon="-8.3737795986">
        <ele>108.77</ele>
        <time>2018-12-21T12:53:04Z</time>
      </trkpt>
      <trkpt lat="39.4877412077" lon="-8.3737817779">
        <ele>108.29</ele>
        <time>2018-12-21T12:53:06Z</time>
      </trkpt>
      <trkpt lat="39.4877305627" lon="-8.3737883158">
        <ele>108.77</ele>
        <time>2018-12-21T12:53:14Z</time>
      </trkpt>
      <trkpt lat="39.4877029862" lon="-8.3738387749">
        <ele>108.77</ele>
        <time>2018-12-21T12:53:19Z</time>
      </trkpt>
      <trkpt lat="39.4876865577" lon="-8.3738852106">
        <ele>106.36</ele>
        <time>2018-12-21T12:53:23Z</time>
      </trkpt>
      <trkpt lat="39.4876238611" lon="-8.3739484102">
        <ele>108.77</ele>
        <time>2018-12-21T12:53:31Z</time>
      </trkpt>
      <trkpt lat="39.4874966238" lon="-8.3739976119">
        <ele>108.29</ele>
        <time>2018-12-21T12:53:40Z</time>
      </trkpt>
      <trkpt lat="39.4874098711" lon="-8.3740742225">
        <ele>107.81</ele>
        <time>2018-12-21T12:53:47Z</time>
      </trkpt>
      <trkpt lat="39.4874035008" lon="-8.3740863763">
        <ele>107.81</ele>
        <time>2018-12-21T12:53:48Z</time>
      </trkpt>
      <trkpt lat="39.4873634353" lon="-8.3741883840">
        <ele>106.84</ele>
        <time>2018-12-21T12:53:55Z</time>
      </trkpt>
      <trkpt lat="39.4873019960" lon="-8.3743147831">
        <ele>106.36</ele>
        <time>2018-12-21T12:54:04Z</time>
      </trkpt>
      <trkpt lat="39.4872424845" lon="-8.3744098339">
        <ele>105.88</ele>
        <time>2018-12-21T12:54:11Z</time>
      </trkpt>
      <trkpt lat="39.4871833920" lon="-8.3745325450">
        <ele>104.92</ele>
        <time>2018-12-21T12:54:20Z</time>
      </trkpt>
      <trkpt lat="39.4871470984" lon="-8.3745843451">
        <ele>104.44</ele>
        <time>2018-12-21T12:54:24Z</time>
      </trkpt>
      <trkpt lat="39.4870641176" lon="-8.3746833354">
        <ele>103.96</ele>
        <time>2018-12-21T12:54:33Z</time>
      </trkpt>
      <trkpt lat="39.4869985711" lon="-8.3747819066">
        <ele>103.96</ele>
        <time>2018-12-21T12:54:41Z</time>
      </trkpt>
      <trkpt lat="39.4869085494" lon="-8.3748912066">
        <ele>103.48</ele>
        <time>2018-12-21T12:54:50Z</time>
      </trkpt>
      <trkpt lat="39.4868384767" lon="-8.3750072960">
        <ele>103.00</ele>
        <time>2018-12-21T12:54:59Z</time>
      </trkpt>
      <trkpt lat="39.4868181087" lon="-8.3750327770">
        <ele>102.52</ele>
        <time>2018-12-21T12:55:02Z</time>
      </trkpt>
      <trkpt lat="39.4867223036" lon="-8.3751150873">
        <ele>102.52</ele>
        <time>2018-12-21T12:55:11Z</time>
      </trkpt>
      <trkpt lat="39.4866266660" lon="-8.3752589207">
        <ele>102.04</ele>
        <time>2018-12-21T12:55:22Z</time>
      </trkpt>
      <trkpt lat="39.4865710102" lon="-8.3753906004">
        <ele>101.56</ele>
        <time>2018-12-21T12:55:32Z</time>
      </trkpt>
      <trkpt lat="39.4865279272" lon="-8.3755117189">
        <ele>101.08</ele>
        <time>2018-12-21T12:55:40Z</time>
      </trkpt>
      <trkpt lat="39.4864784740" lon="-8.3756305743">
        <ele>100.60</ele>
        <time>2018-12-21T12:55:48Z</time>
      </trkpt>
      <trkpt lat="39.4864058867" lon="-8.3757648524">
        <ele>100.60</ele>
        <time>2018-12-21T12:55:57Z</time>
      </trkpt>
      <trkpt lat="39.4863357302" lon="-8.3758782595">
        <ele>99.63</ele>
        <time>2018-12-21T12:56:05Z</time>
      </trkpt>
      <trkpt lat="39.4863007776" lon="-8.3760136273">
        <ele>99.63</ele>
        <time>2018-12-21T12:56:14Z</time>
      </trkpt>
      <trkpt lat="39.4863199722" lon="-8.3761400264">
        <ele>99.15</ele>
        <time>2018-12-21T12:56:23Z</time>
      </trkpt>
      <trkpt lat="39.4863516558" lon="-8.3762975223">
        <ele>98.19</ele>
        <time>2018-12-21T12:56:33Z</time>
      </trkpt>
      <trkpt lat="39.4863778073" lon="-8.3764249273">
        <ele>98.19</ele>
        <time>2018-12-21T12:56:41Z</time>
      </trkpt>
      <trkpt lat="39.4864095747" lon="-8.3765578642">
        <ele>97.23</ele>
        <time>2018-12-21T12:56:49Z</time>
      </trkpt>
      <trkpt lat="39.4864444435" lon="-8.3766609617">
        <ele>97.23</ele>
        <time>2018-12-21T12:56:57Z</time>
      </trkpt>
      <trkpt lat="39.4864704274" lon="-8.3767521568">
        <ele>96.75</ele>
        <time>2018-12-21T12:57:04Z</time>
      </trkpt>
      <trkpt lat="39.4865141809" lon="-8.3769030310">
        <ele>96.27</ele>
        <time>2018-12-21T12:57:14Z</time>
      </trkpt>
      <trkpt lat="39.4865451101" lon="-8.3770381473">
        <ele>96.75</ele>
        <time>2018-12-21T12:57:22Z</time>
      </trkpt>
      <trkpt lat="39.4865839183" lon="-8.3771747723">
        <ele>96.27</ele>
        <time>2018-12-21T12:57:31Z</time>
      </trkpt>
      <trkpt lat="39.4865914620" lon="-8.3772095572">
        <ele>96.27</ele>
        <time>2018-12-21T12:57:33Z</time>
      </trkpt>
      <trkpt lat="39.4866101537" lon="-8.3773222100">
        <ele>96.75</ele>
        <time>2018-12-21T12:57:40Z</time>
      </trkpt>
      <trkpt lat="39.4866478723" lon="-8.3774332702">
        <ele>96.75</ele>
        <time>2018-12-21T12:57:49Z</time>
      </trkpt>
      <trkpt lat="39.4867038634" lon="-8.3775448333">
        <ele>97.71</ele>
        <time>2018-12-21T12:57:58Z</time>
      </trkpt>
      <trkpt lat="39.4867364690" lon="-8.3776547201">
        <ele>98.67</ele>
        <time>2018-12-21T12:58:06Z</time>
      </trkpt>
      <trkpt lat="39.4867414143" lon="-8.3776654489">
        <ele>98.19</ele>
        <time>2018-12-21T12:58:07Z</time>
      </trkpt>
      <trkpt lat="39.4867737684" lon="-8.3777701389">
        <ele>100.11</ele>
        <time>2018-12-21T12:58:15Z</time>
      </trkpt>
      <trkpt lat="39.4867984951" lon="-8.3778221067">
        <ele>101.56</ele>
        <time>2018-12-21T12:58:20Z</time>
      </trkpt>
      <trkpt lat="39.4868457690" lon="-8.3779392019">
        <ele>102.04</ele>
        <time>2018-12-21T12:58:28Z</time>
      </trkpt>
      <trkpt lat="39.4868844934" lon="-8.3780204225">
        <ele>103.48</ele>
        <time>2018-12-21T12:58:35Z</time>
      </trkpt>
      <trkpt lat="39.4869248103" lon="-8.3780992124">
        <ele>103.96</ele>
        <time>2018-12-21T12:58:42Z</time>
      </trkpt>
      <trkpt lat="39.4869742636" lon="-8.3781992085">
        <ele>104.92</ele>
        <time>2018-12-21T12:58:49Z</time>
      </trkpt>
      <trkpt lat="39.4869792927" lon="-8.3782335743">
        <ele>105.40</ele>
        <time>2018-12-21T12:58:52Z</time>
      </trkpt>
      <trkpt lat="39.4869872555" lon="-8.3783180639">
        <ele>106.36</ele>
        <time>2018-12-21T12:58:58Z</time>
      </trkpt>
      <trkpt lat="39.4869657140" lon="-8.3784071635">
        <ele>106.36</ele>
        <time>2018-12-21T12:59:05Z</time>
      </trkpt>
      <trkpt lat="39.4869170152" lon="-8.3785043098">
        <ele>105.88</ele>
        <time>2018-12-21T12:59:13Z</time>
      </trkpt>
      <trkpt lat="39.4868502952" lon="-8.3785563614">
        <ele>105.40</ele>
        <time>2018-12-21T12:59:19Z</time>
      </trkpt>
      <trkpt lat="39.4867527299" lon="-8.3786505740">
        <ele>105.40</ele>
        <time>2018-12-21T12:59:28Z</time>
      </trkpt>
      <trkpt lat="39.4866708387" lon="-8.3787241671">
        <ele>104.44</ele>
        <time>2018-12-21T12:59:36Z</time>
      </trkpt>
      <trkpt lat="39.4866102375" lon="-8.3788014483">
        <ele>104.44</ele>
        <time>2018-12-21T12:59:43Z</time>
      </trkpt>
      <trkpt lat="39.4865291007" lon="-8.3789126761">
        <ele>103.48</ele>
        <time>2018-12-21T12:59:52Z</time>
      </trkpt>
      <trkpt lat="39.4864320382" lon="-8.3790107444">
        <ele>103.48</ele>
        <time>2018-12-21T13:00:02Z</time>
      </trkpt>
      <trkpt lat="39.4863788132" lon="-8.3790987544">
        <ele>102.52</ele>
        <time>2018-12-21T13:00:10Z</time>
      </trkpt>
      <trkpt lat="39.4863554277" lon="-8.3791492134">
        <ele>102.04</ele>
        <time>2018-12-21T13:00:14Z</time>
      </trkpt>
      <trkpt lat="39.4863420166" lon="-8.3791922964">
        <ele>101.56</ele>
        <time>2018-12-21T13:00:17Z</time>
      </trkpt>
      <trkpt lat="39.4862983469" lon="-8.3792238962">
        <ele>101.56</ele>
        <time>2018-12-21T13:00:21Z</time>
      </trkpt>
      <trkpt lat="39.4862253405" lon="-8.3793412428">
        <ele>101.08</ele>
        <time>2018-12-21T13:00:30Z</time>
      </trkpt>
      <trkpt lat="39.4862051401" lon="-8.3794294205">
        <ele>100.11</ele>
        <time>2018-12-21T13:00:37Z</time>
      </trkpt>
      <trkpt lat="39.4861907233" lon="-8.3794527221">
        <ele>99.63</ele>
        <time>2018-12-21T13:00:39Z</time>
      </trkpt>
      <trkpt lat="39.4861395098" lon="-8.3795629442">
        <ele>98.67</ele>
        <time>2018-12-21T13:00:48Z</time>
      </trkpt>
      <trkpt lat="39.4861217402" lon="-8.3796904329">
        <ele>97.23</ele>
        <time>2018-12-21T13:00:58Z</time>
      </trkpt>
      <trkpt lat="39.4860828482" lon="-8.3798528742">
        <ele>96.75</ele>
        <time>2018-12-21T13:01:08Z</time>
      </trkpt>
      <trkpt lat="39.4860654976" lon="-8.3799888287">
        <ele>96.75</ele>
        <time>2018-12-21T13:01:16Z</time>
      </trkpt>
      <trkpt lat="39.4860938285" lon="-8.3801658545">
        <ele>97.23</ele>
        <time>2018-12-21T13:01:26Z</time>
      </trkpt>
      <trkpt lat="39.4861101732" lon="-8.3803118672">
        <ele>97.71</ele>
        <time>2018-12-21T13:01:35Z</time>
      </trkpt>
      <trkpt lat="39.4861323852" lon="-8.3803953510">
        <ele>97.71</ele>
        <time>2018-12-21T13:01:41Z</time>
      </trkpt>
      <trkpt lat="39.4861700200" lon="-8.3805593010">
        <ele>98.19</ele>
        <time>2018-12-21T13:01:51Z</time>
      </trkpt>
      <trkpt lat="39.4861970935" lon="-8.3807235863">
        <ele>98.67</ele>
        <time>2018-12-21T13:02:01Z</time>
      </trkpt>
      <trkpt lat="39.4862263463" lon="-8.3808893804">
        <ele>99.15</ele>
        <time>2018-12-21T13:02:11Z</time>
      </trkpt>
      <trkpt lat="39.4862426072" lon="-8.3810302801">
        <ele>100.11</ele>
        <time>2018-12-21T13:02:19Z</time>
      </trkpt>
      <trkpt lat="39.4862735365" lon="-8.3811472915">
        <ele>99.15</ele>
        <time>2018-12-21T13:02:27Z</time>
      </trkpt>
      <trkpt lat="39.4863072317" lon="-8.3812762890">
        <ele>99.15</ele>
        <time>2018-12-21T13:02:36Z</time>
      </trkpt>
      <trkpt lat="39.4863077346" lon="-8.3813101519">
        <ele>99.63</ele>
        <time>2018-12-21T13:02:43Z</time>
      </trkpt>
      <trkpt lat="39.4863261748" lon="-8.3813440986">
        <ele>100.11</ele>
        <time>2018-12-21T13:02:46Z</time>
      </trkpt>
      <trkpt lat="39.4864085689" lon="-8.3814933803">
        <ele>99.15</ele>
        <time>2018-12-21T13:02:56Z</time>
      </trkpt>
      <trkpt lat="39.4864585251" lon="-8.3815288357">
        <ele>99.63</ele>
        <time>2018-12-21T13:03:02Z</time>
      </trkpt>
      <trkpt lat="39.4865258317" lon="-8.3815595973">
        <ele>99.63</ele>
        <time>2018-12-21T13:03:09Z</time>
      </trkpt>
      <trkpt lat="39.4865844212" lon="-8.3815992437">
        <ele>99.63</ele>
        <time>2018-12-21T13:03:15Z</time>
      </trkpt>
      <trkpt lat="39.4866699167" lon="-8.3816571627">
        <ele>99.63</ele>
        <time>2018-12-21T13:03:22Z</time>
      </trkpt>
      <trkpt lat="39.4867287576" lon="-8.3816810511">
        <ele>100.60</ele>
        <time>2018-12-21T13:03:28Z</time>
      </trkpt>
      <trkpt lat="39.4868311845" lon="-8.3817258943">
        <ele>100.60</ele>
        <time>2018-12-21T13:03:34Z</time>
      </trkpt>
      <trkpt lat="39.4869176857" lon="-8.3817889262">
        <ele>100.60</ele>
        <time>2018-12-21T13:03:41Z</time>
      </trkpt>
      <trkpt lat="39.4869771134" lon="-8.3818132337">
        <ele>101.08</ele>
        <time>2018-12-21T13:03:47Z</time>
      </trkpt>
      <trkpt lat="39.4870439172" lon="-8.3818700630">
        <ele>101.56</ele>
        <time>2018-12-21T13:03:54Z</time>
      </trkpt>
      <trkpt lat="39.4870807976" lon="-8.3818942029">
        <ele>102.52</ele>
        <time>2018-12-21T13:03:59Z</time>
      </trkpt>
      <trkpt lat="39.4871346094" lon="-8.3819390461">
        <ele>102.04</ele>
        <time>2018-12-21T13:04:05Z</time>
      </trkpt>
      <trkpt lat="39.4872266427" lon="-8.3820394613">
        <ele>103.00</ele>
        <time>2018-12-21T13:04:14Z</time>
      </trkpt>
      <trkpt lat="39.4873006549" lon="-8.3821123838">
        <ele>103.00</ele>
        <time>2018-12-21T13:04:22Z</time>
      </trkpt>
      <trkpt lat="39.4873511977" lon="-8.3821737394">
        <ele>103.96</ele>
        <time>2018-12-21T13:04:29Z</time>
      </trkpt>
      <trkpt lat="39.4874296524" lon="-8.3822585642">
        <ele>103.96</ele>
        <time>2018-12-21T13:04:37Z</time>
      </trkpt>
      <trkpt lat="39.4875112083" lon="-8.3823207580">
        <ele>103.96</ele>
        <time>2018-12-21T13:04:44Z</time>
      </trkpt>
      <trkpt lat="39.4875967037" lon="-8.3823659364">
        <ele>103.96</ele>
        <time>2018-12-21T13:04:50Z</time>
      </trkpt>
      <trkpt lat="39.4876823667" lon="-8.3824019786">
        <ele>104.92</ele>
        <time>2018-12-21T13:04:57Z</time>
      </trkpt>
      <trkpt lat="39.4877339993" lon="-8.3824206702">
        <ele>103.96</ele>
        <time>2018-12-21T13:05:02Z</time>
      </trkpt>
      <trkpt lat="39.4877851289" lon="-8.3824455645">
        <ele>103.96</ele>
        <time>2018-12-21T13:05:07Z</time>
      </trkpt>
      <trkpt lat="39.4878898188" lon="-8.3825055789">
        <ele>103.96</ele>
        <time>2018-12-21T13:05:16Z</time>
      </trkpt>
      <trkpt lat="39.4879966881" lon="-8.3825659286">
        <ele>103.48</ele>
        <time>2018-12-21T13:05:25Z</time>
      </trkpt>
      <trkpt lat="39.4880353287" lon="-8.3825716283">
        <ele>103.48</ele>
        <time>2018-12-21T13:05:29Z</time>
      </trkpt>
      <trkpt lat="39.4880529307" lon="-8.3825914096">
        <ele>103.48</ele>
        <time>2018-12-21T13:05:31Z</time>
      </trkpt>
      <trkpt lat="39.4881076645" lon="-8.3826654218">
        <ele>102.52</ele>
        <time>2018-12-21T13:05:36Z</time>
      </trkpt>
      <trkpt lat="39.4881500769" lon="-8.3828023821">
        <ele>102.04</ele>
        <time>2018-12-21T13:05:44Z</time>
      </trkpt>
      <trkpt lat="39.4881805032" lon="-8.3829395100">
        <ele>102.52</ele>
        <time>2018-12-21T13:05:53Z</time>
      </trkpt>
      <trkpt lat="39.4882227480" lon="-8.3830675017">
        <ele>101.56</ele>
        <time>2018-12-21T13:06:01Z</time>
      </trkpt>
      <trkpt lat="39.4882737100" lon="-8.3832115028">
        <ele>101.08</ele>
        <time>2018-12-21T13:06:11Z</time>
      </trkpt>
      <trkpt lat="39.4882890489" lon="-8.3832390793">
        <ele>100.60</ele>
        <time>2018-12-21T13:06:13Z</time>
      </trkpt>
      <trkpt lat="39.4883272704" lon="-8.3833423443">
        <ele>100.60</ele>
        <time>2018-12-21T13:06:21Z</time>
      </trkpt>
      <trkpt lat="39.4883626420" lon="-8.3834302705">
        <ele>100.11</ele>
        <time>2018-12-21T13:06:28Z</time>
      </trkpt>
      <trkpt lat="39.4883849379" lon="-8.3834877703">
        <ele>98.67</ele>
        <time>2018-12-21T13:06:32Z</time>
      </trkpt>
      <trkpt lat="39.4884105865" lon="-8.3835734334">
        <ele>98.19</ele>
        <time>2018-12-21T13:06:38Z</time>
      </trkpt>
      <trkpt lat="39.4884322956" lon="-8.3836636227">
        <ele>98.19</ele>
        <time>2018-12-21T13:06:45Z</time>
      </trkpt>
      <trkpt lat="39.4884452038" lon="-8.3837590925">
        <ele>98.19</ele>
        <time>2018-12-21T13:06:52Z</time>
      </trkpt>
      <trkpt lat="39.4884588663" lon="-8.3839197736">
        <ele>97.23</ele>
        <time>2018-12-21T13:07:01Z</time>
      </trkpt>
      <trkpt lat="39.4884509034" lon="-8.3839795366">
        <ele>96.75</ele>
        <time>2018-12-21T13:07:04Z</time>
      </trkpt>
      <trkpt lat="39.4884063117" lon="-8.3841147367">
        <ele>97.71</ele>
        <time>2018-12-21T13:07:15Z</time>
      </trkpt>
      <trkpt lat="39.4883374125" lon="-8.3842745796">
        <ele>98.19</ele>
        <time>2018-12-21T13:07:26Z</time>
      </trkpt>
      <trkpt lat="39.4883229118" lon="-8.3844246995">
        <ele>99.15</ele>
        <time>2018-12-21T13:07:35Z</time>
      </trkpt>
      <trkpt lat="39.4883049745" lon="-8.3845403697">
        <ele>99.63</ele>
        <time>2018-12-21T13:07:40Z</time>
      </trkpt>
      <trkpt lat="39.4883506559" lon="-8.3846650086">
        <ele>100.60</ele>
        <time>2018-12-21T13:07:48Z</time>
      </trkpt>
      <trkpt lat="39.4883624744" lon="-8.3847198263">
        <ele>101.08</ele>
        <time>2018-12-21T13:07:52Z</time>
      </trkpt>
      <trkpt lat="39.4884032104" lon="-8.3848345745">
        <ele>102.04</ele>
        <time>2018-12-21T13:08:00Z</time>
      </trkpt>
      <trkpt lat="39.4884480536" lon="-8.3849401865">
        <ele>102.52</ele>
        <time>2018-12-21T13:08:07Z</time>
      </trkpt>
      <trkpt lat="39.4884662423" lon="-8.3850463852">
        <ele>103.48</ele>
        <time>2018-12-21T13:08:15Z</time>
      </trkpt>
      <trkpt lat="39.4884670805" lon="-8.3850582875">
        <ele>102.52</ele>
        <time>2018-12-21T13:08:16Z</time>
      </trkpt>
      <trkpt lat="39.4884977583" lon="-8.3851543441">
        <ele>103.00</ele>
        <time>2018-12-21T13:08:23Z</time>
      </trkpt>
      <trkpt lat="39.4885083195" lon="-8.3851972595">
        <ele>102.52</ele>
        <time>2018-12-21T13:08:26Z</time>
      </trkpt>
      <trkpt lat="39.4885358121" lon="-8.3852863591">
        <ele>101.56</ele>
        <time>2018-12-21T13:08:34Z</time>
      </trkpt>
      <trkpt lat="39.4885384943" lon="-8.3852974232">
        <ele>102.04</ele>
        <time>2018-12-21T13:08:35Z</time>
      </trkpt>
      <trkpt lat="39.4885823317" lon="-8.3854349703">
        <ele>101.08</ele>
        <time>2018-12-21T13:08:44Z</time>
      </trkpt>
      <trkpt lat="39.4885946531" lon="-8.3854726888">
        <ele>101.56</ele>
        <time>2018-12-21T13:08:46Z</time>
      </trkpt>
      <trkpt lat="39.4886353891" lon="-8.3856179472">
        <ele>101.08</ele>
        <time>2018-12-21T13:08:54Z</time>
      </trkpt>
      <trkpt lat="39.4886596128" lon="-8.3857193682">
        <ele>100.60</ele>
        <time>2018-12-21T13:09:00Z</time>
      </trkpt>
      <trkpt lat="39.4886897039" lon="-8.3858041093">
        <ele>100.60</ele>
        <time>2018-12-21T13:09:06Z</time>
      </trkpt>
      <trkpt lat="39.4887071382" lon="-8.3858643752">
        <ele>100.11</ele>
        <time>2018-12-21T13:09:10Z</time>
      </trkpt>
      <trkpt lat="39.4887442701" lon="-8.3859901875">
        <ele>100.60</ele>
        <time>2018-12-21T13:09:19Z</time>
      </trkpt>
      <trkpt lat="39.4887549151" lon="-8.3861157484">
        <ele>100.11</ele>
        <time>2018-12-21T13:09:28Z</time>
      </trkpt>
      <trkpt lat="39.4887865148" lon="-8.3862207737">
        <ele>100.60</ele>
        <time>2018-12-21T13:09:34Z</time>
      </trkpt>
      <trkpt lat="39.4888056256" lon="-8.3863116335">
        <ele>100.60</ele>
        <time>2018-12-21T13:09:41Z</time>
      </trkpt>
      <trkpt lat="39.4888687413" lon="-8.3864497673">
        <ele>100.11</ele>
        <time>2018-12-21T13:09:52Z</time>
      </trkpt>
      <trkpt lat="39.4888772070" lon="-8.3864800259">
        <ele>100.11</ele>
        <time>2018-12-21T13:09:54Z</time>
      </trkpt>
      <trkpt lat="39.4889748562" lon="-8.3866494242">
        <ele>99.63</ele>
        <time>2018-12-21T13:10:05Z</time>
      </trkpt>
      <trkpt lat="39.4890122395" lon="-8.3867266215">
        <ele>99.63</ele>
        <time>2018-12-21T13:10:11Z</time>
      </trkpt>
      <trkpt lat="39.4890331104" lon="-8.3868111949">
        <ele>99.15</ele>
        <time>2018-12-21T13:10:16Z</time>
      </trkpt>
      <trkpt lat="39.4891005009" lon="-8.3869713731">
        <ele>99.63</ele>
        <time>2018-12-21T13:10:26Z</time>
      </trkpt>
      <trkpt lat="39.4891243055" lon="-8.3870945033">
        <ele>99.63</ele>
        <time>2018-12-21T13:10:34Z</time>
      </trkpt>
      <trkpt lat="39.4891345315" lon="-8.3871799149">
        <ele>100.60</ele>
        <time>2018-12-21T13:10:41Z</time>
      </trkpt>
      <trkpt lat="39.4891688135" lon="-8.3873143606">
        <ele>99.63</ele>
        <time>2018-12-21T13:10:49Z</time>
      </trkpt>
      <trkpt lat="39.4891840685" lon="-8.3874510694">
        <ele>100.60</ele>
        <time>2018-12-21T13:10:58Z</time>
      </trkpt>
      <trkpt lat="39.4891872536" lon="-8.3874737844">
        <ele>100.60</ele>
        <time>2018-12-21T13:11:00Z</time>
      </trkpt>
      <trkpt lat="39.4892229605" lon="-8.3875324577">
        <ele>100.11</ele>
        <time>2018-12-21T13:11:08Z</time>
      </trkpt>
      <trkpt lat="39.4892018382" lon="-8.3875612915">
        <ele>100.60</ele>
        <time>2018-12-21T13:11:18Z</time>
      </trkpt>
      <trkpt lat="39.4892180152" lon="-8.3875906281">
        <ele>100.60</ele>
        <time>2018-12-21T13:11:21Z</time>
      </trkpt>
      <trkpt lat="39.4893030077" lon="-8.3877477888">
        <ele>101.56</ele>
        <time>2018-12-21T13:11:32Z</time>
      </trkpt>
      <trkpt lat="39.4893450849" lon="-8.3878610283">
        <ele>101.56</ele>
        <time>2018-12-21T13:11:40Z</time>
      </trkpt>
      <trkpt lat="39.4893833064" lon="-8.3879550733">
        <ele>101.56</ele>
        <time>2018-12-21T13:11:47Z</time>
      </trkpt>
      <trkpt lat="39.4894372020" lon="-8.3880784549">
        <ele>101.56</ele>
        <time>2018-12-21T13:11:56Z</time>
      </trkpt>
      <trkpt lat="39.4894909300" lon="-8.3882061113">
        <ele>102.52</ele>
        <time>2018-12-21T13:12:04Z</time>
      </trkpt>
      <trkpt lat="39.4894943666" lon="-8.3882366214">
        <ele>102.52</ele>
        <time>2018-12-21T13:12:06Z</time>
      </trkpt>
      <trkpt lat="39.4895193446" lon="-8.3884319197">
        <ele>103.48</ele>
        <time>2018-12-21T13:12:17Z</time>
      </trkpt>
      <trkpt lat="39.4895441551" lon="-8.3885919303">
        <ele>103.00</ele>
        <time>2018-12-21T13:12:26Z</time>
      </trkpt>
      <trkpt lat="39.4895750843" lon="-8.3887418825">
        <ele>103.00</ele>
        <time>2018-12-21T13:12:35Z</time>
      </trkpt>
      <trkpt lat="39.4895961229" lon="-8.3888560440">
        <ele>103.00</ele>
        <time>2018-12-21T13:12:43Z</time>
      </trkpt>
      <trkpt lat="39.4896119647" lon="-8.3889922500">
        <ele>102.04</ele>
        <time>2018-12-21T13:12:53Z</time>
      </trkpt>
      <trkpt lat="39.4896230288" lon="-8.3890176471">
        <ele>102.04</ele>
        <time>2018-12-21T13:13:00Z</time>
      </trkpt>
      <trkpt lat="39.4896320812" lon="-8.3891530987">
        <ele>102.04</ele>
        <time>2018-12-21T13:13:09Z</time>
      </trkpt>
      <trkpt lat="39.4896361046" lon="-8.3892903104">
        <ele>102.04</ele>
        <time>2018-12-21T13:13:18Z</time>
      </trkpt>
      <trkpt lat="39.4896436483" lon="-8.3894354850">
        <ele>102.04</ele>
        <time>2018-12-21T13:13:27Z</time>
      </trkpt>
      <trkpt lat="39.4896503538" lon="-8.3895484731">
        <ele>102.04</ele>
        <time>2018-12-21T13:13:36Z</time>
      </trkpt>
      <trkpt lat="39.4896527845" lon="-8.3895622194">
        <ele>102.04</ele>
        <time>2018-12-21T13:13:37Z</time>
      </trkpt>
      <trkpt lat="39.4896703027" lon="-8.3896060567">
        <ele>102.04</ele>
        <time>2018-12-21T13:13:40Z</time>
      </trkpt>
      <trkpt lat="39.4897539541" lon="-8.3896725252">
        <ele>103.00</ele>
        <time>2018-12-21T13:13:49Z</time>
      </trkpt>
      <trkpt lat="39.4898298942" lon="-8.3896604553">
        <ele>103.96</ele>
        <time>2018-12-21T13:13:56Z</time>
      </trkpt>
      <trkpt lat="39.4899317343" lon="-8.3896653168">
        <ele>105.88</ele>
        <time>2018-12-21T13:14:05Z</time>
      </trkpt>
      <trkpt lat="39.4899876416" lon="-8.3896276820">
        <ele>105.40</ele>
        <time>2018-12-21T13:14:11Z</time>
      </trkpt>
      <trkpt lat="39.4900976121" lon="-8.3895863593">
        <ele>106.84</ele>
        <time>2018-12-21T13:14:20Z</time>
      </trkpt>
      <trkpt lat="39.4901129510" lon="-8.3895802405">
        <ele>106.84</ele>
        <time>2018-12-21T13:14:22Z</time>
      </trkpt>
      <trkpt lat="39.4901649188" lon="-8.3895514905">
        <ele>107.32</ele>
        <time>2018-12-21T13:14:27Z</time>
      </trkpt>
      <trkpt lat="39.4901957642" lon="-8.3895240817">
        <ele>107.32</ele>
        <time>2018-12-21T13:14:31Z</time>
      </trkpt>
      <trkpt lat="39.4902774878" lon="-8.3895144425">
        <ele>107.81</ele>
        <time>2018-12-21T13:14:37Z</time>
      </trkpt>
      <trkpt lat="39.4903748855" lon="-8.3894654922">
        <ele>109.25</ele>
        <time>2018-12-21T13:14:46Z</time>
      </trkpt>
      <trkpt lat="39.4904601295" lon="-8.3894130215">
        <ele>108.29</ele>
        <time>2018-12-21T13:14:54Z</time>
      </trkpt>
      <trkpt lat="39.4905113429" lon="-8.3894100040">
        <ele>108.77</ele>
        <time>2018-12-21T13:14:58Z</time>
      </trkpt>
      <trkpt lat="39.4905575272" lon="-8.3894692641">
        <ele>107.81</ele>
        <time>2018-12-21T13:15:03Z</time>
      </trkpt>
      <trkpt lat="39.4905719440" lon="-8.3895116765">
        <ele>100.60</ele>
        <time>2018-12-21T13:15:06Z</time>
      </trkpt>
      <trkpt lat="39.4905774761" lon="-8.3895285241">
        <ele>111.65</ele>
        <time>2018-12-21T13:15:07Z</time>
      </trkpt>
      <trkpt lat="39.4905809965" lon="-8.3895444497">
        <ele>105.88</ele>
        <time>2018-12-21T13:15:08Z</time>
      </trkpt>
      <trkpt lat="39.4906038791" lon="-8.3896817453">
        <ele>105.88</ele>
        <time>2018-12-21T13:15:17Z</time>
      </trkpt>
      <trkpt lat="39.4906244986" lon="-8.3898181189">
        <ele>104.92</ele>
        <time>2018-12-21T13:15:25Z</time>
      </trkpt>
      <trkpt lat="39.4906310365" lon="-8.3900041971">
        <ele>103.96</ele>
        <time>2018-12-21T13:15:38Z</time>
      </trkpt>
      <trkpt lat="39.4906282704" lon="-8.3901447617">
        <ele>103.00</ele>
        <time>2018-12-21T13:15:47Z</time>
      </trkpt>
      <trkpt lat="39.4906297792" lon="-8.3903102204">
        <ele>103.00</ele>
        <time>2018-12-21T13:15:57Z</time>
      </trkpt>
      <trkpt lat="39.4906501472" lon="-8.3904635254">
        <ele>102.52</ele>
        <time>2018-12-21T13:16:08Z</time>
      </trkpt>
      <trkpt lat="39.4906836748" lon="-8.3906563092">
        <ele>103.00</ele>
        <time>2018-12-21T13:16:18Z</time>
      </trkpt>
      <trkpt lat="39.4907106645" lon="-8.3908162359">
        <ele>103.00</ele>
        <time>2018-12-21T13:16:27Z</time>
      </trkpt>
      <trkpt lat="39.4907187950" lon="-8.3908599056">
        <ele>103.96</ele>
        <time>2018-12-21T13:16:30Z</time>
      </trkpt>
      <trkpt lat="39.4907659851" lon="-8.3910241071">
        <ele>104.44</ele>
        <time>2018-12-21T13:16:41Z</time>
      </trkpt>
      <trkpt lat="39.4907773845" lon="-8.3911078423">
        <ele>104.92</ele>
        <time>2018-12-21T13:16:47Z</time>
      </trkpt>
      <trkpt lat="39.4908316154" lon="-8.3912659250">
        <ele>105.88</ele>
        <time>2018-12-21T13:16:56Z</time>
      </trkpt>
      <trkpt lat="39.4908948150" lon="-8.3914012089">
        <ele>105.88</ele>
        <time>2018-12-21T13:17:05Z</time>
      </trkpt>
      <trkpt lat="39.4909337070" lon="-8.3915082458">
        <ele>104.92</ele>
        <time>2018-12-21T13:17:14Z</time>
      </trkpt>
      <trkpt lat="39.4909441844" lon="-8.3915400971">
        <ele>104.92</ele>
        <time>2018-12-21T13:17:21Z</time>
      </trkpt>
      <trkpt lat="39.4909386523" lon="-8.3915670030">
        <ele>105.40</ele>
        <time>2018-12-21T13:17:30Z</time>
      </trkpt>
      <trkpt lat="39.4909432624" lon="-8.3915873710">
        <ele>104.92</ele>
        <time>2018-12-21T13:17:43Z</time>
      </trkpt>
      <trkpt lat="39.4909594394" lon="-8.3915951662">
        <ele>105.40</ele>
        <time>2018-12-21T13:17:53Z</time>
      </trkpt>
      <trkpt lat="39.4909686595" lon="-8.3916518278">
        <ele>103.96</ele>
        <time>2018-12-21T13:18:08Z</time>
      </trkpt>
      <trkpt lat="39.4909988344" lon="-8.3917677496">
        <ele>103.96</ele>
        <time>2018-12-21T13:18:17Z</time>
      </trkpt>
      <trkpt lat="39.4910507184" lon="-8.3919306099">
        <ele>103.00</ele>
        <time>2018-12-21T13:18:29Z</time>
      </trkpt>
      <trkpt lat="39.4910686556" lon="-8.3920284268">
        <ele>102.04</ele>
        <time>2018-12-21T13:18:36Z</time>
      </trkpt>
      <trkpt lat="39.4911054522" lon="-8.3921419177">
        <ele>103.00</ele>
        <time>2018-12-21T13:18:44Z</time>
      </trkpt>
      <trkpt lat="39.4911441766" lon="-8.3923124056">
        <ele>102.52</ele>
        <time>2018-12-21T13:18:55Z</time>
      </trkpt>
      <trkpt lat="39.4911849964" lon="-8.3924698178">
        <ele>102.52</ele>
        <time>2018-12-21T13:19:05Z</time>
      </trkpt>
      <trkpt lat="39.4912230503" lon="-8.3926013298">
        <ele>102.04</ele>
        <time>2018-12-21T13:19:14Z</time>
      </trkpt>
      <trkpt lat="39.4912499562" lon="-8.3927140664">
        <ele>102.04</ele>
        <time>2018-12-21T13:19:22Z</time>
      </trkpt>
      <trkpt lat="39.4912812207" lon="-8.3928252943">
        <ele>101.56</ele>
        <time>2018-12-21T13:19:31Z</time>
      </trkpt>
      <trkpt lat="39.4913020078" lon="-8.3929128852">
        <ele>102.04</ele>
        <time>2018-12-21T13:19:38Z</time>
      </trkpt>
      <trkpt lat="39.4913306739" lon="-8.3930185810">
        <ele>102.04</ele>
        <time>2018-12-21T13:19:46Z</time>
      </trkpt>
      <trkpt lat="39.4913701527" lon="-8.3931423817">
        <ele>102.04</ele>
        <time>2018-12-21T13:19:54Z</time>
      </trkpt>
      <trkpt lat="39.4914314244" lon="-8.3931976184">
        <ele>102.52</ele>
        <time>2018-12-21T13:20:01Z</time>
      </trkpt>
      <trkpt lat="39.4914938696" lon="-8.3932784200">
        <ele>103.48</ele>
        <time>2018-12-21T13:20:09Z</time>
      </trkpt>
      <trkpt lat="39.4915776048" lon="-8.3933490794">
        <ele>103.96</ele>
        <time>2018-12-21T13:20:17Z</time>
      </trkpt>
      <trkpt lat="39.4916492701" lon="-8.3934525959">
        <ele>104.92</ele>
        <time>2018-12-21T13:20:25Z</time>
      </trkpt>
      <trkpt lat="39.4916867372" lon="-8.3935377561">
        <ele>105.88</ele>
        <time>2018-12-21T13:20:31Z</time>
      </trkpt>
      <trkpt lat="39.4917149842" lon="-8.3936352376">
        <ele>106.36</ele>
        <time>2018-12-21T13:20:38Z</time>
      </trkpt>
      <trkpt lat="39.4917363580" lon="-8.3937019575">
        <ele>106.36</ele>
        <time>2018-12-21T13:20:43Z</time>
      </trkpt>
      <trkpt lat="39.4917432312" lon="-8.3937495667">
        <ele>107.32</ele>
        <time>2018-12-21T13:20:46Z</time>
      </trkpt>
      <trkpt lat="39.4917513616" lon="-8.3938405942">
        <ele>107.81</ele>
        <time>2018-12-21T13:20:54Z</time>
      </trkpt>
      <trkpt lat="39.4917569775" lon="-8.3939048834">
        <ele>108.29</ele>
        <time>2018-12-21T13:21:03Z</time>
      </trkpt>
      <trkpt lat="39.4917620905" lon="-8.3940097410">
        <ele>108.29</ele>
        <time>2018-12-21T13:21:11Z</time>
      </trkpt>
      <trkpt lat="39.4917608332" lon="-8.3940207213">
        <ele>108.77</ele>
        <time>2018-12-21T13:21:12Z</time>
      </trkpt>
      <trkpt lat="39.4917576481" lon="-8.3941772953">
        <ele>109.73</ele>
        <time>2018-12-21T13:21:23Z</time>
      </trkpt>
      <trkpt lat="39.4917760044" lon="-8.3942760341">
        <ele>110.21</ele>
        <time>2018-12-21T13:21:31Z</time>
      </trkpt>
      <trkpt lat="39.4917964563" lon="-8.3943232242">
        <ele>109.25</ele>
        <time>2018-12-21T13:21:34Z</time>
      </trkpt>
      <trkpt lat="39.4918578118" lon="-8.3944860846">
        <ele>108.77</ele>
        <time>2018-12-21T13:21:45Z</time>
      </trkpt>
      <trkpt lat="39.4918817841" lon="-8.3946247213">
        <ele>109.73</ele>
        <time>2018-12-21T13:21:55Z</time>
      </trkpt>
      <trkpt lat="39.4919082709" lon="-8.3947331831">
        <ele>107.81</ele>
        <time>2018-12-21T13:22:03Z</time>
      </trkpt>
      <trkpt lat="39.4919426367" lon="-8.3948076144">
        <ele>108.77</ele>
        <time>2018-12-21T13:22:11Z</time>
      </trkpt>
      <trkpt lat="39.4920052495" lon="-8.3949116338">
        <ele>107.81</ele>
        <time>2018-12-21T13:22:21Z</time>
      </trkpt>
      <trkpt lat="39.4920617435" lon="-8.3949699719">
        <ele>107.32</ele>
        <time>2018-12-21T13:22:29Z</time>
      </trkpt>
      <trkpt lat="39.4921197463" lon="-8.3950270526">
        <ele>107.32</ele>
        <time>2018-12-21T13:22:35Z</time>
      </trkpt>
      <trkpt lat="39.4921400305" lon="-8.3950603288">
        <ele>106.84</ele>
        <time>2018-12-21T13:22:38Z</time>
      </trkpt>
      <trkpt lat="39.4922088459" lon="-8.3952097781">
        <ele>106.36</ele>
        <time>2018-12-21T13:22:48Z</time>
      </trkpt>
      <trkpt lat="39.4922571257" lon="-8.3953384403">
        <ele>106.36</ele>
        <time>2018-12-21T13:22:56Z</time>
      </trkpt>
      <trkpt lat="39.4922956824" lon="-8.3954427950">
        <ele>106.36</ele>
        <time>2018-12-21T13:23:03Z</time>
      </trkpt>
      <trkpt lat="39.4922931679" lon="-8.3955284581">
        <ele>105.88</ele>
        <time>2018-12-21T13:23:10Z</time>
      </trkpt>
      <trkpt lat="39.4922948442" lon="-8.3955473173">
        <ele>105.40</ele>
        <time>2018-12-21T13:23:11Z</time>
      </trkpt>
      <trkpt lat="39.4922977779" lon="-8.3955830242">
        <ele>105.40</ele>
        <time>2018-12-21T13:23:13Z</time>
      </trkpt>
      <trkpt lat="39.4923279528" lon="-8.3956712019">
        <ele>103.96</ele>
        <time>2018-12-21T13:23:19Z</time>
      </trkpt>
      <trkpt lat="39.4923774060" lon="-8.3958323859">
        <ele>102.52</ele>
        <time>2018-12-21T13:23:29Z</time>
      </trkpt>
      <trkpt lat="39.4923820999" lon="-8.3958469704">
        <ele>102.52</ele>
        <time>2018-12-21T13:23:30Z</time>
      </trkpt>
      <trkpt lat="39.4924174715" lon="-8.3959815837">
        <ele>101.56</ele>
        <time>2018-12-21T13:23:39Z</time>
      </trkpt>
      <trkpt lat="39.4924262725" lon="-8.3961349726">
        <ele>99.63</ele>
        <time>2018-12-21T13:23:48Z</time>
      </trkpt>
      <trkpt lat="39.4924289547" lon="-8.3961462881">
        <ele>99.63</ele>
        <time>2018-12-21T13:23:49Z</time>
      </trkpt>
      <trkpt lat="39.4924466405" lon="-8.3961779717">
        <ele>99.15</ele>
        <time>2018-12-21T13:23:52Z</time>
      </trkpt>
      <trkpt lat="39.4924494904" lon="-8.3962853439">
        <ele>98.67</ele>
        <time>2018-12-21T13:24:00Z</time>
      </trkpt>
      <trkpt lat="39.4924734626" lon="-8.3964179456">
        <ele>97.23</ele>
        <time>2018-12-21T13:24:07Z</time>
      </trkpt>
      <trkpt lat="39.4924765639" lon="-8.3964533173">
        <ele>97.71</ele>
        <time>2018-12-21T13:24:09Z</time>
      </trkpt>
      <trkpt lat="39.4924871251" lon="-8.3965244796">
        <ele>97.23</ele>
        <time>2018-12-21T13:24:13Z</time>
      </trkpt>
      <trkpt lat="39.4925148692" lon="-8.3966817241">
        <ele>95.79</ele>
        <time>2018-12-21T13:24:23Z</time>
      </trkpt>
      <trkpt lat="39.4925157912" lon="-8.3967647888">
        <ele>94.35</ele>
        <time>2018-12-21T13:24:29Z</time>
      </trkpt>
      <trkpt lat="39.4925297052" lon="-8.3967947960">
        <ele>94.83</ele>
        <time>2018-12-21T13:24:31Z</time>
      </trkpt>
      <trkpt lat="39.4925508276" lon="-8.3969375398">
        <ele>93.39</ele>
        <time>2018-12-21T13:24:40Z</time>
      </trkpt>
      <trkpt lat="39.4925703574" lon="-8.3970893361">
        <ele>92.42</ele>
        <time>2018-12-21T13:24:50Z</time>
      </trkpt>
      <trkpt lat="39.4926069025" lon="-8.3972691279">
        <ele>91.46</ele>
        <time>2018-12-21T13:25:00Z</time>
      </trkpt>
      <trkpt lat="39.4926463813" lon="-8.3974283002">
        <ele>90.98</ele>
        <time>2018-12-21T13:25:11Z</time>
      </trkpt>
      <trkpt lat="39.4926599599" lon="-8.3975556213">
        <ele>90.50</ele>
        <time>2018-12-21T13:25:20Z</time>
      </trkpt>
      <trkpt lat="39.4926892966" lon="-8.3976618201">
        <ele>90.50</ele>
        <time>2018-12-21T13:25:26Z</time>
      </trkpt>
      <trkpt lat="39.4927015342" lon="-8.3977850340">
        <ele>90.02</ele>
        <time>2018-12-21T13:25:35Z</time>
      </trkpt>
      <trkpt lat="39.4927039649" lon="-8.3979056496">
        <ele>90.02</ele>
        <time>2018-12-21T13:25:43Z</time>
      </trkpt>
      <trkpt lat="39.4927157834" lon="-8.3979965933">
        <ele>90.02</ele>
        <time>2018-12-21T13:25:50Z</time>
      </trkpt>
      <trkpt lat="39.4927305356" lon="-8.3981250040">
        <ele>90.50</ele>
        <time>2018-12-21T13:25:58Z</time>
      </trkpt>
      <trkpt lat="39.4927279372" lon="-8.3982333820">
        <ele>90.98</ele>
        <time>2018-12-21T13:26:05Z</time>
      </trkpt>
      <trkpt lat="39.4927416835" lon="-8.3983619604">
        <ele>91.94</ele>
        <time>2018-12-21T13:26:13Z</time>
      </trkpt>
      <trkpt lat="39.4927375764" lon="-8.3984627947">
        <ele>92.90</ele>
        <time>2018-12-21T13:26:21Z</time>
      </trkpt>
      <trkpt lat="39.4927402586" lon="-8.3984767925">
        <ele>92.42</ele>
        <time>2018-12-21T13:26:22Z</time>
      </trkpt>
      <trkpt lat="39.4927203935" lon="-8.3986133337">
        <ele>93.87</ele>
        <time>2018-12-21T13:26:30Z</time>
      </trkpt>
      <trkpt lat="39.4927274343" lon="-8.3987563290">
        <ele>95.79</ele>
        <time>2018-12-21T13:26:41Z</time>
      </trkpt>
      <trkpt lat="39.4927486405" lon="-8.3988633659">
        <ele>96.27</ele>
        <time>2018-12-21T13:26:48Z</time>
      </trkpt>
      <trkpt lat="39.4928291067" lon="-8.3990077861">
        <ele>97.71</ele>
        <time>2018-12-21T13:26:56Z</time>
      </trkpt>
      <trkpt lat="39.4928400870" lon="-8.3991004061">
        <ele>98.19</ele>
        <time>2018-12-21T13:27:03Z</time>
      </trkpt>
      <trkpt lat="39.4928688370" lon="-8.3992254641">
        <ele>100.11</ele>
        <time>2018-12-21T13:27:14Z</time>
      </trkpt>
      <trkpt lat="39.4928918872" lon="-8.3992980514">
        <ele>101.08</ele>
        <time>2018-12-21T13:27:22Z</time>
      </trkpt>
      <trkpt lat="39.4929078966" lon="-8.3993923478">
        <ele>102.52</ele>
        <time>2018-12-21T13:27:30Z</time>
      </trkpt>
      <trkpt lat="39.4929049630" lon="-8.3994706348">
        <ele>103.96</ele>
        <time>2018-12-21T13:27:38Z</time>
      </trkpt>
      <trkpt lat="39.4929036219" lon="-8.3995396178">
        <ele>105.40</ele>
        <time>2018-12-21T13:27:45Z</time>
      </trkpt>
      <trkpt lat="39.4929121714" lon="-8.3996262867">
        <ele>105.88</ele>
        <time>2018-12-21T13:27:52Z</time>
      </trkpt>
      <trkpt lat="39.4929291029" lon="-8.3997060824">
        <ele>107.81</ele>
        <time>2018-12-21T13:28:01Z</time>
      </trkpt>
      <trkpt lat="39.4929353893" lon="-8.3997892309">
        <ele>108.29</ele>
        <time>2018-12-21T13:28:09Z</time>
      </trkpt>
      <trkpt lat="39.4929318689" lon="-8.3998229261">
        <ele>108.29</ele>
        <time>2018-12-21T13:28:20Z</time>
      </trkpt>
      <trkpt lat="39.4929011911" lon="-8.3999409433">
        <ele>109.25</ele>
        <time>2018-12-21T13:28:29Z</time>
      </trkpt>
      <trkpt lat="39.4929002691" lon="-8.4000362456">
        <ele>110.21</ele>
        <time>2018-12-21T13:28:38Z</time>
      </trkpt>
      <trkpt lat="39.4928521570" lon="-8.4001431148">
        <ele>111.17</ele>
        <time>2018-12-21T13:28:47Z</time>
      </trkpt>
      <trkpt lat="39.4928453676" lon="-8.4002416860">
        <ele>112.61</ele>
        <time>2018-12-21T13:28:56Z</time>
      </trkpt>
      <trkpt lat="39.4928267598" lon="-8.4002830926">
        <ele>113.09</ele>
        <time>2018-12-21T13:29:07Z</time>
      </trkpt>
      <trkpt lat="39.4928024523" lon="-8.4003491420">
        <ele>114.05</ele>
        <time>2018-12-21T13:29:14Z</time>
      </trkpt>
      <trkpt lat="39.4928093255" lon="-8.4004782233">
        <ele>115.50</ele>
        <time>2018-12-21T13:29:23Z</time>
      </trkpt>
      <trkpt lat="39.4928104989" lon="-8.4005952347">
        <ele>115.98</ele>
        <time>2018-12-21T13:29:32Z</time>
      </trkpt>
      <trkpt lat="39.4928125944" lon="-8.4006859269">
        <ele>117.42</ele>
        <time>2018-12-21T13:29:40Z</time>
      </trkpt>
      <trkpt lat="39.4928006083" lon="-8.4007818159">
        <ele>117.90</ele>
        <time>2018-12-21T13:29:48Z</time>
      </trkpt>
      <trkpt lat="39.4928037096" lon="-8.4008114040">
        <ele>118.86</ele>
        <time>2018-12-21T13:29:50Z</time>
      </trkpt>
      <trkpt lat="39.4928130135" lon="-8.4009522200">
        <ele>118.38</ele>
        <time>2018-12-21T13:29:57Z</time>
      </trkpt>
      <trkpt lat="39.4928158633" lon="-8.4010480251">
        <ele>117.90</ele>
        <time>2018-12-21T13:30:05Z</time>
      </trkpt>
      <trkpt lat="39.4928264245" lon="-8.4011527151">
        <ele>116.46</ele>
        <time>2018-12-21T13:30:15Z</time>
      </trkpt>
      <trkpt lat="39.4928305317" lon="-8.4011991508">
        <ele>115.01</ele>
        <time>2018-12-21T13:30:21Z</time>
      </trkpt>
      <trkpt lat="39.4928438589" lon="-8.4012921900">
        <ele>113.09</ele>
        <time>2018-12-21T13:30:29Z</time>
      </trkpt>
      <trkpt lat="39.4928477146" lon="-8.4014316648">
        <ele>112.13</ele>
        <time>2018-12-21T13:30:38Z</time>
      </trkpt>
      <trkpt lat="39.4928694237" lon="-8.4015576448">
        <ele>110.69</ele>
        <time>2018-12-21T13:30:46Z</time>
      </trkpt>
      <trkpt lat="39.4929105788" lon="-8.4016594011">
        <ele>110.21</ele>
        <time>2018-12-21T13:30:54Z</time>
      </trkpt>
      <trkpt lat="39.4929649774" lon="-8.4017893206">
        <ele>109.25</ele>
        <time>2018-12-21T13:31:03Z</time>
      </trkpt>
      <trkpt lat="39.4930140115" lon="-8.4019166417">
        <ele>108.77</ele>
        <time>2018-12-21T13:31:12Z</time>
      </trkpt>
      <trkpt lat="39.4930347148" lon="-8.4019733872">
        <ele>108.29</ele>
        <time>2018-12-21T13:31:16Z</time>
      </trkpt>
      <trkpt lat="39.4930929691" lon="-8.4020962659">
        <ele>108.29</ele>
        <time>2018-12-21T13:31:26Z</time>
      </trkpt>
      <trkpt lat="39.4931514747" lon="-8.4021970164">
        <ele>107.32</ele>
        <time>2018-12-21T13:31:35Z</time>
      </trkpt>
      <trkpt lat="39.4931941386" lon="-8.4022292867">
        <ele>107.32</ele>
        <time>2018-12-21T13:31:41Z</time>
      </trkpt>
      <trkpt lat="39.4932547398" lon="-8.4022981860">
        <ele>106.36</ele>
        <time>2018-12-21T13:31:50Z</time>
      </trkpt>
      <trkpt lat="39.4932858367" lon="-8.4022992756">
        <ele>107.32</ele>
        <time>2018-12-21T13:31:58Z</time>
      </trkpt>
      <trkpt lat="39.4933538139" lon="-8.4023825917">
        <ele>106.84</ele>
        <time>2018-12-21T13:32:06Z</time>
      </trkpt>
      <trkpt lat="39.4934319332" lon="-8.4024631418">
        <ele>106.36</ele>
        <time>2018-12-21T13:32:14Z</time>
      </trkpt>
      <trkpt lat="39.4934647903" lon="-8.4025141876">
        <ele>105.88</ele>
        <time>2018-12-21T13:32:19Z</time>
      </trkpt>
      <trkpt lat="39.4935031794" lon="-8.4026556741">
        <ele>105.40</ele>
        <time>2018-12-21T13:32:28Z</time>
      </trkpt>
      <trkpt lat="39.4935343601" lon="-8.4027290158">
        <ele>105.88</ele>
        <time>2018-12-21T13:32:35Z</time>
      </trkpt>
      <trkpt lat="39.4935828913" lon="-8.4028354660">
        <ele>104.92</ele>
        <time>2018-12-21T13:32:42Z</time>
      </trkpt>
      <trkpt lat="39.4936280698" lon="-8.4029679000">
        <ele>104.92</ele>
        <time>2018-12-21T13:32:50Z</time>
      </trkpt>
      <trkpt lat="39.4936772715" lon="-8.4030606877">
        <ele>103.96</ele>
        <time>2018-12-21T13:32:58Z</time>
      </trkpt>
      <trkpt lat="39.4937446620" lon="-8.4031482786">
        <ele>103.96</ele>
        <time>2018-12-21T13:33:06Z</time>
      </trkpt>
      <trkpt lat="39.4938277267" lon="-8.4032788686">
        <ele>103.96</ele>
        <time>2018-12-21T13:33:16Z</time>
      </trkpt>
      <trkpt lat="39.4938681275" lon="-8.4033618495">
        <ele>103.96</ele>
        <time>2018-12-21T13:33:24Z</time>
      </trkpt>
      <trkpt lat="39.4939107914" lon="-8.4034993127">
        <ele>103.96</ele>
        <time>2018-12-21T13:33:34Z</time>
      </trkpt>
      <trkpt lat="39.4939647708" lon="-8.4036302380">
        <ele>104.44</ele>
        <time>2018-12-21T13:33:44Z</time>
      </trkpt>
      <trkpt lat="39.4940139726" lon="-8.4037513565">
        <ele>103.96</ele>
        <time>2018-12-21T13:33:53Z</time>
      </trkpt>
      <trkpt lat="39.4940490928" lon="-8.4038681164">
        <ele>103.96</ele>
        <time>2018-12-21T13:34:01Z</time>
      </trkpt>
      <trkpt lat="39.4940749928" lon="-8.4039355069">
        <ele>103.48</ele>
        <time>2018-12-21T13:34:05Z</time>
      </trkpt>
      <trkpt lat="39.4941200875" lon="-8.4040849563">
        <ele>103.48</ele>
        <time>2018-12-21T13:34:15Z</time>
      </trkpt>
      <trkpt lat="39.4941458199" lon="-8.4041793365">
        <ele>102.52</ele>
        <time>2018-12-21T13:34:21Z</time>
      </trkpt>
      <trkpt lat="39.4942142162" lon="-8.4043379221">
        <ele>102.04</ele>
        <time>2018-12-21T13:34:32Z</time>
      </trkpt>
      <trkpt lat="39.4942541979" lon="-8.4044761397">
        <ele>100.60</ele>
        <time>2018-12-21T13:34:42Z</time>
      </trkpt>
      <trkpt lat="39.4942837860" lon="-8.4045622218">
        <ele>100.11</ele>
        <time>2018-12-21T13:34:50Z</time>
      </trkpt>
      <trkpt lat="39.4942948502" lon="-8.4046593681">
        <ele>99.15</ele>
        <time>2018-12-21T13:34:57Z</time>
      </trkpt>
      <trkpt lat="39.4942925870" lon="-8.4047235735">
        <ele>98.19</ele>
        <time>2018-12-21T13:35:01Z</time>
      </trkpt>
      <trkpt lat="39.4942954369" lon="-8.4047912154">
        <ele>97.71</ele>
        <time>2018-12-21T13:35:05Z</time>
      </trkpt>
      <trkpt lat="39.4943155535" lon="-8.4049035329">
        <ele>97.23</ele>
        <time>2018-12-21T13:35:13Z</time>
      </trkpt>
      <trkpt lat="39.4943260308" lon="-8.4049676545">
        <ele>96.27</ele>
        <time>2018-12-21T13:35:18Z</time>
      </trkpt>
      <trkpt lat="39.4943370949" lon="-8.4050855879">
        <ele>95.31</ele>
        <time>2018-12-21T13:35:27Z</time>
      </trkpt>
      <trkpt lat="39.4943662640" lon="-8.4051845782">
        <ele>93.39</ele>
        <time>2018-12-21T13:35:37Z</time>
      </trkpt>
      <trkpt lat="39.4943330716" lon="-8.4052334446">
        <ele>92.90</ele>
        <time>2018-12-21T13:35:45Z</time>
      </trkpt>
      <trkpt lat="39.4942765776" lon="-8.4052885137">
        <ele>92.42</ele>
        <time>2018-12-21T13:35:52Z</time>
      </trkpt>
      <trkpt lat="39.4941735640" lon="-8.4053937066">
        <ele>90.50</ele>
        <time>2018-12-21T13:36:04Z</time>
      </trkpt>
      <trkpt lat="39.4940975402" lon="-8.4054659586">
        <ele>88.58</ele>
        <time>2018-12-21T13:36:13Z</time>
      </trkpt>
      <trkpt lat="39.4940042496" lon="-8.4055509511">
        <ele>87.62</ele>
        <time>2018-12-21T13:36:23Z</time>
      </trkpt>
      <trkpt lat="39.4939291477" lon="-8.4056725726">
        <ele>86.18</ele>
        <time>2018-12-21T13:36:33Z</time>
      </trkpt>
      <trkpt lat="39.4938643556" lon="-8.4058213513">
        <ele>84.73</ele>
        <time>2018-12-21T13:36:44Z</time>
      </trkpt>
      <trkpt lat="39.4938503578" lon="-8.4059133008">
        <ele>84.25</ele>
        <time>2018-12-21T13:36:51Z</time>
      </trkpt>
      <trkpt lat="39.4938240387" lon="-8.4060190804">
        <ele>84.25</ele>
        <time>2018-12-21T13:36:59Z</time>
      </trkpt>
      <trkpt lat="39.4938040059" lon="-8.4061167296">
        <ele>85.21</ele>
        <time>2018-12-21T13:37:06Z</time>
      </trkpt>
      <trkpt lat="39.4937985577" lon="-8.4062779136">
        <ele>84.25</ele>
        <time>2018-12-21T13:37:17Z</time>
      </trkpt>
      <trkpt lat="39.4938006531" lon="-8.4062948450">
        <ele>84.73</ele>
        <time>2018-12-21T13:37:18Z</time>
      </trkpt>
      <trkpt lat="39.4938107952" lon="-8.4064334817">
        <ele>83.29</ele>
        <time>2018-12-21T13:37:27Z</time>
      </trkpt>
      <trkpt lat="39.4938275591" lon="-8.4065592941">
        <ele>82.33</ele>
        <time>2018-12-21T13:37:36Z</time>
      </trkpt>
      <trkpt lat="39.4938561413" lon="-8.4067128506">
        <ele>81.85</ele>
        <time>2018-12-21T13:37:47Z</time>
      </trkpt>
      <trkpt lat="39.4938957039" lon="-8.4068465419">
        <ele>80.41</ele>
        <time>2018-12-21T13:37:57Z</time>
      </trkpt>
      <trkpt lat="39.4939345960" lon="-8.4070112463">
        <ele>79.45</ele>
        <time>2018-12-21T13:38:08Z</time>
      </trkpt>
      <trkpt lat="39.4939861447" lon="-8.4071473684">
        <ele>78.97</ele>
        <time>2018-12-21T13:38:18Z</time>
      </trkpt>
      <trkpt lat="39.4940471649" lon="-8.4072605241">
        <ele>78.97</ele>
        <time>2018-12-21T13:38:27Z</time>
      </trkpt>
      <trkpt lat="39.4941252004" lon="-8.4073979873">
        <ele>78.00</ele>
        <time>2018-12-21T13:38:38Z</time>
      </trkpt>
      <trkpt lat="39.4941832032" lon="-8.4074838180">
        <ele>78.00</ele>
        <time>2018-12-21T13:38:46Z</time>
      </trkpt>
      <trkpt lat="39.4941935968" lon="-8.4075235482">
        <ele>77.52</ele>
        <time>2018-12-21T13:38:54Z</time>
      </trkpt>
      <trkpt lat="39.4941883162" lon="-8.4075662959">
        <ele>77.52</ele>
        <time>2018-12-21T13:39:08Z</time>
      </trkpt>
      <trkpt lat="39.4941743184" lon="-8.4076052718">
        <ele>77.04</ele>
        <time>2018-12-21T13:39:27Z</time>
      </trkpt>
      <trkpt lat="39.4942327403" lon="-8.4076849837">
        <ele>76.56</ele>
        <time>2018-12-21T13:39:35Z</time>
      </trkpt>
      <trkpt lat="39.4942899887" lon="-8.4077905118">
        <ele>77.04</ele>
        <time>2018-12-21T13:39:45Z</time>
      </trkpt>
      <trkpt lat="39.4943282939" lon="-8.4078953695">
        <ele>77.04</ele>
        <time>2018-12-21T13:39:54Z</time>
      </trkpt>
      <trkpt lat="39.4943915773" lon="-8.4080288094">
        <ele>76.56</ele>
        <time>2018-12-21T13:40:04Z</time>
      </trkpt>
      <trkpt lat="39.4944644999" lon="-8.4081143886">
        <ele>76.08</ele>
        <time>2018-12-21T13:40:13Z</time>
      </trkpt>
      <trkpt lat="39.4945326447" lon="-8.4081938490">
        <ele>75.60</ele>
        <time>2018-12-21T13:40:21Z</time>
      </trkpt>
      <trkpt lat="39.4945681840" lon="-8.4082400333">
        <ele>76.08</ele>
        <time>2018-12-21T13:40:26Z</time>
      </trkpt>
      <trkpt lat="39.4946368318" lon="-8.4083259478">
        <ele>75.60</ele>
        <time>2018-12-21T13:40:35Z</time>
      </trkpt>
      <trkpt lat="39.4946763944" lon="-8.4084103536">
        <ele>75.60</ele>
        <time>2018-12-21T13:40:42Z</time>
      </trkpt>
      <trkpt lat="39.4946898893" lon="-8.4084386844">
        <ele>75.12</ele>
        <time>2018-12-21T13:40:44Z</time>
      </trkpt>
      <trkpt lat="39.4947613869" lon="-8.4086034726">
        <ele>75.12</ele>
        <time>2018-12-21T13:40:55Z</time>
      </trkpt>
      <trkpt lat="39.4948209822" lon="-8.4087445401">
        <ele>75.60</ele>
        <time>2018-12-21T13:41:05Z</time>
      </trkpt>
      <trkpt lat="39.4948646519" lon="-8.4088763874">
        <ele>74.64</ele>
        <time>2018-12-21T13:41:14Z</time>
      </trkpt>
      <trkpt lat="39.4948931504" lon="-8.4089425206">
        <ele>75.12</ele>
        <time>2018-12-21T13:41:19Z</time>
      </trkpt>
      <trkpt lat="39.4949147757" lon="-8.4090276808">
        <ele>74.64</ele>
        <time>2018-12-21T13:41:25Z</time>
      </trkpt>
      <trkpt lat="39.4949209783" lon="-8.4090662375">
        <ele>74.64</ele>
        <time>2018-12-21T13:41:28Z</time>
      </trkpt>
      <trkpt lat="39.4949262589" lon="-8.4091902059">
        <ele>74.64</ele>
        <time>2018-12-21T13:41:36Z</time>
      </trkpt>
      <trkpt lat="39.4948435295" lon="-8.4093184490">
        <ele>75.12</ele>
        <time>2018-12-21T13:41:46Z</time>
      </trkpt>
      <trkpt lat="39.4947838504" lon="-8.4094512183">
        <ele>75.60</ele>
        <time>2018-12-21T13:41:56Z</time>
      </trkpt>
      <trkpt lat="39.4947477244" lon="-8.4095303435">
        <ele>75.60</ele>
        <time>2018-12-21T13:42:02Z</time>
      </trkpt>
      <trkpt lat="39.4947240874" lon="-8.4096201137">
        <ele>73.68</ele>
        <time>2018-12-21T13:42:08Z</time>
      </trkpt>
      <trkpt lat="39.4947214052" lon="-8.4096346982">
        <ele>73.68</ele>
        <time>2018-12-21T13:42:09Z</time>
      </trkpt>
      <trkpt lat="39.4947135262" lon="-8.4096660465">
        <ele>75.60</ele>
        <time>2018-12-21T13:42:11Z</time>
      </trkpt>
      <trkpt lat="39.4946986064" lon="-8.4097114764">
        <ele>70.31</ele>
        <time>2018-12-21T13:42:14Z</time>
      </trkpt>
      <trkpt lat="39.4946952537" lon="-8.4097273182">
        <ele>78.00</ele>
        <time>2018-12-21T13:42:15Z</time>
      </trkpt>
      <trkpt lat="39.4946914818" lon="-8.4097589180">
        <ele>74.64</ele>
        <time>2018-12-21T13:42:17Z</time>
      </trkpt>
      <trkpt lat="39.4946721196" lon="-8.4098770190">
        <ele>75.12</ele>
        <time>2018-12-21T13:42:24Z</time>
      </trkpt>
      <trkpt lat="39.4946748856" lon="-8.4099110495">
        <ele>76.08</ele>
        <time>2018-12-21T13:42:26Z</time>
      </trkpt>
      <trkpt lat="39.4946865365" lon="-8.4099461697">
        <ele>76.56</ele>
        <time>2018-12-21T13:42:32Z</time>
      </trkpt>
      <trkpt lat="39.4947071560" lon="-8.4099997301">
        <ele>76.08</ele>
        <time>2018-12-21T13:42:37Z</time>
      </trkpt>
      <trkpt lat="39.4947826769" lon="-8.4101021569">
        <ele>76.08</ele>
        <time>2018-12-21T13:42:42Z</time>
      </trkpt>
      <trkpt lat="39.4948052242" lon="-8.4101399593">
        <ele>76.56</ele>
        <time>2018-12-21T13:42:45Z</time>
      </trkpt>
      <trkpt lat="39.4948681723" lon="-8.4101457428">
        <ele>71.27</ele>
        <time>2018-12-21T13:42:51Z</time>
      </trkpt>
      <trkpt lat="39.4948801585" lon="-8.4101489279">
        <ele>71.76</ele>
        <time>2018-12-21T13:42:52Z</time>
      </trkpt>
      <trkpt lat="39.4948937371" lon="-8.4101537894">
        <ele>78.97</ele>
        <time>2018-12-21T13:42:53Z</time>
      </trkpt>
      <trkpt lat="39.4949104171" lon="-8.4101602435">
        <ele>76.08</ele>
        <time>2018-12-21T13:42:54Z</time>
      </trkpt>
      <trkpt lat="39.4950079825" lon="-8.4102174919">
        <ele>75.60</ele>
        <time>2018-12-21T13:43:03Z</time>
      </trkpt>
      <trkpt lat="39.4950315356" lon="-8.4102200065">
        <ele>77.04</ele>
        <time>2018-12-21T13:43:05Z</time>
      </trkpt>
      <trkpt lat="39.4950491376" lon="-8.4102234431">
        <ele>73.68</ele>
        <time>2018-12-21T13:43:07Z</time>
      </trkpt>
      <trkpt lat="39.4950581901" lon="-8.4102252033">
        <ele>78.00</ele>
        <time>2018-12-21T13:43:08Z</time>
      </trkpt>
      <trkpt lat="39.4950873591" lon="-8.4102375247">
        <ele>76.56</ele>
        <time>2018-12-21T13:43:11Z</time>
      </trkpt>
      <trkpt lat="39.4951897021" lon="-8.4102469962">
        <ele>76.56</ele>
        <time>2018-12-21T13:43:19Z</time>
      </trkpt>
      <trkpt lat="39.4952757005" lon="-8.4102283884">
        <ele>76.08</ele>
        <time>2018-12-21T13:43:26Z</time>
      </trkpt>
      <trkpt lat="39.4953212980" lon="-8.4102236107">
        <ele>76.56</ele>
        <time>2018-12-21T13:43:31Z</time>
      </trkpt>
      <trkpt lat="39.4953929633" lon="-8.4102451522">
        <ele>72.72</ele>
        <time>2018-12-21T13:43:36Z</time>
      </trkpt>
      <trkpt lat="39.4954045303" lon="-8.4102438949">
        <ele>78.00</ele>
        <time>2018-12-21T13:43:37Z</time>
      </trkpt>
      <trkpt lat="39.4954284187" lon="-8.4102424700">
        <ele>76.08</ele>
        <time>2018-12-21T13:43:39Z</time>
      </trkpt>
      <trkpt lat="39.4954490382" lon="-8.4102474991">
        <ele>72.72</ele>
        <time>2018-12-21T13:43:41Z</time>
      </trkpt>
      <trkpt lat="39.4954720046" lon="-8.4102512710">
        <ele>77.52</ele>
        <time>2018-12-21T13:43:44Z</time>
      </trkpt>
      <trkpt lat="39.4954804704" lon="-8.4102520254">
        <ele>76.56</ele>
        <time>2018-12-21T13:43:45Z</time>
      </trkpt>
      <trkpt lat="39.4954904448" lon="-8.4102574736">
        <ele>72.24</ele>
        <time>2018-12-21T13:43:47Z</time>
      </trkpt>
      <trkpt lat="39.4954989944" lon="-8.4102570545">
        <ele>75.60</ele>
        <time>2018-12-21T13:43:48Z</time>
      </trkpt>
      <trkpt lat="39.4955074601" lon="-8.4102588985">
        <ele>80.41</ele>
        <time>2018-12-21T13:43:49Z</time>
      </trkpt>
      <trkpt lat="39.4955201168" lon="-8.4102616645">
        <ele>76.56</ele>
        <time>2018-12-21T13:43:50Z</time>
      </trkpt>
      <trkpt lat="39.4955639541" lon="-8.4102778416">
        <ele>78.00</ele>
        <time>2018-12-21T13:43:54Z</time>
      </trkpt>
      <trkpt lat="39.4956438337" lon="-8.4102777578">
        <ele>76.56</ele>
        <time>2018-12-21T13:44:01Z</time>
      </trkpt>
      <trkpt lat="39.4956517126" lon="-8.4102815297">
        <ele>76.56</ele>
        <time>2018-12-21T13:44:02Z</time>
      </trkpt>
      <trkpt lat="39.4957699813" lon="-8.4102434758">
        <ele>76.56</ele>
        <time>2018-12-21T13:44:10Z</time>
      </trkpt>
      <trkpt lat="39.4958349410" lon="-8.4102148097">
        <ele>71.27</ele>
        <time>2018-12-21T13:44:15Z</time>
      </trkpt>
      <trkpt lat="39.4958533812" lon="-8.4102106187">
        <ele>79.45</ele>
        <time>2018-12-21T13:44:16Z</time>
      </trkpt>
      <trkpt lat="39.4958995655" lon="-8.4101898316">
        <ele>74.64</ele>
        <time>2018-12-21T13:44:20Z</time>
      </trkpt>
      <trkpt lat="39.4959161617" lon="-8.4101856407">
        <ele>78.00</ele>
        <time>2018-12-21T13:44:22Z</time>
      </trkpt>
      <trkpt lat="39.4959352724" lon="-8.4101792704">
        <ele>72.24</ele>
        <time>2018-12-21T13:44:24Z</time>
      </trkpt>
      <trkpt lat="39.4959437381" lon="-8.4101781808">
        <ele>80.41</ele>
        <time>2018-12-21T13:44:25Z</time>
      </trkpt>
      <trkpt lat="39.4959525391" lon="-8.4101808630">
        <ele>76.56</ele>
        <time>2018-12-21T13:44:26Z</time>
      </trkpt>
      <trkpt lat="39.4959832169" lon="-8.4101926815">
        <ele>78.00</ele>
        <time>2018-12-21T13:44:28Z</time>
      </trkpt>
      <trkpt lat="39.4960104581" lon="-8.4101993032">
        <ele>71.76</ele>
        <time>2018-12-21T13:44:30Z</time>
      </trkpt>
      <trkpt lat="39.4960230310" lon="-8.4101993032">
        <ele>78.97</ele>
        <time>2018-12-21T13:44:31Z</time>
      </trkpt>
      <trkpt lat="39.4960923493" lon="-8.4102050867">
        <ele>77.52</ele>
        <time>2018-12-21T13:44:38Z</time>
      </trkpt>
      <trkpt lat="39.4961976260" lon="-8.4102250356">
        <ele>78.48</ele>
        <time>2018-12-21T13:44:47Z</time>
      </trkpt>
      <trkpt lat="39.4962730631" lon="-8.4102549590">
        <ele>78.00</ele>
        <time>2018-12-21T13:44:55Z</time>
      </trkpt>
      <trkpt lat="39.4963436387" lon="-8.4103122074">
        <ele>78.00</ele>
        <time>2018-12-21T13:45:04Z</time>
      </trkpt>
      <trkpt lat="39.4963552896" lon="-8.4103138000">
        <ele>74.16</ele>
        <time>2018-12-21T13:45:05Z</time>
      </trkpt>
      <trkpt lat="39.4963671919" lon="-8.4103200026">
        <ele>83.29</ele>
        <time>2018-12-21T13:45:06Z</time>
      </trkpt>
      <trkpt lat="39.4963801838" lon="-8.4103222657">
        <ele>77.52</ele>
        <time>2018-12-21T13:45:07Z</time>
      </trkpt>
      <trkpt lat="39.4964035694" lon="-8.4103330784">
        <ele>78.97</ele>
        <time>2018-12-21T13:45:09Z</time>
      </trkpt>
      <trkpt lat="39.4964751508" lon="-8.4103639238">
        <ele>67.43</ele>
        <time>2018-12-21T13:45:15Z</time>
      </trkpt>
      <trkpt lat="39.4964874722" lon="-8.4103744850">
        <ele>84.25</ele>
        <time>2018-12-21T13:45:16Z</time>
      </trkpt>
      <trkpt lat="39.4964976981" lon="-8.4103842918">
        <ele>78.48</ele>
        <time>2018-12-21T13:45:17Z</time>
      </trkpt>
      <trkpt lat="39.4965712074" lon="-8.4104085155">
        <ele>77.04</ele>
        <time>2018-12-21T13:45:24Z</time>
      </trkpt>
      <trkpt lat="39.4965806790" lon="-8.4104144666">
        <ele>82.33</ele>
        <time>2018-12-21T13:45:25Z</time>
      </trkpt>
      <trkpt lat="39.4965889771" lon="-8.4104229324">
        <ele>78.48</ele>
        <time>2018-12-21T13:45:26Z</time>
      </trkpt>
      <trkpt lat="39.4966065791" lon="-8.4104445577">
        <ele>77.52</ele>
        <time>2018-12-21T13:45:28Z</time>
      </trkpt>
      <trkpt lat="39.4966373406" lon="-8.4104976989">
        <ele>78.48</ele>
        <time>2018-12-21T13:45:34Z</time>
      </trkpt>
      <trkpt lat="39.4967290387" lon="-8.4104810189">
        <ele>78.97</ele>
        <time>2018-12-21T13:45:42Z</time>
      </trkpt>
      <trkpt lat="39.4967436232" lon="-8.4104784206">
        <ele>78.48</ele>
        <time>2018-12-21T13:45:44Z</time>
      </trkpt>
      <trkpt lat="39.4967529271" lon="-8.4104854614">
        <ele>78.48</ele>
        <time>2018-12-21T13:45:45Z</time>
      </trkpt>
      <trkpt lat="39.4967829343" lon="-8.4104858804">
        <ele>78.48</ele>
        <time>2018-12-21T13:45:49Z</time>
      </trkpt>
      <trkpt lat="39.4968295377" lon="-8.4105372615">
        <ele>78.48</ele>
        <time>2018-12-21T13:45:53Z</time>
      </trkpt>
      <trkpt lat="39.4969276898" lon="-8.4105729684">
        <ele>78.97</ele>
        <time>2018-12-21T13:46:00Z</time>
      </trkpt>
      <trkpt lat="39.4970103353" lon="-8.4106135368">
        <ele>77.52</ele>
        <time>2018-12-21T13:46:07Z</time>
      </trkpt>
      <trkpt lat="39.4970295299" lon="-8.4105962701">
        <ele>78.00</ele>
        <time>2018-12-21T13:46:11Z</time>
      </trkpt>
      <trkpt lat="39.4971271791" lon="-8.4106587991">
        <ele>78.97</ele>
        <time>2018-12-21T13:46:17Z</time>
      </trkpt>
      <trkpt lat="39.4972129259" lon="-8.4106914047">
        <ele>78.97</ele>
        <time>2018-12-21T13:46:23Z</time>
      </trkpt>
      <trkpt lat="39.4972460344" lon="-8.4106959309">
        <ele>78.48</ele>
        <time>2018-12-21T13:46:29Z</time>
      </trkpt>
      <trkpt lat="39.4972570986" lon="-8.4107009601">
        <ele>78.97</ele>
        <time>2018-12-21T13:46:30Z</time>
      </trkpt>
      <trkpt lat="39.4973642193" lon="-8.4107549395">
        <ele>78.97</ele>
        <time>2018-12-21T13:46:37Z</time>
      </trkpt>
      <trkpt lat="39.4974014349" lon="-8.4107713681">
        <ele>78.97</ele>
        <time>2018-12-21T13:46:39Z</time>
      </trkpt>
      <trkpt lat="39.4974534865" lon="-8.4107837733">
        <ele>78.48</ele>
        <time>2018-12-21T13:46:46Z</time>
      </trkpt>
      <trkpt lat="39.4974956475" lon="-8.4108116850">
        <ele>78.97</ele>
        <time>2018-12-21T13:46:51Z</time>
      </trkpt>
      <trkpt lat="39.4976022653" lon="-8.4108913969">
        <ele>78.97</ele>
        <time>2018-12-21T13:46:57Z</time>
      </trkpt>
      <trkpt lat="39.4976372179" lon="-8.4109065682">
        <ele>78.00</ele>
        <time>2018-12-21T13:47:05Z</time>
      </trkpt>
      <trkpt lat="39.4976922031" lon="-8.4109367430">
        <ele>78.97</ele>
        <time>2018-12-21T13:47:11Z</time>
      </trkpt>
      <trkpt lat="39.4977346156" lon="-8.4109720308">
        <ele>79.45</ele>
        <time>2018-12-21T13:47:14Z</time>
      </trkpt>
      <trkpt lat="39.4977897685" lon="-8.4109710250">
        <ele>79.93</ele>
        <time>2018-12-21T13:47:21Z</time>
      </trkpt>
      <trkpt lat="39.4978112262" lon="-8.4109658282">
        <ele>79.93</ele>
        <time>2018-12-21T13:47:25Z</time>
      </trkpt>
      <trkpt lat="39.4979424868" lon="-8.4110108390">
        <ele>79.45</ele>
        <time>2018-12-21T13:47:33Z</time>
      </trkpt>
      <trkpt lat="39.4979605917" lon="-8.4110106714">
        <ele>80.41</ele>
        <time>2018-12-21T13:47:37Z</time>
      </trkpt>
      <trkpt lat="39.4979798701" lon="-8.4110032953">
        <ele>79.93</ele>
        <time>2018-12-21T13:47:40Z</time>
      </trkpt>
      <trkpt lat="39.4980434049" lon="-8.4110554308">
        <ele>79.93</ele>
        <time>2018-12-21T13:47:44Z</time>
      </trkpt>
      <trkpt lat="39.4981596619" lon="-8.4111256711">
        <ele>79.93</ele>
        <time>2018-12-21T13:47:51Z</time>
      </trkpt>
      <trkpt lat="39.4981573988" lon="-8.4111162834">
        <ele>79.93</ele>
        <time>2018-12-21T13:47:53Z</time>
      </trkpt>
      <trkpt lat="39.4981420599" lon="-8.4110691771">
        <ele>78.97</ele>
        <time>2018-12-21T13:47:59Z</time>
      </trkpt>
      <trkpt lat="39.4981875736" lon="-8.4111073148">
        <ele>80.41</ele>
        <time>2018-12-21T13:48:01Z</time>
      </trkpt>
      <trkpt lat="39.4982991368" lon="-8.4111667424">
        <ele>79.93</ele>
        <time>2018-12-21T13:48:05Z</time>
      </trkpt>
      <trkpt lat="39.4983813632" lon="-8.4111748729">
        <ele>79.93</ele>
        <time>2018-12-21T13:48:11Z</time>
      </trkpt>
      <trkpt lat="39.4984022342" lon="-8.4111651499">
        <ele>79.45</ele>
        <time>2018-12-21T13:48:18Z</time>
      </trkpt>
      <trkpt lat="39.4984344207" lon="-8.4112111665">
        <ele>80.41</ele>
        <time>2018-12-21T13:48:21Z</time>
      </trkpt>
      <trkpt lat="39.4985723030" lon="-8.4112946503">
        <ele>79.93</ele>
        <time>2018-12-21T13:48:27Z</time>
      </trkpt>
      <trkpt lat="39.4986755680" lon="-8.4113671537">
        <ele>80.89</ele>
        <time>2018-12-21T13:48:33Z</time>
      </trkpt>
      <trkpt lat="39.4987033121" lon="-8.4113712609">
        <ele>80.89</ele>
        <time>2018-12-21T13:48:40Z</time>
      </trkpt>
      <trkpt lat="39.4987221714" lon="-8.4113544133">
        <ele>80.89</ele>
        <time>2018-12-21T13:48:46Z</time>
      </trkpt>
      <trkpt lat="39.4987640809" lon="-8.4113706741">
        <ele>81.37</ele>
        <time>2018-12-21T13:48:50Z</time>
      </trkpt>
      <trkpt lat="39.4987872150" lon="-8.4113902878">
        <ele>80.89</ele>
        <time>2018-12-21T13:48:51Z</time>
      </trkpt>
      <trkpt lat="39.4988266937" lon="-8.4114451893">
        <ele>81.37</ele>
        <time>2018-12-21T13:48:54Z</time>
      </trkpt>
      <trkpt lat="39.4989593793" lon="-8.4114612825">
        <ele>81.37</ele>
        <time>2018-12-21T13:48:59Z</time>
      </trkpt>
      <trkpt lat="39.4990116823" lon="-8.4114617854">
        <ele>81.37</ele>
        <time>2018-12-21T13:49:08Z</time>
      </trkpt>
      <trkpt lat="39.4990163762" lon="-8.4114552476">
        <ele>81.85</ele>
        <time>2018-12-21T13:49:10Z</time>
      </trkpt>
      <trkpt lat="39.4991288614" lon="-8.4115241468">
        <ele>81.37</ele>
        <time>2018-12-21T13:49:17Z</time>
      </trkpt>
      <trkpt lat="39.4991835114" lon="-8.4115588479">
        <ele>86.18</ele>
        <time>2018-12-21T13:49:20Z</time>
      </trkpt>
      <trkpt lat="39.4991986826" lon="-8.4115689062">
        <ele>82.33</ele>
        <time>2018-12-21T13:49:21Z</time>
      </trkpt>
      <trkpt lat="39.4993267581" lon="-8.4116376378">
        <ele>80.89</ele>
        <time>2018-12-21T13:49:30Z</time>
      </trkpt>
      <trkpt lat="39.4993581902" lon="-8.4116542339">
        <ele>75.60</ele>
        <time>2018-12-21T13:49:33Z</time>
      </trkpt>
      <trkpt lat="39.4993671589" lon="-8.4116568323">
        <ele>82.33</ele>
        <time>2018-12-21T13:49:34Z</time>
      </trkpt>
      <trkpt lat="39.4994052965" lon="-8.4116889350">
        <ele>74.16</ele>
        <time>2018-12-21T13:49:37Z</time>
      </trkpt>
      <trkpt lat="39.4994173665" lon="-8.4117010888">
        <ele>89.06</ele>
        <time>2018-12-21T13:49:38Z</time>
      </trkpt>
      <trkpt lat="39.4994274247" lon="-8.4117142484">
        <ele>77.04</ele>
        <time>2018-12-21T13:49:39Z</time>
      </trkpt>
      <trkpt lat="39.4994382374" lon="-8.4117255639">
        <ele>84.73</ele>
        <time>2018-12-21T13:49:40Z</time>
      </trkpt>
      <trkpt lat="39.4994581025" lon="-8.4117331915">
        <ele>81.37</ele>
        <time>2018-12-21T13:49:42Z</time>
      </trkpt>
      <trkpt lat="39.4994963240" lon="-8.4117397293">
        <ele>84.73</ele>
        <time>2018-12-21T13:49:45Z</time>
      </trkpt>
      <trkpt lat="39.4995185360" lon="-8.4117490333">
        <ele>81.85</ele>
        <time>2018-12-21T13:49:47Z</time>
      </trkpt>
      <trkpt lat="39.4995622057" lon="-8.4117753524">
        <ele>85.69</ele>
        <time>2018-12-21T13:49:51Z</time>
      </trkpt>
      <trkpt lat="39.4995753653" lon="-8.4117819741">
        <ele>78.48</ele>
        <time>2018-12-21T13:49:52Z</time>
      </trkpt>
      <trkpt lat="39.4995894469" lon="-8.4117873386">
        <ele>84.73</ele>
        <time>2018-12-21T13:49:53Z</time>
      </trkpt>
      <trkpt lat="39.4996031933" lon="-8.4117927868">
        <ele>81.37</ele>
        <time>2018-12-21T13:49:54Z</time>
      </trkpt>
      <trkpt lat="39.4996360503" lon="-8.4118227940">
        <ele>80.41</ele>
        <time>2018-12-21T13:49:57Z</time>
      </trkpt>
      <trkpt lat="39.4996913709" lon="-8.4118709899">
        <ele>81.85</ele>
        <time>2018-12-21T13:50:01Z</time>
      </trkpt>
      <trkpt lat="39.4997304305" lon="-8.4118594229">
        <ele>81.85</ele>
        <time>2018-12-21T13:50:10Z</time>
      </trkpt>
      <trkpt lat="39.4997299276" lon="-8.4118412342">
        <ele>81.85</ele>
        <time>2018-12-21T13:50:12Z</time>
      </trkpt>
      <trkpt lat="39.4997788779" lon="-8.4119020868">
        <ele>86.66</ele>
        <time>2018-12-21T13:50:18Z</time>
      </trkpt>
      <trkpt lat="39.4997834042" lon="-8.4119082056">
        <ele>82.81</ele>
        <time>2018-12-21T13:50:19Z</time>
      </trkpt>
      <trkpt lat="39.4998434186" lon="-8.4119776916">
        <ele>82.81</ele>
        <time>2018-12-21T13:50:24Z</time>
      </trkpt>
      <trkpt lat="39.4999086298" lon="-8.4120185953">
        <ele>79.45</ele>
        <time>2018-12-21T13:50:28Z</time>
      </trkpt>
      <trkpt lat="39.4999282435" lon="-8.4120371193">
        <ele>84.25</ele>
        <time>2018-12-21T13:50:29Z</time>
      </trkpt>
      <trkpt lat="39.4999908563" lon="-8.4121091198">
        <ele>78.48</ele>
        <time>2018-12-21T13:50:34Z</time>
      </trkpt>
      <trkpt lat="39.4999997411" lon="-8.4121247102">
        <ele>85.21</ele>
        <time>2018-12-21T13:50:35Z</time>
      </trkpt>
      <trkpt lat="39.5001323428" lon="-8.4122503549">
        <ele>77.04</ele>
        <time>2018-12-21T13:50:46Z</time>
      </trkpt>
      <trkpt lat="39.5001451671" lon="-8.4122581501">
        <ele>87.62</ele>
        <time>2018-12-21T13:50:47Z</time>
      </trkpt>
      <trkpt lat="39.5001556445" lon="-8.4122655261">
        <ele>82.81</ele>
        <time>2018-12-21T13:50:48Z</time>
      </trkpt>
      <trkpt lat="39.5001901779" lon="-8.4123034962">
        <ele>80.89</ele>
        <time>2018-12-21T13:50:52Z</time>
      </trkpt>
      <trkpt lat="39.5002453309" lon="-8.4123638459">
        <ele>83.29</ele>
        <time>2018-12-21T13:50:57Z</time>
      </trkpt>
      <trkpt lat="39.5002652798" lon="-8.4123841301">
        <ele>90.98</ele>
        <time>2018-12-21T13:50:59Z</time>
      </trkpt>
      <trkpt lat="39.5002778526" lon="-8.4123934340">
        <ele>84.73</ele>
        <time>2018-12-21T13:51:00Z</time>
      </trkpt>
      <trkpt lat="39.5003079437" lon="-8.4124056716">
        <ele>83.77</ele>
        <time>2018-12-21T13:51:02Z</time>
      </trkpt>
      <trkpt lat="39.5003669523" lon="-8.4124873951">
        <ele>83.77</ele>
        <time>2018-12-21T13:51:10Z</time>
      </trkpt>
      <trkpt lat="39.5004276372" lon="-8.4125790093">
        <ele>83.77</ele>
        <time>2018-12-21T13:51:18Z</time>
      </trkpt>
      <trkpt lat="39.5004518609" lon="-8.4126061667">
        <ele>87.62</ele>
        <time>2018-12-21T13:51:21Z</time>
      </trkpt>
      <trkpt lat="39.5004641823" lon="-8.4126115311">
        <ele>78.00</ele>
        <time>2018-12-21T13:51:22Z</time>
      </trkpt>
      <trkpt lat="39.5004744921" lon="-8.4126175661">
        <ele>88.10</ele>
        <time>2018-12-21T13:51:23Z</time>
      </trkpt>
      <trkpt lat="39.5004847180" lon="-8.4126160573">
        <ele>84.25</ele>
        <time>2018-12-21T13:51:24Z</time>
      </trkpt>
      <trkpt lat="39.5004878193" lon="-8.4126040712">
        <ele>83.29</ele>
        <time>2018-12-21T13:51:26Z</time>
      </trkpt>
      <trkpt lat="39.5005056728" lon="-8.4126361739">
        <ele>73.20</ele>
        <time>2018-12-21T13:51:30Z</time>
      </trkpt>
      <trkpt lat="39.5005103666" lon="-8.4126449749">
        <ele>93.39</ele>
        <time>2018-12-21T13:51:31Z</time>
      </trkpt>
      <trkpt lat="39.5005158987" lon="-8.4126549494">
        <ele>82.81</ele>
        <time>2018-12-21T13:51:32Z</time>
      </trkpt>
      <trkpt lat="39.5005662739" lon="-8.4126938414">
        <ele>80.41</ele>
        <time>2018-12-21T13:51:37Z</time>
      </trkpt>
      <trkpt lat="39.5006013103" lon="-8.4127056599">
        <ele>83.77</ele>
        <time>2018-12-21T13:51:39Z</time>
      </trkpt>
      <trkpt lat="39.5006564632" lon="-8.4127142932">
        <ele>84.73</ele>
        <time>2018-12-21T13:51:46Z</time>
      </trkpt>
      <trkpt lat="39.5007153880" lon="-8.4127115272">
        <ele>84.73</ele>
        <time>2018-12-21T13:51:53Z</time>
      </trkpt>
      <trkpt lat="39.5008460619" lon="-8.4127879702">
        <ele>84.73</ele>
        <time>2018-12-21T13:52:00Z</time>
      </trkpt>
      <trkpt lat="39.5009434596" lon="-8.4128147084">
        <ele>85.21</ele>
        <time>2018-12-21T13:52:05Z</time>
      </trkpt>
      <trkpt lat="39.5009470638" lon="-8.4128035605">
        <ele>84.25</ele>
        <time>2018-12-21T13:52:08Z</time>
      </trkpt>
      <trkpt lat="39.5009375922" lon="-8.4127876349">
        <ele>84.25</ele>
        <time>2018-12-21T13:52:11Z</time>
      </trkpt>
      <trkpt lat="39.5009380952" lon="-8.4127177298">
        <ele>84.25</ele>
        <time>2018-12-21T13:52:17Z</time>
      </trkpt>
      <trkpt lat="39.5009747241" lon="-8.4127042349">
        <ele>84.73</ele>
        <time>2018-12-21T13:52:20Z</time>
      </trkpt>
      <trkpt lat="39.5010630693" lon="-8.4127323981">
        <ele>85.21</ele>
        <time>2018-12-21T13:52:25Z</time>
      </trkpt>
      <trkpt lat="39.5011893846" lon="-8.4128308017">
        <ele>84.73</ele>
        <time>2018-12-21T13:52:31Z</time>
      </trkpt>
      <trkpt lat="39.5011973474" lon="-8.4128491580">
        <ele>85.21</ele>
        <time>2018-12-21T13:52:34Z</time>
      </trkpt>
      <trkpt lat="39.5012203977" lon="-8.4128479008">
        <ele>84.25</ele>
        <time>2018-12-21T13:52:40Z</time>
      </trkpt>
      <trkpt lat="39.5013227407" lon="-8.4129096754">
        <ele>85.21</ele>
        <time>2018-12-21T13:52:45Z</time>
      </trkpt>
      <trkpt lat="39.5014876127" lon="-8.4129499085">
        <ele>84.73</ele>
        <time>2018-12-21T13:52:52Z</time>
      </trkpt>
      <trkpt lat="39.5015610382" lon="-8.4130097553">
        <ele>85.21</ele>
        <time>2018-12-21T13:53:00Z</time>
      </trkpt>
      <trkpt lat="39.5015706774" lon="-8.4130119346">
        <ele>85.69</ele>
        <time>2018-12-21T13:53:01Z</time>
      </trkpt>
      <trkpt lat="39.5015873574" lon="-8.4130299557">
        <ele>85.69</ele>
        <time>2018-12-21T13:53:03Z</time>
      </trkpt>
      <trkpt lat="39.5016998425" lon="-8.4130874556">
        <ele>85.69</ele>
        <time>2018-12-21T13:53:12Z</time>
      </trkpt>
      <trkpt lat="39.5017948933" lon="-8.4131740406">
        <ele>86.18</ele>
        <time>2018-12-21T13:53:20Z</time>
      </trkpt>
      <trkpt lat="39.5018958952" lon="-8.4132815804">
        <ele>86.18</ele>
        <time>2018-12-21T13:53:29Z</time>
      </trkpt>
      <trkpt lat="39.5019870065" lon="-8.4133891203">
        <ele>87.14</ele>
        <time>2018-12-21T13:53:38Z</time>
      </trkpt>
      <trkpt lat="39.5020166785" lon="-8.4134388249">
        <ele>87.14</ele>
        <time>2018-12-21T13:53:42Z</time>
      </trkpt>
      <trkpt lat="39.5020921994" lon="-8.4135142621">
        <ele>87.14</ele>
        <time>2018-12-21T13:53:51Z</time>
      </trkpt>
      <trkpt lat="39.5021520462" lon="-8.4135974944">
        <ele>87.62</ele>
        <time>2018-12-21T13:53:59Z</time>
      </trkpt>
      <trkpt lat="39.5022148266" lon="-8.4136752784">
        <ele>88.10</ele>
        <time>2018-12-21T13:54:06Z</time>
      </trkpt>
      <trkpt lat="39.5022661239" lon="-8.4137301799">
        <ele>88.58</ele>
        <time>2018-12-21T13:54:12Z</time>
      </trkpt>
      <trkpt lat="39.5023166668" lon="-8.4138324391">
        <ele>89.06</ele>
        <time>2018-12-21T13:54:20Z</time>
      </trkpt>
      <trkpt lat="39.5023579057" lon="-8.4139109775">
        <ele>90.02</ele>
        <time>2018-12-21T13:54:26Z</time>
      </trkpt>
      <trkpt lat="39.5024060179" lon="-8.4140061960">
        <ele>90.02</ele>
        <time>2018-12-21T13:54:33Z</time>
      </trkpt>
      <trkpt lat="39.5024594944" lon="-8.4140641149">
        <ele>89.54</ele>
        <time>2018-12-21T13:54:39Z</time>
      </trkpt>
      <trkpt lat="39.5025387872" lon="-8.4141298290">
        <ele>89.54</ele>
        <time>2018-12-21T13:54:46Z</time>
      </trkpt>
      <trkpt lat="39.5026169065" lon="-8.4141703974">
        <ele>90.02</ele>
        <time>2018-12-21T13:54:53Z</time>
      </trkpt>
      <trkpt lat="39.5026818663" lon="-8.4142027516">
        <ele>90.50</ele>
        <time>2018-12-21T13:54:59Z</time>
      </trkpt>
      <trkpt lat="39.5027172379" lon="-8.4142373689">
        <ele>91.46</ele>
        <time>2018-12-21T13:55:04Z</time>
      </trkpt>
      <trkpt lat="39.5027952734" lon="-8.4143052623">
        <ele>91.46</ele>
        <time>2018-12-21T13:55:12Z</time>
      </trkpt>
      <trkpt lat="39.5028634183" lon="-8.4143547993">
        <ele>91.94</ele>
        <time>2018-12-21T13:55:18Z</time>
      </trkpt>
      <trkpt lat="39.5029440522" lon="-8.4144299012">
        <ele>92.42</ele>
        <time>2018-12-21T13:55:25Z</time>
      </trkpt>
      <trkpt lat="39.5030080900" lon="-8.4145094454">
        <ele>93.39</ele>
        <time>2018-12-21T13:55:32Z</time>
      </trkpt>
      <trkpt lat="39.5030383486" lon="-8.4145778418">
        <ele>93.39</ele>
        <time>2018-12-21T13:55:38Z</time>
      </trkpt>
      <trkpt lat="39.5031114388" lon="-8.4146753233">
        <ele>95.31</ele>
        <time>2018-12-21T13:55:47Z</time>
      </trkpt>
      <trkpt lat="39.5031893905" lon="-8.4147581365">
        <ele>95.79</ele>
        <time>2018-12-21T13:55:56Z</time>
      </trkpt>
      <trkpt lat="39.5032537635" lon="-8.4148380999">
        <ele>96.27</ele>
        <time>2018-12-21T13:56:04Z</time>
      </trkpt>
      <trkpt lat="39.5032967627" lon="-8.4149154648">
        <ele>97.23</ele>
        <time>2018-12-21T13:56:10Z</time>
      </trkpt>
      <trkpt lat="39.5033320505" lon="-8.4149540216">
        <ele>97.23</ele>
        <time>2018-12-21T13:56:13Z</time>
      </trkpt>
      <trkpt lat="39.5034090802" lon="-8.4150427859">
        <ele>96.75</ele>
        <time>2018-12-21T13:56:21Z</time>
      </trkpt>
      <trkpt lat="39.5034174621" lon="-8.4150473122">
        <ele>97.23</ele>
        <time>2018-12-21T13:56:22Z</time>
      </trkpt>
      <trkpt lat="39.5035403408" lon="-8.4150518384">
        <ele>96.27</ele>
        <time>2018-12-21T13:56:31Z</time>
      </trkpt>
      <trkpt lat="39.5036327932" lon="-8.4150587115">
        <ele>96.27</ele>
        <time>2018-12-21T13:56:40Z</time>
      </trkpt>
      <trkpt lat="39.5036211424" lon="-8.4150475636">
        <ele>95.79</ele>
        <time>2018-12-21T13:56:50Z</time>
      </trkpt>
      <trkpt lat="39.5036212262" lon="-8.4150461387">
        <ele>95.79</ele>
        <time>2018-12-21T13:57:05Z</time>
      </trkpt>
      <trkpt lat="39.5036081504" lon="-8.4150639083">
        <ele>95.79</ele>
        <time>2018-12-21T13:57:24Z</time>
      </trkpt>
      <trkpt lat="39.5036426000" lon="-8.4151351545">
        <ele>96.27</ele>
        <time>2018-12-21T13:57:33Z</time>
      </trkpt>
      <trkpt lat="39.5036518201" lon="-8.4151278622">
        <ele>96.27</ele>
        <time>2018-12-21T13:57:41Z</time>
      </trkpt>
      <trkpt lat="39.5036634710" lon="-8.4151257668">
        <ele>96.27</ele>
        <time>2018-12-21T13:57:53Z</time>
      </trkpt>
      <trkpt lat="39.5036517363" lon="-8.4151447099">
        <ele>96.27</ele>
        <time>2018-12-21T13:58:00Z</time>
      </trkpt>
      <trkpt lat="39.5036407560" lon="-8.4151173010">
        <ele>96.27</ele>
        <time>2018-12-21T13:58:10Z</time>
      </trkpt>
      <trkpt lat="39.5037007704" lon="-8.4150739666">
        <ele>96.27</ele>
        <time>2018-12-21T13:58:19Z</time>
      </trkpt>
      <trkpt lat="39.5038450230" lon="-8.4150310513">
        <ele>96.27</ele>
        <time>2018-12-21T13:58:30Z</time>
      </trkpt>
      <trkpt lat="39.5039479528" lon="-8.4150136169">
        <ele>96.27</ele>
        <time>2018-12-21T13:58:39Z</time>
      </trkpt>
      <trkpt lat="39.5040140860" lon="-8.4149893094">
        <ele>95.79</ele>
        <time>2018-12-21T13:58:47Z</time>
      </trkpt>
      <trkpt lat="39.5040881820" lon="-8.4149842802">
        <ele>94.35</ele>
        <time>2018-12-21T13:58:54Z</time>
      </trkpt>
      <trkpt lat="39.5042185206" lon="-8.4149734676">
        <ele>92.90</ele>
        <time>2018-12-21T13:59:05Z</time>
      </trkpt>
      <trkpt lat="39.5043250546" lon="-8.4149857052">
        <ele>92.42</ele>
        <time>2018-12-21T13:59:14Z</time>
      </trkpt>
      <trkpt lat="39.5044159982" lon="-8.4149907343">
        <ele>91.46</ele>
        <time>2018-12-21T13:59:23Z</time>
      </trkpt>
      <trkpt lat="39.5044351090" lon="-8.4149976913">
        <ele>90.98</ele>
        <time>2018-12-21T13:59:29Z</time>
      </trkpt>
      <trkpt lat="39.5044557285" lon="-8.4149913210">
        <ele>91.94</ele>
        <time>2018-12-21T13:59:39Z</time>
      </trkpt>
      <trkpt lat="39.5044716541" lon="-8.4149989486">
        <ele>91.94</ele>
        <time>2018-12-21T13:59:59Z</time>
      </trkpt>
      <trkpt lat="39.5044887532" lon="-8.4150128625">
        <ele>91.46</ele>
        <time>2018-12-21T14:00:10Z</time>
      </trkpt>
      <trkpt lat="39.5045159943" lon="-8.4150074981">
        <ele>91.46</ele>
        <time>2018-12-21T14:00:17Z</time>
      </trkpt>
      <trkpt lat="39.5045322552" lon="-8.4150378406">
        <ele>91.46</ele>
        <time>2018-12-21T14:00:29Z</time>
      </trkpt>
      <trkpt lat="39.5045343507" lon="-8.4150588792">
        <ele>91.46</ele>
        <time>2018-12-21T14:00:37Z</time>
      </trkpt>
      <trkpt lat="39.5045302436" lon="-8.4150829352">
        <ele>91.46</ele>
        <time>2018-12-21T14:00:55Z</time>
      </trkpt>
      <trkpt lat="39.5045972150" lon="-8.4150733799">
        <ele>91.94</ele>
        <time>2018-12-21T14:01:02Z</time>
      </trkpt>
      <trkpt lat="39.5046710595" lon="-8.4151403513">
        <ele>90.50</ele>
        <time>2018-12-21T14:01:12Z</time>
      </trkpt>
      <trkpt lat="39.5047145616" lon="-8.4152341448">
        <ele>90.50</ele>
        <time>2018-12-21T14:01:21Z</time>
      </trkpt>
      <trkpt lat="39.5047608297" lon="-8.4152898006">
        <ele>91.46</ele>
        <time>2018-12-21T14:01:27Z</time>
      </trkpt>
      <trkpt lat="39.5047794376" lon="-8.4153873660">
        <ele>91.46</ele>
        <time>2018-12-21T14:01:35Z</time>
      </trkpt>
      <trkpt lat="39.5048067626" lon="-8.4154203907">
        <ele>90.98</ele>
        <time>2018-12-21T14:01:40Z</time>
      </trkpt>
      <trkpt lat="39.5048834570" lon="-8.4155047964">
        <ele>90.98</ele>
        <time>2018-12-21T14:01:49Z</time>
      </trkpt>
      <trkpt lat="39.5049262047" lon="-8.4156340454">
        <ele>91.94</ele>
        <time>2018-12-21T14:01:59Z</time>
      </trkpt>
      <trkpt lat="39.5049699582" lon="-8.4157434292">
        <ele>91.94</ele>
        <time>2018-12-21T14:02:07Z</time>
      </trkpt>
      <trkpt lat="39.5050057489" lon="-8.4158567525">
        <ele>91.94</ele>
        <time>2018-12-21T14:02:16Z</time>
      </trkpt>
      <trkpt lat="39.5050367620" lon="-8.4159383923">
        <ele>91.94</ele>
        <time>2018-12-21T14:02:24Z</time>
      </trkpt>
      <trkpt lat="39.5050834492" lon="-8.4160735086">
        <ele>92.90</ele>
        <time>2018-12-21T14:02:34Z</time>
      </trkpt>
      <trkpt lat="39.5051137917" lon="-8.4161968064">
        <ele>92.42</ele>
        <time>2018-12-21T14:02:43Z</time>
      </trkpt>
      <trkpt lat="39.5051557850" lon="-8.4163367841">
        <ele>91.94</ele>
        <time>2018-12-21T14:02:53Z</time>
      </trkpt>
      <trkpt lat="39.5051822718" lon="-8.4164960403">
        <ele>91.46</ele>
        <time>2018-12-21T14:03:04Z</time>
      </trkpt>
      <trkpt lat="39.5052136201" lon="-8.4166382812">
        <ele>92.90</ele>
        <time>2018-12-21T14:03:13Z</time>
      </trkpt>
      <trkpt lat="39.5052284561" lon="-8.4167285543">
        <ele>93.39</ele>
        <time>2018-12-21T14:03:19Z</time>
      </trkpt>
      <trkpt lat="39.5052675158" lon="-8.4168730583">
        <ele>93.87</ele>
        <time>2018-12-21T14:03:29Z</time>
      </trkpt>
      <trkpt lat="39.5053108502" lon="-8.4169764072">
        <ele>93.87</ele>
        <time>2018-12-21T14:03:37Z</time>
      </trkpt>
      <trkpt lat="39.5053761452" lon="-8.4171290416">
        <ele>92.90</ele>
        <time>2018-12-21T14:03:48Z</time>
      </trkpt>
      <trkpt lat="39.5054321364" lon="-8.4172368329">
        <ele>93.87</ele>
        <time>2018-12-21T14:03:56Z</time>
      </trkpt>
      <trkpt lat="39.5054795779" lon="-8.4173545148">
        <ele>94.35</ele>
        <time>2018-12-21T14:04:05Z</time>
      </trkpt>
      <trkpt lat="39.5055296179" lon="-8.4174675867">
        <ele>94.83</ele>
        <time>2018-12-21T14:04:13Z</time>
      </trkpt>
      <trkpt lat="39.5055656601" lon="-8.4176125098">
        <ele>93.87</ele>
        <time>2018-12-21T14:04:23Z</time>
      </trkpt>
      <trkpt lat="39.5056119282" lon="-8.4177565109">
        <ele>93.87</ele>
        <time>2018-12-21T14:04:32Z</time>
      </trkpt>
      <trkpt lat="39.5056530833" lon="-8.4178893641">
        <ele>95.31</ele>
        <time>2018-12-21T14:04:40Z</time>
      </trkpt>
      <trkpt lat="39.5056878682" lon="-8.4180447645">
        <ele>94.83</ele>
        <time>2018-12-21T14:04:50Z</time>
      </trkpt>
      <trkpt lat="39.5057262573" lon="-8.4182068706">
        <ele>95.31</ele>
        <time>2018-12-21T14:05:00Z</time>
      </trkpt>
      <trkpt lat="39.5057898760" lon="-8.4183937032">
        <ele>95.31</ele>
        <time>2018-12-21T14:05:12Z</time>
      </trkpt>
      <trkpt lat="39.5058496390" lon="-8.4185240418">
        <ele>95.31</ele>
        <time>2018-12-21T14:05:21Z</time>
      </trkpt>
      <trkpt lat="39.5059417561" lon="-8.4186562244">
        <ele>95.31</ele>
        <time>2018-12-21T14:05:32Z</time>
      </trkpt>
      <trkpt lat="39.5059970766" lon="-8.4187840484">
        <ele>95.79</ele>
        <time>2018-12-21T14:05:41Z</time>
      </trkpt>
      <trkpt lat="39.5060217194" lon="-8.4188243654">
        <ele>95.31</ele>
        <time>2018-12-21T14:05:44Z</time>
      </trkpt>
      <trkpt lat="39.5060559176" lon="-8.4188668616">
        <ele>95.79</ele>
        <time>2018-12-21T14:05:48Z</time>
      </trkpt>
      <trkpt lat="39.5060850866" lon="-8.4189023171">
        <ele>96.27</ele>
        <time>2018-12-21T14:05:51Z</time>
      </trkpt>
      <trkpt lat="39.5061350428" lon="-8.4189864714">
        <ele>96.27</ele>
        <time>2018-12-21T14:05:57Z</time>
      </trkpt>
      <trkpt lat="39.5062133297" lon="-8.4191268682">
        <ele>96.27</ele>
        <time>2018-12-21T14:06:08Z</time>
      </trkpt>
      <trkpt lat="39.5062977355" lon="-8.4192553628">
        <ele>96.27</ele>
        <time>2018-12-21T14:06:18Z</time>
      </trkpt>
      <trkpt lat="39.5063946303" lon="-8.4193732962">
        <ele>97.23</ele>
        <time>2018-12-21T14:06:28Z</time>
      </trkpt>
      <trkpt lat="39.5064936206" lon="-8.4194838535">
        <ele>96.27</ele>
        <time>2018-12-21T14:06:39Z</time>
      </trkpt>
      <trkpt lat="39.5065710694" lon="-8.4195838496">
        <ele>97.23</ele>
        <time>2018-12-21T14:06:48Z</time>
      </trkpt>
      <trkpt lat="39.5065795351" lon="-8.4195933212">
        <ele>97.71</ele>
        <time>2018-12-21T14:06:49Z</time>
      </trkpt>
      <trkpt lat="39.5066570677" lon="-8.4196846839">
        <ele>97.71</ele>
        <time>2018-12-21T14:06:58Z</time>
      </trkpt>
      <trkpt lat="39.5067554712" lon="-8.4198144358">
        <ele>98.67</ele>
        <time>2018-12-21T14:07:09Z</time>
      </trkpt>
      <trkpt lat="39.5068226941" lon="-8.4199384041">
        <ele>97.71</ele>
        <time>2018-12-21T14:07:17Z</time>
      </trkpt>
      <trkpt lat="39.5068923477" lon="-8.4200324491">
        <ele>97.23</ele>
        <time>2018-12-21T14:07:25Z</time>
      </trkpt>
      <trkpt lat="39.5069526974" lon="-8.4201643802">
        <ele>98.19</ele>
        <time>2018-12-21T14:07:34Z</time>
      </trkpt>
      <trkpt lat="39.5069697127" lon="-8.4201854188">
        <ele>98.67</ele>
        <time>2018-12-21T14:07:36Z</time>
      </trkpt>
      <trkpt lat="39.5070522744" lon="-8.4202698246">
        <ele>98.67</ele>
        <time>2018-12-21T14:07:44Z</time>
      </trkpt>
      <trkpt lat="39.5070646796" lon="-8.4202769492">
        <ele>98.19</ele>
        <time>2018-12-21T14:07:45Z</time>
      </trkpt>
      <trkpt lat="39.5071733091" lon="-8.4203739278">
        <ele>99.15</ele>
        <time>2018-12-21T14:07:55Z</time>
      </trkpt>
      <trkpt lat="39.5072484948" lon="-8.4204634465">
        <ele>99.15</ele>
        <time>2018-12-21T14:08:04Z</time>
      </trkpt>
      <trkpt lat="39.5073161367" lon="-8.4205399733">
        <ele>101.08</ele>
        <time>2018-12-21T14:08:12Z</time>
      </trkpt>
      <trkpt lat="39.5074128639" lon="-8.4206357785">
        <ele>98.19</ele>
        <time>2018-12-21T14:08:23Z</time>
      </trkpt>
      <trkpt lat="39.5075115189" lon="-8.4207251295">
        <ele>92.90</ele>
        <time>2018-12-21T14:08:33Z</time>
      </trkpt>
      <trkpt lat="39.5075188950" lon="-8.4207340144">
        <ele>99.15</ele>
        <time>2018-12-21T14:08:34Z</time>
      </trkpt>
      <trkpt lat="39.5075437892" lon="-8.4207616746">
        <ele>95.31</ele>
        <time>2018-12-21T14:08:37Z</time>
      </trkpt>
      <trkpt lat="39.5075524226" lon="-8.4207698051">
        <ele>101.56</ele>
        <time>2018-12-21T14:08:38Z</time>
      </trkpt>
      <trkpt lat="39.5075624809" lon="-8.4207792766">
        <ele>98.19</ele>
        <time>2018-12-21T14:08:39Z</time>
      </trkpt>
      <trkpt lat="39.5076772291" lon="-8.4208782669">
        <ele>99.15</ele>
        <time>2018-12-21T14:08:50Z</time>
      </trkpt>
      <trkpt lat="39.5077744592" lon="-8.4209776763">
        <ele>92.42</ele>
        <time>2018-12-21T14:09:01Z</time>
      </trkpt>
      <trkpt lat="39.5077841822" lon="-8.4209894110">
        <ele>101.08</ele>
        <time>2018-12-21T14:09:02Z</time>
      </trkpt>
      <trkpt lat="39.5078242477" lon="-8.4210309014">
        <ele>97.71</ele>
        <time>2018-12-21T14:09:05Z</time>
      </trkpt>
      <trkpt lat="39.5078933146" lon="-8.4210695419">
        <ele>97.71</ele>
        <time>2018-12-21T14:09:11Z</time>
      </trkpt>
      <trkpt lat="39.5080037881" lon="-8.4211210068">
        <ele>96.75</ele>
        <time>2018-12-21T14:09:21Z</time>
      </trkpt>
      <trkpt lat="39.5080270898" lon="-8.4211311489">
        <ele>98.19</ele>
        <time>2018-12-21T14:09:23Z</time>
      </trkpt>
      <trkpt lat="39.5081301033" lon="-8.4211712983">
        <ele>98.19</ele>
        <time>2018-12-21T14:09:33Z</time>
      </trkpt>
      <trkpt lat="39.5082394034" lon="-8.4212302230">
        <ele>91.94</ele>
        <time>2018-12-21T14:09:42Z</time>
      </trkpt>
      <trkpt lat="39.5082496293" lon="-8.4212329052">
        <ele>103.48</ele>
        <time>2018-12-21T14:09:43Z</time>
      </trkpt>
      <trkpt lat="39.5082587656" lon="-8.4212348331">
        <ele>98.19</ele>
        <time>2018-12-21T14:09:44Z</time>
      </trkpt>
      <trkpt lat="39.5083721727" lon="-8.4212951828">
        <ele>98.19</ele>
        <time>2018-12-21T14:09:55Z</time>
      </trkpt>
      <trkpt lat="39.5083861705" lon="-8.4213036485">
        <ele>98.67</ele>
        <time>2018-12-21T14:09:59Z</time>
      </trkpt>
      <trkpt lat="39.5084599312" lon="-8.4213860426">
        <ele>98.67</ele>
        <time>2018-12-21T14:10:04Z</time>
      </trkpt>
      <trkpt lat="39.5085318480" lon="-8.4214391839">
        <ele>99.15</ele>
        <time>2018-12-21T14:10:10Z</time>
      </trkpt>
      <trkpt lat="39.5085695665" lon="-8.4214584623">
        <ele>100.11</ele>
        <time>2018-12-21T14:10:14Z</time>
      </trkpt>
      <trkpt lat="39.5086779445" lon="-8.4215157945">
        <ele>98.67</ele>
        <time>2018-12-21T14:10:24Z</time>
      </trkpt>
      <trkpt lat="39.5086863264" lon="-8.4215232544">
        <ele>102.04</ele>
        <time>2018-12-21T14:10:25Z</time>
      </trkpt>
      <trkpt lat="39.5087185968" lon="-8.4215473942">
        <ele>98.67</ele>
        <time>2018-12-21T14:10:28Z</time>
      </trkpt>
      <trkpt lat="39.5087436587" lon="-8.4215654153">
        <ele>101.56</ele>
        <time>2018-12-21T14:10:30Z</time>
      </trkpt>
      <trkpt lat="39.5087579917" lon="-8.4215718694">
        <ele>100.11</ele>
        <time>2018-12-21T14:10:31Z</time>
      </trkpt>
      <trkpt lat="39.5088725723" lon="-8.4216119349">
        <ele>101.56</ele>
        <time>2018-12-21T14:10:40Z</time>
      </trkpt>
      <trkpt lat="39.5089526195" lon="-8.4216728713">
        <ele>97.23</ele>
        <time>2018-12-21T14:10:48Z</time>
      </trkpt>
      <trkpt lat="39.5089620911" lon="-8.4216820914">
        <ele>106.36</ele>
        <time>2018-12-21T14:10:49Z</time>
      </trkpt>
      <trkpt lat="39.5089717302" lon="-8.4216919821">
        <ele>101.56</ele>
        <time>2018-12-21T14:10:50Z</time>
      </trkpt>
      <trkpt lat="39.5090054255" lon="-8.4217203967">
        <ele>100.60</ele>
        <time>2018-12-21T14:10:52Z</time>
      </trkpt>
      <trkpt lat="39.5090213511" lon="-8.4217301197">
        <ele>101.08</ele>
        <time>2018-12-21T14:10:53Z</time>
      </trkpt>
      <trkpt lat="39.5090746600" lon="-8.4217095841">
        <ele>101.56</ele>
        <time>2018-12-21T14:11:00Z</time>
      </trkpt>
      <trkpt lat="39.5091825351" lon="-8.4217797406">
        <ele>101.56</ele>
        <time>2018-12-21T14:11:08Z</time>
      </trkpt>
      <trkpt lat="39.5093131252" lon="-8.4218400065">
        <ele>101.56</ele>
        <time>2018-12-21T14:11:15Z</time>
      </trkpt>
      <trkpt lat="39.5093475748" lon="-8.4218307864">
        <ele>101.08</ele>
        <time>2018-12-21T14:11:19Z</time>
      </trkpt>
      <trkpt lat="39.5093461499" lon="-8.4218295291">
        <ele>101.56</ele>
        <time>2018-12-21T14:11:20Z</time>
      </trkpt>
      <trkpt lat="39.5094367582" lon="-8.4218990989">
        <ele>101.08</ele>
        <time>2018-12-21T14:11:26Z</time>
      </trkpt>
      <trkpt lat="39.5094947610" lon="-8.4219455346">
        <ele>101.56</ele>
        <time>2018-12-21T14:11:34Z</time>
      </trkpt>
      <trkpt lat="39.5095335692" lon="-8.4219836723">
        <ele>101.56</ele>
        <time>2018-12-21T14:11:39Z</time>
      </trkpt>
      <trkpt lat="39.5095997863" lon="-8.4220724367">
        <ele>101.56</ele>
        <time>2018-12-21T14:11:45Z</time>
      </trkpt>
      <trkpt lat="39.5096116047" lon="-8.4220823273">
        <ele>101.56</ele>
        <time>2018-12-21T14:11:50Z</time>
      </trkpt>
      <trkpt lat="39.5096779056" lon="-8.4221913759">
        <ele>101.56</ele>
        <time>2018-12-21T14:11:56Z</time>
      </trkpt>
      <trkpt lat="39.5097382553" lon="-8.4223067947">
        <ele>102.52</ele>
        <time>2018-12-21T14:12:07Z</time>
      </trkpt>
      <trkpt lat="39.5097639877" lon="-8.4224238899">
        <ele>102.04</ele>
        <time>2018-12-21T14:12:17Z</time>
      </trkpt>
      <trkpt lat="39.5097739622" lon="-8.4225144982">
        <ele>102.52</ele>
        <time>2018-12-21T14:12:23Z</time>
      </trkpt>
      <trkpt lat="39.5098146144" lon="-8.4227216989">
        <ele>102.04</ele>
        <time>2018-12-21T14:12:31Z</time>
      </trkpt>
      <trkpt lat="39.5098694321" lon="-8.4227665421">
        <ele>102.52</ele>
        <time>2018-12-21T14:12:38Z</time>
      </trkpt>
      <trkpt lat="39.5099315420" lon="-8.4227756783">
        <ele>99.15</ele>
        <time>2018-12-21T14:12:43Z</time>
      </trkpt>
      <trkpt lat="39.5099417679" lon="-8.4227890894">
        <ele>105.40</ele>
        <time>2018-12-21T14:12:44Z</time>
      </trkpt>
      <trkpt lat="39.5099514071" lon="-8.4228003211">
        <ele>110.69</ele>
        <time>2018-12-21T14:12:45Z</time>
      </trkpt>
      <trkpt lat="39.5099628065" lon="-8.4228117205">
        <ele>103.48</ele>
        <time>2018-12-21T14:12:46Z</time>
      </trkpt>
      <trkpt lat="39.5099778939" lon="-8.4228201862">
        <ele>103.48</ele>
        <time>2018-12-21T14:12:47Z</time>
      </trkpt>
      <trkpt lat="39.5099991839" lon="-8.4228361119">
        <ele>104.92</ele>
        <time>2018-12-21T14:12:50Z</time>
      </trkpt>
      <trkpt lat="39.5100985933" lon="-8.4229535423">
        <ele>103.48</ele>
        <time>2018-12-21T14:12:57Z</time>
      </trkpt>
      <trkpt lat="39.5101130940" lon="-8.4229550511">
        <ele>104.44</ele>
        <time>2018-12-21T14:13:02Z</time>
      </trkpt>
      <trkpt lat="39.5101195481" lon="-8.4229556378">
        <ele>104.92</ele>
        <time>2018-12-21T14:13:03Z</time>
      </trkpt>
      <trkpt lat="39.5102431811" lon="-8.4230404627">
        <ele>104.92</ele>
        <time>2018-12-21T14:13:11Z</time>
      </trkpt>
      <trkpt lat="39.5103118289" lon="-8.4230404627">
        <ele>105.88</ele>
        <time>2018-12-21T14:13:17Z</time>
      </trkpt>
      <trkpt lat="39.5103878528" lon="-8.4230665304">
        <ele>102.52</ele>
        <time>2018-12-21T14:13:24Z</time>
      </trkpt>
      <trkpt lat="39.5104001742" lon="-8.4230729006">
        <ele>108.77</ele>
        <time>2018-12-21T14:13:25Z</time>
      </trkpt>
      <trkpt lat="39.5104114898" lon="-8.4230823722">
        <ele>102.52</ele>
        <time>2018-12-21T14:13:26Z</time>
      </trkpt>
      <trkpt lat="39.5104318578" lon="-8.4231009800">
        <ele>107.32</ele>
        <time>2018-12-21T14:13:28Z</time>
      </trkpt>
      <trkpt lat="39.5104398206" lon="-8.4231078532">
        <ele>106.36</ele>
        <time>2018-12-21T14:13:29Z</time>
      </trkpt>
      <trkpt lat="39.5104576740" lon="-8.4231225215">
        <ele>108.77</ele>
        <time>2018-12-21T14:13:31Z</time>
      </trkpt>
      <trkpt lat="39.5104984101" lon="-8.4231563006">
        <ele>100.60</ele>
        <time>2018-12-21T14:13:35Z</time>
      </trkpt>
      <trkpt lat="39.5105071273" lon="-8.4231664427">
        <ele>110.21</ele>
        <time>2018-12-21T14:13:36Z</time>
      </trkpt>
      <trkpt lat="39.5105141681" lon="-8.4231744055">
        <ele>107.81</ele>
        <time>2018-12-21T14:13:37Z</time>
      </trkpt>
      <trkpt lat="39.5105418283" lon="-8.4231969528">
        <ele>105.88</ele>
        <time>2018-12-21T14:13:40Z</time>
      </trkpt>
      <trkpt lat="39.5106425788" lon="-8.4232868068">
        <ele>107.32</ele>
        <time>2018-12-21T14:13:50Z</time>
      </trkpt>
      <trkpt lat="39.5107139088" lon="-8.4233638365">
        <ele>108.29</ele>
        <time>2018-12-21T14:13:59Z</time>
      </trkpt>
      <trkpt lat="39.5107836463" lon="-8.4234426264">
        <ele>108.29</ele>
        <time>2018-12-21T14:14:08Z</time>
      </trkpt>
      <trkpt lat="39.5108261425" lon="-8.4235023893">
        <ele>108.77</ele>
        <time>2018-12-21T14:14:13Z</time>
      </trkpt>
      <trkpt lat="39.5109131467" lon="-8.4236522578">
        <ele>108.29</ele>
        <time>2018-12-21T14:14:24Z</time>
      </trkpt>
      <trkpt lat="39.5109163318" lon="-8.4236666746">
        <ele>108.77</ele>
        <time>2018-12-21T14:14:25Z</time>
      </trkpt>
      <trkpt lat="39.5109207742" lon="-8.4236893896">
        <ele>108.77</ele>
        <time>2018-12-21T14:14:27Z</time>
      </trkpt>
      <trkpt lat="39.5109740831" lon="-8.4238453768">
        <ele>109.73</ele>
        <time>2018-12-21T14:14:38Z</time>
      </trkpt>
      <trkpt lat="39.5110235363" lon="-8.4239585325">
        <ele>109.25</ele>
        <time>2018-12-21T14:14:47Z</time>
      </trkpt>
      <trkpt lat="39.5110881608" lon="-8.4240742028">
        <ele>110.69</ele>
        <time>2018-12-21T14:14:56Z</time>
      </trkpt>
      <trkpt lat="39.5111456607" lon="-8.4241834190">
        <ele>110.69</ele>
        <time>2018-12-21T14:15:05Z</time>
      </trkpt>
      <trkpt lat="39.5111734048" lon="-8.4242204670">
        <ele>110.69</ele>
        <time>2018-12-21T14:15:10Z</time>
      </trkpt>
      <trkpt lat="39.5111889113" lon="-8.4242332913">
        <ele>110.69</ele>
        <time>2018-12-21T14:15:12Z</time>
      </trkpt>
      <trkpt lat="39.5112383645" lon="-8.4243682399">
        <ele>111.17</ele>
        <time>2018-12-21T14:15:22Z</time>
      </trkpt>
      <trkpt lat="39.5112757478" lon="-8.4244694933">
        <ele>110.21</ele>
        <time>2018-12-21T14:15:30Z</time>
      </trkpt>
      <trkpt lat="39.5113348402" lon="-8.4246012568">
        <ele>110.69</ele>
        <time>2018-12-21T14:15:39Z</time>
      </trkpt>
      <trkpt lat="39.5113509335" lon="-8.4247414861">
        <ele>111.17</ele>
        <time>2018-12-21T14:15:48Z</time>
      </trkpt>
      <trkpt lat="39.5113091078" lon="-8.4249067772">
        <ele>111.17</ele>
        <time>2018-12-21T14:16:00Z</time>
      </trkpt>
      <trkpt lat="39.5112884045" lon="-8.4249920212">
        <ele>111.17</ele>
        <time>2018-12-21T14:16:06Z</time>
      </trkpt>
      <trkpt lat="39.5112801064" lon="-8.4251112118">
        <ele>111.65</ele>
        <time>2018-12-21T14:16:15Z</time>
      </trkpt>
      <trkpt lat="39.5112972055" lon="-8.4252730664">
        <ele>111.17</ele>
        <time>2018-12-21T14:16:23Z</time>
      </trkpt>
      <trkpt lat="39.5113024022" lon="-8.4253242798">
        <ele>112.13</ele>
        <time>2018-12-21T14:16:27Z</time>
      </trkpt>
      <trkpt lat="39.5113312360" lon="-8.4253911674">
        <ele>111.65</ele>
        <time>2018-12-21T14:16:32Z</time>
      </trkpt>
      <trkpt lat="39.5113526098" lon="-8.4254308138">
        <ele>111.65</ele>
        <time>2018-12-21T14:16:35Z</time>
      </trkpt>
      <trkpt lat="39.5113592315" lon="-8.4254990425">
        <ele>111.65</ele>
        <time>2018-12-21T14:16:39Z</time>
      </trkpt>
      <trkpt lat="39.5113639254" lon="-8.4256030619">
        <ele>111.17</ele>
        <time>2018-12-21T14:16:46Z</time>
      </trkpt>
      <trkpt lat="39.5113863889" lon="-8.4257734660">
        <ele>110.69</ele>
        <time>2018-12-21T14:16:58Z</time>
      </trkpt>
      <trkpt lat="39.5114148036" lon="-8.4258847777">
        <ele>110.21</ele>
        <time>2018-12-21T14:17:06Z</time>
      </trkpt>
      <trkpt lat="39.5114651788" lon="-8.4260180499">
        <ele>109.25</ele>
        <time>2018-12-21T14:17:17Z</time>
      </trkpt>
      <trkpt lat="39.5114710461" lon="-8.4260286950">
        <ele>109.73</ele>
        <time>2018-12-21T14:17:18Z</time>
      </trkpt>
      <trkpt lat="39.5115576312" lon="-8.4261515737">
        <ele>109.25</ele>
        <time>2018-12-21T14:17:29Z</time>
      </trkpt>
      <trkpt lat="39.5116381813" lon="-8.4262693394">
        <ele>108.77</ele>
        <time>2018-12-21T14:17:39Z</time>
      </trkpt>
      <trkpt lat="39.5116628241" lon="-8.4263363108">
        <ele>108.77</ele>
        <time>2018-12-21T14:17:44Z</time>
      </trkpt>
      <trkpt lat="39.5117385127" lon="-8.4264133405">
        <ele>109.25</ele>
        <time>2018-12-21T14:17:52Z</time>
      </trkpt>
      <trkpt lat="39.5118261874" lon="-8.4265003446">
        <ele>109.25</ele>
        <time>2018-12-21T14:18:01Z</time>
      </trkpt>
      <trkpt lat="39.5119291171" lon="-8.4265261609">
        <ele>109.25</ele>
        <time>2018-12-21T14:18:10Z</time>
      </trkpt>
      <trkpt lat="39.5120459609" lon="-8.4265492111">
        <ele>109.25</ele>
        <time>2018-12-21T14:18:19Z</time>
      </trkpt>
      <trkpt lat="39.5121703483" lon="-8.4265928809">
        <ele>108.77</ele>
        <time>2018-12-21T14:18:29Z</time>
      </trkpt>
      <trkpt lat="39.5122971665" lon="-8.4266347066">
        <ele>108.29</ele>
        <time>2018-12-21T14:18:40Z</time>
      </trkpt>
      <trkpt lat="39.5124135073" lon="-8.4266564157">
        <ele>106.84</ele>
        <time>2018-12-21T14:18:50Z</time>
      </trkpt>
      <trkpt lat="39.5125449356" lon="-8.4266849142">
        <ele>107.32</ele>
        <time>2018-12-21T14:18:59Z</time>
      </trkpt>
      <trkpt lat="39.5126809739" lon="-8.4267065395">
        <ele>105.88</ele>
        <time>2018-12-21T14:19:09Z</time>
      </trkpt>
      <trkpt lat="39.5127811376" lon="-8.4267249797">
        <ele>105.88</ele>
        <time>2018-12-21T14:19:17Z</time>
      </trkpt>
      <trkpt lat="39.5128871687" lon="-8.4267381392">
        <ele>104.92</ele>
        <time>2018-12-21T14:19:25Z</time>
      </trkpt>
      <trkpt lat="39.5129884221" lon="-8.4267785400">
        <ele>103.96</ele>
        <time>2018-12-21T14:19:34Z</time>
      </trkpt>
      <trkpt lat="39.5130189322" lon="-8.4268129896">
        <ele>103.96</ele>
        <time>2018-12-21T14:19:42Z</time>
      </trkpt>
      <trkpt lat="39.5130107179" lon="-8.4268149175">
        <ele>102.52</ele>
        <time>2018-12-21T14:19:51Z</time>
      </trkpt>
      <trkpt lat="39.5130603388" lon="-8.4267969802">
        <ele>103.00</ele>
        <time>2018-12-21T14:19:57Z</time>
      </trkpt>
      <trkpt lat="39.5131926052" lon="-8.4268274903">
        <ele>102.52</ele>
        <time>2018-12-21T14:20:08Z</time>
      </trkpt>
      <trkpt lat="39.5133054256" lon="-8.4268253110">
        <ele>101.08</ele>
        <time>2018-12-21T14:20:16Z</time>
      </trkpt>
      <trkpt lat="39.5134108700" lon="-8.4268569108">
        <ele>100.60</ele>
        <time>2018-12-21T14:20:26Z</time>
      </trkpt>
      <trkpt lat="39.5135057531" lon="-8.4268695675">
        <ele>100.60</ele>
        <time>2018-12-21T14:20:35Z</time>
      </trkpt>
      <trkpt lat="39.5136379357" lon="-8.4268930368">
        <ele>99.63</ele>
        <time>2018-12-21T14:20:46Z</time>
      </trkpt>
      <trkpt lat="39.5137368422" lon="-8.4269250557">
        <ele>99.63</ele>
        <time>2018-12-21T14:20:55Z</time>
      </trkpt>
      <trkpt lat="39.5138599724" lon="-8.4269467648">
        <ele>99.63</ele>
        <time>2018-12-21T14:21:05Z</time>
      </trkpt>
      <trkpt lat="39.5139861200" lon="-8.4269952122">
        <ele>98.67</ele>
        <time>2018-12-21T14:21:15Z</time>
      </trkpt>
      <trkpt lat="39.5141275227" lon="-8.4270729125">
        <ele>98.67</ele>
        <time>2018-12-21T14:21:27Z</time>
      </trkpt>
      <trkpt lat="39.5142372418" lon="-8.4271354415">
        <ele>99.15</ele>
        <time>2018-12-21T14:21:37Z</time>
      </trkpt>
      <trkpt lat="39.5143705979" lon="-8.4272132255">
        <ele>98.67</ele>
        <time>2018-12-21T14:21:48Z</time>
      </trkpt>
      <trkpt lat="39.5144125912" lon="-8.4272584040">
        <ele>97.71</ele>
        <time>2018-12-21T14:21:52Z</time>
      </trkpt>
      <trkpt lat="39.5145428460" lon="-8.4273630939">
        <ele>98.19</ele>
        <time>2018-12-21T14:22:04Z</time>
      </trkpt>
      <trkpt lat="39.5146453567" lon="-8.4274156485">
        <ele>98.19</ele>
        <time>2018-12-21T14:22:13Z</time>
      </trkpt>
      <trkpt lat="39.5147875138" lon="-8.4274485055">
        <ele>98.19</ele>
        <time>2018-12-21T14:22:24Z</time>
      </trkpt>
      <trkpt lat="39.5149052795" lon="-8.4275138844">
        <ele>99.15</ele>
        <time>2018-12-21T14:22:35Z</time>
      </trkpt>
      <trkpt lat="39.5149783697" lon="-8.4275164828">
        <ele>100.11</ele>
        <time>2018-12-21T14:22:44Z</time>
      </trkpt>
      <trkpt lat="39.5150178485" lon="-8.4275466576">
        <ele>99.63</ele>
        <time>2018-12-21T14:22:54Z</time>
      </trkpt>
      <trkpt lat="39.5151550602" lon="-8.4275550395">
        <ele>101.08</ele>
        <time>2018-12-21T14:23:05Z</time>
      </trkpt>
      <trkpt lat="39.5152128115" lon="-8.4275665227">
        <ele>101.56</ele>
        <time>2018-12-21T14:23:10Z</time>
      </trkpt>
      <trkpt lat="39.5153730735" lon="-8.4276058339">
        <ele>101.08</ele>
        <time>2018-12-21T14:23:23Z</time>
      </trkpt>
      <trkpt lat="39.5154845528" lon="-8.4276153892">
        <ele>101.56</ele>
        <time>2018-12-21T14:23:32Z</time>
      </trkpt>
      <trkpt lat="39.5155914221" lon="-8.4276707098">
        <ele>102.04</ele>
        <time>2018-12-21T14:23:42Z</time>
      </trkpt>
      <trkpt lat="39.5156696253" lon="-8.4276888147">
        <ele>102.04</ele>
        <time>2018-12-21T14:23:47Z</time>
      </trkpt>
      <trkpt lat="39.5157966111" lon="-8.4277434647">
        <ele>102.52</ele>
        <time>2018-12-21T14:23:57Z</time>
      </trkpt>
      <trkpt lat="39.5159063302" lon="-8.4277845360">
        <ele>102.52</ele>
        <time>2018-12-21T14:24:06Z</time>
      </trkpt>
      <trkpt lat="39.5160156302" lon="-8.4278140403">
        <ele>103.96</ele>
        <time>2018-12-21T14:24:15Z</time>
      </trkpt>
      <trkpt lat="39.5161353238" lon="-8.4278500825">
        <ele>99.63</ele>
        <time>2018-12-21T14:24:26Z</time>
      </trkpt>
      <trkpt lat="39.5161459688" lon="-8.4278525133">
        <ele>105.40</ele>
        <time>2018-12-21T14:24:27Z</time>
      </trkpt>
      <trkpt lat="39.5161550213" lon="-8.4278551117">
        <ele>96.27</ele>
        <time>2018-12-21T14:24:28Z</time>
      </trkpt>
      <trkpt lat="39.5161663368" lon="-8.4278601408">
        <ele>109.25</ele>
        <time>2018-12-21T14:24:29Z</time>
      </trkpt>
      <trkpt lat="39.5161768980" lon="-8.4278636612">
        <ele>103.00</ele>
        <time>2018-12-21T14:24:30Z</time>
      </trkpt>
      <trkpt lat="39.5162032172" lon="-8.4278606437">
        <ele>106.84</ele>
        <time>2018-12-21T14:24:32Z</time>
      </trkpt>
      <trkpt lat="39.5162167959" lon="-8.4278587159">
        <ele>102.52</ele>
        <time>2018-12-21T14:24:33Z</time>
      </trkpt>
      <trkpt lat="39.5162300393" lon="-8.4278570395">
        <ele>98.19</ele>
        <time>2018-12-21T14:24:34Z</time>
      </trkpt>
      <trkpt lat="39.5162426122" lon="-8.4278545249">
        <ele>104.92</ele>
        <time>2018-12-21T14:24:35Z</time>
      </trkpt>
      <trkpt lat="39.5162544306" lon="-8.4278535191">
        <ele>96.27</ele>
        <time>2018-12-21T14:24:36Z</time>
      </trkpt>
      <trkpt lat="39.5162649918" lon="-8.4278558660">
        <ele>101.56</ele>
        <time>2018-12-21T14:24:37Z</time>
      </trkpt>
      <trkpt lat="39.5163098350" lon="-8.4278754797">
        <ele>106.36</ele>
        <time>2018-12-21T14:24:41Z</time>
      </trkpt>
      <trkpt lat="39.5163219050" lon="-8.4278826043">
        <ele>101.56</ele>
        <time>2018-12-21T14:24:42Z</time>
      </trkpt>
      <trkpt lat="39.5164079871" lon="-8.4278944228">
        <ele>103.48</ele>
        <time>2018-12-21T14:24:50Z</time>
      </trkpt>
      <trkpt lat="39.5164275169" lon="-8.4278971050">
        <ele>103.00</ele>
        <time>2018-12-21T14:24:52Z</time>
      </trkpt>
      <trkpt lat="39.5165533293" lon="-8.4279515874">
        <ele>102.52</ele>
        <time>2018-12-21T14:25:03Z</time>
      </trkpt>
      <trkpt lat="39.5166783873" lon="-8.4279908985">
        <ele>103.48</ele>
        <time>2018-12-21T14:25:14Z</time>
      </trkpt>
      <trkpt lat="39.5167285949" lon="-8.4279955924">
        <ele>103.48</ele>
        <time>2018-12-21T14:25:18Z</time>
      </trkpt>
      <trkpt lat="39.5167537406" lon="-8.4279955085">
        <ele>109.25</ele>
        <time>2018-12-21T14:25:20Z</time>
      </trkpt>
      <trkpt lat="39.5167662296" lon="-8.4279975202">
        <ele>103.96</ele>
        <time>2018-12-21T14:25:21Z</time>
      </trkpt>
      <trkpt lat="39.5168895274" lon="-8.4280649945">
        <ele>101.08</ele>
        <time>2018-12-21T14:25:31Z</time>
      </trkpt>
      <trkpt lat="39.5169026032" lon="-8.4280680120">
        <ele>106.36</ele>
        <time>2018-12-21T14:25:32Z</time>
      </trkpt>
      <trkpt lat="39.5169555768" lon="-8.4280829318">
        <ele>104.92</ele>
        <time>2018-12-21T14:25:36Z</time>
      </trkpt>
      <trkpt lat="39.5169723406" lon="-8.4281216562">
        <ele>104.44</ele>
        <time>2018-12-21T14:25:39Z</time>
      </trkpt>
      <trkpt lat="39.5169833209" lon="-8.4282615501">
        <ele>103.96</ele>
        <time>2018-12-21T14:25:48Z</time>
      </trkpt>
      <trkpt lat="39.5169758610" lon="-8.4283885360">
        <ele>103.96</ele>
        <time>2018-12-21T14:25:56Z</time>
      </trkpt>
      <trkpt lat="39.5169798844" lon="-8.4284306969">
        <ele>102.52</ele>
        <time>2018-12-21T14:25:59Z</time>
      </trkpt>
      <trkpt lat="39.5169919543" lon="-8.4285770450">
        <ele>102.52</ele>
        <time>2018-12-21T14:26:08Z</time>
      </trkpt>
      <trkpt lat="39.5170025155" lon="-8.4287197888">
        <ele>101.56</ele>
        <time>2018-12-21T14:26:18Z</time>
      </trkpt>
      <trkpt lat="39.5170048624" lon="-8.4289048612">
        <ele>101.08</ele>
        <time>2018-12-21T14:26:29Z</time>
      </trkpt>
      <trkpt lat="39.5169664733" lon="-8.4290870000">
        <ele>100.11</ele>
        <time>2018-12-21T14:26:40Z</time>
      </trkpt>
      <trkpt lat="39.5169481169" lon="-8.4292531293">
        <ele>99.15</ele>
        <time>2018-12-21T14:26:51Z</time>
      </trkpt>
      <trkpt lat="39.5169244800" lon="-8.4294226114">
        <ele>98.19</ele>
        <time>2018-12-21T14:27:02Z</time>
      </trkpt>
      <trkpt lat="39.5168990828" lon="-8.4296279680">
        <ele>97.71</ele>
        <time>2018-12-21T14:27:14Z</time>
      </trkpt>
      <trkpt lat="39.5168949757" lon="-8.4297727235">
        <ele>96.27</ele>
        <time>2018-12-21T14:27:24Z</time>
      </trkpt>
      <trkpt lat="39.5169329457" lon="-8.4298950154">
        <ele>95.79</ele>
        <time>2018-12-21T14:27:33Z</time>
      </trkpt>
      <trkpt lat="39.5169411600" lon="-8.4299128689">
        <ele>95.31</ele>
        <time>2018-12-21T14:27:34Z</time>
      </trkpt>
      <trkpt lat="39.5169870090" lon="-8.4300330654">
        <ele>94.83</ele>
        <time>2018-12-21T14:27:41Z</time>
      </trkpt>
      <trkpt lat="39.5170149207" lon="-8.4302308783">
        <ele>94.35</ele>
        <time>2018-12-21T14:27:54Z</time>
      </trkpt>
      <trkpt lat="39.5170184411" lon="-8.4304017853">
        <ele>94.83</ele>
        <time>2018-12-21T14:28:05Z</time>
      </trkpt>
      <trkpt lat="39.5170099754" lon="-8.4305329621">
        <ele>92.90</ele>
        <time>2018-12-21T14:28:13Z</time>
      </trkpt>
      <trkpt lat="39.5170131605" lon="-8.4307241533">
        <ele>92.90</ele>
        <time>2018-12-21T14:28:25Z</time>
      </trkpt>
      <trkpt lat="39.5170114003" lon="-8.4307719301">
        <ele>92.90</ele>
        <time>2018-12-21T14:28:28Z</time>
      </trkpt>
      <trkpt lat="39.5170296729" lon="-8.4309214633">
        <ele>92.42</ele>
        <time>2018-12-21T14:28:37Z</time>
      </trkpt>
      <trkpt lat="39.5170436706" lon="-8.4310782887">
        <ele>91.94</ele>
        <time>2018-12-21T14:28:47Z</time>
      </trkpt>
      <trkpt lat="39.5170461852" lon="-8.4311579168">
        <ele>91.94</ele>
        <time>2018-12-21T14:28:52Z</time>
      </trkpt>
      <trkpt lat="39.5170398988" lon="-8.4311893489">
        <ele>92.42</ele>
        <time>2018-12-21T14:28:54Z</time>
      </trkpt>
      <trkpt lat="39.5170532260" lon="-8.4313275665">
        <ele>91.94</ele>
        <time>2018-12-21T14:29:03Z</time>
      </trkpt>
      <trkpt lat="39.5170632843" lon="-8.4314799495">
        <ele>91.46</ele>
        <time>2018-12-21T14:29:12Z</time>
      </trkpt>
      <trkpt lat="39.5170686487" lon="-8.4316160716">
        <ele>91.94</ele>
        <time>2018-12-21T14:29:21Z</time>
      </trkpt>
      <trkpt lat="39.5170615241" lon="-8.4316939395">
        <ele>90.50</ele>
        <time>2018-12-21T14:29:30Z</time>
      </trkpt>
      <trkpt lat="39.5170430839" lon="-8.4317976236">
        <ele>90.98</ele>
        <time>2018-12-21T14:29:37Z</time>
      </trkpt>
      <trkpt lat="39.5170424134" lon="-8.4318837896">
        <ele>90.98</ele>
        <time>2018-12-21T14:29:43Z</time>
      </trkpt>
      <trkpt lat="39.5170347858" lon="-8.4320191573">
        <ele>90.50</ele>
        <time>2018-12-21T14:29:51Z</time>
      </trkpt>
      <trkpt lat="39.5170407370" lon="-8.4321507532">
        <ele>90.98</ele>
        <time>2018-12-21T14:30:01Z</time>
      </trkpt>
      <trkpt lat="39.5170269068" lon="-8.4322722070">
        <ele>90.02</ele>
        <time>2018-12-21T14:30:10Z</time>
      </trkpt>
      <trkpt lat="39.5170241408" lon="-8.4322887193">
        <ele>90.02</ele>
        <time>2018-12-21T14:30:11Z</time>
      </trkpt>
      <trkpt lat="39.5170040242" lon="-8.4324858617">
        <ele>89.54</ele>
        <time>2018-12-21T14:30:22Z</time>
      </trkpt>
      <trkpt lat="39.5169858355" lon="-8.4326573554">
        <ele>89.54</ele>
        <time>2018-12-21T14:30:33Z</time>
      </trkpt>
      <trkpt lat="39.5169719215" lon="-8.4328291845">
        <ele>89.54</ele>
        <time>2018-12-21T14:30:43Z</time>
      </trkpt>
      <trkpt lat="39.5169807225" lon="-8.4330045339">
        <ele>89.06</ele>
        <time>2018-12-21T14:30:54Z</time>
      </trkpt>
      <trkpt lat="39.5170035213" lon="-8.4331530612">
        <ele>88.58</ele>
        <time>2018-12-21T14:31:03Z</time>
      </trkpt>
      <trkpt lat="39.5170490351" lon="-8.4332860820">
        <ele>89.06</ele>
        <time>2018-12-21T14:31:12Z</time>
      </trkpt>
      <trkpt lat="39.5171274059" lon="-8.4334527142">
        <ele>88.58</ele>
        <time>2018-12-21T14:31:23Z</time>
      </trkpt>
      <trkpt lat="39.5171345305" lon="-8.4334704001">
        <ele>89.06</ele>
        <time>2018-12-21T14:31:24Z</time>
      </trkpt>
      <trkpt lat="39.5172252227" lon="-8.4336087015">
        <ele>89.06</ele>
        <time>2018-12-21T14:31:35Z</time>
      </trkpt>
      <trkpt lat="39.5173039287" lon="-8.4337485954">
        <ele>88.58</ele>
        <time>2018-12-21T14:31:46Z</time>
      </trkpt>
      <trkpt lat="39.5173498616" lon="-8.4338306542">
        <ele>88.10</ele>
        <time>2018-12-21T14:31:53Z</time>
      </trkpt>
      <trkpt lat="39.5174413919" lon="-8.4339780919">
        <ele>87.62</ele>
        <time>2018-12-21T14:32:04Z</time>
      </trkpt>
      <trkpt lat="39.5175328385" lon="-8.4341401979">
        <ele>87.14</ele>
        <time>2018-12-21T14:32:16Z</time>
      </trkpt>
      <trkpt lat="39.5175512787" lon="-8.4341829456">
        <ele>86.66</ele>
        <time>2018-12-21T14:32:19Z</time>
      </trkpt>
      <trkpt lat="39.5176255424" lon="-8.4342830256">
        <ele>86.18</ele>
        <time>2018-12-21T14:32:29Z</time>
      </trkpt>
      <trkpt lat="39.5176686253" lon="-8.4343758970">
        <ele>86.66</ele>
        <time>2018-12-21T14:32:37Z</time>
      </trkpt>
      <trkpt lat="39.5177402906" lon="-8.4345089179">
        <ele>85.69</ele>
        <time>2018-12-21T14:32:46Z</time>
      </trkpt>
      <trkpt lat="39.5177679509" lon="-8.4345824271">
        <ele>85.21</ele>
        <time>2018-12-21T14:32:51Z</time>
      </trkpt>
      <trkpt lat="39.5178364310" lon="-8.4347234946">
        <ele>83.77</ele>
        <time>2018-12-21T14:33:00Z</time>
      </trkpt>
      <trkpt lat="39.5179225132" lon="-8.4348109178">
        <ele>81.85</ele>
        <time>2018-12-21T14:33:09Z</time>
      </trkpt>
      <trkpt lat="39.5180050749" lon="-8.4348778892">
        <ele>81.37</ele>
        <time>2018-12-21T14:33:17Z</time>
      </trkpt>
      <trkpt lat="39.5180482417" lon="-8.4349762090">
        <ele>79.93</ele>
        <time>2018-12-21T14:33:25Z</time>
      </trkpt>
      <trkpt lat="39.5181210805" lon="-8.4350855928">
        <ele>78.97</ele>
        <time>2018-12-21T14:33:33Z</time>
      </trkpt>
      <trkpt lat="39.5181833580" lon="-8.4352290910">
        <ele>78.48</ele>
        <time>2018-12-21T14:33:42Z</time>
      </trkpt>
      <trkpt lat="39.5182389300" lon="-8.4353472758">
        <ele>77.04</ele>
        <time>2018-12-21T14:33:51Z</time>
      </trkpt>
      <trkpt lat="39.5182980224" lon="-8.4354956355">
        <ele>75.60</ele>
        <time>2018-12-21T14:34:02Z</time>
      </trkpt>
      <trkpt lat="39.5183669217" lon="-8.4356237110">
        <ele>74.16</ele>
        <time>2018-12-21T14:34:12Z</time>
      </trkpt>
      <trkpt lat="39.5184281934" lon="-8.4357305802">
        <ele>73.20</ele>
        <time>2018-12-21T14:34:21Z</time>
      </trkpt>
      <trkpt lat="39.5184758864" lon="-8.4358319174">
        <ele>71.76</ele>
        <time>2018-12-21T14:34:29Z</time>
      </trkpt>
      <trkpt lat="39.5185701828" lon="-8.4359848872">
        <ele>69.83</ele>
        <time>2018-12-21T14:34:40Z</time>
      </trkpt>
      <trkpt lat="39.5186410937" lon="-8.4361238591">
        <ele>68.39</ele>
        <time>2018-12-21T14:34:50Z</time>
      </trkpt>
      <trkpt lat="39.5186954923" lon="-8.4362636693">
        <ele>67.43</ele>
        <time>2018-12-21T14:34:59Z</time>
      </trkpt>
      <trkpt lat="39.5187040418" lon="-8.4362920839">
        <ele>66.47</ele>
        <time>2018-12-21T14:35:01Z</time>
      </trkpt>
      <trkpt lat="39.5188023616" lon="-8.4363861289">
        <ele>65.99</ele>
        <time>2018-12-21T14:35:12Z</time>
      </trkpt>
      <trkpt lat="39.5189118292" lon="-8.4363577142">
        <ele>65.51</ele>
        <time>2018-12-21T14:35:21Z</time>
      </trkpt>
      <trkpt lat="39.5189581811" lon="-8.4363545291">
        <ele>65.03</ele>
        <time>2018-12-21T14:35:25Z</time>
      </trkpt>
      <trkpt lat="39.5190725103" lon="-8.4364689421">
        <ele>65.03</ele>
        <time>2018-12-21T14:35:36Z</time>
      </trkpt>
      <trkpt lat="39.5191236399" lon="-8.4365940839">
        <ele>64.07</ele>
        <time>2018-12-21T14:35:45Z</time>
      </trkpt>
      <trkpt lat="39.5191072952" lon="-8.4366923198">
        <ele>64.07</ele>
        <time>2018-12-21T14:35:52Z</time>
      </trkpt>
      <trkpt lat="39.5191445947" lon="-8.4368175454">
        <ele>64.55</ele>
        <time>2018-12-21T14:36:01Z</time>
      </trkpt>
      <trkpt lat="39.5191960596" lon="-8.4369523264">
        <ele>64.07</ele>
        <time>2018-12-21T14:36:11Z</time>
      </trkpt>
      <trkpt lat="39.5192424115" lon="-8.4370824136">
        <ele>64.55</ele>
        <time>2018-12-21T14:36:21Z</time>
      </trkpt>
      <trkpt lat="39.5192952175" lon="-8.4371666517">
        <ele>65.03</ele>
        <time>2018-12-21T14:36:28Z</time>
      </trkpt>
      <trkpt lat="39.5193749294" lon="-8.4372876864">
        <ele>64.55</ele>
        <time>2018-12-21T14:36:38Z</time>
      </trkpt>
      <trkpt lat="39.5194276515" lon="-8.4374046139">
        <ele>66.47</ele>
        <time>2018-12-21T14:36:47Z</time>
      </trkpt>
      <trkpt lat="39.5194737520" lon="-8.4374953061">
        <ele>66.47</ele>
        <time>2018-12-21T14:36:56Z</time>
      </trkpt>
      <trkpt lat="39.5195347723" lon="-8.4375884291">
        <ele>66.95</ele>
        <time>2018-12-21T14:37:05Z</time>
      </trkpt>
      <trkpt lat="39.5195823815" lon="-8.4376500361">
        <ele>67.43</ele>
        <time>2018-12-21T14:37:12Z</time>
      </trkpt>
      <trkpt lat="39.5196387917" lon="-8.4376873355">
        <ele>67.91</ele>
        <time>2018-12-21T14:37:19Z</time>
      </trkpt>
      <trkpt lat="39.5196870714" lon="-8.4377248865">
        <ele>68.39</ele>
        <time>2018-12-21T14:37:25Z</time>
      </trkpt>
      <trkpt lat="39.5197417215" lon="-8.4377312567">
        <ele>68.87</ele>
        <time>2018-12-21T14:37:31Z</time>
      </trkpt>
      <trkpt lat="39.5198354311" lon="-8.4377562348">
        <ele>69.83</ele>
        <time>2018-12-21T14:37:39Z</time>
      </trkpt>
      <trkpt lat="39.5199160650" lon="-8.4377610125">
        <ele>69.83</ele>
        <time>2018-12-21T14:37:47Z</time>
      </trkpt>
      <trkpt lat="39.5200631674" lon="-8.4377816319">
        <ele>70.79</ele>
        <time>2018-12-21T14:37:58Z</time>
      </trkpt>
      <trkpt lat="39.5201814361" lon="-8.4378206078">
        <ele>71.27</ele>
        <time>2018-12-21T14:38:07Z</time>
      </trkpt>
      <trkpt lat="39.5202270336" lon="-8.4378517047">
        <ele>71.76</ele>
        <time>2018-12-21T14:38:11Z</time>
      </trkpt>
      <trkpt lat="39.5203392673" lon="-8.4379441570">
        <ele>72.24</ele>
        <time>2018-12-21T14:38:22Z</time>
      </trkpt>
      <trkpt lat="39.5204375871" lon="-8.4380324185">
        <ele>73.20</ele>
        <time>2018-12-21T14:38:32Z</time>
      </trkpt>
      <trkpt lat="39.5205098391" lon="-8.4381055925">
        <ele>73.68</ele>
        <time>2018-12-21T14:38:41Z</time>
      </trkpt>
      <trkpt lat="39.5206025429" lon="-8.4382181615">
        <ele>73.68</ele>
        <time>2018-12-21T14:38:51Z</time>
      </trkpt>
      <trkpt lat="39.5206844341" lon="-8.4383113682">
        <ele>74.16</ele>
        <time>2018-12-21T14:38:59Z</time>
      </trkpt>
      <trkpt lat="39.5207659900" lon="-8.4384512622">
        <ele>74.64</ele>
        <time>2018-12-21T14:39:10Z</time>
      </trkpt>
      <trkpt lat="39.5208407566" lon="-8.4386076685">
        <ele>75.12</ele>
        <time>2018-12-21T14:39:22Z</time>
      </trkpt>
      <trkpt lat="39.5208926406" lon="-8.4387138672">
        <ele>75.60</ele>
        <time>2018-12-21T14:39:30Z</time>
      </trkpt>
      <trkpt lat="39.5209314488" lon="-8.4388503246">
        <ele>75.60</ele>
        <time>2018-12-21T14:39:39Z</time>
      </trkpt>
      <trkpt lat="39.5209513977" lon="-8.4388957545">
        <ele>75.60</ele>
        <time>2018-12-21T14:39:42Z</time>
      </trkpt>
      <trkpt lat="39.5209544152" lon="-8.4389791545">
        <ele>75.60</ele>
        <time>2018-12-21T14:39:48Z</time>
      </trkpt>
      <trkpt lat="39.5210003480" lon="-8.4391480498">
        <ele>76.08</ele>
        <time>2018-12-21T14:39:59Z</time>
      </trkpt>
      <trkpt lat="39.5210602786" lon="-8.4393291827">
        <ele>76.56</ele>
        <time>2018-12-21T14:40:10Z</time>
      </trkpt>
      <trkpt lat="39.5211318601" lon="-8.4394628741">
        <ele>76.56</ele>
        <time>2018-12-21T14:40:20Z</time>
      </trkpt>
      <trkpt lat="39.5212155115" lon="-8.4395713359">
        <ele>76.56</ele>
        <time>2018-12-21T14:40:30Z</time>
      </trkpt>
      <trkpt lat="39.5212990791" lon="-8.4396703262">
        <ele>77.04</ele>
        <time>2018-12-21T14:40:39Z</time>
      </trkpt>
      <trkpt lat="39.5214248914" lon="-8.4397849068">
        <ele>77.52</ele>
        <time>2018-12-21T14:40:50Z</time>
      </trkpt>
      <trkpt lat="39.5215282403" lon="-8.4398844000">
        <ele>78.00</ele>
        <time>2018-12-21T14:41:00Z</time>
      </trkpt>
      <trkpt lat="39.5216256380" lon="-8.4399911854">
        <ele>78.97</ele>
        <time>2018-12-21T14:41:10Z</time>
      </trkpt>
      <trkpt lat="39.5217258018" lon="-8.4401028324">
        <ele>79.45</ele>
        <time>2018-12-21T14:41:21Z</time>
      </trkpt>
      <trkpt lat="39.5218222775" lon="-8.4401759226">
        <ele>79.45</ele>
        <time>2018-12-21T14:41:30Z</time>
      </trkpt>
      <trkpt lat="39.5219326671" lon="-8.4402663633">
        <ele>79.93</ele>
        <time>2018-12-21T14:41:40Z</time>
      </trkpt>
      <trkpt lat="39.5220428053" lon="-8.4403454047">
        <ele>80.41</ele>
        <time>2018-12-21T14:41:50Z</time>
      </trkpt>
      <trkpt lat="39.5221518539" lon="-8.4403994679">
        <ele>80.41</ele>
        <time>2018-12-21T14:41:59Z</time>
      </trkpt>
      <trkpt lat="39.5222580526" lon="-8.4404755756">
        <ele>80.89</ele>
        <time>2018-12-21T14:42:08Z</time>
      </trkpt>
      <trkpt lat="39.5223660115" lon="-8.4405631665">
        <ele>80.89</ele>
        <time>2018-12-21T14:42:18Z</time>
      </trkpt>
      <trkpt lat="39.5224403590" lon="-8.4406931698">
        <ele>80.89</ele>
        <time>2018-12-21T14:42:28Z</time>
      </trkpt>
      <trkpt lat="39.5225099288" lon="-8.4408163000">
        <ele>80.89</ele>
        <time>2018-12-21T14:42:38Z</time>
      </trkpt>
      <trkpt lat="39.5225981064" lon="-8.4409810044">
        <ele>81.37</ele>
        <time>2018-12-21T14:42:50Z</time>
      </trkpt>
      <trkpt lat="39.5226544328" lon="-8.4410975128">
        <ele>81.85</ele>
        <time>2018-12-21T14:42:59Z</time>
      </trkpt>
      <trkpt lat="39.5227376651" lon="-8.4412311204">
        <ele>82.81</ele>
        <time>2018-12-21T14:43:11Z</time>
      </trkpt>
      <trkpt lat="39.5228017028" lon="-8.4413693380">
        <ele>82.81</ele>
        <time>2018-12-21T14:43:21Z</time>
      </trkpt>
      <trkpt lat="39.5228776429" lon="-8.4414926358">
        <ele>84.25</ele>
        <time>2018-12-21T14:43:32Z</time>
      </trkpt>
      <trkpt lat="39.5229446981" lon="-8.4416130837">
        <ele>84.73</ele>
        <time>2018-12-21T14:43:42Z</time>
      </trkpt>
      <trkpt lat="39.5230021141" lon="-8.4417055361">
        <ele>84.73</ele>
        <time>2018-12-21T14:43:50Z</time>
      </trkpt>
      <trkpt lat="39.5230835024" lon="-8.4418405686">
        <ele>85.69</ele>
        <time>2018-12-21T14:44:00Z</time>
      </trkpt>
      <trkpt lat="39.5231077261" lon="-8.4418922011">
        <ele>86.18</ele>
        <time>2018-12-21T14:44:04Z</time>
      </trkpt>
      <trkpt lat="39.5231262501" lon="-8.4419160895">
        <ele>86.18</ele>
        <time>2018-12-21T14:44:06Z</time>
      </trkpt>
      <trkpt lat="39.5231725182" lon="-8.4420076199">
        <ele>87.14</ele>
        <time>2018-12-21T14:44:13Z</time>
      </trkpt>
      <trkpt lat="39.5232191216" lon="-8.4420963842">
        <ele>87.62</ele>
        <time>2018-12-21T14:44:21Z</time>
      </trkpt>
      <trkpt lat="39.5232722629" lon="-8.4421914350">
        <ele>87.62</ele>
        <time>2018-12-21T14:44:29Z</time>
      </trkpt>
      <trkpt lat="39.5232877694" lon="-8.4422156587">
        <ele>87.62</ele>
        <time>2018-12-21T14:44:31Z</time>
      </trkpt>
      <trkpt lat="39.5233766176" lon="-8.4423360229">
        <ele>89.06</ele>
        <time>2018-12-21T14:44:41Z</time>
      </trkpt>
      <trkpt lat="39.5234377217" lon="-8.4424550459">
        <ele>89.54</ele>
        <time>2018-12-21T14:44:51Z</time>
      </trkpt>
      <trkpt lat="39.5234414935" lon="-8.4424778447">
        <ele>90.02</ele>
        <time>2018-12-21T14:44:53Z</time>
      </trkpt>
      <trkpt lat="39.5235052798" lon="-8.4425889049">
        <ele>90.02</ele>
        <time>2018-12-21T14:45:02Z</time>
      </trkpt>
      <trkpt lat="39.5235726703" lon="-8.4426925052">
        <ele>91.94</ele>
        <time>2018-12-21T14:45:11Z</time>
      </trkpt>
      <trkpt lat="39.5236310083" lon="-8.4427922498">
        <ele>92.42</ele>
        <time>2018-12-21T14:45:20Z</time>
      </trkpt>
      <trkpt lat="39.5236817189" lon="-8.4428852051">
        <ele>92.90</ele>
        <time>2018-12-21T14:45:28Z</time>
      </trkpt>
      <trkpt lat="39.5236922801" lon="-8.4429068305">
        <ele>93.39</ele>
        <time>2018-12-21T14:45:30Z</time>
      </trkpt>
      <trkpt lat="39.5237264782" lon="-8.4430225845">
        <ele>93.87</ele>
        <time>2018-12-21T14:45:39Z</time>
      </trkpt>
      <trkpt lat="39.5237523783" lon="-8.4430653322">
        <ele>94.83</ele>
        <time>2018-12-21T14:45:43Z</time>
      </trkpt>
      <trkpt lat="39.5237907674" lon="-8.4431616403">
        <ele>95.79</ele>
        <time>2018-12-21T14:45:50Z</time>
      </trkpt>
      <trkpt lat="39.5238609239" lon="-8.4432326350">
        <ele>95.79</ele>
        <time>2018-12-21T14:45:58Z</time>
      </trkpt>
      <trkpt lat="39.5238755085" lon="-8.4432763886">
        <ele>96.27</ele>
        <time>2018-12-21T14:46:01Z</time>
      </trkpt>
      <trkpt lat="39.5239382889" lon="-8.4433586150">
        <ele>97.23</ele>
        <time>2018-12-21T14:46:10Z</time>
      </trkpt>
      <trkpt lat="39.5239905082" lon="-8.4434405901">
        <ele>98.19</ele>
        <time>2018-12-21T14:46:18Z</time>
      </trkpt>
      <trkpt lat="39.5240424760" lon="-8.4435022809">
        <ele>99.63</ele>
        <time>2018-12-21T14:46:26Z</time>
      </trkpt>
      <trkpt lat="39.5241251215" lon="-8.4435799811">
        <ele>100.60</ele>
        <time>2018-12-21T14:46:36Z</time>
      </trkpt>
      <trkpt lat="39.5241796877" lon="-8.4436161071">
        <ele>102.52</ele>
        <time>2018-12-21T14:46:43Z</time>
      </trkpt>
      <trkpt lat="39.5242701285" lon="-8.4436435997">
        <ele>103.00</ele>
        <time>2018-12-21T14:46:52Z</time>
      </trkpt>
      <trkpt lat="39.5243442245" lon="-8.4436665662">
        <ele>103.00</ele>
        <time>2018-12-21T14:47:00Z</time>
      </trkpt>
      <trkpt lat="39.5244507585" lon="-8.4437078889">
        <ele>103.96</ele>
        <time>2018-12-21T14:47:09Z</time>
      </trkpt>
      <trkpt lat="39.5245982800" lon="-8.4437318612">
        <ele>104.44</ele>
        <time>2018-12-21T14:47:21Z</time>
      </trkpt>
      <trkpt lat="39.5247064903" lon="-8.4437524807">
        <ele>105.40</ele>
        <time>2018-12-21T14:47:30Z</time>
      </trkpt>
      <trkpt lat="39.5247471426" lon="-8.4437638801">
        <ele>104.92</ele>
        <time>2018-12-21T14:47:35Z</time>
      </trkpt>
      <trkpt lat="39.5248202328" lon="-8.4437704179">
        <ele>104.92</ele>
        <time>2018-12-21T14:47:44Z</time>
      </trkpt>
      <trkpt lat="39.5248649921" lon="-8.4437825717">
        <ele>104.92</ele>
        <time>2018-12-21T14:47:55Z</time>
      </trkpt>
      <trkpt lat="39.5248782355" lon="-8.4438046999">
        <ele>105.40</ele>
        <time>2018-12-21T14:48:04Z</time>
      </trkpt>
      <trkpt lat="39.5248757210" lon="-8.4438172728">
        <ele>104.92</ele>
        <time>2018-12-21T14:48:14Z</time>
      </trkpt>
      <trkpt lat="39.5248849411" lon="-8.4438367188">
        <ele>105.88</ele>
        <time>2018-12-21T14:48:24Z</time>
      </trkpt>
      <trkpt lat="39.5248759724" lon="-8.4438116569">
        <ele>104.92</ele>
        <time>2018-12-21T14:48:32Z</time>
      </trkpt>
      <trkpt lat="39.5248815045" lon="-8.4438081365">
        <ele>100.60</ele>
        <time>2018-12-21T14:48:36Z</time>
      </trkpt>
      <trkpt lat="39.5248810854" lon="-8.4438144229">
        <ele>113.09</ele>
        <time>2018-12-21T15:55:52Z</time>
      </trkpt>
      <trkpt lat="39.5248744637" lon="-8.4438381437">
        <ele>113.09</ele>
        <time>2018-12-21T15:56:07Z</time>
      </trkpt>
      <trkpt lat="39.5248900540" lon="-8.4438198712">
        <ele>112.61</ele>
        <time>2018-12-21T15:56:20Z</time>
      </trkpt>
      <trkpt lat="39.5249229111" lon="-8.4438115731">
        <ele>112.13</ele>
        <time>2018-12-21T15:56:26Z</time>
      </trkpt>
      <trkpt lat="39.5249252580" lon="-8.4438181110">
        <ele>110.69</ele>
        <time>2018-12-21T15:56:29Z</time>
      </trkpt>
      <trkpt lat="39.5249525830" lon="-8.4438278340">
        <ele>109.25</ele>
        <time>2018-12-21T15:56:32Z</time>
      </trkpt>
      <trkpt lat="39.5249857754" lon="-8.4438709170">
        <ele>109.25</ele>
        <time>2018-12-21T15:56:37Z</time>
      </trkpt>
      <trkpt lat="39.5249989349" lon="-8.4439054504">
        <ele>107.81</ele>
        <time>2018-12-21T15:56:40Z</time>
      </trkpt>
      <trkpt lat="39.5250068977" lon="-8.4439076297">
        <ele>107.81</ele>
        <time>2018-12-21T15:56:47Z</time>
      </trkpt>
      <trkpt lat="39.5250188839" lon="-8.4439506289">
        <ele>106.84</ele>
        <time>2018-12-21T15:56:53Z</time>
      </trkpt>
      <trkpt lat="39.5250329655" lon="-8.4439665545">
        <ele>105.40</ele>
        <time>2018-12-21T15:56:55Z</time>
      </trkpt>
      <trkpt lat="39.5250595361" lon="-8.4439932927">
        <ele>104.92</ele>
        <time>2018-12-21T15:56:59Z</time>
      </trkpt>
      <trkpt lat="39.5251068939" lon="-8.4440365434">
        <ele>104.92</ele>
        <time>2018-12-21T15:57:05Z</time>
      </trkpt>
      <trkpt lat="39.5251736976" lon="-8.4441064484">
        <ele>103.96</ele>
        <time>2018-12-21T15:57:13Z</time>
      </trkpt>
      <trkpt lat="39.5251841750" lon="-8.4441357851">
        <ele>104.92</ele>
        <time>2018-12-21T15:57:18Z</time>
      </trkpt>
      <trkpt lat="39.5251905452" lon="-8.4441351984">
        <ele>104.44</ele>
        <time>2018-12-21T15:57:21Z</time>
      </trkpt>
      <trkpt lat="39.5252118353" lon="-8.4441448376">
        <ele>104.92</ele>
        <time>2018-12-21T15:57:23Z</time>
      </trkpt>
      <trkpt lat="39.5252605341" lon="-8.4441803768">
        <ele>104.44</ele>
        <time>2018-12-21T15:57:29Z</time>
      </trkpt>
      <trkpt lat="39.5253116637" lon="-8.4442194365">
        <ele>103.48</ele>
        <time>2018-12-21T15:57:36Z</time>
      </trkpt>
      <trkpt lat="39.5253484603" lon="-8.4442433249">
        <ele>103.00</ele>
        <time>2018-12-21T15:57:41Z</time>
      </trkpt>
      <trkpt lat="39.5253953990" lon="-8.4442672133">
        <ele>103.48</ele>
        <time>2018-12-21T15:57:46Z</time>
      </trkpt>
      <trkpt lat="39.5254568383" lon="-8.4443107992">
        <ele>103.48</ele>
        <time>2018-12-21T15:57:51Z</time>
      </trkpt>
      <trkpt lat="39.5255016815" lon="-8.4443335980">
        <ele>102.04</ele>
        <time>2018-12-21T15:57:57Z</time>
      </trkpt>
      <trkpt lat="39.5255613606" lon="-8.4443518706">
        <ele>102.04</ele>
        <time>2018-12-21T15:58:04Z</time>
      </trkpt>
      <trkpt lat="39.5256295893" lon="-8.4443611745">
        <ele>101.56</ele>
        <time>2018-12-21T15:58:10Z</time>
      </trkpt>
      <trkpt lat="39.5256273262" lon="-8.4443639405">
        <ele>101.56</ele>
        <time>2018-12-21T15:58:12Z</time>
      </trkpt>
      <trkpt lat="39.5257355366" lon="-8.4443856496">
        <ele>101.56</ele>
        <time>2018-12-21T15:58:19Z</time>
      </trkpt>
      <trkpt lat="39.5257621072" lon="-8.4443821292">
        <ele>100.60</ele>
        <time>2018-12-21T15:58:24Z</time>
      </trkpt>
      <trkpt lat="39.5258246362" lon="-8.4444387909">
        <ele>101.08</ele>
        <time>2018-12-21T15:58:31Z</time>
      </trkpt>
      <trkpt lat="39.5258293301" lon="-8.4444423113">
        <ele>100.60</ele>
        <time>2018-12-21T15:58:32Z</time>
      </trkpt>
      <trkpt lat="39.5258969720" lon="-8.4445760027">
        <ele>100.11</ele>
        <time>2018-12-21T15:58:38Z</time>
      </trkpt>
      <trkpt lat="39.5258949604" lon="-8.4445594903">
        <ele>101.08</ele>
        <time>2018-12-21T15:58:41Z</time>
      </trkpt>
      <trkpt lat="39.5259367023" lon="-8.4447028209">
        <ele>102.04</ele>
        <time>2018-12-21T15:58:47Z</time>
      </trkpt>
      <trkpt lat="39.5259370375" lon="-8.4446718078">
        <ele>101.08</ele>
        <time>2018-12-21T15:58:50Z</time>
      </trkpt>
      <trkpt lat="39.5259478502" lon="-8.4447245300">
        <ele>100.11</ele>
        <time>2018-12-21T15:58:54Z</time>
      </trkpt>
      <trkpt lat="39.5259549748" lon="-8.4447502624">
        <ele>100.60</ele>
        <time>2018-12-21T15:58:55Z</time>
      </trkpt>
      <trkpt lat="39.5259850658" lon="-8.4447640087">
        <ele>100.60</ele>
        <time>2018-12-21T15:59:01Z</time>
      </trkpt>
      <trkpt lat="39.5260162465" lon="-8.4448428825">
        <ele>100.60</ele>
        <time>2018-12-21T15:59:06Z</time>
      </trkpt>
      <trkpt lat="39.5260163303" lon="-8.4448408708">
        <ele>101.08</ele>
        <time>2018-12-21T15:59:10Z</time>
      </trkpt>
      <trkpt lat="39.5260331780" lon="-8.4448713809">
        <ele>99.15</ele>
        <time>2018-12-21T15:59:13Z</time>
      </trkpt>
      <trkpt lat="39.5260436554" lon="-8.4448987897">
        <ele>105.40</ele>
        <time>2018-12-21T15:59:15Z</time>
      </trkpt>
      <trkpt lat="39.5260514505" lon="-8.4449163917">
        <ele>101.08</ele>
        <time>2018-12-21T15:59:16Z</time>
      </trkpt>
      <trkpt lat="39.5260709804" lon="-8.4449449740">
        <ele>100.11</ele>
        <time>2018-12-21T15:59:18Z</time>
      </trkpt>
      <trkpt lat="39.5260698069" lon="-8.4449412860">
        <ele>100.11</ele>
        <time>2018-12-21T15:59:20Z</time>
      </trkpt>
      <trkpt lat="39.5261491835" lon="-8.4450339898">
        <ele>100.60</ele>
        <time>2018-12-21T15:59:26Z</time>
      </trkpt>
      <trkpt lat="39.5261546317" lon="-8.4450441319">
        <ele>99.63</ele>
        <time>2018-12-21T15:59:29Z</time>
      </trkpt>
      <trkpt lat="39.5261670370" lon="-8.4450469818">
        <ele>99.63</ele>
        <time>2018-12-21T15:59:31Z</time>
      </trkpt>
      <trkpt lat="39.5262288116" lon="-8.4451606404">
        <ele>99.63</ele>
        <time>2018-12-21T15:59:37Z</time>
      </trkpt>
      <trkpt lat="39.5262330864" lon="-8.4451832715">
        <ele>100.11</ele>
        <time>2018-12-21T15:59:43Z</time>
      </trkpt>
      <trkpt lat="39.5262920950" lon="-8.4452615585">
        <ele>100.11</ele>
        <time>2018-12-21T15:59:48Z</time>
      </trkpt>
      <trkpt lat="39.5262834616" lon="-8.4452585410">
        <ele>100.60</ele>
        <time>2018-12-21T15:59:51Z</time>
      </trkpt>
      <trkpt lat="39.5263706334" lon="-8.4453284461">
        <ele>100.11</ele>
        <time>2018-12-21T15:59:56Z</time>
      </trkpt>
      <trkpt lat="39.5263898280" lon="-8.4453243390">
        <ele>100.60</ele>
        <time>2018-12-21T16:00:00Z</time>
      </trkpt>
      <trkpt lat="39.5264477469" lon="-8.4454042185">
        <ele>101.08</ele>
        <time>2018-12-21T16:00:06Z</time>
      </trkpt>
      <trkpt lat="39.5264701266" lon="-8.4454310406">
        <ele>100.11</ele>
        <time>2018-12-21T16:00:11Z</time>
      </trkpt>
      <trkpt lat="39.5265230164" lon="-8.4454820864">
        <ele>100.60</ele>
        <time>2018-12-21T16:00:16Z</time>
      </trkpt>
      <trkpt lat="39.5265206695" lon="-8.4454742912">
        <ele>99.63</ele>
        <time>2018-12-21T16:00:17Z</time>
      </trkpt>
      <trkpt lat="39.5265633333" lon="-8.4455450345">
        <ele>100.11</ele>
        <time>2018-12-21T16:00:21Z</time>
      </trkpt>
      <trkpt lat="39.5266010519" lon="-8.4455990139">
        <ele>100.60</ele>
        <time>2018-12-21T16:00:27Z</time>
      </trkpt>
      <trkpt lat="39.5266248565" lon="-8.4456787258">
        <ele>100.60</ele>
        <time>2018-12-21T16:00:31Z</time>
      </trkpt>
      <trkpt lat="39.5266319811" lon="-8.4457212221">
        <ele>100.11</ele>
        <time>2018-12-21T16:00:36Z</time>
      </trkpt>
      <trkpt lat="39.5266300533" lon="-8.4457469545">
        <ele>100.11</ele>
        <time>2018-12-21T16:00:39Z</time>
      </trkpt>
      <trkpt lat="39.5266700350" lon="-8.4458918776">
        <ele>100.11</ele>
        <time>2018-12-21T16:00:45Z</time>
      </trkpt>
      <trkpt lat="39.5266722981" lon="-8.4458743595">
        <ele>99.63</ele>
        <time>2018-12-21T16:00:51Z</time>
      </trkpt>
      <trkpt lat="39.5266947616" lon="-8.4460400697">
        <ele>100.11</ele>
        <time>2018-12-21T16:00:58Z</time>
      </trkpt>
      <trkpt lat="39.5267007966" lon="-8.4460502956">
        <ele>100.11</ele>
        <time>2018-12-21T16:01:04Z</time>
      </trkpt>
      <trkpt lat="39.5267334860" lon="-8.4462158382">
        <ele>100.11</ele>
        <time>2018-12-21T16:01:09Z</time>
      </trkpt>
      <trkpt lat="39.5267402753" lon="-8.4463021718">
        <ele>99.63</ele>
        <time>2018-12-21T16:01:15Z</time>
      </trkpt>
      <trkpt lat="39.5267413650" lon="-8.4463069495">
        <ele>99.15</ele>
        <time>2018-12-21T16:01:20Z</time>
      </trkpt>
      <trkpt lat="39.5267712884" lon="-8.4464514535">
        <ele>99.15</ele>
        <time>2018-12-21T16:01:27Z</time>
      </trkpt>
      <trkpt lat="39.5267722104" lon="-8.4464858193">
        <ele>99.63</ele>
        <time>2018-12-21T16:01:34Z</time>
      </trkpt>
      <trkpt lat="39.5268038101" lon="-8.4464843106">
        <ele>89.54</ele>
        <time>2018-12-21T16:01:41Z</time>
      </trkpt>
      <trkpt lat="39.5267843641" lon="-8.4465724882">
        <ele>95.31</ele>
        <time>2018-12-21T16:17:22Z</time>
      </trkpt>
      <trkpt lat="39.5267716236" lon="-8.4465554729">
        <ele>95.31</ele>
        <time>2018-12-21T16:17:23Z</time>
      </trkpt>
      <trkpt lat="39.5267883036" lon="-8.4466521163">
        <ele>96.75</ele>
        <time>2018-12-21T16:17:29Z</time>
      </trkpt>
      <trkpt lat="39.5267949253" lon="-8.4467094485">
        <ele>95.79</ele>
        <time>2018-12-21T16:17:32Z</time>
      </trkpt>
      <trkpt lat="39.5268042292" lon="-8.4467347618">
        <ele>96.27</ele>
        <time>2018-12-21T16:17:37Z</time>
      </trkpt>
      <trkpt lat="39.5268047322" lon="-8.4467837121">
        <ele>95.79</ele>
        <time>2018-12-21T16:17:44Z</time>
      </trkpt>
      <trkpt lat="39.5268093422" lon="-8.4467918426">
        <ele>95.79</ele>
        <time>2018-12-21T16:17:45Z</time>
      </trkpt>
      <trkpt lat="39.5268235076" lon="-8.4469089378">
        <ele>95.79</ele>
        <time>2018-12-21T16:17:51Z</time>
      </trkpt>
      <trkpt lat="39.5268294588" lon="-8.4470140468">
        <ele>97.23</ele>
        <time>2018-12-21T16:17:59Z</time>
      </trkpt>
      <trkpt lat="39.5268312190" lon="-8.4470065869">
        <ele>97.23</ele>
        <time>2018-12-21T16:18:03Z</time>
      </trkpt>
      <trkpt lat="39.5268314704" lon="-8.4470303077">
        <ele>97.23</ele>
        <time>2018-12-21T16:18:05Z</time>
      </trkpt>
      <trkpt lat="39.5268385950" lon="-8.4471221734">
        <ele>96.27</ele>
        <time>2018-12-21T16:18:09Z</time>
      </trkpt>
      <trkpt lat="39.5268534310" lon="-8.4471669327">
        <ele>96.75</ele>
        <time>2018-12-21T16:18:15Z</time>
      </trkpt>
      <trkpt lat="39.5268530957" lon="-8.4471827745">
        <ele>96.27</ele>
        <time>2018-12-21T16:18:16Z</time>
      </trkpt>
      <trkpt lat="39.5268589631" lon="-8.4472822677">
        <ele>96.27</ele>
        <time>2018-12-21T16:18:25Z</time>
      </trkpt>
      <trkpt lat="39.5268595498" lon="-8.4472944215">
        <ele>95.79</ele>
        <time>2018-12-21T16:18:26Z</time>
      </trkpt>
      <trkpt lat="39.5269000344" lon="-8.4474540129">
        <ele>95.79</ele>
        <time>2018-12-21T16:18:33Z</time>
      </trkpt>
      <trkpt lat="39.5269011240" lon="-8.4474535100">
        <ele>96.27</ele>
        <time>2018-12-21T16:18:35Z</time>
      </trkpt>
      <trkpt lat="39.5268928260" lon="-8.4474349022">
        <ele>96.27</ele>
        <time>2018-12-21T16:18:37Z</time>
      </trkpt>
      <trkpt lat="39.5269284490" lon="-8.4475608822">
        <ele>96.27</ele>
        <time>2018-12-21T16:18:43Z</time>
      </trkpt>
      <trkpt lat="39.5269439556" lon="-8.4475836810">
        <ele>96.27</ele>
        <time>2018-12-21T16:18:48Z</time>
      </trkpt>
      <trkpt lat="39.5269819256" lon="-8.4476960823">
        <ele>96.27</ele>
        <time>2018-12-21T16:18:53Z</time>
      </trkpt>
      <trkpt lat="39.5269930735" lon="-8.4477026202">
        <ele>96.27</ele>
        <time>2018-12-21T16:18:56Z</time>
      </trkpt>
      <trkpt lat="39.5270844363" lon="-8.4477456193">
        <ele>95.79</ele>
        <time>2018-12-21T16:19:01Z</time>
      </trkpt>
      <trkpt lat="39.5271296147" lon="-8.4477523249">
        <ele>95.79</ele>
        <time>2018-12-21T16:19:07Z</time>
      </trkpt>
      <trkpt lat="39.5272299461" lon="-8.4477840923">
        <ele>95.79</ele>
        <time>2018-12-21T16:19:13Z</time>
      </trkpt>
      <trkpt lat="39.5272478834" lon="-8.4477723576">
        <ele>96.27</ele>
        <time>2018-12-21T16:19:18Z</time>
      </trkpt>
      <trkpt lat="39.5273171179" lon="-8.4477781411">
        <ele>97.23</ele>
        <time>2018-12-21T16:19:24Z</time>
      </trkpt>
      <trkpt lat="39.5273563452" lon="-8.4478655644">
        <ele>96.75</ele>
        <time>2018-12-21T16:19:29Z</time>
      </trkpt>
      <trkpt lat="39.5274078101" lon="-8.4478831664">
        <ele>96.75</ele>
        <time>2018-12-21T16:19:36Z</time>
      </trkpt>
      <trkpt lat="39.5275175292" lon="-8.4479404986">
        <ele>97.23</ele>
        <time>2018-12-21T16:19:42Z</time>
      </trkpt>
      <trkpt lat="39.5275093149" lon="-8.4479332063">
        <ele>97.23</ele>
        <time>2018-12-21T16:19:44Z</time>
      </trkpt>
      <trkpt lat="39.5275135059" lon="-8.4479993396">
        <ele>97.23</ele>
        <time>2018-12-21T16:19:48Z</time>
      </trkpt>
      <trkpt lat="39.5275170263" lon="-8.4480572585">
        <ele>97.23</ele>
        <time>2018-12-21T16:19:54Z</time>
      </trkpt>
      <trkpt lat="39.5275670663" lon="-8.4480925463">
        <ele>97.23</ele>
        <time>2018-12-21T16:19:59Z</time>
      </trkpt>
      <trkpt lat="39.5276154298" lon="-8.4481253196">
        <ele>97.23</ele>
        <time>2018-12-21T16:20:03Z</time>
      </trkpt>
      <trkpt lat="39.5276420843" lon="-8.4480978269">
        <ele>97.71</ele>
        <time>2018-12-21T16:20:07Z</time>
      </trkpt>
      <trkpt lat="39.5277509652" lon="-8.4481804725">
        <ele>98.19</ele>
        <time>2018-12-21T16:20:13Z</time>
      </trkpt>
      <trkpt lat="39.5277621970" lon="-8.4481761139">
        <ele>98.19</ele>
        <time>2018-12-21T16:20:17Z</time>
      </trkpt>
      <trkpt lat="39.5277867559" lon="-8.4481834061">
        <ele>97.23</ele>
        <time>2018-12-21T16:20:19Z</time>
      </trkpt>
      <trkpt lat="39.5278892666" lon="-8.4482621960">
        <ele>98.19</ele>
        <time>2018-12-21T16:20:25Z</time>
      </trkpt>
      <trkpt lat="39.5279033482" lon="-8.4482526407">
        <ele>98.19</ele>
        <time>2018-12-21T16:20:30Z</time>
      </trkpt>
      <trkpt lat="39.5280149952" lon="-8.4483098052">
        <ele>97.71</ele>
        <time>2018-12-21T16:20:36Z</time>
      </trkpt>
      <trkpt lat="39.5280163363" lon="-8.4483119007">
        <ele>97.23</ele>
        <time>2018-12-21T16:20:40Z</time>
      </trkpt>
      <trkpt lat="39.5280180126" lon="-8.4482981544">
        <ele>97.23</ele>
        <time>2018-12-21T16:20:43Z</time>
      </trkpt>
      <trkpt lat="39.5281436574" lon="-8.4483507928">
        <ele>97.23</ele>
        <time>2018-12-21T16:20:49Z</time>
      </trkpt>
      <trkpt lat="39.5281953737" lon="-8.4483234677">
        <ele>98.19</ele>
        <time>2018-12-21T16:20:55Z</time>
      </trkpt>
      <trkpt lat="39.5281978045" lon="-8.4483181033">
        <ele>98.19</ele>
        <time>2018-12-21T16:20:56Z</time>
      </trkpt>
      <trkpt lat="39.5283349324" lon="-8.4483430814">
        <ele>97.23</ele>
        <time>2018-12-21T16:21:04Z</time>
      </trkpt>
      <trkpt lat="39.5283589885" lon="-8.4483300894">
        <ele>97.71</ele>
        <time>2018-12-21T16:21:09Z</time>
      </trkpt>
      <trkpt lat="39.5284793526" lon="-8.4483443387">
        <ele>97.23</ele>
        <time>2018-12-21T16:21:15Z</time>
      </trkpt>
      <trkpt lat="39.5284956135" lon="-8.4483326040">
        <ele>97.23</ele>
        <time>2018-12-21T16:21:21Z</time>
      </trkpt>
      <trkpt lat="39.5285198372" lon="-8.4483213723">
        <ele>97.23</ele>
        <time>2018-12-21T16:21:27Z</time>
      </trkpt>
      <trkpt lat="39.5286342502" lon="-8.4483213723">
        <ele>96.75</ele>
        <time>2018-12-21T16:21:33Z</time>
      </trkpt>
      <trkpt lat="39.5286668558" lon="-8.4483304247">
        <ele>96.75</ele>
        <time>2018-12-21T16:21:39Z</time>
      </trkpt>
      <trkpt lat="39.5287137106" lon="-8.4483443387">
        <ele>97.23</ele>
        <time>2018-12-21T16:21:42Z</time>
      </trkpt>
      <trkpt lat="39.5287805144" lon="-8.4483263176">
        <ele>96.75</ele>
        <time>2018-12-21T16:21:47Z</time>
      </trkpt>
      <trkpt lat="39.5288449712" lon="-8.4483176004">
        <ele>97.23</ele>
        <time>2018-12-21T16:21:52Z</time>
      </trkpt>
      <trkpt lat="39.5289019682" lon="-8.4483647067">
        <ele>97.23</ele>
        <time>2018-12-21T16:21:56Z</time>
      </trkpt>
      <trkpt lat="39.5288984478" lon="-8.4483569954">
        <ele>97.71</ele>
        <time>2018-12-21T16:21:59Z</time>
      </trkpt>
      <trkpt lat="39.5289995335" lon="-8.4483192768">
        <ele>96.75</ele>
        <time>2018-12-21T16:22:05Z</time>
      </trkpt>
      <trkpt lat="39.5290036406" lon="-8.4483063687">
        <ele>98.19</ele>
        <time>2018-12-21T16:22:10Z</time>
      </trkpt>
      <trkpt lat="39.5290087536" lon="-8.4482967295">
        <ele>97.23</ele>
        <time>2018-12-21T16:22:11Z</time>
      </trkpt>
      <trkpt lat="39.5291121863" lon="-8.4482655488">
        <ele>97.23</ele>
        <time>2018-12-21T16:22:17Z</time>
      </trkpt>
      <trkpt lat="39.5291125216" lon="-8.4482641239">
        <ele>96.75</ele>
        <time>2018-12-21T16:22:18Z</time>
      </trkpt>
      <trkpt lat="39.5290992782" lon="-8.4482722543">
        <ele>97.23</ele>
        <time>2018-12-21T16:22:24Z</time>
      </trkpt>
      <trkpt lat="39.5291949995" lon="-8.4482388105">
        <ele>96.75</ele>
        <time>2018-12-21T16:22:28Z</time>
      </trkpt>
      <trkpt lat="39.5291991066" lon="-8.4482352901">
        <ele>96.75</ele>
        <time>2018-12-21T16:22:31Z</time>
      </trkpt>
      <trkpt lat="39.5293116756" lon="-8.4482559934">
        <ele>97.23</ele>
        <time>2018-12-21T16:22:36Z</time>
      </trkpt>
      <trkpt lat="39.5293957461" lon="-8.4482233040">
        <ele>97.71</ele>
        <time>2018-12-21T16:22:42Z</time>
      </trkpt>
      <trkpt lat="39.5294019487" lon="-8.4482261539">
        <ele>97.71</ele>
        <time>2018-12-21T16:22:43Z</time>
      </trkpt>
      <trkpt lat="39.5294514857" lon="-8.4482244775">
        <ele>96.75</ele>
        <time>2018-12-21T16:22:47Z</time>
      </trkpt>
      <trkpt lat="39.5294915512" lon="-8.4482228849">
        <ele>97.71</ele>
        <time>2018-12-21T16:22:49Z</time>
      </trkpt>
      <trkpt lat="39.5295151882" lon="-8.4482217114">
        <ele>97.23</ele>
        <time>2018-12-21T16:22:54Z</time>
      </trkpt>
      <trkpt lat="39.5295613725" lon="-8.4483262338">
        <ele>97.71</ele>
        <time>2018-12-21T16:23:00Z</time>
      </trkpt>
      <trkpt lat="39.5295705926" lon="-8.4483326040">
        <ele>98.67</ele>
        <time>2018-12-21T16:23:03Z</time>
      </trkpt>
      <trkpt lat="39.5295980852" lon="-8.4484204464">
        <ele>98.19</ele>
        <time>2018-12-21T16:23:09Z</time>
      </trkpt>
      <trkpt lat="39.5295850933" lon="-8.4484505374">
        <ele>98.19</ele>
        <time>2018-12-21T16:23:15Z</time>
      </trkpt>
      <trkpt lat="39.5295890328" lon="-8.4484528005">
        <ele>98.67</ele>
        <time>2018-12-21T16:23:22Z</time>
      </trkpt>
      <trkpt lat="39.5295790583" lon="-8.4484667983">
        <ele>99.15</ele>
        <time>2018-12-21T16:23:35Z</time>
      </trkpt>
      <trkpt lat="39.5296103228" lon="-8.4484206978">
        <ele>99.15</ele>
        <time>2018-12-21T16:23:46Z</time>
      </trkpt>
      <trkpt lat="39.5296257455" lon="-8.4484381322">
        <ele>99.63</ele>
        <time>2018-12-21T16:23:48Z</time>
      </trkpt>
      <trkpt lat="39.5296653919" lon="-8.4485149104">
        <ele>100.60</ele>
        <time>2018-12-21T16:23:55Z</time>
      </trkpt>
      <trkpt lat="39.5297019370" lon="-8.4485557303">
        <ele>99.63</ele>
        <time>2018-12-21T16:24:01Z</time>
      </trkpt>
      <trkpt lat="39.5297274180" lon="-8.4485653695">
        <ele>99.15</ele>
        <time>2018-12-21T16:24:03Z</time>
      </trkpt>
      <trkpt lat="39.5297209639" lon="-8.4486116376">
        <ele>99.63</ele>
        <time>2018-12-21T16:24:09Z</time>
      </trkpt>
      <trkpt lat="39.5297822356" lon="-8.4486194327">
        <ele>99.63</ele>
        <time>2018-12-21T16:24:14Z</time>
      </trkpt>
      <trkpt lat="39.5297943894" lon="-8.4486212768">
        <ele>98.19</ele>
        <time>2018-12-21T16:24:15Z</time>
      </trkpt>
      <trkpt lat="39.5298479497" lon="-8.4486509487">
        <ele>100.11</ele>
        <time>2018-12-21T16:24:21Z</time>
      </trkpt>
      <trkpt lat="39.5299212914" lon="-8.4487083647">
        <ele>101.08</ele>
        <time>2018-12-21T16:24:26Z</time>
      </trkpt>
      <trkpt lat="39.5299222972" lon="-8.4487093706">
        <ele>101.56</ele>
        <time>2018-12-21T16:24:30Z</time>
      </trkpt>
      <trkpt lat="39.5300124865" lon="-8.4487693850">
        <ele>100.11</ele>
        <time>2018-12-21T16:24:37Z</time>
      </trkpt>
      <trkpt lat="39.5300089661" lon="-8.4487733245">
        <ele>100.11</ele>
        <time>2018-12-21T16:24:41Z</time>
      </trkpt>
      <trkpt lat="39.5301210321" lon="-8.4488410503">
        <ele>100.60</ele>
        <time>2018-12-21T16:24:48Z</time>
      </trkpt>
      <trkpt lat="39.5301511232" lon="-8.4488422237">
        <ele>100.11</ele>
        <time>2018-12-21T16:24:54Z</time>
      </trkpt>
      <trkpt lat="39.5302318409" lon="-8.4489263780">
        <ele>100.11</ele>
        <time>2018-12-21T16:25:02Z</time>
      </trkpt>
      <trkpt lat="39.5302538853" lon="-8.4489454888">
        <ele>99.63</ele>
        <time>2018-12-21T16:25:07Z</time>
      </trkpt>
      <trkpt lat="39.5303047635" lon="-8.4490327444">
        <ele>99.15</ele>
        <time>2018-12-21T16:25:12Z</time>
      </trkpt>
      <trkpt lat="39.5303625148" lon="-8.4491091873">
        <ele>99.15</ele>
        <time>2018-12-21T16:25:19Z</time>
      </trkpt>
      <trkpt lat="39.5303830504" lon="-8.4491378535">
        <ele>98.67</ele>
        <time>2018-12-21T16:25:22Z</time>
      </trkpt>
      <trkpt lat="39.5303861517" lon="-8.4491793439">
        <ele>99.15</ele>
        <time>2018-12-21T16:25:25Z</time>
      </trkpt>
      <trkpt lat="39.5304335933" lon="-8.4492336586">
        <ele>98.67</ele>
        <time>2018-12-21T16:25:28Z</time>
      </trkpt>
      <trkpt lat="39.5305500180" lon="-8.4492729697">
        <ele>98.67</ele>
        <time>2018-12-21T16:25:34Z</time>
      </trkpt>
      <trkpt lat="39.5305314939" lon="-8.4492739756">
        <ele>98.67</ele>
        <time>2018-12-21T16:25:40Z</time>
      </trkpt>
      <trkpt lat="39.5305631775" lon="-8.4493289609">
        <ele>97.71</ele>
        <time>2018-12-21T16:25:44Z</time>
      </trkpt>
      <trkpt lat="39.5305937715" lon="-8.4494152106">
        <ele>98.19</ele>
        <time>2018-12-21T16:25:50Z</time>
      </trkpt>
      <trkpt lat="39.5305813663" lon="-8.4494115226">
        <ele>97.23</ele>
        <time>2018-12-21T16:25:52Z</time>
      </trkpt>
      <trkpt lat="39.5306632575" lon="-8.4495401848">
        <ele>98.19</ele>
        <time>2018-12-21T16:25:59Z</time>
      </trkpt>
      <trkpt lat="39.5306837931" lon="-8.4495730419">
        <ele>98.19</ele>
        <time>2018-12-21T16:26:04Z</time>
      </trkpt>
      <trkpt lat="39.5306891575" lon="-8.4495820105">
        <ele>98.67</ele>
        <time>2018-12-21T16:26:05Z</time>
      </trkpt>
      <trkpt lat="39.5307349227" lon="-8.4496699367">
        <ele>97.23</ele>
        <time>2018-12-21T16:26:10Z</time>
      </trkpt>
      <trkpt lat="39.5307683665" lon="-8.4497170430">
        <ele>98.19</ele>
        <time>2018-12-21T16:26:16Z</time>
      </trkpt>
      <trkpt lat="39.5308282133" lon="-8.4497778956">
        <ele>98.19</ele>
        <time>2018-12-21T16:26:23Z</time>
      </trkpt>
      <trkpt lat="39.5308702905" lon="-8.4498396702">
        <ele>97.71</ele>
        <time>2018-12-21T16:26:26Z</time>
      </trkpt>
      <trkpt lat="39.5308922511" lon="-8.4498731140">
        <ele>98.19</ele>
        <time>2018-12-21T16:26:31Z</time>
      </trkpt>
      <trkpt lat="39.5308987051" lon="-8.4498794004">
        <ele>97.71</ele>
        <time>2018-12-21T16:26:35Z</time>
      </trkpt>
      <trkpt lat="39.5309510920" lon="-8.4499664046">
        <ele>98.67</ele>
        <time>2018-12-21T16:26:40Z</time>
      </trkpt>
      <trkpt lat="39.5309508406" lon="-8.4499803185">
        <ele>98.67</ele>
        <time>2018-12-21T16:26:44Z</time>
      </trkpt>
      <trkpt lat="39.5309805963" lon="-8.4500507265">
        <ele>98.19</ele>
        <time>2018-12-21T16:26:50Z</time>
      </trkpt>
      <trkpt lat="39.5309966896" lon="-8.4500805661">
        <ele>98.67</ele>
        <time>2018-12-21T16:26:55Z</time>
      </trkpt>
      <trkpt lat="39.5310247689" lon="-8.4500985034">
        <ele>98.67</ele>
        <time>2018-12-21T16:27:00Z</time>
      </trkpt>
      <trkpt lat="39.5310578775" lon="-8.4501219727">
        <ele>99.63</ele>
        <time>2018-12-21T16:27:04Z</time>
      </trkpt>
      <trkpt lat="39.5310748927" lon="-8.4501154348">
        <ele>99.63</ele>
        <time>2018-12-21T16:27:06Z</time>
      </trkpt>
      <trkpt lat="39.5311287045" lon="-8.4501617029">
        <ele>99.15</ele>
        <time>2018-12-21T16:27:12Z</time>
      </trkpt>
      <trkpt lat="39.5311669260" lon="-8.4502078034">
        <ele>99.15</ele>
        <time>2018-12-21T16:27:16Z</time>
      </trkpt>
      <trkpt lat="39.5312116016" lon="-8.4502731822">
        <ele>99.63</ele>
        <time>2018-12-21T16:27:23Z</time>
      </trkpt>
      <trkpt lat="39.5312534273" lon="-8.4503282513">
        <ele>103.48</ele>
        <time>2018-12-21T16:27:28Z</time>
      </trkpt>
      <trkpt lat="39.5312606357" lon="-8.4503376391">
        <ele>100.11</ele>
        <time>2018-12-21T16:27:29Z</time>
      </trkpt>
      <trkpt lat="39.5312850270" lon="-8.4503722563">
        <ele>99.63</ele>
        <time>2018-12-21T16:27:35Z</time>
      </trkpt>
      <trkpt lat="39.5312845241" lon="-8.4503776208">
        <ele>100.11</ele>
        <time>2018-12-21T16:27:36Z</time>
      </trkpt>
      <trkpt lat="39.5312970132" lon="-8.4503984079">
        <ele>99.63</ele>
        <time>2018-12-21T16:27:40Z</time>
      </trkpt>
      <trkpt lat="39.5313318819" lon="-8.4504421614">
        <ele>101.08</ele>
        <time>2018-12-21T16:27:45Z</time>
      </trkpt>
      <trkpt lat="39.5313496515" lon="-8.4504646249">
        <ele>101.56</ele>
        <time>2018-12-21T16:27:50Z</time>
      </trkpt>
      <trkpt lat="39.5313510764" lon="-8.4504649602">
        <ele>100.11</ele>
        <time>2018-12-21T16:27:51Z</time>
      </trkpt>
      <trkpt lat="39.5313852746" lon="-8.4505161736">
        <ele>101.08</ele>
        <time>2018-12-21T16:27:56Z</time>
      </trkpt>
      <trkpt lat="39.5314058103" lon="-8.4505284950">
        <ele>101.56</ele>
        <time>2018-12-21T16:28:01Z</time>
      </trkpt>
      <trkpt lat="39.5314559340" lon="-8.4506294131">
        <ele>102.04</ele>
        <time>2018-12-21T16:28:07Z</time>
      </trkpt>
      <trkpt lat="39.5314658247" lon="-8.4506356157">
        <ele>101.56</ele>
        <time>2018-12-21T16:28:09Z</time>
      </trkpt>
      <trkpt lat="39.5314783975" lon="-8.4506589174">
        <ele>102.04</ele>
        <time>2018-12-21T16:28:16Z</time>
      </trkpt>
      <trkpt lat="39.5314746257" lon="-8.4506722447">
        <ele>102.04</ele>
        <time>2018-12-21T16:28:20Z</time>
      </trkpt>
      <trkpt lat="39.5314840972" lon="-8.4506502002">
        <ele>102.52</ele>
        <time>2018-12-21T16:28:22Z</time>
      </trkpt>
      <trkpt lat="39.5315177087" lon="-8.4507126454">
        <ele>102.04</ele>
        <time>2018-12-21T16:28:28Z</time>
      </trkpt>
      <trkpt lat="39.5315138530" lon="-8.4507475141">
        <ele>102.04</ele>
        <time>2018-12-21T16:28:34Z</time>
      </trkpt>
      <trkpt lat="39.5315167867" lon="-8.4507564828">
        <ele>102.04</ele>
        <time>2018-12-21T16:28:45Z</time>
      </trkpt>
      <trkpt lat="39.5315464586" lon="-8.4508488514">
        <ele>101.56</ele>
        <time>2018-12-21T16:28:49Z</time>
      </trkpt>
      <trkpt lat="39.5316121727" lon="-8.4509553015">
        <ele>102.04</ele>
        <time>2018-12-21T16:28:55Z</time>
      </trkpt>
      <trkpt lat="39.5316266734" lon="-8.4509607498">
        <ele>101.56</ele>
        <time>2018-12-21T16:28:57Z</time>
      </trkpt>
      <trkpt lat="39.5316823293" lon="-8.4510520287">
        <ele>102.52</ele>
        <time>2018-12-21T16:29:02Z</time>
      </trkpt>
      <trkpt lat="39.5317004342" lon="-8.4510538727">
        <ele>102.04</ele>
        <time>2018-12-21T16:29:07Z</time>
      </trkpt>
      <trkpt lat="39.5317015238" lon="-8.4510606620">
        <ele>102.04</ele>
        <time>2018-12-21T16:29:08Z</time>
      </trkpt>
      <trkpt lat="39.5317433495" lon="-8.4511654358">
        <ele>101.08</ele>
        <time>2018-12-21T16:29:14Z</time>
      </trkpt>
      <trkpt lat="39.5317457803" lon="-8.4511662740">
        <ele>101.08</ele>
        <time>2018-12-21T16:29:20Z</time>
      </trkpt>
      <trkpt lat="39.5317916293" lon="-8.4512300603">
        <ele>101.08</ele>
        <time>2018-12-21T16:29:25Z</time>
      </trkpt>
      <trkpt lat="39.5317955688" lon="-8.4512174036">
        <ele>100.60</ele>
        <time>2018-12-21T16:29:32Z</time>
      </trkpt>
      <trkpt lat="39.5318169426" lon="-8.4512162302">
        <ele>101.08</ele>
        <time>2018-12-21T16:29:35Z</time>
      </trkpt>
      <trkpt lat="39.5319008455" lon="-8.4513565432">
        <ele>101.08</ele>
        <time>2018-12-21T16:29:41Z</time>
      </trkpt>
      <trkpt lat="39.5319182798" lon="-8.4513698705">
        <ele>101.08</ele>
        <time>2018-12-21T16:29:42Z</time>
      </trkpt>
      <trkpt lat="39.5319461077" lon="-8.4513926692">
        <ele>100.11</ele>
        <time>2018-12-21T16:29:48Z</time>
      </trkpt>
      <trkpt lat="39.5320176892" lon="-8.4515532665">
        <ele>99.63</ele>
        <time>2018-12-21T16:29:55Z</time>
      </trkpt>
      <trkpt lat="39.5320347883" lon="-8.4515749756">
        <ele>100.60</ele>
        <time>2018-12-21T16:30:01Z</time>
      </trkpt>
      <trkpt lat="39.5320496242" lon="-8.4515667614">
        <ele>100.60</ele>
        <time>2018-12-21T16:30:04Z</time>
      </trkpt>
      <trkpt lat="39.5320982393" lon="-8.4517041408">
        <ele>99.63</ele>
        <time>2018-12-21T16:30:11Z</time>
      </trkpt>
      <trkpt lat="39.5321123209" lon="-8.4517308790">
        <ele>100.11</ele>
        <time>2018-12-21T16:30:18Z</time>
      </trkpt>
      <trkpt lat="39.5321424119" lon="-8.4518683422">
        <ele>100.11</ele>
        <time>2018-12-21T16:30:23Z</time>
      </trkpt>
      <trkpt lat="39.5322018396" lon="-8.4520593658">
        <ele>100.60</ele>
        <time>2018-12-21T16:30:30Z</time>
      </trkpt>
      <trkpt lat="39.5322108921" lon="-8.4520534147">
        <ele>100.11</ele>
        <time>2018-12-21T16:30:37Z</time>
      </trkpt>
      <trkpt lat="39.5322667994" lon="-8.4521572664">
        <ele>99.63</ele>
        <time>2018-12-21T16:30:43Z</time>
      </trkpt>
      <trkpt lat="39.5323463436" lon="-8.4522612859">
        <ele>99.15</ele>
        <time>2018-12-21T16:30:50Z</time>
      </trkpt>
      <trkpt lat="39.5323652029" lon="-8.4523008484">
        <ele>99.15</ele>
        <time>2018-12-21T16:30:57Z</time>
      </trkpt>
      <trkpt lat="39.5324292406" lon="-8.4524152614">
        <ele>98.67</ele>
        <time>2018-12-21T16:31:03Z</time>
      </trkpt>
      <trkpt lat="39.5324169192" lon="-8.4524004254">
        <ele>97.71</ele>
        <time>2018-12-21T16:31:09Z</time>
      </trkpt>
      <trkpt lat="39.5324125607" lon="-8.4523995873">
        <ele>98.67</ele>
        <time>2018-12-21T16:31:10Z</time>
      </trkpt>
      <trkpt lat="39.5324378740" lon="-8.4524846636">
        <ele>98.19</ele>
        <time>2018-12-21T16:31:14Z</time>
      </trkpt>
      <trkpt lat="39.5324938651" lon="-8.4525613580">
        <ele>97.71</ele>
        <time>2018-12-21T16:31:20Z</time>
      </trkpt>
      <trkpt lat="39.5325260516" lon="-8.4526427463">
        <ele>96.75</ele>
        <time>2018-12-21T16:31:27Z</time>
      </trkpt>
      <trkpt lat="39.5325059351" lon="-8.4526690654">
        <ele>97.23</ele>
        <time>2018-12-21T16:31:35Z</time>
      </trkpt>
      <trkpt lat="39.5325198490" lon="-8.4526855778">
        <ele>97.23</ele>
        <time>2018-12-21T16:31:43Z</time>
      </trkpt>
      <trkpt lat="39.5325371996" lon="-8.4527055267">
        <ele>97.23</ele>
        <time>2018-12-21T16:31:55Z</time>
      </trkpt>
      <trkpt lat="39.5325614233" lon="-8.4526935406">
        <ele>97.23</ele>
        <time>2018-12-21T16:32:07Z</time>
      </trkpt>
      <trkpt lat="39.5325703081" lon="-8.4527192730">
        <ele>97.23</ele>
        <time>2018-12-21T16:32:17Z</time>
      </trkpt>
      <trkpt lat="39.5325838868" lon="-8.4527610987">
        <ele>97.23</ele>
        <time>2018-12-21T16:32:24Z</time>
      </trkpt>
      <trkpt lat="39.5325827133" lon="-8.4527973924">
        <ele>97.23</ele>
        <time>2018-12-21T16:32:33Z</time>
      </trkpt>
      <trkpt lat="39.5325689670" lon="-8.4527879208">
        <ele>96.75</ele>
        <time>2018-12-21T16:32:43Z</time>
      </trkpt>
      <trkpt lat="39.5325930230" lon="-8.4528424870">
        <ele>97.71</ele>
        <time>2018-12-21T16:32:50Z</time>
      </trkpt>
      <trkpt lat="39.5326098707" lon="-8.4529126436">
        <ele>96.75</ele>
        <time>2018-12-21T16:32:55Z</time>
      </trkpt>
      <trkpt lat="39.5326196775" lon="-8.4529294912">
        <ele>96.75</ele>
        <time>2018-12-21T16:33:01Z</time>
      </trkpt>
      <trkpt lat="39.5326532051" lon="-8.4530585725">
        <ele>95.31</ele>
        <time>2018-12-21T16:33:07Z</time>
      </trkpt>
      <trkpt lat="39.5326993894" lon="-8.4531688783">
        <ele>95.79</ele>
        <time>2018-12-21T16:33:15Z</time>
      </trkpt>
      <trkpt lat="39.5327397063" lon="-8.4532159008">
        <ele>92.90</ele>
        <time>2018-12-21T16:33:22Z</time>
      </trkpt>
      <trkpt lat="39.5327504352" lon="-8.4532350954">
        <ele>98.19</ele>
        <time>2018-12-21T16:33:23Z</time>
      </trkpt>
      <trkpt lat="39.5327703003" lon="-8.4532658570">
        <ele>94.83</ele>
        <time>2018-12-21T16:33:27Z</time>
      </trkpt>
      <trkpt lat="39.5327833761" lon="-8.4532666951">
        <ele>96.27</ele>
        <time>2018-12-21T16:33:30Z</time>
      </trkpt>
      <trkpt lat="39.5328042470" lon="-8.4532693774">
        <ele>95.31</ele>
        <time>2018-12-21T16:33:32Z</time>
      </trkpt>
      <trkpt lat="39.5329044946" lon="-8.4533635061">
        <ele>94.83</ele>
        <time>2018-12-21T16:33:38Z</time>
      </trkpt>
      <trkpt lat="39.5329857152" lon="-8.4534930065">
        <ele>94.83</ele>
        <time>2018-12-21T16:33:46Z</time>
      </trkpt>
      <trkpt lat="39.5329948515" lon="-8.4534975328">
        <ele>95.31</ele>
        <time>2018-12-21T16:33:53Z</time>
      </trkpt>
      <trkpt lat="39.5330076758" lon="-8.4535141289">
        <ele>94.83</ele>
        <time>2018-12-21T16:33:56Z</time>
      </trkpt>
      <trkpt lat="39.5330232661" lon="-8.4535387717">
        <ele>95.31</ele>
        <time>2018-12-21T16:33:58Z</time>
      </trkpt>
      <trkpt lat="39.5331192389" lon="-8.4536438808">
        <ele>94.83</ele>
        <time>2018-12-21T16:34:04Z</time>
      </trkpt>
      <trkpt lat="39.5332201570" lon="-8.4537825175">
        <ele>94.35</ele>
        <time>2018-12-21T16:34:11Z</time>
      </trkpt>
      <trkpt lat="39.5332317241" lon="-8.4538059030">
        <ele>94.83</ele>
        <time>2018-12-21T16:34:17Z</time>
      </trkpt>
      <trkpt lat="39.5332338195" lon="-8.4538063221">
        <ele>93.87</ele>
        <time>2018-12-21T16:34:18Z</time>
      </trkpt>
      <trkpt lat="39.5332532655" lon="-8.4538600501">
        <ele>93.87</ele>
        <time>2018-12-21T16:34:22Z</time>
      </trkpt>
      <trkpt lat="39.5333359111" lon="-8.4540494811">
        <ele>94.83</ele>
        <time>2018-12-21T16:34:30Z</time>
      </trkpt>
      <trkpt lat="39.5333519205" lon="-8.4540747944">
        <ele>94.83</ele>
        <time>2018-12-21T16:34:32Z</time>
      </trkpt>
      <trkpt lat="39.5333731268" lon="-8.4540901333">
        <ele>95.31</ele>
        <time>2018-12-21T16:34:35Z</time>
      </trkpt>
      <trkpt lat="39.5333996974" lon="-8.4541374911">
        <ele>94.35</ele>
        <time>2018-12-21T16:34:39Z</time>
      </trkpt>
      <trkpt lat="39.5334095042" lon="-8.4542131796">
        <ele>94.83</ele>
        <time>2018-12-21T16:34:44Z</time>
      </trkpt>
      <trkpt lat="39.5334457979" lon="-8.4543187916">
        <ele>94.83</ele>
        <time>2018-12-21T16:34:52Z</time>
      </trkpt>
      <trkpt lat="39.5334817562" lon="-8.4544591047">
        <ele>94.83</ele>
        <time>2018-12-21T16:35:02Z</time>
      </trkpt>
      <trkpt lat="39.5335149486" lon="-8.4546127450">
        <ele>95.31</ele>
        <time>2018-12-21T16:35:14Z</time>
      </trkpt>
      <trkpt lat="39.5335422736" lon="-8.4548023436">
        <ele>94.83</ele>
        <time>2018-12-21T16:35:28Z</time>
      </trkpt>
      <trkpt lat="39.5335786510" lon="-8.4548944607">
        <ele>94.35</ele>
        <time>2018-12-21T16:35:39Z</time>
      </trkpt>
      <trkpt lat="39.5336162858" lon="-8.4550322592">
        <ele>95.79</ele>
        <time>2018-12-21T16:35:49Z</time>
      </trkpt>
      <trkpt lat="39.5336593688" lon="-8.4551786073">
        <ele>94.83</ele>
        <time>2018-12-21T16:36:00Z</time>
      </trkpt>
      <trkpt lat="39.5336954948" lon="-8.4553346783">
        <ele>95.31</ele>
        <time>2018-12-21T16:36:12Z</time>
      </trkpt>
      <trkpt lat="39.5337239932" lon="-8.4554945212">
        <ele>94.83</ele>
        <time>2018-12-21T16:36:24Z</time>
      </trkpt>
      <trkpt lat="39.5337455347" lon="-8.4555369336">
        <ele>95.31</ele>
        <time>2018-12-21T16:36:31Z</time>
      </trkpt>
      <trkpt lat="39.5337841753" lon="-8.4556399472">
        <ele>94.83</ele>
        <time>2018-12-21T16:36:38Z</time>
      </trkpt>
      <trkpt lat="39.5338142663" lon="-8.4557098523">
        <ele>96.27</ele>
        <time>2018-12-21T16:36:44Z</time>
      </trkpt>
      <trkpt lat="39.5338163618" lon="-8.4557221737">
        <ele>96.27</ele>
        <time>2018-12-21T16:36:47Z</time>
      </trkpt>
      <trkpt lat="39.5338690840" lon="-8.4558306355">
        <ele>95.79</ele>
        <time>2018-12-21T16:36:54Z</time>
      </trkpt>
      <trkpt lat="39.5339071378" lon="-8.4559290390">
        <ele>95.79</ele>
        <time>2018-12-21T16:37:04Z</time>
      </trkpt>
      <trkpt lat="39.5339887775" lon="-8.4560966771">
        <ele>96.27</ele>
        <time>2018-12-21T16:37:17Z</time>
      </trkpt>
      <trkpt lat="39.5340256579" lon="-8.4563079849">
        <ele>96.27</ele>
        <time>2018-12-21T16:37:32Z</time>
      </trkpt>
      <trkpt lat="39.5340598561" lon="-8.4564061370">
        <ele>95.79</ele>
        <time>2018-12-21T16:37:40Z</time>
      </trkpt>
      <trkpt lat="39.5341066271" lon="-8.4565153532">
        <ele>94.83</ele>
        <time>2018-12-21T16:37:49Z</time>
      </trkpt>
      <trkpt lat="39.5341377240" lon="-8.4566464461">
        <ele>94.83</ele>
        <time>2018-12-21T16:37:58Z</time>
      </trkpt>
      <trkpt lat="39.5341439266" lon="-8.4566711728">
        <ele>93.87</ele>
        <time>2018-12-21T16:38:04Z</time>
      </trkpt>
      <trkpt lat="39.5341703296" lon="-8.4567901120">
        <ele>93.87</ele>
        <time>2018-12-21T16:38:10Z</time>
      </trkpt>
      <trkpt lat="39.5341736823" lon="-8.4569957200">
        <ele>92.90</ele>
        <time>2018-12-21T16:38:15Z</time>
      </trkpt>
      <trkpt lat="39.5341797173" lon="-8.4570755996">
        <ele>92.42</ele>
        <time>2018-12-21T16:38:20Z</time>
      </trkpt>
      <trkpt lat="39.5341901109" lon="-8.4570540581">
        <ele>90.98</ele>
        <time>2018-12-21T16:38:26Z</time>
      </trkpt>
      <trkpt lat="39.5342215430" lon="-8.4571181796">
        <ele>90.50</ele>
        <time>2018-12-21T16:38:32Z</time>
      </trkpt>
      <trkpt lat="39.5342491195" lon="-8.4572872426">
        <ele>90.02</ele>
        <time>2018-12-21T16:38:38Z</time>
      </trkpt>
      <trkpt lat="39.5342826471" lon="-8.4573513642">
        <ele>90.02</ele>
        <time>2018-12-21T16:38:43Z</time>
      </trkpt>
      <trkpt lat="39.5342672244" lon="-8.4573480114">
        <ele>89.54</ele>
        <time>2018-12-21T16:38:48Z</time>
      </trkpt>
      <trkpt lat="39.5343260653" lon="-8.4574985504">
        <ele>89.06</ele>
        <time>2018-12-21T16:38:55Z</time>
      </trkpt>
      <trkpt lat="39.5343518816" lon="-8.4575721435">
        <ele>89.54</ele>
        <time>2018-12-21T16:39:00Z</time>
      </trkpt>
      <trkpt lat="39.5343298372" lon="-8.4575723950">
        <ele>89.06</ele>
        <time>2018-12-21T16:39:06Z</time>
      </trkpt>
      <trkpt lat="39.5343749318" lon="-8.4576536994">
        <ele>88.58</ele>
        <time>2018-12-21T16:39:10Z</time>
      </trkpt>
      <trkpt lat="39.5344657917" lon="-8.4577722196">
        <ele>87.62</ele>
        <time>2018-12-21T16:39:17Z</time>
      </trkpt>
      <trkpt lat="39.5344766043" lon="-8.4577708784">
        <ele>88.10</ele>
        <time>2018-12-21T16:39:23Z</time>
      </trkpt>
      <trkpt lat="39.5345556457" lon="-8.4579007141">
        <ele>87.62</ele>
        <time>2018-12-21T16:39:29Z</time>
      </trkpt>
      <trkpt lat="39.5346073620" lon="-8.4579511732">
        <ele>87.14</ele>
        <time>2018-12-21T16:39:35Z</time>
      </trkpt>
      <trkpt lat="39.5346203540" lon="-8.4579418693">
        <ele>87.62</ele>
        <time>2018-12-21T16:39:38Z</time>
      </trkpt>
      <trkpt lat="39.5346828829" lon="-8.4580825176">
        <ele>87.62</ele>
        <time>2018-12-21T16:39:44Z</time>
      </trkpt>
      <trkpt lat="39.5346946176" lon="-8.4581308812">
        <ele>87.62</ele>
        <time>2018-12-21T16:39:49Z</time>
      </trkpt>
      <trkpt lat="39.5346978866" lon="-8.4581318032">
        <ele>87.62</ele>
        <time>2018-12-21T16:39:50Z</time>
      </trkpt>
      <trkpt lat="39.5347316656" lon="-8.4582142811">
        <ele>87.62</ele>
        <time>2018-12-21T16:39:54Z</time>
      </trkpt>
      <trkpt lat="39.5347643550" lon="-8.4582839347">
        <ele>87.62</ele>
        <time>2018-12-21T16:40:00Z</time>
      </trkpt>
      <trkpt lat="39.5347636845" lon="-8.4582830127">
        <ele>87.62</ele>
        <time>2018-12-21T16:40:01Z</time>
      </trkpt>
      <trkpt lat="39.5348283090" lon="-8.4584203921">
        <ele>87.62</ele>
        <time>2018-12-21T16:40:08Z</time>
      </trkpt>
      <trkpt lat="39.5348413009" lon="-8.4584356472">
        <ele>87.14</ele>
        <time>2018-12-21T16:40:14Z</time>
      </trkpt>
      <trkpt lat="39.5348724816" lon="-8.4585567657">
        <ele>87.14</ele>
        <time>2018-12-21T16:40:19Z</time>
      </trkpt>
      <trkpt lat="39.5348834619" lon="-8.4585710149">
        <ele>87.14</ele>
        <time>2018-12-21T16:40:24Z</time>
      </trkpt>
      <trkpt lat="39.5348843839" lon="-8.4585679136">
        <ele>87.14</ele>
        <time>2018-12-21T16:40:25Z</time>
      </trkpt>
      <trkpt lat="39.5349130500" lon="-8.4587004315">
        <ele>86.66</ele>
        <time>2018-12-21T16:40:31Z</time>
      </trkpt>
      <trkpt lat="39.5349094458" lon="-8.4587063827">
        <ele>86.66</ele>
        <time>2018-12-21T16:40:34Z</time>
      </trkpt>
      <trkpt lat="39.5349221863" lon="-8.4588311892">
        <ele>87.62</ele>
        <time>2018-12-21T16:40:40Z</time>
      </trkpt>
      <trkpt lat="39.5349298976" lon="-8.4588384815">
        <ele>88.10</ele>
        <time>2018-12-21T16:40:43Z</time>
      </trkpt>
      <trkpt lat="39.5349766687" lon="-8.4589645453">
        <ele>88.58</ele>
        <time>2018-12-21T16:40:50Z</time>
      </trkpt>
      <trkpt lat="39.5349730644" lon="-8.4589523915">
        <ele>87.62</ele>
        <time>2018-12-21T16:40:52Z</time>
      </trkpt>
      <trkpt lat="39.5350021496" lon="-8.4590501245">
        <ele>87.62</ele>
        <time>2018-12-21T16:40:58Z</time>
      </trkpt>
      <trkpt lat="39.5350212604" lon="-8.4591126535">
        <ele>87.62</ele>
        <time>2018-12-21T16:41:03Z</time>
      </trkpt>
      <trkpt lat="39.5350309834" lon="-8.4591410682">
        <ele>91.46</ele>
        <time>2018-12-21T16:41:07Z</time>
      </trkpt>
      <trkpt lat="39.5350345876" lon="-8.4591460135">
        <ele>88.10</ele>
        <time>2018-12-21T16:41:09Z</time>
      </trkpt>
      <trkpt lat="39.5350313187" lon="-8.4591501206">
        <ele>88.10</ele>
        <time>2018-12-21T16:41:12Z</time>
      </trkpt>
      <trkpt lat="39.5350313187" lon="-8.4591705725">
        <ele>89.06</ele>
        <time>2018-12-21T16:41:15Z</time>
      </trkpt>
      <trkpt lat="39.5350428857" lon="-8.4591854922">
        <ele>88.58</ele>
        <time>2018-12-21T16:41:17Z</time>
      </trkpt>
      <trkpt lat="39.5350767486" lon="-8.4592503682">
        <ele>88.58</ele>
        <time>2018-12-21T16:41:21Z</time>
      </trkpt>
      <trkpt lat="39.5350860525" lon="-8.4593320917">
        <ele>89.06</ele>
        <time>2018-12-21T16:41:27Z</time>
      </trkpt>
      <trkpt lat="39.5351075102" lon="-8.4594608378">
        <ele>89.06</ele>
        <time>2018-12-21T16:41:33Z</time>
      </trkpt>
      <trkpt lat="39.5351158921" lon="-8.4594972152">
        <ele>89.54</ele>
        <time>2018-12-21T16:41:39Z</time>
      </trkpt>
      <trkpt lat="39.5351312310" lon="-8.4595494345">
        <ele>89.54</ele>
        <time>2018-12-21T16:41:44Z</time>
      </trkpt>
      <trkpt lat="39.5351681113" lon="-8.4596611653">
        <ele>90.02</ele>
        <time>2018-12-21T16:41:53Z</time>
      </trkpt>
      <trkpt lat="39.5351929218" lon="-8.4597054217">
        <ele>90.50</ele>
        <time>2018-12-21T16:42:00Z</time>
      </trkpt>
      <trkpt lat="39.5352251921" lon="-8.4598009754">
        <ele>91.46</ele>
        <time>2018-12-21T16:42:04Z</time>
      </trkpt>
      <trkpt lat="39.5352426264" lon="-8.4598324075">
        <ele>91.94</ele>
        <time>2018-12-21T16:42:07Z</time>
      </trkpt>
      <trkpt lat="39.5352453925" lon="-8.4598745685">
        <ele>91.94</ele>
        <time>2018-12-21T16:42:13Z</time>
      </trkpt>
      <trkpt lat="39.5352599770" lon="-8.4598770831">
        <ele>92.90</ele>
        <time>2018-12-21T16:42:21Z</time>
      </trkpt>
      <trkpt lat="39.5352754835" lon="-8.4598843753">
        <ele>92.42</ele>
        <time>2018-12-21T16:42:30Z</time>
      </trkpt>
      <trkpt lat="39.5352854580" lon="-8.4598872252">
        <ele>91.94</ele>
        <time>2018-12-21T16:42:46Z</time>
      </trkpt>
      <trkpt lat="39.5352490805" lon="-8.4598613251">
        <ele>91.94</ele>
        <time>2018-12-21T16:43:06Z</time>
      </trkpt>
      <trkpt lat="39.5352580491" lon="-8.4598731436">
        <ele>91.94</ele>
        <time>2018-12-21T16:43:11Z</time>
      </trkpt>
      <trkpt lat="39.5352779981" lon="-8.4598939307">
        <ele>92.42</ele>
        <time>2018-12-21T16:43:20Z</time>
      </trkpt>
      <trkpt lat="39.5352976117" lon="-8.4599189088">
        <ele>92.42</ele>
        <time>2018-12-21T16:43:27Z</time>
      </trkpt>
      <trkpt lat="39.5353574585" lon="-8.4599734750">
        <ele>93.39</ele>
        <time>2018-12-21T16:43:36Z</time>
      </trkpt>
      <trkpt lat="39.5354037266" lon="-8.4600135405">
        <ele>94.83</ele>
        <time>2018-12-21T16:43:41Z</time>
      </trkpt>
      <trkpt lat="39.5354183111" lon="-8.4600304719">
        <ele>94.35</ele>
        <time>2018-12-21T16:43:43Z</time>
      </trkpt>
      <trkpt lat="39.5354805887" lon="-8.4600909892">
        <ele>95.31</ele>
        <time>2018-12-21T16:43:50Z</time>
      </trkpt>
      <trkpt lat="39.5355002023" lon="-8.4600975271">
        <ele>95.79</ele>
        <time>2018-12-21T16:43:53Z</time>
      </trkpt>
      <trkpt lat="39.5355750527" lon="-8.4601979423">
        <ele>96.27</ele>
        <time>2018-12-21T16:44:01Z</time>
      </trkpt>
      <trkpt lat="39.5356095023" lon="-8.4602623992">
        <ele>96.27</ele>
        <time>2018-12-21T16:44:07Z</time>
      </trkpt>
      <trkpt lat="39.5356496517" lon="-8.4603107627">
        <ele>96.75</ele>
        <time>2018-12-21T16:44:13Z</time>
      </trkpt>
      <trkpt lat="39.5356921479" lon="-8.4603829309">
        <ele>97.23</ele>
        <time>2018-12-21T16:44:19Z</time>
      </trkpt>
      <trkpt lat="39.5356991049" lon="-8.4604104236">
        <ele>97.23</ele>
        <time>2018-12-21T16:44:20Z</time>
      </trkpt>
      <trkpt lat="39.5357344765" lon="-8.4604670014">
        <ele>97.23</ele>
        <time>2018-12-21T16:44:27Z</time>
      </trkpt>
      <trkpt lat="39.5357800741" lon="-8.4605933167">
        <ele>98.19</ele>
        <time>2018-12-21T16:44:33Z</time>
      </trkpt>
      <trkpt lat="39.5358101651" lon="-8.4606224857">
        <ele>99.15</ele>
        <time>2018-12-21T16:44:38Z</time>
      </trkpt>
      <trkpt lat="39.5358327124" lon="-8.4607070591">
        <ele>99.63</ele>
        <time>2018-12-21T16:44:44Z</time>
      </trkpt>
      <trkpt lat="39.5358699281" lon="-8.4608189575">
        <ele>99.15</ele>
        <time>2018-12-21T16:44:50Z</time>
      </trkpt>
      <trkpt lat="39.5358905476" lon="-8.4609254915">
        <ele>100.11</ele>
        <time>2018-12-21T16:44:57Z</time>
      </trkpt>
      <trkpt lat="39.5359052997" lon="-8.4610464424">
        <ele>101.56</ele>
        <time>2018-12-21T16:45:02Z</time>
      </trkpt>
      <trkpt lat="39.5359156094" lon="-8.4610988293">
        <ele>100.11</ele>
        <time>2018-12-21T16:45:07Z</time>
      </trkpt>
      <trkpt lat="39.5359348878" lon="-8.4611799661">
        <ele>99.15</ele>
        <time>2018-12-21T16:45:13Z</time>
      </trkpt>
      <trkpt lat="39.5359477121" lon="-8.4613667149">
        <ele>98.67</ele>
        <time>2018-12-21T16:45:19Z</time>
      </trkpt>
      <trkpt lat="39.5359633025" lon="-8.4615237080">
        <ele>98.19</ele>
        <time>2018-12-21T16:45:25Z</time>
      </trkpt>
      <trkpt lat="39.5359510649" lon="-8.4615159128">
        <ele>98.19</ele>
        <time>2018-12-21T16:45:31Z</time>
      </trkpt>
      <trkpt lat="39.5359918848" lon="-8.4615766816">
        <ele>97.71</ele>
        <time>2018-12-21T16:45:38Z</time>
      </trkpt>
      <trkpt lat="39.5360175334" lon="-8.4615801182">
        <ele>98.19</ele>
        <time>2018-12-21T16:45:45Z</time>
      </trkpt>
      <trkpt lat="39.5361807290" lon="-8.4615698084">
        <ele>98.19</ele>
        <time>2018-12-21T16:45:52Z</time>
      </trkpt>
      <trkpt lat="39.5362321101" lon="-8.4615557268">
        <ele>99.15</ele>
        <time>2018-12-21T16:45:59Z</time>
      </trkpt>
      <trkpt lat="39.5363015123" lon="-8.4615493566">
        <ele>99.63</ele>
        <time>2018-12-21T16:46:04Z</time>
      </trkpt>
      <trkpt lat="39.5363085531" lon="-8.4615260549">
        <ele>99.15</ele>
        <time>2018-12-21T16:46:10Z</time>
      </trkpt>
      <trkpt lat="39.5363316033" lon="-8.4615175892">
        <ele>100.11</ele>
        <time>2018-12-21T16:46:24Z</time>
      </trkpt>
      <trkpt lat="39.5363504626" lon="-8.4615267254">
        <ele>99.63</ele>
        <time>2018-12-21T16:46:32Z</time>
      </trkpt>
      <trkpt lat="39.5363523904" lon="-8.4615182597">
        <ele>99.63</ele>
        <time>2018-12-21T16:46:43Z</time>
      </trkpt>
      <trkpt lat="39.5363674778" lon="-8.4615157451">
        <ele>99.15</ele>
        <time>2018-12-21T16:46:45Z</time>
      </trkpt>
      <trkpt lat="39.5364429988" lon="-8.4615205228">
        <ele>99.63</ele>
        <time>2018-12-21T16:46:51Z</time>
      </trkpt>
      <trkpt lat="39.5364585053" lon="-8.4615239594">
        <ele>98.67</ele>
        <time>2018-12-21T16:46:57Z</time>
      </trkpt>
      <trkpt lat="39.5364748500" lon="-8.4615353588">
        <ele>98.19</ele>
        <time>2018-12-21T16:46:59Z</time>
      </trkpt>
      <trkpt lat="39.5365626086" lon="-8.4616170824">
        <ele>97.71</ele>
        <time>2018-12-21T16:47:06Z</time>
      </trkpt>
      <trkpt lat="39.5365710743" lon="-8.4616148192">
        <ele>97.23</ele>
        <time>2018-12-21T16:47:09Z</time>
      </trkpt>
      <trkpt lat="39.5366176777" lon="-8.4616395459">
        <ele>97.23</ele>
        <time>2018-12-21T16:47:13Z</time>
      </trkpt>
      <trkpt lat="39.5367264748" lon="-8.4618076868">
        <ele>95.79</ele>
        <time>2018-12-21T16:47:20Z</time>
      </trkpt>
      <trkpt lat="39.5367616788" lon="-8.4618428908">
        <ele>95.31</ele>
        <time>2018-12-21T16:47:22Z</time>
      </trkpt>
      <trkpt lat="39.5368399657" lon="-8.4619740676">
        <ele>96.27</ele>
        <time>2018-12-21T16:47:28Z</time>
      </trkpt>
      <trkpt lat="39.5368999802" lon="-8.4620324057">
        <ele>95.31</ele>
        <time>2018-12-21T16:47:34Z</time>
      </trkpt>
      <trkpt lat="39.5369159896" lon="-8.4620267060">
        <ele>94.35</ele>
        <time>2018-12-21T16:47:39Z</time>
      </trkpt>
      <trkpt lat="39.5368951187" lon="-8.4620337468">
        <ele>93.87</ele>
        <time>2018-12-21T16:47:43Z</time>
      </trkpt>
      <trkpt lat="39.5369486790" lon="-8.4621857107">
        <ele>93.87</ele>
        <time>2018-12-21T16:47:50Z</time>
      </trkpt>
      <trkpt lat="39.5369525347" lon="-8.4622091800">
        <ele>93.39</ele>
        <time>2018-12-21T16:47:57Z</time>
      </trkpt>
      <trkpt lat="39.5369016565" lon="-8.4622256085">
        <ele>93.87</ele>
        <time>2018-12-21T16:48:18Z</time>
      </trkpt>
      <trkpt lat="39.5369066857" lon="-8.4622200765">
        <ele>93.39</ele>
        <time>2018-12-21T16:48:34Z</time>
      </trkpt>
      <trkpt lat="39.5369545463" lon="-8.4622766543">
        <ele>93.39</ele>
        <time>2018-12-21T16:48:40Z</time>
      </trkpt>
      <trkpt lat="39.5369591564" lon="-8.4623181447">
        <ele>94.35</ele>
        <time>2018-12-21T16:48:43Z</time>
      </trkpt>
      <trkpt lat="39.5369815361" lon="-8.4624011256">
        <ele>93.87</ele>
        <time>2018-12-21T16:48:49Z</time>
      </trkpt>
      <trkpt lat="39.5369939413" lon="-8.4624582063">
        <ele>94.83</ele>
        <time>2018-12-21T16:48:55Z</time>
      </trkpt>
      <trkpt lat="39.5369972941" lon="-8.4624853637">
        <ele>94.35</ele>
        <time>2018-12-21T16:48:56Z</time>
      </trkpt>
      <trkpt lat="39.5370304026" lon="-8.4626078233">
        <ele>94.35</ele>
        <time>2018-12-21T16:49:00Z</time>
      </trkpt>
      <trkpt lat="39.5370501000" lon="-8.4626763873">
        <ele>94.83</ele>
        <time>2018-12-21T16:49:07Z</time>
      </trkpt>
      <trkpt lat="39.5370764192" lon="-8.4628001042">
        <ele>94.83</ele>
        <time>2018-12-21T16:49:13Z</time>
      </trkpt>
      <trkpt lat="39.5371103659" lon="-8.4628797323">
        <ele>95.31</ele>
        <time>2018-12-21T16:49:18Z</time>
      </trkpt>
      <trkpt lat="39.5371136349" lon="-8.4629084822">
        <ele>95.79</ele>
        <time>2018-12-21T16:49:23Z</time>
      </trkpt>
      <trkpt lat="39.5371608250" lon="-8.4630354680">
        <ele>96.27</ele>
        <time>2018-12-21T16:49:29Z</time>
      </trkpt>
      <trkpt lat="39.5372236054" lon="-8.4631099831">
        <ele>96.27</ele>
        <time>2018-12-21T16:49:38Z</time>
      </trkpt>
      <trkpt lat="39.5372340828" lon="-8.4631160181">
        <ele>96.27</ele>
        <time>2018-12-21T16:49:39Z</time>
      </trkpt>
      <trkpt lat="39.5372562949" lon="-8.4631325305">
        <ele>97.71</ele>
        <time>2018-12-21T16:49:41Z</time>
      </trkpt>
      <trkpt lat="39.5372741483" lon="-8.4631451871">
        <ele>97.71</ele>
        <time>2018-12-21T16:49:46Z</time>
      </trkpt>
      <trkpt lat="39.5373601466" lon="-8.4631943889">
        <ele>98.19</ele>
        <time>2018-12-21T16:49:52Z</time>
      </trkpt>
      <trkpt lat="39.5373567939" lon="-8.4632016812">
        <ele>98.67</ele>
        <time>2018-12-21T16:49:56Z</time>
      </trkpt>
      <trkpt lat="39.5374700334" lon="-8.4632594325">
        <ele>100.11</ele>
        <time>2018-12-21T16:50:02Z</time>
      </trkpt>
      <trkpt lat="39.5375195704" lon="-8.4632439259">
        <ele>100.11</ele>
        <time>2018-12-21T16:50:08Z</time>
      </trkpt>
      <trkpt lat="39.5375841111" lon="-8.4632794652">
        <ele>100.60</ele>
        <time>2018-12-21T16:50:12Z</time>
      </trkpt>
      <trkpt lat="39.5376638230" lon="-8.4633098915">
        <ele>100.60</ele>
        <time>2018-12-21T16:50:20Z</time>
      </trkpt>
      <trkpt lat="39.5377768949" lon="-8.4633749351">
        <ele>101.08</ele>
        <time>2018-12-21T16:50:26Z</time>
      </trkpt>
      <trkpt lat="39.5378689282" lon="-8.4634188563">
        <ele>101.56</ele>
        <time>2018-12-21T16:50:31Z</time>
      </trkpt>
      <trkpt lat="39.5379738696" lon="-8.4634705726">
        <ele>102.52</ele>
        <time>2018-12-21T16:50:38Z</time>
      </trkpt>
      <trkpt lat="39.5380269270" lon="-8.4634931199">
        <ele>103.00</ele>
        <time>2018-12-21T16:50:46Z</time>
      </trkpt>
      <trkpt lat="39.5381405856" lon="-8.4635545593">
        <ele>103.00</ele>
        <time>2018-12-21T16:50:53Z</time>
      </trkpt>
      <trkpt lat="39.5382296015" lon="-8.4636096284">
        <ele>103.00</ele>
        <time>2018-12-21T16:50:59Z</time>
      </trkpt>
      <trkpt lat="39.5382389892" lon="-8.4636064433">
        <ele>103.00</ele>
        <time>2018-12-21T16:51:05Z</time>
      </trkpt>
      <trkpt lat="39.5383304358" lon="-8.4636355285">
        <ele>103.48</ele>
        <time>2018-12-21T16:51:10Z</time>
      </trkpt>
      <trkpt lat="39.5384356286" lon="-8.4636526275">
        <ele>103.00</ele>
        <time>2018-12-21T16:51:17Z</time>
      </trkpt>
      <trkpt lat="39.5384349581" lon="-8.4636574052">
        <ele>103.96</ele>
        <time>2018-12-21T16:51:23Z</time>
      </trkpt>
      <trkpt lat="39.5385110658" lon="-8.4637070261">
        <ele>103.48</ele>
        <time>2018-12-21T16:51:28Z</time>
      </trkpt>
      <trkpt lat="39.5386178512" lon="-8.4637783561">
        <ele>103.48</ele>
        <time>2018-12-21T16:51:34Z</time>
      </trkpt>
      <trkpt lat="39.5386315975" lon="-8.4637698904">
        <ele>103.48</ele>
        <time>2018-12-21T16:51:39Z</time>
      </trkpt>
      <trkpt lat="39.5386279933" lon="-8.4637706447">
        <ele>103.48</ele>
        <time>2018-12-21T16:51:41Z</time>
      </trkpt>
      <trkpt lat="39.5387666300" lon="-8.4638454951">
        <ele>103.96</ele>
        <time>2018-12-21T16:51:50Z</time>
      </trkpt>
      <trkpt lat="39.5388398040" lon="-8.4638582356">
        <ele>103.96</ele>
        <time>2018-12-21T16:51:56Z</time>
      </trkpt>
      <trkpt lat="39.5388265606" lon="-8.4638818726">
        <ele>104.44</ele>
        <time>2018-12-21T16:52:03Z</time>
      </trkpt>
      <trkpt lat="39.5389561448" lon="-8.4640326630">
        <ele>103.96</ele>
        <time>2018-12-21T16:52:10Z</time>
      </trkpt>
      <trkpt lat="39.5390302408" lon="-8.4640972037">
        <ele>103.96</ele>
        <time>2018-12-21T16:52:14Z</time>
      </trkpt>
      <trkpt lat="39.5390474238" lon="-8.4641499259">
        <ele>103.00</ele>
        <time>2018-12-21T16:52:21Z</time>
      </trkpt>
      <trkpt lat="39.5390471723" lon="-8.4641664382">
        <ele>103.48</ele>
        <time>2018-12-21T16:52:25Z</time>
      </trkpt>
      <trkpt lat="39.5390903391" lon="-8.4642533585">
        <ele>102.52</ele>
        <time>2018-12-21T16:52:30Z</time>
      </trkpt>
      <trkpt lat="39.5392063446" lon="-8.4644909017">
        <ele>101.56</ele>
        <time>2018-12-21T16:52:38Z</time>
      </trkpt>
      <trkpt lat="39.5392377768" lon="-8.4645281173">
        <ele>101.56</ele>
        <time>2018-12-21T16:52:43Z</time>
      </trkpt>
      <trkpt lat="39.5392492600" lon="-8.4645211603">
        <ele>101.08</ele>
        <time>2018-12-21T16:52:50Z</time>
      </trkpt>
      <trkpt lat="39.5392748248" lon="-8.4645333141">
        <ele>100.60</ele>
        <time>2018-12-21T16:52:54Z</time>
      </trkpt>
      <trkpt lat="39.5393209253" lon="-8.4646625631">
        <ele>100.60</ele>
        <time>2018-12-21T16:52:59Z</time>
      </trkpt>
      <trkpt lat="39.5393733121" lon="-8.4648407623">
        <ele>100.11</ele>
        <time>2018-12-21T16:53:05Z</time>
      </trkpt>
      <trkpt lat="39.5394169819" lon="-8.4649341367">
        <ele>99.63</ele>
        <time>2018-12-21T16:53:10Z</time>
      </trkpt>
      <trkpt lat="39.5394277945" lon="-8.4649233241">
        <ele>98.67</ele>
        <time>2018-12-21T16:53:16Z</time>
      </trkpt>
      <trkpt lat="39.5394433849" lon="-8.4648488928">
        <ele>98.19</ele>
        <time>2018-12-21T16:53:23Z</time>
      </trkpt>
      <trkpt lat="39.5394476596" lon="-8.4648483060">
        <ele>98.19</ele>
        <time>2018-12-21T16:53:24Z</time>
      </trkpt>
      <trkpt lat="39.5394971129" lon="-8.4650449455">
        <ele>97.71</ele>
        <time>2018-12-21T16:53:31Z</time>
      </trkpt>
      <trkpt lat="39.5396089274" lon="-8.4652438480">
        <ele>97.71</ele>
        <time>2018-12-21T16:53:37Z</time>
      </trkpt>
      <trkpt lat="39.5396495797" lon="-8.4653699957">
        <ele>96.75</ele>
        <time>2018-12-21T16:53:43Z</time>
      </trkpt>
      <trkpt lat="39.5396557823" lon="-8.4653378930">
        <ele>96.75</ele>
        <time>2018-12-21T16:53:48Z</time>
      </trkpt>
      <trkpt lat="39.5396641642" lon="-8.4653401561">
        <ele>95.31</ele>
        <time>2018-12-21T16:53:53Z</time>
      </trkpt>
      <trkpt lat="39.5397081692" lon="-8.4654414095">
        <ele>95.79</ele>
        <time>2018-12-21T16:53:58Z</time>
      </trkpt>
      <trkpt lat="39.5397834387" lon="-8.4656227939">
        <ele>94.35</ele>
        <time>2018-12-21T16:54:05Z</time>
      </trkpt>
      <trkpt lat="39.5398836024" lon="-8.4658042621">
        <ele>94.35</ele>
        <time>2018-12-21T16:54:12Z</time>
      </trkpt>
      <trkpt lat="39.5398999471" lon="-8.4658773523">
        <ele>93.87</ele>
        <time>2018-12-21T16:54:18Z</time>
      </trkpt>
      <trkpt lat="39.5399150345" lon="-8.4658470098">
        <ele>92.42</ele>
        <time>2018-12-21T16:54:25Z</time>
      </trkpt>
      <trkpt lat="39.5399727859" lon="-8.4659926873">
        <ele>92.42</ele>
        <time>2018-12-21T16:54:32Z</time>
      </trkpt>
      <trkpt lat="39.5399865322" lon="-8.4660606645">
        <ele>92.90</ele>
        <time>2018-12-21T16:54:34Z</time>
      </trkpt>
      <trkpt lat="39.5400555152" lon="-8.4661655221">
        <ele>91.94</ele>
        <time>2018-12-21T16:54:43Z</time>
      </trkpt>
      <trkpt lat="39.5400830917" lon="-8.4661704674">
        <ele>90.98</ele>
        <time>2018-12-21T16:54:49Z</time>
      </trkpt>
      <trkpt lat="39.5401349757" lon="-8.4663240239">
        <ele>90.02</ele>
        <time>2018-12-21T16:54:56Z</time>
      </trkpt>
      <trkpt lat="39.5402125083" lon="-8.4664535243">
        <ele>90.50</ele>
        <time>2018-12-21T16:55:04Z</time>
      </trkpt>
      <trkpt lat="39.5402182918" lon="-8.4664500039">
        <ele>88.58</ele>
        <time>2018-12-21T16:55:10Z</time>
      </trkpt>
      <trkpt lat="39.5402773842" lon="-8.4665728826">
        <ele>88.58</ele>
        <time>2018-12-21T16:55:16Z</time>
      </trkpt>
      <trkpt lat="39.5402871910" lon="-8.4665969387">
        <ele>89.06</ele>
        <time>2018-12-21T16:55:17Z</time>
      </trkpt>
      <trkpt lat="39.5403424278" lon="-8.4666661732">
        <ele>88.58</ele>
        <time>2018-12-21T16:55:21Z</time>
      </trkpt>
      <trkpt lat="39.5403600298" lon="-8.4667147044">
        <ele>88.58</ele>
        <time>2018-12-21T16:55:28Z</time>
      </trkpt>
      <trkpt lat="39.5403594431" lon="-8.4667155426">
        <ele>89.06</ele>
        <time>2018-12-21T16:55:29Z</time>
      </trkpt>
      <trkpt lat="39.5404325332" lon="-8.4668753855">
        <ele>89.06</ele>
        <time>2018-12-21T16:55:37Z</time>
      </trkpt>
      <trkpt lat="39.5404430944" lon="-8.4669005312">
        <ele>88.58</ele>
        <time>2018-12-21T16:55:38Z</time>
      </trkpt>
      <trkpt lat="39.5404848363" lon="-8.4669485595">
        <ele>88.10</ele>
        <time>2018-12-21T16:55:46Z</time>
      </trkpt>
      <trkpt lat="39.5404948108" lon="-8.4669775609">
        <ele>88.58</ele>
        <time>2018-12-21T16:55:50Z</time>
      </trkpt>
      <trkpt lat="39.5405327808" lon="-8.4671169519">
        <ele>87.62</ele>
        <time>2018-12-21T16:55:55Z</time>
      </trkpt>
      <trkpt lat="39.5405580942" lon="-8.4671472944">
        <ele>88.10</ele>
        <time>2018-12-21T16:56:01Z</time>
      </trkpt>
      <trkpt lat="39.5406113192" lon="-8.4672611207">
        <ele>88.58</ele>
        <time>2018-12-21T16:56:08Z</time>
      </trkpt>
      <trkpt lat="39.5406590123" lon="-8.4673157707">
        <ele>88.10</ele>
        <time>2018-12-21T16:56:15Z</time>
      </trkpt>
      <trkpt lat="39.5406600181" lon="-8.4673106577">
        <ele>87.62</ele>
        <time>2018-12-21T16:56:16Z</time>
      </trkpt>
      <trkpt lat="39.5407079626" lon="-8.4673654754">
        <ele>88.10</ele>
        <time>2018-12-21T16:56:22Z</time>
      </trkpt>
      <trkpt lat="39.5407970622" lon="-8.4675299283">
        <ele>87.62</ele>
        <time>2018-12-21T16:56:29Z</time>
      </trkpt>
      <trkpt lat="39.5407966431" lon="-8.4675272461">
        <ele>88.58</ele>
        <time>2018-12-21T16:56:33Z</time>
      </trkpt>
      <trkpt lat="39.5408269018" lon="-8.4676113166">
        <ele>88.10</ele>
        <time>2018-12-21T16:56:38Z</time>
      </trkpt>
      <trkpt lat="39.5408978127" lon="-8.4677746799">
        <ele>89.06</ele>
        <time>2018-12-21T16:56:44Z</time>
      </trkpt>
      <trkpt lat="39.5409139898" lon="-8.4677968081">
        <ele>88.10</ele>
        <time>2018-12-21T16:56:50Z</time>
      </trkpt>
      <trkpt lat="39.5409157500" lon="-8.4678056091">
        <ele>88.58</ele>
        <time>2018-12-21T16:56:53Z</time>
      </trkpt>
      <trkpt lat="39.5409850683" lon="-8.4679364506">
        <ele>89.54</ele>
        <time>2018-12-21T16:56:59Z</time>
      </trkpt>
      <trkpt lat="39.5410180092" lon="-8.4680229519">
        <ele>88.10</ele>
        <time>2018-12-21T16:57:05Z</time>
      </trkpt>
      <trkpt lat="39.5410131477" lon="-8.4680254664">
        <ele>87.62</ele>
        <time>2018-12-21T16:57:09Z</time>
      </trkpt>
      <trkpt lat="39.5410995651" lon="-8.4682039171">
        <ele>88.10</ele>
        <time>2018-12-21T16:57:17Z</time>
      </trkpt>
      <trkpt lat="39.5411185920" lon="-8.4682390373">
        <ele>88.10</ele>
        <time>2018-12-21T16:57:19Z</time>
      </trkpt>
      <trkpt lat="39.5411382895" lon="-8.4682737384">
        <ele>87.62</ele>
        <time>2018-12-21T16:57:25Z</time>
      </trkpt>
      <trkpt lat="39.5411396306" lon="-8.4682713915">
        <ele>88.10</ele>
        <time>2018-12-21T16:57:26Z</time>
      </trkpt>
      <trkpt lat="39.5412128884" lon="-8.4684180748">
        <ele>87.14</ele>
        <time>2018-12-21T16:57:34Z</time>
      </trkpt>
      <trkpt lat="39.5412505232" lon="-8.4684795979">
        <ele>87.14</ele>
        <time>2018-12-21T16:57:40Z</time>
      </trkpt>
      <trkpt lat="39.5412619226" lon="-8.4685076773">
        <ele>86.66</ele>
        <time>2018-12-21T16:57:46Z</time>
      </trkpt>
      <trkpt lat="39.5413425565" lon="-8.4687023889">
        <ele>87.14</ele>
        <time>2018-12-21T16:57:53Z</time>
      </trkpt>
      <trkpt lat="39.5413510222" lon="-8.4687319770">
        <ele>87.14</ele>
        <time>2018-12-21T16:57:54Z</time>
      </trkpt>
      <trkpt lat="39.5413940214" lon="-8.4688399360">
        <ele>86.66</ele>
        <time>2018-12-21T16:58:01Z</time>
      </trkpt>
      <trkpt lat="39.5413983800" lon="-8.4688346554">
        <ele>86.66</ele>
        <time>2018-12-21T16:58:09Z</time>
      </trkpt>
      <trkpt lat="39.5414455701" lon="-8.4689873736">
        <ele>86.66</ele>
        <time>2018-12-21T16:58:15Z</time>
      </trkpt>
      <trkpt lat="39.5414805226" lon="-8.4691461269">
        <ele>86.66</ele>
        <time>2018-12-21T16:58:22Z</time>
      </trkpt>
      <trkpt lat="39.5414760802" lon="-8.4691622201">
        <ele>86.66</ele>
        <time>2018-12-21T16:58:29Z</time>
      </trkpt>
      <trkpt lat="39.5414850488" lon="-8.4693577699">
        <ele>86.66</ele>
        <time>2018-12-21T16:58:36Z</time>
      </trkpt>
      <trkpt lat="39.5414904132" lon="-8.4694448579">
        <ele>86.66</ele>
        <time>2018-12-21T16:58:40Z</time>
      </trkpt>
      <trkpt lat="39.5415086020" lon="-8.4694769606">
        <ele>87.14</ele>
        <time>2018-12-21T16:58:47Z</time>
      </trkpt>
      <trkpt lat="39.5415080152" lon="-8.4694815706">
        <ele>86.66</ele>
        <time>2018-12-21T16:58:48Z</time>
      </trkpt>
      <trkpt lat="39.5415220130" lon="-8.4696380608">
        <ele>86.66</ele>
        <time>2018-12-21T16:58:54Z</time>
      </trkpt>
      <trkpt lat="39.5415394474" lon="-8.4697507136">
        <ele>87.62</ele>
        <time>2018-12-21T16:58:59Z</time>
      </trkpt>
      <trkpt lat="39.5415440574" lon="-8.4697708301">
        <ele>87.62</ele>
        <time>2018-12-21T16:59:05Z</time>
      </trkpt>
      <trkpt lat="39.5415448956" lon="-8.4698748495">
        <ele>87.62</ele>
        <time>2018-12-21T16:59:10Z</time>
      </trkpt>
      <trkpt lat="39.5415432192" lon="-8.4699033480">
        <ele>88.58</ele>
        <time>2018-12-21T16:59:11Z</time>
      </trkpt>
      <trkpt lat="39.5415695384" lon="-8.4699797072">
        <ele>88.10</ele>
        <time>2018-12-21T16:59:18Z</time>
      </trkpt>
      <trkpt lat="39.5415733103" lon="-8.4699671343">
        <ele>88.10</ele>
        <time>2018-12-21T16:59:23Z</time>
      </trkpt>
      <trkpt lat="39.5415741485" lon="-8.4699786175">
        <ele>89.06</ele>
        <time>2018-12-21T16:59:33Z</time>
      </trkpt>
      <trkpt lat="39.5415779203" lon="-8.4699811321">
        <ele>88.10</ele>
        <time>2018-12-21T16:59:35Z</time>
      </trkpt>
      <trkpt lat="39.5414848812" lon="-8.4701528773">
        <ele>63.10</ele>
        <time>2018-12-22T07:43:04Z</time>
      </trkpt>
      <trkpt lat="39.5414845459" lon="-8.4701539669">
        <ele>60.70</ele>
        <time>2018-12-22T07:43:05Z</time>
      </trkpt>
      <trkpt lat="39.5414832886" lon="-8.4701542184">
        <ele>65.03</ele>
        <time>2018-12-22T07:43:06Z</time>
      </trkpt>
      <trkpt lat="39.5414821990" lon="-8.4701548051">
        <ele>68.39</ele>
        <time>2018-12-22T07:43:11Z</time>
      </trkpt>
      <trkpt lat="39.5414847974" lon="-8.4701544698">
        <ele>68.39</ele>
        <time>2018-12-22T07:43:12Z</time>
      </trkpt>
      <trkpt lat="39.5414854679" lon="-8.4701527096">
        <ele>70.31</ele>
        <time>2018-12-22T07:43:15Z</time>
      </trkpt>
      <trkpt lat="39.5414846297" lon="-8.4701496083">
        <ele>72.72</ele>
        <time>2018-12-22T07:43:19Z</time>
      </trkpt>
      <trkpt lat="39.5414853841" lon="-8.4701455012">
        <ele>74.64</ele>
        <time>2018-12-22T07:43:25Z</time>
      </trkpt>
      <trkpt lat="39.5414879825" lon="-8.4701409750">
        <ele>76.56</ele>
        <time>2018-12-22T07:43:28Z</time>
      </trkpt>
      <trkpt lat="39.5415003877" lon="-8.4701411426">
        <ele>79.93</ele>
        <time>2018-12-22T07:43:41Z</time>
      </trkpt>
      <trkpt lat="39.5414896589" lon="-8.4701367840">
        <ele>79.93</ele>
        <time>2018-12-22T07:43:50Z</time>
      </trkpt>
      <trkpt lat="39.5414823666" lon="-8.4701439086">
        <ele>83.77</ele>
        <time>2018-12-22T07:43:57Z</time>
      </trkpt>
      <trkpt lat="39.5414882340" lon="-8.4701450821">
        <ele>77.52</ele>
        <time>2018-12-22T07:43:58Z</time>
      </trkpt>
      <trkpt lat="39.5414933469" lon="-8.4701479319">
        <ele>83.77</ele>
        <time>2018-12-22T07:43:59Z</time>
      </trkpt>
      <trkpt lat="39.5415296406" lon="-8.4702291526">
        <ele>83.77</ele>
        <time>2018-12-22T07:44:08Z</time>
      </trkpt>
      <trkpt lat="39.5415334962" lon="-8.4702402167">
        <ele>83.77</ele>
        <time>2018-12-22T07:44:09Z</time>
      </trkpt>
      <trkpt lat="39.5415651798" lon="-8.4703786857">
        <ele>85.69</ele>
        <time>2018-12-22T07:44:19Z</time>
      </trkpt>
      <trkpt lat="39.5415878948" lon="-8.4704587329">
        <ele>86.66</ele>
        <time>2018-12-22T07:44:27Z</time>
      </trkpt>
      <trkpt lat="39.5416028984" lon="-8.4705804382">
        <ele>87.14</ele>
        <time>2018-12-22T07:44:37Z</time>
      </trkpt>
      <trkpt lat="39.5416074246" lon="-8.4706058353">
        <ele>90.50</ele>
        <time>2018-12-22T07:44:39Z</time>
      </trkpt>
      <trkpt lat="39.5416187402" lon="-8.4706667718">
        <ele>88.10</ele>
        <time>2018-12-22T07:44:45Z</time>
      </trkpt>
      <trkpt lat="39.5416728035" lon="-8.4707886446">
        <ele>88.10</ele>
        <time>2018-12-22T07:44:56Z</time>
      </trkpt>
      <trkpt lat="39.5417222567" lon="-8.4709239285">
        <ele>89.06</ele>
        <time>2018-12-22T07:45:08Z</time>
      </trkpt>
      <trkpt lat="39.5417665970" lon="-8.4709957615">
        <ele>84.73</ele>
        <time>2018-12-22T07:45:16Z</time>
      </trkpt>
      <trkpt lat="39.5417753141" lon="-8.4710019641">
        <ele>92.42</ele>
        <time>2018-12-22T07:45:17Z</time>
      </trkpt>
      <trkpt lat="39.5418034773" lon="-8.4710367490">
        <ele>89.06</ele>
        <time>2018-12-22T07:45:21Z</time>
      </trkpt>
      <trkpt lat="39.5418661740" lon="-8.4711141977">
        <ele>89.54</ele>
        <time>2018-12-22T07:45:30Z</time>
      </trkpt>
      <trkpt lat="39.5418868773" lon="-8.4711576160">
        <ele>88.58</ele>
        <time>2018-12-22T07:45:34Z</time>
      </trkpt>
      <trkpt lat="39.5419331454" lon="-8.4713198896">
        <ele>89.06</ele>
        <time>2018-12-22T07:45:45Z</time>
      </trkpt>
      <trkpt lat="39.5419568662" lon="-8.4714189637">
        <ele>88.58</ele>
        <time>2018-12-22T07:45:53Z</time>
      </trkpt>
      <trkpt lat="39.5419711992" lon="-8.4714949038">
        <ele>88.10</ele>
        <time>2018-12-22T07:46:00Z</time>
      </trkpt>
      <trkpt lat="39.5419842750" lon="-8.4716099035">
        <ele>87.62</ele>
        <time>2018-12-22T07:46:10Z</time>
      </trkpt>
      <trkpt lat="39.5420249272" lon="-8.4717229754">
        <ele>87.14</ele>
        <time>2018-12-22T07:46:20Z</time>
      </trkpt>
      <trkpt lat="39.5420764759" lon="-8.4718568344">
        <ele>86.66</ele>
        <time>2018-12-22T07:46:31Z</time>
      </trkpt>
      <trkpt lat="39.5420843549" lon="-8.4718663897">
        <ele>87.62</ele>
        <time>2018-12-22T07:46:39Z</time>
      </trkpt>
      <trkpt lat="39.5420849416" lon="-8.4718606900">
        <ele>86.66</ele>
        <time>2018-12-22T07:46:52Z</time>
      </trkpt>
      <trkpt lat="39.5421005320" lon="-8.4718788788">
        <ele>87.14</ele>
        <time>2018-12-22T07:47:01Z</time>
      </trkpt>
      <trkpt lat="39.5421022922" lon="-8.4718730953">
        <ele>86.66</ele>
        <time>2018-12-22T07:47:11Z</time>
      </trkpt>
      <trkpt lat="39.5421115123" lon="-8.4718847461">
        <ele>86.18</ele>
        <time>2018-12-22T07:47:20Z</time>
      </trkpt>
      <trkpt lat="39.5421704371" lon="-8.4719695710">
        <ele>86.18</ele>
        <time>2018-12-22T07:47:28Z</time>
      </trkpt>
      <trkpt lat="39.5421892125" lon="-8.4720311780">
        <ele>86.18</ele>
        <time>2018-12-22T07:47:35Z</time>
      </trkpt>
      <trkpt lat="39.5422629733" lon="-8.4721168410">
        <ele>86.18</ele>
        <time>2018-12-22T07:47:45Z</time>
      </trkpt>
      <trkpt lat="39.5423266757" lon="-8.4721884225">
        <ele>85.69</ele>
        <time>2018-12-22T07:47:54Z</time>
      </trkpt>
      <trkpt lat="39.5423439424" lon="-8.4722114727">
        <ele>84.73</ele>
        <time>2018-12-22T07:48:01Z</time>
      </trkpt>
      <trkpt lat="39.5423995983" lon="-8.4722583275">
        <ele>85.21</ele>
        <time>2018-12-22T07:48:10Z</time>
      </trkpt>
      <trkpt lat="39.5424727723" lon="-8.4722962976">
        <ele>85.21</ele>
        <time>2018-12-22T07:48:19Z</time>
      </trkpt>
      <trkpt lat="39.5425822400" lon="-8.4722965490">
        <ele>84.25</ele>
        <time>2018-12-22T07:48:30Z</time>
      </trkpt>
      <trkpt lat="39.5426822361" lon="-8.4723099601">
        <ele>83.29</ele>
        <time>2018-12-22T07:48:40Z</time>
      </trkpt>
      <trkpt lat="39.5427967329" lon="-8.4723289870">
        <ele>83.29</ele>
        <time>2018-12-22T07:48:51Z</time>
      </trkpt>
      <trkpt lat="39.5428795461" lon="-8.4723206051">
        <ele>83.29</ele>
        <time>2018-12-22T07:48:59Z</time>
      </trkpt>
      <trkpt lat="39.5430175960" lon="-8.4722918551">
        <ele>81.85</ele>
        <time>2018-12-22T07:49:11Z</time>
      </trkpt>
      <trkpt lat="39.5430648699" lon="-8.4723664541">
        <ele>81.85</ele>
        <time>2018-12-22T07:49:18Z</time>
      </trkpt>
      <trkpt lat="39.5430652052" lon="-8.4723767638">
        <ele>81.85</ele>
        <time>2018-12-22T07:49:19Z</time>
      </trkpt>
      <trkpt lat="39.5429517142" lon="-8.4724408854">
        <ele>81.37</ele>
        <time>2018-12-22T07:49:31Z</time>
      </trkpt>
      <trkpt lat="39.5428347029" lon="-8.4724932723">
        <ele>80.41</ele>
        <time>2018-12-22T07:49:42Z</time>
      </trkpt>
      <trkpt lat="39.5427232236" lon="-8.4725547116">
        <ele>79.93</ele>
        <time>2018-12-22T07:49:54Z</time>
      </trkpt>
      <trkpt lat="39.5426837448" lon="-8.4726336692">
        <ele>79.45</ele>
        <time>2018-12-22T07:50:03Z</time>
      </trkpt>
      <trkpt lat="39.5427077170" lon="-8.4727555420">
        <ele>79.45</ele>
        <time>2018-12-22T07:50:12Z</time>
      </trkpt>
      <trkpt lat="39.5428036060" lon="-8.4728117008">
        <ele>79.93</ele>
        <time>2018-12-22T07:50:21Z</time>
      </trkpt>
      <trkpt lat="39.5428460184" lon="-8.4727874771">
        <ele>80.41</ele>
        <time>2018-12-22T07:50:25Z</time>
      </trkpt>
      <trkpt lat="39.5429066196" lon="-8.4727313183">
        <ele>81.37</ele>
        <time>2018-12-22T07:50:34Z</time>
      </trkpt>
      <trkpt lat="39.5429714955" lon="-8.4726666939">
        <ele>82.33</ele>
        <time>2018-12-22T07:50:42Z</time>
      </trkpt>
      <trkpt lat="39.5430305880" lon="-8.4726289753">
        <ele>82.33</ele>
        <time>2018-12-22T07:50:49Z</time>
      </trkpt>
      <trkpt lat="39.5431189332" lon="-8.4725783486">
        <ele>82.81</ele>
        <time>2018-12-22T07:50:58Z</time>
      </trkpt>
      <trkpt lat="39.5432025008" lon="-8.4725551307">
        <ele>82.81</ele>
        <time>2018-12-22T07:51:07Z</time>
      </trkpt>
      <trkpt lat="39.5432821289" lon="-8.4725103714">
        <ele>83.29</ele>
        <time>2018-12-22T07:51:15Z</time>
      </trkpt>
      <trkpt lat="39.5433997270" lon="-8.4725091979">
        <ele>84.25</ele>
        <time>2018-12-22T07:51:26Z</time>
      </trkpt>
      <trkpt lat="39.5434882399" lon="-8.4725536220">
        <ele>83.77</ele>
        <time>2018-12-22T07:51:36Z</time>
      </trkpt>
      <trkpt lat="39.5435741544" lon="-8.4726057574">
        <ele>84.25</ele>
        <time>2018-12-22T07:51:45Z</time>
      </trkpt>
      <trkpt lat="39.5436326601" lon="-8.4726328310">
        <ele>84.25</ele>
        <time>2018-12-22T07:51:53Z</time>
      </trkpt>
      <trkpt lat="39.5437486656" lon="-8.4726779256">
        <ele>84.25</ele>
        <time>2018-12-22T07:52:04Z</time>
      </trkpt>
      <trkpt lat="39.5438483264" lon="-8.4727239423">
        <ele>84.73</ele>
        <time>2018-12-22T07:52:15Z</time>
      </trkpt>
      <trkpt lat="39.5439425390" lon="-8.4727608226">
        <ele>84.25</ele>
        <time>2018-12-22T07:52:24Z</time>
      </trkpt>
      <trkpt lat="39.5440850314" lon="-8.4728089347">
        <ele>84.73</ele>
        <time>2018-12-22T07:52:36Z</time>
      </trkpt>
      <trkpt lat="39.5441705268" lon="-8.4728539456">
        <ele>84.25</ele>
        <time>2018-12-22T07:52:46Z</time>
      </trkpt>
      <trkpt lat="39.5442777313" lon="-8.4728817735">
        <ele>83.77</ele>
        <time>2018-12-22T07:52:56Z</time>
      </trkpt>
      <trkpt lat="39.5443554316" lon="-8.4729046561">
        <ele>84.73</ele>
        <time>2018-12-22T07:53:04Z</time>
      </trkpt>
      <trkpt lat="39.5444656536" lon="-8.4729476552">
        <ele>85.21</ele>
        <time>2018-12-22T07:53:15Z</time>
      </trkpt>
      <trkpt lat="39.5445522387" lon="-8.4729913250">
        <ele>84.73</ele>
        <time>2018-12-22T07:53:24Z</time>
      </trkpt>
      <trkpt lat="39.5446316991" lon="-8.4730308037">
        <ele>85.21</ele>
        <time>2018-12-22T07:53:33Z</time>
      </trkpt>
      <trkpt lat="39.5447494648" lon="-8.4730779100">
        <ele>84.73</ele>
        <time>2018-12-22T07:53:43Z</time>
      </trkpt>
      <trkpt lat="39.5447932184" lon="-8.4731037263">
        <ele>85.21</ele>
        <time>2018-12-22T07:53:47Z</time>
      </trkpt>
      <trkpt lat="39.5449178573" lon="-8.4731554426">
        <ele>84.73</ele>
        <time>2018-12-22T07:53:57Z</time>
      </trkpt>
      <trkpt lat="39.5450328570" lon="-8.4731871262">
        <ele>85.21</ele>
        <time>2018-12-22T07:54:07Z</time>
      </trkpt>
      <trkpt lat="39.5451032650" lon="-8.4732282814">
        <ele>85.69</ele>
        <time>2018-12-22T07:54:15Z</time>
      </trkpt>
      <trkpt lat="39.5451368764" lon="-8.4732535947">
        <ele>85.21</ele>
        <time>2018-12-22T07:54:19Z</time>
      </trkpt>
      <trkpt lat="39.5452193543" lon="-8.4733529203">
        <ele>84.73</ele>
        <time>2018-12-22T07:54:29Z</time>
      </trkpt>
      <trkpt lat="39.5452755969" lon="-8.4734835941">
        <ele>84.25</ele>
        <time>2018-12-22T07:54:38Z</time>
      </trkpt>
      <trkpt lat="39.5453553926" lon="-8.4736802336">
        <ele>84.25</ele>
        <time>2018-12-22T07:54:49Z</time>
      </trkpt>
      <trkpt lat="39.5453934465" lon="-8.4738333710">
        <ele>84.73</ele>
        <time>2018-12-22T07:55:00Z</time>
      </trkpt>
      <trkpt lat="39.5454091206" lon="-8.4739716724">
        <ele>84.25</ele>
        <time>2018-12-22T07:55:10Z</time>
      </trkpt>
      <trkpt lat="39.5454345178" lon="-8.4741310962">
        <ele>84.25</ele>
        <time>2018-12-22T07:55:21Z</time>
      </trkpt>
      <trkpt lat="39.5454454981" lon="-8.4741906077">
        <ele>83.77</ele>
        <time>2018-12-22T07:55:29Z</time>
      </trkpt>
      <trkpt lat="39.5454960410" lon="-8.4743257239">
        <ele>83.77</ele>
        <time>2018-12-22T07:55:39Z</time>
      </trkpt>
      <trkpt lat="39.5455380343" lon="-8.4743940365">
        <ele>83.29</ele>
        <time>2018-12-22T07:55:46Z</time>
      </trkpt>
      <trkpt lat="39.5455927681" lon="-8.4744673781">
        <ele>83.77</ele>
        <time>2018-12-22T07:55:54Z</time>
      </trkpt>
      <trkpt lat="39.5456514414" lon="-8.4745368641">
        <ele>83.77</ele>
        <time>2018-12-22T07:56:03Z</time>
      </trkpt>
      <trkpt lat="39.5457462408" lon="-8.4746199287">
        <ele>83.77</ele>
        <time>2018-12-22T07:56:14Z</time>
      </trkpt>
      <trkpt lat="39.5458067581" lon="-8.4746827930">
        <ele>84.73</ele>
        <time>2018-12-22T07:56:22Z</time>
      </trkpt>
      <trkpt lat="39.5459045749" lon="-8.4747495968">
        <ele>84.73</ele>
        <time>2018-12-22T07:56:31Z</time>
      </trkpt>
      <trkpt lat="39.5459899027" lon="-8.4748365171">
        <ele>84.25</ele>
        <time>2018-12-22T07:56:40Z</time>
      </trkpt>
      <trkpt lat="39.5460734703" lon="-8.4749134630">
        <ele>85.69</ele>
        <time>2018-12-22T07:56:50Z</time>
      </trkpt>
      <trkpt lat="39.5461717900" lon="-8.4750087652">
        <ele>86.18</ele>
        <time>2018-12-22T07:57:01Z</time>
      </trkpt>
      <trkpt lat="39.5462745521" lon="-8.4750795923">
        <ele>87.14</ele>
        <time>2018-12-22T07:57:11Z</time>
      </trkpt>
      <trkpt lat="39.5463424455" lon="-8.4751338232">
        <ele>87.62</ele>
        <time>2018-12-22T07:57:19Z</time>
      </trkpt>
      <trkpt lat="39.5464445371" lon="-8.4752286226">
        <ele>88.58</ele>
        <time>2018-12-22T07:57:30Z</time>
      </trkpt>
      <trkpt lat="39.5464523323" lon="-8.4752401896">
        <ele>89.06</ele>
        <time>2018-12-22T07:57:31Z</time>
      </trkpt>
      <trkpt lat="39.5465621352" lon="-8.4753738809">
        <ele>89.54</ele>
        <time>2018-12-22T07:57:44Z</time>
      </trkpt>
      <trkpt lat="39.5465731993" lon="-8.4754099231">
        <ele>89.06</ele>
        <time>2018-12-22T07:57:47Z</time>
      </trkpt>
      <trkpt lat="39.5466279332" lon="-8.4755784832">
        <ele>89.06</ele>
        <time>2018-12-22T07:58:00Z</time>
      </trkpt>
      <trkpt lat="39.5466744527" lon="-8.4757080674">
        <ele>90.02</ele>
        <time>2018-12-22T07:58:10Z</time>
      </trkpt>
      <trkpt lat="39.5467221458" lon="-8.4758305270">
        <ele>89.54</ele>
        <time>2018-12-22T07:58:20Z</time>
      </trkpt>
      <trkpt lat="39.5467417594" lon="-8.4758651443">
        <ele>90.98</ele>
        <time>2018-12-22T07:58:23Z</time>
      </trkpt>
      <trkpt lat="39.5467869379" lon="-8.4759591892">
        <ele>90.50</ele>
        <time>2018-12-22T07:58:31Z</time>
      </trkpt>
      <trkpt lat="39.5468508080" lon="-8.4760934673">
        <ele>91.46</ele>
        <time>2018-12-22T07:58:42Z</time>
      </trkpt>
      <trkpt lat="39.5469030272" lon="-8.4762052819">
        <ele>91.94</ele>
        <time>2018-12-22T07:58:52Z</time>
      </trkpt>
      <trkpt lat="39.5469389856" lon="-8.4763226286">
        <ele>91.46</ele>
        <time>2018-12-22T07:59:01Z</time>
      </trkpt>
      <trkpt lat="39.5469822362" lon="-8.4764496144">
        <ele>91.46</ele>
        <time>2018-12-22T07:59:11Z</time>
      </trkpt>
      <trkpt lat="39.5470425859" lon="-8.4765737504">
        <ele>92.42</ele>
        <time>2018-12-22T07:59:22Z</time>
      </trkpt>
      <trkpt lat="39.5471368823" lon="-8.4766926058">
        <ele>92.42</ele>
        <time>2018-12-22T07:59:33Z</time>
      </trkpt>
      <trkpt lat="39.5471740980" lon="-8.4768263809">
        <ele>92.42</ele>
        <time>2018-12-22T07:59:43Z</time>
      </trkpt>
      <trkpt lat="39.5472216234" lon="-8.4769533668">
        <ele>93.39</ele>
        <time>2018-12-22T07:59:53Z</time>
      </trkpt>
      <trkpt lat="39.5472636167" lon="-8.4770693723">
        <ele>94.35</ele>
        <time>2018-12-22T08:00:03Z</time>
      </trkpt>
      <trkpt lat="39.5473093819" lon="-8.4771857969">
        <ele>94.35</ele>
        <time>2018-12-22T08:00:13Z</time>
      </trkpt>
      <trkpt lat="39.5473484416" lon="-8.4773101006">
        <ele>94.83</ele>
        <time>2018-12-22T08:00:23Z</time>
      </trkpt>
      <trkpt lat="39.5474053547" lon="-8.4774534311">
        <ele>94.83</ele>
        <time>2018-12-22T08:00:34Z</time>
      </trkpt>
      <trkpt lat="39.5474553108" lon="-8.4775858652">
        <ele>95.31</ele>
        <time>2018-12-22T08:00:43Z</time>
      </trkpt>
      <trkpt lat="39.5475060213" lon="-8.4776705224">
        <ele>95.79</ele>
        <time>2018-12-22T08:00:51Z</time>
      </trkpt>
      <trkpt lat="39.5475555584" lon="-8.4778059740">
        <ele>95.31</ele>
        <time>2018-12-22T08:01:02Z</time>
      </trkpt>
      <trkpt lat="39.5475941151" lon="-8.4779073950">
        <ele>95.31</ele>
        <time>2018-12-22T08:01:12Z</time>
      </trkpt>
      <trkpt lat="39.5476425625" lon="-8.4780130908">
        <ele>95.79</ele>
        <time>2018-12-22T08:01:22Z</time>
      </trkpt>
      <trkpt lat="39.5476851426" lon="-8.4781071357">
        <ele>94.83</ele>
        <time>2018-12-22T08:01:30Z</time>
      </trkpt>
      <trkpt lat="39.5477206819" lon="-8.4781670664">
        <ele>95.79</ele>
        <time>2018-12-22T08:01:35Z</time>
      </trkpt>
      <trkpt lat="39.5477532875" lon="-8.4782594349">
        <ele>96.27</ele>
        <time>2018-12-22T08:01:42Z</time>
      </trkpt>
      <trkpt lat="39.5478127990" lon="-8.4783958923">
        <ele>95.31</ele>
        <time>2018-12-22T08:01:53Z</time>
      </trkpt>
      <trkpt lat="39.5478405431" lon="-8.4784693178">
        <ele>95.79</ele>
        <time>2018-12-22T08:02:00Z</time>
      </trkpt>
      <trkpt lat="39.5478578936" lon="-8.4785288293">
        <ele>95.79</ele>
        <time>2018-12-22T08:02:05Z</time>
      </trkpt>
      <trkpt lat="39.5479039103" lon="-8.4786083736">
        <ele>95.79</ele>
        <time>2018-12-22T08:02:12Z</time>
      </trkpt>
      <trkpt lat="39.5479559619" lon="-8.4787605889">
        <ele>96.75</ele>
        <time>2018-12-22T08:02:23Z</time>
      </trkpt>
      <trkpt lat="39.5480001345" lon="-8.4788926039">
        <ele>96.75</ele>
        <time>2018-12-22T08:02:34Z</time>
      </trkpt>
      <trkpt lat="39.5480334945" lon="-8.4790186677">
        <ele>97.71</ele>
        <time>2018-12-22T08:02:43Z</time>
      </trkpt>
      <trkpt lat="39.5480693690" lon="-8.4791640099">
        <ele>97.71</ele>
        <time>2018-12-22T08:02:53Z</time>
      </trkpt>
      <trkpt lat="39.5481026452" lon="-8.4792970307">
        <ele>97.71</ele>
        <time>2018-12-22T08:03:01Z</time>
      </trkpt>
      <trkpt lat="39.5481536910" lon="-8.4794537723">
        <ele>98.19</ele>
        <time>2018-12-22T08:03:13Z</time>
      </trkpt>
      <trkpt lat="39.5481878892" lon="-8.4795885533">
        <ele>98.67</ele>
        <time>2018-12-22T08:03:23Z</time>
      </trkpt>
      <trkpt lat="39.5482313074" lon="-8.4797098394">
        <ele>98.19</ele>
        <time>2018-12-22T08:03:33Z</time>
      </trkpt>
      <trkpt lat="39.5482966024" lon="-8.4798175469">
        <ele>99.15</ele>
        <time>2018-12-22T08:03:43Z</time>
      </trkpt>
      <trkpt lat="39.5483794995" lon="-8.4799363185">
        <ele>99.63</ele>
        <time>2018-12-22T08:03:55Z</time>
      </trkpt>
      <trkpt lat="39.5484642405" lon="-8.4800126776">
        <ele>100.11</ele>
        <time>2018-12-22T08:04:05Z</time>
      </trkpt>
      <trkpt lat="39.5484981034" lon="-8.4800441936">
        <ele>100.11</ele>
        <time>2018-12-22T08:04:09Z</time>
      </trkpt>
      <trkpt lat="39.5485971775" lon="-8.4801302757">
        <ele>100.60</ele>
        <time>2018-12-22T08:04:19Z</time>
      </trkpt>
      <trkpt lat="39.5487124287" lon="-8.4802362230">
        <ele>101.08</ele>
        <time>2018-12-22T08:04:30Z</time>
      </trkpt>
      <trkpt lat="39.5487964153" lon="-8.4803332016">
        <ele>101.56</ele>
        <time>2018-12-22T08:04:40Z</time>
      </trkpt>
      <trkpt lat="39.5488803182" lon="-8.4804558288">
        <ele>101.56</ele>
        <time>2018-12-22T08:04:51Z</time>
      </trkpt>
      <trkpt lat="39.5489251614" lon="-8.4805578366">
        <ele>103.48</ele>
        <time>2018-12-22T08:04:59Z</time>
      </trkpt>
      <trkpt lat="39.5489446912" lon="-8.4805986565">
        <ele>103.48</ele>
        <time>2018-12-22T08:05:02Z</time>
      </trkpt>
      <trkpt lat="39.5489990897" lon="-8.4807226248">
        <ele>103.96</ele>
        <time>2018-12-22T08:05:12Z</time>
      </trkpt>
      <trkpt lat="39.5490180328" lon="-8.4807809629">
        <ele>104.92</ele>
        <time>2018-12-22T08:05:16Z</time>
      </trkpt>
      <trkpt lat="39.5490394067" lon="-8.4808112215">
        <ele>103.96</ele>
        <time>2018-12-22T08:05:19Z</time>
      </trkpt>
      <trkpt lat="39.5490880217" lon="-8.4809520375">
        <ele>105.40</ele>
        <time>2018-12-22T08:05:29Z</time>
      </trkpt>
      <trkpt lat="39.5490932185" lon="-8.4809781052">
        <ele>105.88</ele>
        <time>2018-12-22T08:05:31Z</time>
      </trkpt>
      <trkpt lat="39.5491149276" lon="-8.4810851421">
        <ele>106.36</ele>
        <time>2018-12-22T08:05:39Z</time>
      </trkpt>
      <trkpt lat="39.5491382293" lon="-8.4811535385">
        <ele>106.84</ele>
        <time>2018-12-22T08:05:46Z</time>
      </trkpt>
      <trkpt lat="39.5491591841" lon="-8.4812527802">
        <ele>108.29</ele>
        <time>2018-12-22T08:05:55Z</time>
      </trkpt>
      <trkpt lat="39.5491964836" lon="-8.4813650139">
        <ele>109.25</ele>
        <time>2018-12-22T08:06:04Z</time>
      </trkpt>
      <trkpt lat="39.5492353756" lon="-8.4814288840">
        <ele>109.73</ele>
        <time>2018-12-22T08:06:09Z</time>
      </trkpt>
      <trkpt lat="39.5492872596" lon="-8.4815180674">
        <ele>110.69</ele>
        <time>2018-12-22T08:06:16Z</time>
      </trkpt>
      <trkpt lat="39.5493154228" lon="-8.4815459792">
        <ele>110.69</ele>
        <time>2018-12-22T08:06:19Z</time>
      </trkpt>
      <trkpt lat="39.5493590925" lon="-8.4816524293">
        <ele>111.65</ele>
        <time>2018-12-22T08:06:27Z</time>
      </trkpt>
      <trkpt lat="39.5493781194" lon="-8.4816918243">
        <ele>112.13</ele>
        <time>2018-12-22T08:06:36Z</time>
      </trkpt>
      <trkpt lat="39.5493813045" lon="-8.4816999547">
        <ele>111.65</ele>
        <time>2018-12-22T08:06:37Z</time>
      </trkpt>
      <trkpt lat="39.5494382177" lon="-8.4818112664">
        <ele>112.61</ele>
        <time>2018-12-22T08:06:47Z</time>
      </trkpt>
      <trkpt lat="39.5494527183" lon="-8.4818637371">
        <ele>113.09</ele>
        <time>2018-12-22T08:06:51Z</time>
      </trkpt>
      <trkpt lat="39.5494827256" lon="-8.4819240030">
        <ele>114.05</ele>
        <time>2018-12-22T08:06:56Z</time>
      </trkpt>
      <trkpt lat="39.5495045185" lon="-8.4819593746">
        <ele>114.05</ele>
        <time>2018-12-22T08:06:59Z</time>
      </trkpt>
      <trkpt lat="39.5495507028" lon="-8.4820437804">
        <ele>114.05</ele>
        <time>2018-12-22T08:07:06Z</time>
      </trkpt>
      <trkpt lat="39.5496292412" lon="-8.4821328800">
        <ele>115.01</ele>
        <time>2018-12-22T08:07:14Z</time>
      </trkpt>
      <trkpt lat="39.5497011580" lon="-8.4822420124">
        <ele>114.53</ele>
        <time>2018-12-22T08:07:23Z</time>
      </trkpt>
      <trkpt lat="39.5497604180" lon="-8.4822848439">
        <ele>114.53</ele>
        <time>2018-12-22T08:07:29Z</time>
      </trkpt>
      <trkpt lat="39.5498878229" lon="-8.4824090637">
        <ele>115.50</ele>
        <time>2018-12-22T08:07:42Z</time>
      </trkpt>
      <trkpt lat="39.5499199256" lon="-8.4824528173">
        <ele>115.98</ele>
        <time>2018-12-22T08:07:46Z</time>
      </trkpt>
      <trkpt lat="39.5499526151" lon="-8.4824851714">
        <ele>116.46</ele>
        <time>2018-12-22T08:07:50Z</time>
      </trkpt>
      <trkpt lat="39.5500625018" lon="-8.4825274162">
        <ele>115.98</ele>
        <time>2018-12-22T08:07:59Z</time>
      </trkpt>
      <trkpt lat="39.5501493383" lon="-8.4825516399">
        <ele>116.46</ele>
        <time>2018-12-22T08:08:08Z</time>
      </trkpt>
      <trkpt lat="39.5502073411" lon="-8.4825786296">
        <ele>115.50</ele>
        <time>2018-12-22T08:08:15Z</time>
      </trkpt>
      <trkpt lat="39.5503261127" lon="-8.4826238919">
        <ele>116.46</ele>
        <time>2018-12-22T08:08:25Z</time>
      </trkpt>
      <trkpt lat="39.5503873844" lon="-8.4826369677">
        <ele>115.98</ele>
        <time>2018-12-22T08:08:31Z</time>
      </trkpt>
      <trkpt lat="39.5504425373" lon="-8.4826384764">
        <ele>115.50</ele>
        <time>2018-12-22T08:08:37Z</time>
      </trkpt>
      <trkpt lat="39.5505398512" lon="-8.4826556593">
        <ele>115.98</ele>
        <time>2018-12-22T08:08:46Z</time>
      </trkpt>
      <trkpt lat="39.5506875403" lon="-8.4826866724">
        <ele>115.98</ele>
        <time>2018-12-22T08:08:58Z</time>
      </trkpt>
      <trkpt lat="39.5507327188" lon="-8.4827135783">
        <ele>116.46</ele>
        <time>2018-12-22T08:09:06Z</time>
      </trkpt>
      <trkpt lat="39.5508253388" lon="-8.4827337787">
        <ele>116.94</ele>
        <time>2018-12-22T08:09:14Z</time>
      </trkpt>
      <trkpt lat="39.5509081520" lon="-8.4828177653">
        <ele>117.90</ele>
        <time>2018-12-22T08:09:24Z</time>
      </trkpt>
      <trkpt lat="39.5510134287" lon="-8.4828460123">
        <ele>117.42</ele>
        <time>2018-12-22T08:09:32Z</time>
      </trkpt>
      <trkpt lat="39.5511265006" lon="-8.4828337748">
        <ele>117.90</ele>
        <time>2018-12-22T08:09:41Z</time>
      </trkpt>
      <trkpt lat="39.5511409175" lon="-8.4828271531">
        <ele>118.86</ele>
        <time>2018-12-22T08:09:43Z</time>
      </trkpt>
      <trkpt lat="39.5512322802" lon="-8.4828606807">
        <ele>118.86</ele>
        <time>2018-12-22T08:09:52Z</time>
      </trkpt>
      <trkpt lat="39.5513038617" lon="-8.4828768577">
        <ele>118.38</ele>
        <time>2018-12-22T08:10:01Z</time>
      </trkpt>
      <trkpt lat="39.5513888542" lon="-8.4828692302">
        <ele>118.86</ele>
        <time>2018-12-22T08:10:09Z</time>
      </trkpt>
      <trkpt lat="39.5514742658" lon="-8.4828853235">
        <ele>119.34</ele>
        <time>2018-12-22T08:10:17Z</time>
      </trkpt>
      <trkpt lat="39.5515388064" lon="-8.4829648677">
        <ele>120.30</ele>
        <time>2018-12-22T08:10:26Z</time>
      </trkpt>
      <trkpt lat="39.5515752677" lon="-8.4829899296">
        <ele>119.82</ele>
        <time>2018-12-22T08:10:34Z</time>
      </trkpt>
      <trkpt lat="39.5515999105" lon="-8.4830196016">
        <ele>120.30</ele>
        <time>2018-12-22T08:10:42Z</time>
      </trkpt>
      <trkpt lat="39.5516019221" lon="-8.4830495249">
        <ele>120.30</ele>
        <time>2018-12-22T08:10:51Z</time>
      </trkpt>
      <trkpt lat="39.5516158361" lon="-8.4830601700">
        <ele>120.78</ele>
        <time>2018-12-22T08:10:58Z</time>
      </trkpt>
      <trkpt lat="39.5516465139" lon="-8.4830232896">
        <ele>120.78</ele>
        <time>2018-12-22T08:11:15Z</time>
      </trkpt>
      <trkpt lat="39.5516240504" lon="-8.4830404725">
        <ele>120.78</ele>
        <time>2018-12-22T08:11:26Z</time>
      </trkpt>
      <trkpt lat="39.5516115613" lon="-8.4830756765">
        <ele>120.78</ele>
        <time>2018-12-22T08:11:35Z</time>
      </trkpt>
      <trkpt lat="39.5515865833" lon="-8.4831000678">
        <ele>120.78</ele>
        <time>2018-12-22T08:11:39Z</time>
      </trkpt>
      <trkpt lat="39.5515597612" lon="-8.4831511974">
        <ele>120.30</ele>
        <time>2018-12-22T08:11:44Z</time>
      </trkpt>
      <trkpt lat="39.5515542291" lon="-8.4832921810">
        <ele>121.26</ele>
        <time>2018-12-22T08:11:53Z</time>
      </trkpt>
      <trkpt lat="39.5515702385" lon="-8.4834110364">
        <ele>120.78</ele>
        <time>2018-12-22T08:12:01Z</time>
      </trkpt>
      <trkpt lat="39.5516049396" lon="-8.4835062549">
        <ele>120.78</ele>
        <time>2018-12-22T08:12:09Z</time>
      </trkpt>
      <trkpt lat="39.5516624395" lon="-8.4835928399">
        <ele>121.26</ele>
        <time>2018-12-22T08:12:19Z</time>
      </trkpt>
      <trkpt lat="39.5517294109" lon="-8.4837346617">
        <ele>121.26</ele>
        <time>2018-12-22T08:12:29Z</time>
      </trkpt>
      <trkpt lat="39.5517518744" lon="-8.4837738890">
        <ele>121.26</ele>
        <time>2018-12-22T08:12:32Z</time>
      </trkpt>
      <trkpt lat="39.5518206898" lon="-8.4838215820">
        <ele>121.74</ele>
        <time>2018-12-22T08:12:39Z</time>
      </trkpt>
      <trkpt lat="39.5519485977" lon="-8.4839010425">
        <ele>122.22</ele>
        <time>2018-12-22T08:12:49Z</time>
      </trkpt>
      <trkpt lat="39.5520423073" lon="-8.4840058163">
        <ele>121.74</ele>
        <time>2018-12-22T08:12:59Z</time>
      </trkpt>
      <trkpt lat="39.5520864800" lon="-8.4840580355">
        <ele>121.26</ele>
        <time>2018-12-22T08:13:05Z</time>
      </trkpt>
      <trkpt lat="39.5521724783" lon="-8.4840970952">
        <ele>120.78</ele>
        <time>2018-12-22T08:13:16Z</time>
      </trkpt>
      <trkpt lat="39.5521896612" lon="-8.4841441177">
        <ele>120.30</ele>
        <time>2018-12-22T08:13:20Z</time>
      </trkpt>
      <trkpt lat="39.5523187425" lon="-8.4842201415">
        <ele>120.78</ele>
        <time>2018-12-22T08:13:30Z</time>
      </trkpt>
      <trkpt lat="39.5523742307" lon="-8.4842395876">
        <ele>121.26</ele>
        <time>2018-12-22T08:13:36Z</time>
      </trkpt>
      <trkpt lat="39.5524464827" lon="-8.4842838440">
        <ele>120.30</ele>
        <time>2018-12-22T08:13:43Z</time>
      </trkpt>
      <trkpt lat="39.5525747258" lon="-8.4843381587">
        <ele>121.26</ele>
        <time>2018-12-22T08:13:53Z</time>
      </trkpt>
      <trkpt lat="39.5525844488" lon="-8.4843514021">
        <ele>121.74</ele>
        <time>2018-12-22T08:13:54Z</time>
      </trkpt>
      <trkpt lat="39.5526591316" lon="-8.4844153561">
        <ele>122.22</ele>
        <time>2018-12-22T08:14:01Z</time>
      </trkpt>
      <trkpt lat="39.5527643245" lon="-8.4845116641">
        <ele>123.19</ele>
        <time>2018-12-22T08:14:11Z</time>
      </trkpt>
      <trkpt lat="39.5528519992" lon="-8.4845312778">
        <ele>123.67</ele>
        <time>2018-12-22T08:14:18Z</time>
      </trkpt>
      <trkpt lat="39.5528753847" lon="-8.4845413361">
        <ele>123.67</ele>
        <time>2018-12-22T08:14:20Z</time>
      </trkpt>
      <trkpt lat="39.5529651549" lon="-8.4846212156">
        <ele>123.67</ele>
        <time>2018-12-22T08:14:29Z</time>
      </trkpt>
      <trkpt lat="39.5530571043" lon="-8.4847124945">
        <ele>124.63</ele>
        <time>2018-12-22T08:14:39Z</time>
      </trkpt>
      <trkpt lat="39.5530850999" lon="-8.4847342875">
        <ele>124.63</ele>
        <time>2018-12-22T08:14:42Z</time>
      </trkpt>
      <trkpt lat="39.5531733613" lon="-8.4848044440">
        <ele>125.59</ele>
        <time>2018-12-22T08:14:51Z</time>
      </trkpt>
      <trkpt lat="39.5532504749" lon="-8.4848729242">
        <ele>126.55</ele>
        <time>2018-12-22T08:15:00Z</time>
      </trkpt>
      <trkpt lat="39.5533611998" lon="-8.4849500377">
        <ele>126.55</ele>
        <time>2018-12-22T08:15:10Z</time>
      </trkpt>
      <trkpt lat="39.5534374751" lon="-8.4850244690">
        <ele>127.03</ele>
        <time>2018-12-22T08:15:18Z</time>
      </trkpt>
      <trkpt lat="39.5534943044" lon="-8.4850895964">
        <ele>127.03</ele>
        <time>2018-12-22T08:15:25Z</time>
      </trkpt>
      <trkpt lat="39.5535685681" lon="-8.4851444978">
        <ele>128.47</ele>
        <time>2018-12-22T08:15:33Z</time>
      </trkpt>
      <trkpt lat="39.5536239725" lon="-8.4852050990">
        <ele>128.47</ele>
        <time>2018-12-22T08:15:39Z</time>
      </trkpt>
      <trkpt lat="39.5537419897" lon="-8.4853051789">
        <ele>128.47</ele>
        <time>2018-12-22T08:15:50Z</time>
      </trkpt>
      <trkpt lat="39.5537588373" lon="-8.4853263851">
        <ele>127.51</ele>
        <time>2018-12-22T08:15:52Z</time>
      </trkpt>
      <trkpt lat="39.5538173430" lon="-8.4853989724">
        <ele>128.95</ele>
        <time>2018-12-22T08:16:00Z</time>
      </trkpt>
      <trkpt lat="39.5538476016" lon="-8.4854357690">
        <ele>128.95</ele>
        <time>2018-12-22T08:16:04Z</time>
      </trkpt>
      <trkpt lat="39.5539501123" lon="-8.4855386149">
        <ele>128.95</ele>
        <time>2018-12-22T08:16:15Z</time>
      </trkpt>
      <trkpt lat="39.5540583227" lon="-8.4856438078">
        <ele>128.95</ele>
        <time>2018-12-22T08:16:25Z</time>
      </trkpt>
      <trkpt lat="39.5541340951" lon="-8.4857529402">
        <ele>128.47</ele>
        <time>2018-12-22T08:16:35Z</time>
      </trkpt>
      <trkpt lat="39.5542261284" lon="-8.4858805966">
        <ele>128.47</ele>
        <time>2018-12-22T08:16:46Z</time>
      </trkpt>
      <trkpt lat="39.5542319119" lon="-8.4858916607">
        <ele>128.47</ele>
        <time>2018-12-22T08:16:47Z</time>
      </trkpt>
      <trkpt lat="39.5542977937" lon="-8.4860137012">
        <ele>128.47</ele>
        <time>2018-12-22T08:16:57Z</time>
      </trkpt>
      <trkpt lat="39.5543511864" lon="-8.4861093387">
        <ele>128.47</ele>
        <time>2018-12-22T08:17:05Z</time>
      </trkpt>
      <trkpt lat="39.5543895755" lon="-8.4862105921">
        <ele>129.43</ele>
        <time>2018-12-22T08:17:14Z</time>
      </trkpt>
      <trkpt lat="39.5544295572" lon="-8.4863149468">
        <ele>129.43</ele>
        <time>2018-12-22T08:17:22Z</time>
      </trkpt>
      <trkpt lat="39.5545118675" lon="-8.4864024539">
        <ele>129.92</ele>
        <time>2018-12-22T08:17:31Z</time>
      </trkpt>
      <trkpt lat="39.5545836166" lon="-8.4864568524">
        <ele>130.40</ele>
        <time>2018-12-22T08:17:39Z</time>
      </trkpt>
      <trkpt lat="39.5546706207" lon="-8.4865117539">
        <ele>131.36</ele>
        <time>2018-12-22T08:17:48Z</time>
      </trkpt>
      <trkpt lat="39.5547749754" lon="-8.4865481313">
        <ele>131.84</ele>
        <time>2018-12-22T08:17:58Z</time>
      </trkpt>
      <trkpt lat="39.5549010392" lon="-8.4865657333">
        <ele>132.32</ele>
        <time>2018-12-22T08:18:09Z</time>
      </trkpt>
      <trkpt lat="39.5549768955" lon="-8.4865825810">
        <ele>133.76</ele>
        <time>2018-12-22T08:18:16Z</time>
      </trkpt>
      <trkpt lat="39.5550659951" lon="-8.4865881130">
        <ele>133.28</ele>
        <time>2018-12-22T08:18:24Z</time>
      </trkpt>
      <trkpt lat="39.5551643986" lon="-8.4866095707">
        <ele>133.76</ele>
        <time>2018-12-22T08:18:33Z</time>
      </trkpt>
      <trkpt lat="39.5552453678" lon="-8.4866205510">
        <ele>135.20</ele>
        <time>2018-12-22T08:18:42Z</time>
      </trkpt>
      <trkpt lat="39.5553338807" lon="-8.4866311960">
        <ele>135.20</ele>
        <time>2018-12-22T08:18:50Z</time>
      </trkpt>
      <trkpt lat="39.5554223936" lon="-8.4866451100">
        <ele>135.20</ele>
        <time>2018-12-22T08:18:59Z</time>
      </trkpt>
      <trkpt lat="39.5555254910" lon="-8.4866746981">
        <ele>135.20</ele>
        <time>2018-12-22T08:19:08Z</time>
      </trkpt>
      <trkpt lat="39.5556928776" lon="-8.4867104888">
        <ele>135.20</ele>
        <time>2018-12-22T08:19:20Z</time>
      </trkpt>
      <trkpt lat="39.5557454322" lon="-8.4867064655">
        <ele>136.16</ele>
        <time>2018-12-22T08:19:29Z</time>
      </trkpt>
      <trkpt lat="39.5558073744" lon="-8.4867104888">
        <ele>136.16</ele>
        <time>2018-12-22T08:19:37Z</time>
      </trkpt>
      <trkpt lat="39.5558429975" lon="-8.4867118299">
        <ele>135.68</ele>
        <time>2018-12-22T08:19:40Z</time>
      </trkpt>
      <trkpt lat="39.5558849070" lon="-8.4867241513">
        <ele>135.68</ele>
        <time>2018-12-22T08:19:47Z</time>
      </trkpt>
      <trkpt lat="39.5558673050" lon="-8.4867163561">
        <ele>135.20</ele>
        <time>2018-12-22T08:19:54Z</time>
      </trkpt>
      <trkpt lat="39.5558963064" lon="-8.4867582656">
        <ele>135.20</ele>
        <time>2018-12-22T08:20:10Z</time>
      </trkpt>
      <trkpt lat="39.5560023375" lon="-8.4867381491">
        <ele>135.68</ele>
        <time>2018-12-22T08:20:20Z</time>
      </trkpt>
      <trkpt lat="39.5561004058" lon="-8.4867382329">
        <ele>134.24</ele>
        <time>2018-12-22T08:20:29Z</time>
      </trkpt>
      <trkpt lat="39.5562127233" lon="-8.4867585171">
        <ele>134.24</ele>
        <time>2018-12-22T08:20:39Z</time>
      </trkpt>
      <trkpt lat="39.5562500227" lon="-8.4867697489">
        <ele>133.76</ele>
        <time>2018-12-22T08:20:43Z</time>
      </trkpt>
      <trkpt lat="39.5563494321" lon="-8.4868338704">
        <ele>134.24</ele>
        <time>2018-12-22T08:20:54Z</time>
      </trkpt>
      <trkpt lat="39.5564667787" lon="-8.4868793003">
        <ele>134.24</ele>
        <time>2018-12-22T08:21:06Z</time>
      </trkpt>
      <trkpt lat="39.5565965306" lon="-8.4869329445">
        <ele>133.76</ele>
        <time>2018-12-22T08:21:17Z</time>
      </trkpt>
      <trkpt lat="39.5566611551" lon="-8.4869735967">
        <ele>133.76</ele>
        <time>2018-12-22T08:21:24Z</time>
      </trkpt>
      <trkpt lat="39.5567500032" lon="-8.4870462678">
        <ele>134.24</ele>
        <time>2018-12-22T08:21:34Z</time>
      </trkpt>
      <trkpt lat="39.5568157174" lon="-8.4871637821">
        <ele>134.72</ele>
        <time>2018-12-22T08:21:42Z</time>
      </trkpt>
      <trkpt lat="39.5568625722" lon="-8.4872279875">
        <ele>134.24</ele>
        <time>2018-12-22T08:21:47Z</time>
      </trkpt>
      <trkpt lat="39.5569214132" lon="-8.4873275645">
        <ele>134.72</ele>
        <time>2018-12-22T08:21:56Z</time>
      </trkpt>
      <trkpt lat="39.5569836069" lon="-8.4873939492">
        <ele>134.72</ele>
        <time>2018-12-22T08:22:04Z</time>
      </trkpt>
      <trkpt lat="39.5570552722" lon="-8.4874505270">
        <ele>135.68</ele>
        <time>2018-12-22T08:22:12Z</time>
      </trkpt>
      <trkpt lat="39.5571064018" lon="-8.4874750022">
        <ele>134.72</ele>
        <time>2018-12-22T08:22:20Z</time>
      </trkpt>
      <trkpt lat="39.5572209824" lon="-8.4874973819">
        <ele>134.72</ele>
        <time>2018-12-22T08:22:30Z</time>
      </trkpt>
      <trkpt lat="39.5573184639" lon="-8.4875296522">
        <ele>133.76</ele>
        <time>2018-12-22T08:22:38Z</time>
      </trkpt>
      <trkpt lat="39.5574204717" lon="-8.4875812847">
        <ele>132.80</ele>
        <time>2018-12-22T08:22:46Z</time>
      </trkpt>
      <trkpt lat="39.5574868564" lon="-8.4876232781">
        <ele>133.28</ele>
        <time>2018-12-22T08:22:53Z</time>
      </trkpt>
      <trkpt lat="39.5575665683" lon="-8.4876780119">
        <ele>133.76</ele>
        <time>2018-12-22T08:23:02Z</time>
      </trkpt>
      <trkpt lat="39.5576473698" lon="-8.4877476655">
        <ele>132.80</ele>
        <time>2018-12-22T08:23:10Z</time>
      </trkpt>
      <trkpt lat="39.5577360503" lon="-8.4878286347">
        <ele>133.28</ele>
        <time>2018-12-22T08:23:19Z</time>
      </trkpt>
      <trkpt lat="39.5578481164" lon="-8.4879145492">
        <ele>133.76</ele>
        <time>2018-12-22T08:23:29Z</time>
      </trkpt>
      <trkpt lat="39.5579187758" lon="-8.4879686125">
        <ele>134.24</ele>
        <time>2018-12-22T08:23:38Z</time>
      </trkpt>
      <trkpt lat="39.5579869207" lon="-8.4880059119">
        <ele>134.24</ele>
        <time>2018-12-22T08:23:46Z</time>
      </trkpt>
      <trkpt lat="39.5580686443" lon="-8.4879973624">
        <ele>134.72</ele>
        <time>2018-12-22T08:23:53Z</time>
      </trkpt>
      <trkpt lat="39.5582012460" lon="-8.4879912436">
        <ele>135.20</ele>
        <time>2018-12-22T08:24:02Z</time>
      </trkpt>
      <trkpt lat="39.5582716540" lon="-8.4880116116">
        <ele>135.20</ele>
        <time>2018-12-22T08:24:10Z</time>
      </trkpt>
      <trkpt lat="39.5583915990" lon="-8.4880017210">
        <ele>134.72</ele>
        <time>2018-12-22T08:24:20Z</time>
      </trkpt>
      <trkpt lat="39.5584154036" lon="-8.4879957698">
        <ele>135.20</ele>
        <time>2018-12-22T08:24:22Z</time>
      </trkpt>
      <trkpt lat="39.5585351810" lon="-8.4880050737">
        <ele>134.24</ele>
        <time>2018-12-22T08:24:31Z</time>
      </trkpt>
      <trkpt lat="39.5586205088" lon="-8.4880058281">
        <ele>135.20</ele>
        <time>2018-12-22T08:24:39Z</time>
      </trkpt>
      <trkpt lat="39.5587262046" lon="-8.4879912436">
        <ele>134.72</ele>
        <time>2018-12-22T08:24:48Z</time>
      </trkpt>
      <trkpt lat="39.5587940142" lon="-8.4879826941">
        <ele>135.68</ele>
        <time>2018-12-22T08:24:54Z</time>
      </trkpt>
      <trkpt lat="39.5588787552" lon="-8.4879864659">
        <ele>135.20</ele>
        <time>2018-12-22T08:25:02Z</time>
      </trkpt>
      <trkpt lat="39.5589707047" lon="-8.4880031459">
        <ele>135.20</ele>
        <time>2018-12-22T08:25:11Z</time>
      </trkpt>
      <trkpt lat="39.5590491593" lon="-8.4880211670">
        <ele>134.24</ele>
        <time>2018-12-22T08:25:19Z</time>
      </trkpt>
      <trkpt lat="39.5591554418" lon="-8.4880674351">
        <ele>133.76</ele>
        <time>2018-12-22T08:25:29Z</time>
      </trkpt>
      <trkpt lat="39.5592412725" lon="-8.4880893119">
        <ele>132.32</ele>
        <time>2018-12-22T08:25:39Z</time>
      </trkpt>
      <trkpt lat="39.5593136083" lon="-8.4881157149">
        <ele>132.80</ele>
        <time>2018-12-22T08:25:48Z</time>
      </trkpt>
      <trkpt lat="39.5593343116" lon="-8.4880716261">
        <ele>132.80</ele>
        <time>2018-12-22T08:25:58Z</time>
      </trkpt>
      <trkpt lat="39.5593405981" lon="-8.4880719613">
        <ele>132.32</ele>
        <time>2018-12-22T08:26:08Z</time>
      </trkpt>
      <trkpt lat="39.5593275223" lon="-8.4880971909">
        <ele>133.76</ele>
        <time>2018-12-22T08:26:18Z</time>
      </trkpt>
      <trkpt lat="39.5593055617" lon="-8.4881064948">
        <ele>132.80</ele>
        <time>2018-12-22T08:26:30Z</time>
      </trkpt>
      <trkpt lat="39.5593066514" lon="-8.4881171398">
        <ele>132.32</ele>
        <time>2018-12-22T08:26:43Z</time>
      </trkpt>
      <trkpt lat="39.5593244210" lon="-8.4881376754">
        <ele>132.80</ele>
        <time>2018-12-22T08:26:54Z</time>
      </trkpt>
      <trkpt lat="39.5593458787" lon="-8.4881331492">
        <ele>132.32</ele>
        <time>2018-12-22T08:27:02Z</time>
      </trkpt>
      <trkpt lat="39.5593588706" lon="-8.4881478176">
        <ele>132.80</ele>
        <time>2018-12-22T08:27:13Z</time>
      </trkpt>
      <trkpt lat="39.5593732037" lon="-8.4881120268">
        <ele>132.80</ele>
        <time>2018-12-22T08:27:22Z</time>
      </trkpt>
      <trkpt lat="39.5594182983" lon="-8.4881429560">
        <ele>132.32</ele>
        <time>2018-12-22T08:27:32Z</time>
      </trkpt>
      <trkpt lat="39.5595058054" lon="-8.4882297087">
        <ele>131.84</ele>
        <time>2018-12-22T08:27:42Z</time>
      </trkpt>
      <trkpt lat="39.5596077293" lon="-8.4883048106">
        <ele>132.32</ele>
        <time>2018-12-22T08:27:53Z</time>
      </trkpt>
      <trkpt lat="39.5597057976" lon="-8.4884016216">
        <ele>132.32</ele>
        <time>2018-12-22T08:28:04Z</time>
      </trkpt>
      <trkpt lat="39.5597257465" lon="-8.4884544276">
        <ele>131.84</ele>
        <time>2018-12-22T08:28:08Z</time>
      </trkpt>
      <trkpt lat="39.5598127507" lon="-8.4885841794">
        <ele>132.32</ele>
        <time>2018-12-22T08:28:19Z</time>
      </trkpt>
      <trkpt lat="39.5598950610" lon="-8.4886876959">
        <ele>131.36</ele>
        <time>2018-12-22T08:28:29Z</time>
      </trkpt>
      <trkpt lat="39.5599520579" lon="-8.4887690842">
        <ele>131.84</ele>
        <time>2018-12-22T08:28:37Z</time>
      </trkpt>
      <trkpt lat="39.5600288361" lon="-8.4888532385">
        <ele>131.84</ele>
        <time>2018-12-22T08:28:46Z</time>
      </trkpt>
      <trkpt lat="39.5600499585" lon="-8.4888834134">
        <ele>131.36</ele>
        <time>2018-12-22T08:28:49Z</time>
      </trkpt>
      <trkpt lat="39.5601519663" lon="-8.4889452718">
        <ele>130.40</ele>
        <time>2018-12-22T08:28:59Z</time>
      </trkpt>
      <trkpt lat="39.5602651220" lon="-8.4889800567">
        <ele>131.36</ele>
        <time>2018-12-22T08:29:10Z</time>
      </trkpt>
      <trkpt lat="39.5602732524" lon="-8.4889833257">
        <ele>131.36</ele>
        <time>2018-12-22T08:29:11Z</time>
      </trkpt>
      <trkpt lat="39.5603642799" lon="-8.4890094772">
        <ele>129.92</ele>
        <time>2018-12-22T08:29:19Z</time>
      </trkpt>
      <trkpt lat="39.5604643598" lon="-8.4890245646">
        <ele>130.40</ele>
        <time>2018-12-22T08:29:27Z</time>
      </trkpt>
      <trkpt lat="39.5605573989" lon="-8.4890628699">
        <ele>129.92</ele>
        <time>2018-12-22T08:29:35Z</time>
      </trkpt>
      <trkpt lat="39.5606768411" lon="-8.4890913684">
        <ele>130.88</ele>
        <time>2018-12-22T08:29:45Z</time>
      </trkpt>
      <trkpt lat="39.5608086884" lon="-8.4891486168">
        <ele>129.92</ele>
        <time>2018-12-22T08:29:56Z</time>
      </trkpt>
      <trkpt lat="39.5609153900" lon="-8.4891645424">
        <ele>129.92</ele>
        <time>2018-12-22T08:30:05Z</time>
      </trkpt>
      <trkpt lat="39.5610149670" lon="-8.4891993273">
        <ele>129.43</ele>
        <time>2018-12-22T08:30:15Z</time>
      </trkpt>
      <trkpt lat="39.5611382648" lon="-8.4892413206">
        <ele>129.43</ele>
        <time>2018-12-22T08:30:26Z</time>
      </trkpt>
      <trkpt lat="39.5611549448" lon="-8.4892589226">
        <ele>128.95</ele>
        <time>2018-12-22T08:30:28Z</time>
      </trkpt>
      <trkpt lat="39.5612569526" lon="-8.4893555660">
        <ele>124.63</ele>
        <time>2018-12-22T08:30:39Z</time>
      </trkpt>
      <trkpt lat="39.5612676814" lon="-8.4893667977">
        <ele>132.80</ele>
        <time>2018-12-22T08:30:40Z</time>
      </trkpt>
      <trkpt lat="39.5612772368" lon="-8.4893748444">
        <ele>129.43</ele>
        <time>2018-12-22T08:30:41Z</time>
      </trkpt>
      <trkpt lat="39.5613867044" lon="-8.4894410614">
        <ele>129.43</ele>
        <time>2018-12-22T08:30:50Z</time>
      </trkpt>
      <trkpt lat="39.5614632312" lon="-8.4895118047">
        <ele>129.43</ele>
        <time>2018-12-22T08:30:59Z</time>
      </trkpt>
      <trkpt lat="39.5615356509" lon="-8.4895755909">
        <ele>128.47</ele>
        <time>2018-12-22T08:31:07Z</time>
      </trkpt>
      <trkpt lat="39.5615902171" lon="-8.4896462504">
        <ele>129.43</ele>
        <time>2018-12-22T08:31:13Z</time>
      </trkpt>
      <trkpt lat="39.5616380777" lon="-8.4896943625">
        <ele>128.95</ele>
        <time>2018-12-22T08:31:22Z</time>
      </trkpt>
      <trkpt lat="39.5616945717" lon="-8.4896675404">
        <ele>129.43</ele>
        <time>2018-12-22T08:31:29Z</time>
      </trkpt>
      <trkpt lat="39.5617684163" lon="-8.4896775987">
        <ele>128.95</ele>
        <time>2018-12-22T08:31:37Z</time>
      </trkpt>
      <trkpt lat="39.5618412551" lon="-8.4897153173">
        <ele>127.99</ele>
        <time>2018-12-22T08:31:44Z</time>
      </trkpt>
      <trkpt lat="39.5619372278" lon="-8.4897974599">
        <ele>128.47</ele>
        <time>2018-12-22T08:31:54Z</time>
      </trkpt>
      <trkpt lat="39.5620336197" lon="-8.4898566362">
        <ele>128.95</ele>
        <time>2018-12-22T08:32:03Z</time>
      </trkpt>
      <trkpt lat="39.5620528981" lon="-8.4898745734">
        <ele>128.47</ele>
        <time>2018-12-22T08:32:05Z</time>
      </trkpt>
      <trkpt lat="39.5621492900" lon="-8.4899630025">
        <ele>128.95</ele>
        <time>2018-12-22T08:32:15Z</time>
      </trkpt>
      <trkpt lat="39.5622436702" lon="-8.4900540300">
        <ele>128.47</ele>
        <time>2018-12-22T08:32:24Z</time>
      </trkpt>
      <trkpt lat="39.5623334404" lon="-8.4901307244">
        <ele>128.47</ele>
        <time>2018-12-22T08:32:33Z</time>
      </trkpt>
      <trkpt lat="39.5623536408" lon="-8.4901591390">
        <ele>129.43</ele>
        <time>2018-12-22T08:32:36Z</time>
      </trkpt>
      <trkpt lat="39.5624571573" lon="-8.4902328998">
        <ele>129.92</ele>
        <time>2018-12-22T08:32:46Z</time>
      </trkpt>
      <trkpt lat="39.5625361986" lon="-8.4903049003">
        <ele>129.92</ele>
        <time>2018-12-22T08:32:54Z</time>
      </trkpt>
      <trkpt lat="39.5626452472" lon="-8.4903926589">
        <ele>129.92</ele>
        <time>2018-12-22T08:33:05Z</time>
      </trkpt>
      <trkpt lat="39.5627179183" lon="-8.4904419445">
        <ele>129.92</ele>
        <time>2018-12-22T08:33:14Z</time>
      </trkpt>
      <trkpt lat="39.5628050063" lon="-8.4904952534">
        <ele>129.92</ele>
        <time>2018-12-22T08:33:22Z</time>
      </trkpt>
      <trkpt lat="39.5628762525" lon="-8.4905544296">
        <ele>130.40</ele>
        <time>2018-12-22T08:33:30Z</time>
      </trkpt>
      <trkpt lat="39.5629377756" lon="-8.4906484745">
        <ele>129.43</ele>
        <time>2018-12-22T08:33:38Z</time>
      </trkpt>
      <trkpt lat="39.5630076807" lon="-8.4907378256">
        <ele>128.95</ele>
        <time>2018-12-22T08:33:47Z</time>
      </trkpt>
      <trkpt lat="39.5630599000" lon="-8.4908395819">
        <ele>128.95</ele>
        <time>2018-12-22T08:33:56Z</time>
      </trkpt>
      <trkpt lat="39.5631431323" lon="-8.4909535758">
        <ele>128.47</ele>
        <time>2018-12-22T08:34:06Z</time>
      </trkpt>
      <trkpt lat="39.5632033143" lon="-8.4910251573">
        <ele>127.99</ele>
        <time>2018-12-22T08:34:14Z</time>
      </trkpt>
      <trkpt lat="39.5632538572" lon="-8.4910806455">
        <ele>127.99</ele>
        <time>2018-12-22T08:34:22Z</time>
      </trkpt>
      <trkpt lat="39.5632744767" lon="-8.4911235608">
        <ele>127.51</ele>
        <time>2018-12-22T08:34:35Z</time>
      </trkpt>
      <trkpt lat="39.5632986166" lon="-8.4911114071">
        <ele>127.99</ele>
        <time>2018-12-22T08:34:49Z</time>
      </trkpt>
      <trkpt lat="39.5633380953" lon="-8.4911134187">
        <ele>127.99</ele>
        <time>2018-12-22T08:35:04Z</time>
      </trkpt>
      <trkpt lat="39.5634173881" lon="-8.4911575075">
        <ele>128.95</ele>
        <time>2018-12-22T08:35:12Z</time>
      </trkpt>
      <trkpt lat="39.5635020453" lon="-8.4912062902">
        <ele>128.47</ele>
        <time>2018-12-22T08:35:22Z</time>
      </trkpt>
      <trkpt lat="39.5635758899" lon="-8.4912320226">
        <ele>128.95</ele>
        <time>2018-12-22T08:35:32Z</time>
      </trkpt>
      <trkpt lat="39.5636811666" lon="-8.4912305139">
        <ele>127.51</ele>
        <time>2018-12-22T08:35:44Z</time>
      </trkpt>
      <trkpt lat="39.5636690967" lon="-8.4912393149">
        <ele>127.99</ele>
        <time>2018-12-22T08:35:51Z</time>
      </trkpt>
      <trkpt lat="39.5637017023" lon="-8.4912292566">
        <ele>127.51</ele>
        <time>2018-12-22T08:35:57Z</time>
      </trkpt>
      <trkpt lat="39.5638082363" lon="-8.4912532289">
        <ele>127.51</ele>
        <time>2018-12-22T08:36:06Z</time>
      </trkpt>
      <trkpt lat="39.5639006887" lon="-8.4913620260">
        <ele>126.07</ele>
        <time>2018-12-22T08:36:15Z</time>
      </trkpt>
      <trkpt lat="39.5639037900" lon="-8.4913790412">
        <ele>126.55</ele>
        <time>2018-12-22T08:36:16Z</time>
      </trkpt>
      <trkpt lat="39.5638781413" lon="-8.4914960526">
        <ele>127.51</ele>
        <time>2018-12-22T08:36:24Z</time>
      </trkpt>
      <trkpt lat="39.5638664067" lon="-8.4916062746">
        <ele>127.99</ele>
        <time>2018-12-22T08:36:32Z</time>
      </trkpt>
      <trkpt lat="39.5638677478" lon="-8.4916246310">
        <ele>128.47</ele>
        <time>2018-12-22T08:36:38Z</time>
      </trkpt>
      <trkpt lat="39.5638695080" lon="-8.4916310012">
        <ele>127.99</ele>
        <time>2018-12-22T08:36:39Z</time>
      </trkpt>
      <trkpt lat="39.5638578571" lon="-8.4917310812">
        <ele>128.47</ele>
        <time>2018-12-22T08:36:46Z</time>
      </trkpt>
      <trkpt lat="39.5638612099" lon="-8.4918464161">
        <ele>128.47</ele>
        <time>2018-12-22T08:36:54Z</time>
      </trkpt>
      <trkpt lat="39.5638664905" lon="-8.4919751622">
        <ele>127.99</ele>
        <time>2018-12-22T08:37:02Z</time>
      </trkpt>
      <trkpt lat="39.5638714358" lon="-8.4920796845">
        <ele>128.95</ele>
        <time>2018-12-22T08:37:09Z</time>
      </trkpt>
      <trkpt lat="39.5638596173" lon="-8.4922168963">
        <ele>129.43</ele>
        <time>2018-12-22T08:37:19Z</time>
      </trkpt>
      <trkpt lat="39.5638503134" lon="-8.4923308901">
        <ele>128.95</ele>
        <time>2018-12-22T08:37:27Z</time>
      </trkpt>
      <trkpt lat="39.5638529956" lon="-8.4924349096">
        <ele>129.43</ele>
        <time>2018-12-22T08:37:35Z</time>
      </trkpt>
      <trkpt lat="39.5638686698" lon="-8.4925615601">
        <ele>129.92</ele>
        <time>2018-12-22T08:37:43Z</time>
      </trkpt>
      <trkpt lat="39.5638715196" lon="-8.4926238377">
        <ele>130.40</ele>
        <time>2018-12-22T08:37:47Z</time>
      </trkpt>
      <trkpt lat="39.5638739504" lon="-8.4927253425">
        <ele>130.88</ele>
        <time>2018-12-22T08:37:55Z</time>
      </trkpt>
      <trkpt lat="39.5638705976" lon="-8.4928513225">
        <ele>131.84</ele>
        <time>2018-12-22T08:38:03Z</time>
      </trkpt>
      <trkpt lat="39.5638796501" lon="-8.4929911327">
        <ele>132.80</ele>
        <time>2018-12-22T08:38:11Z</time>
      </trkpt>
      <trkpt lat="39.5638881996" lon="-8.4931575134">
        <ele>132.32</ele>
        <time>2018-12-22T08:38:22Z</time>
      </trkpt>
      <trkpt lat="39.5638847630" lon="-8.4932746086">
        <ele>133.28</ele>
        <time>2018-12-22T08:38:30Z</time>
      </trkpt>
      <trkpt lat="39.5638975035" lon="-8.4933404904">
        <ele>133.28</ele>
        <time>2018-12-22T08:38:34Z</time>
      </trkpt>
      <trkpt lat="39.5638840925" lon="-8.4934626147">
        <ele>133.28</ele>
        <time>2018-12-22T08:38:44Z</time>
      </trkpt>
      <trkpt lat="39.5638633054" lon="-8.4935497027">
        <ele>132.80</ele>
        <time>2018-12-22T08:38:51Z</time>
      </trkpt>
      <trkpt lat="39.5638596173" lon="-8.4936259780">
        <ele>133.76</ele>
        <time>2018-12-22T08:38:56Z</time>
      </trkpt>
      <trkpt lat="39.5638724416" lon="-8.4936479386">
        <ele>134.24</ele>
        <time>2018-12-22T08:38:58Z</time>
      </trkpt>
      <trkpt lat="39.5639585238" lon="-8.4937491920">
        <ele>134.24</ele>
        <time>2018-12-22T08:39:08Z</time>
      </trkpt>
      <trkpt lat="39.5639824960" lon="-8.4938361961">
        <ele>135.20</ele>
        <time>2018-12-22T08:39:14Z</time>
      </trkpt>
      <trkpt lat="39.5639747009" lon="-8.4939642716">
        <ele>136.64</ele>
        <time>2018-12-22T08:39:23Z</time>
      </trkpt>
      <trkpt lat="39.5639698394" lon="-8.4939779341">
        <ele>136.64</ele>
        <time>2018-12-22T08:39:24Z</time>
      </trkpt>
      <trkpt lat="39.5639726054" lon="-8.4940930177">
        <ele>137.61</ele>
        <time>2018-12-22T08:39:32Z</time>
      </trkpt>
      <trkpt lat="39.5639541652" lon="-8.4941905830">
        <ele>138.57</ele>
        <time>2018-12-22T08:39:39Z</time>
      </trkpt>
      <trkpt lat="39.5639566798" lon="-8.4942626674">
        <ele>139.05</ele>
        <time>2018-12-22T08:39:44Z</time>
      </trkpt>
      <trkpt lat="39.5639424305" lon="-8.4943172336">
        <ele>139.53</ele>
        <time>2018-12-22T08:39:48Z</time>
      </trkpt>
      <trkpt lat="39.5639493875" lon="-8.4943964425">
        <ele>140.01</ele>
        <time>2018-12-22T08:39:54Z</time>
      </trkpt>
      <trkpt lat="39.5639319532" lon="-8.4945142083">
        <ele>140.49</ele>
        <time>2018-12-22T08:40:02Z</time>
      </trkpt>
      <trkpt lat="39.5639323723" lon="-8.4945669305">
        <ele>140.97</ele>
        <time>2018-12-22T08:40:06Z</time>
      </trkpt>
      <trkpt lat="39.5639480464" lon="-8.4947048128">
        <ele>141.45</ele>
        <time>2018-12-22T08:40:15Z</time>
      </trkpt>
      <trkpt lat="39.5639459509" lon="-8.4947471414">
        <ele>141.93</ele>
        <time>2018-12-22T08:40:18Z</time>
      </trkpt>
      <trkpt lat="39.5639614575" lon="-8.4948935732">
        <ele>142.41</ele>
        <time>2018-12-22T08:40:28Z</time>
      </trkpt>
      <trkpt lat="39.5639855135" lon="-8.4950162005">
        <ele>141.93</ele>
        <time>2018-12-22T08:40:37Z</time>
      </trkpt>
      <trkpt lat="39.5640121680" lon="-8.4951437730">
        <ele>141.45</ele>
        <time>2018-12-22T08:40:46Z</time>
      </trkpt>
      <trkpt lat="39.5640227292" lon="-8.4952441044">
        <ele>140.01</ele>
        <time>2018-12-22T08:40:54Z</time>
      </trkpt>
      <trkpt lat="39.5640353858" lon="-8.4953695815">
        <ele>140.97</ele>
        <time>2018-12-22T08:41:02Z</time>
      </trkpt>
      <trkpt lat="39.5640550833" lon="-8.4955457691">
        <ele>139.53</ele>
        <time>2018-12-22T08:41:13Z</time>
      </trkpt>
      <trkpt lat="39.5640570112" lon="-8.4955642093">
        <ele>139.53</ele>
        <time>2018-12-22T08:41:14Z</time>
      </trkpt>
      <trkpt lat="39.5640787203" lon="-8.4956894349">
        <ele>139.05</ele>
        <time>2018-12-22T08:41:22Z</time>
      </trkpt>
      <trkpt lat="39.5641105715" lon="-8.4957960527">
        <ele>139.05</ele>
        <time>2018-12-22T08:41:30Z</time>
      </trkpt>
      <trkpt lat="39.5641241502" lon="-8.4959038440">
        <ele>139.53</ele>
        <time>2018-12-22T08:41:37Z</time>
      </trkpt>
      <trkpt lat="39.5641213842" lon="-8.4960122220">
        <ele>139.05</ele>
        <time>2018-12-22T08:41:44Z</time>
      </trkpt>
      <trkpt lat="39.5641156845" lon="-8.4961357713">
        <ele>138.57</ele>
        <time>2018-12-22T08:41:53Z</time>
      </trkpt>
      <trkpt lat="39.5641246531" lon="-8.4962783474">
        <ele>137.61</ele>
        <time>2018-12-22T08:42:03Z</time>
      </trkpt>
      <trkpt lat="39.5641585160" lon="-8.4963902459">
        <ele>137.13</ele>
        <time>2018-12-22T08:42:13Z</time>
      </trkpt>
      <trkpt lat="39.5641758665" lon="-8.4964593966">
        <ele>136.64</ele>
        <time>2018-12-22T08:42:21Z</time>
      </trkpt>
      <trkpt lat="39.5642024372" lon="-8.4965422936">
        <ele>135.68</ele>
        <time>2018-12-22T08:42:29Z</time>
      </trkpt>
      <trkpt lat="39.5642161835" lon="-8.4966247715">
        <ele>135.20</ele>
        <time>2018-12-22T08:42:35Z</time>
      </trkpt>
      <trkpt lat="39.5642432570" lon="-8.4967084229">
        <ele>135.20</ele>
        <time>2018-12-22T08:42:43Z</time>
      </trkpt>
      <trkpt lat="39.5642489567" lon="-8.4967423696">
        <ele>134.24</ele>
        <time>2018-12-22T08:42:53Z</time>
      </trkpt>
      <trkpt lat="39.5642736834" lon="-8.4968233388">
        <ele>133.76</ele>
        <time>2018-12-22T08:43:02Z</time>
      </trkpt>
      <trkpt lat="39.5643105637" lon="-8.4969362430">
        <ele>133.28</ele>
        <time>2018-12-22T08:43:11Z</time>
      </trkpt>
      <trkpt lat="39.5643382240" lon="-8.4970342275">
        <ele>133.28</ele>
        <time>2018-12-22T08:43:18Z</time>
      </trkpt>
      <trkpt lat="39.5643502939" lon="-8.4971518256">
        <ele>133.28</ele>
        <time>2018-12-22T08:43:26Z</time>
      </trkpt>
      <trkpt lat="39.5643792953" lon="-8.4972571861">
        <ele>132.80</ele>
        <time>2018-12-22T08:43:34Z</time>
      </trkpt>
      <trkpt lat="39.5643983223" lon="-8.4973436873">
        <ele>131.84</ele>
        <time>2018-12-22T08:43:41Z</time>
      </trkpt>
      <trkpt lat="39.5644295868" lon="-8.4974347148">
        <ele>131.84</ele>
        <time>2018-12-22T08:43:49Z</time>
      </trkpt>
      <trkpt lat="39.5644331072" lon="-8.4974602796">
        <ele>132.32</ele>
        <time>2018-12-22T08:43:51Z</time>
      </trkpt>
      <trkpt lat="39.5644337777" lon="-8.4975974914">
        <ele>131.36</ele>
        <time>2018-12-22T08:44:00Z</time>
      </trkpt>
      <trkpt lat="39.5644303411" lon="-8.4977090545">
        <ele>131.36</ele>
        <time>2018-12-22T08:44:08Z</time>
      </trkpt>
      <trkpt lat="39.5644320175" lon="-8.4977694042">
        <ele>130.88</ele>
        <time>2018-12-22T08:44:12Z</time>
      </trkpt>
      <trkpt lat="39.5644497871" lon="-8.4978959709">
        <ele>129.92</ele>
        <time>2018-12-22T08:44:21Z</time>
      </trkpt>
      <trkpt lat="39.5644617733" lon="-8.4979931172">
        <ele>128.95</ele>
        <time>2018-12-22T08:44:28Z</time>
      </trkpt>
      <trkpt lat="39.5644818898" lon="-8.4981238749">
        <ele>127.51</ele>
        <time>2018-12-22T08:44:37Z</time>
      </trkpt>
      <trkpt lat="39.5645044371" lon="-8.4982558060">
        <ele>126.55</ele>
        <time>2018-12-22T08:44:46Z</time>
      </trkpt>
      <trkpt lat="39.5645475201" lon="-8.4983568918">
        <ele>126.55</ele>
        <time>2018-12-22T08:44:55Z</time>
      </trkpt>
      <trkpt lat="39.5645932015" lon="-8.4984371904">
        <ele>125.59</ele>
        <time>2018-12-22T08:45:03Z</time>
      </trkpt>
      <trkpt lat="39.5646445826" lon="-8.4985517710">
        <ele>125.11</ele>
        <time>2018-12-22T08:45:13Z</time>
      </trkpt>
      <trkpt lat="39.5646707341" lon="-8.4986393619">
        <ele>124.63</ele>
        <time>2018-12-22T08:45:20Z</time>
      </trkpt>
      <trkpt lat="39.5646988973" lon="-8.4987013880">
        <ele>124.63</ele>
        <time>2018-12-22T08:45:27Z</time>
      </trkpt>
      <trkpt lat="39.5647216961" lon="-8.4987290483">
        <ele>124.15</ele>
        <time>2018-12-22T08:45:33Z</time>
      </trkpt>
      <trkpt lat="39.5647762623" lon="-8.4988152981">
        <ele>124.15</ele>
        <time>2018-12-22T08:45:41Z</time>
      </trkpt>
      <trkpt lat="39.5648294874" lon="-8.4989271965">
        <ele>124.63</ele>
        <time>2018-12-22T08:45:50Z</time>
      </trkpt>
      <trkpt lat="39.5648842212" lon="-8.4990181401">
        <ele>124.15</ele>
        <time>2018-12-22T08:45:59Z</time>
      </trkpt>
      <trkpt lat="39.5649546292" lon="-8.4990893863">
        <ele>123.67</ele>
        <time>2018-12-22T08:46:07Z</time>
      </trkpt>
      <trkpt lat="39.5649930183" lon="-8.4991835151">
        <ele>124.15</ele>
        <time>2018-12-22T08:46:15Z</time>
      </trkpt>
      <trkpt lat="39.5650567207" lon="-8.4992789850">
        <ele>123.19</ele>
        <time>2018-12-22T08:46:24Z</time>
      </trkpt>
      <trkpt lat="39.5651326608" lon="-8.4993595351">
        <ele>122.71</ele>
        <time>2018-12-22T08:46:33Z</time>
      </trkpt>
      <trkpt lat="39.5652008057" lon="-8.4994367324">
        <ele>122.22</ele>
        <time>2018-12-22T08:46:41Z</time>
      </trkpt>
      <trkpt lat="39.5652823616" lon="-8.4995152708">
        <ele>121.74</ele>
        <time>2018-12-22T08:46:51Z</time>
      </trkpt>
      <trkpt lat="39.5653576311" lon="-8.4996239841">
        <ele>120.30</ele>
        <time>2018-12-22T08:47:01Z</time>
      </trkpt>
      <trkpt lat="39.5654303022" lon="-8.4996865969">
        <ele>121.26</ele>
        <time>2018-12-22T08:47:09Z</time>
      </trkpt>
      <trkpt lat="39.5655314717" lon="-8.4997268301">
        <ele>118.86</ele>
        <time>2018-12-22T08:47:18Z</time>
      </trkpt>
      <trkpt lat="39.5656116866" lon="-8.4997701645">
        <ele>117.90</ele>
        <time>2018-12-22T08:47:26Z</time>
      </trkpt>
      <trkpt lat="39.5656986069" lon="-8.4998649638">
        <ele>117.90</ele>
        <time>2018-12-22T08:47:36Z</time>
      </trkpt>
      <trkpt lat="39.5657457970" lon="-8.4999131598">
        <ele>117.90</ele>
        <time>2018-12-22T08:47:44Z</time>
      </trkpt>
      <trkpt lat="39.5657556038" lon="-8.4999486990">
        <ele>117.42</ele>
        <time>2018-12-22T08:47:52Z</time>
      </trkpt>
      <trkpt lat="39.5657899696" lon="-8.5000222921">
        <ele>117.42</ele>
        <time>2018-12-22T08:47:59Z</time>
      </trkpt>
      <trkpt lat="39.5658255089" lon="-8.5000900179">
        <ele>117.90</ele>
        <time>2018-12-22T08:48:06Z</time>
      </trkpt>
      <trkpt lat="39.5658574440" lon="-8.5001812130">
        <ele>117.90</ele>
        <time>2018-12-22T08:48:13Z</time>
      </trkpt>
      <trkpt lat="39.5658939052" lon="-8.5002893396">
        <ele>117.90</ele>
        <time>2018-12-22T08:48:22Z</time>
      </trkpt>
      <trkpt lat="39.5659542549" lon="-8.5003854800">
        <ele>118.86</ele>
        <time>2018-12-22T08:48:30Z</time>
      </trkpt>
      <trkpt lat="39.5659849327" lon="-8.5004730709">
        <ele>119.34</ele>
        <time>2018-12-22T08:48:37Z</time>
      </trkpt>
      <trkpt lat="39.5660244115" lon="-8.5005785991">
        <ele>119.34</ele>
        <time>2018-12-22T08:48:45Z</time>
      </trkpt>
      <trkpt lat="39.5660821628" lon="-8.5006943531">
        <ele>119.82</ele>
        <time>2018-12-22T08:48:54Z</time>
      </trkpt>
      <trkpt lat="39.5661243238" lon="-8.5007667728">
        <ele>118.38</ele>
        <time>2018-12-22T08:49:01Z</time>
      </trkpt>
      <trkpt lat="39.5661609527" lon="-8.5008411203">
        <ele>118.86</ele>
        <time>2018-12-22T08:49:09Z</time>
      </trkpt>
      <trkpt lat="39.5661908761" lon="-8.5009097680">
        <ele>119.34</ele>
        <time>2018-12-22T08:49:15Z</time>
      </trkpt>
      <trkpt lat="39.5662221406" lon="-8.5009732191">
        <ele>119.34</ele>
        <time>2018-12-22T08:49:20Z</time>
      </trkpt>
      <trkpt lat="39.5662731025" lon="-8.5010508355">
        <ele>119.82</ele>
        <time>2018-12-22T08:49:28Z</time>
      </trkpt>
      <trkpt lat="39.5663073007" lon="-8.5011669248">
        <ele>120.30</ele>
        <time>2018-12-22T08:49:37Z</time>
      </trkpt>
      <trkpt lat="39.5663425885" lon="-8.5012564436">
        <ele>121.26</ele>
        <time>2018-12-22T08:49:45Z</time>
      </trkpt>
      <trkpt lat="39.5663601905" lon="-8.5013431963">
        <ele>121.26</ele>
        <time>2018-12-22T08:49:52Z</time>
      </trkpt>
      <trkpt lat="39.5663901977" lon="-8.5014365707">
        <ele>122.71</ele>
        <time>2018-12-22T08:50:00Z</time>
      </trkpt>
      <trkpt lat="39.5664277487" lon="-8.5015181266">
        <ele>122.71</ele>
        <time>2018-12-22T08:50:07Z</time>
      </trkpt>
      <trkpt lat="39.5664191991" lon="-8.5015611257">
        <ele>123.19</ele>
        <time>2018-12-22T08:50:13Z</time>
      </trkpt>
      <trkpt lat="39.5664200373" lon="-8.5015909653">
        <ele>122.71</ele>
        <time>2018-12-22T08:50:16Z</time>
      </trkpt>
      <trkpt lat="39.5664290059" lon="-8.5016329587">
        <ele>122.71</ele>
        <time>2018-12-22T08:50:19Z</time>
      </trkpt>
      <trkpt lat="39.5664624497" lon="-8.5017166100">
        <ele>124.15</ele>
        <time>2018-12-22T08:50:27Z</time>
      </trkpt>
      <trkpt lat="39.5665068738" lon="-8.5018124990">
        <ele>124.63</ele>
        <time>2018-12-22T08:50:36Z</time>
      </trkpt>
      <trkpt lat="39.5664796326" lon="-8.5019333661">
        <ele>125.11</ele>
        <time>2018-12-22T08:50:46Z</time>
      </trkpt>
      <trkpt lat="39.5664658025" lon="-8.5019931290">
        <ele>124.63</ele>
        <time>2018-12-22T08:50:52Z</time>
      </trkpt>
      <trkpt lat="39.5664378908" lon="-8.5020834021">
        <ele>123.67</ele>
        <time>2018-12-22T08:51:01Z</time>
      </trkpt>
      <trkpt lat="39.5664362982" lon="-8.5021973960">
        <ele>122.22</ele>
        <time>2018-12-22T08:51:09Z</time>
      </trkpt>
      <trkpt lat="39.5664437581" lon="-8.5023117252">
        <ele>122.71</ele>
        <time>2018-12-22T08:51:17Z</time>
      </trkpt>
      <trkpt lat="39.5664421655" lon="-8.5024832189">
        <ele>121.26</ele>
        <time>2018-12-22T08:51:28Z</time>
      </trkpt>
      <trkpt lat="39.5664373040" lon="-8.5025216918">
        <ele>120.78</ele>
        <time>2018-12-22T08:51:31Z</time>
      </trkpt>
      <trkpt lat="39.5664303470" lon="-8.5026116297">
        <ele>119.82</ele>
        <time>2018-12-22T08:51:39Z</time>
      </trkpt>
      <trkpt lat="39.5664347056" lon="-8.5026928503">
        <ele>117.90</ele>
        <time>2018-12-22T08:51:47Z</time>
      </trkpt>
      <trkpt lat="39.5664377231" lon="-8.5027695447">
        <ele>117.42</ele>
        <time>2018-12-22T08:51:54Z</time>
      </trkpt>
      <trkpt lat="39.5664336160" lon="-8.5027982946">
        <ele>117.42</ele>
        <time>2018-12-22T08:51:56Z</time>
      </trkpt>
      <trkpt lat="39.5664373040" lon="-8.5029298905">
        <ele>116.94</ele>
        <time>2018-12-22T08:52:06Z</time>
      </trkpt>
      <trkpt lat="39.5664398186" lon="-8.5029629990">
        <ele>115.50</ele>
        <time>2018-12-22T08:52:14Z</time>
      </trkpt>
      <trkpt lat="39.5664439257" lon="-8.5029842053">
        <ele>115.98</ele>
        <time>2018-12-22T08:52:23Z</time>
      </trkpt>
      <trkpt lat="39.5664420817" lon="-8.5030324012">
        <ele>114.05</ele>
        <time>2018-12-22T08:52:28Z</time>
      </trkpt>
      <trkpt lat="39.5664382260" lon="-8.5031089280">
        <ele>114.05</ele>
        <time>2018-12-22T08:52:32Z</time>
      </trkpt>
      <trkpt lat="39.5664453506" lon="-8.5031513404">
        <ele>113.09</ele>
        <time>2018-12-22T08:52:36Z</time>
      </trkpt>
      <trkpt lat="39.5664520562" lon="-8.5031601414">
        <ele>113.09</ele>
        <time>2018-12-22T08:52:37Z</time>
      </trkpt>
      <trkpt lat="39.5664786268" lon="-8.5032965988">
        <ele>112.61</ele>
        <time>2018-12-22T08:52:44Z</time>
      </trkpt>
      <trkpt lat="39.5664769504" lon="-8.5033974331">
        <ele>113.09</ele>
        <time>2018-12-22T08:52:53Z</time>
      </trkpt>
      <trkpt lat="39.5664813928" lon="-8.5034509096">
        <ele>112.13</ele>
        <time>2018-12-22T08:52:57Z</time>
      </trkpt>
      <trkpt lat="39.5664618630" lon="-8.5035816673">
        <ele>112.61</ele>
        <time>2018-12-22T08:53:04Z</time>
      </trkpt>
      <trkpt lat="39.5664630365" lon="-8.5036293603">
        <ele>112.13</ele>
        <time>2018-12-22T08:53:11Z</time>
      </trkpt>
      <trkpt lat="39.5664508827" lon="-8.5036444478">
        <ele>112.13</ele>
        <time>2018-12-22T08:53:17Z</time>
      </trkpt>
      <trkpt lat="39.5664652158" lon="-8.5037186276">
        <ele>111.65</ele>
        <time>2018-12-22T08:53:23Z</time>
      </trkpt>
      <trkpt lat="39.5664663054" lon="-8.5038966592">
        <ele>111.65</ele>
        <time>2018-12-22T08:53:29Z</time>
      </trkpt>
      <trkpt lat="39.5664388128" lon="-8.5040118266">
        <ele>111.65</ele>
        <time>2018-12-22T08:53:34Z</time>
      </trkpt>
      <trkpt lat="39.5664490387" lon="-8.5040592682">
        <ele>110.69</ele>
        <time>2018-12-22T08:53:41Z</time>
      </trkpt>
      <trkpt lat="39.5664585941" lon="-8.5040622856">
        <ele>110.21</ele>
        <time>2018-12-22T08:53:47Z</time>
      </trkpt>
      <trkpt lat="39.5664501283" lon="-8.5040947236">
        <ele>110.21</ele>
        <time>2018-12-22T08:53:51Z</time>
      </trkpt>
      <trkpt lat="39.5664763637" lon="-8.5042657144">
        <ele>109.25</ele>
        <time>2018-12-22T08:53:57Z</time>
      </trkpt>
      <trkpt lat="39.5665169321" lon="-8.5044079553">
        <ele>108.77</ele>
        <time>2018-12-22T08:54:02Z</time>
      </trkpt>
      <trkpt lat="39.5665347017" lon="-8.5045103822">
        <ele>108.29</ele>
        <time>2018-12-22T08:54:06Z</time>
      </trkpt>
      <trkpt lat="39.5665386412" lon="-8.5046343505">
        <ele>108.77</ele>
        <time>2018-12-22T08:54:13Z</time>
      </trkpt>
      <trkpt lat="39.5665496215" lon="-8.5046606697">
        <ele>107.81</ele>
        <time>2018-12-22T08:54:15Z</time>
      </trkpt>
      <trkpt lat="39.5665339474" lon="-8.5048085265">
        <ele>107.81</ele>
        <time>2018-12-22T08:54:21Z</time>
      </trkpt>
      <trkpt lat="39.5665116515" lon="-8.5049346741">
        <ele>107.81</ele>
        <time>2018-12-22T08:54:28Z</time>
      </trkpt>
      <trkpt lat="39.5665004198" lon="-8.5050112847">
        <ele>107.32</ele>
        <time>2018-12-22T08:54:32Z</time>
      </trkpt>
      <trkpt lat="39.5664728433" lon="-8.5050531104">
        <ele>107.32</ele>
        <time>2018-12-22T08:54:38Z</time>
      </trkpt>
      <trkpt lat="39.5664860029" lon="-8.5051029827">
        <ele>107.81</ele>
        <time>2018-12-22T08:54:46Z</time>
      </trkpt>
      <trkpt lat="39.5664875116" lon="-8.5051069222">
        <ele>107.81</ele>
        <time>2018-12-22T08:54:47Z</time>
      </trkpt>
      <trkpt lat="39.5664733462" lon="-8.5051916633">
        <ele>106.84</ele>
        <time>2018-12-22T08:54:54Z</time>
      </trkpt>
      <trkpt lat="39.5664462727" lon="-8.5053069983">
        <ele>106.36</ele>
        <time>2018-12-22T08:55:00Z</time>
      </trkpt>
      <trkpt lat="39.5664632879" lon="-8.5053698625">
        <ele>106.36</ele>
        <time>2018-12-22T08:55:06Z</time>
      </trkpt>
      <trkpt lat="39.5664704964" lon="-8.5053871293">
        <ele>105.40</ele>
        <time>2018-12-22T08:55:12Z</time>
      </trkpt>
      <trkpt lat="39.5664886013" lon="-8.5055234190">
        <ele>105.40</ele>
        <time>2018-12-22T08:55:18Z</time>
      </trkpt>
      <trkpt lat="39.5664877631" lon="-8.5056179669">
        <ele>104.92</ele>
        <time>2018-12-22T08:55:24Z</time>
      </trkpt>
      <trkpt lat="39.5664810576" lon="-8.5056406818">
        <ele>104.92</ele>
        <time>2018-12-22T08:55:30Z</time>
      </trkpt>
      <trkpt lat="39.5665261522" lon="-8.5057581123">
        <ele>105.40</ele>
        <time>2018-12-22T08:55:35Z</time>
      </trkpt>
      <trkpt lat="39.5665543154" lon="-8.5058597848">
        <ele>104.44</ele>
        <time>2018-12-22T08:55:41Z</time>
      </trkpt>
      <trkpt lat="39.5665508788" lon="-8.5058744531">
        <ele>104.44</ele>
        <time>2018-12-22T08:55:43Z</time>
      </trkpt>
      <trkpt lat="39.5665274095" lon="-8.5059884470">
        <ele>104.92</ele>
        <time>2018-12-22T08:55:48Z</time>
      </trkpt>
      <trkpt lat="39.5665163454" lon="-8.5060319491">
        <ele>104.92</ele>
        <time>2018-12-22T08:55:54Z</time>
      </trkpt>
      <trkpt lat="39.5664901100" lon="-8.5061176959">
        <ele>105.88</ele>
        <time>2018-12-22T08:56:00Z</time>
      </trkpt>
      <trkpt lat="39.5664638747" lon="-8.5062611941">
        <ele>105.88</ele>
        <time>2018-12-22T08:56:07Z</time>
      </trkpt>
      <trkpt lat="39.5664560795" lon="-8.5063000023">
        <ele>107.32</ele>
        <time>2018-12-22T08:56:14Z</time>
      </trkpt>
      <trkpt lat="39.5664399862" lon="-8.5063813068">
        <ele>106.84</ele>
        <time>2018-12-22T08:56:17Z</time>
      </trkpt>
      <trkpt lat="39.5664340351" lon="-8.5065069515">
        <ele>108.29</ele>
        <time>2018-12-22T08:56:23Z</time>
      </trkpt>
      <trkpt lat="39.5664492063" lon="-8.5065691452">
        <ele>107.32</ele>
        <time>2018-12-22T08:56:29Z</time>
      </trkpt>
      <trkpt lat="39.5664876793" lon="-8.5066694766">
        <ele>107.81</ele>
        <time>2018-12-22T08:56:35Z</time>
      </trkpt>
      <trkpt lat="39.5665086340" lon="-8.5067045968">
        <ele>108.77</ele>
        <time>2018-12-22T08:56:41Z</time>
      </trkpt>
      <trkpt lat="39.5664966479" lon="-8.5067806207">
        <ele>108.77</ele>
        <time>2018-12-22T08:56:46Z</time>
      </trkpt>
      <trkpt lat="39.5665007550" lon="-8.5067835543">
        <ele>108.77</ele>
        <time>2018-12-22T08:56:47Z</time>
      </trkpt>
      <trkpt lat="39.5665362105" lon="-8.5068579018">
        <ele>109.73</ele>
        <time>2018-12-22T08:56:53Z</time>
      </trkpt>
      <trkpt lat="39.5665398147" lon="-8.5068634339">
        <ele>108.77</ele>
        <time>2018-12-22T08:56:55Z</time>
      </trkpt>
      <trkpt lat="39.5665492024" lon="-8.5068862326">
        <ele>109.25</ele>
        <time>2018-12-22T08:56:58Z</time>
      </trkpt>
      <trkpt lat="39.5665609371" lon="-8.5069873184">
        <ele>108.29</ele>
        <time>2018-12-22T08:57:03Z</time>
      </trkpt>
      <trkpt lat="39.5665866695" lon="-8.5071386956">
        <ele>108.77</ele>
        <time>2018-12-22T08:57:10Z</time>
      </trkpt>
      <trkpt lat="39.5665676426" lon="-8.5072365962">
        <ele>107.32</ele>
        <time>2018-12-22T08:57:16Z</time>
      </trkpt>
      <trkpt lat="39.5665647928" lon="-8.5072356742">
        <ele>107.32</ele>
        <time>2018-12-22T08:57:20Z</time>
      </trkpt>
      <trkpt lat="39.5665912796" lon="-8.5073723830">
        <ele>106.84</ele>
        <time>2018-12-22T08:57:26Z</time>
      </trkpt>
      <trkpt lat="39.5666041877" lon="-8.5074004624">
        <ele>106.84</ele>
        <time>2018-12-22T08:57:32Z</time>
      </trkpt>
      <trkpt lat="39.5666098874" lon="-8.5074256081">
        <ele>106.36</ele>
        <time>2018-12-22T08:57:35Z</time>
      </trkpt>
      <trkpt lat="39.5666392241" lon="-8.5075385123">
        <ele>105.88</ele>
        <time>2018-12-22T08:57:40Z</time>
      </trkpt>
      <trkpt lat="39.5666938741" lon="-8.5077048931">
        <ele>105.40</ele>
        <time>2018-12-22T08:57:47Z</time>
      </trkpt>
      <trkpt lat="39.5666838996" lon="-8.5077253450">
        <ele>105.40</ele>
        <time>2018-12-22T08:57:54Z</time>
      </trkpt>
      <trkpt lat="39.5666750148" lon="-8.5077911429">
        <ele>105.88</ele>
        <time>2018-12-22T08:58:00Z</time>
      </trkpt>
      <trkpt lat="39.5667221211" lon="-8.5079804063">
        <ele>105.40</ele>
        <time>2018-12-22T08:58:06Z</time>
      </trkpt>
      <trkpt lat="39.5667154994" lon="-8.5079715215">
        <ele>105.40</ele>
        <time>2018-12-22T08:58:11Z</time>
      </trkpt>
      <trkpt lat="39.5667089615" lon="-8.5079826694">
        <ele>105.40</ele>
        <time>2018-12-22T08:58:13Z</time>
      </trkpt>
      <trkpt lat="39.5667022560" lon="-8.5080454499">
        <ele>106.84</ele>
        <time>2018-12-22T08:58:16Z</time>
      </trkpt>
      <trkpt lat="39.5667064469" lon="-8.5081081465">
        <ele>104.92</ele>
        <time>2018-12-22T08:58:20Z</time>
      </trkpt>
      <trkpt lat="39.5666990709" lon="-8.5082034487">
        <ele>105.88</ele>
        <time>2018-12-22T08:58:25Z</time>
      </trkpt>
      <trkpt lat="39.5667022560" lon="-8.5082325339">
        <ele>105.88</ele>
        <time>2018-12-22T08:58:26Z</time>
      </trkpt>
      <trkpt lat="39.5667050220" lon="-8.5082643852">
        <ele>105.40</ele>
        <time>2018-12-22T08:58:33Z</time>
      </trkpt>
      <trkpt lat="39.5667068660" lon="-8.5082751978">
        <ele>104.92</ele>
        <time>2018-12-22T08:58:35Z</time>
      </trkpt>
      <trkpt lat="39.5666543953" lon="-8.5084259883">
        <ele>104.92</ele>
        <time>2018-12-22T08:58:41Z</time>
      </trkpt>
      <trkpt lat="39.5666450076" lon="-8.5084562469">
        <ele>104.92</ele>
        <time>2018-12-22T08:58:46Z</time>
      </trkpt>
      <trkpt lat="39.5666455105" lon="-8.5084555764">
        <ele>104.44</ele>
        <time>2018-12-22T08:58:48Z</time>
      </trkpt>
      <trkpt lat="39.5665623620" lon="-8.5085437540">
        <ele>105.40</ele>
        <time>2018-12-22T08:58:54Z</time>
      </trkpt>
      <trkpt lat="39.5665463526" lon="-8.5085548181">
        <ele>104.44</ele>
        <time>2018-12-22T08:58:57Z</time>
      </trkpt>
      <trkpt lat="39.5665019285" lon="-8.5086700693">
        <ele>104.92</ele>
        <time>2018-12-22T08:59:03Z</time>
      </trkpt>
      <trkpt lat="39.5665062033" lon="-8.5086838994">
        <ele>105.40</ele>
        <time>2018-12-22T08:59:06Z</time>
      </trkpt>
      <trkpt lat="39.5664823987" lon="-8.5087680537">
        <ele>105.88</ele>
        <time>2018-12-22T08:59:12Z</time>
      </trkpt>
      <trkpt lat="39.5664832368" lon="-8.5087740887">
        <ele>105.88</ele>
        <time>2018-12-22T08:59:13Z</time>
      </trkpt>
      <trkpt lat="39.5664386451" lon="-8.5088863224">
        <ele>106.36</ele>
        <time>2018-12-22T08:59:19Z</time>
      </trkpt>
      <trkpt lat="39.5664418302" lon="-8.5088828858">
        <ele>106.84</ele>
        <time>2018-12-22T08:59:20Z</time>
      </trkpt>
      <trkpt lat="39.5664208755" lon="-8.5089661181">
        <ele>107.32</ele>
        <time>2018-12-22T08:59:26Z</time>
      </trkpt>
      <trkpt lat="39.5664074644" lon="-8.5090431478">
        <ele>107.81</ele>
        <time>2018-12-22T08:59:31Z</time>
      </trkpt>
      <trkpt lat="39.5664072130" lon="-8.5090645216">
        <ele>108.29</ele>
        <time>2018-12-22T08:59:34Z</time>
      </trkpt>
      <trkpt lat="39.5663860068" lon="-8.5091547947">
        <ele>108.77</ele>
        <time>2018-12-22T08:59:41Z</time>
      </trkpt>
      <trkpt lat="39.5663873479" lon="-8.5091597401">
        <ele>108.77</ele>
        <time>2018-12-22T08:59:42Z</time>
      </trkpt>
      <trkpt lat="39.5663707517" lon="-8.5092469119">
        <ele>110.21</ele>
        <time>2018-12-22T08:59:48Z</time>
      </trkpt>
      <trkpt lat="39.5663673151" lon="-8.5093109496">
        <ele>110.69</ele>
        <time>2018-12-22T08:59:53Z</time>
      </trkpt>
      <trkpt lat="39.5663760323" lon="-8.5093355086">
        <ele>111.17</ele>
        <time>2018-12-22T08:59:57Z</time>
      </trkpt>
      <trkpt lat="39.5663782116" lon="-8.5094169807">
        <ele>112.13</ele>
        <time>2018-12-22T09:00:03Z</time>
      </trkpt>
      <trkpt lat="39.5663760323" lon="-8.5094657633">
        <ele>112.61</ele>
        <time>2018-12-22T09:00:07Z</time>
      </trkpt>
      <trkpt lat="39.5663740207" lon="-8.5094951000">
        <ele>113.57</ele>
        <time>2018-12-22T09:00:10Z</time>
      </trkpt>
      <trkpt lat="39.5663709193" lon="-8.5095343273">
        <ele>114.05</ele>
        <time>2018-12-22T09:00:14Z</time>
      </trkpt>
      <trkpt lat="39.5663540717" lon="-8.5095912404">
        <ele>115.50</ele>
        <time>2018-12-22T09:00:20Z</time>
      </trkpt>
      <trkpt lat="39.5663510542" lon="-8.5096009634">
        <ele>115.50</ele>
        <time>2018-12-22T09:00:21Z</time>
      </trkpt>
      <trkpt lat="39.5663304348" lon="-8.5096629057">
        <ele>116.46</ele>
        <time>2018-12-22T09:00:27Z</time>
      </trkpt>
      <trkpt lat="39.5663161855" lon="-8.5097378399">
        <ele>117.90</ele>
        <time>2018-12-22T09:00:32Z</time>
      </trkpt>
      <trkpt lat="39.5663181134" lon="-8.5097442102">
        <ele>118.38</ele>
        <time>2018-12-22T09:00:33Z</time>
      </trkpt>
      <trkpt lat="39.5663164370" lon="-8.5098193958">
        <ele>119.34</ele>
        <time>2018-12-22T09:00:38Z</time>
      </trkpt>
      <trkpt lat="39.5663171075" lon="-8.5098415241">
        <ele>119.82</ele>
        <time>2018-12-22T09:00:43Z</time>
      </trkpt>
      <trkpt lat="39.5663107373" lon="-8.5098447092">
        <ele>119.82</ele>
        <time>2018-12-22T09:00:47Z</time>
      </trkpt>
      <trkpt lat="39.5662869327" lon="-8.5098832659">
        <ele>119.82</ele>
        <time>2018-12-22T09:00:52Z</time>
      </trkpt>
      <trkpt lat="39.5662690792" lon="-8.5099553503">
        <ele>120.30</ele>
        <time>2018-12-22T09:00:58Z</time>
      </trkpt>
      <trkpt lat="39.5662657265" lon="-8.5100119282">
        <ele>121.26</ele>
        <time>2018-12-22T09:01:02Z</time>
      </trkpt>
      <trkpt lat="39.5662655588" lon="-8.5100299492">
        <ele>121.74</ele>
        <time>2018-12-22T09:01:04Z</time>
      </trkpt>
      <trkpt lat="39.5662687439" lon="-8.5100515746">
        <ele>122.22</ele>
        <time>2018-12-22T09:01:07Z</time>
      </trkpt>
      <trkpt lat="39.5662698336" lon="-8.5100849345">
        <ele>122.71</ele>
        <time>2018-12-22T09:01:11Z</time>
      </trkpt>
      <trkpt lat="39.5662665647" lon="-8.5101526603">
        <ele>123.19</ele>
        <time>2018-12-22T09:01:17Z</time>
      </trkpt>
      <trkpt lat="39.5662674028" lon="-8.5101749562">
        <ele>124.15</ele>
        <time>2018-12-22T09:01:19Z</time>
      </trkpt>
      <trkpt lat="39.5662714262" lon="-8.5102306958">
        <ele>125.11</ele>
        <time>2018-12-22T09:01:24Z</time>
      </trkpt>
      <trkpt lat="39.5662669837" lon="-8.5102631338">
        <ele>125.59</ele>
        <time>2018-12-22T09:01:27Z</time>
      </trkpt>
      <trkpt lat="39.5662606135" lon="-8.5102873575">
        <ele>126.55</ele>
        <time>2018-12-22T09:01:32Z</time>
      </trkpt>
      <trkpt lat="39.5662673190" lon="-8.5103377327">
        <ele>127.99</ele>
        <time>2018-12-22T09:01:37Z</time>
      </trkpt>
      <trkpt lat="39.5662703365" lon="-8.5103708412">
        <ele>127.99</ele>
        <time>2018-12-22T09:01:40Z</time>
      </trkpt>
      <trkpt lat="39.5662885252" lon="-8.5104187857">
        <ele>128.95</ele>
        <time>2018-12-22T09:01:45Z</time>
      </trkpt>
      <trkpt lat="39.5663127489" lon="-8.5104620364">
        <ele>130.40</ele>
        <time>2018-12-22T09:01:50Z</time>
      </trkpt>
      <trkpt lat="39.5663176104" lon="-8.5104679875">
        <ele>130.40</ele>
        <time>2018-12-22T09:01:51Z</time>
      </trkpt>
      <trkpt lat="39.5663402416" lon="-8.5104930494">
        <ele>130.88</ele>
        <time>2018-12-22T09:01:55Z</time>
      </trkpt>
      <trkpt lat="39.5663479529" lon="-8.5105024371">
        <ele>131.36</ele>
        <time>2018-12-22T09:01:56Z</time>
      </trkpt>
      <trkpt lat="39.5663576759" lon="-8.5105160158">
        <ele>131.84</ele>
        <time>2018-12-22T09:02:02Z</time>
      </trkpt>
      <trkpt lat="39.5663822349" lon="-8.5105530638">
        <ele>132.32</ele>
        <time>2018-12-22T09:02:07Z</time>
      </trkpt>
      <trkpt lat="39.5663853362" lon="-8.5105562489">
        <ele>132.80</ele>
        <time>2018-12-22T09:02:08Z</time>
      </trkpt>
      <trkpt lat="39.5664036926" lon="-8.5105881002">
        <ele>133.28</ele>
        <time>2018-12-22T09:02:12Z</time>
      </trkpt>
      <trkpt lat="39.5664253179" lon="-8.5106321052">
        <ele>133.76</ele>
        <time>2018-12-22T09:02:16Z</time>
      </trkpt>
      <trkpt lat="39.5664506312" lon="-8.5106618609">
        <ele>134.24</ele>
        <time>2018-12-22T09:02:21Z</time>
      </trkpt>
      <trkpt lat="39.5664369687" lon="-8.5107122362">
        <ele>135.20</ele>
        <time>2018-12-22T09:02:27Z</time>
      </trkpt>
      <trkpt lat="39.5664368849" lon="-8.5107547324">
        <ele>135.20</ele>
        <time>2018-12-22T09:02:35Z</time>
      </trkpt>
      <trkpt lat="39.5664339513" lon="-8.5107706580">
        <ele>135.68</ele>
        <time>2018-12-22T09:02:38Z</time>
      </trkpt>
      <trkpt lat="39.5663806424" lon="-8.5108167585">
        <ele>135.68</ele>
        <time>2018-12-22T09:02:43Z</time>
      </trkpt>
      <trkpt lat="39.5663127489" lon="-8.5108520463">
        <ele>137.13</ele>
        <time>2018-12-22T09:02:49Z</time>
      </trkpt>
      <trkpt lat="39.5662803948" lon="-8.5108910222">
        <ele>137.13</ele>
        <time>2018-12-22T09:02:54Z</time>
      </trkpt>
      <trkpt lat="39.5662777964" lon="-8.5109600890">
        <ele>138.09</ele>
        <time>2018-12-22T09:03:00Z</time>
      </trkpt>
      <trkpt lat="39.5662632119" lon="-8.5110870749">
        <ele>138.09</ele>
        <time>2018-12-22T09:03:08Z</time>
      </trkpt>
      <trkpt lat="39.5662822388" lon="-8.5111268889">
        <ele>137.13</ele>
        <time>2018-12-22T09:03:11Z</time>
      </trkpt>
      <trkpt lat="39.5663559157" lon="-8.5112433974">
        <ele>138.09</ele>
        <time>2018-12-22T09:03:16Z</time>
      </trkpt>
      <trkpt lat="39.5663531497" lon="-8.5112646874">
        <ele>138.09</ele>
        <time>2018-12-22T09:03:22Z</time>
      </trkpt>
      <trkpt lat="39.5663770381" lon="-8.5112952814">
        <ele>138.09</ele>
        <time>2018-12-22T09:03:27Z</time>
      </trkpt>
      <trkpt lat="39.5664587617" lon="-8.5114207584">
        <ele>138.09</ele>
        <time>2018-12-22T09:03:35Z</time>
      </trkpt>
      <trkpt lat="39.5664929599" lon="-8.5114518553">
        <ele>138.57</ele>
        <time>2018-12-22T09:03:40Z</time>
      </trkpt>
      <trkpt lat="39.5664955582" lon="-8.5114625841">
        <ele>139.05</ele>
        <time>2018-12-22T09:03:42Z</time>
      </trkpt>
      <trkpt lat="39.5665565785" lon="-8.5115358420">
        <ele>139.05</ele>
        <time>2018-12-22T09:03:48Z</time>
      </trkpt>
      <trkpt lat="39.5665774494" lon="-8.5115614068">
        <ele>138.57</ele>
        <time>2018-12-22T09:03:54Z</time>
      </trkpt>
      <trkpt lat="39.5666251425" lon="-8.5116144642">
        <ele>139.05</ele>
        <time>2018-12-22T09:03:58Z</time>
      </trkpt>
      <trkpt lat="39.5667139906" lon="-8.5116697010">
        <ele>139.05</ele>
        <time>2018-12-22T09:04:04Z</time>
      </trkpt>
      <trkpt lat="39.5667115599" lon="-8.5116826091">
        <ele>138.57</ele>
        <time>2018-12-22T09:04:06Z</time>
      </trkpt>
      <trkpt lat="39.5667959657" lon="-8.5117248539">
        <ele>139.53</ele>
        <time>2018-12-22T09:04:12Z</time>
      </trkpt>
      <trkpt lat="39.5668061078" lon="-8.5117247701">
        <ele>140.01</ele>
        <time>2018-12-22T09:04:15Z</time>
      </trkpt>
      <trkpt lat="39.5668905973" lon="-8.5117673501">
        <ele>140.49</ele>
        <time>2018-12-22T09:04:21Z</time>
      </trkpt>
      <trkpt lat="39.5669240411" lon="-8.5118105169">
        <ele>141.45</ele>
        <time>2018-12-22T09:04:27Z</time>
      </trkpt>
      <trkpt lat="39.5670180023" lon="-8.5118433740">
        <ele>141.45</ele>
        <time>2018-12-22T09:04:32Z</time>
      </trkpt>
      <trkpt lat="39.5670357719" lon="-8.5118520912">
        <ele>141.45</ele>
        <time>2018-12-22T09:04:36Z</time>
      </trkpt>
      <trkpt lat="39.5671208482" lon="-8.5119005386">
        <ele>141.93</ele>
        <time>2018-12-22T09:04:42Z</time>
      </trkpt>
      <trkpt lat="39.5671159867" lon="-8.5119031370">
        <ele>142.41</ele>
        <time>2018-12-22T09:04:46Z</time>
      </trkpt>
      <trkpt lat="39.5671540406" lon="-8.5119157936">
        <ele>142.41</ele>
        <time>2018-12-22T09:04:50Z</time>
      </trkpt>
      <trkpt lat="39.5671787672" lon="-8.5119290370">
        <ele>142.89</ele>
        <time>2018-12-22T09:04:55Z</time>
      </trkpt>
      <trkpt lat="39.5671951957" lon="-8.5119363293">
        <ele>143.37</ele>
        <time>2018-12-22T09:04:57Z</time>
      </trkpt>
      <trkpt lat="39.5672920905" lon="-8.5119607206">
        <ele>143.85</ele>
        <time>2018-12-22T09:05:03Z</time>
      </trkpt>
      <trkpt lat="39.5672878157" lon="-8.5119758919">
        <ele>144.34</ele>
        <time>2018-12-22T09:05:06Z</time>
      </trkpt>
      <trkpt lat="39.5673774183" lon="-8.5120084137">
        <ele>143.85</ele>
        <time>2018-12-22T09:05:12Z</time>
      </trkpt>
      <trkpt lat="39.5673941821" lon="-8.5120141134">
        <ele>143.85</ele>
        <time>2018-12-22T09:05:16Z</time>
      </trkpt>
      <trkpt lat="39.5674915798" lon="-8.5120465513">
        <ele>144.82</ele>
        <time>2018-12-22T09:05:22Z</time>
      </trkpt>
      <trkpt lat="39.5675500017" lon="-8.5120682605">
        <ele>144.82</ele>
        <time>2018-12-22T09:05:28Z</time>
      </trkpt>
      <trkpt lat="39.5676035620" lon="-8.5120871197">
        <ele>145.78</ele>
        <time>2018-12-22T09:05:33Z</time>
      </trkpt>
      <trkpt lat="39.5676322281" lon="-8.5120949149">
        <ele>145.78</ele>
        <time>2018-12-22T09:05:36Z</time>
      </trkpt>
      <trkpt lat="39.5677074976" lon="-8.5121253412">
        <ele>146.26</ele>
        <time>2018-12-22T09:05:40Z</time>
      </trkpt>
      <trkpt lat="39.5677640755" lon="-8.5121225752">
        <ele>146.74</ele>
        <time>2018-12-22T09:05:47Z</time>
      </trkpt>
      <trkpt lat="39.5678530075" lon="-8.5121634789">
        <ele>146.26</ele>
        <time>2018-12-22T09:05:53Z</time>
      </trkpt>
      <trkpt lat="39.5678883791" lon="-8.5121714417">
        <ele>145.78</ele>
        <time>2018-12-22T09:05:59Z</time>
      </trkpt>
      <trkpt lat="39.5679934882" lon="-8.5122367367">
        <ele>146.26</ele>
        <time>2018-12-22T09:06:06Z</time>
      </trkpt>
      <trkpt lat="39.5680024568" lon="-8.5122410953">
        <ele>147.22</ele>
        <time>2018-12-22T09:06:10Z</time>
      </trkpt>
      <trkpt lat="39.5680572744" lon="-8.5123721883">
        <ele>147.70</ele>
        <time>2018-12-22T09:06:16Z</time>
      </trkpt>
      <trkpt lat="39.5680784807" lon="-8.5124181211">
        <ele>147.70</ele>
        <time>2018-12-22T09:06:23Z</time>
      </trkpt>
      <trkpt lat="39.5680904668" lon="-8.5125569254">
        <ele>148.18</ele>
        <time>2018-12-22T09:06:31Z</time>
      </trkpt>
      <trkpt lat="39.5680905506" lon="-8.5125632957">
        <ele>147.70</ele>
        <time>2018-12-22T09:06:34Z</time>
      </trkpt>
      <trkpt lat="39.5680953283" lon="-8.5127176903">
        <ele>148.18</ele>
        <time>2018-12-22T09:06:41Z</time>
      </trkpt>
      <trkpt lat="39.5680949092" lon="-8.5127446800">
        <ele>147.70</ele>
        <time>2018-12-22T09:06:47Z</time>
      </trkpt>
      <trkpt lat="39.5681095775" lon="-8.5129077919">
        <ele>147.22</ele>
        <time>2018-12-22T09:06:53Z</time>
      </trkpt>
      <trkpt lat="39.5681121759" lon="-8.5128989071">
        <ele>147.22</ele>
        <time>2018-12-22T09:06:59Z</time>
      </trkpt>
      <trkpt lat="39.5681203902" lon="-8.5129801277">
        <ele>146.74</ele>
        <time>2018-12-22T09:07:05Z</time>
      </trkpt>
      <trkpt lat="39.5681272633" lon="-8.5131620988">
        <ele>146.74</ele>
        <time>2018-12-22T09:07:11Z</time>
      </trkpt>
      <trkpt lat="39.5681184623" lon="-8.5131886695">
        <ele>146.26</ele>
        <time>2018-12-22T09:07:17Z</time>
      </trkpt>
      <trkpt lat="39.5681143552" lon="-8.5133183375">
        <ele>146.26</ele>
        <time>2018-12-22T09:07:22Z</time>
      </trkpt>
      <trkpt lat="39.5681032073" lon="-8.5133724846">
        <ele>146.26</ele>
        <time>2018-12-22T09:07:28Z</time>
      </trkpt>
      <trkpt lat="39.5681140199" lon="-8.5135217663">
        <ele>146.26</ele>
        <time>2018-12-22T09:07:36Z</time>
      </trkpt>
      <trkpt lat="39.5681126788" lon="-8.5135511868">
        <ele>145.30</ele>
        <time>2018-12-22T09:07:41Z</time>
      </trkpt>
      <trkpt lat="39.5681163669" lon="-8.5135602392">
        <ele>145.78</ele>
        <time>2018-12-22T09:07:42Z</time>
      </trkpt>
      <trkpt lat="39.5681289397" lon="-8.5137009714">
        <ele>146.26</ele>
        <time>2018-12-22T09:07:49Z</time>
      </trkpt>
      <trkpt lat="39.5681391656" lon="-8.5137389414">
        <ele>146.74</ele>
        <time>2018-12-22T09:07:54Z</time>
      </trkpt>
      <trkpt lat="39.5681382436" lon="-8.5138400272">
        <ele>147.22</ele>
        <time>2018-12-22T09:08:01Z</time>
      </trkpt>
      <trkpt lat="39.5681461226" lon="-8.5138853732">
        <ele>147.70</ele>
        <time>2018-12-22T09:08:05Z</time>
      </trkpt>
      <trkpt lat="39.5681721903" lon="-8.5139848664">
        <ele>148.18</ele>
        <time>2018-12-22T09:08:09Z</time>
      </trkpt>
      <trkpt lat="39.5681737829" lon="-8.5140160471">
        <ele>148.18</ele>
        <time>2018-12-22T09:08:14Z</time>
      </trkpt>
      <trkpt lat="39.5681973360" lon="-8.5140949208">
        <ele>148.66</ele>
        <time>2018-12-22T09:08:20Z</time>
      </trkpt>
      <trkpt lat="39.5682516508" lon="-8.5141897202">
        <ele>148.18</ele>
        <time>2018-12-22T09:08:26Z</time>
      </trkpt>
      <trkpt lat="39.5682688337" lon="-8.5142312944">
        <ele>148.18</ele>
        <time>2018-12-22T09:08:32Z</time>
      </trkpt>
      <trkpt lat="39.5683382358" lon="-8.5143203940">
        <ele>147.70</ele>
        <time>2018-12-22T09:08:37Z</time>
      </trkpt>
      <trkpt lat="39.5683318656" lon="-8.5143481381">
        <ele>148.18</ele>
        <time>2018-12-22T09:08:44Z</time>
      </trkpt>
      <trkpt lat="39.5684192888" lon="-8.5144643951">
        <ele>148.18</ele>
        <time>2018-12-22T09:08:50Z</time>
      </trkpt>
      <trkpt lat="39.5684631262" lon="-8.5145059694">
        <ele>148.18</ele>
        <time>2018-12-22T09:08:55Z</time>
      </trkpt>
      <trkpt lat="39.5685031079" lon="-8.5145486332">
        <ele>147.70</ele>
        <time>2018-12-22T09:09:01Z</time>
      </trkpt>
      <trkpt lat="39.5685947221" lon="-8.5146426782">
        <ele>148.66</ele>
        <time>2018-12-22T09:09:07Z</time>
      </trkpt>
      <trkpt lat="39.5686127432" lon="-8.5146850906">
        <ele>152.03</ele>
        <time>2018-12-22T09:09:11Z</time>
      </trkpt>
      <trkpt lat="39.5686176885" lon="-8.5146976635">
        <ele>148.18</ele>
        <time>2018-12-22T09:09:12Z</time>
      </trkpt>
      <trkpt lat="39.5686502941" lon="-8.5147838295">
        <ele>144.34</ele>
        <time>2018-12-22T09:09:19Z</time>
      </trkpt>
      <trkpt lat="39.5686560776" lon="-8.5147940554">
        <ele>144.34</ele>
        <time>2018-12-22T09:09:20Z</time>
      </trkpt>
      <trkpt lat="39.5686632860" lon="-8.5148021858">
        <ele>148.18</ele>
        <time>2018-12-22T09:09:21Z</time>
      </trkpt>
      <trkpt lat="39.5686730091" lon="-8.5148119926">
        <ele>146.74</ele>
        <time>2018-12-22T09:09:22Z</time>
      </trkpt>
      <trkpt lat="39.5687036868" lon="-8.5148466099">
        <ele>146.74</ele>
        <time>2018-12-22T09:09:28Z</time>
      </trkpt>
      <trkpt lat="39.5687507931" lon="-8.5149163473">
        <ele>145.78</ele>
        <time>2018-12-22T09:09:33Z</time>
      </trkpt>
      <trkpt lat="39.5687625278" lon="-8.5149282496">
        <ele>145.78</ele>
        <time>2018-12-22T09:09:35Z</time>
      </trkpt>
      <trkpt lat="39.5687732566" lon="-8.5149424151">
        <ele>146.26</ele>
        <time>2018-12-22T09:09:37Z</time>
      </trkpt>
      <trkpt lat="39.5687971450" lon="-8.5149867553">
        <ele>146.26</ele>
        <time>2018-12-22T09:09:40Z</time>
      </trkpt>
      <trkpt lat="39.5688328519" lon="-8.5150516313">
        <ele>145.78</ele>
        <time>2018-12-22T09:09:45Z</time>
      </trkpt>
      <trkpt lat="39.5688687265" lon="-8.5151027609">
        <ele>141.93</ele>
        <time>2018-12-22T09:09:52Z</time>
      </trkpt>
      <trkpt lat="39.5688751806" lon="-8.5151128192">
        <ele>148.18</ele>
        <time>2018-12-22T09:09:53Z</time>
      </trkpt>
      <trkpt lat="39.5688818023" lon="-8.5151219554">
        <ele>147.70</ele>
        <time>2018-12-22T09:09:54Z</time>
      </trkpt>
      <trkpt lat="39.5688885078" lon="-8.5151316784">
        <ele>142.89</ele>
        <time>2018-12-22T09:09:55Z</time>
      </trkpt>
      <trkpt lat="39.5688958839" lon="-8.5151407309">
        <ele>147.22</ele>
        <time>2018-12-22T09:09:56Z</time>
      </trkpt>
      <trkpt lat="39.5689183474" lon="-8.5151684750">
        <ele>143.85</ele>
        <time>2018-12-22T09:09:59Z</time>
      </trkpt>
      <trkpt lat="39.5689382963" lon="-8.5151966382">
        <ele>144.34</ele>
        <time>2018-12-22T09:10:03Z</time>
      </trkpt>
      <trkpt lat="39.5689498633" lon="-8.5152136534">
        <ele>144.34</ele>
        <time>2018-12-22T09:10:05Z</time>
      </trkpt>
      <trkpt lat="39.5689607598" lon="-8.5152332671">
        <ele>144.34</ele>
        <time>2018-12-22T09:10:07Z</time>
      </trkpt>
      <trkpt lat="39.5690053515" lon="-8.5152966343">
        <ele>143.85</ele>
        <time>2018-12-22T09:10:11Z</time>
      </trkpt>
      <trkpt lat="39.5690324251" lon="-8.5153203551">
        <ele>144.34</ele>
        <time>2018-12-22T09:10:15Z</time>
      </trkpt>
      <trkpt lat="39.5690624323" lon="-8.5153738316">
        <ele>144.34</ele>
        <time>2018-12-22T09:10:23Z</time>
      </trkpt>
      <trkpt lat="39.5690787770" lon="-8.5154034197">
        <ele>142.89</ele>
        <time>2018-12-22T09:10:28Z</time>
      </trkpt>
      <trkpt lat="39.5691849757" lon="-8.5155343451">
        <ele>141.93</ele>
        <time>2018-12-22T09:10:35Z</time>
      </trkpt>
      <trkpt lat="39.5692122169" lon="-8.5155581497">
        <ele>141.45</ele>
        <time>2018-12-22T09:10:40Z</time>
      </trkpt>
      <trkpt lat="39.5692106243" lon="-8.5155665316">
        <ele>141.45</ele>
        <time>2018-12-22T09:10:44Z</time>
      </trkpt>
      <trkpt lat="39.5692392066" lon="-8.5156443156">
        <ele>141.45</ele>
        <time>2018-12-22T09:10:48Z</time>
      </trkpt>
      <trkpt lat="39.5692745782" lon="-8.5157605726">
        <ele>140.97</ele>
        <time>2018-12-22T09:10:53Z</time>
      </trkpt>
      <trkpt lat="39.5693001430" lon="-8.5157934297">
        <ele>140.01</ele>
        <time>2018-12-22T09:10:59Z</time>
      </trkpt>
      <trkpt lat="39.5693305694" lon="-8.5158831999">
        <ele>140.97</ele>
        <time>2018-12-22T09:11:05Z</time>
      </trkpt>
      <trkpt lat="39.5693724789" lon="-8.5159941763">
        <ele>140.01</ele>
        <time>2018-12-22T09:11:11Z</time>
      </trkpt>
      <trkpt lat="39.5693744067" lon="-8.5160120297">
        <ele>140.01</ele>
        <time>2018-12-22T09:11:16Z</time>
      </trkpt>
      <trkpt lat="39.5693920925" lon="-8.5161396023">
        <ele>138.57</ele>
        <time>2018-12-22T09:11:22Z</time>
      </trkpt>
      <trkpt lat="39.5693954453" lon="-8.5161856189">
        <ele>138.57</ele>
        <time>2018-12-22T09:11:27Z</time>
      </trkpt>
      <trkpt lat="39.5693930145" lon="-8.5161927436">
        <ele>138.57</ele>
        <time>2018-12-22T09:11:29Z</time>
      </trkpt>
      <trkpt lat="39.5693544578" lon="-8.5163535923">
        <ele>139.05</ele>
        <time>2018-12-22T09:11:36Z</time>
      </trkpt>
      <trkpt lat="39.5693251211" lon="-8.5163780674">
        <ele>137.61</ele>
        <time>2018-12-22T09:11:43Z</time>
      </trkpt>
      <trkpt lat="39.5692970417" lon="-8.5164178815">
        <ele>137.13</ele>
        <time>2018-12-22T09:11:49Z</time>
      </trkpt>
      <trkpt lat="39.5692874026" lon="-8.5163894668">
        <ele>138.09</ele>
        <time>2018-12-22T09:11:56Z</time>
      </trkpt>
      <trkpt lat="39.5693044178" lon="-8.5164180491">
        <ele>138.57</ele>
        <time>2018-12-22T09:12:01Z</time>
      </trkpt>
      <trkpt lat="39.5692916773" lon="-8.5164326336">
        <ele>138.09</ele>
        <time>2018-12-22T09:12:03Z</time>
      </trkpt>
      <trkpt lat="39.5691689663" lon="-8.5165467951">
        <ele>139.05</ele>
        <time>2018-12-22T09:12:11Z</time>
      </trkpt>
      <trkpt lat="39.5691427309" lon="-8.5165747069">
        <ele>138.09</ele>
        <time>2018-12-22T09:12:17Z</time>
      </trkpt>
      <trkpt lat="39.5690828003" lon="-8.5166515689">
        <ele>138.09</ele>
        <time>2018-12-22T09:12:22Z</time>
      </trkpt>
      <trkpt lat="39.5690574870" lon="-8.5166682489">
        <ele>139.53</ele>
        <time>2018-12-22T09:12:27Z</time>
      </trkpt>
      <trkpt lat="39.5689877495" lon="-8.5167586897">
        <ele>139.05</ele>
        <time>2018-12-22T09:12:33Z</time>
      </trkpt>
      <trkpt lat="39.5689565688" lon="-8.5167953186">
        <ele>139.05</ele>
        <time>2018-12-22T09:12:39Z</time>
      </trkpt>
      <trkpt lat="39.5688906033" lon="-8.5168748628">
        <ele>139.05</ele>
        <time>2018-12-22T09:12:45Z</time>
      </trkpt>
      <trkpt lat="39.5688861609" lon="-8.5168813169">
        <ele>139.53</ele>
        <time>2018-12-22T09:12:48Z</time>
      </trkpt>
      <trkpt lat="39.5688137412" lon="-8.5169660579">
        <ele>139.53</ele>
        <time>2018-12-22T09:12:55Z</time>
      </trkpt>
      <trkpt lat="39.5687896013" lon="-8.5170102306">
        <ele>140.49</ele>
        <time>2018-12-22T09:13:01Z</time>
      </trkpt>
      <trkpt lat="39.5687564928" lon="-8.5170395672">
        <ele>139.53</ele>
        <time>2018-12-22T09:13:03Z</time>
      </trkpt>
      <trkpt lat="39.5687176008" lon="-8.5171159264">
        <ele>140.49</ele>
        <time>2018-12-22T09:13:10Z</time>
      </trkpt>
      <trkpt lat="39.5686695725" lon="-8.5172231309">
        <ele>140.97</ele>
        <time>2018-12-22T09:13:16Z</time>
      </trkpt>
      <trkpt lat="39.5686615258" lon="-8.5172413196">
        <ele>140.49</ele>
        <time>2018-12-22T09:13:17Z</time>
      </trkpt>
      <trkpt lat="39.5686686505" lon="-8.5172882583">
        <ele>140.49</ele>
        <time>2018-12-22T09:13:24Z</time>
      </trkpt>
      <trkpt lat="39.5686883479" lon="-8.5173974745">
        <ele>140.49</ele>
        <time>2018-12-22T09:13:29Z</time>
      </trkpt>
      <trkpt lat="39.5687119849" lon="-8.5174579080">
        <ele>140.97</ele>
        <time>2018-12-22T09:13:35Z</time>
      </trkpt>
      <trkpt lat="39.5687424112" lon="-8.5175050143">
        <ele>141.45</ele>
        <time>2018-12-22T09:13:41Z</time>
      </trkpt>
      <trkpt lat="39.5688153338" lon="-8.5176220257">
        <ele>140.97</ele>
        <time>2018-12-22T09:13:48Z</time>
      </trkpt>
      <trkpt lat="39.5688392222" lon="-8.5176490154">
        <ele>141.93</ele>
        <time>2018-12-22T09:13:52Z</time>
      </trkpt>
      <trkpt lat="39.5689051878" lon="-8.5177449882">
        <ele>141.45</ele>
        <time>2018-12-22T09:13:58Z</time>
      </trkpt>
      <trkpt lat="39.5689572394" lon="-8.5178337526">
        <ele>142.41</ele>
        <time>2018-12-22T09:14:05Z</time>
      </trkpt>
      <trkpt lat="39.5689936168" lon="-8.5178829543">
        <ele>142.41</ele>
        <time>2018-12-22T09:14:10Z</time>
      </trkpt>
      <trkpt lat="39.5690512005" lon="-8.5179725569">
        <ele>142.89</ele>
        <time>2018-12-22T09:14:17Z</time>
      </trkpt>
      <trkpt lat="39.5690801181" lon="-8.5180102754">
        <ele>142.41</ele>
        <time>2018-12-22T09:14:23Z</time>
      </trkpt>
      <trkpt lat="39.5690877456" lon="-8.5180180706">
        <ele>142.89</ele>
        <time>2018-12-22T09:14:24Z</time>
      </trkpt>
      <trkpt lat="39.5691558905" lon="-8.5180761572">
        <ele>143.85</ele>
        <time>2018-12-22T09:14:31Z</time>
      </trkpt>
      <trkpt lat="39.5691599976" lon="-8.5180805996">
        <ele>143.85</ele>
        <time>2018-12-22T09:14:33Z</time>
      </trkpt>
      <trkpt lat="39.5692530368" lon="-8.5181543604">
        <ele>144.34</ele>
        <time>2018-12-22T09:14:40Z</time>
      </trkpt>
      <trkpt lat="39.5692953654" lon="-8.5181869660">
        <ele>143.85</ele>
        <time>2018-12-22T09:14:47Z</time>
      </trkpt>
      <trkpt lat="39.5693944395" lon="-8.5182670131">
        <ele>143.37</ele>
        <time>2018-12-22T09:14:53Z</time>
      </trkpt>
      <trkpt lat="39.5694223512" lon="-8.5182753112">
        <ele>143.85</ele>
        <time>2018-12-22T09:14:59Z</time>
      </trkpt>
      <trkpt lat="39.5695186593" lon="-8.5183370020">
        <ele>144.34</ele>
        <time>2018-12-22T09:15:05Z</time>
      </trkpt>
      <trkpt lat="39.5695498399" lon="-8.5183539335">
        <ele>143.85</ele>
        <time>2018-12-22T09:15:11Z</time>
      </trkpt>
      <trkpt lat="39.5696365926" lon="-8.5184414405">
        <ele>143.85</ele>
        <time>2018-12-22T09:15:17Z</time>
      </trkpt>
      <trkpt lat="39.5696538594" lon="-8.5184768960">
        <ele>142.41</ele>
        <time>2018-12-22T09:15:23Z</time>
      </trkpt>
      <trkpt lat="39.5696566254" lon="-8.5184834339">
        <ele>142.41</ele>
        <time>2018-12-22T09:15:25Z</time>
      </trkpt>
      <trkpt lat="39.5697297994" lon="-8.5185777303">
        <ele>142.41</ele>
        <time>2018-12-22T09:15:32Z</time>
      </trkpt>
      <trkpt lat="39.5697555318" lon="-8.5186104197">
        <ele>142.89</ele>
        <time>2018-12-22T09:15:38Z</time>
      </trkpt>
      <trkpt lat="39.5698471460" lon="-8.5187123436">
        <ele>142.89</ele>
        <time>2018-12-22T09:15:45Z</time>
      </trkpt>
      <trkpt lat="39.5698872115" lon="-8.5187493917">
        <ele>143.37</ele>
        <time>2018-12-22T09:15:51Z</time>
      </trkpt>
      <trkpt lat="39.5699457172" lon="-8.5188470408">
        <ele>143.37</ele>
        <time>2018-12-22T09:15:57Z</time>
      </trkpt>
      <trkpt lat="39.5699773170" lon="-8.5188919678">
        <ele>143.37</ele>
        <time>2018-12-22T09:16:03Z</time>
      </trkpt>
      <trkpt lat="39.5700124372" lon="-8.5189684946">
        <ele>143.37</ele>
        <time>2018-12-22T09:16:08Z</time>
      </trkpt>
      <trkpt lat="39.5700550172" lon="-8.5190278385">
        <ele>143.37</ele>
        <time>2018-12-22T09:16:13Z</time>
      </trkpt>
      <trkpt lat="39.5700787380" lon="-8.5190990008">
        <ele>143.85</ele>
        <time>2018-12-22T09:16:19Z</time>
      </trkpt>
      <trkpt lat="39.5701240841" lon="-8.5192090552">
        <ele>144.34</ele>
        <time>2018-12-22T09:16:26Z</time>
      </trkpt>
      <trkpt lat="39.5701355673" lon="-8.5192146711">
        <ele>143.85</ele>
        <time>2018-12-22T09:16:28Z</time>
      </trkpt>
      <trkpt lat="39.5701457094" lon="-8.5193706583">
        <ele>143.85</ele>
        <time>2018-12-22T09:16:35Z</time>
      </trkpt>
      <trkpt lat="39.5701409318" lon="-8.5194093827">
        <ele>143.85</ele>
        <time>2018-12-22T09:16:41Z</time>
      </trkpt>
      <trkpt lat="39.5701385848" lon="-8.5194969736">
        <ele>143.85</ele>
        <time>2018-12-22T09:16:46Z</time>
      </trkpt>
      <trkpt lat="39.5701395907" lon="-8.5195497796">
        <ele>144.34</ele>
        <time>2018-12-22T09:16:48Z</time>
      </trkpt>
      <trkpt lat="39.5701513253" lon="-8.5195973888">
        <ele>144.82</ele>
        <time>2018-12-22T09:16:54Z</time>
      </trkpt>
      <trkpt lat="39.5701514930" lon="-8.5196393821">
        <ele>144.82</ele>
        <time>2018-12-22T09:16:57Z</time>
      </trkpt>
      <trkpt lat="39.5701484755" lon="-8.5197534598">
        <ele>144.82</ele>
        <time>2018-12-22T09:17:01Z</time>
      </trkpt>
      <trkpt lat="39.5701484755" lon="-8.5197990574">
        <ele>144.82</ele>
        <time>2018-12-22T09:17:07Z</time>
      </trkpt>
      <trkpt lat="39.5701451227" lon="-8.5198971257">
        <ele>145.30</ele>
        <time>2018-12-22T09:17:12Z</time>
      </trkpt>
      <trkpt lat="39.5701457094" lon="-8.5199183319">
        <ele>145.78</ele>
        <time>2018-12-22T09:17:13Z</time>
      </trkpt>
      <trkpt lat="39.5701581147" lon="-8.5199876502">
        <ele>145.30</ele>
        <time>2018-12-22T09:17:20Z</time>
      </trkpt>
      <trkpt lat="39.5701592881" lon="-8.5201239400">
        <ele>146.26</ele>
        <time>2018-12-22T09:17:26Z</time>
      </trkpt>
      <trkpt lat="39.5701629762" lon="-8.5201562941">
        <ele>146.26</ele>
        <time>2018-12-22T09:17:31Z</time>
      </trkpt>
      <trkpt lat="39.5701598749" lon="-8.5202999599">
        <ele>146.26</ele>
        <time>2018-12-22T09:17:38Z</time>
      </trkpt>
      <trkpt lat="39.5701575279" lon="-8.5203191545">
        <ele>146.26</ele>
        <time>2018-12-22T09:17:43Z</time>
      </trkpt>
      <trkpt lat="39.5701731183" lon="-8.5204539355">
        <ele>146.74</ele>
        <time>2018-12-22T09:17:49Z</time>
      </trkpt>
      <trkpt lat="39.5701924805" lon="-8.5204820149">
        <ele>146.74</ele>
        <time>2018-12-22T09:17:54Z</time>
      </trkpt>
      <trkpt lat="39.5701937377" lon="-8.5205073282">
        <ele>147.22</ele>
        <time>2018-12-22T09:17:57Z</time>
      </trkpt>
      <trkpt lat="39.5701998565" lon="-8.5205954220">
        <ele>148.18</ele>
        <time>2018-12-22T09:18:02Z</time>
      </trkpt>
      <trkpt lat="39.5702182129" lon="-8.5206187237">
        <ele>148.66</ele>
        <time>2018-12-22T09:18:07Z</time>
      </trkpt>
      <trkpt lat="39.5702210627" lon="-8.5207312927">
        <ele>148.18</ele>
        <time>2018-12-22T09:18:13Z</time>
      </trkpt>
      <trkpt lat="39.5702240802" lon="-8.5207435302">
        <ele>148.66</ele>
        <time>2018-12-22T09:18:15Z</time>
      </trkpt>
      <trkpt lat="39.5702378266" lon="-8.5208655708">
        <ele>149.14</ele>
        <time>2018-12-22T09:18:22Z</time>
      </trkpt>
      <trkpt lat="39.5702594519" lon="-8.5209308658">
        <ele>149.14</ele>
        <time>2018-12-22T09:18:27Z</time>
      </trkpt>
      <trkpt lat="39.5702978410" lon="-8.5209907964">
        <ele>149.62</ele>
        <time>2018-12-22T09:18:33Z</time>
      </trkpt>
      <trkpt lat="39.5703327097" lon="-8.5210485477">
        <ele>150.10</ele>
        <time>2018-12-22T09:18:38Z</time>
      </trkpt>
      <trkpt lat="39.5703561790" lon="-8.5210794769">
        <ele>150.58</ele>
        <time>2018-12-22T09:18:43Z</time>
      </trkpt>
      <trkpt lat="39.5703791454" lon="-8.5211052094">
        <ele>144.82</ele>
        <time>2018-12-22T09:18:47Z</time>
      </trkpt>
      <trkpt lat="39.5703809895" lon="-8.5211067181">
        <ele>149.62</ele>
        <time>2018-12-22T09:18:48Z</time>
      </trkpt>
      <trkpt lat="39.5702208951" lon="-8.5207364056">
        <ele>147.70</ele>
        <time>2018-12-22T09:26:20Z</time>
      </trkpt>
      <trkpt lat="39.5704368968" lon="-8.5213191994">
        <ele>148.66</ele>
        <time>2018-12-22T09:26:21Z</time>
      </trkpt>
      <trkpt lat="39.5704001002" lon="-8.5210877750">
        <ele>148.18</ele>
        <time>2018-12-22T09:26:30Z</time>
      </trkpt>
      <trkpt lat="39.5703918859" lon="-8.5210982524">
        <ele>149.14</ele>
        <time>2018-12-22T09:26:36Z</time>
      </trkpt>
      <trkpt lat="39.5704140980" lon="-8.5210969951">
        <ele>147.70</ele>
        <time>2018-12-22T09:26:39Z</time>
      </trkpt>
      <trkpt lat="39.5704647247" lon="-8.5211056285">
        <ele>149.14</ele>
        <time>2018-12-22T09:26:44Z</time>
      </trkpt>
      <trkpt lat="39.5704990067" lon="-8.5211151838">
        <ele>151.06</ele>
        <time>2018-12-22T09:26:49Z</time>
      </trkpt>
      <trkpt lat="39.5705651399" lon="-8.5211205482">
        <ele>156.83</ele>
        <time>2018-12-22T09:26:54Z</time>
      </trkpt>
      <trkpt lat="39.5705756173" lon="-8.5211222246">
        <ele>150.58</ele>
        <time>2018-12-22T09:26:55Z</time>
      </trkpt>
      <trkpt lat="39.5706877671" lon="-8.5211441852">
        <ele>153.47</ele>
        <time>2018-12-22T09:27:03Z</time>
      </trkpt>
      <trkpt lat="39.5706963167" lon="-8.5211387370">
        <ele>153.47</ele>
        <time>2018-12-22T09:27:05Z</time>
      </trkpt>
      <trkpt lat="39.5707453508" lon="-8.5211372282">
        <ele>153.95</ele>
        <time>2018-12-22T09:27:12Z</time>
      </trkpt>
      <trkpt lat="39.5707482006" lon="-8.5211378988">
        <ele>154.91</ele>
        <time>2018-12-22T09:27:13Z</time>
      </trkpt>
      <trkpt lat="39.5708247274" lon="-8.5211548302">
        <ele>155.39</ele>
        <time>2018-12-22T09:27:19Z</time>
      </trkpt>
      <trkpt lat="39.5708186086" lon="-8.5211551655">
        <ele>155.39</ele>
        <time>2018-12-22T09:27:20Z</time>
      </trkpt>
      <trkpt lat="39.5709071215" lon="-8.5211477894">
        <ele>155.39</ele>
        <time>2018-12-22T09:27:26Z</time>
      </trkpt>
      <trkpt lat="39.5709382184" lon="-8.5211655591">
        <ele>155.87</ele>
        <time>2018-12-22T09:27:31Z</time>
      </trkpt>
      <trkpt lat="39.5709952153" lon="-8.5211584345">
        <ele>156.83</ele>
        <time>2018-12-22T09:27:35Z</time>
      </trkpt>
      <trkpt lat="39.5709803794" lon="-8.5211888608">
        <ele>157.79</ele>
        <time>2018-12-22T09:27:43Z</time>
      </trkpt>
      <trkpt lat="39.5709995739" lon="-8.5211643018">
        <ele>158.27</ele>
        <time>2018-12-22T09:27:50Z</time>
      </trkpt>
      <trkpt lat="39.5710745081" lon="-8.5211624578">
        <ele>158.75</ele>
        <time>2018-12-22T09:27:55Z</time>
      </trkpt>
      <trkpt lat="39.5710885059" lon="-8.5211579315">
        <ele>158.75</ele>
        <time>2018-12-22T09:27:58Z</time>
      </trkpt>
      <trkpt lat="39.5711692236" lon="-8.5211746115">
        <ele>158.75</ele>
        <time>2018-12-22T09:28:05Z</time>
      </trkpt>
      <trkpt lat="39.5711772703" lon="-8.5211647209">
        <ele>159.24</ele>
        <time>2018-12-22T09:28:10Z</time>
      </trkpt>
      <trkpt lat="39.5712932758" lon="-8.5211746953">
        <ele>159.24</ele>
        <time>2018-12-22T09:28:16Z</time>
      </trkpt>
      <trkpt lat="39.5713025797" lon="-8.5211703368">
        <ele>159.72</ele>
        <time>2018-12-22T09:28:21Z</time>
      </trkpt>
      <trkpt lat="39.5714583993" lon="-8.5212423373">
        <ele>158.75</ele>
        <time>2018-12-22T09:28:28Z</time>
      </trkpt>
      <trkpt lat="39.5714848023" lon="-8.5212388169">
        <ele>159.24</ele>
        <time>2018-12-22T09:28:33Z</time>
      </trkpt>
      <trkpt lat="39.5714977104" lon="-8.5212446004">
        <ele>159.24</ele>
        <time>2018-12-22T09:28:37Z</time>
      </trkpt>
      <trkpt lat="39.5715804398" lon="-8.5213211272">
        <ele>159.24</ele>
        <time>2018-12-22T09:28:42Z</time>
      </trkpt>
      <trkpt lat="39.5717008039" lon="-8.5214267392">
        <ele>159.24</ele>
        <time>2018-12-22T09:28:48Z</time>
      </trkpt>
      <trkpt lat="39.5716946013" lon="-8.5214718338">
        <ele>159.72</ele>
        <time>2018-12-22T09:28:52Z</time>
      </trkpt>
      <trkpt lat="39.5716764126" lon="-8.5214569978">
        <ele>160.68</ele>
        <time>2018-12-22T09:28:56Z</time>
      </trkpt>
      <trkpt lat="39.5715630893" lon="-8.5214025993">
        <ele>160.20</ele>
        <time>2018-12-22T09:29:00Z</time>
      </trkpt>
      <trkpt lat="39.5715023205" lon="-8.5213911161">
        <ele>160.68</ele>
        <time>2018-12-22T09:29:05Z</time>
      </trkpt>
      <trkpt lat="39.5714657754" lon="-8.5213967320">
        <ele>161.64</ele>
        <time>2018-12-22T09:29:09Z</time>
      </trkpt>
      <trkpt lat="39.5714001451" lon="-8.5213465244">
        <ele>161.64</ele>
        <time>2018-12-22T09:29:13Z</time>
      </trkpt>
      <trkpt lat="39.5713168290" lon="-8.5213519726">
        <ele>162.12</ele>
        <time>2018-12-22T09:29:20Z</time>
      </trkpt>
      <trkpt lat="39.5712828822" lon="-8.5213727597">
        <ele>162.60</ele>
        <time>2018-12-22T09:29:26Z</time>
      </trkpt>
      <trkpt lat="39.5711551420" lon="-8.5214063711">
        <ele>162.12</ele>
        <time>2018-12-22T09:29:33Z</time>
      </trkpt>
      <trkpt lat="39.5711487718" lon="-8.5214115679">
        <ele>162.12</ele>
        <time>2018-12-22T09:29:37Z</time>
      </trkpt>
      <trkpt lat="39.5710822195" lon="-8.5214291699">
        <ele>162.60</ele>
        <time>2018-12-22T09:29:41Z</time>
      </trkpt>
      <trkpt lat="39.5710123144" lon="-8.5214854963">
        <ele>162.60</ele>
        <time>2018-12-22T09:29:48Z</time>
      </trkpt>
      <trkpt lat="39.5710065309" lon="-8.5214885976">
        <ele>163.08</ele>
        <time>2018-12-22T09:29:51Z</time>
      </trkpt>
      <trkpt lat="39.5709436666" lon="-8.5215181857">
        <ele>163.08</ele>
        <time>2018-12-22T09:29:55Z</time>
      </trkpt>
      <trkpt lat="39.5708076283" lon="-8.5215877555">
        <ele>162.60</ele>
        <time>2018-12-22T09:30:02Z</time>
      </trkpt>
      <trkpt lat="39.5707922056" lon="-8.5215948801">
        <ele>163.56</ele>
        <time>2018-12-22T09:30:07Z</time>
      </trkpt>
      <trkpt lat="39.5707867574" lon="-8.5215989035">
        <ele>162.60</ele>
        <time>2018-12-22T09:30:08Z</time>
      </trkpt>
      <trkpt lat="39.5707314368" lon="-8.5216149129">
        <ele>162.60</ele>
        <time>2018-12-22T09:30:12Z</time>
      </trkpt>
      <trkpt lat="39.5706006791" lon="-8.5217099637">
        <ele>162.12</ele>
        <time>2018-12-22T09:30:19Z</time>
      </trkpt>
      <trkpt lat="39.5705957338" lon="-8.5217244644">
        <ele>161.64</ele>
        <time>2018-12-22T09:30:25Z</time>
      </trkpt>
      <trkpt lat="39.5705790538" lon="-8.5217407253">
        <ele>161.64</ele>
        <time>2018-12-22T09:30:30Z</time>
      </trkpt>
      <trkpt lat="39.5705741923" lon="-8.5217481852">
        <ele>161.64</ele>
        <time>2018-12-22T09:30:31Z</time>
      </trkpt>
      <trkpt lat="39.5705411676" lon="-8.5218163300">
        <ele>161.64</ele>
        <time>2018-12-22T09:30:35Z</time>
      </trkpt>
      <trkpt lat="39.5704822429" lon="-8.5218987241">
        <ele>162.60</ele>
        <time>2018-12-22T09:30:40Z</time>
      </trkpt>
      <trkpt lat="39.5704500563" lon="-8.5219665337">
        <ele>161.16</ele>
        <time>2018-12-22T09:30:48Z</time>
      </trkpt>
      <trkpt lat="39.5704457816" lon="-8.5219998937">
        <ele>160.20</ele>
        <time>2018-12-22T09:30:52Z</time>
      </trkpt>
      <trkpt lat="39.5704274252" lon="-8.5220190044">
        <ele>160.20</ele>
        <time>2018-12-22T09:30:54Z</time>
      </trkpt>
      <trkpt lat="39.5704135951" lon="-8.5220482573">
        <ele>158.75</ele>
        <time>2018-12-22T09:30:56Z</time>
      </trkpt>
      <trkpt lat="39.5703084022" lon="-8.5221801046">
        <ele>157.31</ele>
        <time>2018-12-22T09:31:03Z</time>
      </trkpt>
      <trkpt lat="39.5702730305" lon="-8.5222032387">
        <ele>157.31</ele>
        <time>2018-12-22T09:31:05Z</time>
      </trkpt>
      <trkpt lat="39.5701857749" lon="-8.5223532747">
        <ele>155.39</ele>
        <time>2018-12-22T09:31:14Z</time>
      </trkpt>
      <trkpt lat="39.5701773092" lon="-8.5223745648">
        <ele>154.91</ele>
        <time>2018-12-22T09:31:20Z</time>
      </trkpt>
      <trkpt lat="39.5701950788" lon="-8.5223465692">
        <ele>154.43</ele>
        <time>2018-12-22T09:31:26Z</time>
      </trkpt>
      <trkpt lat="39.5701888762" lon="-8.5223618243">
        <ele>153.47</ele>
        <time>2018-12-22T09:31:28Z</time>
      </trkpt>
      <trkpt lat="39.5701417699" lon="-8.5224280413">
        <ele>152.99</ele>
        <time>2018-12-22T09:31:32Z</time>
      </trkpt>
      <trkpt lat="39.5700421091" lon="-8.5225015506">
        <ele>152.51</ele>
        <time>2018-12-22T09:31:38Z</time>
      </trkpt>
      <trkpt lat="39.5699616428" lon="-8.5225738026">
        <ele>151.06</ele>
        <time>2018-12-22T09:31:45Z</time>
      </trkpt>
      <trkpt lat="39.5699199010" lon="-8.5225863755">
        <ele>151.54</ele>
        <time>2018-12-22T09:31:49Z</time>
      </trkpt>
      <trkpt lat="39.5699027181" lon="-8.5226014629">
        <ele>151.06</ele>
        <time>2018-12-22T09:31:51Z</time>
      </trkpt>
      <trkpt lat="39.5698799193" lon="-8.5226458032">
        <ele>148.66</ele>
        <time>2018-12-22T09:31:54Z</time>
      </trkpt>
      <trkpt lat="39.5698753931" lon="-8.5226598009">
        <ele>153.47</ele>
        <time>2018-12-22T09:31:55Z</time>
      </trkpt>
      <trkpt lat="39.5698696934" lon="-8.5226730444">
        <ele>147.22</ele>
        <time>2018-12-22T09:31:56Z</time>
      </trkpt>
      <trkpt lat="39.5698665082" lon="-8.5226871260">
        <ele>150.58</ele>
        <time>2018-12-22T09:31:57Z</time>
      </trkpt>
      <trkpt lat="39.5698706992" lon="-8.5227353219">
        <ele>150.10</ele>
        <time>2018-12-22T09:32:00Z</time>
      </trkpt>
      <trkpt lat="39.5699035563" lon="-8.5228033829">
        <ele>146.26</ele>
        <time>2018-12-22T09:32:06Z</time>
      </trkpt>
      <trkpt lat="39.5699091721" lon="-8.5228128545">
        <ele>148.18</ele>
        <time>2018-12-22T09:32:07Z</time>
      </trkpt>
      <trkpt lat="39.5699227508" lon="-8.5228330549">
        <ele>157.79</ele>
        <time>2018-12-22T09:32:09Z</time>
      </trkpt>
      <trkpt lat="39.5699295402" lon="-8.5228415206">
        <ele>150.58</ele>
        <time>2018-12-22T09:32:10Z</time>
      </trkpt>
      <trkpt lat="39.5699468069" lon="-8.5228617210">
        <ele>150.58</ele>
        <time>2018-12-22T09:32:12Z</time>
      </trkpt>
      <trkpt lat="39.5700185560" lon="-8.5229343921">
        <ele>149.62</ele>
        <time>2018-12-22T09:32:21Z</time>
      </trkpt>
      <trkpt lat="39.5700659137" lon="-8.5230208933">
        <ele>145.78</ele>
        <time>2018-12-22T09:32:30Z</time>
      </trkpt>
      <trkpt lat="39.5700742956" lon="-8.5230306163">
        <ele>149.62</ele>
        <time>2018-12-22T09:32:31Z</time>
      </trkpt>
      <trkpt lat="39.5700936578" lon="-8.5230532475">
        <ele>146.26</ele>
        <time>2018-12-22T09:32:33Z</time>
      </trkpt>
      <trkpt lat="39.5701021235" lon="-8.5230659042">
        <ele>150.10</ele>
        <time>2018-12-22T09:32:34Z</time>
      </trkpt>
      <trkpt lat="39.5701283589" lon="-8.5231536627">
        <ele>149.14</ele>
        <time>2018-12-22T09:32:41Z</time>
      </trkpt>
      <trkpt lat="39.5701165404" lon="-8.5232903715">
        <ele>149.62</ele>
        <time>2018-12-22T09:32:49Z</time>
      </trkpt>
      <trkpt lat="39.5701184683" lon="-8.5233184509">
        <ele>152.03</ele>
        <time>2018-12-22T09:32:51Z</time>
      </trkpt>
      <trkpt lat="39.5701291133" lon="-8.5233617853">
        <ele>148.66</ele>
        <time>2018-12-22T09:32:58Z</time>
      </trkpt>
      <trkpt lat="39.5701413509" lon="-8.5233969055">
        <ele>147.70</ele>
        <time>2018-12-22T09:33:03Z</time>
      </trkpt>
      <trkpt lat="39.5701208990" lon="-8.5235880967">
        <ele>148.66</ele>
        <time>2018-12-22T09:33:10Z</time>
      </trkpt>
      <trkpt lat="39.5701101702" lon="-8.5236768611">
        <ele>148.66</ele>
        <time>2018-12-22T09:33:14Z</time>
      </trkpt>
      <trkpt lat="39.5700917300" lon="-8.5237209499">
        <ele>147.70</ele>
        <time>2018-12-22T09:33:17Z</time>
      </trkpt>
      <trkpt lat="39.5700806659" lon="-8.5238164198">
        <ele>147.70</ele>
        <time>2018-12-22T09:33:24Z</time>
      </trkpt>
      <trkpt lat="39.5700765587" lon="-8.5238413140">
        <ele>148.18</ele>
        <time>2018-12-22T09:33:26Z</time>
      </trkpt>
      <trkpt lat="39.5700870361" lon="-8.5239080340">
        <ele>147.70</ele>
        <time>2018-12-22T09:33:30Z</time>
      </trkpt>
      <trkpt lat="39.5700877905" lon="-8.5239667073">
        <ele>150.58</ele>
        <time>2018-12-22T09:33:33Z</time>
      </trkpt>
      <trkpt lat="39.5700863656" lon="-8.5239774361">
        <ele>148.66</ele>
        <time>2018-12-22T09:33:34Z</time>
      </trkpt>
      <trkpt lat="39.5700855274" lon="-8.5240557231">
        <ele>147.70</ele>
        <time>2018-12-22T09:33:40Z</time>
      </trkpt>
      <trkpt lat="39.5701018721" lon="-8.5240887478">
        <ele>147.70</ele>
        <time>2018-12-22T09:33:46Z</time>
      </trkpt>
      <trkpt lat="39.5701117627" lon="-8.5241772607">
        <ele>147.70</ele>
        <time>2018-12-22T09:33:53Z</time>
      </trkpt>
      <trkpt lat="39.5701015368" lon="-8.5242915060">
        <ele>148.18</ele>
        <time>2018-12-22T09:33:57Z</time>
      </trkpt>
      <trkpt lat="39.5700947475" lon="-8.5244266223">
        <ele>147.70</ele>
        <time>2018-12-22T09:34:06Z</time>
      </trkpt>
      <trkpt lat="39.5700981002" lon="-8.5244511813">
        <ele>148.18</ele>
        <time>2018-12-22T09:34:08Z</time>
      </trkpt>
      <trkpt lat="39.5700856950" lon="-8.5245218407">
        <ele>152.03</ele>
        <time>2018-12-22T09:34:13Z</time>
      </trkpt>
      <trkpt lat="39.5700855274" lon="-8.5245350003">
        <ele>148.18</ele>
        <time>2018-12-22T09:34:14Z</time>
      </trkpt>
      <trkpt lat="39.5700822584" lon="-8.5245727189">
        <ele>147.70</ele>
        <time>2018-12-22T09:34:16Z</time>
      </trkpt>
      <trkpt lat="39.5700978488" lon="-8.5247318074">
        <ele>148.18</ele>
        <time>2018-12-22T09:34:22Z</time>
      </trkpt>
      <trkpt lat="39.5700904727" lon="-8.5247907322">
        <ele>148.66</ele>
        <time>2018-12-22T09:34:25Z</time>
      </trkpt>
      <trkpt lat="39.5700926520" lon="-8.5247955937">
        <ele>148.66</ele>
        <time>2018-12-22T09:34:31Z</time>
      </trkpt>
      <trkpt lat="39.5700872876" lon="-8.5248224996">
        <ele>149.14</ele>
        <time>2018-12-22T09:34:33Z</time>
      </trkpt>
      <trkpt lat="39.5700219087" lon="-8.5249830130">
        <ele>147.70</ele>
        <time>2018-12-22T09:34:40Z</time>
      </trkpt>
      <trkpt lat="39.5700147841" lon="-8.5250129364">
        <ele>148.66</ele>
        <time>2018-12-22T09:34:41Z</time>
      </trkpt>
      <trkpt lat="39.5699516684" lon="-8.5251391679">
        <ele>147.70</ele>
        <time>2018-12-22T09:34:48Z</time>
      </trkpt>
      <trkpt lat="39.5699230861" lon="-8.5251415148">
        <ele>146.74</ele>
        <time>2018-12-22T09:34:54Z</time>
      </trkpt>
      <trkpt lat="39.5698895585" lon="-8.5251250863">
        <ele>145.30</ele>
        <time>2018-12-22T09:35:00Z</time>
      </trkpt>
      <trkpt lat="39.5698820986" lon="-8.5251068138">
        <ele>145.78</ele>
        <time>2018-12-22T09:35:03Z</time>
      </trkpt>
      <trkpt lat="39.5698958449" lon="-8.5251202248">
        <ele>145.30</ele>
        <time>2018-12-22T09:35:09Z</time>
      </trkpt>
      <trkpt lat="39.5698769018" lon="-8.5251459572">
        <ele>144.82</ele>
        <time>2018-12-22T09:35:11Z</time>
      </trkpt>
      <trkpt lat="39.5697832759" lon="-8.5252583586">
        <ele>143.85</ele>
        <time>2018-12-22T09:35:17Z</time>
      </trkpt>
      <trkpt lat="39.5697003789" lon="-8.5254068021">
        <ele>143.37</ele>
        <time>2018-12-22T09:35:23Z</time>
      </trkpt>
      <trkpt lat="39.5695783384" lon="-8.5256026872">
        <ele>142.89</ele>
        <time>2018-12-22T09:35:30Z</time>
      </trkpt>
      <trkpt lat="39.5695400331" lon="-8.5257619433">
        <ele>141.93</ele>
        <time>2018-12-22T09:35:37Z</time>
      </trkpt>
      <trkpt lat="39.5695574675" lon="-8.5258345306">
        <ele>140.97</ele>
        <time>2018-12-22T09:35:43Z</time>
      </trkpt>
      <trkpt lat="39.5695638377" lon="-8.5259123147">
        <ele>140.49</ele>
        <time>2018-12-22T09:35:49Z</time>
      </trkpt>
      <trkpt lat="39.5696002152" lon="-8.5259950440">
        <ele>138.57</ele>
        <time>2018-12-22T09:35:56Z</time>
      </trkpt>
      <trkpt lat="39.5696046576" lon="-8.5260065272">
        <ele>138.57</ele>
        <time>2018-12-22T09:35:57Z</time>
      </trkpt>
      <trkpt lat="39.5696394425" lon="-8.5260924418">
        <ele>138.09</ele>
        <time>2018-12-22T09:36:02Z</time>
      </trkpt>
      <trkpt lat="39.5696206670" lon="-8.5261247121">
        <ele>137.13</ele>
        <time>2018-12-22T09:36:06Z</time>
      </trkpt>
      <trkpt lat="39.5696293842" lon="-8.5261368658">
        <ele>137.13</ele>
        <time>2018-12-22T09:36:09Z</time>
      </trkpt>
      <trkpt lat="39.5696064178" lon="-8.5262068547">
        <ele>135.68</ele>
        <time>2018-12-22T09:36:15Z</time>
      </trkpt>
      <trkpt lat="39.5696034841" lon="-8.5263505206">
        <ele>134.72</ele>
        <time>2018-12-22T09:36:21Z</time>
      </trkpt>
      <trkpt lat="39.5696593076" lon="-8.5264963657">
        <ele>134.72</ele>
        <time>2018-12-22T09:36:27Z</time>
      </trkpt>
      <trkpt lat="39.5696614869" lon="-8.5264790151">
        <ele>133.76</ele>
        <time>2018-12-22T09:36:34Z</time>
      </trkpt>
      <trkpt lat="39.5696413703" lon="-8.5264167376">
        <ele>133.76</ele>
        <time>2018-12-22T09:36:40Z</time>
      </trkpt>
      <trkpt lat="39.5696501713" lon="-8.5264433082">
        <ele>133.28</ele>
        <time>2018-12-22T09:36:42Z</time>
      </trkpt>
      <trkpt lat="39.5696704555" lon="-8.5266732238">
        <ele>132.80</ele>
        <time>2018-12-22T09:36:50Z</time>
      </trkpt>
      <trkpt lat="39.5696924161" lon="-8.5268712882">
        <ele>132.32</ele>
        <time>2018-12-22T09:36:56Z</time>
      </trkpt>
      <trkpt lat="39.5696956851" lon="-8.5268883873">
        <ele>132.80</ele>
        <time>2018-12-22T09:37:01Z</time>
      </trkpt>
      <trkpt lat="39.5696875546" lon="-8.5268894769">
        <ele>132.80</ele>
        <time>2018-12-22T09:37:06Z</time>
      </trkpt>
      <trkpt lat="39.5697374269" lon="-8.5270128585">
        <ele>132.32</ele>
        <time>2018-12-22T09:37:12Z</time>
      </trkpt>
      <trkpt lat="39.5697738882" lon="-8.5270598810">
        <ele>131.84</ele>
        <time>2018-12-22T09:37:16Z</time>
      </trkpt>
      <trkpt lat="39.5697677694" lon="-8.5270571988">
        <ele>132.32</ele>
        <time>2018-12-22T09:37:19Z</time>
      </trkpt>
      <trkpt lat="39.5698315557" lon="-8.5271910578">
        <ele>131.84</ele>
        <time>2018-12-22T09:37:25Z</time>
      </trkpt>
      <trkpt lat="39.5698491577" lon="-8.5272297822">
        <ele>132.32</ele>
        <time>2018-12-22T09:37:30Z</time>
      </trkpt>
      <trkpt lat="39.5698633231" lon="-8.5272912215">
        <ele>131.36</ele>
        <time>2018-12-22T09:37:37Z</time>
      </trkpt>
      <trkpt lat="39.5698994491" lon="-8.5274316184">
        <ele>130.88</ele>
        <time>2018-12-22T09:37:43Z</time>
      </trkpt>
      <trkpt lat="39.5698926598" lon="-8.5275949817">
        <ele>130.40</ele>
        <time>2018-12-22T09:37:49Z</time>
      </trkpt>
      <trkpt lat="39.5698785782" lon="-8.5276742745">
        <ele>129.43</ele>
        <time>2018-12-22T09:37:53Z</time>
      </trkpt>
      <trkpt lat="39.5698462240" lon="-8.5277062096">
        <ele>128.95</ele>
        <time>2018-12-22T09:37:58Z</time>
      </trkpt>
      <trkpt lat="39.5698415302" lon="-8.5276626237">
        <ele>128.47</ele>
        <time>2018-12-22T09:38:04Z</time>
      </trkpt>
      <trkpt lat="39.5698362496" lon="-8.5276509728">
        <ele>127.51</ele>
        <time>2018-12-22T09:38:08Z</time>
      </trkpt>
      <trkpt lat="39.5698183961" lon="-8.5276886076">
        <ele>127.51</ele>
        <time>2018-12-22T09:38:11Z</time>
      </trkpt>
      <trkpt lat="39.5697570406" lon="-8.5277147591">
        <ele>127.03</ele>
        <time>2018-12-22T09:38:15Z</time>
      </trkpt>
      <trkpt lat="39.5696861297" lon="-8.5277579259">
        <ele>125.59</ele>
        <time>2018-12-22T09:38:19Z</time>
      </trkpt>
      <trkpt lat="39.5696567930" lon="-8.5277662240">
        <ele>125.11</ele>
        <time>2018-12-22T09:38:22Z</time>
      </trkpt>
      <trkpt lat="39.5696293842" lon="-8.5277775396">
        <ele>125.11</ele>
        <time>2018-12-22T09:38:24Z</time>
      </trkpt>
      <trkpt lat="39.5695547853" lon="-8.5278357938">
        <ele>123.67</ele>
        <time>2018-12-22T09:38:30Z</time>
      </trkpt>
      <trkpt lat="39.5694845449" lon="-8.5279699881">
        <ele>122.22</ele>
        <time>2018-12-22T09:38:37Z</time>
      </trkpt>
      <trkpt lat="39.5694769174" lon="-8.5279877577">
        <ele>122.22</ele>
        <time>2018-12-22T09:38:38Z</time>
      </trkpt>
      <trkpt lat="39.5694899093" lon="-8.5281177610">
        <ele>122.22</ele>
        <time>2018-12-22T09:38:43Z</time>
      </trkpt>
      <trkpt lat="39.5695283823" lon="-8.5281649511">
        <ele>121.26</ele>
        <time>2018-12-22T09:38:47Z</time>
      </trkpt>
      <trkpt lat="39.5695412066" lon="-8.5281517077">
        <ele>121.26</ele>
        <time>2018-12-22T09:38:53Z</time>
      </trkpt>
      <trkpt lat="39.5695909113" lon="-8.5282366164">
        <ele>119.34</ele>
        <time>2018-12-22T09:38:59Z</time>
      </trkpt>
      <trkpt lat="39.5696200803" lon="-8.5282916855">
        <ele>119.82</ele>
        <time>2018-12-22T09:39:04Z</time>
      </trkpt>
      <trkpt lat="39.5696744788" lon="-8.5283858981">
        <ele>119.34</ele>
        <time>2018-12-22T09:39:11Z</time>
      </trkpt>
      <trkpt lat="39.5697276201" lon="-8.5284625087">
        <ele>118.38</ele>
        <time>2018-12-22T09:39:18Z</time>
      </trkpt>
      <trkpt lat="39.5697295479" lon="-8.5284710582">
        <ele>117.90</ele>
        <time>2018-12-22T09:39:23Z</time>
      </trkpt>
      <trkpt lat="39.5697468985" lon="-8.5284777638">
        <ele>117.42</ele>
        <time>2018-12-22T09:39:25Z</time>
      </trkpt>
      <trkpt lat="39.5697738882" lon="-8.5285131354">
        <ele>116.46</ele>
        <time>2018-12-22T09:39:28Z</time>
      </trkpt>
      <trkpt lat="39.5697990339" lon="-8.5285609122">
        <ele>116.94</ele>
        <time>2018-12-22T09:39:31Z</time>
      </trkpt>
      <trkpt lat="39.5698693581" lon="-8.5286890715">
        <ele>115.98</ele>
        <time>2018-12-22T09:39:37Z</time>
      </trkpt>
      <trkpt lat="39.5698944200" lon="-8.5287394468">
        <ele>114.53</ele>
        <time>2018-12-22T09:39:42Z</time>
      </trkpt>
      <trkpt lat="39.5698900614" lon="-8.5287680291">
        <ele>115.01</ele>
        <time>2018-12-22T09:39:49Z</time>
      </trkpt>
      <trkpt lat="39.5698872954" lon="-8.5288261995">
        <ele>112.61</ele>
        <time>2018-12-22T09:39:54Z</time>
      </trkpt>
      <trkpt lat="39.5698565338" lon="-8.5289061628">
        <ele>111.17</ele>
        <time>2018-12-22T09:39:58Z</time>
      </trkpt>
      <trkpt lat="39.5697840303" lon="-8.5290107690">
        <ele>111.17</ele>
        <time>2018-12-22T09:40:04Z</time>
      </trkpt>
      <trkpt lat="39.5697792526" lon="-8.5290884692">
        <ele>110.69</ele>
        <time>2018-12-22T09:40:09Z</time>
      </trkpt>
      <trkpt lat="39.5697869640" lon="-8.5290855356">
        <ele>110.21</ele>
        <time>2018-12-22T09:40:14Z</time>
      </trkpt>
      <trkpt lat="39.5697810128" lon="-8.5291115195">
        <ele>110.21</ele>
        <time>2018-12-22T09:40:16Z</time>
      </trkpt>
      <trkpt lat="39.5697427075" lon="-8.5292567778">
        <ele>109.25</ele>
        <time>2018-12-22T09:40:23Z</time>
      </trkpt>
      <trkpt lat="39.5697249379" lon="-8.5292892158">
        <ele>108.29</ele>
        <time>2018-12-22T09:40:29Z</time>
      </trkpt>
      <trkpt lat="39.5697252732" lon="-8.5293258447">
        <ele>106.84</ele>
        <time>2018-12-22T09:40:35Z</time>
      </trkpt>
      <trkpt lat="39.5697277877" lon="-8.5293236654">
        <ele>106.36</ele>
        <time>2018-12-22T09:40:36Z</time>
      </trkpt>
      <trkpt lat="39.5697110239" lon="-8.5294090770">
        <ele>106.36</ele>
        <time>2018-12-22T09:40:41Z</time>
      </trkpt>
      <trkpt lat="39.5697094314" lon="-8.5295503121">
        <ele>104.92</ele>
        <time>2018-12-22T09:40:49Z</time>
      </trkpt>
      <trkpt lat="39.5697064977" lon="-8.5295915511">
        <ele>104.44</ele>
        <time>2018-12-22T09:40:56Z</time>
      </trkpt>
      <trkpt lat="39.5697864611" lon="-8.5296961572">
        <ele>103.96</ele>
        <time>2018-12-22T09:41:02Z</time>
      </trkpt>
      <trkpt lat="39.5698064938" lon="-8.5297125857">
        <ele>104.44</ele>
        <time>2018-12-22T09:41:03Z</time>
      </trkpt>
      <trkpt lat="39.5698264427" lon="-8.5297266673">
        <ele>104.44</ele>
        <time>2018-12-22T09:41:08Z</time>
      </trkpt>
      <trkpt lat="39.5698479004" lon="-8.5297249909">
        <ele>104.44</ele>
        <time>2018-12-22T09:41:13Z</time>
      </trkpt>
      <trkpt lat="39.5698503312" lon="-8.5296974145">
        <ele>104.92</ele>
        <time>2018-12-22T09:41:19Z</time>
      </trkpt>
      <trkpt lat="39.5698305499" lon="-8.5296756215">
        <ele>103.96</ele>
        <time>2018-12-22T09:41:30Z</time>
      </trkpt>
      <trkpt lat="39.5698167197" lon="-8.5296678264">
        <ele>103.96</ele>
        <time>2018-12-22T09:41:38Z</time>
      </trkpt>
      <trkpt lat="39.5698508341" lon="-8.5296874400">
        <ele>104.44</ele>
        <time>2018-12-22T09:41:45Z</time>
      </trkpt>
      <trkpt lat="39.5698805898" lon="-8.5297062155">
        <ele>104.44</ele>
        <time>2018-12-22T09:41:51Z</time>
      </trkpt>
      <trkpt lat="39.5699780714" lon="-8.5297737736">
        <ele>105.40</ele>
        <time>2018-12-22T09:41:56Z</time>
      </trkpt>
      <trkpt lat="39.5700139459" lon="-8.5297794733">
        <ele>105.40</ele>
        <time>2018-12-22T09:42:01Z</time>
      </trkpt>
      <trkpt lat="39.5700499881" lon="-8.5297970753">
        <ele>106.36</ele>
        <time>2018-12-22T09:42:04Z</time>
      </trkpt>
      <trkpt lat="39.5700929873" lon="-8.5297992546">
        <ele>106.84</ele>
        <time>2018-12-22T09:42:09Z</time>
      </trkpt>
      <trkpt lat="39.5701472182" lon="-8.5298389010">
        <ele>107.81</ele>
        <time>2018-12-22T09:42:15Z</time>
      </trkpt>
      <trkpt lat="39.5701618865" lon="-8.5298477858">
        <ele>108.29</ele>
        <time>2018-12-22T09:42:16Z</time>
      </trkpt>
      <trkpt lat="39.5702037122" lon="-8.5298652202">
        <ele>108.77</ele>
        <time>2018-12-22T09:42:20Z</time>
      </trkpt>
      <trkpt lat="39.5702693425" lon="-8.5298866779">
        <ele>109.25</ele>
        <time>2018-12-22T09:42:26Z</time>
      </trkpt>
      <trkpt lat="39.5702768862" lon="-8.5298824869">
        <ele>109.73</ele>
        <time>2018-12-22T09:42:27Z</time>
      </trkpt>
      <trkpt lat="39.5703461207" lon="-8.5298935510">
        <ele>110.21</ele>
        <time>2018-12-22T09:42:35Z</time>
      </trkpt>
      <trkpt lat="39.5703987591" lon="-8.5299124103">
        <ele>111.17</ele>
        <time>2018-12-22T09:42:41Z</time>
      </trkpt>
      <trkpt lat="39.5704238210" lon="-8.5299155116">
        <ele>110.69</ele>
        <time>2018-12-22T09:42:44Z</time>
      </trkpt>
      <trkpt lat="39.5704477932" lon="-8.5299081355">
        <ele>111.17</ele>
        <time>2018-12-22T09:42:46Z</time>
      </trkpt>
      <trkpt lat="39.5704519004" lon="-8.5298845824">
        <ele>112.13</ele>
        <time>2018-12-22T09:42:48Z</time>
      </trkpt>
      <trkpt lat="39.5705099031" lon="-8.5298831575">
        <ele>112.13</ele>
        <time>2018-12-22T09:42:54Z</time>
      </trkpt>
      <trkpt lat="39.5705339592" lon="-8.5298866779">
        <ele>113.09</ele>
        <time>2018-12-22T09:42:59Z</time>
      </trkpt>
      <trkpt lat="39.5705456939" lon="-8.5298872646">
        <ele>113.09</ele>
        <time>2018-12-22T09:43:00Z</time>
      </trkpt>
      <trkpt lat="39.5705633797" lon="-8.5298787989">
        <ele>113.09</ele>
        <time>2018-12-22T09:43:04Z</time>
      </trkpt>
      <trkpt lat="39.5706165209" lon="-8.5298735183">
        <ele>114.53</ele>
        <time>2018-12-22T09:43:09Z</time>
      </trkpt>
      <trkpt lat="39.5706969872" lon="-8.5298851691">
        <ele>115.50</ele>
        <time>2018-12-22T09:43:15Z</time>
      </trkpt>
      <trkpt lat="39.5707027707" lon="-8.5298886895">
        <ele>115.01</ele>
        <time>2018-12-22T09:43:16Z</time>
      </trkpt>
      <trkpt lat="39.5707776211" lon="-8.5299026873">
        <ele>115.98</ele>
        <time>2018-12-22T09:43:22Z</time>
      </trkpt>
      <trkpt lat="39.5708193630" lon="-8.5299206246">
        <ele>117.42</ele>
        <time>2018-12-22T09:43:27Z</time>
      </trkpt>
      <trkpt lat="39.5708767790" lon="-8.5299173556">
        <ele>117.90</ele>
        <time>2018-12-22T09:43:33Z</time>
      </trkpt>
      <trkpt lat="39.5709158387" lon="-8.5299285874">
        <ele>117.90</ele>
        <time>2018-12-22T09:43:38Z</time>
      </trkpt>
      <trkpt lat="39.5709539764" lon="-8.5299365502">
        <ele>118.86</ele>
        <time>2018-12-22T09:43:42Z</time>
      </trkpt>
      <trkpt lat="39.5710088778" lon="-8.5299285874">
        <ele>119.34</ele>
        <time>2018-12-22T09:43:47Z</time>
      </trkpt>
      <trkpt lat="39.5710664615" lon="-8.5299191996">
        <ele>120.30</ele>
        <time>2018-12-22T09:43:53Z</time>
      </trkpt>
      <trkpt lat="39.5710693114" lon="-8.5299194511">
        <ele>120.30</ele>
        <time>2018-12-22T09:43:54Z</time>
      </trkpt>
      <trkpt lat="39.5711435750" lon="-8.5299175233">
        <ele>120.78</ele>
        <time>2018-12-22T09:43:58Z</time>
      </trkpt>
      <trkpt lat="39.5712089539" lon="-8.5298896953">
        <ele>122.22</ele>
        <time>2018-12-22T09:44:05Z</time>
      </trkpt>
      <trkpt lat="39.5712638553" lon="-8.5298852529">
        <ele>123.19</ele>
        <time>2018-12-22T09:44:12Z</time>
      </trkpt>
      <trkpt lat="39.5713399630" lon="-8.5298648011">
        <ele>124.63</ele>
        <time>2018-12-22T09:44:20Z</time>
      </trkpt>
      <trkpt lat="39.5714264642" lon="-8.5298760328">
        <ele>124.63</ele>
        <time>2018-12-22T09:44:28Z</time>
      </trkpt>
      <trkpt lat="39.5714508556" lon="-8.5298705008">
        <ele>126.55</ele>
        <time>2018-12-22T09:44:31Z</time>
      </trkpt>
      <trkpt lat="39.5715422183" lon="-8.5298516415">
        <ele>126.55</ele>
        <time>2018-12-22T09:44:39Z</time>
      </trkpt>
      <trkpt lat="39.5715705492" lon="-8.5298449360">
        <ele>126.55</ele>
        <time>2018-12-22T09:44:42Z</time>
      </trkpt>
      <trkpt lat="39.5716122910" lon="-8.5298461933">
        <ele>126.55</ele>
        <time>2018-12-22T09:44:47Z</time>
      </trkpt>
      <trkpt lat="39.5716601517" lon="-8.5298339557">
        <ele>127.51</ele>
        <time>2018-12-22T09:44:52Z</time>
      </trkpt>
      <trkpt lat="39.5716692042" lon="-8.5298269987">
        <ele>125.11</ele>
        <time>2018-12-22T09:44:53Z</time>
      </trkpt>
      <trkpt lat="39.5716808550" lon="-8.5298180301">
        <ele>128.47</ele>
        <time>2018-12-22T09:44:54Z</time>
      </trkpt>
      <trkpt lat="39.5716838725" lon="-8.5298116598">
        <ele>128.47</ele>
        <time>2018-12-22T09:44:55Z</time>
      </trkpt>
      <trkpt lat="39.5717257820" lon="-8.5297824070">
        <ele>128.47</ele>
        <time>2018-12-22T09:45:01Z</time>
      </trkpt>
      <trkpt lat="39.5717586391" lon="-8.5297507234">
        <ele>128.95</ele>
        <time>2018-12-22T09:45:05Z</time>
      </trkpt>
      <trkpt lat="39.5717864670" lon="-8.5297284275">
        <ele>129.43</ele>
        <time>2018-12-22T09:45:10Z</time>
      </trkpt>
      <trkpt lat="39.5718113612" lon="-8.5296658147">
        <ele>130.88</ele>
        <time>2018-12-22T09:45:16Z</time>
      </trkpt>
      <trkpt lat="39.5718226768" lon="-8.5296371486">
        <ele>130.88</ele>
        <time>2018-12-22T09:45:20Z</time>
      </trkpt>
      <trkpt lat="39.5718226768" lon="-8.5296267550">
        <ele>131.36</ele>
        <time>2018-12-22T09:45:23Z</time>
      </trkpt>
      <trkpt lat="39.5718378481" lon="-8.5295826662">
        <ele>132.32</ele>
        <time>2018-12-22T09:45:27Z</time>
      </trkpt>
      <trkpt lat="39.5718674362" lon="-8.5295484681">
        <ele>133.76</ele>
        <time>2018-12-22T09:45:30Z</time>
      </trkpt>
      <trkpt lat="39.5718846191" lon="-8.5295278486">
        <ele>133.76</ele>
        <time>2018-12-22T09:45:34Z</time>
      </trkpt>
      <trkpt lat="39.5719031431" lon="-8.5294907168">
        <ele>133.76</ele>
        <time>2018-12-22T09:45:39Z</time>
      </trkpt>
      <trkpt lat="39.5719048195" lon="-8.5294616316">
        <ele>135.20</ele>
        <time>2018-12-22T09:45:42Z</time>
      </trkpt>
      <trkpt lat="39.5719149616" lon="-8.5294188000">
        <ele>135.20</ele>
        <time>2018-12-22T09:45:46Z</time>
      </trkpt>
      <trkpt lat="39.5719279535" lon="-8.5293773934">
        <ele>135.68</ele>
        <time>2018-12-22T09:45:50Z</time>
      </trkpt>
      <trkpt lat="39.5719274506" lon="-8.5293632280">
        <ele>136.16</ele>
        <time>2018-12-22T09:45:56Z</time>
      </trkpt>
      <trkpt lat="39.5719696116" lon="-8.5293145292">
        <ele>136.16</ele>
        <time>2018-12-22T09:46:03Z</time>
      </trkpt>
      <trkpt lat="39.5720241778" lon="-8.5292549338">
        <ele>136.64</ele>
        <time>2018-12-22T09:46:09Z</time>
      </trkpt>
      <trkpt lat="39.5721021295" lon="-8.5292500723">
        <ele>137.61</ele>
        <time>2018-12-22T09:46:17Z</time>
      </trkpt>
      <trkpt lat="39.5721280295" lon="-8.5292734578">
        <ele>137.13</ele>
        <time>2018-12-22T09:46:23Z</time>
      </trkpt>
      <trkpt lat="39.5721535105" lon="-8.5293099191">
        <ele>137.13</ele>
        <time>2018-12-22T09:46:35Z</time>
      </trkpt>
      <trkpt lat="39.5721565280" lon="-8.5293176305">
        <ele>137.13</ele>
        <time>2018-12-22T09:46:38Z</time>
      </trkpt>
      <trkpt lat="39.5721751358" lon="-8.5293263476">
        <ele>137.13</ele>
        <time>2018-12-22T09:46:40Z</time>
      </trkpt>
      <trkpt lat="39.5722172130" lon="-8.5294090770">
        <ele>138.09</ele>
        <time>2018-12-22T09:46:47Z</time>
      </trkpt>
      <trkpt lat="39.5722147822" lon="-8.5294018686">
        <ele>137.61</ele>
        <time>2018-12-22T09:46:50Z</time>
      </trkpt>
      <trkpt lat="39.5722417720" lon="-8.5294705164">
        <ele>137.61</ele>
        <time>2018-12-22T09:46:53Z</time>
      </trkpt>
      <trkpt lat="39.5722676720" lon="-8.5295308661">
        <ele>138.57</ele>
        <time>2018-12-22T09:46:58Z</time>
      </trkpt>
      <trkpt lat="39.5723289438" lon="-8.5295811575">
        <ele>138.57</ele>
        <time>2018-12-22T09:47:04Z</time>
      </trkpt>
      <trkpt lat="39.5723347273" lon="-8.5295832530">
        <ele>139.05</ele>
        <time>2018-12-22T09:47:05Z</time>
      </trkpt>
      <trkpt lat="39.5723638963" lon="-8.5295562632">
        <ele>140.01</ele>
        <time>2018-12-22T09:47:11Z</time>
      </trkpt>
      <trkpt lat="39.5723795705" lon="-8.5295193829">
        <ele>139.53</ele>
        <time>2018-12-22T09:47:17Z</time>
      </trkpt>
      <trkpt lat="39.5723793190" lon="-8.5295117553">
        <ele>140.01</ele>
        <time>2018-12-22T09:47:19Z</time>
      </trkpt>
      <trkpt lat="39.5724043809" lon="-8.5295066424">
        <ele>140.49</ele>
        <time>2018-12-22T09:47:22Z</time>
      </trkpt>
      <trkpt lat="39.5724389981" lon="-8.5295975860">
        <ele>140.97</ele>
        <time>2018-12-22T09:47:29Z</time>
      </trkpt>
      <trkpt lat="39.5724630542" lon="-8.5296626296">
        <ele>140.49</ele>
        <time>2018-12-22T09:47:34Z</time>
      </trkpt>
      <trkpt lat="39.5724808238" lon="-8.5297032818">
        <ele>142.41</ele>
        <time>2018-12-22T09:47:40Z</time>
      </trkpt>
      <trkpt lat="39.5724842604" lon="-8.5297173634">
        <ele>142.41</ele>
        <time>2018-12-22T09:47:49Z</time>
      </trkpt>
      <trkpt lat="39.5725332946" lon="-8.5296663176">
        <ele>141.45</ele>
        <time>2018-12-22T09:48:04Z</time>
      </trkpt>
      <trkpt lat="39.5725553390" lon="-8.5296118353">
        <ele>142.41</ele>
        <time>2018-12-22T09:48:17Z</time>
      </trkpt>
      <trkpt lat="39.5725325402" lon="-8.5296620429">
        <ele>142.41</ele>
        <time>2018-12-22T09:48:30Z</time>
      </trkpt>
      <trkpt lat="39.5725104958" lon="-8.5296691675">
        <ele>141.93</ele>
        <time>2018-12-22T09:48:42Z</time>
      </trkpt>
      <trkpt lat="39.5724743698" lon="-8.5296269227">
        <ele>142.41</ele>
        <time>2018-12-22T09:48:58Z</time>
      </trkpt>
      <trkpt lat="39.5725204702" lon="-8.5295955744">
        <ele>141.93</ele>
        <time>2018-12-22T09:49:12Z</time>
      </trkpt>
      <trkpt lat="39.5725341327" lon="-8.5296326224">
        <ele>141.93</ele>
        <time>2018-12-22T09:49:28Z</time>
      </trkpt>
      <trkpt lat="39.5726016909" lon="-8.5296782199">
        <ele>141.45</ele>
        <time>2018-12-22T09:49:44Z</time>
      </trkpt>
      <trkpt lat="39.5726078935" lon="-8.5297076404">
        <ele>141.93</ele>
        <time>2018-12-22T09:49:59Z</time>
      </trkpt>
      <trkpt lat="39.5726131741" lon="-8.5296841711">
        <ele>141.45</ele>
        <time>2018-12-22T09:50:12Z</time>
      </trkpt>
      <trkpt lat="39.5725101605" lon="-8.5297591053">
        <ele>141.45</ele>
        <time>2018-12-22T09:50:19Z</time>
      </trkpt>
      <trkpt lat="39.5724638086" lon="-8.5297481250">
        <ele>140.49</ele>
        <time>2018-12-22T09:50:26Z</time>
      </trkpt>
      <trkpt lat="39.5724894572" lon="-8.5297672357">
        <ele>140.97</ele>
        <time>2018-12-22T09:50:31Z</time>
      </trkpt>
      <trkpt lat="39.5724957436" lon="-8.5297655594">
        <ele>137.61</ele>
        <time>2018-12-22T09:50:36Z</time>
      </trkpt>
      <trkpt lat="39.5724967495" lon="-8.5297605302">
        <ele>139.05</ele>
        <time>2018-12-22T09:50:37Z</time>
      </trkpt>
      <trkpt lat="39.5724983420" lon="-8.5297643021">
        <ele>145.30</ele>
        <time>2018-12-22T09:50:38Z</time>
      </trkpt>
      <trkpt lat="39.5725019462" lon="-8.5297663137">
        <ele>141.45</ele>
        <time>2018-12-22T09:50:39Z</time>
      </trkpt>
      <trkpt lat="39.5725044608" lon="-8.5297650564">
        <ele>140.97</ele>
        <time>2018-12-22T09:50:40Z</time>
      </trkpt>
      <trkpt lat="39.5725306962" lon="-8.5298385657">
        <ele>140.49</ele>
        <time>2018-12-22T09:50:46Z</time>
      </trkpt>
      <trkpt lat="39.5725462027" lon="-8.5298554134">
        <ele>140.97</ele>
        <time>2018-12-22T09:50:53Z</time>
      </trkpt>
      <trkpt lat="39.5725555904" lon="-8.5298475344">
        <ele>140.97</ele>
        <time>2018-12-22T09:51:00Z</time>
      </trkpt>
      <trkpt lat="39.5725803170" lon="-8.5298178624">
        <ele>140.97</ele>
        <time>2018-12-22T09:51:06Z</time>
      </trkpt>
      <trkpt lat="39.5725852624" lon="-8.5298343748">
        <ele>141.45</ele>
        <time>2018-12-22T09:51:15Z</time>
      </trkpt>
      <trkpt lat="39.5725876931" lon="-8.5298508871">
        <ele>140.97</ele>
        <time>2018-12-22T09:51:21Z</time>
      </trkpt>
      <trkpt lat="39.5725847594" lon="-8.5298591852">
        <ele>140.97</ele>
        <time>2018-12-22T09:51:27Z</time>
      </trkpt>
      <trkpt lat="39.5725695044" lon="-8.5299330298">
        <ele>141.93</ele>
        <time>2018-12-22T09:51:35Z</time>
      </trkpt>
      <trkpt lat="39.5725703426" lon="-8.5299425013">
        <ele>140.97</ele>
        <time>2018-12-22T09:51:36Z</time>
      </trkpt>
      <trkpt lat="39.5725940634" lon="-8.5299884342">
        <ele>140.49</ele>
        <time>2018-12-22T09:51:41Z</time>
      </trkpt>
      <trkpt lat="39.5726367272" lon="-8.5300398991">
        <ele>140.01</ele>
        <time>2018-12-22T09:51:46Z</time>
      </trkpt>
      <trkpt lat="39.5726798940" lon="-8.5300749354">
        <ele>140.01</ele>
        <time>2018-12-22T09:51:51Z</time>
      </trkpt>
      <trkpt lat="39.5726995915" lon="-8.5300935432">
        <ele>139.53</ele>
        <time>2018-12-22T09:51:56Z</time>
      </trkpt>
      <trkpt lat="39.5727165230" lon="-8.5301160067">
        <ele>139.53</ele>
        <time>2018-12-22T09:52:02Z</time>
      </trkpt>
      <trkpt lat="39.5727143437" lon="-8.5301426612">
        <ele>139.05</ele>
        <time>2018-12-22T09:52:08Z</time>
      </trkpt>
      <trkpt lat="39.5727056265" lon="-8.5301310103">
        <ele>139.53</ele>
        <time>2018-12-22T09:52:12Z</time>
      </trkpt>
      <trkpt lat="39.5727023575" lon="-8.5301289987">
        <ele>139.53</ele>
        <time>2018-12-22T09:52:20Z</time>
      </trkpt>
      <trkpt lat="39.5727128349" lon="-8.5301434994">
        <ele>138.57</ele>
        <time>2018-12-22T09:52:22Z</time>
      </trkpt>
      <trkpt lat="39.5727504697" lon="-8.5301724169">
        <ele>138.57</ele>
        <time>2018-12-22T09:52:27Z</time>
      </trkpt>
      <trkpt lat="39.5727462787" lon="-8.5301678907">
        <ele>138.57</ele>
        <time>2018-12-22T09:52:28Z</time>
      </trkpt>
      <trkpt lat="39.5728145074" lon="-8.5302266479">
        <ele>137.61</ele>
        <time>2018-12-22T09:52:34Z</time>
      </trkpt>
      <trkpt lat="39.5728093944" lon="-8.5302165058">
        <ele>137.61</ele>
        <time>2018-12-22T09:52:39Z</time>
      </trkpt>
      <trkpt lat="39.5728726778" lon="-8.5302751791">
        <ele>137.13</ele>
        <time>2018-12-22T09:52:44Z</time>
      </trkpt>
      <trkpt lat="39.5729136653" lon="-8.5302887578">
        <ele>136.16</ele>
        <time>2018-12-22T09:52:50Z</time>
      </trkpt>
      <trkpt lat="39.5729159284" lon="-8.5302838963">
        <ele>136.16</ele>
        <time>2018-12-22T09:52:52Z</time>
      </trkpt>
      <trkpt lat="39.5729729254" lon="-8.5303835571">
        <ele>135.20</ele>
        <time>2018-12-22T09:52:58Z</time>
      </trkpt>
      <trkpt lat="39.5729876775" lon="-8.5304045118">
        <ele>135.20</ele>
        <time>2018-12-22T09:53:02Z</time>
      </trkpt>
      <trkpt lat="39.5729968976" lon="-8.5304216109">
        <ele>134.72</ele>
        <time>2018-12-22T09:53:05Z</time>
      </trkpt>
      <trkpt lat="39.5730746817" lon="-8.5305263847">
        <ele>133.76</ele>
        <time>2018-12-22T09:53:14Z</time>
      </trkpt>
      <trkpt lat="39.5731024258" lon="-8.5305790231">
        <ele>133.76</ele>
        <time>2018-12-22T09:53:19Z</time>
      </trkpt>
      <trkpt lat="39.5731384680" lon="-8.5306007322">
        <ele>132.80</ele>
        <time>2018-12-22T09:53:25Z</time>
      </trkpt>
      <trkpt lat="39.5731759351" lon="-8.5306402110">
        <ele>131.84</ele>
        <time>2018-12-22T09:53:30Z</time>
      </trkpt>
      <trkpt lat="39.5732277352" lon="-8.5306923464">
        <ele>132.32</ele>
        <time>2018-12-22T09:53:36Z</time>
      </trkpt>
      <trkpt lat="39.5732200239" lon="-8.5306974594">
        <ele>130.88</ele>
        <time>2018-12-22T09:53:41Z</time>
      </trkpt>
      <trkpt lat="39.5732565690" lon="-8.5307345074">
        <ele>130.88</ele>
        <time>2018-12-22T09:53:42Z</time>
      </trkpt>
      <trkpt lat="39.5732952096" lon="-8.5307738185">
        <ele>129.92</ele>
        <time>2018-12-22T09:53:49Z</time>
      </trkpt>
      <trkpt lat="39.5733779389" lon="-8.5308751557">
        <ele>129.92</ele>
        <time>2018-12-22T09:53:54Z</time>
      </trkpt>
      <trkpt lat="39.5734085329" lon="-8.5309143830">
        <ele>129.92</ele>
        <time>2018-12-22T09:53:57Z</time>
      </trkpt>
      <trkpt lat="39.5734316669" lon="-8.5309420433">
        <ele>129.43</ele>
        <time>2018-12-22T09:54:01Z</time>
      </trkpt>
      <trkpt lat="39.5734269731" lon="-8.5309231002">
        <ele>129.43</ele>
        <time>2018-12-22T09:54:06Z</time>
      </trkpt>
      <trkpt lat="39.5734285656" lon="-8.5309274588">
        <ele>128.95</ele>
        <time>2018-12-22T09:54:07Z</time>
      </trkpt>
      <trkpt lat="39.5735343453" lon="-8.5310724657">
        <ele>128.95</ele>
        <time>2018-12-22T09:54:14Z</time>
      </trkpt>
      <trkpt lat="39.5735449903" lon="-8.5310798418">
        <ele>127.51</ele>
        <time>2018-12-22T09:54:20Z</time>
      </trkpt>
      <trkpt lat="39.5735832956" lon="-8.5311473161">
        <ele>127.51</ele>
        <time>2018-12-22T09:54:25Z</time>
      </trkpt>
      <trkpt lat="39.5736389514" lon="-8.5312293749">
        <ele>127.03</ele>
        <time>2018-12-22T09:54:29Z</time>
      </trkpt>
      <trkpt lat="39.5736376103" lon="-8.5312291235">
        <ele>126.55</ele>
        <time>2018-12-22T09:54:35Z</time>
      </trkpt>
      <trkpt lat="39.5736861415" lon="-8.5313192289">
        <ele>127.03</ele>
        <time>2018-12-22T09:54:40Z</time>
      </trkpt>
      <trkpt lat="39.5737110358" lon="-8.5313321371">
        <ele>126.07</ele>
        <time>2018-12-22T09:54:45Z</time>
      </trkpt>
      <trkpt lat="39.5737050846" lon="-8.5313061532">
        <ele>125.59</ele>
        <time>2018-12-22T09:54:50Z</time>
      </trkpt>
      <trkpt lat="39.5737611596" lon="-8.5314423591">
        <ele>125.59</ele>
        <time>2018-12-22T09:54:55Z</time>
      </trkpt>
      <trkpt lat="39.5738146361" lon="-8.5315843485">
        <ele>124.63</ele>
        <time>2018-12-22T09:55:01Z</time>
      </trkpt>
      <trkpt lat="39.5738267060" lon="-8.5315708537">
        <ele>123.19</ele>
        <time>2018-12-22T09:55:07Z</time>
      </trkpt>
      <trkpt lat="39.5738331601" lon="-8.5316438600">
        <ele>123.67</ele>
        <time>2018-12-22T09:55:13Z</time>
      </trkpt>
      <trkpt lat="39.5738707948" lon="-8.5317224823">
        <ele>122.22</ele>
        <time>2018-12-22T09:55:18Z</time>
      </trkpt>
      <trkpt lat="39.5738609042" lon="-8.5317311995">
        <ele>121.74</ele>
        <time>2018-12-22T09:55:23Z</time>
      </trkpt>
      <trkpt lat="39.5739059150" lon="-8.5318319499">
        <ele>120.78</ele>
        <time>2018-12-22T09:55:28Z</time>
      </trkpt>
      <trkpt lat="39.5739288814" lon="-8.5318577662">
        <ele>120.30</ele>
        <time>2018-12-22T09:55:35Z</time>
      </trkpt>
      <trkpt lat="39.5739445556" lon="-8.5319218040">
        <ele>119.82</ele>
        <time>2018-12-22T09:55:40Z</time>
      </trkpt>
      <trkpt lat="39.5739651751" lon="-8.5319934692">
        <ele>119.34</ele>
        <time>2018-12-22T09:55:45Z</time>
      </trkpt>
      <trkpt lat="39.5739786699" lon="-8.5320218839">
        <ele>118.38</ele>
        <time>2018-12-22T09:55:51Z</time>
      </trkpt>
      <trkpt lat="39.5739995409" lon="-8.5320953093">
        <ele>116.94</ele>
        <time>2018-12-22T09:55:56Z</time>
      </trkpt>
      <trkpt lat="39.5740418695" lon="-8.5321909469">
        <ele>117.42</ele>
        <time>2018-12-22T09:56:02Z</time>
      </trkpt>
      <trkpt lat="39.5740561187" lon="-8.5322162602">
        <ele>116.46</ele>
        <time>2018-12-22T09:56:06Z</time>
      </trkpt>
      <trkpt lat="39.5740676019" lon="-8.5322556552">
        <ele>115.98</ele>
        <time>2018-12-22T09:56:09Z</time>
      </trkpt>
      <trkpt lat="39.5741290413" lon="-8.5323731694">
        <ele>115.01</ele>
        <time>2018-12-22T09:56:16Z</time>
      </trkpt>
      <trkpt lat="39.5741325617" lon="-8.5323682241">
        <ele>115.01</ele>
        <time>2018-12-22T09:56:20Z</time>
      </trkpt>
      <trkpt lat="39.5741508342" lon="-8.5324335191">
        <ele>114.53</ele>
        <time>2018-12-22T09:56:25Z</time>
      </trkpt>
      <trkpt lat="39.5741769858" lon="-8.5324709024">
        <ele>113.57</ele>
        <time>2018-12-22T09:56:29Z</time>
      </trkpt>
      <trkpt lat="39.5741999522" lon="-8.5325162485">
        <ele>114.05</ele>
        <time>2018-12-22T09:56:36Z</time>
      </trkpt>
      <trkpt lat="39.5742148720" lon="-8.5325395502">
        <ele>113.57</ele>
        <time>2018-12-22T09:56:41Z</time>
      </trkpt>
      <trkpt lat="39.5742243435" lon="-8.5325581580">
        <ele>114.05</ele>
        <time>2018-12-22T09:56:49Z</time>
      </trkpt>
      <trkpt lat="39.5742304623" lon="-8.5325770173">
        <ele>113.09</ele>
        <time>2018-12-22T09:56:57Z</time>
      </trkpt>
      <trkpt lat="39.5742444601" lon="-8.5326145682">
        <ele>113.57</ele>
        <time>2018-12-22T09:57:05Z</time>
      </trkpt>
      <trkpt lat="39.5742609724" lon="-8.5326289851">
        <ele>112.61</ele>
        <time>2018-12-22T09:57:11Z</time>
      </trkpt>
      <trkpt lat="39.5743121859" lon="-8.5326819587">
        <ele>111.65</ele>
        <time>2018-12-22T09:57:16Z</time>
      </trkpt>
      <trkpt lat="39.5743557718" lon="-8.5327087808">
        <ele>111.17</ele>
        <time>2018-12-22T09:57:21Z</time>
      </trkpt>
      <trkpt lat="39.5743915625" lon="-8.5327490140">
        <ele>110.69</ele>
        <time>2018-12-22T09:57:26Z</time>
      </trkpt>
      <trkpt lat="39.5744800754" lon="-8.5328124650">
        <ele>110.21</ele>
        <time>2018-12-22T09:57:31Z</time>
      </trkpt>
      <trkpt lat="39.5745265950" lon="-8.5328232776">
        <ele>109.25</ele>
        <time>2018-12-22T09:57:37Z</time>
      </trkpt>
      <trkpt lat="39.5745563507" lon="-8.5328425560">
        <ele>108.29</ele>
        <time>2018-12-22T09:57:43Z</time>
      </trkpt>
      <trkpt lat="39.5746565983" lon="-8.5328796878">
        <ele>107.81</ele>
        <time>2018-12-22T09:57:48Z</time>
      </trkpt>
      <trkpt lat="39.5747034531" lon="-8.5328873992">
        <ele>107.32</ele>
        <time>2018-12-22T09:57:53Z</time>
      </trkpt>
      <trkpt lat="39.5746964961" lon="-8.5328828730">
        <ele>106.84</ele>
        <time>2018-12-22T09:57:59Z</time>
      </trkpt>
      <trkpt lat="39.5747789741" lon="-8.5328897461">
        <ele>105.88</ele>
        <time>2018-12-22T09:58:04Z</time>
      </trkpt>
      <trkpt lat="39.5749109052" lon="-8.5329030734">
        <ele>105.40</ele>
        <time>2018-12-22T09:58:10Z</time>
      </trkpt>
      <trkpt lat="39.5749515574" lon="-8.5328922607">
        <ele>104.44</ele>
        <time>2018-12-22T09:58:16Z</time>
      </trkpt>
      <trkpt lat="39.5749612805" lon="-8.5328911711">
        <ele>103.96</ele>
        <time>2018-12-22T09:58:20Z</time>
      </trkpt>
      <trkpt lat="39.5749521442" lon="-8.5328532010">
        <ele>103.00</ele>
        <time>2018-12-22T09:58:27Z</time>
      </trkpt>
      <trkpt lat="39.5749653876" lon="-8.5328516923">
        <ele>103.48</ele>
        <time>2018-12-22T09:58:28Z</time>
      </trkpt>
      <trkpt lat="39.5751212072" lon="-8.5328928474">
        <ele>102.52</ele>
        <time>2018-12-22T09:58:33Z</time>
      </trkpt>
      <trkpt lat="39.5752629451" lon="-8.5329202563">
        <ele>102.52</ele>
        <time>2018-12-22T09:58:39Z</time>
      </trkpt>
      <trkpt lat="39.5752673876" lon="-8.5329377744">
        <ele>101.56</ele>
        <time>2018-12-22T09:58:45Z</time>
      </trkpt>
      <trkpt lat="39.5752639510" lon="-8.5329413787">
        <ele>101.56</ele>
        <time>2018-12-22T09:58:51Z</time>
      </trkpt>
      <trkpt lat="39.5753840636" lon="-8.5329650994">
        <ele>100.60</ele>
        <time>2018-12-22T09:58:56Z</time>
      </trkpt>
      <trkpt lat="39.5754891727" lon="-8.5329568852">
        <ele>100.60</ele>
        <time>2018-12-22T09:59:01Z</time>
      </trkpt>
      <trkpt lat="39.5755071938" lon="-8.5329485871">
        <ele>101.08</ele>
        <time>2018-12-22T09:59:08Z</time>
      </trkpt>
      <trkpt lat="39.5755420625" lon="-8.5329507664">
        <ele>100.60</ele>
        <time>2018-12-22T09:59:13Z</time>
      </trkpt>
      <trkpt lat="39.5756852254" lon="-8.5330122057">
        <ele>101.08</ele>
        <time>2018-12-22T09:59:19Z</time>
      </trkpt>
      <trkpt lat="39.5756925177" lon="-8.5329918377">
        <ele>101.08</ele>
        <time>2018-12-22T09:59:25Z</time>
      </trkpt>
      <trkpt lat="39.5758055057" lon="-8.5330286343">
        <ele>101.56</ele>
        <time>2018-12-22T09:59:31Z</time>
      </trkpt>
      <trkpt lat="39.5758220181" lon="-8.5330275446">
        <ele>101.56</ele>
        <time>2018-12-22T09:59:35Z</time>
      </trkpt>
      <trkpt lat="39.5758211799" lon="-8.5330363456">
        <ele>101.08</ele>
        <time>2018-12-22T09:59:39Z</time>
      </trkpt>
      <trkpt lat="39.5758946892" lon="-8.5330598149">
        <ele>101.08</ele>
        <time>2018-12-22T09:59:42Z</time>
      </trkpt>
      <trkpt lat="39.5759407058" lon="-8.5330543667">
        <ele>100.60</ele>
        <time>2018-12-22T09:59:47Z</time>
      </trkpt>
      <trkpt lat="39.5759330783" lon="-8.5330430511">
        <ele>101.08</ele>
        <time>2018-12-22T09:59:49Z</time>
      </trkpt>
      <trkpt lat="39.5760587230" lon="-8.5330695380">
        <ele>101.08</ele>
        <time>2018-12-22T09:59:55Z</time>
      </trkpt>
      <trkpt lat="39.5761021413" lon="-8.5330949351">
        <ele>101.08</ele>
        <time>2018-12-22T10:00:00Z</time>
      </trkpt>
      <trkpt lat="39.5761354174" lon="-8.5331004672">
        <ele>100.60</ele>
        <time>2018-12-22T10:00:06Z</time>
      </trkpt>
      <trkpt lat="39.5762506686" lon="-8.5331390239">
        <ele>100.60</ele>
        <time>2018-12-22T10:00:11Z</time>
      </trkpt>
      <trkpt lat="39.5762784965" lon="-8.5331408679">
        <ele>101.08</ele>
        <time>2018-12-22T10:00:16Z</time>
      </trkpt>
      <trkpt lat="39.5762700308" lon="-8.5331463162">
        <ele>101.08</ele>
        <time>2018-12-22T10:00:19Z</time>
      </trkpt>
      <trkpt lat="39.5763645787" lon="-8.5332525987">
        <ele>101.08</ele>
        <time>2018-12-22T10:00:25Z</time>
      </trkpt>
      <trkpt lat="39.5764025487" lon="-8.5332630761">
        <ele>101.56</ele>
        <time>2018-12-22T10:00:29Z</time>
      </trkpt>
      <trkpt lat="39.5764043927" lon="-8.5332578793">
        <ele>101.56</ele>
        <time>2018-12-22T10:00:33Z</time>
      </trkpt>
      <trkpt lat="39.5763955079" lon="-8.5332583822">
        <ele>101.08</ele>
        <time>2018-12-22T10:00:35Z</time>
      </trkpt>
      <trkpt lat="39.5764740463" lon="-8.5333769862">
        <ele>101.08</ele>
        <time>2018-12-22T10:00:40Z</time>
      </trkpt>
      <trkpt lat="39.5765065681" lon="-8.5333923250">
        <ele>102.04</ele>
        <time>2018-12-22T10:00:45Z</time>
      </trkpt>
      <trkpt lat="39.5765970927" lon="-8.5334915668">
        <ele>101.56</ele>
        <time>2018-12-22T10:00:51Z</time>
      </trkpt>
      <trkpt lat="39.5766338892" lon="-8.5334994458">
        <ele>102.04</ele>
        <time>2018-12-22T10:00:55Z</time>
      </trkpt>
      <trkpt lat="39.5766333025" lon="-8.5334915668">
        <ele>102.52</ele>
        <time>2018-12-22T10:00:59Z</time>
      </trkpt>
      <trkpt lat="39.5767401718" lon="-8.5335091688">
        <ele>102.52</ele>
        <time>2018-12-22T10:01:05Z</time>
      </trkpt>
      <trkpt lat="39.5767696761" lon="-8.5335255973">
        <ele>102.52</ele>
        <time>2018-12-22T10:01:10Z</time>
      </trkpt>
      <trkpt lat="39.5768417604" lon="-8.5335472226">
        <ele>102.52</ele>
        <time>2018-12-22T10:01:16Z</time>
      </trkpt>
      <trkpt lat="39.5769018587" lon="-8.5335586220">
        <ele>102.52</ele>
        <time>2018-12-22T10:01:22Z</time>
      </trkpt>
      <trkpt lat="39.5769016910" lon="-8.5335466359">
        <ele>102.52</ele>
        <time>2018-12-22T10:01:25Z</time>
      </trkpt>
      <trkpt lat="39.5769696683" lon="-8.5335778166">
        <ele>103.48</ele>
        <time>2018-12-22T10:01:29Z</time>
      </trkpt>
      <trkpt lat="39.5770648867" lon="-8.5336086620">
        <ele>103.00</ele>
        <time>2018-12-22T10:01:35Z</time>
      </trkpt>
      <trkpt lat="39.5770832431" lon="-8.5336121824">
        <ele>103.00</ele>
        <time>2018-12-22T10:01:40Z</time>
      </trkpt>
      <trkpt lat="39.5772168506" lon="-8.5336645693">
        <ele>103.96</ele>
        <time>2018-12-22T10:01:47Z</time>
      </trkpt>
      <trkpt lat="39.5772477798" lon="-8.5336748790">
        <ele>104.44</ele>
        <time>2018-12-22T10:01:53Z</time>
      </trkpt>
      <trkpt lat="39.5772503782" lon="-8.5336750466">
        <ele>104.92</ele>
        <time>2018-12-22T10:01:54Z</time>
      </trkpt>
      <trkpt lat="39.5773429982" lon="-8.5337387491">
        <ele>104.92</ele>
        <time>2018-12-22T10:02:00Z</time>
      </trkpt>
      <trkpt lat="39.5773735922" lon="-8.5337503999">
        <ele>105.40</ele>
        <time>2018-12-22T10:02:06Z</time>
      </trkpt>
      <trkpt lat="39.5774769410" lon="-8.5338043794">
        <ele>105.40</ele>
        <time>2018-12-22T10:02:12Z</time>
      </trkpt>
      <trkpt lat="39.5775113907" lon="-8.5338262562">
        <ele>105.40</ele>
        <time>2018-12-22T10:02:18Z</time>
      </trkpt>
      <trkpt lat="39.5776146557" lon="-8.5339333769">
        <ele>105.88</ele>
        <time>2018-12-22T10:02:24Z</time>
      </trkpt>
      <trkpt lat="39.5776756760" lon="-8.5339783039">
        <ele>106.36</ele>
        <time>2018-12-22T10:02:32Z</time>
      </trkpt>
      <trkpt lat="39.5776738320" lon="-8.5339788906">
        <ele>106.36</ele>
        <time>2018-12-22T10:02:33Z</time>
      </trkpt>
      <trkpt lat="39.5777698886" lon="-8.5340489633">
        <ele>106.36</ele>
        <time>2018-12-22T10:02:39Z</time>
      </trkpt>
      <trkpt lat="39.5777771808" lon="-8.5340477061">
        <ele>105.88</ele>
        <time>2018-12-22T10:02:45Z</time>
      </trkpt>
      <trkpt lat="39.5778594073" lon="-8.5341137554">
        <ele>105.88</ele>
        <time>2018-12-22T10:02:50Z</time>
      </trkpt>
      <trkpt lat="39.5779047534" lon="-8.5341513902">
        <ele>106.84</ele>
        <time>2018-12-22T10:02:55Z</time>
      </trkpt>
      <trkpt lat="39.5779034123" lon="-8.5341518931">
        <ele>106.36</ele>
        <time>2018-12-22T10:02:56Z</time>
      </trkpt>
      <trkpt lat="39.5779934339" lon="-8.5342054535">
        <ele>106.36</ele>
        <time>2018-12-22T10:03:02Z</time>
      </trkpt>
      <trkpt lat="39.5780394506" lon="-8.5342394840">
        <ele>106.84</ele>
        <time>2018-12-22T10:03:08Z</time>
      </trkpt>
      <trkpt lat="39.5780943520" lon="-8.5343092214">
        <ele>107.81</ele>
        <time>2018-12-22T10:03:14Z</time>
      </trkpt>
      <trkpt lat="39.5780993812" lon="-8.5343109816">
        <ele>107.32</ele>
        <time>2018-12-22T10:03:15Z</time>
      </trkpt>
      <trkpt lat="39.5781271253" lon="-8.5343899392">
        <ele>108.77</ele>
        <time>2018-12-22T10:03:21Z</time>
      </trkpt>
      <trkpt lat="39.5781303942" lon="-8.5343953036">
        <ele>109.25</ele>
        <time>2018-12-22T10:03:23Z</time>
      </trkpt>
      <trkpt lat="39.5781458169" lon="-8.5344994068">
        <ele>109.73</ele>
        <time>2018-12-22T10:03:30Z</time>
      </trkpt>
      <trkpt lat="39.5781578869" lon="-8.5346043482">
        <ele>110.21</ele>
        <time>2018-12-22T10:03:35Z</time>
      </trkpt>
      <trkpt lat="39.5781591441" lon="-8.5346206930">
        <ele>111.17</ele>
        <time>2018-12-22T10:03:40Z</time>
      </trkpt>
      <trkpt lat="39.5781606529" lon="-8.5346186813">
        <ele>111.17</ele>
        <time>2018-12-22T10:03:42Z</time>
      </trkpt>
      <trkpt lat="39.5782086812" lon="-8.5346922744">
        <ele>112.13</ele>
        <time>2018-12-22T10:03:48Z</time>
      </trkpt>
      <trkpt lat="39.5782383531" lon="-8.5347483493">
        <ele>113.09</ele>
        <time>2018-12-22T10:03:53Z</time>
      </trkpt>
      <trkpt lat="39.5782389399" lon="-8.5347540490">
        <ele>112.61</ele>
        <time>2018-12-22T10:03:56Z</time>
      </trkpt>
      <trkpt lat="39.5782780834" lon="-8.5348410532">
        <ele>113.57</ele>
        <time>2018-12-22T10:04:03Z</time>
      </trkpt>
      <trkpt lat="39.5782847889" lon="-8.5348611698">
        <ele>113.57</ele>
        <time>2018-12-22T10:04:05Z</time>
      </trkpt>
      <trkpt lat="39.5783185679" lon="-8.5349070188">
        <ele>113.57</ele>
        <time>2018-12-22T10:04:11Z</time>
      </trkpt>
      <trkpt lat="39.5783198252" lon="-8.5349119641">
        <ele>114.05</ele>
        <time>2018-12-22T10:04:12Z</time>
      </trkpt>
      <trkpt lat="39.5783608127" lon="-8.5349832103">
        <ele>115.01</ele>
        <time>2018-12-22T10:04:18Z</time>
      </trkpt>
      <trkpt lat="39.5784100145" lon="-8.5350651853">
        <ele>115.01</ele>
        <time>2018-12-22T10:04:24Z</time>
      </trkpt>
      <trkpt lat="39.5784119423" lon="-8.5350639280">
        <ele>114.53</ele>
        <time>2018-12-22T10:04:25Z</time>
      </trkpt>
      <trkpt lat="39.5784739684" lon="-8.5351397842">
        <ele>115.50</ele>
        <time>2018-12-22T10:04:31Z</time>
      </trkpt>
      <trkpt lat="39.5784770697" lon="-8.5351401195">
        <ele>116.46</ele>
        <time>2018-12-22T10:04:37Z</time>
      </trkpt>
      <trkpt lat="39.5784899779" lon="-8.5351768322">
        <ele>116.46</ele>
        <time>2018-12-22T10:04:43Z</time>
      </trkpt>
      <trkpt lat="39.5785410237" lon="-8.5352526046">
        <ele>116.46</ele>
        <time>2018-12-22T10:04:47Z</time>
      </trkpt>
      <trkpt lat="39.5785623975" lon="-8.5353076737">
        <ele>116.94</ele>
        <time>2018-12-22T10:04:53Z</time>
      </trkpt>
      <trkpt lat="39.5786121860" lon="-8.5354233440">
        <ele>117.90</ele>
        <time>2018-12-22T10:04:59Z</time>
      </trkpt>
      <trkpt lat="39.5786086656" lon="-8.5354263615">
        <ele>118.38</ele>
        <time>2018-12-22T10:05:02Z</time>
      </trkpt>
      <trkpt lat="39.5786540117" lon="-8.5354981106">
        <ele>117.90</ele>
        <time>2018-12-22T10:05:07Z</time>
      </trkpt>
      <trkpt lat="39.5786932390" lon="-8.5355315544">
        <ele>119.34</ele>
        <time>2018-12-22T10:05:13Z</time>
      </trkpt>
      <trkpt lat="39.5787410997" lon="-8.5355662555">
        <ele>118.38</ele>
        <time>2018-12-22T10:05:18Z</time>
      </trkpt>
      <trkpt lat="39.5787433628" lon="-8.5355665069">
        <ele>118.86</ele>
        <time>2018-12-22T10:05:19Z</time>
      </trkpt>
      <trkpt lat="39.5788260922" lon="-8.5356633179">
        <ele>119.82</ele>
        <time>2018-12-22T10:05:25Z</time>
      </trkpt>
      <trkpt lat="39.5788390841" lon="-8.5356681794">
        <ele>119.82</ele>
        <time>2018-12-22T10:05:29Z</time>
      </trkpt>
      <trkpt lat="39.5789122581" lon="-8.5357250925">
        <ele>119.82</ele>
        <time>2018-12-22T10:05:35Z</time>
      </trkpt>
      <trkpt lat="39.5789476298" lon="-8.5357477237">
        <ele>119.34</ele>
        <time>2018-12-22T10:05:42Z</time>
      </trkpt>
      <trkpt lat="39.5790177025" lon="-8.5357995238">
        <ele>119.82</ele>
        <time>2018-12-22T10:05:47Z</time>
      </trkpt>
      <trkpt lat="39.5791026112" lon="-8.5358576942">
        <ele>119.34</ele>
        <time>2018-12-22T10:05:53Z</time>
      </trkpt>
      <trkpt lat="39.5791025274" lon="-8.5358719435">
        <ele>118.86</ele>
        <time>2018-12-22T10:05:59Z</time>
      </trkpt>
      <trkpt lat="39.5791246556" lon="-8.5358756315">
        <ele>118.86</ele>
        <time>2018-12-22T10:06:04Z</time>
      </trkpt>
      <trkpt lat="39.5791905373" lon="-8.5358831752">
        <ele>119.34</ele>
        <time>2018-12-22T10:06:07Z</time>
      </trkpt>
      <trkpt lat="39.5792910364" lon="-8.5358463787">
        <ele>118.86</ele>
        <time>2018-12-22T10:06:12Z</time>
      </trkpt>
      <trkpt lat="39.5793221332" lon="-8.5358457919">
        <ele>118.86</ele>
        <time>2018-12-22T10:06:20Z</time>
      </trkpt>
      <trkpt lat="39.5793349575" lon="-8.5358436964">
        <ele>118.86</ele>
        <time>2018-12-22T10:06:22Z</time>
      </trkpt>
      <trkpt lat="39.5794172678" lon="-8.5358882044">
        <ele>119.34</ele>
        <time>2018-12-22T10:06:26Z</time>
      </trkpt>
      <trkpt lat="39.5795442536" lon="-8.5359583609">
        <ele>118.86</ele>
        <time>2018-12-22T10:06:32Z</time>
      </trkpt>
      <trkpt lat="39.5796432439" lon="-8.5360374860">
        <ele>118.38</ele>
        <time>2018-12-22T10:06:38Z</time>
      </trkpt>
      <trkpt lat="39.5796006639" lon="-8.5360532440">
        <ele>117.42</ele>
        <time>2018-12-22T10:06:45Z</time>
      </trkpt>
      <trkpt lat="39.5796030108" lon="-8.5360603686">
        <ele>117.90</ele>
        <time>2018-12-22T10:06:46Z</time>
      </trkpt>
      <trkpt lat="39.5797162503" lon="-8.5362103209">
        <ele>117.42</ele>
        <time>2018-12-22T10:06:54Z</time>
      </trkpt>
      <trkpt lat="39.5797712356" lon="-8.5362736881">
        <ele>117.90</ele>
        <time>2018-12-22T10:07:00Z</time>
      </trkpt>
      <trkpt lat="39.5797906816" lon="-8.5362793878">
        <ele>118.38</ele>
        <time>2018-12-22T10:07:04Z</time>
      </trkpt>
      <trkpt lat="39.5798031706" lon="-8.5363326129">
        <ele>118.86</ele>
        <time>2018-12-22T10:07:07Z</time>
      </trkpt>
      <trkpt lat="39.5798401348" lon="-8.5364060383">
        <ele>119.34</ele>
        <time>2018-12-22T10:07:13Z</time>
      </trkpt>
      <trkpt lat="39.5798363630" lon="-8.5364181921">
        <ele>118.86</ele>
        <time>2018-12-22T10:07:16Z</time>
      </trkpt>
      <trkpt lat="39.5799104590" lon="-8.5365350358">
        <ele>118.86</ele>
        <time>2018-12-22T10:07:22Z</time>
      </trkpt>
      <trkpt lat="39.5799736585" lon="-8.5365645401">
        <ele>118.38</ele>
        <time>2018-12-22T10:07:29Z</time>
      </trkpt>
      <trkpt lat="39.5799703896" lon="-8.5365604330">
        <ele>117.90</ele>
        <time>2018-12-22T10:07:34Z</time>
      </trkpt>
      <trkpt lat="39.5800115447" lon="-8.5364698246">
        <ele>116.94</ele>
        <time>2018-12-22T10:07:39Z</time>
      </trkpt>
      <trkpt lat="39.5800429769" lon="-8.5364103131">
        <ele>117.42</ele>
        <time>2018-12-22T10:07:43Z</time>
      </trkpt>
      <trkpt lat="39.5800571423" lon="-8.5363811441">
        <ele>115.98</ele>
        <time>2018-12-22T10:07:47Z</time>
      </trkpt>
      <trkpt lat="39.5800832100" lon="-8.5363386478">
        <ele>115.98</ele>
        <time>2018-12-22T10:07:55Z</time>
      </trkpt>
      <trkpt lat="39.5800760854" lon="-8.5363293439">
        <ele>115.98</ele>
        <time>2018-12-22T10:07:58Z</time>
      </trkpt>
      <trkpt lat="39.5800479222" lon="-8.5363425873">
        <ele>115.50</ele>
        <time>2018-12-22T10:08:02Z</time>
      </trkpt>
      <trkpt lat="39.5801197551" lon="-8.5363999195">
        <ele>114.53</ele>
        <time>2018-12-22T10:08:09Z</time>
      </trkpt>
      <trkpt lat="39.5802044962" lon="-8.5364469420">
        <ele>114.05</ele>
        <time>2018-12-22T10:08:13Z</time>
      </trkpt>
      <trkpt lat="39.5802254509" lon="-8.5364557430">
        <ele>114.05</ele>
        <time>2018-12-22T10:08:14Z</time>
      </trkpt>
      <trkpt lat="39.5802794304" lon="-8.5365270730">
        <ele>113.09</ele>
        <time>2018-12-22T10:08:21Z</time>
      </trkpt>
      <trkpt lat="39.5802945178" lon="-8.5365314316">
        <ele>113.09</ele>
        <time>2018-12-22T10:08:26Z</time>
      </trkpt>
      <trkpt lat="39.5802911650" lon="-8.5365286656">
        <ele>113.09</ele>
        <time>2018-12-22T10:08:27Z</time>
      </trkpt>
      <trkpt lat="39.5802771673" lon="-8.5365161765">
        <ele>111.65</ele>
        <time>2018-12-22T10:08:33Z</time>
      </trkpt>
      <trkpt lat="39.5803863835" lon="-8.5365450941">
        <ele>112.13</ele>
        <time>2018-12-22T10:08:38Z</time>
      </trkpt>
      <trkpt lat="39.5804848708" lon="-8.5365784541">
        <ele>111.17</ele>
        <time>2018-12-22T10:08:43Z</time>
      </trkpt>
      <trkpt lat="39.5805308875" lon="-8.5365900211">
        <ele>110.21</ele>
        <time>2018-12-22T10:08:50Z</time>
      </trkpt>
      <trkpt lat="39.5806569513" lon="-8.5365801305">
        <ele>110.21</ele>
        <time>2018-12-22T10:08:56Z</time>
      </trkpt>
      <trkpt lat="39.5806965139" lon="-8.5365768615">
        <ele>110.21</ele>
        <time>2018-12-22T10:09:00Z</time>
      </trkpt>
      <trkpt lat="39.5806968492" lon="-8.5365424957">
        <ele>110.69</ele>
        <time>2018-12-22T10:09:06Z</time>
      </trkpt>
      <trkpt lat="39.5807019621" lon="-8.5365427472">
        <ele>110.69</ele>
        <time>2018-12-22T10:09:07Z</time>
      </trkpt>
      <trkpt lat="39.5807276946" lon="-8.5365404841">
        <ele>110.69</ele>
        <time>2018-12-22T10:09:14Z</time>
      </trkpt>
      <trkpt lat="39.5807284489" lon="-8.5365488660">
        <ele>112.13</ele>
        <time>2018-12-22T10:09:23Z</time>
      </trkpt>
      <trkpt lat="39.5807311311" lon="-8.5365606006">
        <ele>110.69</ele>
        <time>2018-12-22T10:09:29Z</time>
      </trkpt>
      <trkpt lat="39.5807574503" lon="-8.5365661327">
        <ele>111.65</ele>
        <time>2018-12-22T10:09:40Z</time>
      </trkpt>
      <trkpt lat="39.5807567798" lon="-8.5366011690">
        <ele>111.65</ele>
        <time>2018-12-22T10:09:46Z</time>
      </trkpt>
      <trkpt lat="39.5807890501" lon="-8.5366229620">
        <ele>111.65</ele>
        <time>2018-12-22T10:09:47Z</time>
      </trkpt>
      <trkpt lat="39.5807893015" lon="-8.5366143286">
        <ele>110.69</ele>
        <time>2018-12-22T10:09:52Z</time>
      </trkpt>
      <trkpt lat="39.5808109269" lon="-8.5366331041">
        <ele>110.21</ele>
        <time>2018-12-22T10:09:58Z</time>
      </trkpt>
      <trkpt lat="39.5808163751" lon="-8.5366708227">
        <ele>109.73</ele>
        <time>2018-12-22T10:10:04Z</time>
      </trkpt>
      <trkpt lat="39.5808140282" lon="-8.5366705712">
        <ele>110.69</ele>
        <time>2018-12-22T10:10:10Z</time>
      </trkpt>
      <trkpt lat="39.5807965100" lon="-8.5366796236">
        <ele>110.21</ele>
        <time>2018-12-22T10:10:16Z</time>
      </trkpt>
      <trkpt lat="39.5808196440" lon="-8.5367098823">
        <ele>106.36</ele>
        <time>2018-12-22T10:10:19Z</time>
      </trkpt>
      <trkpt lat="39.5808202308" lon="-8.5367118102">
        <ele>111.17</ele>
        <time>2018-12-22T10:10:20Z</time>
      </trkpt>
      <trkpt lat="39.5807995275" lon="-8.5366704036">
        <ele>106.36</ele>
        <time>2018-12-22T10:23:24Z</time>
      </trkpt>
      <trkpt lat="39.5809886232" lon="-8.5366691463">
        <ele>107.81</ele>
        <time>2018-12-22T10:23:34Z</time>
      </trkpt>
      <trkpt lat="39.5809898805" lon="-8.5366772767">
        <ele>108.29</ele>
        <time>2018-12-22T10:23:35Z</time>
      </trkpt>
      <trkpt lat="39.5810562652" lon="-8.5367132351">
        <ele>109.73</ele>
        <time>2018-12-22T10:23:42Z</time>
      </trkpt>
      <trkpt lat="39.5810520742" lon="-8.5367259756">
        <ele>110.21</ele>
        <time>2018-12-22T10:23:45Z</time>
      </trkpt>
      <trkpt lat="39.5810671616" lon="-8.5368143208">
        <ele>110.21</ele>
        <time>2018-12-22T10:23:51Z</time>
      </trkpt>
      <trkpt lat="39.5811118372" lon="-8.5368069448">
        <ele>110.69</ele>
        <time>2018-12-22T10:23:57Z</time>
      </trkpt>
      <trkpt lat="39.5811238233" lon="-8.5367906839">
        <ele>111.65</ele>
        <time>2018-12-22T10:24:01Z</time>
      </trkpt>
      <trkpt lat="39.5811469574" lon="-8.5367962159">
        <ele>112.13</ele>
        <time>2018-12-22T10:24:03Z</time>
      </trkpt>
      <trkpt lat="39.5812027808" lon="-8.5368137341">
        <ele>113.09</ele>
        <time>2018-12-22T10:24:09Z</time>
      </trkpt>
      <trkpt lat="39.5812278427" lon="-8.5368597507">
        <ele>112.61</ele>
        <time>2018-12-22T10:24:13Z</time>
      </trkpt>
      <trkpt lat="39.5812588558" lon="-8.5368978046">
        <ele>112.61</ele>
        <time>2018-12-22T10:24:17Z</time>
      </trkpt>
      <trkpt lat="39.5812821575" lon="-8.5369489342">
        <ele>112.13</ele>
        <time>2018-12-22T10:24:23Z</time>
      </trkpt>
      <trkpt lat="39.5813155174" lon="-8.5370161571">
        <ele>112.61</ele>
        <time>2018-12-22T10:24:28Z</time>
      </trkpt>
      <trkpt lat="39.5813362207" lon="-8.5370611679">
        <ele>112.61</ele>
        <time>2018-12-22T10:24:34Z</time>
      </trkpt>
      <trkpt lat="39.5813564211" lon="-8.5370990541">
        <ele>112.61</ele>
        <time>2018-12-22T10:24:37Z</time>
      </trkpt>
      <trkpt lat="39.5813862607" lon="-8.5371207632">
        <ele>112.13</ele>
        <time>2018-12-22T10:24:41Z</time>
      </trkpt>
      <trkpt lat="39.5814316068" lon="-8.5371362697">
        <ele>113.09</ele>
        <time>2018-12-22T10:24:47Z</time>
      </trkpt>
      <trkpt lat="39.5814569201" lon="-8.5371522792">
        <ele>113.57</ele>
        <time>2018-12-22T10:24:54Z</time>
      </trkpt>
      <trkpt lat="39.5814660564" lon="-8.5371456575">
        <ele>113.09</ele>
        <time>2018-12-22T10:25:03Z</time>
      </trkpt>
      <trkpt lat="39.5814783778" lon="-8.5371464957">
        <ele>114.05</ele>
        <time>2018-12-22T10:25:13Z</time>
      </trkpt>
      <trkpt lat="39.5814800542" lon="-8.5371491779">
        <ele>113.57</ele>
        <time>2018-12-22T10:25:20Z</time>
      </trkpt>
      <trkpt lat="39.5814867597" lon="-8.5371587332">
        <ele>113.09</ele>
        <time>2018-12-22T10:25:26Z</time>
      </trkpt>
      <trkpt lat="39.5815102290" lon="-8.5371661931">
        <ele>113.09</ele>
        <time>2018-12-22T10:25:31Z</time>
      </trkpt>
      <trkpt lat="39.5815137494" lon="-8.5372008104">
        <ele>112.61</ele>
        <time>2018-12-22T10:25:39Z</time>
      </trkpt>
      <trkpt lat="39.5815078821" lon="-8.5372352600">
        <ele>113.57</ele>
        <time>2018-12-22T10:25:50Z</time>
      </trkpt>
      <trkpt lat="39.5814946387" lon="-8.5372494254">
        <ele>113.09</ele>
        <time>2018-12-22T10:26:06Z</time>
      </trkpt>
      <trkpt lat="39.5814757794" lon="-8.5372602381">
        <ele>113.57</ele>
        <time>2018-12-22T10:26:29Z</time>
      </trkpt>
      <trkpt lat="39.5814932976" lon="-8.5372638423">
        <ele>114.05</ele>
        <time>2018-12-22T10:26:48Z</time>
      </trkpt>
      <trkpt lat="39.5814798027" lon="-8.5372341704">
        <ele>114.05</ele>
        <time>2018-12-22T10:27:02Z</time>
      </trkpt>
      <trkpt lat="39.5814983267" lon="-8.5372210946">
        <ele>114.05</ele>
        <time>2018-12-22T10:27:08Z</time>
      </trkpt>
      <trkpt lat="39.5815417450" lon="-8.5372475814">
        <ele>114.53</ele>
        <time>2018-12-22T10:27:15Z</time>
      </trkpt>
      <trkpt lat="39.5815477800" lon="-8.5372485034">
        <ele>114.53</ele>
        <time>2018-12-22T10:27:16Z</time>
      </trkpt>
      <trkpt lat="39.5815688185" lon="-8.5372518562">
        <ele>114.53</ele>
        <time>2018-12-22T10:27:22Z</time>
      </trkpt>
      <trkpt lat="39.5815704949" lon="-8.5372479167">
        <ele>115.01</ele>
        <time>2018-12-22T10:27:24Z</time>
      </trkpt>
      <trkpt lat="39.5815685671" lon="-8.5372072645">
        <ele>115.01</ele>
        <time>2018-12-22T10:27:29Z</time>
      </trkpt>
      <trkpt lat="39.5815693215" lon="-8.5372221842">
        <ele>115.01</ele>
        <time>2018-12-22T10:27:35Z</time>
      </trkpt>
      <trkpt lat="39.5815598499" lon="-8.5372192506">
        <ele>115.98</ele>
        <time>2018-12-22T10:27:42Z</time>
      </trkpt>
      <trkpt lat="39.5815531444" lon="-8.5372314882">
        <ele>114.53</ele>
        <time>2018-12-22T10:27:49Z</time>
      </trkpt>
      <trkpt lat="39.5815405715" lon="-8.5372658540">
        <ele>115.01</ele>
        <time>2018-12-22T10:27:55Z</time>
      </trkpt>
      <trkpt lat="39.5815495402" lon="-8.5372499283">
        <ele>115.01</ele>
        <time>2018-12-22T10:28:11Z</time>
      </trkpt>
      <trkpt lat="39.5815488696" lon="-8.5372581426">
        <ele>114.53</ele>
        <time>2018-12-22T10:28:36Z</time>
      </trkpt>
      <trkpt lat="39.5815347880" lon="-8.5372319911">
        <ele>114.53</ele>
        <time>2018-12-22T10:28:54Z</time>
      </trkpt>
      <trkpt lat="39.5815445110" lon="-8.5372293089">
        <ele>114.05</ele>
        <time>2018-12-22T10:29:02Z</time>
      </trkpt>
      <trkpt lat="39.5815575868" lon="-8.5372182447">
        <ele>114.53</ele>
        <time>2018-12-22T10:29:09Z</time>
      </trkpt>
      <trkpt lat="39.5815922879" lon="-8.5372003075">
        <ele>115.01</ele>
        <time>2018-12-22T10:29:20Z</time>
      </trkpt>
      <trkpt lat="39.5816015080" lon="-8.5371780954">
        <ele>115.50</ele>
        <time>2018-12-22T10:29:46Z</time>
      </trkpt>
      <trkpt lat="39.5815746859" lon="-8.5372003913">
        <ele>115.50</ele>
        <time>2018-12-22T10:30:03Z</time>
      </trkpt>
      <trkpt lat="39.5815691538" lon="-8.5372242797">
        <ele>115.98</ele>
        <time>2018-12-22T10:30:11Z</time>
      </trkpt>
      <trkpt lat="39.5815566648" lon="-8.5372432228">
        <ele>115.01</ele>
        <time>2018-12-22T10:30:20Z</time>
      </trkpt>
      <trkpt lat="39.5815422479" lon="-8.5372469947">
        <ele>115.50</ele>
        <time>2018-12-22T10:30:30Z</time>
      </trkpt>
      <trkpt lat="39.5815380570" lon="-8.5372711346">
        <ele>115.50</ele>
        <time>2018-12-22T10:30:36Z</time>
      </trkpt>
      <trkpt lat="39.5815481152" lon="-8.5372667760">
        <ele>115.50</ele>
        <time>2018-12-22T10:30:55Z</time>
      </trkpt>
      <trkpt lat="39.5815357100" lon="-8.5372490063">
        <ele>114.53</ele>
        <time>2018-12-22T10:31:04Z</time>
      </trkpt>
      <trkpt lat="39.5815334469" lon="-8.5372286383">
        <ele>115.50</ele>
        <time>2018-12-22T10:31:11Z</time>
      </trkpt>
      <trkpt lat="39.5815323573" lon="-8.5372033250">
        <ele>115.01</ele>
        <time>2018-12-22T10:31:18Z</time>
      </trkpt>
      <trkpt lat="39.5815445948" lon="-8.5372214299">
        <ele>115.50</ele>
        <time>2018-12-22T10:31:21Z</time>
      </trkpt>
      <trkpt lat="39.5815638732" lon="-8.5372297280">
        <ele>115.50</ele>
        <time>2018-12-22T10:31:24Z</time>
      </trkpt>
      <trkpt lat="39.5816010889" lon="-8.5372268781">
        <ele>115.01</ele>
        <time>2018-12-22T10:31:30Z</time>
      </trkpt>
      <trkpt lat="39.5816357061" lon="-8.5372542869">
        <ele>116.46</ele>
        <time>2018-12-22T10:31:36Z</time>
      </trkpt>
      <trkpt lat="39.5816741791" lon="-8.5372749902">
        <ele>116.46</ele>
        <time>2018-12-22T10:31:43Z</time>
      </trkpt>
      <trkpt lat="39.5816900209" lon="-8.5373009741">
        <ele>116.46</ele>
        <time>2018-12-22T10:31:49Z</time>
      </trkpt>
      <trkpt lat="39.5816837344" lon="-8.5373609047">
        <ele>115.98</ele>
        <time>2018-12-22T10:32:04Z</time>
      </trkpt>
      <trkpt lat="39.5816795435" lon="-8.5374051612">
        <ele>116.46</ele>
        <time>2018-12-22T10:32:22Z</time>
      </trkpt>
      <trkpt lat="39.5816849917" lon="-8.5374368448">
        <ele>116.46</ele>
        <time>2018-12-22T10:32:39Z</time>
      </trkpt>
      <trkpt lat="39.5817008335" lon="-8.5374267027">
        <ele>116.46</ele>
        <time>2018-12-22T10:32:41Z</time>
      </trkpt>
      <trkpt lat="39.5817442518" lon="-8.5374116991">
        <ele>117.42</ele>
        <time>2018-12-22T10:32:45Z</time>
      </trkpt>
      <trkpt lat="39.5817880891" lon="-8.5373720527">
        <ele>117.42</ele>
        <time>2018-12-22T10:32:50Z</time>
      </trkpt>
      <trkpt lat="39.5818351954" lon="-8.5373866372">
        <ele>117.42</ele>
        <time>2018-12-22T10:32:55Z</time>
      </trkpt>
      <trkpt lat="39.5818692259" lon="-8.5374128725">
        <ele>117.42</ele>
        <time>2018-12-22T10:33:01Z</time>
      </trkpt>
      <trkpt lat="39.5819202717" lon="-8.5374545306">
        <ele>117.90</ele>
        <time>2018-12-22T10:33:07Z</time>
      </trkpt>
      <trkpt lat="39.5819448307" lon="-8.5374697018">
        <ele>118.86</ele>
        <time>2018-12-22T10:33:09Z</time>
      </trkpt>
      <trkpt lat="39.5819844771" lon="-8.5375054087">
        <ele>117.90</ele>
        <time>2018-12-22T10:33:15Z</time>
      </trkpt>
      <trkpt lat="39.5820299909" lon="-8.5375351645">
        <ele>118.38</ele>
        <time>2018-12-22T10:33:20Z</time>
      </trkpt>
      <trkpt lat="39.5820915140" lon="-8.5375839472">
        <ele>118.38</ele>
        <time>2018-12-22T10:33:26Z</time>
      </trkpt>
      <trkpt lat="39.5821351837" lon="-8.5376209114">
        <ele>119.34</ele>
        <time>2018-12-22T10:33:30Z</time>
      </trkpt>
      <trkpt lat="39.5821876545" lon="-8.5376267787">
        <ele>120.30</ele>
        <time>2018-12-22T10:33:38Z</time>
      </trkpt>
      <trkpt lat="39.5822022390" lon="-8.5376309697">
        <ele>119.82</ele>
        <time>2018-12-22T10:33:43Z</time>
      </trkpt>
      <trkpt lat="39.5822380297" lon="-8.5376676824">
        <ele>119.34</ele>
        <time>2018-12-22T10:33:50Z</time>
      </trkpt>
      <trkpt lat="39.5822372753" lon="-8.5376862064">
        <ele>119.82</ele>
        <time>2018-12-22T10:33:56Z</time>
      </trkpt>
      <trkpt lat="39.5822461601" lon="-8.5376880504">
        <ele>120.30</ele>
        <time>2018-12-22T10:33:57Z</time>
      </trkpt>
      <trkpt lat="39.5822861418" lon="-8.5377517529">
        <ele>120.78</ele>
        <time>2018-12-22T10:34:01Z</time>
      </trkpt>
      <trkpt lat="39.5823673625" lon="-8.5377986077">
        <ele>120.78</ele>
        <time>2018-12-22T10:34:08Z</time>
      </trkpt>
      <trkpt lat="39.5824061707" lon="-8.5378218256">
        <ele>120.78</ele>
        <time>2018-12-22T10:34:15Z</time>
      </trkpt>
      <trkpt lat="39.5824120380" lon="-8.5378282797">
        <ele>120.78</ele>
        <time>2018-12-22T10:34:17Z</time>
      </trkpt>
      <trkpt lat="39.5824060868" lon="-8.5378611367">
        <ele>121.74</ele>
        <time>2018-12-22T10:34:20Z</time>
      </trkpt>
      <trkpt lat="39.5824534446" lon="-8.5378540959">
        <ele>121.26</ele>
        <time>2018-12-22T10:34:26Z</time>
      </trkpt>
      <trkpt lat="39.5824678615" lon="-8.5378405172">
        <ele>121.26</ele>
        <time>2018-12-22T10:34:40Z</time>
      </trkpt>
      <trkpt lat="39.5824788418" lon="-8.5378488991">
        <ele>120.78</ele>
        <time>2018-12-22T10:34:51Z</time>
      </trkpt>
      <trkpt lat="39.5824665204" lon="-8.5378479771">
        <ele>120.78</ele>
        <time>2018-12-22T10:34:59Z</time>
      </trkpt>
      <trkpt lat="39.5824702922" lon="-8.5378586221">
        <ele>121.74</ele>
        <time>2018-12-22T10:35:07Z</time>
      </trkpt>
      <trkpt lat="39.5824588090" lon="-8.5378608853">
        <ele>122.22</ele>
        <time>2018-12-22T10:35:17Z</time>
      </trkpt>
      <trkpt lat="39.5824448112" lon="-8.5378544312">
        <ele>122.22</ele>
        <time>2018-12-22T10:35:27Z</time>
      </trkpt>
      <trkpt lat="39.5824281313" lon="-8.5378462169">
        <ele>121.74</ele>
        <time>2018-12-22T10:35:39Z</time>
      </trkpt>
      <trkpt lat="39.5824109484" lon="-8.5378549341">
        <ele>121.26</ele>
        <time>2018-12-22T10:35:49Z</time>
      </trkpt>
      <trkpt lat="39.5824347530" lon="-8.5379068181">
        <ele>121.74</ele>
        <time>2018-12-22T10:35:57Z</time>
      </trkpt>
      <trkpt lat="39.5824690349" lon="-8.5379175469">
        <ele>122.22</ele>
        <time>2018-12-22T10:35:59Z</time>
      </trkpt>
      <trkpt lat="39.5825562906" lon="-8.5379609652">
        <ele>121.74</ele>
        <time>2018-12-22T10:36:04Z</time>
      </trkpt>
      <trkpt lat="39.5826132037" lon="-8.5380146932">
        <ele>122.22</ele>
        <time>2018-12-22T10:36:09Z</time>
      </trkpt>
      <trkpt lat="39.5826378465" lon="-8.5380344745">
        <ele>122.71</ele>
        <time>2018-12-22T10:36:14Z</time>
      </trkpt>
      <trkpt lat="39.5826227590" lon="-8.5380319599">
        <ele>121.74</ele>
        <time>2018-12-22T10:36:19Z</time>
      </trkpt>
      <trkpt lat="39.5826852042" lon="-8.5381415952">
        <ele>122.71</ele>
        <time>2018-12-22T10:36:24Z</time>
      </trkpt>
      <trkpt lat="39.5827230904" lon="-8.5381482169">
        <ele>122.22</ele>
        <time>2018-12-22T10:36:27Z</time>
      </trkpt>
      <trkpt lat="39.5827467274" lon="-8.5381669085">
        <ele>121.74</ele>
        <time>2018-12-22T10:36:30Z</time>
      </trkpt>
      <trkpt lat="39.5828339830" lon="-8.5382697545">
        <ele>121.74</ele>
        <time>2018-12-22T10:36:39Z</time>
      </trkpt>
      <trkpt lat="39.5829014573" lon="-8.5383515619">
        <ele>121.74</ele>
        <time>2018-12-22T10:36:48Z</time>
      </trkpt>
      <trkpt lat="39.5829479769" lon="-8.5383896995">
        <ele>122.71</ele>
        <time>2018-12-22T10:36:54Z</time>
      </trkpt>
      <trkpt lat="39.5829747152" lon="-8.5384907853">
        <ele>123.19</ele>
        <time>2018-12-22T10:37:02Z</time>
      </trkpt>
      <trkpt lat="39.5829856955" lon="-8.5385109857">
        <ele>123.67</ele>
        <time>2018-12-22T10:37:04Z</time>
      </trkpt>
      <trkpt lat="39.5830043871" lon="-8.5385329463">
        <ele>123.19</ele>
        <time>2018-12-22T10:37:08Z</time>
      </trkpt>
      <trkpt lat="39.5830262639" lon="-8.5386274103">
        <ele>124.63</ele>
        <time>2018-12-22T10:37:15Z</time>
      </trkpt>
      <trkpt lat="39.5830563549" lon="-8.5386927892">
        <ele>125.11</ele>
        <time>2018-12-22T10:37:21Z</time>
      </trkpt>
      <trkpt lat="39.5830905531" lon="-8.5387468524">
        <ele>125.59</ele>
        <time>2018-12-22T10:37:26Z</time>
      </trkpt>
      <trkpt lat="39.5831380785" lon="-8.5388243850">
        <ele>126.07</ele>
        <time>2018-12-22T10:37:31Z</time>
      </trkpt>
      <trkpt lat="39.5831513219" lon="-8.5388216190">
        <ele>126.07</ele>
        <time>2018-12-22T10:37:34Z</time>
      </trkpt>
      <trkpt lat="39.5831972547" lon="-8.5389118083">
        <ele>126.55</ele>
        <time>2018-12-22T10:37:40Z</time>
      </trkpt>
      <trkpt lat="39.5832017809" lon="-8.5389148258">
        <ele>126.55</ele>
        <time>2018-12-22T10:37:41Z</time>
      </trkpt>
      <trkpt lat="39.5832410082" lon="-8.5389660392">
        <ele>126.55</ele>
        <time>2018-12-22T10:37:47Z</time>
      </trkpt>
      <trkpt lat="39.5832757931" lon="-8.5390071943">
        <ele>127.51</ele>
        <time>2018-12-22T10:37:53Z</time>
      </trkpt>
      <trkpt lat="39.5833042916" lon="-8.5390488524">
        <ele>127.51</ele>
        <time>2018-12-22T10:37:58Z</time>
      </trkpt>
      <trkpt lat="39.5833684970" lon="-8.5390993953">
        <ele>129.43</ele>
        <time>2018-12-22T10:38:05Z</time>
      </trkpt>
      <trkpt lat="39.5833824947" lon="-8.5391019098">
        <ele>129.43</ele>
        <time>2018-12-22T10:38:08Z</time>
      </trkpt>
      <trkpt lat="39.5834326185" lon="-8.5391183384">
        <ele>130.40</ele>
        <time>2018-12-22T10:38:13Z</time>
      </trkpt>
      <trkpt lat="39.5834880229" lon="-8.5391438194">
        <ele>131.84</ele>
        <time>2018-12-22T10:38:19Z</time>
      </trkpt>
      <trkpt lat="39.5835321117" lon="-8.5391673725">
        <ele>131.84</ele>
        <time>2018-12-22T10:38:23Z</time>
      </trkpt>
      <trkpt lat="39.5835368894" lon="-8.5391700547">
        <ele>131.84</ele>
        <time>2018-12-22T10:38:24Z</time>
      </trkpt>
      <trkpt lat="39.5835916232" lon="-8.5392079409">
        <ele>132.80</ele>
        <time>2018-12-22T10:38:30Z</time>
      </trkpt>
      <trkpt lat="39.5836323593" lon="-8.5392474197">
        <ele>132.80</ele>
        <time>2018-12-22T10:38:35Z</time>
      </trkpt>
      <trkpt lat="39.5836620312" lon="-8.5392816179">
        <ele>133.76</ele>
        <time>2018-12-22T10:38:39Z</time>
      </trkpt>
      <trkpt lat="39.5836897753" lon="-8.5393428057">
        <ele>133.76</ele>
        <time>2018-12-22T10:38:45Z</time>
      </trkpt>
      <trkpt lat="39.5837285835" lon="-8.5393879842">
        <ele>135.68</ele>
        <time>2018-12-22T10:38:50Z</time>
      </trkpt>
      <trkpt lat="39.5837539807" lon="-8.5394278821">
        <ele>135.68</ele>
        <time>2018-12-22T10:38:55Z</time>
      </trkpt>
      <trkpt lat="39.5837747678" lon="-8.5394822806">
        <ele>136.64</ele>
        <time>2018-12-22T10:39:01Z</time>
      </trkpt>
      <trkpt lat="39.5838005841" lon="-8.5395303927">
        <ele>137.61</ele>
        <time>2018-12-22T10:39:06Z</time>
      </trkpt>
      <trkpt lat="39.5838258136" lon="-8.5395867191">
        <ele>137.61</ele>
        <time>2018-12-22T10:39:11Z</time>
      </trkpt>
      <trkpt lat="39.5838529710" lon="-8.5396458115">
        <ele>138.09</ele>
        <time>2018-12-22T10:39:17Z</time>
      </trkpt>
      <trkpt lat="39.5838490315" lon="-8.5397129506">
        <ele>138.57</ele>
        <time>2018-12-22T10:39:23Z</time>
      </trkpt>
      <trkpt lat="39.5838652086" lon="-8.5397369228">
        <ele>139.05</ele>
        <time>2018-12-22T10:39:32Z</time>
      </trkpt>
      <trkpt lat="39.5838584192" lon="-8.5397470649">
        <ele>139.05</ele>
        <time>2018-12-22T10:39:39Z</time>
      </trkpt>
      <trkpt lat="39.5838491153" lon="-8.5397609789">
        <ele>139.05</ele>
        <time>2018-12-22T10:39:49Z</time>
      </trkpt>
      <trkpt lat="39.5838426612" lon="-8.5397939198">
        <ele>139.05</ele>
        <time>2018-12-22T10:39:53Z</time>
      </trkpt>
      <trkpt lat="39.5838175155" lon="-8.5398434568">
        <ele>139.53</ele>
        <time>2018-12-22T10:39:58Z</time>
      </trkpt>
      <trkpt lat="39.5838044398" lon="-8.5399028845">
        <ele>140.01</ele>
        <time>2018-12-22T10:40:03Z</time>
      </trkpt>
      <trkpt lat="39.5837854128" lon="-8.5399514996">
        <ele>140.97</ele>
        <time>2018-12-22T10:40:07Z</time>
      </trkpt>
      <trkpt lat="39.5837566629" lon="-8.5400218237">
        <ele>140.97</ele>
        <time>2018-12-22T10:40:13Z</time>
      </trkpt>
      <trkpt lat="39.5837562438" lon="-8.5400283616">
        <ele>141.45</ele>
        <time>2018-12-22T10:40:14Z</time>
      </trkpt>
      <trkpt lat="39.5837296732" lon="-8.5400960874">
        <ele>141.93</ele>
        <time>2018-12-22T10:40:20Z</time>
      </trkpt>
      <trkpt lat="39.5837175194" lon="-8.5401559342">
        <ele>142.89</ele>
        <time>2018-12-22T10:40:25Z</time>
      </trkpt>
      <trkpt lat="39.5837042760" lon="-8.5402258392">
        <ele>142.89</ele>
        <time>2018-12-22T10:40:30Z</time>
      </trkpt>
      <trkpt lat="39.5837024320" lon="-8.5402306169">
        <ele>142.89</ele>
        <time>2018-12-22T10:40:31Z</time>
      </trkpt>
      <trkpt lat="39.5836965647" lon="-8.5402892902">
        <ele>144.34</ele>
        <time>2018-12-22T10:40:37Z</time>
      </trkpt>
      <trkpt lat="39.5836946368" lon="-8.5403611232">
        <ele>144.34</ele>
        <time>2018-12-22T10:40:43Z</time>
      </trkpt>
      <trkpt lat="39.5836972352" lon="-8.5404446907">
        <ele>145.78</ele>
        <time>2018-12-22T10:40:50Z</time>
      </trkpt>
      <trkpt lat="39.5836992469" lon="-8.5405194573">
        <ele>146.74</ele>
        <time>2018-12-22T10:40:56Z</time>
      </trkpt>
      <trkpt lat="39.5836906973" lon="-8.5406093951">
        <ele>147.70</ele>
        <time>2018-12-22T10:41:03Z</time>
      </trkpt>
      <trkpt lat="39.5836844109" lon="-8.5406800546">
        <ele>148.18</ele>
        <time>2018-12-22T10:41:09Z</time>
      </trkpt>
      <trkpt lat="39.5836764481" lon="-8.5407319386">
        <ele>148.66</ele>
        <time>2018-12-22T10:41:14Z</time>
      </trkpt>
      <trkpt lat="39.5836678986" lon="-8.5407691542">
        <ele>149.62</ele>
        <time>2018-12-22T10:41:20Z</time>
      </trkpt>
      <trkpt lat="39.5836709160" lon="-8.5407802183">
        <ele>149.62</ele>
        <time>2018-12-22T10:41:22Z</time>
      </trkpt>
      <trkpt lat="39.5836732630" lon="-8.5408657137">
        <ele>150.10</ele>
        <time>2018-12-22T10:41:27Z</time>
      </trkpt>
      <trkpt lat="39.5836682338" lon="-8.5408797115">
        <ele>150.58</ele>
        <time>2018-12-22T10:41:28Z</time>
      </trkpt>
      <trkpt lat="39.5836693235" lon="-8.5409369599">
        <ele>150.10</ele>
        <time>2018-12-22T10:41:31Z</time>
      </trkpt>
      <trkpt lat="39.5836691558" lon="-8.5410125647">
        <ele>151.06</ele>
        <time>2018-12-22T10:41:38Z</time>
      </trkpt>
      <trkpt lat="39.5836730115" lon="-8.5410948750">
        <ele>152.03</ele>
        <time>2018-12-22T10:41:46Z</time>
      </trkpt>
      <trkpt lat="39.5836818125" lon="-8.5411619302">
        <ele>152.99</ele>
        <time>2018-12-22T10:41:53Z</time>
      </trkpt>
      <trkpt lat="39.5836898591" lon="-8.5412193462">
        <ele>153.47</ele>
        <time>2018-12-22T10:42:00Z</time>
      </trkpt>
      <trkpt lat="39.5836921223" lon="-8.5412785225">
        <ele>153.95</ele>
        <time>2018-12-22T10:42:05Z</time>
      </trkpt>
      <trkpt lat="39.5836911164" lon="-8.5413682926">
        <ele>154.91</ele>
        <time>2018-12-22T10:42:12Z</time>
      </trkpt>
      <trkpt lat="39.5836901944" lon="-8.5414461605">
        <ele>154.91</ele>
        <time>2018-12-22T10:42:20Z</time>
      </trkpt>
      <trkpt lat="39.5836989116" lon="-8.5414712224">
        <ele>155.39</ele>
        <time>2018-12-22T10:42:23Z</time>
      </trkpt>
      <trkpt lat="39.5836940501" lon="-8.5415116232">
        <ele>155.87</ele>
        <time>2018-12-22T10:42:27Z</time>
      </trkpt>
      <trkpt lat="39.5836783759" lon="-8.5415840428">
        <ele>156.35</ele>
        <time>2018-12-22T10:42:32Z</time>
      </trkpt>
      <trkpt lat="39.5836736821" lon="-8.5416839551">
        <ele>156.35</ele>
        <time>2018-12-22T10:42:40Z</time>
      </trkpt>
      <trkpt lat="39.5836744364" lon="-8.5416998807">
        <ele>156.83</ele>
        <time>2018-12-22T10:42:41Z</time>
      </trkpt>
      <trkpt lat="39.5836786274" lon="-8.5417768266">
        <ele>157.79</ele>
        <time>2018-12-22T10:42:46Z</time>
      </trkpt>
      <trkpt lat="39.5836697426" lon="-8.5418484919">
        <ele>158.27</ele>
        <time>2018-12-22T10:42:51Z</time>
      </trkpt>
      <trkpt lat="39.5836496260" lon="-8.5419266112">
        <ele>158.75</ele>
        <time>2018-12-22T10:42:57Z</time>
      </trkpt>
      <trkpt lat="39.5836486202" lon="-8.5419710353">
        <ele>158.27</ele>
        <time>2018-12-22T10:43:01Z</time>
      </trkpt>
      <trkpt lat="39.5836319402" lon="-8.5420564469">
        <ele>159.72</ele>
        <time>2018-12-22T10:43:08Z</time>
      </trkpt>
      <trkpt lat="39.5836314373" lon="-8.5420881305">
        <ele>159.72</ele>
        <time>2018-12-22T10:43:11Z</time>
      </trkpt>
      <trkpt lat="39.5836236421" lon="-8.5421356559">
        <ele>160.68</ele>
        <time>2018-12-22T10:43:15Z</time>
      </trkpt>
      <trkpt lat="39.5836131647" lon="-8.5422023758">
        <ele>160.68</ele>
        <time>2018-12-22T10:43:21Z</time>
      </trkpt>
      <trkpt lat="39.5836066268" lon="-8.5422467999">
        <ele>161.64</ele>
        <time>2018-12-22T10:43:25Z</time>
      </trkpt>
      <trkpt lat="39.5835989155" lon="-8.5423221532">
        <ele>162.60</ele>
        <time>2018-12-22T10:43:32Z</time>
      </trkpt>
      <trkpt lat="39.5835827384" lon="-8.5423943214">
        <ele>162.60</ele>
        <time>2018-12-22T10:43:38Z</time>
      </trkpt>
      <trkpt lat="39.5835798047" lon="-8.5424015298">
        <ele>162.60</ele>
        <time>2018-12-22T10:43:39Z</time>
      </trkpt>
      <trkpt lat="39.5835803915" lon="-8.5424685851">
        <ele>163.08</ele>
        <time>2018-12-22T10:43:45Z</time>
      </trkpt>
      <trkpt lat="39.5835604426" lon="-8.5425321199">
        <ele>164.04</ele>
        <time>2018-12-22T10:43:51Z</time>
      </trkpt>
      <trkpt lat="39.5835552458" lon="-8.5425934754">
        <ele>164.04</ele>
        <time>2018-12-22T10:43:57Z</time>
      </trkpt>
      <trkpt lat="39.5835313573" lon="-8.5426636320">
        <ele>164.52</ele>
        <time>2018-12-22T10:44:04Z</time>
      </trkpt>
      <trkpt lat="39.5835187845" lon="-8.5427360516">
        <ele>164.52</ele>
        <time>2018-12-22T10:44:10Z</time>
      </trkpt>
      <trkpt lat="39.5835072175" lon="-8.5428322759">
        <ele>165.00</ele>
        <time>2018-12-22T10:44:16Z</time>
      </trkpt>
      <trkpt lat="39.5835191198" lon="-8.5429285001">
        <ele>165.48</ele>
        <time>2018-12-22T10:44:22Z</time>
      </trkpt>
      <trkpt lat="39.5835355483" lon="-8.5430138279">
        <ele>165.48</ele>
        <time>2018-12-22T10:44:28Z</time>
      </trkpt>
      <trkpt lat="39.5835309383" lon="-8.5430955514">
        <ele>166.45</ele>
        <time>2018-12-22T10:44:34Z</time>
      </trkpt>
      <trkpt lat="39.5835317764" lon="-8.5431063641">
        <ele>165.96</ele>
        <time>2018-12-22T10:44:35Z</time>
      </trkpt>
      <trkpt lat="39.5835302677" lon="-8.5431973916">
        <ele>165.96</ele>
        <time>2018-12-22T10:44:42Z</time>
      </trkpt>
      <trkpt lat="39.5835157670" lon="-8.5432477668">
        <ele>166.93</ele>
        <time>2018-12-22T10:44:47Z</time>
      </trkpt>
      <trkpt lat="39.5835135039" lon="-8.5432466771">
        <ele>166.93</ele>
        <time>2018-12-22T10:44:48Z</time>
      </trkpt>
      <trkpt lat="39.5834896155" lon="-8.5433226172">
        <ele>166.93</ele>
        <time>2018-12-22T10:44:54Z</time>
      </trkpt>
      <trkpt lat="39.5834612846" lon="-8.5433916841">
        <ele>167.89</ele>
        <time>2018-12-22T10:45:00Z</time>
      </trkpt>
      <trkpt lat="39.5834210515" lon="-8.5434594937">
        <ele>167.41</ele>
        <time>2018-12-22T10:45:05Z</time>
      </trkpt>
      <trkpt lat="39.5833977498" lon="-8.5435250401">
        <ele>167.41</ele>
        <time>2018-12-22T10:45:11Z</time>
      </trkpt>
      <trkpt lat="39.5833618753" lon="-8.5436102003">
        <ele>167.89</ele>
        <time>2018-12-22T10:45:18Z</time>
      </trkpt>
      <trkpt lat="39.5833362266" lon="-8.5436849669">
        <ele>168.85</ele>
        <time>2018-12-22T10:45:25Z</time>
      </trkpt>
      <trkpt lat="39.5832954906" lon="-8.5437614936">
        <ele>169.33</ele>
        <time>2018-12-22T10:45:32Z</time>
      </trkpt>
      <trkpt lat="39.5832701772" lon="-8.5438400321">
        <ele>169.33</ele>
        <time>2018-12-22T10:45:38Z</time>
      </trkpt>
      <trkpt lat="39.5832444448" lon="-8.5439173970">
        <ele>170.29</ele>
        <time>2018-12-22T10:45:45Z</time>
      </trkpt>
      <trkpt lat="39.5832284354" lon="-8.5439840332">
        <ele>171.25</ele>
        <time>2018-12-22T10:45:51Z</time>
      </trkpt>
      <trkpt lat="39.5832286030" lon="-8.5440393537">
        <ele>171.73</ele>
        <time>2018-12-22T10:45:56Z</time>
      </trkpt>
      <trkpt lat="39.5832058880" lon="-8.5440932494">
        <ele>172.21</ele>
        <time>2018-12-22T10:46:01Z</time>
      </trkpt>
      <trkpt lat="39.5831890404" lon="-8.5441381764">
        <ele>173.17</ele>
        <time>2018-12-22T10:46:05Z</time>
      </trkpt>
      <trkpt lat="39.5831623860" lon="-8.5442068242">
        <ele>173.66</ele>
        <time>2018-12-22T10:46:12Z</time>
      </trkpt>
      <trkpt lat="39.5831579436" lon="-8.5442124400">
        <ele>174.14</ele>
        <time>2018-12-22T10:46:13Z</time>
      </trkpt>
      <trkpt lat="39.5831156988" lon="-8.5442616418">
        <ele>175.10</ele>
        <time>2018-12-22T10:46:20Z</time>
      </trkpt>
      <trkpt lat="39.5830869488" lon="-8.5443262663">
        <ele>174.62</ele>
        <time>2018-12-22T10:46:26Z</time>
      </trkpt>
      <trkpt lat="39.5830664132" lon="-8.5443494003">
        <ele>175.58</ele>
        <time>2018-12-22T10:46:33Z</time>
      </trkpt>
      <trkpt lat="39.5830638986" lon="-8.5443568602">
        <ele>175.58</ele>
        <time>2018-12-22T10:46:37Z</time>
      </trkpt>
      <trkpt lat="39.5830511581" lon="-8.5444358177">
        <ele>177.02</ele>
        <time>2018-12-22T10:46:43Z</time>
      </trkpt>
      <trkpt lat="39.5830310415" lon="-8.5444806609">
        <ele>177.02</ele>
        <time>2018-12-22T10:46:47Z</time>
      </trkpt>
      <trkpt lat="39.5830211509" lon="-8.5445214808">
        <ele>177.50</ele>
        <time>2018-12-22T10:46:51Z</time>
      </trkpt>
      <trkpt lat="39.5830169600" lon="-8.5446067248">
        <ele>178.94</ele>
        <time>2018-12-22T10:46:58Z</time>
      </trkpt>
      <trkpt lat="39.5830252580" lon="-8.5446291044">
        <ele>179.90</ele>
        <time>2018-12-22T10:47:01Z</time>
      </trkpt>
      <trkpt lat="39.5830426924" lon="-8.5446585249">
        <ele>179.90</ele>
        <time>2018-12-22T10:47:04Z</time>
      </trkpt>
      <trkpt lat="39.5830597077" lon="-8.5446819104">
        <ele>180.87</ele>
        <time>2018-12-22T10:47:07Z</time>
      </trkpt>
      <trkpt lat="39.5830798242" lon="-8.5447119176">
        <ele>180.87</ele>
        <time>2018-12-22T10:47:11Z</time>
      </trkpt>
      <trkpt lat="39.5831162017" lon="-8.5447667353">
        <ele>181.83</ele>
        <time>2018-12-22T10:47:17Z</time>
      </trkpt>
      <trkpt lat="39.5831259247" lon="-8.5447745305">
        <ele>182.31</ele>
        <time>2018-12-22T10:47:19Z</time>
      </trkpt>
      <trkpt lat="39.5831406768" lon="-8.5447831638">
        <ele>182.79</ele>
        <time>2018-12-22T10:47:21Z</time>
      </trkpt>
      <trkpt lat="39.5831855200" lon="-8.5448061302">
        <ele>182.79</ele>
        <time>2018-12-22T10:47:26Z</time>
      </trkpt>
      <trkpt lat="39.5832228195" lon="-8.5448418371">
        <ele>183.75</ele>
        <time>2018-12-22T10:47:32Z</time>
      </trkpt>
      <trkpt lat="39.5832426846" lon="-8.5448497161">
        <ele>184.23</ele>
        <time>2018-12-22T10:47:35Z</time>
      </trkpt>
      <trkpt lat="39.5832845941" lon="-8.5448920447">
        <ele>185.19</ele>
        <time>2018-12-22T10:47:41Z</time>
      </trkpt>
      <trkpt lat="39.5832876116" lon="-8.5448904522">
        <ele>184.71</ele>
        <time>2018-12-22T10:47:43Z</time>
      </trkpt>
      <trkpt lat="39.5833139308" lon="-8.5449188668">
        <ele>184.71</ele>
        <time>2018-12-22T10:47:47Z</time>
      </trkpt>
      <trkpt lat="39.5833741967" lon="-8.5449861735">
        <ele>186.15</ele>
        <time>2018-12-22T10:47:54Z</time>
      </trkpt>
      <trkpt lat="39.5833879430" lon="-8.5450016800">
        <ele>186.15</ele>
        <time>2018-12-22T10:47:56Z</time>
      </trkpt>
      <trkpt lat="39.5834216382" lon="-8.5450445954">
        <ele>187.11</ele>
        <time>2018-12-22T10:48:02Z</time>
      </trkpt>
      <trkpt lat="39.5834402461" lon="-8.5450848285">
        <ele>186.63</ele>
        <time>2018-12-22T10:48:05Z</time>
      </trkpt>
      <trkpt lat="39.5834654756" lon="-8.5451232176">
        <ele>187.11</ele>
        <time>2018-12-22T10:48:10Z</time>
      </trkpt>
      <trkpt lat="39.5835005958" lon="-8.5451818071">
        <ele>187.11</ele>
        <time>2018-12-22T10:48:16Z</time>
      </trkpt>
      <trkpt lat="39.5834943932" lon="-8.5452047735">
        <ele>180.87</ele>
        <time>2018-12-22T10:48:20Z</time>
      </trkpt>
      <trkpt lat="39.5834977459" lon="-8.5452089645">
        <ele>189.52</ele>
        <time>2018-12-22T11:33:17Z</time>
      </trkpt>
      <trkpt lat="39.5835140906" lon="-8.5452118982">
        <ele>189.04</ele>
        <time>2018-12-22T11:33:18Z</time>
      </trkpt>
      <trkpt lat="39.5835420862" lon="-8.5452311765">
        <ele>188.08</ele>
        <time>2018-12-22T11:33:28Z</time>
      </trkpt>
      <trkpt lat="39.5835273340" lon="-8.5452298354">
        <ele>188.08</ele>
        <time>2018-12-22T11:33:35Z</time>
      </trkpt>
      <trkpt lat="39.5835317764" lon="-8.5452302545">
        <ele>187.11</ele>
        <time>2018-12-22T11:33:41Z</time>
      </trkpt>
      <trkpt lat="39.5835462771" lon="-8.5452381335">
        <ele>186.15</ele>
        <time>2018-12-22T11:33:47Z</time>
      </trkpt>
      <trkpt lat="39.5835449360" lon="-8.5452393908">
        <ele>186.15</ele>
        <time>2018-12-22T11:33:48Z</time>
      </trkpt>
      <trkpt lat="39.5835790504" lon="-8.5452512093">
        <ele>185.67</ele>
        <time>2018-12-22T11:33:53Z</time>
      </trkpt>
      <trkpt lat="39.5836129971" lon="-8.5453010816">
        <ele>183.75</ele>
        <time>2018-12-22T11:33:58Z</time>
      </trkpt>
      <trkpt lat="39.5836388133" lon="-8.5453290772">
        <ele>184.71</ele>
        <time>2018-12-22T11:34:02Z</time>
      </trkpt>
      <trkpt lat="39.5836412441" lon="-8.5453328490">
        <ele>183.75</ele>
        <time>2018-12-22T11:34:03Z</time>
      </trkpt>
      <trkpt lat="39.5836742688" lon="-8.5453786142">
        <ele>183.75</ele>
        <time>2018-12-22T11:34:09Z</time>
      </trkpt>
      <trkpt lat="39.5837231353" lon="-8.5454282351">
        <ele>182.31</ele>
        <time>2018-12-22T11:34:15Z</time>
      </trkpt>
      <trkpt lat="39.5837518852" lon="-8.5454407241">
        <ele>182.79</ele>
        <time>2018-12-22T11:34:19Z</time>
      </trkpt>
      <trkpt lat="39.5837859157" lon="-8.5454810411">
        <ele>182.31</ele>
        <time>2018-12-22T11:34:25Z</time>
      </trkpt>
      <trkpt lat="39.5838346146" lon="-8.5455414746">
        <ele>181.83</ele>
        <time>2018-12-22T11:34:32Z</time>
      </trkpt>
      <trkpt lat="39.5838787034" lon="-8.5455900896">
        <ele>181.83</ele>
        <time>2018-12-22T11:34:37Z</time>
      </trkpt>
      <trkpt lat="39.5839237142" lon="-8.5456610844">
        <ele>182.31</ele>
        <time>2018-12-22T11:34:43Z</time>
      </trkpt>
      <trkpt lat="39.5839614328" lon="-8.5456971265">
        <ele>181.83</ele>
        <time>2018-12-22T11:34:49Z</time>
      </trkpt>
      <trkpt lat="39.5839869976" lon="-8.5457438137">
        <ele>182.31</ele>
        <time>2018-12-22T11:34:54Z</time>
      </trkpt>
      <trkpt lat="39.5839932002" lon="-8.5457552131">
        <ele>181.83</ele>
        <time>2018-12-22T11:34:56Z</time>
      </trkpt>
      <trkpt lat="39.5840305835" lon="-8.5458559636">
        <ele>181.35</ele>
        <time>2018-12-22T11:35:04Z</time>
      </trkpt>
      <trkpt lat="39.5840664580" lon="-8.5459174030">
        <ele>181.35</ele>
        <time>2018-12-22T11:35:10Z</time>
      </trkpt>
      <trkpt lat="39.5840957109" lon="-8.5459947679">
        <ele>180.87</ele>
        <time>2018-12-22T11:35:16Z</time>
      </trkpt>
      <trkpt lat="39.5840957947" lon="-8.5459865537">
        <ele>180.87</ele>
        <time>2018-12-22T11:35:18Z</time>
      </trkpt>
      <trkpt lat="39.5841349382" lon="-8.5460649244">
        <ele>180.38</ele>
        <time>2018-12-22T11:35:24Z</time>
      </trkpt>
      <trkpt lat="39.5841719862" lon="-8.5461497493">
        <ele>180.87</ele>
        <time>2018-12-22T11:35:31Z</time>
      </trkpt>
      <trkpt lat="39.5842010714" lon="-8.5461999569">
        <ele>180.38</ele>
        <time>2018-12-22T11:35:37Z</time>
      </trkpt>
      <trkpt lat="39.5842355210" lon="-8.5462752264">
        <ele>180.38</ele>
        <time>2018-12-22T11:35:44Z</time>
      </trkpt>
      <trkpt lat="39.5842332579" lon="-8.5462775733">
        <ele>180.38</ele>
        <time>2018-12-22T11:35:51Z</time>
      </trkpt>
      <trkpt lat="39.5842338447" lon="-8.5462909844">
        <ele>180.87</ele>
        <time>2018-12-22T11:35:55Z</time>
      </trkpt>
      <trkpt lat="39.5842288155" lon="-8.5463241767">
        <ele>179.90</ele>
        <time>2018-12-22T11:36:02Z</time>
      </trkpt>
      <trkpt lat="39.5842391253" lon="-8.5463451315">
        <ele>180.87</ele>
        <time>2018-12-22T11:36:05Z</time>
      </trkpt>
      <trkpt lat="39.5842818730" lon="-8.5464124382">
        <ele>179.90</ele>
        <time>2018-12-22T11:36:12Z</time>
      </trkpt>
      <trkpt lat="39.5843196753" lon="-8.5464802478">
        <ele>179.90</ele>
        <time>2018-12-22T11:36:18Z</time>
      </trkpt>
      <trkpt lat="39.5843661111" lon="-8.5465688445">
        <ele>179.42</ele>
        <time>2018-12-22T11:36:24Z</time>
      </trkpt>
      <trkpt lat="39.5843734872" lon="-8.5465831775">
        <ele>179.42</ele>
        <time>2018-12-22T11:36:27Z</time>
      </trkpt>
      <trkpt lat="39.5844160672" lon="-8.5466658231">
        <ele>178.94</ele>
        <time>2018-12-22T11:36:33Z</time>
      </trkpt>
      <trkpt lat="39.5844034106" lon="-8.5466585308">
        <ele>178.94</ele>
        <time>2018-12-22T11:36:35Z</time>
      </trkpt>
      <trkpt lat="39.5844562165" lon="-8.5467538331">
        <ele>178.46</ele>
        <time>2018-12-22T11:36:41Z</time>
      </trkpt>
      <trkpt lat="39.5844593178" lon="-8.5467923898">
        <ele>178.46</ele>
        <time>2018-12-22T11:36:47Z</time>
      </trkpt>
      <trkpt lat="39.5844728127" lon="-8.5468557570">
        <ele>178.46</ele>
        <time>2018-12-22T11:36:54Z</time>
      </trkpt>
      <trkpt lat="39.5844772551" lon="-8.5468581039">
        <ele>178.46</ele>
        <time>2018-12-22T11:36:55Z</time>
      </trkpt>
      <trkpt lat="39.5845270436" lon="-8.5469342954">
        <ele>178.94</ele>
        <time>2018-12-22T11:37:02Z</time>
      </trkpt>
      <trkpt lat="39.5845426340" lon="-8.5469556693">
        <ele>178.46</ele>
        <time>2018-12-22T11:37:04Z</time>
      </trkpt>
      <trkpt lat="39.5845713839" lon="-8.5470099840">
        <ele>177.50</ele>
        <time>2018-12-22T11:37:09Z</time>
      </trkpt>
      <trkpt lat="39.5846031513" lon="-8.5470812302">
        <ele>177.98</ele>
        <time>2018-12-22T11:37:14Z</time>
      </trkpt>
      <trkpt lat="39.5846137125" lon="-8.5470971558">
        <ele>177.50</ele>
        <time>2018-12-22T11:37:19Z</time>
      </trkpt>
      <trkpt lat="39.5846467372" lon="-8.5471985769">
        <ele>177.50</ele>
        <time>2018-12-22T11:37:25Z</time>
      </trkpt>
      <trkpt lat="39.5846811868" lon="-8.5472859163">
        <ele>177.98</ele>
        <time>2018-12-22T11:37:32Z</time>
      </trkpt>
      <trkpt lat="39.5847250242" lon="-8.5473433323">
        <ele>177.98</ele>
        <time>2018-12-22T11:37:38Z</time>
      </trkpt>
      <trkpt lat="39.5847548638" lon="-8.5474617686">
        <ele>177.98</ele>
        <time>2018-12-22T11:37:44Z</time>
      </trkpt>
      <trkpt lat="39.5847676881" lon="-8.5474741738">
        <ele>177.50</ele>
        <time>2018-12-22T11:37:48Z</time>
      </trkpt>
      <trkpt lat="39.5847846195" lon="-8.5475527961">
        <ele>177.98</ele>
        <time>2018-12-22T11:37:56Z</time>
      </trkpt>
      <trkpt lat="39.5848254394" lon="-8.5476361960">
        <ele>178.46</ele>
        <time>2018-12-22T11:38:03Z</time>
      </trkpt>
      <trkpt lat="39.5848412812" lon="-8.5477011558">
        <ele>177.98</ele>
        <time>2018-12-22T11:38:07Z</time>
      </trkpt>
      <trkpt lat="39.5848641638" lon="-8.5477482621">
        <ele>177.98</ele>
        <time>2018-12-22T11:38:14Z</time>
      </trkpt>
      <trkpt lat="39.5848693606" lon="-8.5477491841">
        <ele>178.46</ele>
        <time>2018-12-22T11:38:22Z</time>
      </trkpt>
      <trkpt lat="39.5849076658" lon="-8.5478230286">
        <ele>177.50</ele>
        <time>2018-12-22T11:38:29Z</time>
      </trkpt>
      <trkpt lat="39.5849287882" lon="-8.5478749126">
        <ele>177.98</ele>
        <time>2018-12-22T11:38:34Z</time>
      </trkpt>
      <trkpt lat="39.5849564485" lon="-8.5479555465">
        <ele>177.98</ele>
        <time>2018-12-22T11:38:40Z</time>
      </trkpt>
      <trkpt lat="39.5849616453" lon="-8.5479622521">
        <ele>178.46</ele>
        <time>2018-12-22T11:38:41Z</time>
      </trkpt>
      <trkpt lat="39.5850015432" lon="-8.5480283853">
        <ele>177.98</ele>
        <time>2018-12-22T11:38:48Z</time>
      </trkpt>
      <trkpt lat="39.5850312989" lon="-8.5480932612">
        <ele>178.94</ele>
        <time>2018-12-22T11:38:54Z</time>
      </trkpt>
      <trkpt lat="39.5850695204" lon="-8.5481564607">
        <ele>178.46</ele>
        <time>2018-12-22T11:39:01Z</time>
      </trkpt>
      <trkpt lat="39.5851011202" lon="-8.5482334904">
        <ele>177.98</ele>
        <time>2018-12-22T11:39:07Z</time>
      </trkpt>
      <trkpt lat="39.5851038862" lon="-8.5482421238">
        <ele>178.46</ele>
        <time>2018-12-22T11:39:08Z</time>
      </trkpt>
      <trkpt lat="39.5851477236" lon="-8.5483349953">
        <ele>178.94</ele>
        <time>2018-12-22T11:39:16Z</time>
      </trkpt>
      <trkpt lat="39.5851696841" lon="-8.5484261066">
        <ele>177.98</ele>
        <time>2018-12-22T11:39:23Z</time>
      </trkpt>
      <trkpt lat="39.5851965062" lon="-8.5484982748">
        <ele>178.46</ele>
        <time>2018-12-22T11:39:30Z</time>
      </trkpt>
      <trkpt lat="39.5852313749" lon="-8.5485595465">
        <ele>178.46</ele>
        <time>2018-12-22T11:39:36Z</time>
      </trkpt>
      <trkpt lat="39.5852376614" lon="-8.5485671740">
        <ele>178.94</ele>
        <time>2018-12-22T11:39:37Z</time>
      </trkpt>
      <trkpt lat="39.5852680039" lon="-8.5486331396">
        <ele>177.98</ele>
        <time>2018-12-22T11:39:44Z</time>
      </trkpt>
      <trkpt lat="39.5852877013" lon="-8.5486913100">
        <ele>178.46</ele>
        <time>2018-12-22T11:39:50Z</time>
      </trkpt>
      <trkpt lat="39.5852815825" lon="-8.5486847721">
        <ele>178.46</ele>
        <time>2018-12-22T11:39:52Z</time>
      </trkpt>
      <trkpt lat="39.5853093266" lon="-8.5487522464">
        <ele>178.46</ele>
        <time>2018-12-22T11:39:56Z</time>
      </trkpt>
      <trkpt lat="39.5853358973" lon="-8.5487797391">
        <ele>178.46</ele>
        <time>2018-12-22T11:40:00Z</time>
      </trkpt>
      <trkpt lat="39.5853853505" lon="-8.5488765500">
        <ele>178.94</ele>
        <time>2018-12-22T11:40:07Z</time>
      </trkpt>
      <trkpt lat="39.5854003541" lon="-8.5489024501">
        <ele>178.94</ele>
        <time>2018-12-22T11:40:10Z</time>
      </trkpt>
      <trkpt lat="39.5854383241" lon="-8.5490015242">
        <ele>178.46</ele>
        <time>2018-12-22T11:40:17Z</time>
      </trkpt>
      <trkpt lat="39.5854625478" lon="-8.5490482114">
        <ele>177.98</ele>
        <time>2018-12-22T11:40:21Z</time>
      </trkpt>
      <trkpt lat="39.5854997635" lon="-8.5491378978">
        <ele>177.50</ele>
        <time>2018-12-22T11:40:29Z</time>
      </trkpt>
      <trkpt lat="39.5855080616" lon="-8.5491781309">
        <ele>177.50</ele>
        <time>2018-12-22T11:40:31Z</time>
      </trkpt>
      <trkpt lat="39.5855308603" lon="-8.5492153466">
        <ele>177.98</ele>
        <time>2018-12-22T11:40:36Z</time>
      </trkpt>
      <trkpt lat="39.5855647232" lon="-8.5493076313">
        <ele>177.98</ele>
        <time>2018-12-22T11:40:44Z</time>
      </trkpt>
      <trkpt lat="39.5856000111" lon="-8.5493742675">
        <ele>177.50</ele>
        <time>2018-12-22T11:40:50Z</time>
      </trkpt>
      <trkpt lat="39.5856139250" lon="-8.5494004190">
        <ele>177.50</ele>
        <time>2018-12-22T11:40:54Z</time>
      </trkpt>
      <trkpt lat="39.5856724307" lon="-8.5494985711">
        <ele>177.02</ele>
        <time>2018-12-22T11:41:03Z</time>
      </trkpt>
      <trkpt lat="39.5857058745" lon="-8.5495815519">
        <ele>177.02</ele>
        <time>2018-12-22T11:41:09Z</time>
      </trkpt>
      <trkpt lat="39.5857489575" lon="-8.5496782791">
        <ele>177.02</ele>
        <time>2018-12-22T11:41:16Z</time>
      </trkpt>
      <trkpt lat="39.5857664756" lon="-8.5497005749">
        <ele>176.54</ele>
        <time>2018-12-22T11:41:22Z</time>
      </trkpt>
      <trkpt lat="39.5858096424" lon="-8.5498130601">
        <ele>177.02</ele>
        <time>2018-12-22T11:41:27Z</time>
      </trkpt>
      <trkpt lat="39.5858227182" lon="-8.5498492699">
        <ele>177.02</ele>
        <time>2018-12-22T11:41:32Z</time>
      </trkpt>
      <trkpt lat="39.5858605206" lon="-8.5499459133">
        <ele>176.06</ele>
        <time>2018-12-22T11:41:40Z</time>
      </trkpt>
      <trkpt lat="39.5858808048" lon="-8.5499915946">
        <ele>176.06</ele>
        <time>2018-12-22T11:41:45Z</time>
      </trkpt>
      <trkpt lat="39.5859196968" lon="-8.5500681214">
        <ele>176.06</ele>
        <time>2018-12-22T11:41:52Z</time>
      </trkpt>
      <trkpt lat="39.5859684795" lon="-8.5501442291">
        <ele>175.58</ele>
        <time>2018-12-22T11:41:58Z</time>
      </trkpt>
      <trkpt lat="39.5859740954" lon="-8.5501659382">
        <ele>175.58</ele>
        <time>2018-12-22T11:42:02Z</time>
      </trkpt>
      <trkpt lat="39.5860097185" lon="-8.5502458178">
        <ele>176.54</ele>
        <time>2018-12-22T11:42:08Z</time>
      </trkpt>
      <trkpt lat="39.5860341098" lon="-8.5503075924">
        <ele>175.58</ele>
        <time>2018-12-22T11:42:14Z</time>
      </trkpt>
      <trkpt lat="39.5860595070" lon="-8.5503598955">
        <ele>175.10</ele>
        <time>2018-12-22T11:42:20Z</time>
      </trkpt>
      <trkpt lat="39.5861010812" lon="-8.5504601430">
        <ele>175.10</ele>
        <time>2018-12-22T11:42:28Z</time>
      </trkpt>
      <trkpt lat="39.5861475170" lon="-8.5505425371">
        <ele>175.10</ele>
        <time>2018-12-22T11:42:35Z</time>
      </trkpt>
      <trkpt lat="39.5861527976" lon="-8.5505623184">
        <ele>175.10</ele>
        <time>2018-12-22T11:42:39Z</time>
      </trkpt>
      <trkpt lat="39.5862055197" lon="-8.5506850295">
        <ele>174.62</ele>
        <time>2018-12-22T11:42:48Z</time>
      </trkpt>
      <trkpt lat="39.5862479322" lon="-8.5507758055">
        <ele>174.62</ele>
        <time>2018-12-22T11:42:54Z</time>
      </trkpt>
      <trkpt lat="39.5862914342" lon="-8.5508645698">
        <ele>174.62</ele>
        <time>2018-12-22T11:43:01Z</time>
      </trkpt>
      <trkpt lat="39.5862966310" lon="-8.5508852731">
        <ele>174.62</ele>
        <time>2018-12-22T11:43:02Z</time>
      </trkpt>
      <trkpt lat="39.5863416418" lon="-8.5509139393">
        <ele>174.62</ele>
        <time>2018-12-22T11:43:08Z</time>
      </trkpt>
      <trkpt lat="39.5863523707" lon="-8.5509188846">
        <ele>174.62</ele>
        <time>2018-12-22T11:43:09Z</time>
      </trkpt>
      <trkpt lat="39.5863778517" lon="-8.5509540047">
        <ele>174.62</ele>
        <time>2018-12-22T11:43:12Z</time>
      </trkpt>
      <trkpt lat="39.5863938611" lon="-8.5509877000">
        <ele>175.10</ele>
        <time>2018-12-22T11:43:14Z</time>
      </trkpt>
      <trkpt lat="39.5863925200" lon="-8.5510224849">
        <ele>174.62</ele>
        <time>2018-12-22T11:43:15Z</time>
      </trkpt>
      <trkpt lat="39.5864184201" lon="-8.5510567669">
        <ele>173.66</ele>
        <time>2018-12-22T11:43:20Z</time>
      </trkpt>
      <trkpt lat="39.5864554681" lon="-8.5511313658">
        <ele>174.14</ele>
        <time>2018-12-22T11:43:25Z</time>
      </trkpt>
      <trkpt lat="39.5864973776" lon="-8.5511998460">
        <ele>174.14</ele>
        <time>2018-12-22T11:43:32Z</time>
      </trkpt>
      <trkpt lat="39.5865492616" lon="-8.5512809828">
        <ele>174.14</ele>
        <time>2018-12-22T11:43:39Z</time>
      </trkpt>
      <trkpt lat="39.5866052527" lon="-8.5513470322">
        <ele>174.14</ele>
        <time>2018-12-22T11:43:45Z</time>
      </trkpt>
      <trkpt lat="39.5866288058" lon="-8.5513810627">
        <ele>173.66</ele>
        <time>2018-12-22T11:43:50Z</time>
      </trkpt>
      <trkpt lat="39.5866744872" lon="-8.5514589306">
        <ele>173.66</ele>
        <time>2018-12-22T11:43:56Z</time>
      </trkpt>
      <trkpt lat="39.5867122896" lon="-8.5514960624">
        <ele>174.14</ele>
        <time>2018-12-22T11:44:01Z</time>
      </trkpt>
      <trkpt lat="39.5867718849" lon="-8.5515607707">
        <ele>173.17</ele>
        <time>2018-12-22T11:44:07Z</time>
      </trkpt>
      <trkpt lat="39.5867912471" lon="-8.5515751038">
        <ele>173.66</ele>
        <time>2018-12-22T11:44:12Z</time>
      </trkpt>
      <trkpt lat="39.5868452266" lon="-8.5516370460">
        <ele>173.17</ele>
        <time>2018-12-22T11:44:17Z</time>
      </trkpt>
      <trkpt lat="39.5868633315" lon="-8.5516600963">
        <ele>172.69</ele>
        <time>2018-12-22T11:44:22Z</time>
      </trkpt>
      <trkpt lat="39.5869216695" lon="-8.5517434962">
        <ele>173.66</ele>
        <time>2018-12-22T11:44:27Z</time>
      </trkpt>
      <trkpt lat="39.5869411156" lon="-8.5517634451">
        <ele>173.17</ele>
        <time>2018-12-22T11:44:32Z</time>
      </trkpt>
      <trkpt lat="39.5870095119" lon="-8.5518439114">
        <ele>172.69</ele>
        <time>2018-12-22T11:44:39Z</time>
      </trkpt>
      <trkpt lat="39.5870138705" lon="-8.5518461745">
        <ele>173.66</ele>
        <time>2018-12-22T11:44:40Z</time>
      </trkpt>
      <trkpt lat="39.5870488230" lon="-8.5518942028">
        <ele>173.66</ele>
        <time>2018-12-22T11:44:44Z</time>
      </trkpt>
      <trkpt lat="39.5870954264" lon="-8.5519398842">
        <ele>173.66</ele>
        <time>2018-12-22T11:44:50Z</time>
      </trkpt>
      <trkpt lat="39.5870995335" lon="-8.5519434046">
        <ele>173.17</ele>
        <time>2018-12-22T11:44:51Z</time>
      </trkpt>
      <trkpt lat="39.5871825982" lon="-8.5520375334">
        <ele>173.66</ele>
        <time>2018-12-22T11:44:58Z</time>
      </trkpt>
      <trkpt lat="39.5871905610" lon="-8.5520431492">
        <ele>172.69</ele>
        <time>2018-12-22T11:45:02Z</time>
      </trkpt>
      <trkpt lat="39.5872381702" lon="-8.5521102045">
        <ele>173.66</ele>
        <time>2018-12-22T11:45:06Z</time>
      </trkpt>
      <trkpt lat="39.5872741286" lon="-8.5521488450">
        <ele>173.17</ele>
        <time>2018-12-22T11:45:12Z</time>
      </trkpt>
      <trkpt lat="39.5872819237" lon="-8.5521568917">
        <ele>172.69</ele>
        <time>2018-12-22T11:45:13Z</time>
      </trkpt>
      <trkpt lat="39.5873488113" lon="-8.5522271320">
        <ele>173.17</ele>
        <time>2018-12-22T11:45:18Z</time>
      </trkpt>
      <trkpt lat="39.5873612165" lon="-8.5522313230">
        <ele>172.69</ele>
        <time>2018-12-22T11:45:22Z</time>
      </trkpt>
      <trkpt lat="39.5874371566" lon="-8.5523141362">
        <ele>173.17</ele>
        <time>2018-12-22T11:45:29Z</time>
      </trkpt>
      <trkpt lat="39.5874404255" lon="-8.5523186624">
        <ele>173.66</ele>
        <time>2018-12-22T11:45:34Z</time>
      </trkpt>
      <trkpt lat="39.5874951594" lon="-8.5523821972">
        <ele>173.17</ele>
        <time>2018-12-22T11:45:38Z</time>
      </trkpt>
      <trkpt lat="39.5875464566" lon="-8.5524315666">
        <ele>173.17</ele>
        <time>2018-12-22T11:45:45Z</time>
      </trkpt>
      <trkpt lat="39.5875888690" lon="-8.5524867196">
        <ele>174.14</ele>
        <time>2018-12-22T11:45:50Z</time>
      </trkpt>
      <trkpt lat="39.5876184572" lon="-8.5524940118">
        <ele>173.17</ele>
        <time>2018-12-22T11:45:54Z</time>
      </trkpt>
      <trkpt lat="39.5876682457" lon="-8.5525880568">
        <ele>173.66</ele>
        <time>2018-12-22T11:46:00Z</time>
      </trkpt>
      <trkpt lat="39.5876982529" lon="-8.5526364204">
        <ele>173.66</ele>
        <time>2018-12-22T11:46:05Z</time>
      </trkpt>
      <trkpt lat="39.5877389051" lon="-8.5526454728">
        <ele>173.66</ele>
        <time>2018-12-22T11:46:12Z</time>
      </trkpt>
      <trkpt lat="39.5877669845" lon="-8.5526839457">
        <ele>174.14</ele>
        <time>2018-12-22T11:46:17Z</time>
      </trkpt>
      <trkpt lat="39.5877945609" lon="-8.5526897293">
        <ele>173.17</ele>
        <time>2018-12-22T11:46:21Z</time>
      </trkpt>
      <trkpt lat="39.5878072176" lon="-8.5527348239">
        <ele>174.62</ele>
        <time>2018-12-22T11:46:24Z</time>
      </trkpt>
      <trkpt lat="39.5878218021" lon="-8.5527535994">
        <ele>174.14</ele>
        <time>2018-12-22T11:46:26Z</time>
      </trkpt>
      <trkpt lat="39.5878708363" lon="-8.5528255161">
        <ele>174.14</ele>
        <time>2018-12-22T11:46:29Z</time>
      </trkpt>
      <trkpt lat="39.5878947247" lon="-8.5528628994">
        <ele>173.66</ele>
        <time>2018-12-22T11:46:36Z</time>
      </trkpt>
      <trkpt lat="39.5879772026" lon="-8.5529390909">
        <ele>173.66</ele>
        <time>2018-12-22T11:46:41Z</time>
      </trkpt>
      <trkpt lat="39.5880028512" lon="-8.5529709421">
        <ele>173.17</ele>
        <time>2018-12-22T11:46:46Z</time>
      </trkpt>
      <trkpt lat="39.5880714990" lon="-8.5530228261">
        <ele>172.69</ele>
        <time>2018-12-22T11:46:52Z</time>
      </trkpt>
      <trkpt lat="39.5881277416" lon="-8.5530764703">
        <ele>173.17</ele>
        <time>2018-12-22T11:46:58Z</time>
      </trkpt>
      <trkpt lat="39.5881619398" lon="-8.5531150270">
        <ele>172.21</ele>
        <time>2018-12-22T11:47:04Z</time>
      </trkpt>
      <trkpt lat="39.5882605109" lon="-8.5532165319">
        <ele>172.21</ele>
        <time>2018-12-22T11:47:10Z</time>
      </trkpt>
      <trkpt lat="39.5882693958" lon="-8.5532246623">
        <ele>171.73</ele>
        <time>2018-12-22T11:47:15Z</time>
      </trkpt>
      <trkpt lat="39.5883642789" lon="-8.5533481278">
        <ele>171.73</ele>
        <time>2018-12-22T11:47:22Z</time>
      </trkpt>
      <trkpt lat="39.5883820485" lon="-8.5533595271">
        <ele>172.21</ele>
        <time>2018-12-22T11:47:27Z</time>
      </trkpt>
      <trkpt lat="39.5884210244" lon="-8.5534126684">
        <ele>172.21</ele>
        <time>2018-12-22T11:47:32Z</time>
      </trkpt>
      <trkpt lat="39.5884968806" lon="-8.5534857586">
        <ele>172.21</ele>
        <time>2018-12-22T11:47:37Z</time>
      </trkpt>
      <trkpt lat="39.5885382872" lon="-8.5535120778">
        <ele>172.21</ele>
        <time>2018-12-22T11:47:44Z</time>
      </trkpt>
      <trkpt lat="39.5886038337" lon="-8.5536005907">
        <ele>172.21</ele>
        <time>2018-12-22T11:47:49Z</time>
      </trkpt>
      <trkpt lat="39.5886188373" lon="-8.5536212102">
        <ele>172.69</ele>
        <time>2018-12-22T11:47:54Z</time>
      </trkpt>
      <trkpt lat="39.5887095295" lon="-8.5537136625">
        <ele>172.69</ele>
        <time>2018-12-22T11:48:01Z</time>
      </trkpt>
      <trkpt lat="39.5887260418" lon="-8.5537278280">
        <ele>172.21</ele>
        <time>2018-12-22T11:48:07Z</time>
      </trkpt>
      <trkpt lat="39.5888077654" lon="-8.5538139101">
        <ele>172.21</ele>
        <time>2018-12-22T11:48:16Z</time>
      </trkpt>
      <trkpt lat="39.5888736472" lon="-8.5538921133">
        <ele>172.21</ele>
        <time>2018-12-22T11:48:21Z</time>
      </trkpt>
      <trkpt lat="39.5889098570" lon="-8.5539190192">
        <ele>172.69</ele>
        <time>2018-12-22T11:48:26Z</time>
      </trkpt>
      <trkpt lat="39.5889121201" lon="-8.5539268982">
        <ele>172.21</ele>
        <time>2018-12-22T11:48:28Z</time>
      </trkpt>
      <trkpt lat="39.5890054107" lon="-8.5540349409">
        <ele>172.21</ele>
        <time>2018-12-22T11:48:34Z</time>
      </trkpt>
      <trkpt lat="39.5890349988" lon="-8.5540595837">
        <ele>172.21</ele>
        <time>2018-12-22T11:48:39Z</time>
      </trkpt>
      <trkpt lat="39.5890410338" lon="-8.5540665407">
        <ele>172.21</ele>
        <time>2018-12-22T11:48:41Z</time>
      </trkpt>
      <trkpt lat="39.5891280379" lon="-8.5541703086">
        <ele>173.17</ele>
        <time>2018-12-22T11:48:48Z</time>
      </trkpt>
      <trkpt lat="39.5891422872" lon="-8.5541895032">
        <ele>172.21</ele>
        <time>2018-12-22T11:48:54Z</time>
      </trkpt>
      <trkpt lat="39.5892337337" lon="-8.5542979650">
        <ele>172.21</ele>
        <time>2018-12-22T11:49:00Z</time>
      </trkpt>
      <trkpt lat="39.5892627351" lon="-8.5543065984">
        <ele>172.69</ele>
        <time>2018-12-22T11:49:05Z</time>
      </trkpt>
      <trkpt lat="39.5892934967" lon="-8.5543521121">
        <ele>172.69</ele>
        <time>2018-12-22T11:49:10Z</time>
      </trkpt>
      <trkpt lat="39.5893734600" lon="-8.5544639267">
        <ele>172.69</ele>
        <time>2018-12-22T11:49:17Z</time>
      </trkpt>
      <trkpt lat="39.5893802494" lon="-8.5544707999">
        <ele>172.21</ele>
        <time>2018-12-22T11:49:21Z</time>
      </trkpt>
      <trkpt lat="39.5894223265" lon="-8.5545114521">
        <ele>172.69</ele>
        <time>2018-12-22T11:49:25Z</time>
      </trkpt>
      <trkpt lat="39.5894713607" lon="-8.5545675270">
        <ele>172.69</ele>
        <time>2018-12-22T11:49:32Z</time>
      </trkpt>
      <trkpt lat="39.5895552635" lon="-8.5546624102">
        <ele>172.69</ele>
        <time>2018-12-22T11:49:38Z</time>
      </trkpt>
      <trkpt lat="39.5895800740" lon="-8.5546719655">
        <ele>172.21</ele>
        <time>2018-12-22T11:49:43Z</time>
      </trkpt>
      <trkpt lat="39.5896711852" lon="-8.5547761526">
        <ele>173.17</ele>
        <time>2018-12-22T11:49:51Z</time>
      </trkpt>
      <trkpt lat="39.5897035394" lon="-8.5548432916">
        <ele>173.66</ele>
        <time>2018-12-22T11:49:59Z</time>
      </trkpt>
      <trkpt lat="39.5897694211" lon="-8.5549517535">
        <ele>173.17</ele>
        <time>2018-12-22T11:50:07Z</time>
      </trkpt>
      <trkpt lat="39.5898132585" lon="-8.5550471395">
        <ele>173.17</ele>
        <time>2018-12-22T11:50:15Z</time>
      </trkpt>
      <trkpt lat="39.5898695011" lon="-8.5551469680">
        <ele>173.17</ele>
        <time>2018-12-22T11:50:21Z</time>
      </trkpt>
      <trkpt lat="39.5898667350" lon="-8.5551454592">
        <ele>173.17</ele>
        <time>2018-12-22T11:50:25Z</time>
      </trkpt>
      <trkpt lat="39.5899190381" lon="-8.5552803241">
        <ele>172.21</ele>
        <time>2018-12-22T11:50:31Z</time>
      </trkpt>
      <trkpt lat="39.5899169426" lon="-8.5553040449">
        <ele>173.17</ele>
        <time>2018-12-22T11:50:36Z</time>
      </trkpt>
      <trkpt lat="39.5899181999" lon="-8.5553070623">
        <ele>172.21</ele>
        <time>2018-12-22T11:50:37Z</time>
      </trkpt>
      <trkpt lat="39.5899789687" lon="-8.5554534104">
        <ele>172.69</ele>
        <time>2018-12-22T11:50:44Z</time>
      </trkpt>
      <trkpt lat="39.5899978280" lon="-8.5554822441">
        <ele>172.69</ele>
        <time>2018-12-22T11:50:49Z</time>
      </trkpt>
      <trkpt lat="39.5899969898" lon="-8.5554794781">
        <ele>172.69</ele>
        <time>2018-12-22T11:50:50Z</time>
      </trkpt>
      <trkpt lat="39.5900316909" lon="-8.5555855092">
        <ele>173.66</ele>
        <time>2018-12-22T11:50:55Z</time>
      </trkpt>
      <trkpt lat="39.5900364686" lon="-8.5556320287">
        <ele>173.17</ele>
        <time>2018-12-22T11:51:01Z</time>
      </trkpt>
      <trkpt lat="39.5900357980" lon="-8.5556384828">
        <ele>172.21</ele>
        <time>2018-12-22T11:51:02Z</time>
      </trkpt>
      <trkpt lat="39.5900755282" lon="-8.5557383113">
        <ele>173.17</ele>
        <time>2018-12-22T11:51:07Z</time>
      </trkpt>
      <trkpt lat="39.5901145879" lon="-8.5558035225">
        <ele>172.69</ele>
        <time>2018-12-22T11:51:14Z</time>
      </trkpt>
      <trkpt lat="39.5901680645" lon="-8.5559093021">
        <ele>172.21</ele>
        <time>2018-12-22T11:51:20Z</time>
      </trkpt>
      <trkpt lat="39.5901770331" lon="-8.5559707414">
        <ele>172.69</ele>
        <time>2018-12-22T11:51:26Z</time>
      </trkpt>
      <trkpt lat="39.5902371313" lon="-8.5560562368">
        <ele>172.69</ele>
        <time>2018-12-22T11:51:32Z</time>
      </trkpt>
      <trkpt lat="39.5902317669" lon="-8.5560678039">
        <ele>172.21</ele>
        <time>2018-12-22T11:51:35Z</time>
      </trkpt>
      <trkpt lat="39.5902760234" lon="-8.5562012438">
        <ele>173.17</ele>
        <time>2018-12-22T11:51:41Z</time>
      </trkpt>
      <trkpt lat="39.5902839862" lon="-8.5562308319">
        <ele>173.17</ele>
        <time>2018-12-22T11:51:46Z</time>
      </trkpt>
      <trkpt lat="39.5903037675" lon="-8.5563069396">
        <ele>173.66</ele>
        <time>2018-12-22T11:51:51Z</time>
      </trkpt>
      <trkpt lat="39.5903400611" lon="-8.5563983023">
        <ele>173.17</ele>
        <time>2018-12-22T11:51:56Z</time>
      </trkpt>
      <trkpt lat="39.5903543103" lon="-8.5564166587">
        <ele>172.69</ele>
        <time>2018-12-22T11:52:00Z</time>
      </trkpt>
      <trkpt lat="39.5903876703" lon="-8.5565469973">
        <ele>173.17</ele>
        <time>2018-12-22T11:52:06Z</time>
      </trkpt>
      <trkpt lat="39.5904093795" lon="-8.5565913375">
        <ele>173.66</ele>
        <time>2018-12-22T11:52:12Z</time>
      </trkpt>
      <trkpt lat="39.5904532168" lon="-8.5567118693">
        <ele>173.66</ele>
        <time>2018-12-22T11:52:18Z</time>
      </trkpt>
      <trkpt lat="39.5904902648" lon="-8.5567803495">
        <ele>173.66</ele>
        <time>2018-12-22T11:52:24Z</time>
      </trkpt>
      <trkpt lat="39.5904955454" lon="-8.5568589717">
        <ele>173.17</ele>
        <time>2018-12-22T11:52:31Z</time>
      </trkpt>
      <trkpt lat="39.5905256364" lon="-8.5569361690">
        <ele>173.66</ele>
        <time>2018-12-22T11:52:38Z</time>
      </trkpt>
      <trkpt lat="39.5905667916" lon="-8.5570399370">
        <ele>174.14</ele>
        <time>2018-12-22T11:52:44Z</time>
      </trkpt>
      <trkpt lat="39.5905925240" lon="-8.5571021307">
        <ele>174.62</ele>
        <time>2018-12-22T11:52:50Z</time>
      </trkpt>
      <trkpt lat="39.5906324219" lon="-8.5572212376">
        <ele>175.10</ele>
        <time>2018-12-22T11:52:57Z</time>
      </trkpt>
      <trkpt lat="39.5906427316" lon="-8.5572405998">
        <ele>174.62</ele>
        <time>2018-12-22T11:52:59Z</time>
      </trkpt>
      <trkpt lat="39.5906538796" lon="-8.5573098343">
        <ele>174.14</ele>
        <time>2018-12-22T11:53:04Z</time>
      </trkpt>
      <trkpt lat="39.5906844735" lon="-8.5573422723">
        <ele>175.10</ele>
        <time>2018-12-22T11:53:08Z</time>
      </trkpt>
      <trkpt lat="39.5907171629" lon="-8.5574124288">
        <ele>175.10</ele>
        <time>2018-12-22T11:53:15Z</time>
      </trkpt>
      <trkpt lat="39.5907216053" lon="-8.5574353952">
        <ele>175.10</ele>
        <time>2018-12-22T11:53:18Z</time>
      </trkpt>
      <trkpt lat="39.5907543786" lon="-8.5575253330">
        <ele>175.58</ele>
        <time>2018-12-22T11:53:25Z</time>
      </trkpt>
      <trkpt lat="39.5907851402" lon="-8.5576224793">
        <ele>176.06</ele>
        <time>2018-12-22T11:53:30Z</time>
      </trkpt>
      <trkpt lat="39.5907971263" lon="-8.5576538276">
        <ele>176.06</ele>
        <time>2018-12-22T11:53:35Z</time>
      </trkpt>
      <trkpt lat="39.5908002276" lon="-8.5576594435">
        <ele>177.02</ele>
        <time>2018-12-22T11:53:36Z</time>
      </trkpt>
      <trkpt lat="39.5908411313" lon="-8.5577775445">
        <ele>176.54</ele>
        <time>2018-12-22T11:53:43Z</time>
      </trkpt>
      <trkpt lat="39.5908889081" lon="-8.5578824021">
        <ele>177.50</ele>
        <time>2018-12-22T11:53:50Z</time>
      </trkpt>
      <trkpt lat="39.5908971224" lon="-8.5579117388">
        <ele>177.50</ele>
        <time>2018-12-22T11:53:54Z</time>
      </trkpt>
      <trkpt lat="39.5909414627" lon="-8.5580450948">
        <ele>177.98</ele>
        <time>2018-12-22T11:54:01Z</time>
      </trkpt>
      <trkpt lat="39.5909441449" lon="-8.5580751859">
        <ele>178.46</ele>
        <time>2018-12-22T11:54:06Z</time>
      </trkpt>
      <trkpt lat="39.5909850486" lon="-8.5581854917">
        <ele>179.42</ele>
        <time>2018-12-22T11:54:11Z</time>
      </trkpt>
      <trkpt lat="39.5909888204" lon="-8.5582123138">
        <ele>179.42</ele>
        <time>2018-12-22T11:54:15Z</time>
      </trkpt>
      <trkpt lat="39.5910090208" lon="-8.5582906008">
        <ele>179.42</ele>
        <time>2018-12-22T11:54:21Z</time>
      </trkpt>
      <trkpt lat="39.5910106134" lon="-8.5582959652">
        <ele>179.42</ele>
        <time>2018-12-22T11:54:22Z</time>
      </trkpt>
      <trkpt lat="39.5910453983" lon="-8.5583685525">
        <ele>180.38</ele>
        <time>2018-12-22T11:54:29Z</time>
      </trkpt>
      <trkpt lat="39.5910876431" lon="-8.5584568977">
        <ele>180.87</ele>
        <time>2018-12-22T11:54:36Z</time>
      </trkpt>
      <trkpt lat="39.5911287982" lon="-8.5585319996">
        <ele>181.35</ele>
        <time>2018-12-22T11:54:41Z</time>
      </trkpt>
      <trkpt lat="39.5911557879" lon="-8.5586082749">
        <ele>181.35</ele>
        <time>2018-12-22T11:54:47Z</time>
      </trkpt>
      <trkpt lat="39.5911803469" lon="-8.5586795211">
        <ele>182.31</ele>
        <time>2018-12-22T11:54:53Z</time>
      </trkpt>
      <trkpt lat="39.5911935903" lon="-8.5587219335">
        <ele>182.79</ele>
        <time>2018-12-22T11:54:58Z</time>
      </trkpt>
      <trkpt lat="39.5912382659" lon="-8.5587807745">
        <ele>182.79</ele>
        <time>2018-12-22T11:55:04Z</time>
      </trkpt>
      <trkpt lat="39.5912409481" lon="-8.5587898269">
        <ele>182.79</ele>
        <time>2018-12-22T11:55:05Z</time>
      </trkpt>
      <trkpt lat="39.5912560355" lon="-8.5588439740">
        <ele>184.23</ele>
        <time>2018-12-22T11:55:10Z</time>
      </trkpt>
      <trkpt lat="39.5912680216" lon="-8.5589234345">
        <ele>184.71</ele>
        <time>2018-12-22T11:55:15Z</time>
      </trkpt>
      <trkpt lat="39.5912707038" lon="-8.5589965247">
        <ele>185.67</ele>
        <time>2018-12-22T11:55:21Z</time>
      </trkpt>
      <trkpt lat="39.5912659261" lon="-8.5590659268">
        <ele>186.15</ele>
        <time>2018-12-22T11:55:26Z</time>
      </trkpt>
      <trkpt lat="39.5912637468" lon="-8.5590893961">
        <ele>186.63</ele>
        <time>2018-12-22T11:55:29Z</time>
      </trkpt>
      <trkpt lat="39.5912455581" lon="-8.5591692757">
        <ele>187.11</ele>
        <time>2018-12-22T11:55:35Z</time>
      </trkpt>
      <trkpt lat="39.5912427921" lon="-8.5591780767">
        <ele>187.11</ele>
        <time>2018-12-22T11:55:36Z</time>
      </trkpt>
      <trkpt lat="39.5912056603" lon="-8.5592592135">
        <ele>188.08</ele>
        <time>2018-12-22T11:55:42Z</time>
      </trkpt>
      <trkpt lat="39.5911627449" lon="-8.5593472235">
        <ele>188.08</ele>
        <time>2018-12-22T11:55:47Z</time>
      </trkpt>
      <trkpt lat="39.5911579672" lon="-8.5593611374">
        <ele>189.04</ele>
        <time>2018-12-22T11:55:50Z</time>
      </trkpt>
      <trkpt lat="39.5911098551" lon="-8.5594675876">
        <ele>189.04</ele>
        <time>2018-12-22T11:55:57Z</time>
      </trkpt>
      <trkpt lat="39.5910730585" lon="-8.5595593695">
        <ele>190.48</ele>
        <time>2018-12-22T11:56:04Z</time>
      </trkpt>
      <trkpt lat="39.5910285506" lon="-8.5596291069">
        <ele>190.48</ele>
        <time>2018-12-22T11:56:10Z</time>
      </trkpt>
      <trkpt lat="39.5910044946" lon="-8.5596519057">
        <ele>190.96</ele>
        <time>2018-12-22T11:56:15Z</time>
      </trkpt>
      <trkpt lat="39.5909472462" lon="-8.5597622953">
        <ele>191.92</ele>
        <time>2018-12-22T11:56:21Z</time>
      </trkpt>
      <trkpt lat="39.5909407921" lon="-8.5597805679">
        <ele>191.92</ele>
        <time>2018-12-22T11:56:24Z</time>
      </trkpt>
      <trkpt lat="39.5909063425" lon="-8.5598691646">
        <ele>192.40</ele>
        <time>2018-12-22T11:56:29Z</time>
      </trkpt>
      <trkpt lat="39.5908538718" lon="-8.5599984974">
        <ele>192.88</ele>
        <time>2018-12-22T11:56:37Z</time>
      </trkpt>
      <trkpt lat="39.5908469986" lon="-8.5600215476">
        <ele>192.40</ele>
        <time>2018-12-22T11:56:42Z</time>
      </trkpt>
      <trkpt lat="39.5908207633" lon="-8.5600834060">
        <ele>192.88</ele>
        <time>2018-12-22T11:56:46Z</time>
      </trkpt>
      <trkpt lat="39.5908147283" lon="-8.5601022653">
        <ele>192.88</ele>
        <time>2018-12-22T11:56:47Z</time>
      </trkpt>
      <trkpt lat="39.5908103697" lon="-8.5601264052">
        <ele>193.36</ele>
        <time>2018-12-22T11:56:49Z</time>
      </trkpt>
      <trkpt lat="39.5907772612" lon="-8.5601820610">
        <ele>193.84</ele>
        <time>2018-12-22T11:56:54Z</time>
      </trkpt>
      <trkpt lat="39.5907909237" lon="-8.5602051113">
        <ele>193.84</ele>
        <time>2018-12-22T11:56:57Z</time>
      </trkpt>
      <trkpt lat="39.5907904208" lon="-8.5602403991">
        <ele>193.84</ele>
        <time>2018-12-22T11:57:01Z</time>
      </trkpt>
      <trkpt lat="39.5907429792" lon="-8.5603267327">
        <ele>193.84</ele>
        <time>2018-12-22T11:57:07Z</time>
      </trkpt>
      <trkpt lat="39.5907411352" lon="-8.5603422392">
        <ele>194.32</ele>
        <time>2018-12-22T11:57:09Z</time>
      </trkpt>
      <trkpt lat="39.5907298196" lon="-8.5604489408">
        <ele>195.28</ele>
        <time>2018-12-22T11:57:16Z</time>
      </trkpt>
      <trkpt lat="39.5907307416" lon="-8.5605355259">
        <ele>195.77</ele>
        <time>2018-12-22T11:57:22Z</time>
      </trkpt>
      <trkpt lat="39.5907294005" lon="-8.5605502781">
        <ele>196.25</ele>
        <time>2018-12-22T11:57:25Z</time>
      </trkpt>
      <trkpt lat="39.5907366928" lon="-8.5606409702">
        <ele>196.73</ele>
        <time>2018-12-22T11:57:31Z</time>
      </trkpt>
      <trkpt lat="39.5907644369" lon="-8.5607284773">
        <ele>197.21</ele>
        <time>2018-12-22T11:57:37Z</time>
      </trkpt>
      <trkpt lat="39.5907853078" lon="-8.5608046688">
        <ele>197.69</ele>
        <time>2018-12-22T11:57:42Z</time>
      </trkpt>
      <trkpt lat="39.5908236969" lon="-8.5609029885">
        <ele>197.69</ele>
        <time>2018-12-22T11:57:49Z</time>
      </trkpt>
      <trkpt lat="39.5908392034" lon="-8.5609323252">
        <ele>197.69</ele>
        <time>2018-12-22T11:57:54Z</time>
      </trkpt>
      <trkpt lat="39.5908796042" lon="-8.5610002186">
        <ele>199.13</ele>
        <time>2018-12-22T11:57:58Z</time>
      </trkpt>
      <trkpt lat="39.5908942726" lon="-8.5610414576">
        <ele>202.49</ele>
        <time>2018-12-22T11:58:02Z</time>
      </trkpt>
      <trkpt lat="39.5908928476" lon="-8.5610671062">
        <ele>199.61</ele>
        <time>2018-12-22T11:58:04Z</time>
      </trkpt>
      <trkpt lat="39.5909359306" lon="-8.5611738078">
        <ele>200.57</ele>
        <time>2018-12-22T11:58:13Z</time>
      </trkpt>
      <trkpt lat="39.5909625012" lon="-8.5612454731">
        <ele>201.05</ele>
        <time>2018-12-22T11:58:19Z</time>
      </trkpt>
      <trkpt lat="39.5909930114" lon="-8.5613535997">
        <ele>202.49</ele>
        <time>2018-12-22T11:58:27Z</time>
      </trkpt>
      <trkpt lat="39.5910003874" lon="-8.5613755602">
        <ele>202.49</ele>
        <time>2018-12-22T11:58:29Z</time>
      </trkpt>
      <trkpt lat="39.5910115354" lon="-8.5614139494">
        <ele>202.49</ele>
        <time>2018-12-22T11:58:32Z</time>
      </trkpt>
      <trkpt lat="39.5910080988" lon="-8.5614427831">
        <ele>202.49</ele>
        <time>2018-12-22T11:58:34Z</time>
      </trkpt>
      <trkpt lat="39.5910133794" lon="-8.5614719521">
        <ele>202.98</ele>
        <time>2018-12-22T11:58:36Z</time>
      </trkpt>
      <trkpt lat="39.5910437219" lon="-8.5615704395">
        <ele>204.42</ele>
        <time>2018-12-22T11:58:44Z</time>
      </trkpt>
      <trkpt lat="39.5910694543" lon="-8.5616404284">
        <ele>204.90</ele>
        <time>2018-12-22T11:58:49Z</time>
      </trkpt>
      <trkpt lat="39.5911008026" lon="-8.5616880376">
        <ele>204.90</ele>
        <time>2018-12-22T11:58:53Z</time>
      </trkpt>
      <trkpt lat="39.5911507588" lon="-8.5617913865">
        <ele>205.38</ele>
        <time>2018-12-22T11:59:01Z</time>
      </trkpt>
      <trkpt lat="39.5911936741" lon="-8.5618741997">
        <ele>205.38</ele>
        <time>2018-12-22T11:59:09Z</time>
      </trkpt>
      <trkpt lat="39.5912396908" lon="-8.5619408358">
        <ele>205.38</ele>
        <time>2018-12-22T11:59:19Z</time>
      </trkpt>
      <trkpt lat="39.5912427083" lon="-8.5619534925">
        <ele>205.86</ele>
        <time>2018-12-22T11:59:20Z</time>
      </trkpt>
      <trkpt lat="39.5913020521" lon="-8.5620571766">
        <ele>205.86</ele>
        <time>2018-12-22T11:59:30Z</time>
      </trkpt>
      <trkpt lat="39.5913633239" lon="-8.5621492099">
        <ele>206.34</ele>
        <time>2018-12-22T11:59:38Z</time>
      </trkpt>
      <trkpt lat="39.5914083347" lon="-8.5622195341">
        <ele>206.82</ele>
        <time>2018-12-22T11:59:45Z</time>
      </trkpt>
      <trkpt lat="39.5914678462" lon="-8.5623003356">
        <ele>206.82</ele>
        <time>2018-12-22T11:59:52Z</time>
      </trkpt>
      <trkpt lat="39.5915338956" lon="-8.5623978171">
        <ele>207.30</ele>
        <time>2018-12-22T12:00:01Z</time>
      </trkpt>
      <trkpt lat="39.5915955864" lon="-8.5624940414">
        <ele>206.82</ele>
        <time>2018-12-22T12:00:09Z</time>
      </trkpt>
      <trkpt lat="39.5916554332" lon="-8.5625900142">
        <ele>207.30</ele>
        <time>2018-12-22T12:00:17Z</time>
      </trkpt>
      <trkpt lat="39.5917314570" lon="-8.5626869090">
        <ele>207.78</ele>
        <time>2018-12-22T12:00:25Z</time>
      </trkpt>
      <trkpt lat="39.5917698462" lon="-8.5627372004">
        <ele>208.26</ele>
        <time>2018-12-22T12:00:30Z</time>
      </trkpt>
      <trkpt lat="39.5918475464" lon="-8.5628281441">
        <ele>207.78</ele>
        <time>2018-12-22T12:00:39Z</time>
      </trkpt>
      <trkpt lat="39.5918648969" lon="-8.5628519487">
        <ele>208.26</ele>
        <time>2018-12-22T12:00:41Z</time>
      </trkpt>
      <trkpt lat="39.5919252466" lon="-8.5629223567">
        <ele>208.74</ele>
        <time>2018-12-22T12:00:47Z</time>
      </trkpt>
      <trkpt lat="39.5919916313" lon="-8.5629801080">
        <ele>208.74</ele>
        <time>2018-12-22T12:00:53Z</time>
      </trkpt>
      <trkpt lat="39.5920372289" lon="-8.5631044954">
        <ele>208.74</ele>
        <time>2018-12-22T12:01:02Z</time>
      </trkpt>
      <trkpt lat="39.5920716785" lon="-8.5631672759">
        <ele>209.22</ele>
        <time>2018-12-22T12:01:07Z</time>
      </trkpt>
      <trkpt lat="39.5921554137" lon="-8.5632532742">
        <ele>209.70</ele>
        <time>2018-12-22T12:01:16Z</time>
      </trkpt>
      <trkpt lat="39.5922316890" lon="-8.5633846186">
        <ele>209.70</ele>
        <time>2018-12-22T12:01:27Z</time>
      </trkpt>
      <trkpt lat="39.5922502130" lon="-8.5634207446">
        <ele>210.19</ele>
        <time>2018-12-22T12:01:30Z</time>
      </trkpt>
      <trkpt lat="39.5923310984" lon="-8.5635292903">
        <ele>210.67</ele>
        <time>2018-12-22T12:01:40Z</time>
      </trkpt>
      <trkpt lat="39.5924108103" lon="-8.5636517499">
        <ele>211.15</ele>
        <time>2018-12-22T12:01:50Z</time>
      </trkpt>
      <trkpt lat="39.5924685616" lon="-8.5637426935">
        <ele>211.15</ele>
        <time>2018-12-22T12:01:58Z</time>
      </trkpt>
      <trkpt lat="39.5925486926" lon="-8.5638555977">
        <ele>211.63</ele>
        <time>2018-12-22T12:02:08Z</time>
      </trkpt>
      <trkpt lat="39.5925736707" lon="-8.5638939869">
        <ele>212.11</ele>
        <time>2018-12-22T12:02:11Z</time>
      </trkpt>
      <trkpt lat="39.5926584117" lon="-8.5639920551">
        <ele>212.59</ele>
        <time>2018-12-22T12:02:21Z</time>
      </trkpt>
      <trkpt lat="39.5927252155" lon="-8.5641023610">
        <ele>213.07</ele>
        <time>2018-12-22T12:02:31Z</time>
      </trkpt>
      <trkpt lat="39.5927639399" lon="-8.5641879402">
        <ele>213.07</ele>
        <time>2018-12-22T12:02:37Z</time>
      </trkpt>
      <trkpt lat="39.5927979704" lon="-8.5642301012">
        <ele>213.55</ele>
        <time>2018-12-22T12:02:41Z</time>
      </trkpt>
      <trkpt lat="39.5928457472" lon="-8.5643297620">
        <ele>214.03</ele>
        <time>2018-12-22T12:02:49Z</time>
      </trkpt>
      <trkpt lat="39.5928800292" lon="-8.5643867590">
        <ele>214.03</ele>
        <time>2018-12-22T12:02:54Z</time>
      </trkpt>
      <trkpt lat="39.5929169096" lon="-8.5644231364">
        <ele>214.51</ele>
        <time>2018-12-22T12:02:58Z</time>
      </trkpt>
      <trkpt lat="39.5929459110" lon="-8.5644815583">
        <ele>215.47</ele>
        <time>2018-12-22T12:03:03Z</time>
      </trkpt>
      <trkpt lat="39.5929739065" lon="-8.5645075422">
        <ele>215.47</ele>
        <time>2018-12-22T12:03:06Z</time>
      </trkpt>
      <trkpt lat="39.5929882396" lon="-8.5645289160">
        <ele>214.99</ele>
        <time>2018-12-22T12:03:08Z</time>
      </trkpt>
      <trkpt lat="39.5930486731" lon="-8.5646023415">
        <ele>216.43</ele>
        <time>2018-12-22T12:03:16Z</time>
      </trkpt>
      <trkpt lat="39.5931180753" lon="-8.5646785330">
        <ele>217.40</ele>
        <time>2018-12-22T12:03:24Z</time>
      </trkpt>
      <trkpt lat="39.5931298938" lon="-8.5647048522">
        <ele>217.40</ele>
        <time>2018-12-22T12:03:26Z</time>
      </trkpt>
      <trkpt lat="39.5931905787" lon="-8.5647953767">
        <ele>217.88</ele>
        <time>2018-12-22T12:03:34Z</time>
      </trkpt>
      <trkpt lat="39.5932686981" lon="-8.5649129748">
        <ele>218.36</ele>
        <time>2018-12-22T12:03:45Z</time>
      </trkpt>
      <trkpt lat="39.5933101047" lon="-8.5650539584">
        <ele>218.36</ele>
        <time>2018-12-22T12:03:55Z</time>
      </trkpt>
      <trkpt lat="39.5933921635" lon="-8.5651527811">
        <ele>219.80</ele>
        <time>2018-12-22T12:04:05Z</time>
      </trkpt>
      <trkpt lat="39.5934708696" lon="-8.5652392823">
        <ele>219.80</ele>
        <time>2018-12-22T12:04:15Z</time>
      </trkpt>
      <trkpt lat="39.5935279503" lon="-8.5652983747">
        <ele>220.28</ele>
        <time>2018-12-22T12:04:21Z</time>
      </trkpt>
      <trkpt lat="39.5935608912" lon="-8.5653168987">
        <ele>220.28</ele>
        <time>2018-12-22T12:04:24Z</time>
      </trkpt>
      <trkpt lat="39.5936518349" lon="-8.5653907433">
        <ele>221.24</ele>
        <time>2018-12-22T12:04:33Z</time>
      </trkpt>
      <trkpt lat="39.5937262662" lon="-8.5654365085">
        <ele>221.72</ele>
        <time>2018-12-22T12:04:40Z</time>
      </trkpt>
      <trkpt lat="39.5937996916" lon="-8.5654910747">
        <ele>222.20</ele>
        <time>2018-12-22T12:04:48Z</time>
      </trkpt>
      <trkpt lat="39.5938792359" lon="-8.5655361693">
        <ele>222.68</ele>
        <time>2018-12-22T12:04:56Z</time>
      </trkpt>
      <trkpt lat="39.5938965026" lon="-8.5655508377">
        <ele>222.68</ele>
        <time>2018-12-22T12:04:58Z</time>
      </trkpt>
      <trkpt lat="39.5939301979" lon="-8.5655642487">
        <ele>223.16</ele>
        <time>2018-12-22T12:05:01Z</time>
      </trkpt>
      <trkpt lat="39.5939964149" lon="-8.5656065773">
        <ele>223.64</ele>
        <time>2018-12-22T12:05:07Z</time>
      </trkpt>
      <trkpt lat="39.5940586086" lon="-8.5656251851">
        <ele>223.64</ele>
        <time>2018-12-22T12:05:13Z</time>
      </trkpt>
      <trkpt lat="39.5940879453" lon="-8.5656513367">
        <ele>224.12</ele>
        <time>2018-12-22T12:05:16Z</time>
      </trkpt>
      <trkpt lat="39.5941669866" lon="-8.5657123569">
        <ele>224.12</ele>
        <time>2018-12-22T12:05:24Z</time>
      </trkpt>
      <trkpt lat="39.5942638814" lon="-8.5657785740">
        <ele>225.09</ele>
        <time>2018-12-22T12:05:33Z</time>
      </trkpt>
      <trkpt lat="39.5943618659" lon="-8.5658383369">
        <ele>225.57</ele>
        <time>2018-12-22T12:05:42Z</time>
      </trkpt>
      <trkpt lat="39.5943969022" lon="-8.5658582859">
        <ele>225.57</ele>
        <time>2018-12-22T12:05:45Z</time>
      </trkpt>
      <trkpt lat="39.5944885164" lon="-8.5659189709">
        <ele>226.05</ele>
        <time>2018-12-22T12:05:54Z</time>
      </trkpt>
      <trkpt lat="39.5944986586" lon="-8.5659279395">
        <ele>226.05</ele>
        <time>2018-12-22T12:05:55Z</time>
      </trkpt>
      <trkpt lat="39.5945988223" lon="-8.5659834277">
        <ele>226.53</ele>
        <time>2018-12-22T12:06:04Z</time>
      </trkpt>
      <trkpt lat="39.5946778636" lon="-8.5660425201">
        <ele>227.49</ele>
        <time>2018-12-22T12:06:13Z</time>
      </trkpt>
      <trkpt lat="39.5946840663" lon="-8.5660528298">
        <ele>227.01</ele>
        <time>2018-12-22T12:06:14Z</time>
      </trkpt>
      <trkpt lat="39.5946955495" lon="-8.5660791490">
        <ele>227.49</ele>
        <time>2018-12-22T12:06:16Z</time>
      </trkpt>
      <trkpt lat="39.5947405603" lon="-8.5661283508">
        <ele>227.49</ele>
        <time>2018-12-22T12:06:21Z</time>
      </trkpt>
      <trkpt lat="39.5947715733" lon="-8.5661695059">
        <ele>227.01</ele>
        <time>2018-12-22T12:06:25Z</time>
      </trkpt>
      <trkpt lat="39.5948327612" lon="-8.5662697535">
        <ele>228.45</ele>
        <time>2018-12-22T12:06:34Z</time>
      </trkpt>
      <trkpt lat="39.5948389638" lon="-8.5662822425">
        <ele>228.45</ele>
        <time>2018-12-22T12:06:35Z</time>
      </trkpt>
      <trkpt lat="39.5948555600" lon="-8.5663610324">
        <ele>227.97</ele>
        <time>2018-12-22T12:06:41Z</time>
      </trkpt>
      <trkpt lat="39.5948890876" lon="-8.5664370563">
        <ele>228.45</ele>
        <time>2018-12-22T12:06:47Z</time>
      </trkpt>
      <trkpt lat="39.5949261356" lon="-8.5665414110">
        <ele>227.97</ele>
        <time>2018-12-22T12:06:55Z</time>
      </trkpt>
      <trkpt lat="39.5949616749" lon="-8.5666370485">
        <ele>228.45</ele>
        <time>2018-12-22T12:07:03Z</time>
      </trkpt>
      <trkpt lat="39.5949945319" lon="-8.5667643696">
        <ele>228.93</ele>
        <time>2018-12-22T12:07:12Z</time>
      </trkpt>
      <trkpt lat="39.5950194262" lon="-8.5668473504">
        <ele>228.45</ele>
        <time>2018-12-22T12:07:18Z</time>
      </trkpt>
      <trkpt lat="39.5950212702" lon="-8.5668738373">
        <ele>228.93</ele>
        <time>2018-12-22T12:07:20Z</time>
      </trkpt>
      <trkpt lat="39.5950394589" lon="-8.5669410601">
        <ele>228.45</ele>
        <time>2018-12-22T12:07:25Z</time>
      </trkpt>
      <trkpt lat="39.5950845536" lon="-8.5670412239">
        <ele>229.41</ele>
        <time>2018-12-22T12:07:33Z</time>
      </trkpt>
      <trkpt lat="39.5951212663" lon="-8.5671624262">
        <ele>229.41</ele>
        <time>2018-12-22T12:07:42Z</time>
      </trkpt>
      <trkpt lat="39.5951527823" lon="-8.5672547948">
        <ele>230.85</ele>
        <time>2018-12-22T12:07:49Z</time>
      </trkpt>
      <trkpt lat="39.5951769222" lon="-8.5673023202">
        <ele>230.37</ele>
        <time>2018-12-22T12:07:53Z</time>
      </trkpt>
      <trkpt lat="39.5951763354" lon="-8.5673445649">
        <ele>230.85</ele>
        <time>2018-12-22T12:07:56Z</time>
      </trkpt>
      <trkpt lat="39.5952047501" lon="-8.5674474109">
        <ele>231.33</ele>
        <time>2018-12-22T12:08:04Z</time>
      </trkpt>
      <trkpt lat="39.5952411275" lon="-8.5675572138">
        <ele>231.81</ele>
        <time>2018-12-22T12:08:13Z</time>
      </trkpt>
      <trkpt lat="39.5952620823" lon="-8.5676010512">
        <ele>231.81</ele>
        <time>2018-12-22T12:08:16Z</time>
      </trkpt>
      <trkpt lat="39.5952721406" lon="-8.5676771589">
        <ele>232.78</ele>
        <time>2018-12-22T12:08:22Z</time>
      </trkpt>
      <trkpt lat="39.5952859707" lon="-8.5677305516">
        <ele>232.78</ele>
        <time>2018-12-22T12:08:26Z</time>
      </trkpt>
      <trkpt lat="39.5953221805" lon="-8.5678736307">
        <ele>234.22</ele>
        <time>2018-12-22T12:08:37Z</time>
      </trkpt>
      <trkpt lat="39.5953387767" lon="-8.5679092538">
        <ele>234.22</ele>
        <time>2018-12-22T12:08:40Z</time>
      </trkpt>
      <trkpt lat="39.5953610726" lon="-8.5679435357">
        <ele>234.70</ele>
        <time>2018-12-22T12:08:43Z</time>
      </trkpt>
      <trkpt lat="39.5953920018" lon="-8.5680224095">
        <ele>234.70</ele>
        <time>2018-12-22T12:08:49Z</time>
      </trkpt>
      <trkpt lat="39.5954079274" lon="-8.5681069829">
        <ele>236.14</ele>
        <time>2018-12-22T12:08:55Z</time>
      </trkpt>
      <trkpt lat="39.5954472385" lon="-8.5682275146">
        <ele>236.14</ele>
        <time>2018-12-22T12:09:04Z</time>
      </trkpt>
      <trkpt lat="39.5954681933" lon="-8.5683054663">
        <ele>236.62</ele>
        <time>2018-12-22T12:09:11Z</time>
      </trkpt>
      <trkpt lat="39.5954982843" lon="-8.5684079770">
        <ele>237.10</ele>
        <time>2018-12-22T12:09:19Z</time>
      </trkpt>
      <trkpt lat="39.5955298003" lon="-8.5684954841">
        <ele>237.10</ele>
        <time>2018-12-22T12:09:25Z</time>
      </trkpt>
      <trkpt lat="39.5955585502" lon="-8.5686194524">
        <ele>237.58</ele>
        <time>2018-12-22T12:09:34Z</time>
      </trkpt>
      <trkpt lat="39.5955772419" lon="-8.5686689895">
        <ele>238.06</ele>
        <time>2018-12-22T12:09:38Z</time>
      </trkpt>
      <trkpt lat="39.5956035610" lon="-8.5687625315">
        <ele>238.54</ele>
        <time>2018-12-22T12:09:46Z</time>
      </trkpt>
      <trkpt lat="39.5956448000" lon="-8.5688956361">
        <ele>238.06</ele>
        <time>2018-12-22T12:09:56Z</time>
      </trkpt>
      <trkpt lat="39.5956586301" lon="-8.5690289922">
        <ele>238.54</ele>
        <time>2018-12-22T12:10:05Z</time>
      </trkpt>
      <trkpt lat="39.5956970192" lon="-8.5691423155">
        <ele>239.02</ele>
        <time>2018-12-22T12:10:13Z</time>
      </trkpt>
      <trkpt lat="39.5957160462" lon="-8.5691949539">
        <ele>239.51</ele>
        <time>2018-12-22T12:10:17Z</time>
      </trkpt>
      <trkpt lat="39.5957390126" lon="-8.5693102889">
        <ele>240.47</ele>
        <time>2018-12-22T12:10:25Z</time>
      </trkpt>
      <trkpt lat="39.5957578719" lon="-8.5694046691">
        <ele>240.47</ele>
        <time>2018-12-22T12:10:33Z</time>
      </trkpt>
      <trkpt lat="39.5957908127" lon="-8.5694453213">
        <ele>239.99</ele>
        <time>2018-12-22T12:10:42Z</time>
      </trkpt>
      <trkpt lat="39.5958193950" lon="-8.5694506019">
        <ele>240.47</ele>
        <time>2018-12-22T12:10:45Z</time>
      </trkpt>
      <trkpt lat="39.5959208999" lon="-8.5694356821">
        <ele>241.43</ele>
        <time>2018-12-22T12:10:54Z</time>
      </trkpt>
      <trkpt lat="39.5959952474" lon="-8.5694103688">
        <ele>241.91</ele>
        <time>2018-12-22T12:11:02Z</time>
      </trkpt>
      <trkpt lat="39.5960074849" lon="-8.5694030765">
        <ele>241.91</ele>
        <time>2018-12-22T12:11:04Z</time>
      </trkpt>
      <trkpt lat="39.5960494783" lon="-8.5693760030">
        <ele>242.87</ele>
        <time>2018-12-22T12:11:08Z</time>
      </trkpt>
      <trkpt lat="39.5961082354" lon="-8.5693758354">
        <ele>242.39</ele>
        <time>2018-12-22T12:11:13Z</time>
      </trkpt>
      <trkpt lat="39.5962106623" lon="-8.5692789406">
        <ele>243.83</ele>
        <time>2018-12-22T12:11:24Z</time>
      </trkpt>
      <trkpt lat="39.5962268393" lon="-8.5692647751">
        <ele>243.35</ele>
        <time>2018-12-22T12:11:26Z</time>
      </trkpt>
      <trkpt lat="39.5963115804" lon="-8.5692200158">
        <ele>243.83</ele>
        <time>2018-12-22T12:11:34Z</time>
      </trkpt>
      <trkpt lat="39.5963964052" lon="-8.5691973008">
        <ele>244.31</ele>
        <time>2018-12-22T12:11:41Z</time>
      </trkpt>
      <trkpt lat="39.5964789670" lon="-8.5691374540">
        <ele>245.75</ele>
        <time>2018-12-22T12:11:49Z</time>
      </trkpt>
      <trkpt lat="39.5965569187" lon="-8.5690889228">
        <ele>245.75</ele>
        <time>2018-12-22T12:11:56Z</time>
      </trkpt>
      <trkpt lat="39.5966434199" lon="-8.5690206941">
        <ele>246.23</ele>
        <time>2018-12-22T12:12:05Z</time>
      </trkpt>
      <trkpt lat="39.5967215393" lon="-8.5689613502">
        <ele>247.20</ele>
        <time>2018-12-22T12:12:13Z</time>
      </trkpt>
      <trkpt lat="39.5968075376" lon="-8.5689402279">
        <ele>247.20</ele>
        <time>2018-12-22T12:12:21Z</time>
      </trkpt>
      <trkpt lat="39.5968324319" lon="-8.5689416528">
        <ele>247.68</ele>
        <time>2018-12-22T12:12:23Z</time>
      </trkpt>
      <trkpt lat="39.5969476830" lon="-8.5689642001">
        <ele>247.68</ele>
        <time>2018-12-22T12:12:33Z</time>
      </trkpt>
      <trkpt lat="39.5970449969" lon="-8.5689357016">
        <ele>248.16</ele>
        <time>2018-12-22T12:12:41Z</time>
      </trkpt>
      <trkpt lat="39.5970825478" lon="-8.5688913614">
        <ele>248.64</ele>
        <time>2018-12-22T12:12:46Z</time>
      </trkpt>
      <trkpt lat="39.5971325878" lon="-8.5688281618">
        <ele>249.12</ele>
        <time>2018-12-22T12:12:52Z</time>
      </trkpt>
      <trkpt lat="39.5972221065" lon="-8.5688433331">
        <ele>249.60</ele>
        <time>2018-12-22T12:13:01Z</time>
      </trkpt>
      <trkpt lat="39.5972375292" lon="-8.5688459314">
        <ele>248.64</ele>
        <time>2018-12-22T12:13:03Z</time>
      </trkpt>
      <trkpt lat="39.5972826239" lon="-8.5688538942">
        <ele>249.60</ele>
        <time>2018-12-22T12:13:07Z</time>
      </trkpt>
      <trkpt lat="39.5973169897" lon="-8.5688813869">
        <ele>249.12</ele>
        <time>2018-12-22T12:13:10Z</time>
      </trkpt>
      <trkpt lat="39.5973468293" lon="-8.5690389667">
        <ele>249.60</ele>
        <time>2018-12-22T12:13:20Z</time>
      </trkpt>
      <trkpt lat="39.5973520260" lon="-8.5691832192">
        <ele>248.16</ele>
        <time>2018-12-22T12:13:29Z</time>
      </trkpt>
      <trkpt lat="39.5973925106" lon="-8.5693506896">
        <ele>248.16</ele>
        <time>2018-12-22T12:13:40Z</time>
      </trkpt>
      <trkpt lat="39.5973821171" lon="-8.5694972053">
        <ele>248.16</ele>
        <time>2018-12-22T12:13:49Z</time>
      </trkpt>
      <trkpt lat="39.5973515231" lon="-8.5696561262">
        <ele>246.72</ele>
        <time>2018-12-22T12:13:59Z</time>
      </trkpt>
      <trkpt lat="39.5973255392" lon="-8.5697776638">
        <ele>246.72</ele>
        <time>2018-12-22T12:14:07Z</time>
      </trkpt>
      <trkpt lat="39.5973276347" lon="-8.5699511692">
        <ele>245.27</ele>
        <time>2018-12-22T12:14:19Z</time>
      </trkpt>
      <trkpt lat="39.5973521937" lon="-8.5701270215">
        <ele>244.79</ele>
        <time>2018-12-22T12:14:30Z</time>
      </trkpt>
      <trkpt lat="39.5973455720" lon="-8.5701962560">
        <ele>243.83</ele>
        <time>2018-12-22T12:14:35Z</time>
      </trkpt>
      <trkpt lat="39.5973965339" lon="-8.5703703482">
        <ele>242.87</ele>
        <time>2018-12-22T12:14:47Z</time>
      </trkpt>
      <trkpt lat="39.5974118728" lon="-8.5704267584">
        <ele>241.91</ele>
        <time>2018-12-22T12:14:55Z</time>
      </trkpt>
      <trkpt lat="39.5974292234" lon="-8.5704849288">
        <ele>242.39</ele>
        <time>2018-12-22T12:15:07Z</time>
      </trkpt>
      <trkpt lat="39.5974333305" lon="-8.5704982560">
        <ele>241.91</ele>
        <time>2018-12-22T12:15:08Z</time>
      </trkpt>
      <trkpt lat="39.5974421315" lon="-8.5706016049">
        <ele>240.47</ele>
        <time>2018-12-22T12:15:15Z</time>
      </trkpt>
      <trkpt lat="39.5974878967" lon="-8.5707513057">
        <ele>239.99</ele>
        <time>2018-12-22T12:15:26Z</time>
      </trkpt>
      <trkpt lat="39.5974925905" lon="-8.5707931314">
        <ele>239.99</ele>
        <time>2018-12-22T12:15:29Z</time>
      </trkpt>
      <trkpt lat="39.5975189097" lon="-8.5709533095">
        <ele>239.99</ele>
        <time>2018-12-22T12:15:39Z</time>
      </trkpt>
      <trkpt lat="39.5975799300" lon="-8.5711055249">
        <ele>238.54</ele>
        <time>2018-12-22T12:15:49Z</time>
      </trkpt>
      <trkpt lat="39.5976365078" lon="-8.5711985640">
        <ele>238.54</ele>
        <time>2018-12-22T12:15:57Z</time>
      </trkpt>
      <trkpt lat="39.5977402758" lon="-8.5712813772">
        <ele>238.54</ele>
        <time>2018-12-22T12:16:07Z</time>
      </trkpt>
      <trkpt lat="39.5978327282" lon="-8.5713411402">
        <ele>237.58</ele>
        <time>2018-12-22T12:16:16Z</time>
      </trkpt>
      <trkpt lat="39.5979022980" lon="-8.5713849775">
        <ele>238.06</ele>
        <time>2018-12-22T12:16:23Z</time>
      </trkpt>
      <trkpt lat="39.5980114304" lon="-8.5714314971">
        <ele>236.14</ele>
        <time>2018-12-22T12:16:31Z</time>
      </trkpt>
      <trkpt lat="39.5980470534" lon="-8.5714674555">
        <ele>236.14</ele>
        <time>2018-12-22T12:16:34Z</time>
      </trkpt>
      <trkpt lat="39.5981012005" lon="-8.5716277175">
        <ele>235.66</ele>
        <time>2018-12-22T12:16:45Z</time>
      </trkpt>
      <trkpt lat="39.5981162880" lon="-8.5718008876">
        <ele>234.22</ele>
        <time>2018-12-22T12:16:55Z</time>
      </trkpt>
      <trkpt lat="39.5981552638" lon="-8.5719297174">
        <ele>233.26</ele>
        <time>2018-12-22T12:17:04Z</time>
      </trkpt>
      <trkpt lat="39.5981673338" lon="-8.5720583797">
        <ele>233.74</ele>
        <time>2018-12-22T12:17:12Z</time>
      </trkpt>
      <trkpt lat="39.5981991850" lon="-8.5721925739">
        <ele>232.78</ele>
        <time>2018-12-22T12:17:21Z</time>
      </trkpt>
      <trkpt lat="39.5982378256" lon="-8.5723288637">
        <ele>232.30</ele>
        <time>2018-12-22T12:17:31Z</time>
      </trkpt>
      <trkpt lat="39.5983127598" lon="-8.5724705178">
        <ele>231.81</ele>
        <time>2018-12-22T12:17:41Z</time>
      </trkpt>
      <trkpt lat="39.5983732771" lon="-8.5725752916">
        <ele>230.85</ele>
        <time>2018-12-22T12:17:49Z</time>
      </trkpt>
      <trkpt lat="39.5983887836" lon="-8.5725980066">
        <ele>230.85</ele>
        <time>2018-12-22T12:17:51Z</time>
      </trkpt>
      <trkpt lat="39.5984569285" lon="-8.5727244057">
        <ele>230.85</ele>
        <time>2018-12-22T12:18:01Z</time>
      </trkpt>
      <trkpt lat="39.5984955691" lon="-8.5728070512">
        <ele>230.37</ele>
        <time>2018-12-22T12:18:08Z</time>
      </trkpt>
      <trkpt lat="39.5985728502" lon="-8.5729192849">
        <ele>229.89</ele>
        <time>2018-12-22T12:18:17Z</time>
      </trkpt>
      <trkpt lat="39.5986421686" lon="-8.5729906149">
        <ele>229.89</ele>
        <time>2018-12-22T12:18:24Z</time>
      </trkpt>
      <trkpt lat="39.5987279154" lon="-8.5730749369">
        <ele>229.89</ele>
        <time>2018-12-22T12:18:32Z</time>
      </trkpt>
      <trkpt lat="39.5988326054" lon="-8.5731172655">
        <ele>229.41</ele>
        <time>2018-12-22T12:18:41Z</time>
      </trkpt>
      <trkpt lat="39.5988974813" lon="-8.5731546488">
        <ele>229.41</ele>
        <time>2018-12-22T12:18:48Z</time>
      </trkpt>
      <trkpt lat="39.5989772771" lon="-8.5731926188">
        <ele>228.45</ele>
        <time>2018-12-22T12:18:54Z</time>
      </trkpt>
      <trkpt lat="39.5990854874" lon="-8.5732541420">
        <ele>228.45</ele>
        <time>2018-12-22T12:19:03Z</time>
      </trkpt>
      <trkpt lat="39.5991916023" lon="-8.5732973926">
        <ele>227.49</ele>
        <time>2018-12-22T12:19:12Z</time>
      </trkpt>
      <trkpt lat="39.5992527902" lon="-8.5733180959">
        <ele>227.97</ele>
        <time>2018-12-22T12:19:17Z</time>
      </trkpt>
      <trkpt lat="39.5993393753" lon="-8.5733952932">
        <ele>227.97</ele>
        <time>2018-12-22T12:19:26Z</time>
      </trkpt>
      <trkpt lat="39.5994391199" lon="-8.5734784417">
        <ele>227.49</ele>
        <time>2018-12-22T12:19:34Z</time>
      </trkpt>
      <trkpt lat="39.5995716378" lon="-8.5735525377">
        <ele>227.01</ele>
        <time>2018-12-22T12:19:43Z</time>
      </trkpt>
      <trkpt lat="39.5996837877" lon="-8.5736143962">
        <ele>227.49</ele>
        <time>2018-12-22T12:19:52Z</time>
      </trkpt>
      <trkpt lat="39.5997733064" lon="-8.5736744106">
        <ele>227.01</ele>
        <time>2018-12-22T12:20:01Z</time>
      </trkpt>
      <trkpt lat="39.5998005476" lon="-8.5737192538">
        <ele>227.97</ele>
        <time>2018-12-22T12:20:08Z</time>
      </trkpt>
      <trkpt lat="39.5997957699" lon="-8.5737379454">
        <ele>227.97</ele>
        <time>2018-12-22T12:20:19Z</time>
      </trkpt>
      <trkpt lat="39.5998202451" lon="-8.5737555474">
        <ele>227.97</ele>
        <time>2018-12-22T12:20:32Z</time>
      </trkpt>
      <trkpt lat="39.5998414513" lon="-8.5737458244">
        <ele>227.97</ele>
        <time>2018-12-22T12:20:39Z</time>
      </trkpt>
      <trkpt lat="39.5998437982" lon="-8.5737248696">
        <ele>227.97</ele>
        <time>2018-12-22T12:20:51Z</time>
      </trkpt>
      <trkpt lat="39.5998927485" lon="-8.5737542901">
        <ele>227.97</ele>
        <time>2018-12-22T12:21:00Z</time>
      </trkpt>
      <trkpt lat="39.5999279525" lon="-8.5737588163">
        <ele>227.97</ele>
        <time>2018-12-22T12:21:03Z</time>
      </trkpt>
      <trkpt lat="39.6000195667" lon="-8.5737925954">
        <ele>227.97</ele>
        <time>2018-12-22T12:21:11Z</time>
      </trkpt>
      <trkpt lat="39.6000487357" lon="-8.5738218483">
        <ele>227.49</ele>
        <time>2018-12-22T12:21:14Z</time>
      </trkpt>
      <trkpt lat="39.6001354884" lon="-8.5738544539">
        <ele>228.45</ele>
        <time>2018-12-22T12:21:22Z</time>
      </trkpt>
      <trkpt lat="39.6002512425" lon="-8.5738738161">
        <ele>228.93</ele>
        <time>2018-12-22T12:21:31Z</time>
      </trkpt>
      <trkpt lat="39.6002620552" lon="-8.5738770012">
        <ele>227.97</ele>
        <time>2018-12-22T12:21:32Z</time>
      </trkpt>
      <trkpt lat="39.6003196388" lon="-8.5738998000">
        <ele>227.97</ele>
        <time>2018-12-22T12:21:37Z</time>
      </trkpt>
      <trkpt lat="39.6004117560" lon="-8.5739035718">
        <ele>227.97</ele>
        <time>2018-12-22T12:21:45Z</time>
      </trkpt>
      <trkpt lat="39.6005501412" lon="-8.5739364289">
        <ele>227.97</ele>
        <time>2018-12-22T12:21:56Z</time>
      </trkpt>
      <trkpt lat="39.6006068029" lon="-8.5739640892">
        <ele>227.49</ele>
        <time>2018-12-22T12:22:01Z</time>
      </trkpt>
      <trkpt lat="39.6006593574" lon="-8.5739683639">
        <ele>227.49</ele>
        <time>2018-12-22T12:22:06Z</time>
      </trkpt>
      <trkpt lat="39.6007652208" lon="-8.5740110278">
        <ele>227.49</ele>
        <time>2018-12-22T12:22:16Z</time>
      </trkpt>
      <trkpt lat="39.6008880995" lon="-8.5740751494">
        <ele>227.49</ele>
        <time>2018-12-22T12:22:26Z</time>
      </trkpt>
      <trkpt lat="39.6010055300" lon="-8.5741203278">
        <ele>227.01</ele>
        <time>2018-12-22T12:22:37Z</time>
      </trkpt>
      <trkpt lat="39.6011408977" lon="-8.5741672665">
        <ele>227.01</ele>
        <time>2018-12-22T12:22:49Z</time>
      </trkpt>
      <trkpt lat="39.6012589149" lon="-8.5741921607">
        <ele>226.53</ele>
        <time>2018-12-22T12:22:59Z</time>
      </trkpt>
      <trkpt lat="39.6013741661" lon="-8.5741952620">
        <ele>226.05</ele>
        <time>2018-12-22T12:23:09Z</time>
      </trkpt>
      <trkpt lat="39.6014627628" lon="-8.5742086731">
        <ele>226.53</ele>
        <time>2018-12-22T12:23:17Z</time>
      </trkpt>
      <trkpt lat="39.6015739068" lon="-8.5741954297">
        <ele>226.53</ele>
        <time>2018-12-22T12:23:26Z</time>
      </trkpt>
      <trkpt lat="39.6017054189" lon="-8.5742117744">
        <ele>225.09</ele>
        <time>2018-12-22T12:23:37Z</time>
      </trkpt>
      <trkpt lat="39.6017464902" lon="-8.5742146242">
        <ele>225.09</ele>
        <time>2018-12-22T12:23:41Z</time>
      </trkpt>
      <trkpt lat="39.6018491685" lon="-8.5742372554">
        <ele>223.64</ele>
        <time>2018-12-22T12:23:51Z</time>
      </trkpt>
      <trkpt lat="39.6018729731" lon="-8.5742447153">
        <ele>224.12</ele>
        <time>2018-12-22T12:23:53Z</time>
      </trkpt>
      <trkpt lat="39.6020096820" lon="-8.5742883012">
        <ele>224.12</ele>
        <time>2018-12-22T12:24:04Z</time>
      </trkpt>
      <trkpt lat="39.6020983625" lon="-8.5742917378">
        <ele>223.16</ele>
        <time>2018-12-22T12:24:12Z</time>
      </trkpt>
      <trkpt lat="39.6021919884" lon="-8.5743162967">
        <ele>223.16</ele>
        <time>2018-12-22T12:24:20Z</time>
      </trkpt>
      <trkpt lat="39.6023066528" lon="-8.5743237566">
        <ele>223.16</ele>
        <time>2018-12-22T12:24:29Z</time>
      </trkpt>
      <trkpt lat="39.6024415176" lon="-8.5743758082">
        <ele>222.68</ele>
        <time>2018-12-22T12:24:40Z</time>
      </trkpt>
      <trkpt lat="39.6025573555" lon="-8.5744073242">
        <ele>222.68</ele>
        <time>2018-12-22T12:24:49Z</time>
      </trkpt>
      <trkpt lat="39.6026515681" lon="-8.5744685121">
        <ele>223.16</ele>
        <time>2018-12-22T12:24:58Z</time>
      </trkpt>
      <trkpt lat="39.6027673222" lon="-8.5745078232">
        <ele>222.20</ele>
        <time>2018-12-22T12:25:07Z</time>
      </trkpt>
      <trkpt lat="39.6028774604" lon="-8.5745847691">
        <ele>221.72</ele>
        <time>2018-12-22T12:25:18Z</time>
      </trkpt>
      <trkpt lat="39.6029870119" lon="-8.5746480525">
        <ele>221.72</ele>
        <time>2018-12-22T12:25:28Z</time>
      </trkpt>
      <trkpt lat="39.6031004190" lon="-8.5746704321">
        <ele>221.24</ele>
        <time>2018-12-22T12:25:38Z</time>
      </trkpt>
      <trkpt lat="39.6031949669" lon="-8.5746794008">
        <ele>220.76</ele>
        <time>2018-12-22T12:25:46Z</time>
      </trkpt>
      <trkpt lat="39.6033228748" lon="-8.5747362301">
        <ele>221.24</ele>
        <time>2018-12-22T12:25:57Z</time>
      </trkpt>
      <trkpt lat="39.6034527943" lon="-8.5747844260">
        <ele>221.24</ele>
        <time>2018-12-22T12:26:07Z</time>
      </trkpt>
      <trkpt lat="39.6035506949" lon="-8.5748174507">
        <ele>220.76</ele>
        <time>2018-12-22T12:26:16Z</time>
      </trkpt>
      <trkpt lat="39.6036540437" lon="-8.5748600308">
        <ele>220.76</ele>
        <time>2018-12-22T12:26:25Z</time>
      </trkpt>
      <trkpt lat="39.6037644334" lon="-8.5748923011">
        <ele>219.80</ele>
        <time>2018-12-22T12:26:34Z</time>
      </trkpt>
      <trkpt lat="39.6038636751" lon="-8.5749540757">
        <ele>219.32</ele>
        <time>2018-12-22T12:26:44Z</time>
      </trkpt>
      <trkpt lat="39.6039359272" lon="-8.5749770422">
        <ele>219.80</ele>
        <time>2018-12-22T12:26:51Z</time>
      </trkpt>
      <trkpt lat="39.6039991267" lon="-8.5749830771">
        <ele>219.80</ele>
        <time>2018-12-22T12:26:57Z</time>
      </trkpt>
      <trkpt lat="39.6041031461" lon="-8.5749933030">
        <ele>219.32</ele>
        <time>2018-12-22T12:27:05Z</time>
      </trkpt>
      <trkpt lat="39.6042642463" lon="-8.5750447679">
        <ele>218.84</ele>
        <time>2018-12-22T12:27:16Z</time>
      </trkpt>
      <trkpt lat="39.6043811738" lon="-8.5750879347">
        <ele>218.84</ele>
        <time>2018-12-22T12:27:26Z</time>
      </trkpt>
      <trkpt lat="39.6044618078" lon="-8.5751004238">
        <ele>218.84</ele>
        <time>2018-12-22T12:27:33Z</time>
      </trkpt>
      <trkpt lat="39.6045742929" lon="-8.5751665570">
        <ele>218.36</ele>
        <time>2018-12-22T12:27:42Z</time>
      </trkpt>
      <trkpt lat="39.6046633087" lon="-8.5752261523">
        <ele>217.88</ele>
        <time>2018-12-22T12:27:50Z</time>
      </trkpt>
      <trkpt lat="39.6047524922" lon="-8.5752663855">
        <ele>217.88</ele>
        <time>2018-12-22T12:27:58Z</time>
      </trkpt>
      <trkpt lat="39.6048918832" lon="-8.5753644537">
        <ele>217.88</ele>
        <time>2018-12-22T12:28:08Z</time>
      </trkpt>
      <trkpt lat="39.6049885266" lon="-8.5754235461">
        <ele>217.40</ele>
        <time>2018-12-22T12:28:16Z</time>
      </trkpt>
      <trkpt lat="39.6050531510" lon="-8.5754924454">
        <ele>217.40</ele>
        <time>2018-12-22T12:28:23Z</time>
      </trkpt>
      <trkpt lat="39.6050758660" lon="-8.5755129810">
        <ele>217.40</ele>
        <time>2018-12-22T12:28:25Z</time>
      </trkpt>
      <trkpt lat="39.6051485371" lon="-8.5756123066">
        <ele>217.40</ele>
        <time>2018-12-22T12:28:34Z</time>
      </trkpt>
      <trkpt lat="39.6051950566" lon="-8.5757101234">
        <ele>216.91</ele>
        <time>2018-12-22T12:28:41Z</time>
      </trkpt>
      <trkpt lat="39.6052508801" lon="-8.5758065991">
        <ele>216.91</ele>
        <time>2018-12-22T12:28:49Z</time>
      </trkpt>
      <trkpt lat="39.6053084638" lon="-8.5759376921">
        <ele>216.43</ele>
        <time>2018-12-22T12:28:57Z</time>
      </trkpt>
      <trkpt lat="39.6053134091" lon="-8.5759514384">
        <ele>216.91</ele>
        <time>2018-12-22T12:28:58Z</time>
      </trkpt>
      <trkpt lat="39.6053754352" lon="-8.5761095211">
        <ele>215.95</ele>
        <time>2018-12-22T12:29:08Z</time>
      </trkpt>
      <trkpt lat="39.6054177638" lon="-8.5762385186">
        <ele>216.43</ele>
        <time>2018-12-22T12:29:16Z</time>
      </trkpt>
      <trkpt lat="39.6054545604" lon="-8.5764199030">
        <ele>214.99</ele>
        <time>2018-12-22T12:29:27Z</time>
      </trkpt>
      <trkpt lat="39.6054438315" lon="-8.5765465535">
        <ele>215.47</ele>
        <time>2018-12-22T12:29:35Z</time>
      </trkpt>
      <trkpt lat="39.6054442506" lon="-8.5766628105">
        <ele>214.99</ele>
        <time>2018-12-22T12:29:42Z</time>
      </trkpt>
      <trkpt lat="39.6054488607" lon="-8.5767091624">
        <ele>214.99</ele>
        <time>2018-12-22T12:29:45Z</time>
      </trkpt>
      <trkpt lat="39.6054301690" lon="-8.5768133495">
        <ele>214.03</ele>
        <time>2018-12-22T12:29:52Z</time>
      </trkpt>
      <trkpt lat="39.6054196078" lon="-8.5769675765">
        <ele>213.55</ele>
        <time>2018-12-22T12:30:01Z</time>
      </trkpt>
      <trkpt lat="39.6054170933" lon="-8.5770525690">
        <ele>213.55</ele>
        <time>2018-12-22T12:30:06Z</time>
      </trkpt>
      <trkpt lat="39.6053869184" lon="-8.5772418324">
        <ele>213.55</ele>
        <time>2018-12-22T12:30:18Z</time>
      </trkpt>
      <trkpt lat="39.6053396445" lon="-8.5774025135">
        <ele>213.07</ele>
        <time>2018-12-22T12:30:28Z</time>
      </trkpt>
      <trkpt lat="39.6053057816" lon="-8.5775042698">
        <ele>212.11</ele>
        <time>2018-12-22T12:30:36Z</time>
      </trkpt>
      <trkpt lat="39.6052643750" lon="-8.5776516236">
        <ele>212.59</ele>
        <time>2018-12-22T12:30:45Z</time>
      </trkpt>
      <trkpt lat="39.6052002534" lon="-8.5777899250">
        <ele>213.55</ele>
        <time>2018-12-22T12:30:55Z</time>
      </trkpt>
      <trkpt lat="39.6051583439" lon="-8.5778925195">
        <ele>213.07</ele>
        <time>2018-12-22T12:31:03Z</time>
      </trkpt>
      <trkpt lat="39.6051018499" lon="-8.5780408792">
        <ele>212.59</ele>
        <time>2018-12-22T12:31:13Z</time>
      </trkpt>
      <trkpt lat="39.6050368063" lon="-8.5781988781">
        <ele>212.59</ele>
        <time>2018-12-22T12:31:24Z</time>
      </trkpt>
      <trkpt lat="39.6049721818" lon="-8.5783075076">
        <ele>212.59</ele>
        <time>2018-12-22T12:31:33Z</time>
      </trkpt>
      <trkpt lat="39.6048722696" lon="-8.5784231778">
        <ele>212.11</ele>
        <time>2018-12-22T12:31:43Z</time>
      </trkpt>
      <trkpt lat="39.6047740337" lon="-8.5785257723">
        <ele>213.07</ele>
        <time>2018-12-22T12:31:53Z</time>
      </trkpt>
      <trkpt lat="39.6047380753" lon="-8.5785976890">
        <ele>213.07</ele>
        <time>2018-12-22T12:32:00Z</time>
      </trkpt>
      <trkpt lat="39.6047566831" lon="-8.5786319710">
        <ele>213.07</ele>
        <time>2018-12-22T12:32:07Z</time>
      </trkpt>
      <trkpt lat="39.6047736146" lon="-8.5786406882">
        <ele>213.07</ele>
        <time>2018-12-22T12:32:09Z</time>
      </trkpt>
      <trkpt lat="39.6048078965" lon="-8.5786722880">
        <ele>212.59</ele>
        <time>2018-12-22T12:32:13Z</time>
      </trkpt>
      <trkpt lat="39.6048249956" lon="-8.5787317157">
        <ele>213.07</ele>
        <time>2018-12-22T12:32:17Z</time>
      </trkpt>
      <trkpt lat="39.6048793104" lon="-8.5788382497">
        <ele>213.07</ele>
        <time>2018-12-22T12:32:25Z</time>
      </trkpt>
      <trkpt lat="39.6049359720" lon="-8.5789286904">
        <ele>213.07</ele>
        <time>2018-12-22T12:32:32Z</time>
      </trkpt>
      <trkpt lat="39.6050329506" lon="-8.5790758766">
        <ele>213.55</ele>
        <time>2018-12-22T12:32:45Z</time>
      </trkpt>
      <trkpt lat="39.6050922107" lon="-8.5791918822">
        <ele>213.07</ele>
        <time>2018-12-22T12:32:55Z</time>
      </trkpt>
      <trkpt lat="39.6051528119" lon="-8.5793103185">
        <ele>213.07</ele>
        <time>2018-12-22T12:33:04Z</time>
      </trkpt>
      <trkpt lat="39.6052062884" lon="-8.5794627015">
        <ele>213.07</ele>
        <time>2018-12-22T12:33:15Z</time>
      </trkpt>
      <trkpt lat="39.6052577533" lon="-8.5795642901">
        <ele>213.55</ele>
        <time>2018-12-22T12:33:23Z</time>
      </trkpt>
      <trkpt lat="39.6052912809" lon="-8.5796882585">
        <ele>213.55</ele>
        <time>2018-12-22T12:33:31Z</time>
      </trkpt>
      <trkpt lat="39.6053330228" lon="-8.5798253864">
        <ele>214.03</ele>
        <time>2018-12-22T12:33:40Z</time>
      </trkpt>
      <trkpt lat="39.6053284965" lon="-8.5798543040">
        <ele>214.03</ele>
        <time>2018-12-22T12:33:42Z</time>
      </trkpt>
      <trkpt lat="39.6052419953" lon="-8.5799852293">
        <ele>214.99</ele>
        <time>2018-12-22T12:33:52Z</time>
      </trkpt>
      <trkpt lat="39.6051559132" lon="-8.5800697189">
        <ele>215.47</ele>
        <time>2018-12-22T12:34:00Z</time>
      </trkpt>
      <trkpt lat="39.6050778776" lon="-8.5801170766">
        <ele>214.51</ele>
        <time>2018-12-22T12:34:07Z</time>
      </trkpt>
      <trkpt lat="39.6050271671" lon="-8.5801858921">
        <ele>214.99</ele>
        <time>2018-12-22T12:34:13Z</time>
      </trkpt>
      <trkpt lat="39.6050046198" lon="-8.5803269595">
        <ele>214.99</ele>
        <time>2018-12-22T12:34:22Z</time>
      </trkpt>
      <trkpt lat="39.6050110739" lon="-8.5804689489">
        <ele>215.47</ele>
        <time>2018-12-22T12:34:31Z</time>
      </trkpt>
      <trkpt lat="39.6050099842" lon="-8.5805040691">
        <ele>215.47</ele>
        <time>2018-12-22T12:34:34Z</time>
      </trkpt>
      <trkpt lat="39.6050291788" lon="-8.5806075856">
        <ele>216.43</ele>
        <time>2018-12-22T12:34:41Z</time>
      </trkpt>
      <trkpt lat="39.6050555818" lon="-8.5807212442">
        <ele>216.43</ele>
        <time>2018-12-22T12:34:49Z</time>
      </trkpt>
      <trkpt lat="39.6050953120" lon="-8.5808196478">
        <ele>216.43</ele>
        <time>2018-12-22T12:34:56Z</time>
      </trkpt>
      <trkpt lat="39.6051272471" lon="-8.5808791593">
        <ele>217.40</ele>
        <time>2018-12-22T12:35:03Z</time>
      </trkpt>
      <trkpt lat="39.6051938832" lon="-8.5809882917">
        <ele>218.36</ele>
        <time>2018-12-22T12:35:11Z</time>
      </trkpt>
      <trkpt lat="39.6052532271" lon="-8.5810904671">
        <ele>219.80</ele>
        <time>2018-12-22T12:35:18Z</time>
      </trkpt>
      <trkpt lat="39.6052886825" lon="-8.5811673291">
        <ele>220.28</ele>
        <time>2018-12-22T12:35:24Z</time>
      </trkpt>
      <trkpt lat="39.6053422429" lon="-8.5812379885">
        <ele>221.72</ele>
        <time>2018-12-22T12:35:31Z</time>
      </trkpt>
      <trkpt lat="39.6053617727" lon="-8.5812783893">
        <ele>222.20</ele>
        <time>2018-12-22T12:35:34Z</time>
      </trkpt>
      <trkpt lat="39.6054360364" lon="-8.5813948140">
        <ele>224.12</ele>
        <time>2018-12-22T12:35:43Z</time>
      </trkpt>
      <trkpt lat="39.6055021696" lon="-8.5814841650">
        <ele>224.12</ele>
        <time>2018-12-22T12:35:51Z</time>
      </trkpt>
      <trkpt lat="39.6055625193" lon="-8.5815628711">
        <ele>225.57</ele>
        <time>2018-12-22T12:35:59Z</time>
      </trkpt>
      <trkpt lat="39.6056143194" lon="-8.5816421639">
        <ele>226.05</ele>
        <time>2018-12-22T12:36:06Z</time>
      </trkpt>
      <trkpt lat="39.6056709811" lon="-8.5817262344">
        <ele>227.01</ele>
        <time>2018-12-22T12:36:14Z</time>
      </trkpt>
      <trkpt lat="39.6057575662" lon="-8.5818502866">
        <ele>227.97</ele>
        <time>2018-12-22T12:36:24Z</time>
      </trkpt>
      <trkpt lat="39.6058190055" lon="-8.5819393862">
        <ele>228.45</ele>
        <time>2018-12-22T12:36:32Z</time>
      </trkpt>
      <trkpt lat="39.6058403794" lon="-8.5819611792">
        <ele>228.45</ele>
        <time>2018-12-22T12:36:34Z</time>
      </trkpt>
      <trkpt lat="39.6059173252" lon="-8.5820832197">
        <ele>229.41</ele>
        <time>2018-12-22T12:36:43Z</time>
      </trkpt>
      <trkpt lat="39.6059640124" lon="-8.5821668711">
        <ele>229.41</ele>
        <time>2018-12-22T12:36:50Z</time>
      </trkpt>
      <trkpt lat="39.6060202550" lon="-8.5822620895">
        <ele>229.41</ele>
        <time>2018-12-22T12:36:58Z</time>
      </trkpt>
      <trkpt lat="39.6060779225" lon="-8.5823465791">
        <ele>229.41</ele>
        <time>2018-12-22T12:37:05Z</time>
      </trkpt>
      <trkpt lat="39.6061320696" lon="-8.5824408755">
        <ele>229.89</ele>
        <time>2018-12-22T12:37:14Z</time>
      </trkpt>
      <trkpt lat="39.6061418764" lon="-8.5824714694">
        <ele>228.93</ele>
        <time>2018-12-22T12:37:21Z</time>
      </trkpt>
      <trkpt lat="39.6061108634" lon="-8.5824929271">
        <ele>230.85</ele>
        <time>2018-12-22T12:37:36Z</time>
      </trkpt>
      <trkpt lat="39.6061123721" lon="-8.5824939329">
        <ele>227.01</ele>
        <time>2018-12-22T12:37:41Z</time>
      </trkpt>
      <trkpt lat="39.6061127912" lon="-8.5824915022">
        <ele>230.37</ele>
        <time>2018-12-22T12:37:42Z</time>
      </trkpt>
      <trkpt lat="39.6061124559" lon="-8.5824917536">
        <ele>226.05</ele>
        <time>2018-12-22T12:37:43Z</time>
      </trkpt>
      <trkpt lat="39.6061116178" lon="-8.5824911669">
        <ele>231.81</ele>
        <time>2018-12-22T12:37:44Z</time>
      </trkpt>
      <trkpt lat="39.6061109472" lon="-8.5824925080">
        <ele>227.49</ele>
        <time>2018-12-22T12:37:45Z</time>
      </trkpt>
      <trkpt lat="39.6061034873" lon="-8.5824837070">
        <ele>231.81</ele>
        <time>2018-12-22T12:37:59Z</time>
      </trkpt>
      <trkpt lat="39.6061099414" lon="-8.5824830364">
        <ele>227.97</ele>
        <time>2018-12-22T12:38:05Z</time>
      </trkpt>
      <trkpt lat="39.6061142161" lon="-8.5824751575">
        <ele>227.49</ele>
        <time>2018-12-22T12:38:12Z</time>
      </trkpt>
      <trkpt lat="39.6061131265" lon="-8.5824749898">
        <ele>230.85</ele>
        <time>2018-12-22T12:38:13Z</time>
      </trkpt>
      <trkpt lat="39.6061127912" lon="-8.5824755765">
        <ele>229.41</ele>
        <time>2018-12-22T12:38:14Z</time>
      </trkpt>
      <trkpt lat="39.6061248612" lon="-8.5824682843">
        <ele>225.57</ele>
        <time>2018-12-22T12:38:20Z</time>
      </trkpt>
      <trkpt lat="39.6061267052" lon="-8.5824676976">
        <ele>231.81</ele>
        <time>2018-12-22T12:38:21Z</time>
      </trkpt>
      <trkpt lat="39.6061462350" lon="-8.5824757442">
        <ele>229.41</ele>
        <time>2018-12-22T12:38:29Z</time>
      </trkpt>
      <trkpt lat="39.6062059142" lon="-8.5825059190">
        <ele>229.89</ele>
        <time>2018-12-22T12:38:38Z</time>
      </trkpt>
      <trkpt lat="39.6062267851" lon="-8.5825182404">
        <ele>232.30</ele>
        <time>2018-12-22T12:38:40Z</time>
      </trkpt>
      <trkpt lat="39.6062404476" lon="-8.5825286340">
        <ele>228.93</ele>
        <time>2018-12-22T12:38:42Z</time>
      </trkpt>
      <trkpt lat="39.6062474884" lon="-8.5825348366">
        <ele>228.93</ele>
        <time>2018-12-22T12:38:43Z</time>
      </trkpt>
      <trkpt lat="39.6063038148" lon="-8.5825403687">
        <ele>230.85</ele>
        <time>2018-12-22T12:38:50Z</time>
      </trkpt>
      <trkpt lat="39.6063514240" lon="-8.5825095233">
        <ele>231.33</ele>
        <time>2018-12-22T12:38:57Z</time>
      </trkpt>
      <trkpt lat="39.6064225025" lon="-8.5824961122">
        <ele>232.30</ele>
        <time>2018-12-22T12:39:06Z</time>
      </trkpt>
      <trkpt lat="39.6064455528" lon="-8.5825068410">
        <ele>231.81</ele>
        <time>2018-12-22T12:39:17Z</time>
      </trkpt>
      <trkpt lat="39.6064807568" lon="-8.5824661888">
        <ele>232.78</ele>
        <time>2018-12-22T12:39:24Z</time>
      </trkpt>
      <trkpt lat="39.6064534318" lon="-8.5824298114">
        <ele>233.74</ele>
        <time>2018-12-22T12:39:34Z</time>
      </trkpt>
      <trkpt lat="39.6064965148" lon="-8.5824388638">
        <ele>234.22</ele>
        <time>2018-12-22T12:39:43Z</time>
      </trkpt>
      <trkpt lat="39.6065677609" lon="-8.5824573040">
        <ele>234.22</ele>
        <time>2018-12-22T12:39:50Z</time>
      </trkpt>
      <trkpt lat="39.6066604648" lon="-8.5825047456">
        <ele>235.66</ele>
        <time>2018-12-22T12:39:58Z</time>
      </trkpt>
      <trkpt lat="39.6067478042" lon="-8.5825264547">
        <ele>236.14</ele>
        <time>2018-12-22T12:40:06Z</time>
      </trkpt>
      <trkpt lat="39.6068338864" lon="-8.5825531930">
        <ele>236.14</ele>
        <time>2018-12-22T12:40:13Z</time>
      </trkpt>
      <trkpt lat="39.6069209743" lon="-8.5825562105">
        <ele>236.14</ele>
        <time>2018-12-22T12:40:21Z</time>
      </trkpt>
      <trkpt lat="39.6070178691" lon="-8.5825944319">
        <ele>236.62</ele>
        <time>2018-12-22T12:40:30Z</time>
      </trkpt>
      <trkpt lat="39.6070501395" lon="-8.5825955216">
        <ele>236.14</ele>
        <time>2018-12-22T12:40:33Z</time>
      </trkpt>
      <trkpt lat="39.6071429271" lon="-8.5826096870">
        <ele>235.66</ele>
        <time>2018-12-22T12:40:41Z</time>
      </trkpt>
      <trkpt lat="39.6072426718" lon="-8.5826056637">
        <ele>234.70</ele>
        <time>2018-12-22T12:40:50Z</time>
      </trkpt>
      <trkpt lat="39.6073592640" lon="-8.5826184042">
        <ele>233.26</ele>
        <time>2018-12-22T12:41:01Z</time>
      </trkpt>
      <trkpt lat="39.6074564103" lon="-8.5826506745">
        <ele>232.78</ele>
        <time>2018-12-22T12:41:10Z</time>
      </trkpt>
      <trkpt lat="39.6074874233" lon="-8.5826862976">
        <ele>231.81</ele>
        <time>2018-12-22T12:41:14Z</time>
      </trkpt>
      <trkpt lat="39.6075546462" lon="-8.5827885568">
        <ele>230.85</ele>
        <time>2018-12-22T12:41:25Z</time>
      </trkpt>
      <trkpt lat="39.6076186839" lon="-8.5829166323">
        <ele>230.37</ele>
        <time>2018-12-22T12:41:36Z</time>
      </trkpt>
      <trkpt lat="39.6077034250" lon="-8.5829702765">
        <ele>229.41</ele>
        <time>2018-12-22T12:41:44Z</time>
      </trkpt>
      <trkpt lat="39.6078227833" lon="-8.5830744635">
        <ele>228.45</ele>
        <time>2018-12-22T12:41:53Z</time>
      </trkpt>
      <trkpt lat="39.6078949515" lon="-8.5831593722">
        <ele>227.97</ele>
        <time>2018-12-22T12:42:03Z</time>
      </trkpt>
      <trkpt lat="39.6080003120" lon="-8.5832204763">
        <ele>227.01</ele>
        <time>2018-12-22T12:42:12Z</time>
      </trkpt>
      <trkpt lat="39.6081009787" lon="-8.5832799040">
        <ele>225.57</ele>
        <time>2018-12-22T12:42:21Z</time>
      </trkpt>
      <trkpt lat="39.6080720611" lon="-8.5832592007">
        <ele>225.57</ele>
        <time>2018-12-22T12:42:33Z</time>
      </trkpt>
      <trkpt lat="39.6081065945" lon="-8.5832612962">
        <ele>226.05</ele>
        <time>2018-12-22T12:42:49Z</time>
      </trkpt>
      <trkpt lat="39.6082007233" lon="-8.5833217297">
        <ele>225.57</ele>
        <time>2018-12-22T12:42:57Z</time>
      </trkpt>
      <trkpt lat="39.6082905773" lon="-8.5833732784">
        <ele>224.12</ele>
        <time>2018-12-22T12:43:05Z</time>
      </trkpt>
      <trkpt lat="39.6084085945" lon="-8.5834224802">
        <ele>224.12</ele>
        <time>2018-12-22T12:43:14Z</time>
      </trkpt>
      <trkpt lat="39.6084332373" lon="-8.5834037885">
        <ele>223.64</ele>
        <time>2018-12-22T12:43:22Z</time>
      </trkpt>
      <trkpt lat="39.6084550302" lon="-8.5834090691">
        <ele>223.64</ele>
        <time>2018-12-22T12:43:34Z</time>
      </trkpt>
      <trkpt lat="39.6086164657" lon="-8.5834648088">
        <ele>223.16</ele>
        <time>2018-12-22T12:43:46Z</time>
      </trkpt>
      <trkpt lat="39.6086276136" lon="-8.5834706761">
        <ele>223.16</ele>
        <time>2018-12-22T12:43:47Z</time>
      </trkpt>
      <trkpt lat="39.6087368298" lon="-8.5835414194">
        <ele>223.16</ele>
        <time>2018-12-22T12:43:56Z</time>
      </trkpt>
      <trkpt lat="39.6088378318" lon="-8.5836428404">
        <ele>221.72</ele>
        <time>2018-12-22T12:44:07Z</time>
      </trkpt>
      <trkpt lat="39.6088915598" lon="-8.5837504640">
        <ele>221.72</ele>
        <time>2018-12-22T12:44:16Z</time>
      </trkpt>
      <trkpt lat="39.6089681704" lon="-8.5838588420">
        <ele>220.76</ele>
        <time>2018-12-22T12:44:25Z</time>
      </trkpt>
      <trkpt lat="39.6090420987" lon="-8.5839590058">
        <ele>220.76</ele>
        <time>2018-12-22T12:44:34Z</time>
      </trkpt>
      <trkpt lat="39.6090921387" lon="-8.5840807948">
        <ele>220.76</ele>
        <time>2018-12-22T12:44:43Z</time>
      </trkpt>
      <trkpt lat="39.6091659833" lon="-8.5842017457">
        <ele>218.84</ele>
        <time>2018-12-22T12:44:51Z</time>
      </trkpt>
      <trkpt lat="39.6092467010" lon="-8.5843209364">
        <ele>218.84</ele>
        <time>2018-12-22T12:45:01Z</time>
      </trkpt>
      <trkpt lat="39.6093152650" lon="-8.5844403785">
        <ele>218.36</ele>
        <time>2018-12-22T12:45:11Z</time>
      </trkpt>
      <trkpt lat="39.6093638800" lon="-8.5845309030">
        <ele>217.88</ele>
        <time>2018-12-22T12:45:19Z</time>
      </trkpt>
      <trkpt lat="39.6094536502" lon="-8.5846481659">
        <ele>217.88</ele>
        <time>2018-12-22T12:45:29Z</time>
      </trkpt>
      <trkpt lat="39.6095174365" lon="-8.5846940987">
        <ele>217.40</ele>
        <time>2018-12-22T12:45:36Z</time>
      </trkpt>
      <trkpt lat="39.6095947176" lon="-8.5847284645">
        <ele>217.88</ele>
        <time>2018-12-22T12:45:41Z</time>
      </trkpt>
      <trkpt lat="39.6096619405" lon="-8.5847325716">
        <ele>217.40</ele>
        <time>2018-12-22T12:45:49Z</time>
      </trkpt>
      <trkpt lat="39.6097331867" lon="-8.5847365111">
        <ele>217.88</ele>
        <time>2018-12-22T12:45:58Z</time>
      </trkpt>
      <trkpt lat="39.6098227892" lon="-8.5847334936">
        <ele>217.40</ele>
        <time>2018-12-22T12:46:06Z</time>
      </trkpt>
      <trkpt lat="39.6099206898" lon="-8.5847163945">
        <ele>217.40</ele>
        <time>2018-12-22T12:46:15Z</time>
      </trkpt>
      <trkpt lat="39.6100183390" lon="-8.5847163107">
        <ele>217.40</ele>
        <time>2018-12-22T12:46:23Z</time>
      </trkpt>
      <trkpt lat="39.6101093665" lon="-8.5847362597">
        <ele>217.40</ele>
        <time>2018-12-22T12:46:31Z</time>
      </trkpt>
      <trkpt lat="39.6102349274" lon="-8.5847457312">
        <ele>217.40</ele>
        <time>2018-12-22T12:46:41Z</time>
      </trkpt>
      <trkpt lat="39.6102744900" lon="-8.5847464018">
        <ele>217.40</ele>
        <time>2018-12-22T12:46:48Z</time>
      </trkpt>
      <trkpt lat="39.6103706304" lon="-8.5847785044">
        <ele>216.43</ele>
        <time>2018-12-22T12:46:56Z</time>
      </trkpt>
      <trkpt lat="39.6104719676" lon="-8.5848300532">
        <ele>216.91</ele>
        <time>2018-12-22T12:47:05Z</time>
      </trkpt>
      <trkpt lat="39.6106119454" lon="-8.5848415364">
        <ele>217.40</ele>
        <time>2018-12-22T12:47:16Z</time>
      </trkpt>
      <trkpt lat="39.6107350755" lon="-8.5848722141">
        <ele>217.40</ele>
        <time>2018-12-22T12:47:26Z</time>
      </trkpt>
      <trkpt lat="39.6108517516" lon="-8.5848895647">
        <ele>216.91</ele>
        <time>2018-12-22T12:47:36Z</time>
      </trkpt>
      <trkpt lat="39.6108862851" lon="-8.5849056579">
        <ele>217.88</ele>
        <time>2018-12-22T12:47:44Z</time>
      </trkpt>
      <trkpt lat="39.6108983550" lon="-8.5849143751">
        <ele>216.91</ele>
        <time>2018-12-22T12:47:45Z</time>
      </trkpt>
      <trkpt lat="39.6109603811" lon="-8.5849844478">
        <ele>216.91</ele>
        <time>2018-12-22T12:47:51Z</time>
      </trkpt>
      <trkpt lat="39.6109877061" lon="-8.5851147026">
        <ele>216.43</ele>
        <time>2018-12-22T12:47:59Z</time>
      </trkpt>
      <trkpt lat="39.6109679248" lon="-8.5851883795">
        <ele>215.95</ele>
        <time>2018-12-22T12:48:04Z</time>
      </trkpt>
      <trkpt lat="39.6109825931" lon="-8.5853505693">
        <ele>216.43</ele>
        <time>2018-12-22T12:48:13Z</time>
      </trkpt>
      <trkpt lat="39.6109339781" lon="-8.5854434408">
        <ele>217.40</ele>
        <time>2018-12-22T12:48:19Z</time>
      </trkpt>
      <trkpt lat="39.6108866204" lon="-8.5855987575">
        <ele>216.43</ele>
        <time>2018-12-22T12:48:30Z</time>
      </trkpt>
      <trkpt lat="39.6108525898" lon="-8.5857544933">
        <ele>216.91</ele>
        <time>2018-12-22T12:48:40Z</time>
      </trkpt>
      <trkpt lat="39.6108199842" lon="-8.5858716723">
        <ele>216.43</ele>
        <time>2018-12-22T12:48:48Z</time>
      </trkpt>
      <trkpt lat="39.6107872110" lon="-8.5860274918">
        <ele>216.43</ele>
        <time>2018-12-22T12:48:58Z</time>
      </trkpt>
      <trkpt lat="39.6107610594" lon="-8.5860949662">
        <ele>216.91</ele>
        <time>2018-12-22T12:49:03Z</time>
      </trkpt>
      <trkpt lat="39.6107532643" lon="-8.5861885920">
        <ele>217.40</ele>
        <time>2018-12-22T12:49:09Z</time>
      </trkpt>
      <trkpt lat="39.6107268613" lon="-8.5863501951">
        <ele>216.91</ele>
        <time>2018-12-22T12:49:19Z</time>
      </trkpt>
      <trkpt lat="39.6107261069" lon="-8.5864387080">
        <ele>216.91</ele>
        <time>2018-12-22T12:49:25Z</time>
      </trkpt>
      <trkpt lat="39.6107142884" lon="-8.5865172464">
        <ele>216.91</ele>
        <time>2018-12-22T12:49:30Z</time>
      </trkpt>
      <trkpt lat="39.6107153781" lon="-8.5865660291">
        <ele>216.43</ele>
        <time>2018-12-22T12:49:33Z</time>
      </trkpt>
      <trkpt lat="39.6106943395" lon="-8.5866900813">
        <ele>215.95</ele>
        <time>2018-12-22T12:49:41Z</time>
      </trkpt>
      <trkpt lat="39.6107249334" lon="-8.5868262034">
        <ele>216.43</ele>
        <time>2018-12-22T12:49:49Z</time>
      </trkpt>
      <trkpt lat="39.6107194852" lon="-8.5869440529">
        <ele>216.43</ele>
        <time>2018-12-22T12:49:56Z</time>
      </trkpt>
      <trkpt lat="39.6107148752" lon="-8.5870243516">
        <ele>216.91</ele>
        <time>2018-12-22T12:50:01Z</time>
      </trkpt>
      <trkpt lat="39.6107396018" lon="-8.5871880502">
        <ele>216.43</ele>
        <time>2018-12-22T12:50:11Z</time>
      </trkpt>
      <trkpt lat="39.6107106842" lon="-8.5873489827">
        <ele>217.40</ele>
        <time>2018-12-22T12:50:21Z</time>
      </trkpt>
      <trkpt lat="39.6106938366" lon="-8.5874247551">
        <ele>217.40</ele>
        <time>2018-12-22T12:50:26Z</time>
      </trkpt>
      <trkpt lat="39.6107053198" lon="-8.5875664931">
        <ele>217.88</ele>
        <time>2018-12-22T12:50:34Z</time>
      </trkpt>
      <trkpt lat="39.6106890589" lon="-8.5876067262">
        <ele>217.40</ele>
        <time>2018-12-22T12:50:37Z</time>
      </trkpt>
      <trkpt lat="39.6106861252" lon="-8.5877415072">
        <ele>217.40</ele>
        <time>2018-12-22T12:50:45Z</time>
      </trkpt>
      <trkpt lat="39.6106857061" lon="-8.5878080595">
        <ele>217.40</ele>
        <time>2018-12-22T12:50:49Z</time>
      </trkpt>
      <trkpt lat="39.6107007097" lon="-8.5879065469">
        <ele>217.88</ele>
        <time>2018-12-22T12:50:55Z</time>
      </trkpt>
      <trkpt lat="39.6106904838" lon="-8.5880434234">
        <ele>217.88</ele>
        <time>2018-12-22T12:51:04Z</time>
      </trkpt>
      <trkpt lat="39.6106924955" lon="-8.5880714189">
        <ele>217.88</ele>
        <time>2018-12-22T12:51:11Z</time>
      </trkpt>
      <trkpt lat="39.6107245982" lon="-8.5880279168">
        <ele>217.40</ele>
        <time>2018-12-22T12:51:28Z</time>
      </trkpt>
      <trkpt lat="39.6107247658" lon="-8.5880583432">
        <ele>217.88</ele>
        <time>2018-12-22T12:51:39Z</time>
      </trkpt>
      <trkpt lat="39.6106596384" lon="-8.5881828982">
        <ele>217.40</ele>
        <time>2018-12-22T12:51:47Z</time>
      </trkpt>
      <trkpt lat="39.6106629912" lon="-8.5882221255">
        <ele>217.40</ele>
        <time>2018-12-22T12:51:49Z</time>
      </trkpt>
      <trkpt lat="39.6106241830" lon="-8.5883275699">
        <ele>217.88</ele>
        <time>2018-12-22T12:51:55Z</time>
      </trkpt>
      <trkpt lat="39.6105925832" lon="-8.5884300806">
        <ele>217.40</ele>
        <time>2018-12-22T12:52:01Z</time>
      </trkpt>
      <trkpt lat="39.6105544455" lon="-8.5885621794">
        <ele>217.40</ele>
        <time>2018-12-22T12:52:10Z</time>
      </trkpt>
      <trkpt lat="39.6105467342" lon="-8.5886910092">
        <ele>218.36</ele>
        <time>2018-12-22T12:52:17Z</time>
      </trkpt>
      <trkpt lat="39.6105149668" lon="-8.5888153967">
        <ele>217.88</ele>
        <time>2018-12-22T12:52:25Z</time>
      </trkpt>
      <trkpt lat="39.6104694530" lon="-8.5889721382">
        <ele>218.36</ele>
        <time>2018-12-22T12:52:35Z</time>
      </trkpt>
      <trkpt lat="39.6104512643" lon="-8.5891276225">
        <ele>218.36</ele>
        <time>2018-12-22T12:52:45Z</time>
      </trkpt>
      <trkpt lat="39.6104193293" lon="-8.5892788321">
        <ele>217.88</ele>
        <time>2018-12-22T12:52:55Z</time>
      </trkpt>
      <trkpt lat="39.6104015596" lon="-8.5893690214">
        <ele>217.88</ele>
        <time>2018-12-22T12:53:01Z</time>
      </trkpt>
      <trkpt lat="39.6104054991" lon="-8.5894623958">
        <ele>217.88</ele>
        <time>2018-12-22T12:53:07Z</time>
      </trkpt>
      <trkpt lat="39.6103635896" lon="-8.5896365717">
        <ele>218.36</ele>
        <time>2018-12-22T12:53:17Z</time>
      </trkpt>
      <trkpt lat="39.6103293914" lon="-8.5897575226">
        <ele>219.32</ele>
        <time>2018-12-22T12:53:26Z</time>
      </trkpt>
      <trkpt lat="39.6102804411" lon="-8.5899220593">
        <ele>219.32</ele>
        <time>2018-12-22T12:53:36Z</time>
      </trkpt>
      <trkpt lat="39.6102860570" lon="-8.5900458600">
        <ele>219.80</ele>
        <time>2018-12-22T12:53:43Z</time>
      </trkpt>
      <trkpt lat="39.6102164034" lon="-8.5901839100">
        <ele>219.32</ele>
        <time>2018-12-22T12:53:53Z</time>
      </trkpt>
      <trkpt lat="39.6101606637" lon="-8.5903595109">
        <ele>219.32</ele>
        <time>2018-12-22T12:54:04Z</time>
      </trkpt>
      <trkpt lat="39.6101347636" lon="-8.5905299988">
        <ele>219.80</ele>
        <time>2018-12-22T12:54:14Z</time>
      </trkpt>
      <trkpt lat="39.6100960393" lon="-8.5906630196">
        <ele>219.80</ele>
        <time>2018-12-22T12:54:23Z</time>
      </trkpt>
      <trkpt lat="39.6100273076" lon="-8.5908527020">
        <ele>219.32</ele>
        <time>2018-12-22T12:54:35Z</time>
      </trkpt>
      <trkpt lat="39.6099810395" lon="-8.5910029896">
        <ele>219.80</ele>
        <time>2018-12-22T12:54:45Z</time>
      </trkpt>
      <trkpt lat="39.6099323407" lon="-8.5911298078">
        <ele>219.80</ele>
        <time>2018-12-22T12:54:53Z</time>
      </trkpt>
      <trkpt lat="39.6098838933" lon="-8.5913145449">
        <ele>218.84</ele>
        <time>2018-12-22T12:55:04Z</time>
      </trkpt>
      <trkpt lat="39.6098945383" lon="-8.5914385971">
        <ele>218.84</ele>
        <time>2018-12-22T12:55:11Z</time>
      </trkpt>
      <trkpt lat="39.6098734159" lon="-8.5915613081">
        <ele>219.32</ele>
        <time>2018-12-22T12:55:19Z</time>
      </trkpt>
      <trkpt lat="39.6098618489" lon="-8.5917340592">
        <ele>218.84</ele>
        <time>2018-12-22T12:55:29Z</time>
      </trkpt>
      <trkpt lat="39.6098883357" lon="-8.5918906331">
        <ele>218.84</ele>
        <time>2018-12-22T12:55:39Z</time>
      </trkpt>
      <trkpt lat="39.6099303290" lon="-8.5920684133">
        <ele>218.84</ele>
        <time>2018-12-22T12:55:50Z</time>
      </trkpt>
      <trkpt lat="39.6099626832" lon="-8.5922121629">
        <ele>219.32</ele>
        <time>2018-12-22T12:55:59Z</time>
      </trkpt>
      <trkpt lat="39.6100160759" lon="-8.5923726764">
        <ele>219.32</ele>
        <time>2018-12-22T12:56:10Z</time>
      </trkpt>
      <trkpt lat="39.6100942791" lon="-8.5925850738">
        <ele>218.84</ele>
        <time>2018-12-22T12:56:22Z</time>
      </trkpt>
      <trkpt lat="39.6101063490" lon="-8.5927118920">
        <ele>218.84</ele>
        <time>2018-12-22T12:56:30Z</time>
      </trkpt>
      <trkpt lat="39.6101492643" lon="-8.5928379558">
        <ele>218.84</ele>
        <time>2018-12-22T12:56:39Z</time>
      </trkpt>
      <trkpt lat="39.6101520304" lon="-8.5928659514">
        <ele>219.32</ele>
        <time>2018-12-22T12:56:41Z</time>
      </trkpt>
      <trkpt lat="39.6102011483" lon="-8.5930609144">
        <ele>219.32</ele>
        <time>2018-12-22T12:56:52Z</time>
      </trkpt>
      <trkpt lat="39.6102243662" lon="-8.5932297260">
        <ele>218.84</ele>
        <time>2018-12-22T12:57:03Z</time>
      </trkpt>
      <trkpt lat="39.6102887392" lon="-8.5934040695">
        <ele>218.84</ele>
        <time>2018-12-22T12:57:15Z</time>
      </trkpt>
      <trkpt lat="39.6103548724" lon="-8.5935808439">
        <ele>219.32</ele>
        <time>2018-12-22T12:57:25Z</time>
      </trkpt>
      <trkpt lat="39.6103805210" lon="-8.5937426984">
        <ele>219.32</ele>
        <time>2018-12-22T12:57:35Z</time>
      </trkpt>
      <trkpt lat="39.6104228497" lon="-8.5938837659">
        <ele>219.80</ele>
        <time>2018-12-22T12:57:45Z</time>
      </trkpt>
      <trkpt lat="39.6104786731" lon="-8.5940266773">
        <ele>219.80</ele>
        <time>2018-12-22T12:57:54Z</time>
      </trkpt>
      <trkpt lat="39.6105370950" lon="-8.5942208022">
        <ele>220.76</ele>
        <time>2018-12-22T12:58:06Z</time>
      </trkpt>
      <trkpt lat="39.6105785016" lon="-8.5943778791">
        <ele>220.76</ele>
        <time>2018-12-22T12:58:16Z</time>
      </trkpt>
      <trkpt lat="39.6105956007" lon="-8.5945422482">
        <ele>220.76</ele>
        <time>2018-12-22T12:58:26Z</time>
      </trkpt>
      <trkpt lat="39.6106395219" lon="-8.5947119817">
        <ele>220.28</ele>
        <time>2018-12-22T12:58:37Z</time>
      </trkpt>
      <trkpt lat="39.6106755640" lon="-8.5948527139">
        <ele>221.24</ele>
        <time>2018-12-22T12:58:46Z</time>
      </trkpt>
      <trkpt lat="39.6106790844" lon="-8.5948696453">
        <ele>221.24</ele>
        <time>2018-12-22T12:58:47Z</time>
      </trkpt>
      <trkpt lat="39.6106852032" lon="-8.5949070286">
        <ele>220.76</ele>
        <time>2018-12-22T12:58:50Z</time>
      </trkpt>
      <trkpt lat="39.6107370872" lon="-8.5950704757">
        <ele>221.72</ele>
        <time>2018-12-22T12:59:01Z</time>
      </trkpt>
      <trkpt lat="39.6107819304" lon="-8.5951925162">
        <ele>221.24</ele>
        <time>2018-12-22T12:59:09Z</time>
      </trkpt>
      <trkpt lat="39.6108457167" lon="-8.5953586455">
        <ele>221.72</ele>
        <time>2018-12-22T12:59:20Z</time>
      </trkpt>
      <trkpt lat="39.6108605526" lon="-8.5954855476">
        <ele>221.72</ele>
        <time>2018-12-22T12:59:28Z</time>
      </trkpt>
      <trkpt lat="39.6109027136" lon="-8.5956313089">
        <ele>222.20</ele>
        <time>2018-12-22T12:59:38Z</time>
      </trkpt>
      <trkpt lat="39.6109478921" lon="-8.5957566183">
        <ele>221.72</ele>
        <time>2018-12-22T12:59:47Z</time>
      </trkpt>
      <trkpt lat="39.6109759714" lon="-8.5958750546">
        <ele>221.72</ele>
        <time>2018-12-22T12:59:55Z</time>
      </trkpt>
      <trkpt lat="39.6109983511" lon="-8.5959605500">
        <ele>222.20</ele>
        <time>2018-12-22T13:00:01Z</time>
      </trkpt>
      <trkpt lat="39.6110280231" lon="-8.5960624740">
        <ele>222.68</ele>
        <time>2018-12-22T13:00:08Z</time>
      </trkpt>
      <trkpt lat="39.6110461280" lon="-8.5961370729">
        <ele>223.16</ele>
        <time>2018-12-22T13:00:13Z</time>
      </trkpt>
      <trkpt lat="39.6110536717" lon="-8.5962083191">
        <ele>223.16</ele>
        <time>2018-12-22T13:00:18Z</time>
      </trkpt>
      <trkpt lat="39.6110866964" lon="-8.5963342153">
        <ele>223.16</ele>
        <time>2018-12-22T13:00:26Z</time>
      </trkpt>
      <trkpt lat="39.6111212298" lon="-8.5964650568">
        <ele>223.64</ele>
        <time>2018-12-22T13:00:35Z</time>
      </trkpt>
      <trkpt lat="39.6111385804" lon="-8.5965812299">
        <ele>224.12</ele>
        <time>2018-12-22T13:00:43Z</time>
      </trkpt>
      <trkpt lat="39.6111818310" lon="-8.5967481975">
        <ele>225.09</ele>
        <time>2018-12-22T13:00:54Z</time>
      </trkpt>
      <trkpt lat="39.6112199686" lon="-8.5968693160">
        <ele>225.09</ele>
        <time>2018-12-22T13:01:02Z</time>
      </trkpt>
      <trkpt lat="39.6112339664" lon="-8.5969260614">
        <ele>225.09</ele>
        <time>2018-12-22T13:01:06Z</time>
      </trkpt>
      <trkpt lat="39.6112594474" lon="-8.5970564838">
        <ele>225.57</ele>
        <time>2018-12-22T13:01:15Z</time>
      </trkpt>
      <trkpt lat="39.6112792287" lon="-8.5971773509">
        <ele>226.05</ele>
        <time>2018-12-22T13:01:23Z</time>
      </trkpt>
      <trkpt lat="39.6113033686" lon="-8.5972858127">
        <ele>226.53</ele>
        <time>2018-12-22T13:01:31Z</time>
      </trkpt>
      <trkpt lat="39.6113059670" lon="-8.5972838849">
        <ele>227.01</ele>
        <time>2018-12-22T13:01:37Z</time>
      </trkpt>
      <trkpt lat="39.6113094036" lon="-8.5973594058">
        <ele>227.01</ele>
        <time>2018-12-22T13:01:43Z</time>
      </trkpt>
      <trkpt lat="39.6113155223" lon="-8.5974179115">
        <ele>227.49</ele>
        <time>2018-12-22T13:01:47Z</time>
      </trkpt>
      <trkpt lat="39.6113037039" lon="-8.5974810272">
        <ele>227.97</ele>
        <time>2018-12-22T13:01:51Z</time>
      </trkpt>
      <trkpt lat="39.6113143489" lon="-8.5975863878">
        <ele>228.45</ele>
        <time>2018-12-22T13:01:57Z</time>
      </trkpt>
      <trkpt lat="39.6113033686" lon="-8.5976989567">
        <ele>228.93</ele>
        <time>2018-12-22T13:02:04Z</time>
      </trkpt>
      <trkpt lat="39.6113083139" lon="-8.5977692809">
        <ele>229.41</ele>
        <time>2018-12-22T13:02:09Z</time>
      </trkpt>
      <trkpt lat="39.6113131754" lon="-8.5979110189">
        <ele>229.89</ele>
        <time>2018-12-22T13:02:19Z</time>
      </trkpt>
      <trkpt lat="39.6113026142" lon="-8.5980007052">
        <ele>230.85</ele>
        <time>2018-12-22T13:02:26Z</time>
      </trkpt>
      <trkpt lat="39.6113047935" lon="-8.5981141962">
        <ele>231.81</ele>
        <time>2018-12-22T13:02:33Z</time>
      </trkpt>
      <trkpt lat="39.6113176178" lon="-8.5981795751">
        <ele>231.81</ele>
        <time>2018-12-22T13:02:37Z</time>
      </trkpt>
      <trkpt lat="39.6113140136" lon="-8.5982140247">
        <ele>231.81</ele>
        <time>2018-12-22T13:02:39Z</time>
      </trkpt>
      <trkpt lat="39.6113055479" lon="-8.5983389150">
        <ele>232.78</ele>
        <time>2018-12-22T13:02:47Z</time>
      </trkpt>
      <trkpt lat="39.6113101579" lon="-8.5983785614">
        <ele>232.78</ele>
        <time>2018-12-22T13:02:50Z</time>
      </trkpt>
      <trkpt lat="39.6112969983" lon="-8.5984858498">
        <ele>233.74</ele>
        <time>2018-12-22T13:02:57Z</time>
      </trkpt>
      <trkpt lat="39.6113083977" lon="-8.5986548290">
        <ele>233.74</ele>
        <time>2018-12-22T13:03:07Z</time>
      </trkpt>
      <trkpt lat="39.6113011893" lon="-8.5988156777">
        <ele>234.70</ele>
        <time>2018-12-22T13:03:17Z</time>
      </trkpt>
      <trkpt lat="39.6112934779" lon="-8.5989821423">
        <ele>235.66</ele>
        <time>2018-12-22T13:03:27Z</time>
      </trkpt>
      <trkpt lat="39.6113078110" lon="-8.5991292447">
        <ele>235.66</ele>
        <time>2018-12-22T13:03:36Z</time>
      </trkpt>
      <trkpt lat="39.6113112476" lon="-8.5991633590">
        <ele>235.18</ele>
        <time>2018-12-22T13:03:38Z</time>
      </trkpt>
      <trkpt lat="39.6112907957" lon="-8.5992650315">
        <ele>235.18</ele>
        <time>2018-12-22T13:03:44Z</time>
      </trkpt>
      <trkpt lat="39.6112837549" lon="-8.5994597431">
        <ele>235.18</ele>
        <time>2018-12-22T13:03:56Z</time>
      </trkpt>
      <trkpt lat="39.6112896223" lon="-8.5996011458">
        <ele>235.66</ele>
        <time>2018-12-22T13:04:04Z</time>
      </trkpt>
      <trkpt lat="39.6113024466" lon="-8.5998032335">
        <ele>235.66</ele>
        <time>2018-12-22T13:04:17Z</time>
      </trkpt>
      <trkpt lat="39.6113380697" lon="-8.5999525990">
        <ele>235.18</ele>
        <time>2018-12-22T13:04:27Z</time>
      </trkpt>
      <trkpt lat="39.6113914624" lon="-8.6000719573">
        <ele>234.22</ele>
        <time>2018-12-22T13:04:37Z</time>
      </trkpt>
      <trkpt lat="39.6114467829" lon="-8.6001976021">
        <ele>233.74</ele>
        <time>2018-12-22T13:04:46Z</time>
      </trkpt>
      <trkpt lat="39.6114487946" lon="-8.6002116837">
        <ele>233.74</ele>
        <time>2018-12-22T13:04:47Z</time>
      </trkpt>
      <trkpt lat="39.6114656422" lon="-8.6002932396">
        <ele>233.26</ele>
        <time>2018-12-22T13:04:52Z</time>
      </trkpt>
      <trkpt lat="39.6115229744" lon="-8.6004074011">
        <ele>233.26</ele>
        <time>2018-12-22T13:04:59Z</time>
      </trkpt>
      <trkpt lat="39.6115285903" lon="-8.6004254222">
        <ele>233.26</ele>
        <time>2018-12-22T13:05:00Z</time>
      </trkpt>
      <trkpt lat="39.6115627047" lon="-8.6005922221">
        <ele>232.78</ele>
        <time>2018-12-22T13:05:11Z</time>
      </trkpt>
      <trkpt lat="39.6115782112" lon="-8.6007673200">
        <ele>233.26</ele>
        <time>2018-12-22T13:05:21Z</time>
      </trkpt>
      <trkpt lat="39.6116195340" lon="-8.6009123269">
        <ele>232.78</ele>
        <time>2018-12-22T13:05:30Z</time>
      </trkpt>
      <trkpt lat="39.6116753574" lon="-8.6011548154">
        <ele>233.26</ele>
        <time>2018-12-22T13:05:44Z</time>
      </trkpt>
      <trkpt lat="39.6116922889" lon="-8.6013153289">
        <ele>233.74</ele>
        <time>2018-12-22T13:05:54Z</time>
      </trkpt>
      <trkpt lat="39.6117116511" lon="-8.6014875770">
        <ele>232.78</ele>
        <time>2018-12-22T13:06:05Z</time>
      </trkpt>
      <trkpt lat="39.6117227990" lon="-8.6016397923">
        <ele>233.26</ele>
        <time>2018-12-22T13:06:15Z</time>
      </trkpt>
      <trkpt lat="39.6117391437" lon="-8.6017650180">
        <ele>234.22</ele>
        <time>2018-12-22T13:06:24Z</time>
      </trkpt>
      <trkpt lat="39.6117550693" lon="-8.6018625833">
        <ele>233.74</ele>
        <time>2018-12-22T13:06:30Z</time>
      </trkpt>
      <trkpt lat="39.6117553208" lon="-8.6018904950">
        <ele>234.70</ele>
        <time>2018-12-22T13:06:32Z</time>
      </trkpt>
      <trkpt lat="39.6118083782" lon="-8.6020899005">
        <ele>234.70</ele>
        <time>2018-12-22T13:06:44Z</time>
      </trkpt>
      <trkpt lat="39.6118417382" lon="-8.6022961792">
        <ele>234.70</ele>
        <time>2018-12-22T13:06:56Z</time>
      </trkpt>
      <trkpt lat="39.6118582506" lon="-8.6024536751">
        <ele>234.70</ele>
        <time>2018-12-22T13:07:06Z</time>
      </trkpt>
      <trkpt lat="39.6118999086" lon="-8.6025835946">
        <ele>235.18</ele>
        <time>2018-12-22T13:07:14Z</time>
      </trkpt>
      <trkpt lat="39.6119097155" lon="-8.6027394142">
        <ele>235.66</ele>
        <time>2018-12-22T13:07:23Z</time>
      </trkpt>
      <trkpt lat="39.6119316760" lon="-8.6028933898">
        <ele>235.66</ele>
        <time>2018-12-22T13:07:33Z</time>
      </trkpt>
      <trkpt lat="39.6119604260" lon="-8.6029926315">
        <ele>236.14</ele>
        <time>2018-12-22T13:07:39Z</time>
      </trkpt>
      <trkpt lat="39.6119576599" lon="-8.6031093914">
        <ele>236.14</ele>
        <time>2018-12-22T13:07:48Z</time>
      </trkpt>
      <trkpt lat="39.6119872481" lon="-8.6031159293">
        <ele>236.62</ele>
        <time>2018-12-22T13:08:01Z</time>
      </trkpt>
      <trkpt lat="39.6119893435" lon="-8.6032328568">
        <ele>236.62</ele>
        <time>2018-12-22T13:08:09Z</time>
      </trkpt>
      <trkpt lat="39.6120139863" lon="-8.6033921130">
        <ele>236.62</ele>
        <time>2018-12-22T13:08:20Z</time>
      </trkpt>
      <trkpt lat="39.6120530460" lon="-8.6035207752">
        <ele>237.10</ele>
        <time>2018-12-22T13:08:29Z</time>
      </trkpt>
      <trkpt lat="39.6121100429" lon="-8.6036221962">
        <ele>237.58</ele>
        <time>2018-12-22T13:08:37Z</time>
      </trkpt>
      <trkpt lat="39.6121794451" lon="-8.6036912631">
        <ele>237.58</ele>
        <time>2018-12-22T13:08:44Z</time>
      </trkpt>
      <trkpt lat="39.6122372802" lon="-8.6037165765">
        <ele>237.58</ele>
        <time>2018-12-22T13:08:50Z</time>
      </trkpt>
      <trkpt lat="39.6123258770" lon="-8.6037583183">
        <ele>236.62</ele>
        <time>2018-12-22T13:08:58Z</time>
      </trkpt>
      <trkpt lat="39.6123692952" lon="-8.6037884094">
        <ele>237.58</ele>
        <time>2018-12-22T13:09:04Z</time>
      </trkpt>
      <trkpt lat="39.6124231070" lon="-8.6038335878">
        <ele>236.14</ele>
        <time>2018-12-22T13:09:11Z</time>
      </trkpt>
      <trkpt lat="39.6124914195" lon="-8.6038972065">
        <ele>236.14</ele>
        <time>2018-12-22T13:09:18Z</time>
      </trkpt>
      <trkpt lat="39.6125722211" lon="-8.6039727274">
        <ele>235.66</ele>
        <time>2018-12-22T13:09:26Z</time>
      </trkpt>
      <trkpt lat="39.6126103587" lon="-8.6040308978">
        <ele>235.18</ele>
        <time>2018-12-22T13:09:34Z</time>
      </trkpt>
      <trkpt lat="39.6126298886" lon="-8.6040762439">
        <ele>236.14</ele>
        <time>2018-12-22T13:09:39Z</time>
      </trkpt>
      <trkpt lat="39.6126438025" lon="-8.6041617393">
        <ele>235.18</ele>
        <time>2018-12-22T13:09:45Z</time>
      </trkpt>
      <trkpt lat="39.6126663499" lon="-8.6042245198">
        <ele>235.18</ele>
        <time>2018-12-22T13:09:49Z</time>
      </trkpt>
      <trkpt lat="39.6127124503" lon="-8.6043152120">
        <ele>235.18</ele>
        <time>2018-12-22T13:09:56Z</time>
      </trkpt>
      <trkpt lat="39.6127181500" lon="-8.6043413635">
        <ele>236.14</ele>
        <time>2018-12-22T13:09:58Z</time>
      </trkpt>
      <trkpt lat="39.6127758175" lon="-8.6044580396">
        <ele>235.66</ele>
        <time>2018-12-22T13:10:06Z</time>
      </trkpt>
      <trkpt lat="39.6129018813" lon="-8.6045962572">
        <ele>235.66</ele>
        <time>2018-12-22T13:10:18Z</time>
      </trkpt>
      <trkpt lat="39.6129353251" lon="-8.6046426930">
        <ele>235.66</ele>
        <time>2018-12-22T13:10:22Z</time>
      </trkpt>
      <trkpt lat="39.6129556093" lon="-8.6047242489">
        <ele>236.14</ele>
        <time>2018-12-22T13:10:27Z</time>
      </trkpt>
      <trkpt lat="39.6129732113" lon="-8.6047821678">
        <ele>236.14</ele>
        <time>2018-12-22T13:10:31Z</time>
      </trkpt>
      <trkpt lat="39.6130113490" lon="-8.6049374007">
        <ele>234.70</ele>
        <time>2018-12-22T13:10:41Z</time>
      </trkpt>
      <trkpt lat="39.6130378358" lon="-8.6050592735">
        <ele>235.18</ele>
        <time>2018-12-22T13:10:49Z</time>
      </trkpt>
      <trkpt lat="39.6130481455" lon="-8.6050731875">
        <ele>234.70</ele>
        <time>2018-12-22T13:10:50Z</time>
      </trkpt>
      <trkpt lat="39.6131018735" lon="-8.6050826591">
        <ele>234.22</ele>
        <time>2018-12-22T13:10:58Z</time>
      </trkpt>
      <trkpt lat="39.6131255105" lon="-8.6050808150">
        <ele>235.66</ele>
        <time>2018-12-22T13:11:05Z</time>
      </trkpt>
      <trkpt lat="39.6132198907" lon="-8.6051060446">
        <ele>234.22</ele>
        <time>2018-12-22T13:11:13Z</time>
      </trkpt>
      <trkpt lat="39.6132343076" lon="-8.6051363032">
        <ele>234.22</ele>
        <time>2018-12-22T13:11:15Z</time>
      </trkpt>
      <trkpt lat="39.6132592019" lon="-8.6053189449">
        <ele>234.22</ele>
        <time>2018-12-22T13:11:26Z</time>
      </trkpt>
      <trkpt lat="39.6132913046" lon="-8.6054523010">
        <ele>234.22</ele>
        <time>2018-12-22T13:11:34Z</time>
      </trkpt>
      <trkpt lat="39.6133148577" lon="-8.6055867467">
        <ele>234.70</ele>
        <time>2018-12-22T13:11:42Z</time>
      </trkpt>
      <trkpt lat="39.6133587789" lon="-8.6057185940">
        <ele>234.22</ele>
        <time>2018-12-22T13:11:50Z</time>
      </trkpt>
      <trkpt lat="39.6133716032" lon="-8.6057979707">
        <ele>234.22</ele>
        <time>2018-12-22T13:11:56Z</time>
      </trkpt>
      <trkpt lat="39.6133961622" lon="-8.6058957875">
        <ele>234.22</ele>
        <time>2018-12-22T13:12:02Z</time>
      </trkpt>
      <trkpt lat="39.6134154405" lon="-8.6060358491">
        <ele>235.66</ele>
        <time>2018-12-22T13:12:11Z</time>
      </trkpt>
      <trkpt lat="39.6134383231" lon="-8.6061654333">
        <ele>231.81</ele>
        <time>2018-12-22T13:12:20Z</time>
      </trkpt>
      <trkpt lat="39.6134179551" lon="-8.6061619129">
        <ele>238.06</ele>
        <time>2018-12-22T13:12:21Z</time>
      </trkpt>
      <trkpt lat="39.6134200506" lon="-8.6061596498">
        <ele>234.22</ele>
        <time>2018-12-22T13:12:22Z</time>
      </trkpt>
      <trkpt lat="39.6134272590" lon="-8.6061915010">
        <ele>235.66</ele>
        <time>2018-12-22T13:12:29Z</time>
      </trkpt>
      <trkpt lat="39.6134620439" lon="-8.6063133739">
        <ele>235.66</ele>
        <time>2018-12-22T13:12:37Z</time>
      </trkpt>
      <trkpt lat="39.6135235671" lon="-8.6064712889">
        <ele>235.66</ele>
        <time>2018-12-22T13:12:48Z</time>
      </trkpt>
      <trkpt lat="39.6135678235" lon="-8.6066059861">
        <ele>235.18</ele>
        <time>2018-12-22T13:12:57Z</time>
      </trkpt>
      <trkpt lat="39.6136147622" lon="-8.6067304574">
        <ele>235.18</ele>
        <time>2018-12-22T13:13:06Z</time>
      </trkpt>
      <trkpt lat="39.6136618685" lon="-8.6069260910">
        <ele>235.18</ele>
        <time>2018-12-22T13:13:18Z</time>
      </trkpt>
      <trkpt lat="39.6136769559" lon="-8.6069921404">
        <ele>235.18</ele>
        <time>2018-12-22T13:13:22Z</time>
      </trkpt>
      <trkpt lat="39.6137037780" lon="-8.6070503946">
        <ele>235.18</ele>
        <time>2018-12-22T13:13:26Z</time>
      </trkpt>
      <trkpt lat="39.6137522254" lon="-8.6072474532">
        <ele>235.18</ele>
        <time>2018-12-22T13:13:38Z</time>
      </trkpt>
      <trkpt lat="39.6137673128" lon="-8.6073440965">
        <ele>235.18</ele>
        <time>2018-12-22T13:13:45Z</time>
      </trkpt>
      <trkpt lat="39.6138208732" lon="-8.6075001676">
        <ele>235.66</ele>
        <time>2018-12-22T13:13:56Z</time>
      </trkpt>
      <trkpt lat="39.6138512157" lon="-8.6076389719">
        <ele>235.66</ele>
        <time>2018-12-22T13:14:04Z</time>
      </trkpt>
      <trkpt lat="39.6139079612" lon="-8.6078108009">
        <ele>236.62</ele>
        <time>2018-12-22T13:14:15Z</time>
      </trkpt>
      <trkpt lat="39.6139145829" lon="-8.6079522874">
        <ele>236.14</ele>
        <time>2018-12-22T13:14:24Z</time>
      </trkpt>
      <trkpt lat="39.6139518823" lon="-8.6081122141">
        <ele>237.10</ele>
        <time>2018-12-22T13:14:34Z</time>
      </trkpt>
      <trkpt lat="39.6139668021" lon="-8.6082411278">
        <ele>237.10</ele>
        <time>2018-12-22T13:14:42Z</time>
      </trkpt>
      <trkpt lat="39.6139982343" lon="-8.6084111128">
        <ele>237.10</ele>
        <time>2018-12-22T13:14:53Z</time>
      </trkpt>
      <trkpt lat="39.6139880922" lon="-8.6085279565">
        <ele>237.58</ele>
        <time>2018-12-22T13:15:01Z</time>
      </trkpt>
      <trkpt lat="39.6140001621" lon="-8.6086530145">
        <ele>237.10</ele>
        <time>2018-12-22T13:15:09Z</time>
      </trkpt>
      <trkpt lat="39.6140179317" lon="-8.6087406054">
        <ele>238.54</ele>
        <time>2018-12-22T13:15:15Z</time>
      </trkpt>
      <trkpt lat="39.6140224580" lon="-8.6087691877">
        <ele>237.58</ele>
        <time>2018-12-22T13:15:17Z</time>
      </trkpt>
      <trkpt lat="39.6140376292" lon="-8.6088958383">
        <ele>238.54</ele>
        <time>2018-12-22T13:15:25Z</time>
      </trkpt>
      <trkpt lat="39.6140942909" lon="-8.6090364028">
        <ele>238.06</ele>
        <time>2018-12-22T13:15:34Z</time>
      </trkpt>
      <trkpt lat="39.6141084563" lon="-8.6091824993">
        <ele>238.54</ele>
        <time>2018-12-22T13:15:43Z</time>
      </trkpt>
      <trkpt lat="39.6141469292" lon="-8.6093222257">
        <ele>238.06</ele>
        <time>2018-12-22T13:15:52Z</time>
      </trkpt>
      <trkpt lat="39.6141691413" lon="-8.6093873531">
        <ele>238.54</ele>
        <time>2018-12-22T13:15:56Z</time>
      </trkpt>
      <trkpt lat="39.6141835582" lon="-8.6096046120">
        <ele>238.54</ele>
        <time>2018-12-22T13:16:09Z</time>
      </trkpt>
      <trkpt lat="39.6142126434" lon="-8.6097424943">
        <ele>238.06</ele>
        <time>2018-12-22T13:16:17Z</time>
      </trkpt>
      <trkpt lat="39.6142340172" lon="-8.6098989844">
        <ele>238.06</ele>
        <time>2018-12-22T13:16:26Z</time>
      </trkpt>
      <trkpt lat="39.6142662875" lon="-8.6100545526">
        <ele>238.54</ele>
        <time>2018-12-22T13:16:36Z</time>
      </trkpt>
      <trkpt lat="39.6143428981" lon="-8.6102179158">
        <ele>238.06</ele>
        <time>2018-12-22T13:16:47Z</time>
      </trkpt>
      <trkpt lat="39.6143883280" lon="-8.6103651859">
        <ele>238.54</ele>
        <time>2018-12-22T13:16:57Z</time>
      </trkpt>
      <trkpt lat="39.6144302376" lon="-8.6105154734">
        <ele>238.54</ele>
        <time>2018-12-22T13:17:07Z</time>
      </trkpt>
      <trkpt lat="39.6145220194" lon="-8.6106862128">
        <ele>238.06</ele>
        <time>2018-12-22T13:17:18Z</time>
      </trkpt>
      <trkpt lat="39.6145499311" lon="-8.6107813474">
        <ele>238.06</ele>
        <time>2018-12-22T13:17:26Z</time>
      </trkpt>
      <trkpt lat="39.6146101132" lon="-8.6109053995">
        <ele>238.06</ele>
        <time>2018-12-22T13:17:35Z</time>
      </trkpt>
      <trkpt lat="39.6146728937" lon="-8.6110342294">
        <ele>238.54</ele>
        <time>2018-12-22T13:17:44Z</time>
      </trkpt>
      <trkpt lat="39.6147249453" lon="-8.6111604609">
        <ele>239.02</ele>
        <time>2018-12-22T13:17:53Z</time>
      </trkpt>
      <trkpt lat="39.6147371829" lon="-8.6111864448">
        <ele>239.51</ele>
        <time>2018-12-22T13:17:55Z</time>
      </trkpt>
      <trkpt lat="39.6148049925" lon="-8.6113251653">
        <ele>239.02</ele>
        <time>2018-12-22T13:18:05Z</time>
      </trkpt>
      <trkpt lat="39.6148375142" lon="-8.6114467029">
        <ele>239.99</ele>
        <time>2018-12-22T13:18:14Z</time>
      </trkpt>
      <trkpt lat="39.6148654260" lon="-8.6115039513">
        <ele>239.51</ele>
        <time>2018-12-22T13:18:18Z</time>
      </trkpt>
      <trkpt lat="39.6148923319" lon="-8.6115568411">
        <ele>239.99</ele>
        <time>2018-12-22T13:18:22Z</time>
      </trkpt>
      <trkpt lat="39.6149326488" lon="-8.6116311047">
        <ele>239.99</ele>
        <time>2018-12-22T13:18:27Z</time>
      </trkpt>
      <trkpt lat="39.6149712056" lon="-8.6117268261">
        <ele>239.99</ele>
        <time>2018-12-22T13:18:34Z</time>
      </trkpt>
      <trkpt lat="39.6150052361" lon="-8.6118663009">
        <ele>240.95</ele>
        <time>2018-12-22T13:18:43Z</time>
      </trkpt>
      <trkpt lat="39.6150419489" lon="-8.6120360345">
        <ele>240.95</ele>
        <time>2018-12-22T13:18:53Z</time>
      </trkpt>
      <trkpt lat="39.6150610596" lon="-8.6122204363">
        <ele>241.91</ele>
        <time>2018-12-22T13:19:04Z</time>
      </trkpt>
      <trkpt lat="39.6150768176" lon="-8.6123865657">
        <ele>241.91</ele>
        <time>2018-12-22T13:19:14Z</time>
      </trkpt>
      <trkpt lat="39.6150818467" lon="-8.6125315726">
        <ele>241.91</ele>
        <time>2018-12-22T13:19:23Z</time>
      </trkpt>
      <trkpt lat="39.6150934976" lon="-8.6127010547">
        <ele>242.39</ele>
        <time>2018-12-22T13:19:34Z</time>
      </trkpt>
      <trkpt lat="39.6150984429" lon="-8.6128295492">
        <ele>242.39</ele>
        <time>2018-12-22T13:19:43Z</time>
      </trkpt>
      <trkpt lat="39.6151095908" lon="-8.6129062437">
        <ele>242.87</ele>
        <time>2018-12-22T13:19:53Z</time>
      </trkpt>
      <trkpt lat="39.6151347365" lon="-8.6128954310">
        <ele>242.39</ele>
        <time>2018-12-22T13:19:57Z</time>
      </trkpt>
      <trkpt lat="39.6151590440" lon="-8.6128807627">
        <ele>242.87</ele>
        <time>2018-12-22T13:20:05Z</time>
      </trkpt>
      <trkpt lat="39.6151532605" lon="-8.6128614843">
        <ele>242.39</ele>
        <time>2018-12-22T13:20:12Z</time>
      </trkpt>
      <trkpt lat="39.6151644923" lon="-8.6128666811">
        <ele>242.87</ele>
        <time>2018-12-22T13:20:24Z</time>
      </trkpt>
      <trkpt lat="39.6151487343" lon="-8.6128690280">
        <ele>242.87</ele>
        <time>2018-12-22T13:20:39Z</time>
      </trkpt>
      <trkpt lat="39.6151457168" lon="-8.6128570419">
        <ele>242.39</ele>
        <time>2018-12-22T13:20:53Z</time>
      </trkpt>
      <trkpt lat="39.6151519194" lon="-8.6128479894">
        <ele>242.39</ele>
        <time>2018-12-22T13:21:00Z</time>
      </trkpt>
      <trkpt lat="39.6151504107" lon="-8.6128483247">
        <ele>242.87</ele>
        <time>2018-12-22T13:21:09Z</time>
      </trkpt>
      <trkpt lat="39.6151542664" lon="-8.6128368415">
        <ele>242.39</ele>
        <time>2018-12-22T13:21:16Z</time>
      </trkpt>
      <trkpt lat="39.6151569486" lon="-8.6128383502">
        <ele>241.91</ele>
        <time>2018-12-22T13:21:31Z</time>
      </trkpt>
      <trkpt lat="39.6151544340" lon="-8.6128483247">
        <ele>241.91</ele>
        <time>2018-12-22T13:21:44Z</time>
      </trkpt>
      <trkpt lat="39.6151600499" lon="-8.6128625739">
        <ele>242.87</ele>
        <time>2018-12-22T13:21:55Z</time>
      </trkpt>
      <trkpt lat="39.6151437890" lon="-8.6129018012">
        <ele>242.39</ele>
        <time>2018-12-22T13:22:03Z</time>
      </trkpt>
      <trkpt lat="39.6151178051" lon="-8.6129920743">
        <ele>242.39</ele>
        <time>2018-12-22T13:22:12Z</time>
      </trkpt>
      <trkpt lat="39.6151074115" lon="-8.6131301243">
        <ele>242.87</ele>
        <time>2018-12-22T13:22:21Z</time>
      </trkpt>
      <trkpt lat="39.6150971856" lon="-8.6133343074">
        <ele>242.87</ele>
        <time>2018-12-22T13:22:33Z</time>
      </trkpt>
      <trkpt lat="39.6151250973" lon="-8.6135158595">
        <ele>242.87</ele>
        <time>2018-12-22T13:22:44Z</time>
      </trkpt>
      <trkpt lat="39.6151285339" lon="-8.6136808991">
        <ele>241.91</ele>
        <time>2018-12-22T13:22:54Z</time>
      </trkpt>
      <trkpt lat="39.6151593793" lon="-8.6138311028">
        <ele>242.39</ele>
        <time>2018-12-22T13:23:03Z</time>
      </trkpt>
      <trkpt lat="39.6152042225" lon="-8.6139753554">
        <ele>242.39</ele>
        <time>2018-12-22T13:23:11Z</time>
      </trkpt>
      <trkpt lat="39.6152272727" lon="-8.6141293310">
        <ele>241.91</ele>
        <time>2018-12-22T13:23:20Z</time>
      </trkpt>
      <trkpt lat="39.6152189746" lon="-8.6142309196">
        <ele>241.91</ele>
        <time>2018-12-22T13:23:27Z</time>
      </trkpt>
      <trkpt lat="39.6151993610" lon="-8.6144129746">
        <ele>240.95</ele>
        <time>2018-12-22T13:23:39Z</time>
      </trkpt>
      <trkpt lat="39.6152056474" lon="-8.6145542096">
        <ele>240.95</ele>
        <time>2018-12-22T13:23:48Z</time>
      </trkpt>
      <trkpt lat="39.6152064856" lon="-8.6147067603">
        <ele>240.95</ele>
        <time>2018-12-22T13:23:57Z</time>
      </trkpt>
      <trkpt lat="39.6152154543" lon="-8.6148436368">
        <ele>240.47</ele>
        <time>2018-12-22T13:24:06Z</time>
      </trkpt>
      <trkpt lat="39.6152039710" lon="-8.6149975285">
        <ele>239.99</ele>
        <time>2018-12-22T13:24:16Z</time>
      </trkpt>
      <trkpt lat="39.6152271889" lon="-8.6151687708">
        <ele>239.51</ele>
        <time>2018-12-22T13:24:26Z</time>
      </trkpt>
      <trkpt lat="39.6152732894" lon="-8.6152195651">
        <ele>239.02</ele>
        <time>2018-12-22T13:24:32Z</time>
      </trkpt>
      <trkpt lat="39.6153587848" lon="-8.6152565293">
        <ele>238.06</ele>
        <time>2018-12-22T13:24:41Z</time>
      </trkpt>
      <trkpt lat="39.6154576913" lon="-8.6152750533">
        <ele>238.06</ele>
        <time>2018-12-22T13:24:48Z</time>
      </trkpt>
      <trkpt lat="39.6155769657" lon="-8.6152708624">
        <ele>238.06</ele>
        <time>2018-12-22T13:24:57Z</time>
      </trkpt>
      <trkpt lat="39.6156905405" lon="-8.6153189745">
        <ele>238.06</ele>
        <time>2018-12-22T13:25:05Z</time>
      </trkpt>
      <trkpt lat="39.6158117428" lon="-8.6153598782">
        <ele>237.58</ele>
        <time>2018-12-22T13:25:15Z</time>
      </trkpt>
      <trkpt lat="39.6159466915" lon="-8.6154123489">
        <ele>237.10</ele>
        <time>2018-12-22T13:25:25Z</time>
      </trkpt>
      <trkpt lat="39.6161185205" lon="-8.6154292803">
        <ele>237.58</ele>
        <time>2018-12-22T13:25:39Z</time>
      </trkpt>
      <trkpt lat="39.6162378788" lon="-8.6154039670">
        <ele>237.58</ele>
        <time>2018-12-22T13:25:49Z</time>
      </trkpt>
      <trkpt lat="39.6163686365" lon="-8.6153329723">
        <ele>237.58</ele>
        <time>2018-12-22T13:26:01Z</time>
      </trkpt>
      <trkpt lat="39.6163838916" lon="-8.6153252609">
        <ele>237.58</ele>
        <time>2018-12-22T13:26:02Z</time>
      </trkpt>
      <trkpt lat="39.6164686326" lon="-8.6152623966">
        <ele>237.10</ele>
        <time>2018-12-22T13:26:10Z</time>
      </trkpt>
      <trkpt lat="39.6165777650" lon="-8.6152332276">
        <ele>237.58</ele>
        <time>2018-12-22T13:26:20Z</time>
      </trkpt>
      <trkpt lat="39.6166596562" lon="-8.6152486503">
        <ele>237.10</ele>
        <time>2018-12-22T13:26:28Z</time>
      </trkpt>
      <trkpt lat="39.6167490911" lon="-8.6152317189">
        <ele>237.58</ele>
        <time>2018-12-22T13:26:35Z</time>
      </trkpt>
      <trkpt lat="39.6168267913" lon="-8.6152360775">
        <ele>237.10</ele>
        <time>2018-12-22T13:26:42Z</time>
      </trkpt>
      <trkpt lat="39.6169484966" lon="-8.6152753886">
        <ele>237.10</ele>
        <time>2018-12-22T13:26:52Z</time>
      </trkpt>
      <trkpt lat="39.6170461457" lon="-8.6153940763">
        <ele>237.10</ele>
        <time>2018-12-22T13:27:01Z</time>
      </trkpt>
      <trkpt lat="39.6170547791" lon="-8.6154069006">
        <ele>237.10</ele>
        <time>2018-12-22T13:27:02Z</time>
      </trkpt>
      <trkpt lat="39.6171401907" lon="-8.6154795717">
        <ele>237.58</ele>
        <time>2018-12-22T13:27:11Z</time>
      </trkpt>
      <trkpt lat="39.6172402706" lon="-8.6155794840">
        <ele>237.58</ele>
        <time>2018-12-22T13:27:20Z</time>
      </trkpt>
      <trkpt lat="39.6173019614" lon="-8.6156617105">
        <ele>238.06</ele>
        <time>2018-12-22T13:27:28Z</time>
      </trkpt>
      <trkpt lat="39.6173876245" lon="-8.6157150194">
        <ele>237.58</ele>
        <time>2018-12-22T13:27:37Z</time>
      </trkpt>
      <trkpt lat="39.6174795739" lon="-8.6158109084">
        <ele>238.06</ele>
        <time>2018-12-22T13:27:46Z</time>
      </trkpt>
      <trkpt lat="39.6175581962" lon="-8.6159080546">
        <ele>238.54</ele>
        <time>2018-12-22T13:27:55Z</time>
      </trkpt>
      <trkpt lat="39.6176234912" lon="-8.6160067096">
        <ele>238.06</ele>
        <time>2018-12-22T13:28:03Z</time>
      </trkpt>
      <trkpt lat="39.6176204737" lon="-8.6161537282">
        <ele>239.02</ele>
        <time>2018-12-22T13:28:13Z</time>
      </trkpt>
      <trkpt lat="39.6176087391" lon="-8.6162822228">
        <ele>238.54</ele>
        <time>2018-12-22T13:28:22Z</time>
      </trkpt>
      <trkpt lat="39.6175916400" lon="-8.6163647845">
        <ele>239.02</ele>
        <time>2018-12-22T13:28:29Z</time>
      </trkpt>
      <trkpt lat="39.6175686736" lon="-8.6164392158">
        <ele>239.51</ele>
        <time>2018-12-22T13:28:34Z</time>
      </trkpt>
      <trkpt lat="39.6175247524" lon="-8.6165822111">
        <ele>240.95</ele>
        <time>2018-12-22T13:28:45Z</time>
      </trkpt>
      <trkpt lat="39.6174681745" lon="-8.6166509427">
        <ele>241.43</ele>
        <time>2018-12-22T13:28:54Z</time>
      </trkpt>
      <trkpt lat="39.6174571104" lon="-8.6166757531">
        <ele>241.91</ele>
        <time>2018-12-22T13:28:56Z</time>
      </trkpt>
      <trkpt lat="39.6173767280" lon="-8.6167121306">
        <ele>243.35</ele>
        <time>2018-12-22T13:29:05Z</time>
      </trkpt>
      <trkpt lat="39.6173141152" lon="-8.6167212669">
        <ele>244.79</ele>
        <time>2018-12-22T13:29:13Z</time>
      </trkpt>
      <trkpt lat="39.6172534302" lon="-8.6167081073">
        <ele>244.79</ele>
        <time>2018-12-22T13:29:18Z</time>
      </trkpt>
      <trkpt lat="39.6171774901" lon="-8.6167177465">
        <ele>245.75</ele>
        <time>2018-12-22T13:29:25Z</time>
      </trkpt>
      <trkpt lat="39.6171240974" lon="-8.6167252064">
        <ele>246.72</ele>
        <time>2018-12-22T13:29:31Z</time>
      </trkpt>
      <trkpt lat="39.6170903184" lon="-8.6167547107">
        <ele>247.20</ele>
        <time>2018-12-22T13:29:37Z</time>
      </trkpt>
      <trkpt lat="39.6171074174" lon="-8.6167329177">
        <ele>247.20</ele>
        <time>2018-12-22T13:29:48Z</time>
      </trkpt>
      <trkpt lat="39.6170707047" lon="-8.6167895794">
        <ele>248.16</ele>
        <time>2018-12-22T13:29:55Z</time>
      </trkpt>
      <trkpt lat="39.6170296334" lon="-8.6168234423">
        <ele>248.16</ele>
        <time>2018-12-22T13:30:03Z</time>
      </trkpt>
      <trkpt lat="39.6169883944" lon="-8.6168853007">
        <ele>249.12</ele>
        <time>2018-12-22T13:30:10Z</time>
      </trkpt>
      <trkpt lat="39.6169378515" lon="-8.6169503443">
        <ele>250.56</ele>
        <time>2018-12-22T13:30:18Z</time>
      </trkpt>
      <trkpt lat="39.6168865543" lon="-8.6170291342">
        <ele>252.00</ele>
        <time>2018-12-22T13:30:26Z</time>
      </trkpt>
      <trkpt lat="39.6168355085" lon="-8.6171003804">
        <ele>253.44</ele>
        <time>2018-12-22T13:30:34Z</time>
      </trkpt>
      <trkpt lat="39.6168447286" lon="-8.6171751469">
        <ele>253.44</ele>
        <time>2018-12-22T13:30:40Z</time>
      </trkpt>
      <trkpt lat="39.6168500092" lon="-8.6172800045">
        <ele>253.44</ele>
        <time>2018-12-22T13:30:49Z</time>
      </trkpt>
      <trkpt lat="39.6168946847" lon="-8.6173728760">
        <ele>255.37</ele>
        <time>2018-12-22T13:30:58Z</time>
      </trkpt>
      <trkpt lat="39.6168935951" lon="-8.6174126063">
        <ele>255.85</ele>
        <time>2018-12-22T13:31:05Z</time>
      </trkpt>
      <trkpt lat="39.6168777533" lon="-8.6174416915">
        <ele>255.85</ele>
        <time>2018-12-22T13:31:20Z</time>
      </trkpt>
      <trkpt lat="39.6168637555" lon="-8.6174182221">
        <ele>255.85</ele>
        <time>2018-12-22T13:31:34Z</time>
      </trkpt>
      <trkpt lat="39.6168352570" lon="-8.6174287833">
        <ele>255.37</ele>
        <time>2018-12-22T13:31:54Z</time>
      </trkpt>
      <trkpt lat="39.6168652643" lon="-8.6174312979">
        <ele>255.85</ele>
        <time>2018-12-22T13:32:08Z</time>
      </trkpt>
      <trkpt lat="39.6168504283" lon="-8.6174344830">
        <ele>255.85</ele>
        <time>2018-12-22T13:32:23Z</time>
      </trkpt>
      <trkpt lat="39.6168744005" lon="-8.6174437031">
        <ele>255.85</ele>
        <time>2018-12-22T13:32:38Z</time>
      </trkpt>
      <trkpt lat="39.6169290505" lon="-8.6175203137">
        <ele>257.29</ele>
        <time>2018-12-22T13:32:46Z</time>
      </trkpt>
      <trkpt lat="39.6169563755" lon="-8.6176032946">
        <ele>257.77</ele>
        <time>2018-12-22T13:32:54Z</time>
      </trkpt>
      <trkpt lat="39.6169799287" lon="-8.6176894605">
        <ele>259.21</ele>
        <time>2018-12-22T13:33:02Z</time>
      </trkpt>
      <trkpt lat="39.6170200780" lon="-8.6177928932">
        <ele>260.17</ele>
        <time>2018-12-22T13:33:12Z</time>
      </trkpt>
      <trkpt lat="39.6170479059" lon="-8.6178795621">
        <ele>261.14</ele>
        <time>2018-12-22T13:33:20Z</time>
      </trkpt>
      <trkpt lat="39.6170554496" lon="-8.6179613695">
        <ele>261.62</ele>
        <time>2018-12-22T13:33:27Z</time>
      </trkpt>
      <trkpt lat="39.6170435473" lon="-8.6180592701">
        <ele>263.06</ele>
        <time>2018-12-22T13:33:35Z</time>
      </trkpt>
      <trkpt lat="39.6170555335" lon="-8.6180823203">
        <ele>263.54</ele>
        <time>2018-12-22T13:33:37Z</time>
      </trkpt>
      <trkpt lat="39.6170874685" lon="-8.6181912851">
        <ele>264.50</ele>
        <time>2018-12-22T13:33:46Z</time>
      </trkpt>
      <trkpt lat="39.6170998737" lon="-8.6182844080">
        <ele>265.94</ele>
        <time>2018-12-22T13:33:53Z</time>
      </trkpt>
      <trkpt lat="39.6171396039" lon="-8.6183941271">
        <ele>266.42</ele>
        <time>2018-12-22T13:34:01Z</time>
      </trkpt>
      <trkpt lat="39.6171420347" lon="-8.6184040178">
        <ele>266.90</ele>
        <time>2018-12-22T13:34:02Z</time>
      </trkpt>
      <trkpt lat="39.6171352454" lon="-8.6184662953">
        <ele>266.90</ele>
        <time>2018-12-22T13:34:07Z</time>
      </trkpt>
      <trkpt lat="39.6171485726" lon="-8.6185038462">
        <ele>267.86</ele>
        <time>2018-12-22T13:34:10Z</time>
      </trkpt>
      <trkpt lat="39.6171827707" lon="-8.6185770202">
        <ele>268.35</ele>
        <time>2018-12-22T13:34:16Z</time>
      </trkpt>
      <trkpt lat="39.6172290388" lon="-8.6186869070">
        <ele>268.83</ele>
        <time>2018-12-22T13:34:25Z</time>
      </trkpt>
      <trkpt lat="39.6172699425" lon="-8.6187704746">
        <ele>269.31</ele>
        <time>2018-12-22T13:34:32Z</time>
      </trkpt>
      <trkpt lat="39.6173121035" lon="-8.6188648548">
        <ele>270.75</ele>
        <time>2018-12-22T13:34:39Z</time>
      </trkpt>
      <trkpt lat="39.6173563600" lon="-8.6189830396">
        <ele>271.71</ele>
        <time>2018-12-22T13:34:49Z</time>
      </trkpt>
      <trkpt lat="39.6173975151" lon="-8.6190416291">
        <ele>272.67</ele>
        <time>2018-12-22T13:34:56Z</time>
      </trkpt>
      <trkpt lat="39.6174593735" lon="-8.6191158928">
        <ele>272.19</ele>
        <time>2018-12-22T13:35:05Z</time>
      </trkpt>
      <trkpt lat="39.6174641512" lon="-8.6191266216">
        <ele>272.67</ele>
        <time>2018-12-22T13:35:06Z</time>
      </trkpt>
      <trkpt lat="39.6175507363" lon="-8.6192141287">
        <ele>273.63</ele>
        <time>2018-12-22T13:35:15Z</time>
      </trkpt>
      <trkpt lat="39.6176268440" lon="-8.6193308048">
        <ele>274.11</ele>
        <time>2018-12-22T13:35:24Z</time>
      </trkpt>
      <trkpt lat="39.6176623832" lon="-8.6194103491">
        <ele>274.11</ele>
        <time>2018-12-22T13:35:30Z</time>
      </trkpt>
      <trkpt lat="39.6177361440" lon="-8.6195331439">
        <ele>275.07</ele>
        <time>2018-12-22T13:35:40Z</time>
      </trkpt>
      <trkpt lat="39.6178033669" lon="-8.6196110118">
        <ele>274.59</ele>
        <time>2018-12-22T13:35:47Z</time>
      </trkpt>
      <trkpt lat="39.6178663149" lon="-8.6197239999">
        <ele>276.04</ele>
        <time>2018-12-22T13:35:56Z</time>
      </trkpt>
      <trkpt lat="39.6179315262" lon="-8.6198606249">
        <ele>276.52</ele>
        <time>2018-12-22T13:36:06Z</time>
      </trkpt>
      <trkpt lat="39.6179866791" lon="-8.6199638061">
        <ele>276.52</ele>
        <time>2018-12-22T13:36:14Z</time>
      </trkpt>
      <trkpt lat="39.6180099808" lon="-8.6200921331">
        <ele>276.04</ele>
        <time>2018-12-22T13:36:23Z</time>
      </trkpt>
      <trkpt lat="39.6180328634" lon="-8.6201917101">
        <ele>277.00</ele>
        <time>2018-12-22T13:36:31Z</time>
      </trkpt>
      <trkpt lat="39.6180792153" lon="-8.6203244794">
        <ele>277.00</ele>
        <time>2018-12-22T13:36:40Z</time>
      </trkpt>
      <trkpt lat="39.6180999186" lon="-8.6204110645">
        <ele>277.48</ele>
        <time>2018-12-22T13:36:46Z</time>
      </trkpt>
      <trkpt lat="39.6181307640" lon="-8.6204818916">
        <ele>278.44</ele>
        <time>2018-12-22T13:36:52Z</time>
      </trkpt>
      <trkpt lat="39.6181432530" lon="-8.6206175108">
        <ele>278.44</ele>
        <time>2018-12-22T13:37:01Z</time>
      </trkpt>
      <trkpt lat="39.6182121523" lon="-8.6207628530">
        <ele>279.40</ele>
        <time>2018-12-22T13:37:12Z</time>
      </trkpt>
      <trkpt lat="39.6182635333" lon="-8.6208621785">
        <ele>280.36</ele>
        <time>2018-12-22T13:37:20Z</time>
      </trkpt>
      <trkpt lat="39.6183319297" lon="-8.6209868174">
        <ele>281.32</ele>
        <time>2018-12-22T13:37:30Z</time>
      </trkpt>
      <trkpt lat="39.6183957160" lon="-8.6210993864">
        <ele>281.80</ele>
        <time>2018-12-22T13:37:39Z</time>
      </trkpt>
      <trkpt lat="39.6184227895" lon="-8.6211687047">
        <ele>282.28</ele>
        <time>2018-12-22T13:37:44Z</time>
      </trkpt>
      <trkpt lat="39.6184759308" lon="-8.6213101912">
        <ele>283.25</ele>
        <time>2018-12-22T13:37:54Z</time>
      </trkpt>
      <trkpt lat="39.6184750088" lon="-8.6214244366">
        <ele>284.69</ele>
        <time>2018-12-22T13:38:03Z</time>
      </trkpt>
      <trkpt lat="39.6184970532" lon="-8.6215467285">
        <ele>285.17</ele>
        <time>2018-12-22T13:38:12Z</time>
      </trkpt>
      <trkpt lat="39.6184994001" lon="-8.6216426175">
        <ele>287.57</ele>
        <time>2018-12-22T13:38:20Z</time>
      </trkpt>
      <trkpt lat="39.6185100451" lon="-8.6217418592">
        <ele>288.53</ele>
        <time>2018-12-22T13:38:28Z</time>
      </trkpt>
      <trkpt lat="39.6185090393" lon="-8.6218450405">
        <ele>289.49</ele>
        <time>2018-12-22T13:38:37Z</time>
      </trkpt>
      <trkpt lat="39.6185065247" lon="-8.6219107546">
        <ele>290.94</ele>
        <time>2018-12-22T13:38:44Z</time>
      </trkpt>
      <trkpt lat="39.6185319219" lon="-8.6219951604">
        <ele>291.42</ele>
        <time>2018-12-22T13:38:51Z</time>
      </trkpt>
      <trkpt lat="39.6185344364" lon="-8.6220458709">
        <ele>291.90</ele>
        <time>2018-12-22T13:38:55Z</time>
      </trkpt>
      <trkpt lat="39.6185364481" lon="-8.6221349705">
        <ele>293.34</ele>
        <time>2018-12-22T13:39:03Z</time>
      </trkpt>
      <trkpt lat="39.6185380407" lon="-8.6221358087">
        <ele>292.86</ele>
        <time>2018-12-22T13:39:11Z</time>
      </trkpt>
      <trkpt lat="39.6185492724" lon="-8.6221456993">
        <ele>293.82</ele>
        <time>2018-12-22T13:39:21Z</time>
      </trkpt>
      <trkpt lat="39.6185586601" lon="-8.6221931409">
        <ele>293.34</ele>
        <time>2018-12-22T13:39:29Z</time>
      </trkpt>
      <trkpt lat="39.6185576543" lon="-8.6222071387">
        <ele>294.78</ele>
        <time>2018-12-22T13:39:31Z</time>
      </trkpt>
      <trkpt lat="39.6185691375" lon="-8.6222763732">
        <ele>295.74</ele>
        <time>2018-12-22T13:39:39Z</time>
      </trkpt>
      <trkpt lat="39.6185733285" lon="-8.6223644670">
        <ele>296.70</ele>
        <time>2018-12-22T13:39:48Z</time>
      </trkpt>
      <trkpt lat="39.6185631026" lon="-8.6224124953">
        <ele>297.18</ele>
        <time>2018-12-22T13:40:04Z</time>
      </trkpt>
      <trkpt lat="39.6185707301" lon="-8.6224865913">
        <ele>298.15</ele>
        <time>2018-12-22T13:40:12Z</time>
      </trkpt>
      <trkpt lat="39.6185482666" lon="-8.6225606035">
        <ele>299.59</ele>
        <time>2018-12-22T13:40:21Z</time>
      </trkpt>
      <trkpt lat="39.6185316704" lon="-8.6226485297">
        <ele>301.03</ele>
        <time>2018-12-22T13:40:29Z</time>
      </trkpt>
      <trkpt lat="39.6185343526" lon="-8.6227496993">
        <ele>301.99</ele>
        <time>2018-12-22T13:40:37Z</time>
      </trkpt>
      <trkpt lat="39.6185415611" lon="-8.6228077020">
        <ele>303.43</ele>
        <time>2018-12-22T13:40:42Z</time>
      </trkpt>
      <trkpt lat="39.6185409743" lon="-8.6228483543">
        <ele>303.43</ele>
        <time>2018-12-22T13:40:45Z</time>
      </trkpt>
      <trkpt lat="39.6185473446" lon="-8.6229854822">
        <ele>304.39</ele>
        <time>2018-12-22T13:40:55Z</time>
      </trkpt>
      <trkpt lat="39.6185408067" lon="-8.6230744980">
        <ele>304.39</ele>
        <time>2018-12-22T13:41:02Z</time>
      </trkpt>
      <trkpt lat="39.6185754240" lon="-8.6232328322">
        <ele>306.32</ele>
        <time>2018-12-22T13:41:12Z</time>
      </trkpt>
      <trkpt lat="39.6186265536" lon="-8.6233569682">
        <ele>307.28</ele>
        <time>2018-12-22T13:41:21Z</time>
      </trkpt>
      <trkpt lat="39.6186846402" lon="-8.6234712973">
        <ele>307.28</ele>
        <time>2018-12-22T13:41:30Z</time>
      </trkpt>
      <trkpt lat="39.6187353507" lon="-8.6235702876">
        <ele>307.76</ele>
        <time>2018-12-22T13:41:39Z</time>
      </trkpt>
      <trkpt lat="39.6188178286" lon="-8.6236864608">
        <ele>307.76</ele>
        <time>2018-12-22T13:41:49Z</time>
      </trkpt>
      <trkpt lat="39.6188922599" lon="-8.6237905640">
        <ele>308.24</ele>
        <time>2018-12-22T13:41:58Z</time>
      </trkpt>
      <trkpt lat="39.6189687029" lon="-8.6238997802">
        <ele>307.76</ele>
        <time>2018-12-22T13:42:07Z</time>
      </trkpt>
      <trkpt lat="39.6189750731" lon="-8.6239203997">
        <ele>307.76</ele>
        <time>2018-12-22T13:42:08Z</time>
      </trkpt>
      <trkpt lat="39.6190459002" lon="-8.6240042187">
        <ele>307.76</ele>
        <time>2018-12-22T13:42:16Z</time>
      </trkpt>
      <trkpt lat="39.6190888155" lon="-8.6240484752">
        <ele>307.76</ele>
        <time>2018-12-22T13:42:20Z</time>
      </trkpt>
      <trkpt lat="39.6191383526" lon="-8.6241076514">
        <ele>308.24</ele>
        <time>2018-12-22T13:42:25Z</time>
      </trkpt>
      <trkpt lat="39.6192282904" lon="-8.6242282670">
        <ele>307.76</ele>
        <time>2018-12-22T13:42:35Z</time>
      </trkpt>
      <trkpt lat="39.6193085052" lon="-8.6243318673">
        <ele>308.24</ele>
        <time>2018-12-22T13:42:44Z</time>
      </trkpt>
      <trkpt lat="39.6193965152" lon="-8.6244584341">
        <ele>308.72</ele>
        <time>2018-12-22T13:42:54Z</time>
      </trkpt>
      <trkpt lat="39.6194944158" lon="-8.6245891079">
        <ele>308.72</ele>
        <time>2018-12-22T13:43:06Z</time>
      </trkpt>
      <trkpt lat="39.6195851080" lon="-8.6247093044">
        <ele>309.20</ele>
        <time>2018-12-22T13:43:16Z</time>
      </trkpt>
      <trkpt lat="39.6196301188" lon="-8.6247989908">
        <ele>308.72</ele>
        <time>2018-12-22T13:43:23Z</time>
      </trkpt>
      <trkpt lat="39.6196911391" lon="-8.6248846538">
        <ele>308.72</ele>
        <time>2018-12-22T13:43:31Z</time>
      </trkpt>
      <trkpt lat="39.6197509021" lon="-8.6249733344">
        <ele>309.20</ele>
        <time>2018-12-22T13:43:38Z</time>
      </trkpt>
      <trkpt lat="39.6198306140" lon="-8.6251052655">
        <ele>309.20</ele>
        <time>2018-12-22T13:43:47Z</time>
      </trkpt>
      <trkpt lat="39.6198896226" lon="-8.6251955386">
        <ele>309.20</ele>
        <time>2018-12-22T13:43:55Z</time>
      </trkpt>
      <trkpt lat="39.6199513972" lon="-8.6252967920">
        <ele>310.16</ele>
        <time>2018-12-22T13:44:04Z</time>
      </trkpt>
      <trkpt lat="39.6200126689" lon="-8.6254057568">
        <ele>310.16</ele>
        <time>2018-12-22T13:44:12Z</time>
      </trkpt>
      <trkpt lat="39.6200745273" lon="-8.6255290546">
        <ele>310.16</ele>
        <time>2018-12-22T13:44:22Z</time>
      </trkpt>
      <trkpt lat="39.6201470308" lon="-8.6256687809">
        <ele>310.64</ele>
        <time>2018-12-22T13:44:32Z</time>
      </trkpt>
      <trkpt lat="39.6202306822" lon="-8.6257679388">
        <ele>311.12</ele>
        <time>2018-12-22T13:44:41Z</time>
      </trkpt>
      <trkpt lat="39.6203113161" lon="-8.6258933321">
        <ele>312.09</ele>
        <time>2018-12-22T13:44:52Z</time>
      </trkpt>
      <trkpt lat="39.6203916147" lon="-8.6260079965">
        <ele>311.60</ele>
        <time>2018-12-22T13:45:02Z</time>
      </trkpt>
      <trkpt lat="39.6204510424" lon="-8.6261198949">
        <ele>312.09</ele>
        <time>2018-12-22T13:45:12Z</time>
      </trkpt>
      <trkpt lat="39.6205281559" lon="-8.6262353137">
        <ele>312.57</ele>
        <time>2018-12-22T13:45:22Z</time>
      </trkpt>
      <trkpt lat="39.6205754299" lon="-8.6262869462">
        <ele>311.60</ele>
        <time>2018-12-22T13:45:27Z</time>
      </trkpt>
      <trkpt lat="39.6206014138" lon="-8.6264383234">
        <ele>312.09</ele>
        <time>2018-12-22T13:45:37Z</time>
      </trkpt>
      <trkpt lat="39.6206304152" lon="-8.6265653931">
        <ele>312.09</ele>
        <time>2018-12-22T13:45:45Z</time>
      </trkpt>
      <trkpt lat="39.6206652001" lon="-8.6266870145">
        <ele>311.60</ele>
        <time>2018-12-22T13:45:55Z</time>
      </trkpt>
      <trkpt lat="39.6207346860" lon="-8.6267850827">
        <ele>311.12</ele>
        <time>2018-12-22T13:46:03Z</time>
      </trkpt>
      <trkpt lat="39.6208154038" lon="-8.6269186065">
        <ele>311.12</ele>
        <time>2018-12-22T13:46:14Z</time>
      </trkpt>
      <trkpt lat="39.6208519489" lon="-8.6270854063">
        <ele>310.64</ele>
        <time>2018-12-22T13:46:25Z</time>
      </trkpt>
      <trkpt lat="39.6209070180" lon="-8.6272012442">
        <ele>310.16</ele>
        <time>2018-12-22T13:46:34Z</time>
      </trkpt>
      <trkpt lat="39.6209385339" lon="-8.6273238715">
        <ele>309.68</ele>
        <time>2018-12-22T13:46:43Z</time>
      </trkpt>
      <trkpt lat="39.6209496818" lon="-8.6274262983">
        <ele>309.20</ele>
        <time>2018-12-22T13:46:50Z</time>
      </trkpt>
      <trkpt lat="39.6209547948" lon="-8.6275791842">
        <ele>308.24</ele>
        <time>2018-12-22T13:46:59Z</time>
      </trkpt>
      <trkpt lat="39.6209513582" lon="-8.6277128756">
        <ele>308.24</ele>
        <time>2018-12-22T13:47:07Z</time>
      </trkpt>
      <trkpt lat="39.6208945289" lon="-8.6278118659">
        <ele>308.24</ele>
        <time>2018-12-22T13:47:16Z</time>
      </trkpt>
      <trkpt lat="39.6208035853" lon="-8.6279185675">
        <ele>307.76</ele>
        <time>2018-12-22T13:47:26Z</time>
      </trkpt>
      <trkpt lat="39.6207405534" lon="-8.6280063260">
        <ele>308.72</ele>
        <time>2018-12-22T13:47:34Z</time>
      </trkpt>
      <trkpt lat="39.6206972189" lon="-8.6280362494">
        <ele>308.72</ele>
        <time>2018-12-22T13:47:38Z</time>
      </trkpt>
      <trkpt lat="39.6206067782" lon="-8.6281649955">
        <ele>309.68</ele>
        <time>2018-12-22T13:47:50Z</time>
      </trkpt>
      <trkpt lat="39.6205256414" lon="-8.6282333918">
        <ele>310.16</ele>
        <time>2018-12-22T13:47:58Z</time>
      </trkpt>
      <trkpt lat="39.6204888448" lon="-8.6283136066">
        <ele>311.12</ele>
        <time>2018-12-22T13:48:05Z</time>
      </trkpt>
      <trkpt lat="39.6205086261" lon="-8.6284345575">
        <ele>311.60</ele>
        <time>2018-12-22T13:48:14Z</time>
      </trkpt>
      <trkpt lat="39.6205593366" lon="-8.6285638902">
        <ele>312.09</ele>
        <time>2018-12-22T13:48:23Z</time>
      </trkpt>
      <trkpt lat="39.6206011623" lon="-8.6286643893">
        <ele>312.57</ele>
        <time>2018-12-22T13:48:31Z</time>
      </trkpt>
      <trkpt lat="39.6206590813" lon="-8.6288029421">
        <ele>312.09</ele>
        <time>2018-12-22T13:48:41Z</time>
      </trkpt>
      <trkpt lat="39.6207320876" lon="-8.6289575044">
        <ele>313.05</ele>
        <time>2018-12-22T13:48:52Z</time>
      </trkpt>
      <trkpt lat="39.6207373682" lon="-8.6289867572">
        <ele>313.05</ele>
        <time>2018-12-22T13:48:54Z</time>
      </trkpt>
      <trkpt lat="39.6207462531" lon="-8.6291388050">
        <ele>313.05</ele>
        <time>2018-12-22T13:49:04Z</time>
      </trkpt>
      <trkpt lat="39.6207637712" lon="-8.6292081233">
        <ele>314.01</ele>
        <time>2018-12-22T13:49:09Z</time>
      </trkpt>
      <trkpt lat="39.6207650285" lon="-8.6293461733">
        <ele>315.45</ele>
        <time>2018-12-22T13:49:19Z</time>
      </trkpt>
      <trkpt lat="39.6207625140" lon="-8.6293574888">
        <ele>315.45</ele>
        <time>2018-12-22T13:49:20Z</time>
      </trkpt>
      <trkpt lat="39.6207607538" lon="-8.6294692196">
        <ele>317.37</ele>
        <time>2018-12-22T13:49:29Z</time>
      </trkpt>
      <trkpt lat="39.6207676269" lon="-8.6296115443">
        <ele>318.81</ele>
        <time>2018-12-22T13:49:39Z</time>
      </trkpt>
      <trkpt lat="39.6207776014" lon="-8.6297442298">
        <ele>319.78</ele>
        <time>2018-12-22T13:49:49Z</time>
      </trkpt>
      <trkpt lat="39.6207373682" lon="-8.6298589781">
        <ele>321.70</ele>
        <time>2018-12-22T13:50:00Z</time>
      </trkpt>
      <trkpt lat="39.6207186766" lon="-8.6299603153">
        <ele>322.66</ele>
        <time>2018-12-22T13:50:08Z</time>
      </trkpt>
      <trkpt lat="39.6207051817" lon="-8.6300727166">
        <ele>323.62</ele>
        <time>2018-12-22T13:50:16Z</time>
      </trkpt>
      <trkpt lat="39.6207114682" lon="-8.6301778257">
        <ele>324.10</ele>
        <time>2018-12-22T13:50:24Z</time>
      </trkpt>
      <trkpt lat="39.6207154077" lon="-8.6303127743">
        <ele>325.06</ele>
        <time>2018-12-22T13:50:33Z</time>
      </trkpt>
      <trkpt lat="39.6207154077" lon="-8.6303243414">
        <ele>325.54</ele>
        <time>2018-12-22T13:50:34Z</time>
      </trkpt>
      <trkpt lat="39.6207306627" lon="-8.6304666661">
        <ele>326.02</ele>
        <time>2018-12-22T13:50:44Z</time>
      </trkpt>
      <trkpt lat="39.6207304113" lon="-8.6305672489">
        <ele>326.99</ele>
        <time>2018-12-22T13:50:52Z</time>
      </trkpt>
      <trkpt lat="39.6207276452" lon="-8.6307324562">
        <ele>328.43</ele>
        <time>2018-12-22T13:51:03Z</time>
      </trkpt>
      <trkpt lat="39.6207331773" lon="-8.6308736913">
        <ele>328.91</ele>
        <time>2018-12-22T13:51:13Z</time>
      </trkpt>
      <trkpt lat="39.6207259689" lon="-8.6310286727">
        <ele>329.39</ele>
        <time>2018-12-22T13:51:24Z</time>
      </trkpt>
      <trkpt lat="39.6207368653" lon="-8.6311768647">
        <ele>328.91</ele>
        <time>2018-12-22T13:51:34Z</time>
      </trkpt>
      <trkpt lat="39.6207493544" lon="-8.6313131545">
        <ele>329.39</ele>
        <time>2018-12-22T13:51:43Z</time>
      </trkpt>
      <trkpt lat="39.6207394637" lon="-8.6314967182">
        <ele>329.39</ele>
        <time>2018-12-22T13:51:55Z</time>
      </trkpt>
      <trkpt lat="39.6207551379" lon="-8.6316068564">
        <ele>329.87</ele>
        <time>2018-12-22T13:52:03Z</time>
      </trkpt>
      <trkpt lat="39.6207672916" lon="-8.6317154020">
        <ele>329.87</ele>
        <time>2018-12-22T13:52:10Z</time>
      </trkpt>
      <trkpt lat="39.6208107099" lon="-8.6318522785">
        <ele>330.35</ele>
        <time>2018-12-22T13:52:20Z</time>
      </trkpt>
      <trkpt lat="39.6208312456" lon="-8.6319309846">
        <ele>330.35</ele>
        <time>2018-12-22T13:52:26Z</time>
      </trkpt>
      <trkpt lat="39.6208502725" lon="-8.6319677811">
        <ele>329.87</ele>
        <time>2018-12-22T13:52:29Z</time>
      </trkpt>
      <trkpt lat="39.6209164057" lon="-8.6320962757">
        <ele>329.39</ele>
        <time>2018-12-22T13:52:39Z</time>
      </trkpt>
      <trkpt lat="39.6209943574" lon="-8.6321611516">
        <ele>329.87</ele>
        <time>2018-12-22T13:52:47Z</time>
      </trkpt>
      <trkpt lat="39.6210841276" lon="-8.6322206631">
        <ele>329.87</ele>
        <time>2018-12-22T13:52:56Z</time>
      </trkpt>
      <trkpt lat="39.6211713832" lon="-8.6322961003">
        <ele>329.87</ele>
        <time>2018-12-22T13:53:04Z</time>
      </trkpt>
      <trkpt lat="39.6212543640" lon="-8.6324001197">
        <ele>328.91</ele>
        <time>2018-12-22T13:53:13Z</time>
      </trkpt>
      <trkpt lat="39.6212896518" lon="-8.6325154547">
        <ele>329.39</ele>
        <time>2018-12-22T13:53:22Z</time>
      </trkpt>
      <trkpt lat="39.6212994587" lon="-8.6325442884">
        <ele>329.39</ele>
        <time>2018-12-22T13:53:24Z</time>
      </trkpt>
      <trkpt lat="39.6212925855" lon="-8.6326928996">
        <ele>330.83</ele>
        <time>2018-12-22T13:53:34Z</time>
      </trkpt>
      <trkpt lat="39.6213257778" lon="-8.6328623816">
        <ele>331.79</ele>
        <time>2018-12-22T13:53:45Z</time>
      </trkpt>
      <trkpt lat="39.6213545278" lon="-8.6330327019">
        <ele>332.75</ele>
        <time>2018-12-22T13:53:56Z</time>
      </trkpt>
      <trkpt lat="39.6213806793" lon="-8.6331750266">
        <ele>333.23</ele>
        <time>2018-12-22T13:54:06Z</time>
      </trkpt>
      <trkpt lat="39.6213951800" lon="-8.6331876833">
        <ele>332.75</ele>
        <time>2018-12-22T13:54:16Z</time>
      </trkpt>
      <trkpt lat="39.6214033943" lon="-8.6331871804">
        <ele>332.75</ele>
        <time>2018-12-22T13:54:24Z</time>
      </trkpt>
      <trkpt lat="39.6214098483" lon="-8.6332233902">
        <ele>333.23</ele>
        <time>2018-12-22T13:54:31Z</time>
      </trkpt>
      <trkpt lat="39.6214106865" lon="-8.6332317721">
        <ele>332.27</ele>
        <time>2018-12-22T13:54:39Z</time>
      </trkpt>
      <trkpt lat="39.6214213315" lon="-8.6332941335">
        <ele>333.71</ele>
        <time>2018-12-22T13:54:47Z</time>
      </trkpt>
      <trkpt lat="39.6214494109" lon="-8.6333894357">
        <ele>333.71</ele>
        <time>2018-12-22T13:54:56Z</time>
      </trkpt>
      <trkpt lat="39.6214590501" lon="-8.6334549822">
        <ele>334.20</ele>
        <time>2018-12-22T13:55:01Z</time>
      </trkpt>
      <trkpt lat="39.6214853693" lon="-8.6335828900">
        <ele>335.16</ele>
        <time>2018-12-22T13:55:11Z</time>
      </trkpt>
      <trkpt lat="39.6214928292" lon="-8.6336998176">
        <ele>335.64</ele>
        <time>2018-12-22T13:55:20Z</time>
      </trkpt>
      <trkpt lat="39.6215013787" lon="-8.6338271387">
        <ele>336.60</ele>
        <time>2018-12-22T13:55:29Z</time>
      </trkpt>
      <trkpt lat="39.6215010434" lon="-8.6339532025">
        <ele>337.56</ele>
        <time>2018-12-22T13:55:39Z</time>
      </trkpt>
      <trkpt lat="39.6214966010" lon="-8.6339959502">
        <ele>338.04</ele>
        <time>2018-12-22T13:55:42Z</time>
      </trkpt>
      <trkpt lat="39.6215111017" lon="-8.6340566352">
        <ele>338.52</ele>
        <time>2018-12-22T13:55:50Z</time>
      </trkpt>
      <trkpt lat="39.6215031389" lon="-8.6341562960">
        <ele>339.00</ele>
        <time>2018-12-22T13:55:57Z</time>
      </trkpt>
      <trkpt lat="39.6215169691" lon="-8.6342429649">
        <ele>339.48</ele>
        <time>2018-12-22T13:56:03Z</time>
      </trkpt>
      <trkpt lat="39.6215130296" lon="-8.6343030632">
        <ele>339.48</ele>
        <time>2018-12-22T13:56:07Z</time>
      </trkpt>
      <trkpt lat="39.6215219982" lon="-8.6344180629">
        <ele>339.96</ele>
        <time>2018-12-22T13:56:16Z</time>
      </trkpt>
      <trkpt lat="39.6215195674" lon="-8.6344099324">
        <ele>340.92</ele>
        <time>2018-12-22T13:56:21Z</time>
      </trkpt>
      <trkpt lat="39.6215186454" lon="-8.6344178952">
        <ele>340.92</ele>
        <time>2018-12-22T13:56:33Z</time>
      </trkpt>
      <trkpt lat="39.6215225011" lon="-8.6344727129">
        <ele>341.41</ele>
        <time>2018-12-22T13:56:44Z</time>
      </trkpt>
      <trkpt lat="39.6215281170" lon="-8.6345098447">
        <ele>341.41</ele>
        <time>2018-12-22T13:56:50Z</time>
      </trkpt>
      <trkpt lat="39.6215432044" lon="-8.6345458869">
        <ele>341.41</ele>
        <time>2018-12-22T13:57:02Z</time>
      </trkpt>
      <trkpt lat="39.6215500776" lon="-8.6346641555">
        <ele>341.41</ele>
        <time>2018-12-22T13:57:12Z</time>
      </trkpt>
      <trkpt lat="39.6215612255" lon="-8.6347629782">
        <ele>342.85</ele>
        <time>2018-12-22T13:57:20Z</time>
      </trkpt>
      <trkpt lat="39.6215800848" lon="-8.6348831747">
        <ele>342.85</ele>
        <time>2018-12-22T13:57:29Z</time>
      </trkpt>
      <trkpt lat="39.6215836890" lon="-8.6349622998">
        <ele>343.33</ele>
        <time>2018-12-22T13:57:38Z</time>
      </trkpt>
      <trkpt lat="39.6215880476" lon="-8.6350767128">
        <ele>343.81</ele>
        <time>2018-12-22T13:57:48Z</time>
      </trkpt>
      <trkpt lat="39.6215966810" lon="-8.6351498868">
        <ele>344.77</ele>
        <time>2018-12-22T13:57:55Z</time>
      </trkpt>
      <trkpt lat="39.6216131095" lon="-8.6352511402">
        <ele>343.81</ele>
        <time>2018-12-22T13:58:03Z</time>
      </trkpt>
      <trkpt lat="39.6216017939" lon="-8.6353690736">
        <ele>344.77</ele>
        <time>2018-12-22T13:58:13Z</time>
      </trkpt>
      <trkpt lat="39.6215840243" lon="-8.6354960594">
        <ele>345.25</ele>
        <time>2018-12-22T13:58:23Z</time>
      </trkpt>
      <trkpt lat="39.6215991117" lon="-8.6355958041">
        <ele>345.73</ele>
        <time>2018-12-22T13:58:31Z</time>
      </trkpt>
      <trkpt lat="39.6216181386" lon="-8.6356749292">
        <ele>345.73</ele>
        <time>2018-12-22T13:58:37Z</time>
      </trkpt>
      <trkpt lat="39.6216956712" lon="-8.6358136497">
        <ele>345.73</ele>
        <time>2018-12-22T13:58:48Z</time>
      </trkpt>
      <trkpt lat="39.6217445377" lon="-8.6359348521">
        <ele>344.77</ele>
        <time>2018-12-22T13:58:58Z</time>
      </trkpt>
      <trkpt lat="39.6218083240" lon="-8.6360280588">
        <ele>343.33</ele>
        <time>2018-12-22T13:59:06Z</time>
      </trkpt>
      <trkpt lat="39.6218646504" lon="-8.6361357663">
        <ele>343.33</ele>
        <time>2018-12-22T13:59:15Z</time>
      </trkpt>
      <trkpt lat="39.6219323762" lon="-8.6362343375">
        <ele>343.33</ele>
        <time>2018-12-22T13:59:24Z</time>
      </trkpt>
      <trkpt lat="39.6219596174" lon="-8.6363483313">
        <ele>342.85</ele>
        <time>2018-12-22T13:59:32Z</time>
      </trkpt>
      <trkpt lat="39.6220192127" lon="-8.6364583019">
        <ele>343.33</ele>
        <time>2018-12-22T13:59:41Z</time>
      </trkpt>
      <trkpt lat="39.6220740303" lon="-8.6365736369">
        <ele>343.33</ele>
        <time>2018-12-22T13:59:50Z</time>
      </trkpt>
      <trkpt lat="39.6220937278" lon="-8.6366293766">
        <ele>344.29</ele>
        <time>2018-12-22T13:59:58Z</time>
      </trkpt>
      <trkpt lat="39.6221312787" lon="-8.6367059872">
        <ele>344.29</ele>
        <time>2018-12-22T14:00:05Z</time>
      </trkpt>
      <trkpt lat="39.6221711766" lon="-8.6368675902">
        <ele>344.77</ele>
        <time>2018-12-22T14:00:16Z</time>
      </trkpt>
      <trkpt lat="39.6222189534" lon="-8.6369902175">
        <ele>344.77</ele>
        <time>2018-12-22T14:00:25Z</time>
      </trkpt>
      <trkpt lat="39.6222259104" lon="-8.6370432749">
        <ele>344.77</ele>
        <time>2018-12-22T14:00:29Z</time>
      </trkpt>
      <trkpt lat="39.6222427581" lon="-8.6371707637">
        <ele>344.29</ele>
        <time>2018-12-22T14:00:38Z</time>
      </trkpt>
      <trkpt lat="39.6222449373" lon="-8.6373026110">
        <ele>343.33</ele>
        <time>2018-12-22T14:00:47Z</time>
      </trkpt>
      <trkpt lat="39.6222534031" lon="-8.6374314409">
        <ele>342.37</ele>
        <time>2018-12-22T14:00:56Z</time>
      </trkpt>
      <trkpt lat="39.6222633775" lon="-8.6376118194">
        <ele>341.41</ele>
        <time>2018-12-22T14:01:08Z</time>
      </trkpt>
      <trkpt lat="39.6223052032" lon="-8.6378085427">
        <ele>339.96</ele>
        <time>2018-12-22T14:01:22Z</time>
      </trkpt>
      <trkpt lat="39.6223217994" lon="-8.6379576568">
        <ele>339.48</ele>
        <time>2018-12-22T14:01:32Z</time>
      </trkpt>
      <trkpt lat="39.6223436762" lon="-8.6381042562">
        <ele>338.04</ele>
        <time>2018-12-22T14:01:43Z</time>
      </trkpt>
      <trkpt lat="39.6223978233" lon="-8.6382387020">
        <ele>337.08</ele>
        <time>2018-12-22T14:01:53Z</time>
      </trkpt>
      <trkpt lat="39.6224405710" lon="-8.6383599043">
        <ele>337.56</ele>
        <time>2018-12-22T14:02:02Z</time>
      </trkpt>
      <trkpt lat="39.6224487852" lon="-8.6384420469">
        <ele>335.16</ele>
        <time>2018-12-22T14:02:08Z</time>
      </trkpt>
      <trkpt lat="39.6224486176" lon="-8.6384575535">
        <ele>336.12</ele>
        <time>2018-12-22T14:02:09Z</time>
      </trkpt>
      <trkpt lat="39.6224696562" lon="-8.6385723855">
        <ele>337.56</ele>
        <time>2018-12-22T14:02:17Z</time>
      </trkpt>
      <trkpt lat="39.6224673092" lon="-8.6386134569">
        <ele>337.56</ele>
        <time>2018-12-22T14:02:20Z</time>
      </trkpt>
      <trkpt lat="39.6224738471" lon="-8.6386572942">
        <ele>334.20</ele>
        <time>2018-12-22T14:02:23Z</time>
      </trkpt>
      <trkpt lat="39.6224760264" lon="-8.6386712082">
        <ele>339.96</ele>
        <time>2018-12-22T14:02:24Z</time>
      </trkpt>
      <trkpt lat="39.6224828158" lon="-8.6387586314">
        <ele>339.00</ele>
        <time>2018-12-22T14:02:31Z</time>
      </trkpt>
      <trkpt lat="39.6224968135" lon="-8.6388449650">
        <ele>340.44</ele>
        <time>2018-12-22T14:02:38Z</time>
      </trkpt>
      <trkpt lat="39.6224865038" lon="-8.6389088351">
        <ele>337.08</ele>
        <time>2018-12-22T14:02:43Z</time>
      </trkpt>
      <trkpt lat="39.6224896889" lon="-8.6389227491">
        <ele>343.81</ele>
        <time>2018-12-22T14:02:44Z</time>
      </trkpt>
      <trkpt lat="39.6224894375" lon="-8.6389576178">
        <ele>340.44</ele>
        <time>2018-12-22T14:02:47Z</time>
      </trkpt>
      <trkpt lat="39.6224969812" lon="-8.6390354019">
        <ele>340.92</ele>
        <time>2018-12-22T14:02:53Z</time>
      </trkpt>
      <trkpt lat="39.6225009207" lon="-8.6391416006">
        <ele>342.37</ele>
        <time>2018-12-22T14:03:01Z</time>
      </trkpt>
      <trkpt lat="39.6224978194" lon="-8.6392341368">
        <ele>342.85</ele>
        <time>2018-12-22T14:03:09Z</time>
      </trkpt>
      <trkpt lat="39.6224923711" lon="-8.6393325403">
        <ele>343.33</ele>
        <time>2018-12-22T14:03:16Z</time>
      </trkpt>
      <trkpt lat="39.6224813908" lon="-8.6393879447">
        <ele>344.29</ele>
        <time>2018-12-22T14:03:20Z</time>
      </trkpt>
      <trkpt lat="39.6224788763" lon="-8.6395042017">
        <ele>344.29</ele>
        <time>2018-12-22T14:03:29Z</time>
      </trkpt>
      <trkpt lat="39.6224644594" lon="-8.6396014318">
        <ele>345.73</ele>
        <time>2018-12-22T14:03:37Z</time>
      </trkpt>
      <trkpt lat="39.6224436723" lon="-8.6396813113">
        <ele>346.21</ele>
        <time>2018-12-22T14:03:44Z</time>
      </trkpt>
      <trkpt lat="39.6224054508" lon="-8.6397725902">
        <ele>347.17</ele>
        <time>2018-12-22T14:03:53Z</time>
      </trkpt>
      <trkpt lat="39.6223767009" lon="-8.6398253962">
        <ele>348.62</ele>
        <time>2018-12-22T14:03:59Z</time>
      </trkpt>
      <trkpt lat="39.6223699953" lon="-8.6398407351">
        <ele>348.13</ele>
        <time>2018-12-22T14:04:01Z</time>
      </trkpt>
      <trkpt lat="39.6223387308" lon="-8.6399523821">
        <ele>348.62</ele>
        <time>2018-12-22T14:04:10Z</time>
      </trkpt>
      <trkpt lat="39.6223062091" lon="-8.6400442477">
        <ele>348.62</ele>
        <time>2018-12-22T14:04:18Z</time>
      </trkpt>
      <trkpt lat="39.6222748607" lon="-8.6401405558">
        <ele>349.58</ele>
        <time>2018-12-22T14:04:25Z</time>
      </trkpt>
      <trkpt lat="39.6222265810" lon="-8.6402302422">
        <ele>350.06</ele>
        <time>2018-12-22T14:04:33Z</time>
      </trkpt>
      <trkpt lat="39.6222026926" lon="-8.6402620934">
        <ele>350.54</ele>
        <time>2018-12-22T14:04:36Z</time>
      </trkpt>
      <trkpt lat="39.6221685782" lon="-8.6403597426">
        <ele>350.54</ele>
        <time>2018-12-22T14:04:44Z</time>
      </trkpt>
      <trkpt lat="39.6221503895" lon="-8.6404041667">
        <ele>351.50</ele>
        <time>2018-12-22T14:04:48Z</time>
      </trkpt>
      <trkpt lat="39.6221257467" lon="-8.6405099463">
        <ele>351.98</ele>
        <time>2018-12-22T14:04:56Z</time>
      </trkpt>
      <trkpt lat="39.6221156884" lon="-8.6405385286">
        <ele>351.98</ele>
        <time>2018-12-22T14:04:58Z</time>
      </trkpt>
      <trkpt lat="39.6221059654" lon="-8.6406636704">
        <ele>352.94</ele>
        <time>2018-12-22T14:05:07Z</time>
      </trkpt>
      <trkpt lat="39.6221028641" lon="-8.6408012174">
        <ele>352.46</ele>
        <time>2018-12-22T14:05:16Z</time>
      </trkpt>
      <trkpt lat="39.6221070550" lon="-8.6408617347">
        <ele>352.94</ele>
        <time>2018-12-22T14:05:20Z</time>
      </trkpt>
      <trkpt lat="39.6221122518" lon="-8.6409883015">
        <ele>352.94</ele>
        <time>2018-12-22T14:05:29Z</time>
      </trkpt>
      <trkpt lat="39.6221223939" lon="-8.6411096714">
        <ele>352.94</ele>
        <time>2018-12-22T14:05:38Z</time>
      </trkpt>
      <trkpt lat="39.6221373137" lon="-8.6412395909">
        <ele>352.46</ele>
        <time>2018-12-22T14:05:46Z</time>
      </trkpt>
      <trkpt lat="39.6221340448" lon="-8.6413717736">
        <ele>352.94</ele>
        <time>2018-12-22T14:05:55Z</time>
      </trkpt>
      <trkpt lat="39.6221433487" lon="-8.6413954943">
        <ele>353.42</ele>
        <time>2018-12-22T14:05:57Z</time>
      </trkpt>
      <trkpt lat="39.6222058777" lon="-8.6415018607">
        <ele>353.42</ele>
        <time>2018-12-22T14:06:06Z</time>
      </trkpt>
      <trkpt lat="39.6222762018" lon="-8.6416263320">
        <ele>353.42</ele>
        <time>2018-12-22T14:06:16Z</time>
      </trkpt>
      <trkpt lat="39.6223054547" lon="-8.6416873522">
        <ele>353.42</ele>
        <time>2018-12-22T14:06:21Z</time>
      </trkpt>
      <trkpt lat="39.6223664749" lon="-8.6417971551">
        <ele>353.42</ele>
        <time>2018-12-22T14:06:31Z</time>
      </trkpt>
      <trkpt lat="39.6224436723" lon="-8.6419068743">
        <ele>354.86</ele>
        <time>2018-12-22T14:06:41Z</time>
      </trkpt>
      <trkpt lat="39.6225185227" lon="-8.6420087144">
        <ele>355.83</ele>
        <time>2018-12-22T14:06:51Z</time>
      </trkpt>
      <trkpt lat="39.6225979831" lon="-8.6421103030">
        <ele>355.83</ele>
        <time>2018-12-22T14:07:01Z</time>
      </trkpt>
      <trkpt lat="39.6227010805" lon="-8.6421843152">
        <ele>356.79</ele>
        <time>2018-12-22T14:07:11Z</time>
      </trkpt>
      <trkpt lat="39.6228044294" lon="-8.6422314215">
        <ele>356.79</ele>
        <time>2018-12-22T14:07:20Z</time>
      </trkpt>
      <trkpt lat="39.6229205187" lon="-8.6422843114">
        <ele>356.31</ele>
        <time>2018-12-22T14:07:30Z</time>
      </trkpt>
      <trkpt lat="39.6230266336" lon="-8.6423465051">
        <ele>356.31</ele>
        <time>2018-12-22T14:07:39Z</time>
      </trkpt>
      <trkpt lat="39.6230949461" lon="-8.6424420588">
        <ele>355.83</ele>
        <time>2018-12-22T14:07:48Z</time>
      </trkpt>
      <trkpt lat="39.6231981274" lon="-8.6425381154">
        <ele>355.34</ele>
        <time>2018-12-22T14:07:58Z</time>
      </trkpt>
      <trkpt lat="39.6232734807" lon="-8.6426091939">
        <ele>354.86</ele>
        <time>2018-12-22T14:08:06Z</time>
      </trkpt>
      <trkpt lat="39.6233661007" lon="-8.6427111179">
        <ele>354.86</ele>
        <time>2018-12-22T14:08:16Z</time>
      </trkpt>
      <trkpt lat="39.6234314796" lon="-8.6428681109">
        <ele>354.38</ele>
        <time>2018-12-22T14:08:28Z</time>
      </trkpt>
      <trkpt lat="39.6235066652" lon="-8.6430013832">
        <ele>353.90</ele>
        <time>2018-12-22T14:08:39Z</time>
      </trkpt>
      <trkpt lat="39.6235485747" lon="-8.6431195680">
        <ele>353.42</ele>
        <time>2018-12-22T14:08:48Z</time>
      </trkpt>
      <trkpt lat="39.6235929988" lon="-8.6432193965">
        <ele>354.38</ele>
        <time>2018-12-22T14:08:56Z</time>
      </trkpt>
      <trkpt lat="39.6236127801" lon="-8.6433614697">
        <ele>353.42</ele>
        <time>2018-12-22T14:09:06Z</time>
      </trkpt>
      <trkpt lat="39.6236225870" lon="-8.6434936523">
        <ele>353.90</ele>
        <time>2018-12-22T14:09:15Z</time>
      </trkpt>
      <trkpt lat="39.6236311365" lon="-8.6435233243">
        <ele>354.38</ele>
        <time>2018-12-22T14:09:17Z</time>
      </trkpt>
      <trkpt lat="39.6236291248" lon="-8.6435939837">
        <ele>355.34</ele>
        <time>2018-12-22T14:09:22Z</time>
      </trkpt>
      <trkpt lat="39.6236293763" lon="-8.6436056346">
        <ele>354.86</ele>
        <time>2018-12-22T14:09:23Z</time>
      </trkpt>
      <trkpt lat="39.6236377582" lon="-8.6436506454">
        <ele>354.38</ele>
        <time>2018-12-22T14:09:26Z</time>
      </trkpt>
      <trkpt lat="39.6236228384" lon="-8.6437906232">
        <ele>355.83</ele>
        <time>2018-12-22T14:09:35Z</time>
      </trkpt>
      <trkpt lat="39.6236100979" lon="-8.6439066287">
        <ele>355.83</ele>
        <time>2018-12-22T14:09:43Z</time>
      </trkpt>
      <trkpt lat="39.6236105170" lon="-8.6440307647">
        <ele>356.79</ele>
        <time>2018-12-22T14:09:52Z</time>
      </trkpt>
      <trkpt lat="39.6235995367" lon="-8.6441433337">
        <ele>357.75</ele>
        <time>2018-12-22T14:10:00Z</time>
      </trkpt>
      <trkpt lat="39.6236064937" lon="-8.6442832276">
        <ele>358.71</ele>
        <time>2018-12-22T14:10:10Z</time>
      </trkpt>
      <trkpt lat="39.6236020513" lon="-8.6443769373">
        <ele>359.19</ele>
        <time>2018-12-22T14:10:19Z</time>
      </trkpt>
      <trkpt lat="39.6235956810" lon="-8.6444169190">
        <ele>359.19</ele>
        <time>2018-12-22T14:10:24Z</time>
      </trkpt>
      <trkpt lat="39.6235795040" lon="-8.6445217766">
        <ele>360.15</ele>
        <time>2018-12-22T14:10:32Z</time>
      </trkpt>
      <trkpt lat="39.6235596389" lon="-8.6446185876">
        <ele>360.63</ele>
        <time>2018-12-22T14:10:40Z</time>
      </trkpt>
      <trkpt lat="39.6235670149" lon="-8.6446356867">
        <ele>360.63</ele>
        <time>2018-12-22T14:10:46Z</time>
      </trkpt>
      <trkpt lat="39.6235685237" lon="-8.6446663644">
        <ele>360.63</ele>
        <time>2018-12-22T14:10:57Z</time>
      </trkpt>
      <trkpt lat="39.6235584654" lon="-8.6447143089">
        <ele>361.11</ele>
        <time>2018-12-22T14:11:04Z</time>
      </trkpt>
      <trkpt lat="39.6235532686" lon="-8.6447382811">
        <ele>361.59</ele>
        <time>2018-12-22T14:11:06Z</time>
      </trkpt>
      <trkpt lat="39.6235509217" lon="-8.6447743233">
        <ele>362.07</ele>
        <time>2018-12-22T14:11:09Z</time>
      </trkpt>
      <trkpt lat="39.6234991215" lon="-8.6448575556">
        <ele>362.55</ele>
        <time>2018-12-22T14:11:16Z</time>
      </trkpt>
      <trkpt lat="39.6234275401" lon="-8.6450029816">
        <ele>363.52</ele>
        <time>2018-12-22T14:11:27Z</time>
      </trkpt>
      <trkpt lat="39.6233879775" lon="-8.6451275367">
        <ele>363.04</ele>
        <time>2018-12-22T14:11:36Z</time>
      </trkpt>
      <trkpt lat="39.6233377699" lon="-8.6452613957">
        <ele>363.52</ele>
        <time>2018-12-22T14:11:46Z</time>
      </trkpt>
      <trkpt lat="39.6232837904" lon="-8.6453696061">
        <ele>364.48</ele>
        <time>2018-12-22T14:11:55Z</time>
      </trkpt>
      <trkpt lat="39.6232531965" lon="-8.6454514973">
        <ele>365.44</ele>
        <time>2018-12-22T14:12:01Z</time>
      </trkpt>
      <trkpt lat="39.6231949423" lon="-8.6455636472">
        <ele>365.44</ele>
        <time>2018-12-22T14:12:10Z</time>
      </trkpt>
      <trkpt lat="39.6231455728" lon="-8.6456636433">
        <ele>365.92</ele>
        <time>2018-12-22T14:12:18Z</time>
      </trkpt>
      <trkpt lat="39.6231052559" lon="-8.6458074767">
        <ele>365.44</ele>
        <time>2018-12-22T14:12:28Z</time>
      </trkpt>
      <trkpt lat="39.6230691299" lon="-8.6459278408">
        <ele>365.92</ele>
        <time>2018-12-22T14:12:37Z</time>
      </trkpt>
      <trkpt lat="39.6230269689" lon="-8.6460373923">
        <ele>365.92</ele>
        <time>2018-12-22T14:12:46Z</time>
      </trkpt>
      <trkpt lat="39.6230099536" lon="-8.6461124104">
        <ele>366.88</ele>
        <time>2018-12-22T14:12:51Z</time>
      </trkpt>
      <trkpt lat="39.6229634341" lon="-8.6462638713">
        <ele>367.36</ele>
        <time>2018-12-22T14:13:02Z</time>
      </trkpt>
      <trkpt lat="39.6229232848" lon="-8.6463683937">
        <ele>366.88</ele>
        <time>2018-12-22T14:13:10Z</time>
      </trkpt>
      <trkpt lat="39.6228940319" lon="-8.6464762688">
        <ele>368.32</ele>
        <time>2018-12-22T14:13:18Z</time>
      </trkpt>
      <trkpt lat="39.6228621807" lon="-8.6465662904">
        <ele>367.84</ele>
        <time>2018-12-22T14:13:25Z</time>
      </trkpt>
      <trkpt lat="39.6228230372" lon="-8.6467050947">
        <ele>368.80</ele>
        <time>2018-12-22T14:13:35Z</time>
      </trkpt>
      <trkpt lat="39.6227999032" lon="-8.6468089465">
        <ele>369.76</ele>
        <time>2018-12-22T14:13:42Z</time>
      </trkpt>
      <trkpt lat="39.6227789484" lon="-8.6468827073">
        <ele>369.76</ele>
        <time>2018-12-22T14:13:47Z</time>
      </trkpt>
      <trkpt lat="39.6227363683" lon="-8.6470530275">
        <ele>370.24</ele>
        <time>2018-12-22T14:13:59Z</time>
      </trkpt>
      <trkpt lat="39.6226896811" lon="-8.6471920833">
        <ele>369.76</ele>
        <time>2018-12-22T14:14:09Z</time>
      </trkpt>
      <trkpt lat="39.6226516273" lon="-8.6472495832">
        <ele>370.73</ele>
        <time>2018-12-22T14:14:14Z</time>
      </trkpt>
      <trkpt lat="39.6226327680" lon="-8.6473219190">
        <ele>371.21</ele>
        <time>2018-12-22T14:14:20Z</time>
      </trkpt>
      <trkpt lat="39.6225561574" lon="-8.6474131979">
        <ele>372.17</ele>
        <time>2018-12-22T14:14:30Z</time>
      </trkpt>
      <trkpt lat="39.6225221269" lon="-8.6474635731">
        <ele>372.17</ele>
        <time>2018-12-22T14:14:36Z</time>
      </trkpt>
      <trkpt lat="39.6226129029" lon="-8.6475032195">
        <ele>373.61</ele>
        <time>2018-12-22T14:14:46Z</time>
      </trkpt>
      <trkpt lat="39.6226567402" lon="-8.6475606356">
        <ele>374.09</ele>
        <time>2018-12-22T14:14:53Z</time>
      </trkpt>
      <trkpt lat="39.6226629429" lon="-8.6475692689">
        <ele>374.09</ele>
        <time>2018-12-22T14:14:54Z</time>
      </trkpt>
      <trkpt lat="39.6226454247" lon="-8.6476708576">
        <ele>375.05</ele>
        <time>2018-12-22T14:15:03Z</time>
      </trkpt>
      <trkpt lat="39.6226434968" lon="-8.6477179639">
        <ele>375.53</ele>
        <time>2018-12-22T14:15:08Z</time>
      </trkpt>
      <trkpt lat="39.6226326842" lon="-8.6477493122">
        <ele>375.53</ele>
        <time>2018-12-22T14:15:11Z</time>
      </trkpt>
      <trkpt lat="39.6226381324" lon="-8.6477835104">
        <ele>376.49</ele>
        <time>2018-12-22T14:15:19Z</time>
      </trkpt>
      <trkpt lat="39.6226415690" lon="-8.6478550080">
        <ele>376.01</ele>
        <time>2018-12-22T14:15:27Z</time>
      </trkpt>
      <trkpt lat="39.6226272359" lon="-8.6479123402">
        <ele>376.97</ele>
        <time>2018-12-22T14:15:38Z</time>
      </trkpt>
      <trkpt lat="39.6226334386" lon="-8.6479622126">
        <ele>376.49</ele>
        <time>2018-12-22T14:15:42Z</time>
      </trkpt>
      <trkpt lat="39.6226016711" lon="-8.6480725184">
        <ele>376.49</ele>
        <time>2018-12-22T14:15:51Z</time>
      </trkpt>
      <trkpt lat="39.6225885954" lon="-8.6481326167">
        <ele>376.97</ele>
        <time>2018-12-22T14:15:59Z</time>
      </trkpt>
      <trkpt lat="39.6225968096" lon="-8.6481390707">
        <ele>376.49</ele>
        <time>2018-12-22T14:16:07Z</time>
      </trkpt>
      <trkpt lat="39.6225763578" lon="-8.6482266616">
        <ele>376.49</ele>
        <time>2018-12-22T14:16:14Z</time>
      </trkpt>
      <trkpt lat="39.6225422435" lon="-8.6483367160">
        <ele>377.45</ele>
        <time>2018-12-22T14:16:23Z</time>
      </trkpt>
      <trkpt lat="39.6225218754" lon="-8.6484421603">
        <ele>377.45</ele>
        <time>2018-12-22T14:16:31Z</time>
      </trkpt>
      <trkpt lat="39.6225248929" lon="-8.6485536397">
        <ele>377.94</ele>
        <time>2018-12-22T14:16:38Z</time>
      </trkpt>
      <trkpt lat="39.6225131582" lon="-8.6486476008">
        <ele>377.45</ele>
        <time>2018-12-22T14:16:45Z</time>
      </trkpt>
      <trkpt lat="39.6225103922" lon="-8.6487655342">
        <ele>377.94</ele>
        <time>2018-12-22T14:16:53Z</time>
      </trkpt>
      <trkpt lat="39.6225377172" lon="-8.6489044223">
        <ele>378.42</ele>
        <time>2018-12-22T14:17:02Z</time>
      </trkpt>
      <trkpt lat="39.6225376334" lon="-8.6490712222">
        <ele>377.94</ele>
        <time>2018-12-22T14:17:13Z</time>
      </trkpt>
      <trkpt lat="39.6225497872" lon="-8.6491936818">
        <ele>377.94</ele>
        <time>2018-12-22T14:17:21Z</time>
      </trkpt>
      <trkpt lat="39.6225545648" lon="-8.6493510939">
        <ele>377.94</ele>
        <time>2018-12-22T14:17:31Z</time>
      </trkpt>
      <trkpt lat="39.6225522179" lon="-8.6494132038">
        <ele>377.94</ele>
        <time>2018-12-22T14:17:35Z</time>
      </trkpt>
      <trkpt lat="39.6225329395" lon="-8.6495670117">
        <ele>377.94</ele>
        <time>2018-12-22T14:17:45Z</time>
      </trkpt>
      <trkpt lat="39.6224646270" lon="-8.6497141980">
        <ele>377.45</ele>
        <time>2018-12-22T14:17:55Z</time>
      </trkpt>
      <trkpt lat="39.6224190295" lon="-8.6498037167">
        <ele>376.01</ele>
        <time>2018-12-22T14:18:03Z</time>
      </trkpt>
      <trkpt lat="39.6223358810" lon="-8.6499147769">
        <ele>375.05</ele>
        <time>2018-12-22T14:18:14Z</time>
      </trkpt>
      <trkpt lat="39.6222776268" lon="-8.6500239931">
        <ele>374.57</ele>
        <time>2018-12-22T14:18:23Z</time>
      </trkpt>
      <trkpt lat="39.6222025249" lon="-8.6501294374">
        <ele>373.61</ele>
        <time>2018-12-22T14:18:32Z</time>
      </trkpt>
      <trkpt lat="39.6221935563" lon="-8.6501353886">
        <ele>373.61</ele>
        <time>2018-12-22T14:18:33Z</time>
      </trkpt>
      <trkpt lat="39.6221791394" lon="-8.6501606181">
        <ele>373.13</ele>
        <time>2018-12-22T14:18:35Z</time>
      </trkpt>
      <trkpt lat="39.6222000103" lon="-8.6502925493">
        <ele>371.69</ele>
        <time>2018-12-22T14:18:44Z</time>
      </trkpt>
      <trkpt lat="39.6222097334" lon="-8.6503119953">
        <ele>371.69</ele>
        <time>2018-12-22T14:18:52Z</time>
      </trkpt>
      <trkpt lat="39.6222443506" lon="-8.6503617000">
        <ele>371.69</ele>
        <time>2018-12-22T14:18:58Z</time>
      </trkpt>
      <trkpt lat="39.6222474519" lon="-8.6504935473">
        <ele>370.24</ele>
        <time>2018-12-22T14:19:08Z</time>
      </trkpt>
      <trkpt lat="39.6222335380" lon="-8.6505040247">
        <ele>369.76</ele>
        <time>2018-12-22T14:19:09Z</time>
      </trkpt>
      <trkpt lat="39.6220995113" lon="-8.6505954713">
        <ele>368.80</ele>
        <time>2018-12-22T14:19:21Z</time>
      </trkpt>
      <trkpt lat="39.6219869424" lon="-8.6506079603">
        <ele>367.84</ele>
        <time>2018-12-22T14:19:31Z</time>
      </trkpt>
      <trkpt lat="39.6219545882" lon="-8.6506245565">
        <ele>367.84</ele>
        <time>2018-12-22T14:19:34Z</time>
      </trkpt>
      <trkpt lat="39.6218304522" lon="-8.6506693996">
        <ele>365.92</ele>
        <time>2018-12-22T14:19:45Z</time>
      </trkpt>
      <trkpt lat="39.6217333898" lon="-8.6507679708">
        <ele>364.48</ele>
        <time>2018-12-22T14:19:55Z</time>
      </trkpt>
      <trkpt lat="39.6216291189" lon="-8.6508321762">
        <ele>364.48</ele>
        <time>2018-12-22T14:20:05Z</time>
      </trkpt>
      <trkpt lat="39.6215291228" lon="-8.6509411409">
        <ele>363.52</ele>
        <time>2018-12-22T14:20:16Z</time>
      </trkpt>
      <trkpt lat="39.6214488242" lon="-8.6510615051">
        <ele>363.04</ele>
        <time>2018-12-22T14:20:26Z</time>
      </trkpt>
      <trkpt lat="39.6213947609" lon="-8.6511886586">
        <ele>363.52</ele>
        <time>2018-12-22T14:20:35Z</time>
      </trkpt>
      <trkpt lat="39.6213455591" lon="-8.6513073463">
        <ele>363.52</ele>
        <time>2018-12-22T14:20:44Z</time>
      </trkpt>
      <trkpt lat="39.6213080082" lon="-8.6514485814">
        <ele>364.00</ele>
        <time>2018-12-22T14:20:54Z</time>
      </trkpt>
      <trkpt lat="39.6212627459" lon="-8.6515863799">
        <ele>363.52</ele>
        <time>2018-12-22T14:21:05Z</time>
      </trkpt>
      <trkpt lat="39.6212106105" lon="-8.6517274473">
        <ele>363.52</ele>
        <time>2018-12-22T14:21:15Z</time>
      </trkpt>
      <trkpt lat="39.6211513504" lon="-8.6518627312">
        <ele>364.00</ele>
        <time>2018-12-22T14:21:25Z</time>
      </trkpt>
      <trkpt lat="39.6211267915" lon="-8.6519575305">
        <ele>363.52</ele>
        <time>2018-12-22T14:21:32Z</time>
      </trkpt>
      <trkpt lat="39.6210710518" lon="-8.6520731170">
        <ele>364.00</ele>
        <time>2018-12-22T14:21:41Z</time>
      </trkpt>
      <trkpt lat="39.6210275497" lon="-8.6522150226">
        <ele>363.04</ele>
        <time>2018-12-22T14:21:52Z</time>
      </trkpt>
      <trkpt lat="39.6210126299" lon="-8.6522614583">
        <ele>363.52</ele>
        <time>2018-12-22T14:21:56Z</time>
      </trkpt>
      <trkpt lat="39.6209951956" lon="-8.6523022782">
        <ele>363.04</ele>
        <time>2018-12-22T14:21:59Z</time>
      </trkpt>
      <trkpt lat="39.6209867299" lon="-8.6524628755">
        <ele>363.04</ele>
        <time>2018-12-22T14:22:09Z</time>
      </trkpt>
      <trkpt lat="39.6209814493" lon="-8.6526368838">
        <ele>362.55</ele>
        <time>2018-12-22T14:22:20Z</time>
      </trkpt>
      <trkpt lat="39.6210180782" lon="-8.6528081261">
        <ele>363.52</ele>
        <time>2018-12-22T14:22:30Z</time>
      </trkpt>
      <trkpt lat="39.6210500132" lon="-8.6529279035">
        <ele>363.04</ele>
        <time>2018-12-22T14:22:39Z</time>
      </trkpt>
      <trkpt lat="39.6210628375" lon="-8.6529539712">
        <ele>363.04</ele>
        <time>2018-12-22T14:22:42Z</time>
      </trkpt>
      <trkpt lat="39.6211034060" lon="-8.6530623492">
        <ele>363.52</ele>
        <time>2018-12-22T14:22:50Z</time>
      </trkpt>
      <trkpt lat="39.6211114526" lon="-8.6531782709">
        <ele>363.04</ele>
        <time>2018-12-22T14:22:58Z</time>
      </trkpt>
      <trkpt lat="39.6210654359" lon="-8.6533010658">
        <ele>363.04</ele>
        <time>2018-12-22T14:23:07Z</time>
      </trkpt>
      <trkpt lat="39.6210360993" lon="-8.6533794366">
        <ele>363.04</ele>
        <time>2018-12-22T14:23:12Z</time>
      </trkpt>
      <trkpt lat="39.6210594848" lon="-8.6535738967">
        <ele>363.04</ele>
        <time>2018-12-22T14:23:24Z</time>
      </trkpt>
      <trkpt lat="39.6210832056" lon="-8.6536418740">
        <ele>363.04</ele>
        <time>2018-12-22T14:23:30Z</time>
      </trkpt>
      <trkpt lat="39.6210943535" lon="-8.6536708754">
        <ele>363.04</ele>
        <time>2018-12-22T14:23:32Z</time>
      </trkpt>
      <trkpt lat="39.6210991312" lon="-8.6538181454">
        <ele>362.55</ele>
        <time>2018-12-22T14:23:42Z</time>
      </trkpt>
      <trkpt lat="39.6211004723" lon="-8.6539690197">
        <ele>362.55</ele>
        <time>2018-12-22T14:23:52Z</time>
      </trkpt>
      <trkpt lat="39.6211177390" lon="-8.6540815886">
        <ele>363.04</ele>
        <time>2018-12-22T14:24:00Z</time>
      </trkpt>
      <trkpt lat="39.6211497579" lon="-8.6541870330">
        <ele>362.55</ele>
        <time>2018-12-22T14:24:06Z</time>
      </trkpt>
      <trkpt lat="39.6211658511" lon="-8.6542609613">
        <ele>362.55</ele>
        <time>2018-12-22T14:24:12Z</time>
      </trkpt>
      <trkpt lat="39.6211856324" lon="-8.6544009391">
        <ele>362.07</ele>
        <time>2018-12-22T14:24:22Z</time>
      </trkpt>
      <trkpt lat="39.6211780049" lon="-8.6544595286">
        <ele>362.07</ele>
        <time>2018-12-22T14:24:29Z</time>
      </trkpt>
      <trkpt lat="39.6211901587" lon="-8.6545990873">
        <ele>362.07</ele>
        <time>2018-12-22T14:24:39Z</time>
      </trkpt>
      <trkpt lat="39.6212031506" lon="-8.6547662225">
        <ele>361.59</ele>
        <time>2018-12-22T14:24:50Z</time>
      </trkpt>
      <trkpt lat="39.6212178189" lon="-8.6549569946">
        <ele>361.59</ele>
        <time>2018-12-22T14:25:02Z</time>
      </trkpt>
      <trkpt lat="39.6211997140" lon="-8.6551041808">
        <ele>360.63</ele>
        <time>2018-12-22T14:25:12Z</time>
      </trkpt>
      <trkpt lat="39.6212041564" lon="-8.6552316695">
        <ele>361.11</ele>
        <time>2018-12-22T14:25:20Z</time>
      </trkpt>
      <trkpt lat="39.6212121192" lon="-8.6553231161">
        <ele>361.11</ele>
        <time>2018-12-22T14:25:28Z</time>
      </trkpt>
      <trkpt lat="39.6212138794" lon="-8.6554507725">
        <ele>360.63</ele>
        <time>2018-12-22T14:25:37Z</time>
      </trkpt>
      <trkpt lat="39.6212098561" lon="-8.6556015629">
        <ele>360.63</ele>
        <time>2018-12-22T14:25:47Z</time>
      </trkpt>
      <trkpt lat="39.6212119516" lon="-8.6557121202">
        <ele>359.19</ele>
        <time>2018-12-22T14:25:54Z</time>
      </trkpt>
      <trkpt lat="39.6212034859" lon="-8.6558648385">
        <ele>359.67</ele>
        <time>2018-12-22T14:26:04Z</time>
      </trkpt>
      <trkpt lat="39.6211770829" lon="-8.6560417805">
        <ele>359.67</ele>
        <time>2018-12-22T14:26:15Z</time>
      </trkpt>
      <trkpt lat="39.6211769991" lon="-8.6561529245">
        <ele>359.19</ele>
        <time>2018-12-22T14:26:22Z</time>
      </trkpt>
      <trkpt lat="39.6211589780" lon="-8.6562178005">
        <ele>358.71</ele>
        <time>2018-12-22T14:26:29Z</time>
      </trkpt>
      <trkpt lat="39.6211434714" lon="-8.6561979353">
        <ele>358.71</ele>
        <time>2018-12-22T14:26:38Z</time>
      </trkpt>
      <trkpt lat="39.6211340837" lon="-8.6561224982">
        <ele>359.19</ele>
        <time>2018-12-22T14:26:47Z</time>
      </trkpt>
      <trkpt lat="39.6211299766" lon="-8.6560468934">
        <ele>359.19</ele>
        <time>2018-12-22T14:26:52Z</time>
      </trkpt>
      <trkpt lat="39.6211599838" lon="-8.6559236795">
        <ele>360.15</ele>
        <time>2018-12-22T14:27:01Z</time>
      </trkpt>
      <trkpt lat="39.6211566310" lon="-8.6559977755">
        <ele>360.15</ele>
        <time>2018-12-22T14:27:07Z</time>
      </trkpt>
      <trkpt lat="39.6211441420" lon="-8.6561369151">
        <ele>359.67</ele>
        <time>2018-12-22T14:27:16Z</time>
      </trkpt>
      <trkpt lat="39.6211344190" lon="-8.6562509090">
        <ele>360.63</ele>
        <time>2018-12-22T14:27:24Z</time>
      </trkpt>
      <trkpt lat="39.6211141348" lon="-8.6563814990">
        <ele>359.67</ele>
        <time>2018-12-22T14:27:34Z</time>
      </trkpt>
      <trkpt lat="39.6211061720" lon="-8.6564967502">
        <ele>359.19</ele>
        <time>2018-12-22T14:27:41Z</time>
      </trkpt>
      <trkpt lat="39.6211047471" lon="-8.6566469539">
        <ele>358.71</ele>
        <time>2018-12-22T14:27:51Z</time>
      </trkpt>
      <trkpt lat="39.6211286355" lon="-8.6567962356">
        <ele>358.71</ele>
        <time>2018-12-22T14:28:00Z</time>
      </trkpt>
      <trkpt lat="39.6211376879" lon="-8.6569450982">
        <ele>357.75</ele>
        <time>2018-12-22T14:28:10Z</time>
      </trkpt>
      <trkpt lat="39.6211511828" lon="-8.6570497043">
        <ele>356.79</ele>
        <time>2018-12-22T14:28:17Z</time>
      </trkpt>
      <trkpt lat="39.6211783402" lon="-8.6571950465">
        <ele>355.34</ele>
        <time>2018-12-22T14:28:26Z</time>
      </trkpt>
      <trkpt lat="39.6211985406" lon="-8.6573711503">
        <ele>354.86</ele>
        <time>2018-12-22T14:28:37Z</time>
      </trkpt>
      <trkpt lat="39.6212185733" lon="-8.6574728228">
        <ele>353.90</ele>
        <time>2018-12-22T14:28:44Z</time>
      </trkpt>
      <trkpt lat="39.6212385222" lon="-8.6575892475">
        <ele>352.94</ele>
        <time>2018-12-22T14:28:52Z</time>
      </trkpt>
      <trkpt lat="39.6212743130" lon="-8.6576940212">
        <ele>352.94</ele>
        <time>2018-12-22T14:29:00Z</time>
      </trkpt>
      <trkpt lat="39.6213003807" lon="-8.6578435544">
        <ele>351.50</ele>
        <time>2018-12-22T14:29:10Z</time>
      </trkpt>
      <trkpt lat="39.6212526038" lon="-8.6579875555">
        <ele>350.54</ele>
        <time>2018-12-22T14:29:19Z</time>
      </trkpt>
      <trkpt lat="39.6212377679" lon="-8.6581421178">
        <ele>350.06</ele>
        <time>2018-12-22T14:29:28Z</time>
      </trkpt>
      <trkpt lat="39.6213056613" lon="-8.6582433712">
        <ele>349.10</ele>
        <time>2018-12-22T14:29:36Z</time>
      </trkpt>
      <trkpt lat="39.6213976946" lon="-8.6583895516">
        <ele>349.10</ele>
        <time>2018-12-22T14:29:48Z</time>
      </trkpt>
      <trkpt lat="39.6214407776" lon="-8.6584985163">
        <ele>348.62</ele>
        <time>2018-12-22T14:29:56Z</time>
      </trkpt>
      <trkpt lat="39.6215137001" lon="-8.6586518213">
        <ele>348.13</ele>
        <time>2018-12-22T14:30:07Z</time>
      </trkpt>
      <trkpt lat="39.6215466410" lon="-8.6587559246">
        <ele>347.65</ele>
        <time>2018-12-22T14:30:15Z</time>
      </trkpt>
      <trkpt lat="39.6215491556" lon="-8.6587854289">
        <ele>347.65</ele>
        <time>2018-12-22T14:30:17Z</time>
      </trkpt>
      <trkpt lat="39.6215694398" lon="-8.6588428449">
        <ele>347.65</ele>
        <time>2018-12-22T14:30:21Z</time>
      </trkpt>
      <trkpt lat="39.6216184739" lon="-8.6589699984">
        <ele>346.69</ele>
        <time>2018-12-22T14:30:30Z</time>
      </trkpt>
      <trkpt lat="39.6216943301" lon="-8.6591002531">
        <ele>347.65</ele>
        <time>2018-12-22T14:30:40Z</time>
      </trkpt>
      <trkpt lat="39.6217452083" lon="-8.6592447571">
        <ele>346.69</ele>
        <time>2018-12-22T14:30:50Z</time>
      </trkpt>
      <trkpt lat="39.6218279377" lon="-8.6593823042">
        <ele>347.17</ele>
        <time>2018-12-22T14:31:01Z</time>
      </trkpt>
      <trkpt lat="39.6218470484" lon="-8.6594780255">
        <ele>347.17</ele>
        <time>2018-12-22T14:31:09Z</time>
      </trkpt>
      <trkpt lat="39.6219025366" lon="-8.6596059334">
        <ele>346.69</ele>
        <time>2018-12-22T14:31:19Z</time>
      </trkpt>
      <trkpt lat="39.6219438594" lon="-8.6597019900">
        <ele>347.65</ele>
        <time>2018-12-22T14:31:27Z</time>
      </trkpt>
      <trkpt lat="39.6220094897" lon="-8.6598129664">
        <ele>347.65</ele>
        <time>2018-12-22T14:31:36Z</time>
      </trkpt>
      <trkpt lat="39.6220364794" lon="-8.6599117052">
        <ele>348.62</ele>
        <time>2018-12-22T14:31:44Z</time>
      </trkpt>
      <trkpt lat="39.6220417600" lon="-8.6599202547">
        <ele>348.62</ele>
        <time>2018-12-22T14:31:45Z</time>
      </trkpt>
      <trkpt lat="39.6220708452" lon="-8.6599906627">
        <ele>348.62</ele>
        <time>2018-12-22T14:31:50Z</time>
      </trkpt>
      <trkpt lat="39.6221125871" lon="-8.6601254437">
        <ele>349.10</ele>
        <time>2018-12-22T14:31:59Z</time>
      </trkpt>
      <trkpt lat="39.6221533231" lon="-8.6602378450">
        <ele>349.10</ele>
        <time>2018-12-22T14:32:07Z</time>
      </trkpt>
      <trkpt lat="39.6221689973" lon="-8.6602764018">
        <ele>349.10</ele>
        <time>2018-12-22T14:32:10Z</time>
      </trkpt>
      <trkpt lat="39.6221855935" lon="-8.6603025533">
        <ele>349.58</ele>
        <time>2018-12-22T14:32:12Z</time>
      </trkpt>
      <trkpt lat="39.6222233959" lon="-8.6604251806">
        <ele>350.06</ele>
        <time>2018-12-22T14:32:21Z</time>
      </trkpt>
      <trkpt lat="39.6222780459" lon="-8.6605440360">
        <ele>349.58</ele>
        <time>2018-12-22T14:32:30Z</time>
      </trkpt>
      <trkpt lat="39.6222846676" lon="-8.6605544295">
        <ele>350.06</ele>
        <time>2018-12-22T14:32:31Z</time>
      </trkpt>
      <trkpt lat="39.6223479509" lon="-8.6606763862">
        <ele>350.54</ele>
        <time>2018-12-22T14:32:40Z</time>
      </trkpt>
      <trkpt lat="39.6223992482" lon="-8.6608003546">
        <ele>351.02</ele>
        <time>2018-12-22T14:32:49Z</time>
      </trkpt>
      <trkpt lat="39.6224159282" lon="-8.6608394142">
        <ele>351.02</ele>
        <time>2018-12-22T14:32:52Z</time>
      </trkpt>
      <trkpt lat="39.6224606037" lon="-8.6609645560">
        <ele>351.98</ele>
        <time>2018-12-22T14:33:01Z</time>
      </trkpt>
      <trkpt lat="39.6225052793" lon="-8.6610560864">
        <ele>352.94</ele>
        <time>2018-12-22T14:33:09Z</time>
      </trkpt>
      <trkpt lat="39.6225558221" lon="-8.6611348763">
        <ele>353.42</ele>
        <time>2018-12-22T14:33:16Z</time>
      </trkpt>
      <trkpt lat="39.6226307563" lon="-8.6612300947">
        <ele>352.94</ele>
        <time>2018-12-22T14:33:25Z</time>
      </trkpt>
      <trkpt lat="39.6227015834" lon="-8.6613288336">
        <ele>353.90</ele>
        <time>2018-12-22T14:33:34Z</time>
      </trkpt>
      <trkpt lat="39.6228174213" lon="-8.6614625249">
        <ele>353.42</ele>
        <time>2018-12-22T14:33:46Z</time>
      </trkpt>
      <trkpt lat="39.6228623483" lon="-8.6614901852">
        <ele>354.38</ele>
        <time>2018-12-22T14:33:50Z</time>
      </trkpt>
      <trkpt lat="39.6228967141" lon="-8.6615020037">
        <ele>353.90</ele>
        <time>2018-12-22T14:33:53Z</time>
      </trkpt>
      <trkpt lat="39.6230061818" lon="-8.6616083700">
        <ele>354.38</ele>
        <time>2018-12-22T14:34:04Z</time>
      </trkpt>
      <trkpt lat="39.6230908390" lon="-8.6617242917">
        <ele>354.38</ele>
        <time>2018-12-22T14:34:13Z</time>
      </trkpt>
      <trkpt lat="39.6231682040" lon="-8.6618174147">
        <ele>354.38</ele>
        <time>2018-12-22T14:34:21Z</time>
      </trkpt>
      <trkpt lat="39.6232605726" lon="-8.6619171593">
        <ele>354.38</ele>
        <time>2018-12-22T14:34:31Z</time>
      </trkpt>
      <trkpt lat="39.6233590599" lon="-8.6620015651">
        <ele>353.90</ele>
        <time>2018-12-22T14:34:40Z</time>
      </trkpt>
      <trkpt lat="39.6233969461" lon="-8.6620374396">
        <ele>354.38</ele>
        <time>2018-12-22T14:34:43Z</time>
      </trkpt>
      <trkpt lat="39.6234427951" lon="-8.6621131282">
        <ele>353.90</ele>
        <time>2018-12-22T14:34:49Z</time>
      </trkpt>
      <trkpt lat="39.6234935056" lon="-8.6622249428">
        <ele>354.38</ele>
        <time>2018-12-22T14:34:58Z</time>
      </trkpt>
      <trkpt lat="39.6235493291" lon="-8.6623464804">
        <ele>353.90</ele>
        <time>2018-12-22T14:35:06Z</time>
      </trkpt>
      <trkpt lat="39.6235713735" lon="-8.6623967718">
        <ele>354.86</ele>
        <time>2018-12-22T14:35:10Z</time>
      </trkpt>
      <trkpt lat="39.6236057393" lon="-8.6624650843">
        <ele>354.38</ele>
        <time>2018-12-22T14:35:15Z</time>
      </trkpt>
      <trkpt lat="39.6236812603" lon="-8.6626099236">
        <ele>354.86</ele>
        <time>2018-12-22T14:35:25Z</time>
      </trkpt>
      <trkpt lat="39.6237239242" lon="-8.6627219059">
        <ele>354.38</ele>
        <time>2018-12-22T14:35:34Z</time>
      </trkpt>
      <trkpt lat="39.6237582061" lon="-8.6628399231">
        <ele>354.38</ele>
        <time>2018-12-22T14:35:42Z</time>
      </trkpt>
      <trkpt lat="39.6238018759" lon="-8.6629537493">
        <ele>354.38</ele>
        <time>2018-12-22T14:35:50Z</time>
      </trkpt>
      <trkpt lat="39.6238920651" lon="-8.6630937271">
        <ele>354.86</ele>
        <time>2018-12-22T14:36:00Z</time>
      </trkpt>
      <trkpt lat="39.6239533368" lon="-8.6631947290">
        <ele>353.90</ele>
        <time>2018-12-22T14:36:08Z</time>
      </trkpt>
      <trkpt lat="39.6240492258" lon="-8.6632813141">
        <ele>354.38</ele>
        <time>2018-12-22T14:36:17Z</time>
      </trkpt>
      <trkpt lat="39.6241555922" lon="-8.6633889377">
        <ele>354.38</ele>
        <time>2018-12-22T14:36:27Z</time>
      </trkpt>
      <trkpt lat="39.6242424287" lon="-8.6634844914">
        <ele>354.86</ele>
        <time>2018-12-22T14:36:36Z</time>
      </trkpt>
      <trkpt lat="39.6243596077" lon="-8.6636067834">
        <ele>353.90</ele>
        <time>2018-12-22T14:36:47Z</time>
      </trkpt>
      <trkpt lat="39.6243693307" lon="-8.6636149976">
        <ele>354.38</ele>
        <time>2018-12-22T14:36:48Z</time>
      </trkpt>
      <trkpt lat="39.6243977454" lon="-8.6636578292">
        <ele>354.86</ele>
        <time>2018-12-22T14:36:52Z</time>
      </trkpt>
      <trkpt lat="39.6245150920" lon="-8.6637629382">
        <ele>354.86</ele>
        <time>2018-12-22T14:37:03Z</time>
      </trkpt>
      <trkpt lat="39.6245948039" lon="-8.6638611741">
        <ele>354.86</ele>
        <time>2018-12-22T14:37:12Z</time>
      </trkpt>
      <trkpt lat="39.6246635355" lon="-8.6639024131">
        <ele>354.86</ele>
        <time>2018-12-22T14:37:17Z</time>
      </trkpt>
      <trkpt lat="39.6246849932" lon="-8.6639408022">
        <ele>354.86</ele>
        <time>2018-12-22T14:37:20Z</time>
      </trkpt>
      <trkpt lat="39.6247595921" lon="-8.6640314106">
        <ele>355.34</ele>
        <time>2018-12-22T14:37:28Z</time>
      </trkpt>
      <trkpt lat="39.6248241328" lon="-8.6641335022">
        <ele>354.86</ele>
        <time>2018-12-22T14:37:37Z</time>
      </trkpt>
      <trkpt lat="39.6248774417" lon="-8.6642457359">
        <ele>354.38</ele>
        <time>2018-12-22T14:37:45Z</time>
      </trkpt>
      <trkpt lat="39.6249153279" lon="-8.6643924192">
        <ele>354.38</ele>
        <time>2018-12-22T14:37:53Z</time>
      </trkpt>
      <trkpt lat="39.6249791142" lon="-8.6644851230">
        <ele>354.86</ele>
        <time>2018-12-22T14:38:00Z</time>
      </trkpt>
      <trkpt lat="39.6249991469" lon="-8.6646209937">
        <ele>354.38</ele>
        <time>2018-12-22T14:38:10Z</time>
      </trkpt>
      <trkpt lat="39.6250066906" lon="-8.6646439601">
        <ele>354.86</ele>
        <time>2018-12-22T14:38:12Z</time>
      </trkpt>
      <trkpt lat="39.6250845585" lon="-8.6647774000">
        <ele>355.34</ele>
        <time>2018-12-22T14:38:22Z</time>
      </trkpt>
      <trkpt lat="39.6250897553" lon="-8.6647896376">
        <ele>354.86</ele>
        <time>2018-12-22T14:38:23Z</time>
      </trkpt>
      <trkpt lat="39.6251048427" lon="-8.6648535077">
        <ele>354.38</ele>
        <time>2018-12-22T14:38:27Z</time>
      </trkpt>
      <trkpt lat="39.6251215227" lon="-8.6648949981">
        <ele>354.86</ele>
        <time>2018-12-22T14:38:30Z</time>
      </trkpt>
      <trkpt lat="39.6251506079" lon="-8.6649964191">
        <ele>354.86</ele>
        <time>2018-12-22T14:38:37Z</time>
      </trkpt>
      <trkpt lat="39.6251506079" lon="-8.6650298629">
        <ele>354.86</ele>
        <time>2018-12-22T14:38:39Z</time>
      </trkpt>
      <trkpt lat="39.6251698025" lon="-8.6650720239">
        <ele>354.86</ele>
        <time>2018-12-22T14:38:42Z</time>
      </trkpt>
      <trkpt lat="39.6251869015" lon="-8.6650983430">
        <ele>354.86</ele>
        <time>2018-12-22T14:38:45Z</time>
      </trkpt>
      <trkpt lat="39.6251969598" lon="-8.6651483830">
        <ele>354.86</ele>
        <time>2018-12-22T14:38:48Z</time>
      </trkpt>
      <trkpt lat="39.6252312418" lon="-8.6652665678">
        <ele>354.86</ele>
        <time>2018-12-22T14:38:56Z</time>
      </trkpt>
      <trkpt lat="39.6252355166" lon="-8.6653094832">
        <ele>355.34</ele>
        <time>2018-12-22T14:38:59Z</time>
      </trkpt>
      <trkpt lat="39.6252959501" lon="-8.6653523147">
        <ele>354.86</ele>
        <time>2018-12-22T14:39:08Z</time>
      </trkpt>
      <trkpt lat="39.6253696270" lon="-8.6653497163">
        <ele>355.83</ele>
        <time>2018-12-22T14:39:17Z</time>
      </trkpt>
      <trkpt lat="39.6254159790" lon="-8.6653604452">
        <ele>355.83</ele>
        <time>2018-12-22T14:39:22Z</time>
      </trkpt>
      <trkpt lat="39.6254345030" lon="-8.6653564218">
        <ele>355.83</ele>
        <time>2018-12-22T14:39:24Z</time>
      </trkpt>
      <trkpt lat="39.6255245246" lon="-8.6653513927">
        <ele>355.83</ele>
        <time>2018-12-22T14:39:32Z</time>
      </trkpt>
      <trkpt lat="39.6255350020" lon="-8.6653412506">
        <ele>355.34</ele>
        <time>2018-12-22T14:39:33Z</time>
      </trkpt>
      <trkpt lat="39.6256210841" lon="-8.6653337069">
        <ele>356.31</ele>
        <time>2018-12-22T14:39:40Z</time>
      </trkpt>
      <trkpt lat="39.6256990358" lon="-8.6653737724">
        <ele>355.83</ele>
        <time>2018-12-22T14:39:47Z</time>
      </trkpt>
      <trkpt lat="39.6257882193" lon="-8.6653982475">
        <ele>355.83</ele>
        <time>2018-12-22T14:39:54Z</time>
      </trkpt>
      <trkpt lat="39.6258526761" lon="-8.6654730141">
        <ele>355.34</ele>
        <time>2018-12-22T14:40:02Z</time>
      </trkpt>
      <trkpt lat="39.6258892212" lon="-8.6655187793">
        <ele>355.34</ele>
        <time>2018-12-22T14:40:12Z</time>
      </trkpt>
      <trkpt lat="39.6258768998" lon="-8.6655381415">
        <ele>355.83</ele>
        <time>2018-12-22T14:40:20Z</time>
      </trkpt>
      <trkpt lat="39.6258845273" lon="-8.6655590963">
        <ele>354.86</ele>
        <time>2018-12-22T14:40:34Z</time>
      </trkpt>
      <trkpt lat="39.6259597130" lon="-8.6655763630">
        <ele>355.83</ele>
        <time>2018-12-22T14:40:43Z</time>
      </trkpt>
      <trkpt lat="39.6259925701" lon="-8.6656204518">
        <ele>355.83</ele>
        <time>2018-12-22T14:40:51Z</time>
      </trkpt>
      <trkpt lat="39.6260052267" lon="-8.6656529736">
        <ele>356.79</ele>
        <time>2018-12-22T14:40:55Z</time>
      </trkpt>
      <trkpt lat="39.6260073222" lon="-8.6656621937">
        <ele>356.31</ele>
        <time>2018-12-22T14:40:56Z</time>
      </trkpt>
      <trkpt lat="39.6260316297" lon="-8.6657844856">
        <ele>356.79</ele>
        <time>2018-12-22T14:41:04Z</time>
      </trkpt>
      <trkpt lat="39.6260341443" lon="-8.6659528781">
        <ele>356.31</ele>
        <time>2018-12-22T14:41:16Z</time>
      </trkpt>
      <trkpt lat="39.6260706056" lon="-8.6659955420">
        <ele>356.31</ele>
        <time>2018-12-22T14:41:25Z</time>
      </trkpt>
      <trkpt lat="39.6261275187" lon="-8.6660637707">
        <ele>356.79</ele>
        <time>2018-12-22T14:41:33Z</time>
      </trkpt>
      <trkpt lat="39.6262036264" lon="-8.6661341786">
        <ele>357.27</ele>
        <time>2018-12-22T14:41:41Z</time>
      </trkpt>
      <trkpt lat="39.6262787282" lon="-8.6662348453">
        <ele>357.27</ele>
        <time>2018-12-22T14:41:50Z</time>
      </trkpt>
      <trkpt lat="39.6263866872" lon="-8.6663325783">
        <ele>357.27</ele>
        <time>2018-12-22T14:42:01Z</time>
      </trkpt>
      <trkpt lat="39.6264664829" lon="-8.6664136313">
        <ele>356.79</ele>
        <time>2018-12-22T14:42:10Z</time>
      </trkpt>
      <trkpt lat="39.6264977474" lon="-8.6664244439">
        <ele>356.79</ele>
        <time>2018-12-22T14:42:13Z</time>
      </trkpt>
      <trkpt lat="39.6265595220" lon="-8.6664958578">
        <ele>357.75</ele>
        <time>2018-12-22T14:42:21Z</time>
      </trkpt>
      <trkpt lat="39.6266191173" lon="-8.6665887292">
        <ele>356.79</ele>
        <time>2018-12-22T14:42:31Z</time>
      </trkpt>
      <trkpt lat="39.6266802214" lon="-8.6666406132">
        <ele>356.79</ele>
        <time>2018-12-22T14:42:38Z</time>
      </trkpt>
      <trkpt lat="39.6267751046" lon="-8.6667093448">
        <ele>356.79</ele>
        <time>2018-12-22T14:42:48Z</time>
      </trkpt>
      <trkpt lat="39.6268489491" lon="-8.6667833570">
        <ele>357.27</ele>
        <time>2018-12-22T14:42:56Z</time>
      </trkpt>
      <trkpt lat="39.6269465983" lon="-8.6668588780">
        <ele>357.27</ele>
        <time>2018-12-22T14:43:05Z</time>
      </trkpt>
      <trkpt lat="39.6270209458" lon="-8.6669400148">
        <ele>357.27</ele>
        <time>2018-12-22T14:43:14Z</time>
      </trkpt>
      <trkpt lat="39.6271056030" lon="-8.6670281924">
        <ele>357.27</ele>
        <time>2018-12-22T14:43:24Z</time>
      </trkpt>
      <trkpt lat="39.6271642763" lon="-8.6670872010">
        <ele>357.27</ele>
        <time>2018-12-22T14:43:31Z</time>
      </trkpt>
      <trkpt lat="39.6272023302" lon="-8.6671264283">
        <ele>357.27</ele>
        <time>2018-12-22T14:43:36Z</time>
      </trkpt>
      <trkpt lat="39.6273211017" lon="-8.6672564317">
        <ele>357.27</ele>
        <time>2018-12-22T14:43:48Z</time>
      </trkpt>
      <trkpt lat="39.6273919288" lon="-8.6673339643">
        <ele>357.75</ele>
        <time>2018-12-22T14:43:57Z</time>
      </trkpt>
      <trkpt lat="39.6274625044" lon="-8.6674289312">
        <ele>357.27</ele>
        <time>2018-12-22T14:44:06Z</time>
      </trkpt>
      <trkpt lat="39.6274998877" lon="-8.6674956512">
        <ele>357.27</ele>
        <time>2018-12-22T14:44:13Z</time>
      </trkpt>
      <trkpt lat="39.6275410429" lon="-8.6675448529">
        <ele>357.27</ele>
        <time>2018-12-22T14:44:19Z</time>
      </trkpt>
      <trkpt lat="39.6275909152" lon="-8.6676290911">
        <ele>357.27</ele>
        <time>2018-12-22T14:44:27Z</time>
      </trkpt>
      <trkpt lat="39.6276070923" lon="-8.6676679831">
        <ele>357.27</ele>
        <time>2018-12-22T14:44:32Z</time>
      </trkpt>
      <trkpt lat="39.6276639216" lon="-8.6677475274">
        <ele>357.27</ele>
        <time>2018-12-22T14:44:40Z</time>
      </trkpt>
      <trkpt lat="39.6277260315" lon="-8.6678348668">
        <ele>357.27</ele>
        <time>2018-12-22T14:44:48Z</time>
      </trkpt>
      <trkpt lat="39.6277230140" lon="-8.6678631976">
        <ele>356.79</ele>
        <time>2018-12-22T14:44:54Z</time>
      </trkpt>
      <trkpt lat="39.6277293004" lon="-8.6678621918">
        <ele>357.75</ele>
        <time>2018-12-22T14:45:00Z</time>
      </trkpt>
      <trkpt lat="39.6276757400" lon="-8.6679385509">
        <ele>357.27</ele>
        <time>2018-12-22T14:45:16Z</time>
      </trkpt>
      <trkpt lat="39.6276887320" lon="-8.6679792032">
        <ele>356.79</ele>
        <time>2018-12-22T14:45:26Z</time>
      </trkpt>
      <trkpt lat="39.6276875585" lon="-8.6679823883">
        <ele>356.79</ele>
        <time>2018-12-22T14:45:36Z</time>
      </trkpt>
      <trkpt lat="39.6277421247" lon="-8.6680301651">
        <ele>356.79</ele>
        <time>2018-12-22T14:45:44Z</time>
      </trkpt>
      <trkpt lat="39.6278541908" lon="-8.6680685543">
        <ele>357.27</ele>
        <time>2018-12-22T14:45:52Z</time>
      </trkpt>
      <trkpt lat="39.6278422885" lon="-8.6680688895">
        <ele>357.27</ele>
        <time>2018-12-22T14:46:01Z</time>
      </trkpt>
      <trkpt lat="39.6278228424" lon="-8.6680528801">
        <ele>356.79</ele>
        <time>2018-12-22T14:46:13Z</time>
      </trkpt>
      <trkpt lat="39.6278477367" lon="-8.6680725776">
        <ele>356.79</ele>
        <time>2018-12-22T14:46:22Z</time>
      </trkpt>
      <trkpt lat="39.6278760675" lon="-8.6681301612">
        <ele>357.75</ele>
        <time>2018-12-22T14:46:34Z</time>
      </trkpt>
      <trkpt lat="39.6278883889" lon="-8.6681374535">
        <ele>356.79</ele>
        <time>2018-12-22T14:46:44Z</time>
      </trkpt>
      <trkpt lat="39.6278791688" lon="-8.6681211088">
        <ele>357.27</ele>
        <time>2018-12-22T14:47:00Z</time>
      </trkpt>
      <trkpt lat="39.6278668474" lon="-8.6681311671">
        <ele>357.27</ele>
        <time>2018-12-22T14:47:15Z</time>
      </trkpt>
      <trkpt lat="39.6278538555" lon="-8.6681276467">
        <ele>357.75</ele>
        <time>2018-12-22T14:47:31Z</time>
      </trkpt>
      <trkpt lat="39.6278302185" lon="-8.6681347713">
        <ele>357.75</ele>
        <time>2018-12-22T14:47:49Z</time>
      </trkpt>
      <trkpt lat="39.6278401092" lon="-8.6681584921">
        <ele>357.75</ele>
        <time>2018-12-22T14:48:01Z</time>
      </trkpt>
      <trkpt lat="39.6278961841" lon="-8.6682158243">
        <ele>357.75</ele>
        <time>2018-12-22T14:48:08Z</time>
      </trkpt>
      <trkpt lat="39.6279705316" lon="-8.6682526208">
        <ele>357.27</ele>
        <time>2018-12-22T14:48:16Z</time>
      </trkpt>
      <trkpt lat="39.6280610561" lon="-8.6683249567">
        <ele>358.23</ele>
        <time>2018-12-22T14:48:27Z</time>
      </trkpt>
      <trkpt lat="39.6280925721" lon="-8.6683629267">
        <ele>357.75</ele>
        <time>2018-12-22T14:48:35Z</time>
      </trkpt>
      <trkpt lat="39.6281468030" lon="-8.6684502661">
        <ele>357.27</ele>
        <time>2018-12-22T14:48:43Z</time>
      </trkpt>
      <trkpt lat="39.6282217372" lon="-8.6684536189">
        <ele>357.75</ele>
        <time>2018-12-22T14:48:49Z</time>
      </trkpt>
      <trkpt lat="39.6282827575" lon="-8.6685165670">
        <ele>357.27</ele>
        <time>2018-12-22T14:48:56Z</time>
      </trkpt>
      <trkpt lat="39.6283235773" lon="-8.6685462389">
        <ele>357.27</ele>
        <time>2018-12-22T14:49:03Z</time>
      </trkpt>
      <trkpt lat="39.6283488069" lon="-8.6685567163">
        <ele>356.79</ele>
        <time>2018-12-22T14:49:10Z</time>
      </trkpt>
      <trkpt lat="39.6283974219" lon="-8.6685728095">
        <ele>357.27</ele>
        <time>2018-12-22T14:49:17Z</time>
      </trkpt>
      <trkpt lat="39.6283928119" lon="-8.6685736477">
        <ele>356.79</ele>
        <time>2018-12-22T14:49:26Z</time>
      </trkpt>
      <trkpt lat="39.6283932310" lon="-8.6685791798">
        <ele>356.31</ele>
        <time>2018-12-22T14:49:28Z</time>
      </trkpt>
      <trkpt lat="39.6284894552" lon="-8.6686496716">
        <ele>356.31</ele>
        <time>2018-12-22T14:49:38Z</time>
      </trkpt>
      <trkpt lat="39.6285405010" lon="-8.6687315628">
        <ele>356.31</ele>
        <time>2018-12-22T14:49:48Z</time>
      </trkpt>
      <trkpt lat="39.6285419259" lon="-8.6687881406">
        <ele>355.83</ele>
        <time>2018-12-22T14:49:51Z</time>
      </trkpt>
      <trkpt lat="39.6285925526" lon="-8.6689169705">
        <ele>355.34</ele>
        <time>2018-12-22T14:50:00Z</time>
      </trkpt>
      <trkpt lat="39.6286347136" lon="-8.6690409388">
        <ele>355.34</ele>
        <time>2018-12-22T14:50:07Z</time>
      </trkpt>
      <trkpt lat="39.6286582667" lon="-8.6690830160">
        <ele>355.34</ele>
        <time>2018-12-22T14:50:15Z</time>
      </trkpt>
      <trkpt lat="39.6287088096" lon="-8.6691620573">
        <ele>355.34</ele>
        <time>2018-12-22T14:50:24Z</time>
      </trkpt>
      <trkpt lat="39.6287541557" lon="-8.6692452896">
        <ele>354.86</ele>
        <time>2018-12-22T14:50:31Z</time>
      </trkpt>
      <trkpt lat="39.6287907846" lon="-8.6693042982">
        <ele>354.38</ele>
        <time>2018-12-22T14:50:38Z</time>
      </trkpt>
      <trkpt lat="39.6288425848" lon="-8.6694155261">
        <ele>354.38</ele>
        <time>2018-12-22T14:50:47Z</time>
      </trkpt>
      <trkpt lat="39.6289248951" lon="-8.6694979202">
        <ele>354.38</ele>
        <time>2018-12-22T14:50:56Z</time>
      </trkpt>
      <trkpt lat="39.6289210394" lon="-8.6695235688">
        <ele>354.38</ele>
        <time>2018-12-22T14:50:58Z</time>
      </trkpt>
      <trkpt lat="39.6289357077" lon="-8.6695954017">
        <ele>353.90</ele>
        <time>2018-12-22T14:51:05Z</time>
      </trkpt>
      <trkpt lat="39.6289427485" lon="-8.6696026940">
        <ele>353.42</ele>
        <time>2018-12-22T14:51:06Z</time>
      </trkpt>
      <trkpt lat="39.6289938781" lon="-8.6697018519">
        <ele>353.90</ele>
        <time>2018-12-22T14:51:14Z</time>
      </trkpt>
      <trkpt lat="39.6290274058" lon="-8.6697756127">
        <ele>353.42</ele>
        <time>2018-12-22T14:51:19Z</time>
      </trkpt>
      <trkpt lat="39.6290855762" lon="-8.6698739324">
        <ele>353.42</ele>
        <time>2018-12-22T14:51:27Z</time>
      </trkpt>
      <trkpt lat="39.6291247196" lon="-8.6699281633">
        <ele>353.42</ele>
        <time>2018-12-22T14:51:33Z</time>
      </trkpt>
      <trkpt lat="39.6291400585" lon="-8.6700036004">
        <ele>353.90</ele>
        <time>2018-12-22T14:51:42Z</time>
      </trkpt>
      <trkpt lat="39.6291473508" lon="-8.6700305901">
        <ele>353.90</ele>
        <time>2018-12-22T14:51:49Z</time>
      </trkpt>
      <trkpt lat="39.6291227918" lon="-8.6701351125">
        <ele>353.90</ele>
        <time>2018-12-22T14:51:58Z</time>
      </trkpt>
      <trkpt lat="39.6290549822" lon="-8.6703908443">
        <ele>354.38</ele>
        <time>2018-12-22T14:52:05Z</time>
      </trkpt>
      <trkpt lat="39.6290978976" lon="-8.6705091968">
        <ele>354.38</ele>
        <time>2018-12-22T14:52:13Z</time>
      </trkpt>
      <trkpt lat="39.6291382983" lon="-8.6706526950">
        <ele>354.38</ele>
        <time>2018-12-22T14:52:22Z</time>
      </trkpt>
      <trkpt lat="39.6292262245" lon="-8.6708049942">
        <ele>353.90</ele>
        <time>2018-12-22T14:52:30Z</time>
      </trkpt>
      <trkpt lat="39.6292567346" lon="-8.6708449759">
        <ele>354.38</ele>
        <time>2018-12-22T14:52:33Z</time>
      </trkpt>
      <trkpt lat="39.6293471754" lon="-8.6709002126">
        <ele>354.38</ele>
        <time>2018-12-22T14:52:42Z</time>
      </trkpt>
      <trkpt lat="39.6293608379" lon="-8.6708991230">
        <ele>354.38</ele>
        <time>2018-12-22T14:52:50Z</time>
      </trkpt>
      <trkpt lat="39.6293624304" lon="-8.6709424574">
        <ele>354.86</ele>
        <time>2018-12-22T14:52:57Z</time>
      </trkpt>
      <trkpt lat="39.6293397155" lon="-8.6711417791">
        <ele>354.86</ele>
        <time>2018-12-22T14:53:08Z</time>
      </trkpt>
      <trkpt lat="39.6293048467" lon="-8.6711407732">
        <ele>354.86</ele>
        <time>2018-12-22T14:53:17Z</time>
      </trkpt>
      <trkpt lat="39.6292943694" lon="-8.6711722054">
        <ele>354.86</ele>
        <time>2018-12-22T14:53:25Z</time>
      </trkpt>
      <trkpt lat="39.6293506119" lon="-8.6713395081">
        <ele>355.34</ele>
        <time>2018-12-22T14:53:35Z</time>
      </trkpt>
      <trkpt lat="39.6294265520" lon="-8.6714999378">
        <ele>354.86</ele>
        <time>2018-12-22T14:53:44Z</time>
      </trkpt>
      <trkpt lat="39.6294678748" lon="-8.6715509836">
        <ele>355.34</ele>
        <time>2018-12-22T14:53:50Z</time>
      </trkpt>
      <trkpt lat="39.6294763405" lon="-8.6716906261">
        <ele>354.86</ele>
        <time>2018-12-22T14:53:59Z</time>
      </trkpt>
      <trkpt lat="39.6294971276" lon="-8.6717324518">
        <ele>354.86</ele>
        <time>2018-12-22T14:54:02Z</time>
      </trkpt>
      <trkpt lat="39.6295333374" lon="-8.6718414165">
        <ele>355.83</ele>
        <time>2018-12-22T14:54:08Z</time>
      </trkpt>
      <trkpt lat="39.6295976266" lon="-8.6718623713">
        <ele>354.86</ele>
        <time>2018-12-22T14:54:16Z</time>
      </trkpt>
      <trkpt lat="39.6296433918" lon="-8.6719805561">
        <ele>354.86</ele>
        <time>2018-12-22T14:54:23Z</time>
      </trkpt>
      <trkpt lat="39.6296868939" lon="-8.6720682308">
        <ele>354.86</ele>
        <time>2018-12-22T14:54:28Z</time>
      </trkpt>
      <trkpt lat="39.6297013946" lon="-8.6721604317">
        <ele>354.38</ele>
        <time>2018-12-22T14:54:32Z</time>
      </trkpt>
      <trkpt lat="39.6297454834" lon="-8.6723022535">
        <ele>354.86</ele>
        <time>2018-12-22T14:54:42Z</time>
      </trkpt>
      <trkpt lat="39.6297820285" lon="-8.6723936163">
        <ele>355.83</ele>
        <time>2018-12-22T14:54:50Z</time>
      </trkpt>
      <trkpt lat="39.6297798492" lon="-8.6724061053">
        <ele>354.86</ele>
        <time>2018-12-22T14:54:51Z</time>
      </trkpt>
      <trkpt lat="39.6298122872" lon="-8.6725366954">
        <ele>354.86</ele>
        <time>2018-12-22T14:55:00Z</time>
      </trkpt>
      <trkpt lat="39.6298176516" lon="-8.6725488491">
        <ele>354.86</ele>
        <time>2018-12-22T14:55:01Z</time>
      </trkpt>
      <trkpt lat="39.6298431326" lon="-8.6726774275">
        <ele>354.86</ele>
        <time>2018-12-22T14:55:10Z</time>
      </trkpt>
      <trkpt lat="39.6298826952" lon="-8.6727971211">
        <ele>355.34</ele>
        <time>2018-12-22T14:55:19Z</time>
      </trkpt>
      <trkpt lat="39.6299557015" lon="-8.6728954408">
        <ele>354.38</ele>
        <time>2018-12-22T14:55:29Z</time>
      </trkpt>
      <trkpt lat="39.6300190687" lon="-8.6729126237">
        <ele>353.90</ele>
        <time>2018-12-22T14:55:38Z</time>
      </trkpt>
      <trkpt lat="39.6300503332" lon="-8.6729022302">
        <ele>354.38</ele>
        <time>2018-12-22T14:55:41Z</time>
      </trkpt>
      <trkpt lat="39.6301472280" lon="-8.6730173137">
        <ele>353.90</ele>
        <time>2018-12-22T14:55:51Z</time>
      </trkpt>
      <trkpt lat="39.6301793307" lon="-8.6730625760">
        <ele>352.46</ele>
        <time>2018-12-22T14:55:58Z</time>
      </trkpt>
      <trkpt lat="39.6302084159" lon="-8.6731184833">
        <ele>351.98</ele>
        <time>2018-12-22T14:56:06Z</time>
      </trkpt>
      <trkpt lat="39.6302802488" lon="-8.6731873825">
        <ele>351.50</ele>
        <time>2018-12-22T14:56:15Z</time>
      </trkpt>
      <trkpt lat="39.6304018702" lon="-8.6731648352">
        <ele>350.54</ele>
        <time>2018-12-22T14:56:27Z</time>
      </trkpt>
      <trkpt lat="39.6305355616" lon="-8.6731540225">
        <ele>349.58</ele>
        <time>2018-12-22T14:56:38Z</time>
      </trkpt>
      <trkpt lat="39.6305421833" lon="-8.6731621530">
        <ele>349.10</ele>
        <time>2018-12-22T14:56:39Z</time>
      </trkpt>
      <trkpt lat="39.6306748688" lon="-8.6732753087">
        <ele>349.10</ele>
        <time>2018-12-22T14:56:52Z</time>
      </trkpt>
      <trkpt lat="39.6307903714" lon="-8.6733484827">
        <ele>348.62</ele>
        <time>2018-12-22T14:57:03Z</time>
      </trkpt>
      <trkpt lat="39.6308917087" lon="-8.6734161247">
        <ele>349.58</ele>
        <time>2018-12-22T14:57:13Z</time>
      </trkpt>
      <trkpt lat="39.6310077142" lon="-8.6734683439">
        <ele>348.62</ele>
        <time>2018-12-22T14:57:25Z</time>
      </trkpt>
      <trkpt lat="39.6309930459" lon="-8.6734451260">
        <ele>348.62</ele>
        <time>2018-12-22T14:57:32Z</time>
      </trkpt>
      <trkpt lat="39.6309935488" lon="-8.6734334752">
        <ele>348.62</ele>
        <time>2018-12-22T14:57:44Z</time>
      </trkpt>
      <trkpt lat="39.6309907828" lon="-8.6734423600">
        <ele>352.46</ele>
        <time>2018-12-22T14:57:50Z</time>
      </trkpt>
      <trkpt lat="39.6309874300" lon="-8.6734437849">
        <ele>348.13</ele>
        <time>2018-12-22T14:57:51Z</time>
      </trkpt>
    </trkseg>
  </trk>
</gpx>
